<?xml version="1.0" encoding="UTF-8" ?>
		<gpx
		 version="1.0"
		 xmlns:xsi="http://www.w3.org/2001/XMLSchema-instance"
		 xmlns="http://www.topografix.com/GPX/1/0"
		 xsi:schemaLocation="http://www.topografix.com/GPX/1/0 http://www.topografix.com/GPX/1/0/gpx.xsd"
		 creator="http://www.openrunner.com">
			<trk>
				<name>OR-6157361--Aubazines:Vendéenne 4 ét 2</name>
			    <trkseg>
	
			<trkpt lat="45.174280" lon="1.669660">
			 <ele>293</ele>
			<time>2016-06-03T20:11:45Z</time>
			</trkpt>
		
			<trkpt lat="45.174080" lon="1.669770">
			 <ele>294</ele>
			<time>2016-06-03T20:13:45Z</time>
			</trkpt>
		
			<trkpt lat="45.174080" lon="1.669770">
			 <ele>294</ele>
			<time>2016-06-03T20:15:45Z</time>
			</trkpt>
		
			<trkpt lat="45.174110" lon="1.669830">
			 <ele>294</ele>
			<time>2016-06-03T20:17:45Z</time>
			</trkpt>
		
			<trkpt lat="45.174140" lon="1.669910">
			 <ele>295</ele>
			<time>2016-06-03T20:19:45Z</time>
			</trkpt>
		
			<trkpt lat="45.174170" lon="1.669990">
			 <ele>295</ele>
			<time>2016-06-03T20:21:45Z</time>
			</trkpt>
		
			<trkpt lat="45.174180" lon="1.670070">
			 <ele>295</ele>
			<time>2016-06-03T20:23:45Z</time>
			</trkpt>
		
			<trkpt lat="45.174210" lon="1.670210">
			 <ele>294</ele>
			<time>2016-06-03T20:25:45Z</time>
			</trkpt>
		
			<trkpt lat="45.174230" lon="1.670350">
			 <ele>294</ele>
			<time>2016-06-03T20:27:45Z</time>
			</trkpt>
		
			<trkpt lat="45.174250" lon="1.670500">
			 <ele>293</ele>
			<time>2016-06-03T20:29:45Z</time>
			</trkpt>
		
			<trkpt lat="45.174280" lon="1.670670">
			 <ele>293</ele>
			<time>2016-06-03T20:31:45Z</time>
			</trkpt>
		
			<trkpt lat="45.174310" lon="1.670790">
			 <ele>293</ele>
			<time>2016-06-03T20:33:45Z</time>
			</trkpt>
		
			<trkpt lat="45.174340" lon="1.670920">
			 <ele>293</ele>
			<time>2016-06-03T20:35:45Z</time>
			</trkpt>
		
			<trkpt lat="45.174360" lon="1.671040">
			 <ele>293</ele>
			<time>2016-06-03T20:37:45Z</time>
			</trkpt>
		
			<trkpt lat="45.174370" lon="1.671080">
			 <ele>293</ele>
			<time>2016-06-03T20:39:45Z</time>
			</trkpt>
		
			<trkpt lat="45.174390" lon="1.671180">
			 <ele>294</ele>
			<time>2016-06-03T20:41:45Z</time>
			</trkpt>
		
			<trkpt lat="45.174400" lon="1.671270">
			 <ele>294</ele>
			<time>2016-06-03T20:43:45Z</time>
			</trkpt>
		
			<trkpt lat="45.174420" lon="1.671380">
			 <ele>295</ele>
			<time>2016-06-03T20:45:45Z</time>
			</trkpt>
		
			<trkpt lat="45.174430" lon="1.671510">
			 <ele>295</ele>
			<time>2016-06-03T20:47:45Z</time>
			</trkpt>
		
			<trkpt lat="45.174450" lon="1.671670">
			 <ele>296</ele>
			<time>2016-06-03T20:49:45Z</time>
			</trkpt>
		
			<trkpt lat="45.174460" lon="1.671870">
			 <ele>298</ele>
			<time>2016-06-03T20:51:45Z</time>
			</trkpt>
		
			<trkpt lat="45.174470" lon="1.672010">
			 <ele>300</ele>
			<time>2016-06-03T20:53:45Z</time>
			</trkpt>
		
			<trkpt lat="45.174470" lon="1.672090">
			 <ele>300</ele>
			<time>2016-06-03T20:55:45Z</time>
			</trkpt>
		
			<trkpt lat="45.174470" lon="1.672160">
			 <ele>301</ele>
			<time>2016-06-03T20:57:45Z</time>
			</trkpt>
		
			<trkpt lat="45.174460" lon="1.672220">
			 <ele>301</ele>
			<time>2016-06-03T20:59:45Z</time>
			</trkpt>
		
			<trkpt lat="45.174440" lon="1.672270">
			 <ele>301</ele>
			<time>2016-06-03T21:01:45Z</time>
			</trkpt>
		
			<trkpt lat="45.174400" lon="1.672360">
			 <ele>301</ele>
			<time>2016-06-03T21:03:45Z</time>
			</trkpt>
		
			<trkpt lat="45.174380" lon="1.672450">
			 <ele>301</ele>
			<time>2016-06-03T21:05:45Z</time>
			</trkpt>
		
			<trkpt lat="45.174350" lon="1.672530">
			 <ele>301</ele>
			<time>2016-06-03T21:07:45Z</time>
			</trkpt>
		
			<trkpt lat="45.174330" lon="1.672620">
			 <ele>301</ele>
			<time>2016-06-03T21:09:45Z</time>
			</trkpt>
		
			<trkpt lat="45.174320" lon="1.672720">
			 <ele>302</ele>
			<time>2016-06-03T21:11:45Z</time>
			</trkpt>
		
			<trkpt lat="45.174310" lon="1.672820">
			 <ele>303</ele>
			<time>2016-06-03T21:13:45Z</time>
			</trkpt>
		
			<trkpt lat="45.174300" lon="1.672960">
			 <ele>304</ele>
			<time>2016-06-03T21:15:45Z</time>
			</trkpt>
		
			<trkpt lat="45.174280" lon="1.673160">
			 <ele>305</ele>
			<time>2016-06-03T21:17:45Z</time>
			</trkpt>
		
			<trkpt lat="45.174280" lon="1.673390">
			 <ele>308</ele>
			<time>2016-06-03T21:19:45Z</time>
			</trkpt>
		
			<trkpt lat="45.174270" lon="1.673580">
			 <ele>310</ele>
			<time>2016-06-03T21:21:45Z</time>
			</trkpt>
		
			<trkpt lat="45.174260" lon="1.673730">
			 <ele>311</ele>
			<time>2016-06-03T21:23:45Z</time>
			</trkpt>
		
			<trkpt lat="45.174240" lon="1.673900">
			 <ele>313</ele>
			<time>2016-06-03T21:25:45Z</time>
			</trkpt>
		
			<trkpt lat="45.174220" lon="1.674030">
			 <ele>314</ele>
			<time>2016-06-03T21:27:45Z</time>
			</trkpt>
		
			<trkpt lat="45.174200" lon="1.674160">
			 <ele>314</ele>
			<time>2016-06-03T21:29:45Z</time>
			</trkpt>
		
			<trkpt lat="45.174190" lon="1.674250">
			 <ele>315</ele>
			<time>2016-06-03T21:31:45Z</time>
			</trkpt>
		
			<trkpt lat="45.174170" lon="1.674330">
			 <ele>316</ele>
			<time>2016-06-03T21:33:45Z</time>
			</trkpt>
		
			<trkpt lat="45.174170" lon="1.674370">
			 <ele>316</ele>
			<time>2016-06-03T21:35:45Z</time>
			</trkpt>
		
			<trkpt lat="45.174180" lon="1.674410">
			 <ele>317</ele>
			<time>2016-06-03T21:37:45Z</time>
			</trkpt>
		
			<trkpt lat="45.174190" lon="1.674440">
			 <ele>318</ele>
			<time>2016-06-03T21:39:45Z</time>
			</trkpt>
		
			<trkpt lat="45.174210" lon="1.674470">
			 <ele>319</ele>
			<time>2016-06-03T21:41:45Z</time>
			</trkpt>
		
			<trkpt lat="45.174230" lon="1.674470">
			 <ele>320</ele>
			<time>2016-06-03T21:43:45Z</time>
			</trkpt>
		
			<trkpt lat="45.174230" lon="1.674470">
			 <ele>320</ele>
			<time>2016-06-03T21:45:45Z</time>
			</trkpt>
		
			<trkpt lat="45.174250" lon="1.674460">
			 <ele>321</ele>
			<time>2016-06-03T21:47:45Z</time>
			</trkpt>
		
			<trkpt lat="45.174270" lon="1.674440">
			 <ele>321</ele>
			<time>2016-06-03T21:49:45Z</time>
			</trkpt>
		
			<trkpt lat="45.174280" lon="1.674410">
			 <ele>321</ele>
			<time>2016-06-03T21:51:45Z</time>
			</trkpt>
		
			<trkpt lat="45.174290" lon="1.674370">
			 <ele>321</ele>
			<time>2016-06-03T21:53:45Z</time>
			</trkpt>
		
			<trkpt lat="45.174320" lon="1.674220">
			 <ele>320</ele>
			<time>2016-06-03T21:55:45Z</time>
			</trkpt>
		
			<trkpt lat="45.174350" lon="1.674030">
			 <ele>319</ele>
			<time>2016-06-03T21:57:45Z</time>
			</trkpt>
		
			<trkpt lat="45.174380" lon="1.673890">
			 <ele>318</ele>
			<time>2016-06-03T21:59:45Z</time>
			</trkpt>
		
			<trkpt lat="45.174440" lon="1.673680">
			 <ele>318</ele>
			<time>2016-06-03T22:01:45Z</time>
			</trkpt>
		
			<trkpt lat="45.174510" lon="1.673460">
			 <ele>318</ele>
			<time>2016-06-03T22:03:45Z</time>
			</trkpt>
		
			<trkpt lat="45.174570" lon="1.673320">
			 <ele>318</ele>
			<time>2016-06-03T22:05:45Z</time>
			</trkpt>
		
			<trkpt lat="45.174580" lon="1.673300">
			 <ele>318</ele>
			<time>2016-06-03T22:07:45Z</time>
			</trkpt>
		
			<trkpt lat="45.174630" lon="1.673180">
			 <ele>319</ele>
			<time>2016-06-03T22:09:45Z</time>
			</trkpt>
		
			<trkpt lat="45.174700" lon="1.673070">
			 <ele>320</ele>
			<time>2016-06-03T22:11:45Z</time>
			</trkpt>
		
			<trkpt lat="45.174810" lon="1.672920">
			 <ele>321</ele>
			<time>2016-06-03T22:13:45Z</time>
			</trkpt>
		
			<trkpt lat="45.174890" lon="1.672830">
			 <ele>322</ele>
			<time>2016-06-03T22:15:45Z</time>
			</trkpt>
		
			<trkpt lat="45.174990" lon="1.672730">
			 <ele>324</ele>
			<time>2016-06-03T22:17:45Z</time>
			</trkpt>
		
			<trkpt lat="45.175070" lon="1.672660">
			 <ele>324</ele>
			<time>2016-06-03T22:19:45Z</time>
			</trkpt>
		
			<trkpt lat="45.175160" lon="1.672600">
			 <ele>324</ele>
			<time>2016-06-03T22:21:45Z</time>
			</trkpt>
		
			<trkpt lat="45.175250" lon="1.672540">
			 <ele>324</ele>
			<time>2016-06-03T22:23:45Z</time>
			</trkpt>
		
			<trkpt lat="45.175360" lon="1.672500">
			 <ele>325</ele>
			<time>2016-06-03T22:25:45Z</time>
			</trkpt>
		
			<trkpt lat="45.175410" lon="1.672480">
			 <ele>326</ele>
			<time>2016-06-03T22:27:45Z</time>
			</trkpt>
		
			<trkpt lat="45.175420" lon="1.672480">
			 <ele>326</ele>
			<time>2016-06-03T22:29:45Z</time>
			</trkpt>
		
			<trkpt lat="45.175490" lon="1.672460">
			 <ele>326</ele>
			<time>2016-06-03T22:31:45Z</time>
			</trkpt>
		
			<trkpt lat="45.175510" lon="1.672460">
			 <ele>327</ele>
			<time>2016-06-03T22:33:45Z</time>
			</trkpt>
		
			<trkpt lat="45.175560" lon="1.672450">
			 <ele>327</ele>
			<time>2016-06-03T22:35:45Z</time>
			</trkpt>
		
			<trkpt lat="45.175630" lon="1.672460">
			 <ele>328</ele>
			<time>2016-06-03T22:37:45Z</time>
			</trkpt>
		
			<trkpt lat="45.175680" lon="1.672460">
			 <ele>329</ele>
			<time>2016-06-03T22:39:45Z</time>
			</trkpt>
		
			<trkpt lat="45.175790" lon="1.672490">
			 <ele>331</ele>
			<time>2016-06-03T22:41:45Z</time>
			</trkpt>
		
			<trkpt lat="45.175950" lon="1.672540">
			 <ele>334</ele>
			<time>2016-06-03T22:43:45Z</time>
			</trkpt>
		
			<trkpt lat="45.176120" lon="1.672590">
			 <ele>337</ele>
			<time>2016-06-03T22:45:45Z</time>
			</trkpt>
		
			<trkpt lat="45.176300" lon="1.672640">
			 <ele>340</ele>
			<time>2016-06-03T22:47:45Z</time>
			</trkpt>
		
			<trkpt lat="45.176480" lon="1.672680">
			 <ele>343</ele>
			<time>2016-06-03T22:49:45Z</time>
			</trkpt>
		
			<trkpt lat="45.176550" lon="1.672690">
			 <ele>344</ele>
			<time>2016-06-03T22:51:45Z</time>
			</trkpt>
		
			<trkpt lat="45.176630" lon="1.672700">
			 <ele>345</ele>
			<time>2016-06-03T22:53:45Z</time>
			</trkpt>
		
			<trkpt lat="45.176720" lon="1.672700">
			 <ele>346</ele>
			<time>2016-06-03T22:55:45Z</time>
			</trkpt>
		
			<trkpt lat="45.176800" lon="1.672700">
			 <ele>347</ele>
			<time>2016-06-03T22:57:45Z</time>
			</trkpt>
		
			<trkpt lat="45.176880" lon="1.672700">
			 <ele>347</ele>
			<time>2016-06-03T22:59:45Z</time>
			</trkpt>
		
			<trkpt lat="45.176980" lon="1.672690">
			 <ele>348</ele>
			<time>2016-06-03T23:01:45Z</time>
			</trkpt>
		
			<trkpt lat="45.177070" lon="1.672670">
			 <ele>348</ele>
			<time>2016-06-03T23:03:45Z</time>
			</trkpt>
		
			<trkpt lat="45.177140" lon="1.672660">
			 <ele>349</ele>
			<time>2016-06-03T23:05:45Z</time>
			</trkpt>
		
			<trkpt lat="45.177190" lon="1.672660">
			 <ele>349</ele>
			<time>2016-06-03T23:07:45Z</time>
			</trkpt>
		
			<trkpt lat="45.177220" lon="1.672660">
			 <ele>350</ele>
			<time>2016-06-03T23:09:45Z</time>
			</trkpt>
		
			<trkpt lat="45.177240" lon="1.672670">
			 <ele>350</ele>
			<time>2016-06-03T23:11:45Z</time>
			</trkpt>
		
			<trkpt lat="45.177240" lon="1.672670">
			 <ele>350</ele>
			<time>2016-06-03T23:13:45Z</time>
			</trkpt>
		
			<trkpt lat="45.177260" lon="1.672700">
			 <ele>351</ele>
			<time>2016-06-03T23:15:45Z</time>
			</trkpt>
		
			<trkpt lat="45.177270" lon="1.672730">
			 <ele>351</ele>
			<time>2016-06-03T23:17:45Z</time>
			</trkpt>
		
			<trkpt lat="45.177260" lon="1.672760">
			 <ele>352</ele>
			<time>2016-06-03T23:19:45Z</time>
			</trkpt>
		
			<trkpt lat="45.177250" lon="1.672810">
			 <ele>353</ele>
			<time>2016-06-03T23:21:45Z</time>
			</trkpt>
		
			<trkpt lat="45.177230" lon="1.672830">
			 <ele>353</ele>
			<time>2016-06-03T23:23:45Z</time>
			</trkpt>
		
			<trkpt lat="45.177180" lon="1.672840">
			 <ele>353</ele>
			<time>2016-06-03T23:25:45Z</time>
			</trkpt>
		
			<trkpt lat="45.177130" lon="1.672830">
			 <ele>352</ele>
			<time>2016-06-03T23:27:45Z</time>
			</trkpt>
		
			<trkpt lat="45.177070" lon="1.672830">
			 <ele>352</ele>
			<time>2016-06-03T23:29:45Z</time>
			</trkpt>
		
			<trkpt lat="45.177020" lon="1.672830">
			 <ele>351</ele>
			<time>2016-06-03T23:31:45Z</time>
			</trkpt>
		
			<trkpt lat="45.176960" lon="1.672840">
			 <ele>351</ele>
			<time>2016-06-03T23:33:45Z</time>
			</trkpt>
		
			<trkpt lat="45.176910" lon="1.672850">
			 <ele>351</ele>
			<time>2016-06-03T23:35:45Z</time>
			</trkpt>
		
			<trkpt lat="45.176830" lon="1.672880">
			 <ele>351</ele>
			<time>2016-06-03T23:37:45Z</time>
			</trkpt>
		
			<trkpt lat="45.176690" lon="1.672940">
			 <ele>351</ele>
			<time>2016-06-03T23:39:45Z</time>
			</trkpt>
		
			<trkpt lat="45.176610" lon="1.672980">
			 <ele>351</ele>
			<time>2016-06-03T23:41:45Z</time>
			</trkpt>
		
			<trkpt lat="45.176430" lon="1.673070">
			 <ele>352</ele>
			<time>2016-06-03T23:43:45Z</time>
			</trkpt>
		
			<trkpt lat="45.176160" lon="1.673200">
			 <ele>353</ele>
			<time>2016-06-03T23:45:45Z</time>
			</trkpt>
		
			<trkpt lat="45.176010" lon="1.673260">
			 <ele>353</ele>
			<time>2016-06-03T23:47:45Z</time>
			</trkpt>
		
			<trkpt lat="45.175920" lon="1.673310">
			 <ele>353</ele>
			<time>2016-06-03T23:49:45Z</time>
			</trkpt>
		
			<trkpt lat="45.175840" lon="1.673360">
			 <ele>354</ele>
			<time>2016-06-03T23:51:45Z</time>
			</trkpt>
		
			<trkpt lat="45.175760" lon="1.673420">
			 <ele>353</ele>
			<time>2016-06-03T23:53:45Z</time>
			</trkpt>
		
			<trkpt lat="45.175690" lon="1.673480">
			 <ele>353</ele>
			<time>2016-06-03T23:55:45Z</time>
			</trkpt>
		
			<trkpt lat="45.175620" lon="1.673560">
			 <ele>353</ele>
			<time>2016-06-03T23:57:45Z</time>
			</trkpt>
		
			<trkpt lat="45.175560" lon="1.673630">
			 <ele>353</ele>
			<time>2016-06-03T23:59:45Z</time>
			</trkpt>
		
			<trkpt lat="45.175500" lon="1.673720">
			 <ele>354</ele>
			<time>2016-06-04T00:01:45Z</time>
			</trkpt>
		
			<trkpt lat="45.175460" lon="1.673810">
			 <ele>354</ele>
			<time>2016-06-04T00:03:45Z</time>
			</trkpt>
		
			<trkpt lat="45.175420" lon="1.673900">
			 <ele>355</ele>
			<time>2016-06-04T00:05:45Z</time>
			</trkpt>
		
			<trkpt lat="45.175400" lon="1.673940">
			 <ele>355</ele>
			<time>2016-06-04T00:07:45Z</time>
			</trkpt>
		
			<trkpt lat="45.175380" lon="1.674020">
			 <ele>356</ele>
			<time>2016-06-04T00:09:45Z</time>
			</trkpt>
		
			<trkpt lat="45.175320" lon="1.674180">
			 <ele>357</ele>
			<time>2016-06-04T00:11:45Z</time>
			</trkpt>
		
			<trkpt lat="45.175280" lon="1.674320">
			 <ele>358</ele>
			<time>2016-06-04T00:13:45Z</time>
			</trkpt>
		
			<trkpt lat="45.175250" lon="1.674400">
			 <ele>358</ele>
			<time>2016-06-04T00:15:45Z</time>
			</trkpt>
		
			<trkpt lat="45.175230" lon="1.674510">
			 <ele>358</ele>
			<time>2016-06-04T00:17:45Z</time>
			</trkpt>
		
			<trkpt lat="45.175210" lon="1.674590">
			 <ele>359</ele>
			<time>2016-06-04T00:19:45Z</time>
			</trkpt>
		
			<trkpt lat="45.175210" lon="1.674670">
			 <ele>360</ele>
			<time>2016-06-04T00:21:45Z</time>
			</trkpt>
		
			<trkpt lat="45.175200" lon="1.674770">
			 <ele>361</ele>
			<time>2016-06-04T00:23:45Z</time>
			</trkpt>
		
			<trkpt lat="45.175190" lon="1.674920">
			 <ele>362</ele>
			<time>2016-06-04T00:25:45Z</time>
			</trkpt>
		
			<trkpt lat="45.175190" lon="1.675110">
			 <ele>364</ele>
			<time>2016-06-04T00:27:45Z</time>
			</trkpt>
		
			<trkpt lat="45.175190" lon="1.675250">
			 <ele>366</ele>
			<time>2016-06-04T00:29:45Z</time>
			</trkpt>
		
			<trkpt lat="45.175200" lon="1.675360">
			 <ele>367</ele>
			<time>2016-06-04T00:31:45Z</time>
			</trkpt>
		
			<trkpt lat="45.175210" lon="1.675520">
			 <ele>369</ele>
			<time>2016-06-04T00:33:45Z</time>
			</trkpt>
		
			<trkpt lat="45.175220" lon="1.675690">
			 <ele>371</ele>
			<time>2016-06-04T00:35:45Z</time>
			</trkpt>
		
			<trkpt lat="45.175210" lon="1.675800">
			 <ele>372</ele>
			<time>2016-06-04T00:37:45Z</time>
			</trkpt>
		
			<trkpt lat="45.175200" lon="1.675890">
			 <ele>373</ele>
			<time>2016-06-04T00:39:45Z</time>
			</trkpt>
		
			<trkpt lat="45.175190" lon="1.675970">
			 <ele>374</ele>
			<time>2016-06-04T00:41:45Z</time>
			</trkpt>
		
			<trkpt lat="45.175160" lon="1.676030">
			 <ele>375</ele>
			<time>2016-06-04T00:43:45Z</time>
			</trkpt>
		
			<trkpt lat="45.175130" lon="1.676080">
			 <ele>375</ele>
			<time>2016-06-04T00:45:45Z</time>
			</trkpt>
		
			<trkpt lat="45.175080" lon="1.676120">
			 <ele>374</ele>
			<time>2016-06-04T00:47:45Z</time>
			</trkpt>
		
			<trkpt lat="45.174980" lon="1.676190">
			 <ele>373</ele>
			<time>2016-06-04T00:49:45Z</time>
			</trkpt>
		
			<trkpt lat="45.174890" lon="1.676260">
			 <ele>373</ele>
			<time>2016-06-04T00:51:45Z</time>
			</trkpt>
		
			<trkpt lat="45.174820" lon="1.676310">
			 <ele>372</ele>
			<time>2016-06-04T00:53:45Z</time>
			</trkpt>
		
			<trkpt lat="45.174750" lon="1.676370">
			 <ele>372</ele>
			<time>2016-06-04T00:55:45Z</time>
			</trkpt>
		
			<trkpt lat="45.174670" lon="1.676470">
			 <ele>372</ele>
			<time>2016-06-04T00:57:45Z</time>
			</trkpt>
		
			<trkpt lat="45.174570" lon="1.676580">
			 <ele>373</ele>
			<time>2016-06-04T00:59:45Z</time>
			</trkpt>
		
			<trkpt lat="45.174470" lon="1.676710">
			 <ele>373</ele>
			<time>2016-06-04T01:01:45Z</time>
			</trkpt>
		
			<trkpt lat="45.174390" lon="1.676820">
			 <ele>374</ele>
			<time>2016-06-04T01:03:45Z</time>
			</trkpt>
		
			<trkpt lat="45.174310" lon="1.676920">
			 <ele>375</ele>
			<time>2016-06-04T01:05:45Z</time>
			</trkpt>
		
			<trkpt lat="45.174200" lon="1.677070">
			 <ele>375</ele>
			<time>2016-06-04T01:07:45Z</time>
			</trkpt>
		
			<trkpt lat="45.174120" lon="1.677170">
			 <ele>376</ele>
			<time>2016-06-04T01:09:45Z</time>
			</trkpt>
		
			<trkpt lat="45.174050" lon="1.677240">
			 <ele>375</ele>
			<time>2016-06-04T01:11:45Z</time>
			</trkpt>
		
			<trkpt lat="45.173900" lon="1.677390">
			 <ele>374</ele>
			<time>2016-06-04T01:13:45Z</time>
			</trkpt>
		
			<trkpt lat="45.173810" lon="1.677480">
			 <ele>374</ele>
			<time>2016-06-04T01:15:45Z</time>
			</trkpt>
		
			<trkpt lat="45.173710" lon="1.677580">
			 <ele>374</ele>
			<time>2016-06-04T01:17:45Z</time>
			</trkpt>
		
			<trkpt lat="45.173530" lon="1.677760">
			 <ele>374</ele>
			<time>2016-06-04T01:19:45Z</time>
			</trkpt>
		
			<trkpt lat="45.173380" lon="1.677910">
			 <ele>375</ele>
			<time>2016-06-04T01:21:45Z</time>
			</trkpt>
		
			<trkpt lat="45.173270" lon="1.678030">
			 <ele>375</ele>
			<time>2016-06-04T01:23:45Z</time>
			</trkpt>
		
			<trkpt lat="45.173180" lon="1.678150">
			 <ele>375</ele>
			<time>2016-06-04T01:25:45Z</time>
			</trkpt>
		
			<trkpt lat="45.173120" lon="1.678260">
			 <ele>375</ele>
			<time>2016-06-04T01:27:45Z</time>
			</trkpt>
		
			<trkpt lat="45.173060" lon="1.678360">
			 <ele>375</ele>
			<time>2016-06-04T01:29:45Z</time>
			</trkpt>
		
			<trkpt lat="45.173010" lon="1.678460">
			 <ele>374</ele>
			<time>2016-06-04T01:31:45Z</time>
			</trkpt>
		
			<trkpt lat="45.172990" lon="1.678550">
			 <ele>374</ele>
			<time>2016-06-04T01:33:45Z</time>
			</trkpt>
		
			<trkpt lat="45.172970" lon="1.678620">
			 <ele>373</ele>
			<time>2016-06-04T01:35:45Z</time>
			</trkpt>
		
			<trkpt lat="45.172960" lon="1.678720">
			 <ele>373</ele>
			<time>2016-06-04T01:37:45Z</time>
			</trkpt>
		
			<trkpt lat="45.172940" lon="1.678820">
			 <ele>373</ele>
			<time>2016-06-04T01:39:45Z</time>
			</trkpt>
		
			<trkpt lat="45.172940" lon="1.678950">
			 <ele>374</ele>
			<time>2016-06-04T01:41:45Z</time>
			</trkpt>
		
			<trkpt lat="45.172950" lon="1.679140">
			 <ele>376</ele>
			<time>2016-06-04T01:43:45Z</time>
			</trkpt>
		
			<trkpt lat="45.172960" lon="1.679310">
			 <ele>376</ele>
			<time>2016-06-04T01:45:45Z</time>
			</trkpt>
		
			<trkpt lat="45.172980" lon="1.679500">
			 <ele>376</ele>
			<time>2016-06-04T01:47:45Z</time>
			</trkpt>
		
			<trkpt lat="45.173000" lon="1.679690">
			 <ele>377</ele>
			<time>2016-06-04T01:49:45Z</time>
			</trkpt>
		
			<trkpt lat="45.173020" lon="1.679840">
			 <ele>378</ele>
			<time>2016-06-04T01:51:45Z</time>
			</trkpt>
		
			<trkpt lat="45.173040" lon="1.679960">
			 <ele>379</ele>
			<time>2016-06-04T01:53:45Z</time>
			</trkpt>
		
			<trkpt lat="45.173050" lon="1.680050">
			 <ele>379</ele>
			<time>2016-06-04T01:55:45Z</time>
			</trkpt>
		
			<trkpt lat="45.173070" lon="1.680110">
			 <ele>380</ele>
			<time>2016-06-04T01:57:45Z</time>
			</trkpt>
		
			<trkpt lat="45.173090" lon="1.680180">
			 <ele>380</ele>
			<time>2016-06-04T01:59:45Z</time>
			</trkpt>
		
			<trkpt lat="45.173120" lon="1.680260">
			 <ele>382</ele>
			<time>2016-06-04T02:01:45Z</time>
			</trkpt>
		
			<trkpt lat="45.173170" lon="1.680360">
			 <ele>384</ele>
			<time>2016-06-04T02:03:45Z</time>
			</trkpt>
		
			<trkpt lat="45.173220" lon="1.680470">
			 <ele>386</ele>
			<time>2016-06-04T02:05:45Z</time>
			</trkpt>
		
			<trkpt lat="45.173260" lon="1.680580">
			 <ele>388</ele>
			<time>2016-06-04T02:07:45Z</time>
			</trkpt>
		
			<trkpt lat="45.173300" lon="1.680680">
			 <ele>389</ele>
			<time>2016-06-04T02:09:45Z</time>
			</trkpt>
		
			<trkpt lat="45.173330" lon="1.680790">
			 <ele>390</ele>
			<time>2016-06-04T02:11:45Z</time>
			</trkpt>
		
			<trkpt lat="45.173360" lon="1.680920">
			 <ele>390</ele>
			<time>2016-06-04T02:13:45Z</time>
			</trkpt>
		
			<trkpt lat="45.173400" lon="1.681070">
			 <ele>389</ele>
			<time>2016-06-04T02:15:45Z</time>
			</trkpt>
		
			<trkpt lat="45.173430" lon="1.681170">
			 <ele>388</ele>
			<time>2016-06-04T02:17:45Z</time>
			</trkpt>
		
			<trkpt lat="45.173460" lon="1.681260">
			 <ele>388</ele>
			<time>2016-06-04T02:19:45Z</time>
			</trkpt>
		
			<trkpt lat="45.173500" lon="1.681350">
			 <ele>387</ele>
			<time>2016-06-04T02:21:45Z</time>
			</trkpt>
		
			<trkpt lat="45.173530" lon="1.681440">
			 <ele>387</ele>
			<time>2016-06-04T02:23:45Z</time>
			</trkpt>
		
			<trkpt lat="45.173570" lon="1.681500">
			 <ele>387</ele>
			<time>2016-06-04T02:25:45Z</time>
			</trkpt>
		
			<trkpt lat="45.173610" lon="1.681560">
			 <ele>387</ele>
			<time>2016-06-04T02:27:45Z</time>
			</trkpt>
		
			<trkpt lat="45.173660" lon="1.681610">
			 <ele>388</ele>
			<time>2016-06-04T02:29:45Z</time>
			</trkpt>
		
			<trkpt lat="45.173730" lon="1.681660">
			 <ele>389</ele>
			<time>2016-06-04T02:31:45Z</time>
			</trkpt>
		
			<trkpt lat="45.173790" lon="1.681690">
			 <ele>390</ele>
			<time>2016-06-04T02:33:45Z</time>
			</trkpt>
		
			<trkpt lat="45.173850" lon="1.681710">
			 <ele>391</ele>
			<time>2016-06-04T02:35:45Z</time>
			</trkpt>
		
			<trkpt lat="45.173930" lon="1.681730">
			 <ele>393</ele>
			<time>2016-06-04T02:37:45Z</time>
			</trkpt>
		
			<trkpt lat="45.174000" lon="1.681730">
			 <ele>395</ele>
			<time>2016-06-04T02:39:45Z</time>
			</trkpt>
		
			<trkpt lat="45.174070" lon="1.681710">
			 <ele>398</ele>
			<time>2016-06-04T02:41:45Z</time>
			</trkpt>
		
			<trkpt lat="45.174140" lon="1.681690">
			 <ele>401</ele>
			<time>2016-06-04T02:43:45Z</time>
			</trkpt>
		
			<trkpt lat="45.174240" lon="1.681660">
			 <ele>404</ele>
			<time>2016-06-04T02:45:45Z</time>
			</trkpt>
		
			<trkpt lat="45.174320" lon="1.681660">
			 <ele>405</ele>
			<time>2016-06-04T02:47:45Z</time>
			</trkpt>
		
			<trkpt lat="45.174390" lon="1.681650">
			 <ele>406</ele>
			<time>2016-06-04T02:49:45Z</time>
			</trkpt>
		
			<trkpt lat="45.174460" lon="1.681650">
			 <ele>407</ele>
			<time>2016-06-04T02:51:45Z</time>
			</trkpt>
		
			<trkpt lat="45.174530" lon="1.681660">
			 <ele>408</ele>
			<time>2016-06-04T02:53:45Z</time>
			</trkpt>
		
			<trkpt lat="45.174610" lon="1.681680">
			 <ele>408</ele>
			<time>2016-06-04T02:55:45Z</time>
			</trkpt>
		
			<trkpt lat="45.174720" lon="1.681710">
			 <ele>408</ele>
			<time>2016-06-04T02:57:45Z</time>
			</trkpt>
		
			<trkpt lat="45.174810" lon="1.681760">
			 <ele>408</ele>
			<time>2016-06-04T02:59:45Z</time>
			</trkpt>
		
			<trkpt lat="45.174890" lon="1.681810">
			 <ele>407</ele>
			<time>2016-06-04T03:01:45Z</time>
			</trkpt>
		
			<trkpt lat="45.174990" lon="1.681880">
			 <ele>407</ele>
			<time>2016-06-04T03:03:45Z</time>
			</trkpt>
		
			<trkpt lat="45.175060" lon="1.681960">
			 <ele>405</ele>
			<time>2016-06-04T03:05:45Z</time>
			</trkpt>
		
			<trkpt lat="45.175140" lon="1.682070">
			 <ele>404</ele>
			<time>2016-06-04T03:07:45Z</time>
			</trkpt>
		
			<trkpt lat="45.175240" lon="1.682190">
			 <ele>403</ele>
			<time>2016-06-04T03:09:45Z</time>
			</trkpt>
		
			<trkpt lat="45.175320" lon="1.682280">
			 <ele>402</ele>
			<time>2016-06-04T03:11:45Z</time>
			</trkpt>
		
			<trkpt lat="45.175400" lon="1.682360">
			 <ele>402</ele>
			<time>2016-06-04T03:13:45Z</time>
			</trkpt>
		
			<trkpt lat="45.175470" lon="1.682400">
			 <ele>403</ele>
			<time>2016-06-04T03:15:45Z</time>
			</trkpt>
		
			<trkpt lat="45.175530" lon="1.682420">
			 <ele>404</ele>
			<time>2016-06-04T03:17:45Z</time>
			</trkpt>
		
			<trkpt lat="45.175590" lon="1.682430">
			 <ele>405</ele>
			<time>2016-06-04T03:19:45Z</time>
			</trkpt>
		
			<trkpt lat="45.175640" lon="1.682430">
			 <ele>406</ele>
			<time>2016-06-04T03:21:45Z</time>
			</trkpt>
		
			<trkpt lat="45.175680" lon="1.682420">
			 <ele>407</ele>
			<time>2016-06-04T03:23:45Z</time>
			</trkpt>
		
			<trkpt lat="45.175700" lon="1.682420">
			 <ele>408</ele>
			<time>2016-06-04T03:25:45Z</time>
			</trkpt>
		
			<trkpt lat="45.175740" lon="1.682420">
			 <ele>409</ele>
			<time>2016-06-04T03:27:45Z</time>
			</trkpt>
		
			<trkpt lat="45.175790" lon="1.682430">
			 <ele>410</ele>
			<time>2016-06-04T03:29:45Z</time>
			</trkpt>
		
			<trkpt lat="45.175830" lon="1.682440">
			 <ele>411</ele>
			<time>2016-06-04T03:31:45Z</time>
			</trkpt>
		
			<trkpt lat="45.175870" lon="1.682460">
			 <ele>411</ele>
			<time>2016-06-04T03:33:45Z</time>
			</trkpt>
		
			<trkpt lat="45.175900" lon="1.682510">
			 <ele>411</ele>
			<time>2016-06-04T03:35:45Z</time>
			</trkpt>
		
			<trkpt lat="45.175940" lon="1.682560">
			 <ele>412</ele>
			<time>2016-06-04T03:37:45Z</time>
			</trkpt>
		
			<trkpt lat="45.175960" lon="1.682640">
			 <ele>412</ele>
			<time>2016-06-04T03:39:45Z</time>
			</trkpt>
		
			<trkpt lat="45.175980" lon="1.682700">
			 <ele>412</ele>
			<time>2016-06-04T03:41:45Z</time>
			</trkpt>
		
			<trkpt lat="45.176000" lon="1.682830">
			 <ele>412</ele>
			<time>2016-06-04T03:43:45Z</time>
			</trkpt>
		
			<trkpt lat="45.176020" lon="1.683040">
			 <ele>412</ele>
			<time>2016-06-04T03:45:45Z</time>
			</trkpt>
		
			<trkpt lat="45.176050" lon="1.683420">
			 <ele>411</ele>
			<time>2016-06-04T03:47:45Z</time>
			</trkpt>
		
			<trkpt lat="45.176060" lon="1.683560">
			 <ele>412</ele>
			<time>2016-06-04T03:49:45Z</time>
			</trkpt>
		
			<trkpt lat="45.176080" lon="1.683790">
			 <ele>413</ele>
			<time>2016-06-04T03:51:45Z</time>
			</trkpt>
		
			<trkpt lat="45.176090" lon="1.683920">
			 <ele>414</ele>
			<time>2016-06-04T03:53:45Z</time>
			</trkpt>
		
			<trkpt lat="45.176100" lon="1.684010">
			 <ele>415</ele>
			<time>2016-06-04T03:55:45Z</time>
			</trkpt>
		
			<trkpt lat="45.176120" lon="1.684090">
			 <ele>415</ele>
			<time>2016-06-04T03:57:45Z</time>
			</trkpt>
		
			<trkpt lat="45.176160" lon="1.684180">
			 <ele>417</ele>
			<time>2016-06-04T03:59:45Z</time>
			</trkpt>
		
			<trkpt lat="45.176230" lon="1.684430">
			 <ele>419</ele>
			<time>2016-06-04T04:01:45Z</time>
			</trkpt>
		
			<trkpt lat="45.176290" lon="1.684660">
			 <ele>421</ele>
			<time>2016-06-04T04:03:45Z</time>
			</trkpt>
		
			<trkpt lat="45.176360" lon="1.684900">
			 <ele>422</ele>
			<time>2016-06-04T04:05:45Z</time>
			</trkpt>
		
			<trkpt lat="45.176400" lon="1.685090">
			 <ele>422</ele>
			<time>2016-06-04T04:07:45Z</time>
			</trkpt>
		
			<trkpt lat="45.176430" lon="1.685260">
			 <ele>422</ele>
			<time>2016-06-04T04:09:45Z</time>
			</trkpt>
		
			<trkpt lat="45.176470" lon="1.685410">
			 <ele>423</ele>
			<time>2016-06-04T04:11:45Z</time>
			</trkpt>
		
			<trkpt lat="45.176500" lon="1.685530">
			 <ele>423</ele>
			<time>2016-06-04T04:13:45Z</time>
			</trkpt>
		
			<trkpt lat="45.176550" lon="1.685650">
			 <ele>423</ele>
			<time>2016-06-04T04:15:45Z</time>
			</trkpt>
		
			<trkpt lat="45.176590" lon="1.685740">
			 <ele>423</ele>
			<time>2016-06-04T04:17:45Z</time>
			</trkpt>
		
			<trkpt lat="45.176630" lon="1.685820">
			 <ele>424</ele>
			<time>2016-06-04T04:19:45Z</time>
			</trkpt>
		
			<trkpt lat="45.176670" lon="1.685870">
			 <ele>424</ele>
			<time>2016-06-04T04:21:45Z</time>
			</trkpt>
		
			<trkpt lat="45.176710" lon="1.685900">
			 <ele>425</ele>
			<time>2016-06-04T04:23:45Z</time>
			</trkpt>
		
			<trkpt lat="45.176840" lon="1.685970">
			 <ele>427</ele>
			<time>2016-06-04T04:25:45Z</time>
			</trkpt>
		
			<trkpt lat="45.177000" lon="1.686030">
			 <ele>429</ele>
			<time>2016-06-04T04:27:45Z</time>
			</trkpt>
		
			<trkpt lat="45.177070" lon="1.686070">
			 <ele>430</ele>
			<time>2016-06-04T04:29:45Z</time>
			</trkpt>
		
			<trkpt lat="45.177090" lon="1.686090">
			 <ele>430</ele>
			<time>2016-06-04T04:31:45Z</time>
			</trkpt>
		
			<trkpt lat="45.177110" lon="1.686110">
			 <ele>431</ele>
			<time>2016-06-04T04:33:45Z</time>
			</trkpt>
		
			<trkpt lat="45.177130" lon="1.686130">
			 <ele>431</ele>
			<time>2016-06-04T04:35:45Z</time>
			</trkpt>
		
			<trkpt lat="45.177140" lon="1.686160">
			 <ele>431</ele>
			<time>2016-06-04T04:37:45Z</time>
			</trkpt>
		
			<trkpt lat="45.177150" lon="1.686210">
			 <ele>431</ele>
			<time>2016-06-04T04:39:45Z</time>
			</trkpt>
		
			<trkpt lat="45.177150" lon="1.686260">
			 <ele>431</ele>
			<time>2016-06-04T04:41:45Z</time>
			</trkpt>
		
			<trkpt lat="45.177150" lon="1.686310">
			 <ele>431</ele>
			<time>2016-06-04T04:43:45Z</time>
			</trkpt>
		
			<trkpt lat="45.177130" lon="1.686350">
			 <ele>431</ele>
			<time>2016-06-04T04:45:45Z</time>
			</trkpt>
		
			<trkpt lat="45.177110" lon="1.686380">
			 <ele>430</ele>
			<time>2016-06-04T04:47:45Z</time>
			</trkpt>
		
			<trkpt lat="45.176990" lon="1.686470">
			 <ele>428</ele>
			<time>2016-06-04T04:49:45Z</time>
			</trkpt>
		
			<trkpt lat="45.176890" lon="1.686540">
			 <ele>427</ele>
			<time>2016-06-04T04:51:45Z</time>
			</trkpt>
		
			<trkpt lat="45.176810" lon="1.686650">
			 <ele>425</ele>
			<time>2016-06-04T04:53:45Z</time>
			</trkpt>
		
			<trkpt lat="45.176780" lon="1.686730">
			 <ele>425</ele>
			<time>2016-06-04T04:55:45Z</time>
			</trkpt>
		
			<trkpt lat="45.176770" lon="1.686790">
			 <ele>425</ele>
			<time>2016-06-04T04:57:45Z</time>
			</trkpt>
		
			<trkpt lat="45.176750" lon="1.686890">
			 <ele>426</ele>
			<time>2016-06-04T04:59:45Z</time>
			</trkpt>
		
			<trkpt lat="45.176740" lon="1.686920">
			 <ele>426</ele>
			<time>2016-06-04T05:01:45Z</time>
			</trkpt>
		
			<trkpt lat="45.176720" lon="1.687030">
			 <ele>426</ele>
			<time>2016-06-04T05:03:45Z</time>
			</trkpt>
		
			<trkpt lat="45.176710" lon="1.687180">
			 <ele>427</ele>
			<time>2016-06-04T05:05:45Z</time>
			</trkpt>
		
			<trkpt lat="45.176700" lon="1.687370">
			 <ele>428</ele>
			<time>2016-06-04T05:07:45Z</time>
			</trkpt>
		
			<trkpt lat="45.176690" lon="1.687580">
			 <ele>428</ele>
			<time>2016-06-04T05:09:45Z</time>
			</trkpt>
		
			<trkpt lat="45.176700" lon="1.687710">
			 <ele>429</ele>
			<time>2016-06-04T05:11:45Z</time>
			</trkpt>
		
			<trkpt lat="45.176700" lon="1.687830">
			 <ele>429</ele>
			<time>2016-06-04T05:13:45Z</time>
			</trkpt>
		
			<trkpt lat="45.176710" lon="1.687940">
			 <ele>429</ele>
			<time>2016-06-04T05:15:45Z</time>
			</trkpt>
		
			<trkpt lat="45.176730" lon="1.688060">
			 <ele>429</ele>
			<time>2016-06-04T05:17:45Z</time>
			</trkpt>
		
			<trkpt lat="45.176760" lon="1.688170">
			 <ele>430</ele>
			<time>2016-06-04T05:19:45Z</time>
			</trkpt>
		
			<trkpt lat="45.176790" lon="1.688260">
			 <ele>430</ele>
			<time>2016-06-04T05:21:45Z</time>
			</trkpt>
		
			<trkpt lat="45.176840" lon="1.688350">
			 <ele>431</ele>
			<time>2016-06-04T05:23:45Z</time>
			</trkpt>
		
			<trkpt lat="45.176900" lon="1.688440">
			 <ele>430</ele>
			<time>2016-06-04T05:25:45Z</time>
			</trkpt>
		
			<trkpt lat="45.177010" lon="1.688530">
			 <ele>431</ele>
			<time>2016-06-04T05:27:45Z</time>
			</trkpt>
		
			<trkpt lat="45.177180" lon="1.688680">
			 <ele>431</ele>
			<time>2016-06-04T05:29:45Z</time>
			</trkpt>
		
			<trkpt lat="45.177370" lon="1.688830">
			 <ele>433</ele>
			<time>2016-06-04T05:31:45Z</time>
			</trkpt>
		
			<trkpt lat="45.177490" lon="1.688910">
			 <ele>434</ele>
			<time>2016-06-04T05:33:45Z</time>
			</trkpt>
		
			<trkpt lat="45.177550" lon="1.688950">
			 <ele>434</ele>
			<time>2016-06-04T05:35:45Z</time>
			</trkpt>
		
			<trkpt lat="45.177620" lon="1.688980">
			 <ele>434</ele>
			<time>2016-06-04T05:37:45Z</time>
			</trkpt>
		
			<trkpt lat="45.177710" lon="1.689000">
			 <ele>435</ele>
			<time>2016-06-04T05:39:45Z</time>
			</trkpt>
		
			<trkpt lat="45.177860" lon="1.689030">
			 <ele>435</ele>
			<time>2016-06-04T05:41:45Z</time>
			</trkpt>
		
			<trkpt lat="45.177970" lon="1.689050">
			 <ele>436</ele>
			<time>2016-06-04T05:43:45Z</time>
			</trkpt>
		
			<trkpt lat="45.178060" lon="1.689060">
			 <ele>436</ele>
			<time>2016-06-04T05:45:45Z</time>
			</trkpt>
		
			<trkpt lat="45.178170" lon="1.689080">
			 <ele>437</ele>
			<time>2016-06-04T05:47:45Z</time>
			</trkpt>
		
			<trkpt lat="45.178250" lon="1.689100">
			 <ele>437</ele>
			<time>2016-06-04T05:49:45Z</time>
			</trkpt>
		
			<trkpt lat="45.178350" lon="1.689140">
			 <ele>437</ele>
			<time>2016-06-04T05:51:45Z</time>
			</trkpt>
		
			<trkpt lat="45.178460" lon="1.689190">
			 <ele>438</ele>
			<time>2016-06-04T05:53:45Z</time>
			</trkpt>
		
			<trkpt lat="45.178530" lon="1.689230">
			 <ele>438</ele>
			<time>2016-06-04T05:55:45Z</time>
			</trkpt>
		
			<trkpt lat="45.178700" lon="1.689320">
			 <ele>439</ele>
			<time>2016-06-04T05:57:45Z</time>
			</trkpt>
		
			<trkpt lat="45.178730" lon="1.689340">
			 <ele>439</ele>
			<time>2016-06-04T05:59:45Z</time>
			</trkpt>
		
			<trkpt lat="45.178890" lon="1.689440">
			 <ele>440</ele>
			<time>2016-06-04T06:01:45Z</time>
			</trkpt>
		
			<trkpt lat="45.179020" lon="1.689510">
			 <ele>440</ele>
			<time>2016-06-04T06:03:45Z</time>
			</trkpt>
		
			<trkpt lat="45.179160" lon="1.689590">
			 <ele>441</ele>
			<time>2016-06-04T06:05:45Z</time>
			</trkpt>
		
			<trkpt lat="45.179260" lon="1.689650">
			 <ele>441</ele>
			<time>2016-06-04T06:07:45Z</time>
			</trkpt>
		
			<trkpt lat="45.179350" lon="1.689690">
			 <ele>442</ele>
			<time>2016-06-04T06:09:45Z</time>
			</trkpt>
		
			<trkpt lat="45.179410" lon="1.689710">
			 <ele>442</ele>
			<time>2016-06-04T06:11:45Z</time>
			</trkpt>
		
			<trkpt lat="45.179470" lon="1.689730">
			 <ele>442</ele>
			<time>2016-06-04T06:13:45Z</time>
			</trkpt>
		
			<trkpt lat="45.179540" lon="1.689740">
			 <ele>443</ele>
			<time>2016-06-04T06:15:45Z</time>
			</trkpt>
		
			<trkpt lat="45.179650" lon="1.689750">
			 <ele>443</ele>
			<time>2016-06-04T06:17:45Z</time>
			</trkpt>
		
			<trkpt lat="45.179860" lon="1.689770">
			 <ele>444</ele>
			<time>2016-06-04T06:19:45Z</time>
			</trkpt>
		
			<trkpt lat="45.180100" lon="1.689780">
			 <ele>446</ele>
			<time>2016-06-04T06:21:45Z</time>
			</trkpt>
		
			<trkpt lat="45.180280" lon="1.689800">
			 <ele>447</ele>
			<time>2016-06-04T06:23:45Z</time>
			</trkpt>
		
			<trkpt lat="45.180360" lon="1.689810">
			 <ele>447</ele>
			<time>2016-06-04T06:25:45Z</time>
			</trkpt>
		
			<trkpt lat="45.180400" lon="1.689800">
			 <ele>447</ele>
			<time>2016-06-04T06:27:45Z</time>
			</trkpt>
		
			<trkpt lat="45.180460" lon="1.689800">
			 <ele>447</ele>
			<time>2016-06-04T06:29:45Z</time>
			</trkpt>
		
			<trkpt lat="45.180500" lon="1.689820">
			 <ele>447</ele>
			<time>2016-06-04T06:31:45Z</time>
			</trkpt>
		
			<trkpt lat="45.180540" lon="1.689850">
			 <ele>447</ele>
			<time>2016-06-04T06:33:45Z</time>
			</trkpt>
		
			<trkpt lat="45.180580" lon="1.689900">
			 <ele>447</ele>
			<time>2016-06-04T06:35:45Z</time>
			</trkpt>
		
			<trkpt lat="45.180620" lon="1.689950">
			 <ele>447</ele>
			<time>2016-06-04T06:37:45Z</time>
			</trkpt>
		
			<trkpt lat="45.180690" lon="1.690050">
			 <ele>447</ele>
			<time>2016-06-04T06:39:45Z</time>
			</trkpt>
		
			<trkpt lat="45.180750" lon="1.690180">
			 <ele>447</ele>
			<time>2016-06-04T06:41:45Z</time>
			</trkpt>
		
			<trkpt lat="45.180800" lon="1.690290">
			 <ele>446</ele>
			<time>2016-06-04T06:43:45Z</time>
			</trkpt>
		
			<trkpt lat="45.180840" lon="1.690400">
			 <ele>446</ele>
			<time>2016-06-04T06:45:45Z</time>
			</trkpt>
		
			<trkpt lat="45.180880" lon="1.690490">
			 <ele>446</ele>
			<time>2016-06-04T06:47:45Z</time>
			</trkpt>
		
			<trkpt lat="45.180910" lon="1.690610">
			 <ele>446</ele>
			<time>2016-06-04T06:49:45Z</time>
			</trkpt>
		
			<trkpt lat="45.180940" lon="1.690740">
			 <ele>446</ele>
			<time>2016-06-04T06:51:45Z</time>
			</trkpt>
		
			<trkpt lat="45.180950" lon="1.690870">
			 <ele>446</ele>
			<time>2016-06-04T06:53:45Z</time>
			</trkpt>
		
			<trkpt lat="45.180970" lon="1.691030">
			 <ele>446</ele>
			<time>2016-06-04T06:55:45Z</time>
			</trkpt>
		
			<trkpt lat="45.180980" lon="1.691170">
			 <ele>446</ele>
			<time>2016-06-04T06:57:45Z</time>
			</trkpt>
		
			<trkpt lat="45.180990" lon="1.691320">
			 <ele>446</ele>
			<time>2016-06-04T06:59:45Z</time>
			</trkpt>
		
			<trkpt lat="45.180990" lon="1.691450">
			 <ele>445</ele>
			<time>2016-06-04T07:01:45Z</time>
			</trkpt>
		
			<trkpt lat="45.181000" lon="1.691560">
			 <ele>445</ele>
			<time>2016-06-04T07:03:45Z</time>
			</trkpt>
		
			<trkpt lat="45.181000" lon="1.691640">
			 <ele>445</ele>
			<time>2016-06-04T07:05:45Z</time>
			</trkpt>
		
			<trkpt lat="45.181020" lon="1.691730">
			 <ele>445</ele>
			<time>2016-06-04T07:07:45Z</time>
			</trkpt>
		
			<trkpt lat="45.181040" lon="1.691800">
			 <ele>446</ele>
			<time>2016-06-04T07:09:45Z</time>
			</trkpt>
		
			<trkpt lat="45.181070" lon="1.691900">
			 <ele>446</ele>
			<time>2016-06-04T07:11:45Z</time>
			</trkpt>
		
			<trkpt lat="45.181120" lon="1.692020">
			 <ele>446</ele>
			<time>2016-06-04T07:13:45Z</time>
			</trkpt>
		
			<trkpt lat="45.181180" lon="1.692160">
			 <ele>447</ele>
			<time>2016-06-04T07:15:45Z</time>
			</trkpt>
		
			<trkpt lat="45.181200" lon="1.692180">
			 <ele>447</ele>
			<time>2016-06-04T07:17:45Z</time>
			</trkpt>
		
			<trkpt lat="45.181210" lon="1.692210">
			 <ele>447</ele>
			<time>2016-06-04T07:19:45Z</time>
			</trkpt>
		
			<trkpt lat="45.181280" lon="1.692330">
			 <ele>447</ele>
			<time>2016-06-04T07:21:45Z</time>
			</trkpt>
		
			<trkpt lat="45.181320" lon="1.692420">
			 <ele>447</ele>
			<time>2016-06-04T07:23:45Z</time>
			</trkpt>
		
			<trkpt lat="45.181360" lon="1.692530">
			 <ele>447</ele>
			<time>2016-06-04T07:25:45Z</time>
			</trkpt>
		
			<trkpt lat="45.181390" lon="1.692650">
			 <ele>447</ele>
			<time>2016-06-04T07:27:45Z</time>
			</trkpt>
		
			<trkpt lat="45.181430" lon="1.692840">
			 <ele>446</ele>
			<time>2016-06-04T07:29:45Z</time>
			</trkpt>
		
			<trkpt lat="45.181520" lon="1.693230">
			 <ele>444</ele>
			<time>2016-06-04T07:31:45Z</time>
			</trkpt>
		
			<trkpt lat="45.181620" lon="1.693650">
			 <ele>443</ele>
			<time>2016-06-04T07:33:45Z</time>
			</trkpt>
		
			<trkpt lat="45.181680" lon="1.693920">
			 <ele>442</ele>
			<time>2016-06-04T07:35:45Z</time>
			</trkpt>
		
			<trkpt lat="45.181760" lon="1.694180">
			 <ele>442</ele>
			<time>2016-06-04T07:37:45Z</time>
			</trkpt>
		
			<trkpt lat="45.181830" lon="1.694430">
			 <ele>442</ele>
			<time>2016-06-04T07:39:45Z</time>
			</trkpt>
		
			<trkpt lat="45.181880" lon="1.694620">
			 <ele>442</ele>
			<time>2016-06-04T07:41:45Z</time>
			</trkpt>
		
			<trkpt lat="45.181940" lon="1.694780">
			 <ele>443</ele>
			<time>2016-06-04T07:43:45Z</time>
			</trkpt>
		
			<trkpt lat="45.181990" lon="1.694920">
			 <ele>443</ele>
			<time>2016-06-04T07:45:45Z</time>
			</trkpt>
		
			<trkpt lat="45.182050" lon="1.695060">
			 <ele>443</ele>
			<time>2016-06-04T07:47:45Z</time>
			</trkpt>
		
			<trkpt lat="45.182120" lon="1.695190">
			 <ele>444</ele>
			<time>2016-06-04T07:49:45Z</time>
			</trkpt>
		
			<trkpt lat="45.182210" lon="1.695390">
			 <ele>445</ele>
			<time>2016-06-04T07:51:45Z</time>
			</trkpt>
		
			<trkpt lat="45.182260" lon="1.695480">
			 <ele>445</ele>
			<time>2016-06-04T07:53:45Z</time>
			</trkpt>
		
			<trkpt lat="45.182270" lon="1.695500">
			 <ele>445</ele>
			<time>2016-06-04T07:55:45Z</time>
			</trkpt>
		
			<trkpt lat="45.182310" lon="1.695610">
			 <ele>445</ele>
			<time>2016-06-04T07:57:45Z</time>
			</trkpt>
		
			<trkpt lat="45.182390" lon="1.695820">
			 <ele>446</ele>
			<time>2016-06-04T07:59:45Z</time>
			</trkpt>
		
			<trkpt lat="45.182420" lon="1.695920">
			 <ele>446</ele>
			<time>2016-06-04T08:01:45Z</time>
			</trkpt>
		
			<trkpt lat="45.182460" lon="1.696020">
			 <ele>446</ele>
			<time>2016-06-04T08:03:45Z</time>
			</trkpt>
		
			<trkpt lat="45.182540" lon="1.696220">
			 <ele>446</ele>
			<time>2016-06-04T08:05:45Z</time>
			</trkpt>
		
			<trkpt lat="45.182570" lon="1.696310">
			 <ele>446</ele>
			<time>2016-06-04T08:07:45Z</time>
			</trkpt>
		
			<trkpt lat="45.182690" lon="1.696610">
			 <ele>446</ele>
			<time>2016-06-04T08:09:45Z</time>
			</trkpt>
		
			<trkpt lat="45.182830" lon="1.696920">
			 <ele>446</ele>
			<time>2016-06-04T08:11:45Z</time>
			</trkpt>
		
			<trkpt lat="45.182940" lon="1.697180">
			 <ele>445</ele>
			<time>2016-06-04T08:13:45Z</time>
			</trkpt>
		
			<trkpt lat="45.182990" lon="1.697310">
			 <ele>445</ele>
			<time>2016-06-04T08:15:45Z</time>
			</trkpt>
		
			<trkpt lat="45.183020" lon="1.697400">
			 <ele>445</ele>
			<time>2016-06-04T08:17:45Z</time>
			</trkpt>
		
			<trkpt lat="45.183050" lon="1.697480">
			 <ele>445</ele>
			<time>2016-06-04T08:19:45Z</time>
			</trkpt>
		
			<trkpt lat="45.183070" lon="1.697590">
			 <ele>445</ele>
			<time>2016-06-04T08:21:45Z</time>
			</trkpt>
		
			<trkpt lat="45.183090" lon="1.697690">
			 <ele>444</ele>
			<time>2016-06-04T08:23:45Z</time>
			</trkpt>
		
			<trkpt lat="45.183100" lon="1.697790">
			 <ele>444</ele>
			<time>2016-06-04T08:25:45Z</time>
			</trkpt>
		
			<trkpt lat="45.183110" lon="1.697890">
			 <ele>444</ele>
			<time>2016-06-04T08:27:45Z</time>
			</trkpt>
		
			<trkpt lat="45.183110" lon="1.698010">
			 <ele>444</ele>
			<time>2016-06-04T08:29:45Z</time>
			</trkpt>
		
			<trkpt lat="45.183120" lon="1.698100">
			 <ele>444</ele>
			<time>2016-06-04T08:31:45Z</time>
			</trkpt>
		
			<trkpt lat="45.183120" lon="1.698170">
			 <ele>444</ele>
			<time>2016-06-04T08:33:45Z</time>
			</trkpt>
		
			<trkpt lat="45.183130" lon="1.698250">
			 <ele>443</ele>
			<time>2016-06-04T08:35:45Z</time>
			</trkpt>
		
			<trkpt lat="45.183150" lon="1.698350">
			 <ele>443</ele>
			<time>2016-06-04T08:37:45Z</time>
			</trkpt>
		
			<trkpt lat="45.183170" lon="1.698460">
			 <ele>443</ele>
			<time>2016-06-04T08:39:45Z</time>
			</trkpt>
		
			<trkpt lat="45.183260" lon="1.698770">
			 <ele>444</ele>
			<time>2016-06-04T08:41:45Z</time>
			</trkpt>
		
			<trkpt lat="45.183330" lon="1.699000">
			 <ele>444</ele>
			<time>2016-06-04T08:43:45Z</time>
			</trkpt>
		
			<trkpt lat="45.183370" lon="1.699160">
			 <ele>444</ele>
			<time>2016-06-04T08:45:45Z</time>
			</trkpt>
		
			<trkpt lat="45.183430" lon="1.699340">
			 <ele>444</ele>
			<time>2016-06-04T08:47:45Z</time>
			</trkpt>
		
			<trkpt lat="45.183460" lon="1.699430">
			 <ele>444</ele>
			<time>2016-06-04T08:49:45Z</time>
			</trkpt>
		
			<trkpt lat="45.183500" lon="1.699510">
			 <ele>444</ele>
			<time>2016-06-04T08:51:45Z</time>
			</trkpt>
		
			<trkpt lat="45.183560" lon="1.699630">
			 <ele>444</ele>
			<time>2016-06-04T08:53:45Z</time>
			</trkpt>
		
			<trkpt lat="45.183670" lon="1.699800">
			 <ele>444</ele>
			<time>2016-06-04T08:55:45Z</time>
			</trkpt>
		
			<trkpt lat="45.183840" lon="1.700080">
			 <ele>446</ele>
			<time>2016-06-04T08:57:45Z</time>
			</trkpt>
		
			<trkpt lat="45.183970" lon="1.700350">
			 <ele>447</ele>
			<time>2016-06-04T08:59:45Z</time>
			</trkpt>
		
			<trkpt lat="45.183970" lon="1.700350">
			 <ele>447</ele>
			<time>2016-06-04T09:01:45Z</time>
			</trkpt>
		
			<trkpt lat="45.184050" lon="1.700270">
			 <ele>447</ele>
			<time>2016-06-04T09:03:45Z</time>
			</trkpt>
		
			<trkpt lat="45.184210" lon="1.700120">
			 <ele>447</ele>
			<time>2016-06-04T09:05:45Z</time>
			</trkpt>
		
			<trkpt lat="45.184320" lon="1.700030">
			 <ele>447</ele>
			<time>2016-06-04T09:07:45Z</time>
			</trkpt>
		
			<trkpt lat="45.184410" lon="1.699970">
			 <ele>447</ele>
			<time>2016-06-04T09:09:45Z</time>
			</trkpt>
		
			<trkpt lat="45.184510" lon="1.699900">
			 <ele>447</ele>
			<time>2016-06-04T09:11:45Z</time>
			</trkpt>
		
			<trkpt lat="45.184610" lon="1.699830">
			 <ele>447</ele>
			<time>2016-06-04T09:13:45Z</time>
			</trkpt>
		
			<trkpt lat="45.184680" lon="1.699780">
			 <ele>446</ele>
			<time>2016-06-04T09:15:45Z</time>
			</trkpt>
		
			<trkpt lat="45.184760" lon="1.699730">
			 <ele>446</ele>
			<time>2016-06-04T09:17:45Z</time>
			</trkpt>
		
			<trkpt lat="45.184840" lon="1.699660">
			 <ele>445</ele>
			<time>2016-06-04T09:19:45Z</time>
			</trkpt>
		
			<trkpt lat="45.184950" lon="1.699560">
			 <ele>444</ele>
			<time>2016-06-04T09:21:45Z</time>
			</trkpt>
		
			<trkpt lat="45.185140" lon="1.699400">
			 <ele>442</ele>
			<time>2016-06-04T09:23:45Z</time>
			</trkpt>
		
			<trkpt lat="45.185180" lon="1.699370">
			 <ele>441</ele>
			<time>2016-06-04T09:25:45Z</time>
			</trkpt>
		
			<trkpt lat="45.185280" lon="1.699290">
			 <ele>441</ele>
			<time>2016-06-04T09:27:45Z</time>
			</trkpt>
		
			<trkpt lat="45.185460" lon="1.699130">
			 <ele>439</ele>
			<time>2016-06-04T09:29:45Z</time>
			</trkpt>
		
			<trkpt lat="45.185510" lon="1.699090">
			 <ele>439</ele>
			<time>2016-06-04T09:31:45Z</time>
			</trkpt>
		
			<trkpt lat="45.185740" lon="1.698900">
			 <ele>437</ele>
			<time>2016-06-04T09:33:45Z</time>
			</trkpt>
		
			<trkpt lat="45.186080" lon="1.698620">
			 <ele>434</ele>
			<time>2016-06-04T09:35:45Z</time>
			</trkpt>
		
			<trkpt lat="45.186260" lon="1.698460">
			 <ele>432</ele>
			<time>2016-06-04T09:37:45Z</time>
			</trkpt>
		
			<trkpt lat="45.186400" lon="1.698330">
			 <ele>431</ele>
			<time>2016-06-04T09:39:45Z</time>
			</trkpt>
		
			<trkpt lat="45.186530" lon="1.698230">
			 <ele>430</ele>
			<time>2016-06-04T09:41:45Z</time>
			</trkpt>
		
			<trkpt lat="45.186610" lon="1.698170">
			 <ele>430</ele>
			<time>2016-06-04T09:43:45Z</time>
			</trkpt>
		
			<trkpt lat="45.186680" lon="1.698130">
			 <ele>430</ele>
			<time>2016-06-04T09:45:45Z</time>
			</trkpt>
		
			<trkpt lat="45.186780" lon="1.698080">
			 <ele>429</ele>
			<time>2016-06-04T09:47:45Z</time>
			</trkpt>
		
			<trkpt lat="45.186930" lon="1.698020">
			 <ele>429</ele>
			<time>2016-06-04T09:49:45Z</time>
			</trkpt>
		
			<trkpt lat="45.187010" lon="1.697970">
			 <ele>428</ele>
			<time>2016-06-04T09:51:45Z</time>
			</trkpt>
		
			<trkpt lat="45.187140" lon="1.697900">
			 <ele>428</ele>
			<time>2016-06-04T09:53:45Z</time>
			</trkpt>
		
			<trkpt lat="45.187350" lon="1.697780">
			 <ele>427</ele>
			<time>2016-06-04T09:55:45Z</time>
			</trkpt>
		
			<trkpt lat="45.187740" lon="1.697530">
			 <ele>426</ele>
			<time>2016-06-04T09:57:45Z</time>
			</trkpt>
		
			<trkpt lat="45.188030" lon="1.697340">
			 <ele>424</ele>
			<time>2016-06-04T09:59:45Z</time>
			</trkpt>
		
			<trkpt lat="45.188320" lon="1.697120">
			 <ele>422</ele>
			<time>2016-06-04T10:01:45Z</time>
			</trkpt>
		
			<trkpt lat="45.188500" lon="1.697000">
			 <ele>421</ele>
			<time>2016-06-04T10:03:45Z</time>
			</trkpt>
		
			<trkpt lat="45.188810" lon="1.696780">
			 <ele>419</ele>
			<time>2016-06-04T10:05:45Z</time>
			</trkpt>
		
			<trkpt lat="45.189080" lon="1.696580">
			 <ele>416</ele>
			<time>2016-06-04T10:07:45Z</time>
			</trkpt>
		
			<trkpt lat="45.189370" lon="1.696360">
			 <ele>415</ele>
			<time>2016-06-04T10:09:45Z</time>
			</trkpt>
		
			<trkpt lat="45.189530" lon="1.696250">
			 <ele>415</ele>
			<time>2016-06-04T10:11:45Z</time>
			</trkpt>
		
			<trkpt lat="45.189640" lon="1.696190">
			 <ele>415</ele>
			<time>2016-06-04T10:13:45Z</time>
			</trkpt>
		
			<trkpt lat="45.189980" lon="1.696040">
			 <ele>415</ele>
			<time>2016-06-04T10:15:45Z</time>
			</trkpt>
		
			<trkpt lat="45.190000" lon="1.696040">
			 <ele>415</ele>
			<time>2016-06-04T10:17:45Z</time>
			</trkpt>
		
			<trkpt lat="45.190120" lon="1.696000">
			 <ele>415</ele>
			<time>2016-06-04T10:19:45Z</time>
			</trkpt>
		
			<trkpt lat="45.190540" lon="1.695850">
			 <ele>413</ele>
			<time>2016-06-04T10:21:45Z</time>
			</trkpt>
		
			<trkpt lat="45.190720" lon="1.695780">
			 <ele>413</ele>
			<time>2016-06-04T10:23:45Z</time>
			</trkpt>
		
			<trkpt lat="45.190780" lon="1.695770">
			 <ele>413</ele>
			<time>2016-06-04T10:25:45Z</time>
			</trkpt>
		
			<trkpt lat="45.191010" lon="1.695740">
			 <ele>412</ele>
			<time>2016-06-04T10:27:45Z</time>
			</trkpt>
		
			<trkpt lat="45.191300" lon="1.695750">
			 <ele>410</ele>
			<time>2016-06-04T10:29:45Z</time>
			</trkpt>
		
			<trkpt lat="45.191430" lon="1.695750">
			 <ele>409</ele>
			<time>2016-06-04T10:31:45Z</time>
			</trkpt>
		
			<trkpt lat="45.191640" lon="1.695740">
			 <ele>408</ele>
			<time>2016-06-04T10:33:45Z</time>
			</trkpt>
		
			<trkpt lat="45.191700" lon="1.695730">
			 <ele>407</ele>
			<time>2016-06-04T10:35:45Z</time>
			</trkpt>
		
			<trkpt lat="45.191790" lon="1.695760">
			 <ele>406</ele>
			<time>2016-06-04T10:37:45Z</time>
			</trkpt>
		
			<trkpt lat="45.191830" lon="1.695800">
			 <ele>406</ele>
			<time>2016-06-04T10:39:45Z</time>
			</trkpt>
		
			<trkpt lat="45.191930" lon="1.695890">
			 <ele>405</ele>
			<time>2016-06-04T10:41:45Z</time>
			</trkpt>
		
			<trkpt lat="45.191990" lon="1.695980">
			 <ele>406</ele>
			<time>2016-06-04T10:43:45Z</time>
			</trkpt>
		
			<trkpt lat="45.192010" lon="1.696040">
			 <ele>407</ele>
			<time>2016-06-04T10:45:45Z</time>
			</trkpt>
		
			<trkpt lat="45.192030" lon="1.696080">
			 <ele>407</ele>
			<time>2016-06-04T10:47:45Z</time>
			</trkpt>
		
			<trkpt lat="45.192050" lon="1.696120">
			 <ele>407</ele>
			<time>2016-06-04T10:49:45Z</time>
			</trkpt>
		
			<trkpt lat="45.192090" lon="1.696150">
			 <ele>407</ele>
			<time>2016-06-04T10:51:45Z</time>
			</trkpt>
		
			<trkpt lat="45.192190" lon="1.696160">
			 <ele>406</ele>
			<time>2016-06-04T10:53:45Z</time>
			</trkpt>
		
			<trkpt lat="45.192420" lon="1.696140">
			 <ele>403</ele>
			<time>2016-06-04T10:55:45Z</time>
			</trkpt>
		
			<trkpt lat="45.192740" lon="1.696080">
			 <ele>397</ele>
			<time>2016-06-04T10:57:45Z</time>
			</trkpt>
		
			<trkpt lat="45.192870" lon="1.696050">
			 <ele>395</ele>
			<time>2016-06-04T10:59:45Z</time>
			</trkpt>
		
			<trkpt lat="45.192950" lon="1.696060">
			 <ele>394</ele>
			<time>2016-06-04T11:01:45Z</time>
			</trkpt>
		
			<trkpt lat="45.192980" lon="1.696070">
			 <ele>394</ele>
			<time>2016-06-04T11:03:45Z</time>
			</trkpt>
		
			<trkpt lat="45.193050" lon="1.696120">
			 <ele>394</ele>
			<time>2016-06-04T11:05:45Z</time>
			</trkpt>
		
			<trkpt lat="45.193160" lon="1.696160">
			 <ele>393</ele>
			<time>2016-06-04T11:07:45Z</time>
			</trkpt>
		
			<trkpt lat="45.193270" lon="1.696210">
			 <ele>392</ele>
			<time>2016-06-04T11:09:45Z</time>
			</trkpt>
		
			<trkpt lat="45.193370" lon="1.696310">
			 <ele>392</ele>
			<time>2016-06-04T11:11:45Z</time>
			</trkpt>
		
			<trkpt lat="45.193510" lon="1.696490">
			 <ele>392</ele>
			<time>2016-06-04T11:13:45Z</time>
			</trkpt>
		
			<trkpt lat="45.193650" lon="1.696700">
			 <ele>392</ele>
			<time>2016-06-04T11:15:45Z</time>
			</trkpt>
		
			<trkpt lat="45.193760" lon="1.696850">
			 <ele>391</ele>
			<time>2016-06-04T11:17:45Z</time>
			</trkpt>
		
			<trkpt lat="45.193840" lon="1.696920">
			 <ele>390</ele>
			<time>2016-06-04T11:19:45Z</time>
			</trkpt>
		
			<trkpt lat="45.194010" lon="1.697040">
			 <ele>387</ele>
			<time>2016-06-04T11:21:45Z</time>
			</trkpt>
		
			<trkpt lat="45.194150" lon="1.697150">
			 <ele>385</ele>
			<time>2016-06-04T11:23:45Z</time>
			</trkpt>
		
			<trkpt lat="45.194240" lon="1.697240">
			 <ele>384</ele>
			<time>2016-06-04T11:25:45Z</time>
			</trkpt>
		
			<trkpt lat="45.194300" lon="1.697320">
			 <ele>384</ele>
			<time>2016-06-04T11:27:45Z</time>
			</trkpt>
		
			<trkpt lat="45.194410" lon="1.697520">
			 <ele>384</ele>
			<time>2016-06-04T11:29:45Z</time>
			</trkpt>
		
			<trkpt lat="45.194650" lon="1.698010">
			 <ele>384</ele>
			<time>2016-06-04T11:31:45Z</time>
			</trkpt>
		
			<trkpt lat="45.194850" lon="1.698430">
			 <ele>382</ele>
			<time>2016-06-04T11:33:45Z</time>
			</trkpt>
		
			<trkpt lat="45.195050" lon="1.698850">
			 <ele>377</ele>
			<time>2016-06-04T11:35:45Z</time>
			</trkpt>
		
			<trkpt lat="45.195140" lon="1.699110">
			 <ele>375</ele>
			<time>2016-06-04T11:37:45Z</time>
			</trkpt>
		
			<trkpt lat="45.195160" lon="1.699160">
			 <ele>375</ele>
			<time>2016-06-04T11:39:45Z</time>
			</trkpt>
		
			<trkpt lat="45.195190" lon="1.699250">
			 <ele>374</ele>
			<time>2016-06-04T11:41:45Z</time>
			</trkpt>
		
			<trkpt lat="45.195240" lon="1.699420">
			 <ele>372</ele>
			<time>2016-06-04T11:43:45Z</time>
			</trkpt>
		
			<trkpt lat="45.195260" lon="1.699490">
			 <ele>372</ele>
			<time>2016-06-04T11:45:45Z</time>
			</trkpt>
		
			<trkpt lat="45.195260" lon="1.699600">
			 <ele>371</ele>
			<time>2016-06-04T11:47:45Z</time>
			</trkpt>
		
			<trkpt lat="45.195250" lon="1.699680">
			 <ele>372</ele>
			<time>2016-06-04T11:49:45Z</time>
			</trkpt>
		
			<trkpt lat="45.195220" lon="1.699810">
			 <ele>372</ele>
			<time>2016-06-04T11:51:45Z</time>
			</trkpt>
		
			<trkpt lat="45.195210" lon="1.699840">
			 <ele>373</ele>
			<time>2016-06-04T11:53:45Z</time>
			</trkpt>
		
			<trkpt lat="45.195190" lon="1.699940">
			 <ele>373</ele>
			<time>2016-06-04T11:55:45Z</time>
			</trkpt>
		
			<trkpt lat="45.195200" lon="1.700060">
			 <ele>373</ele>
			<time>2016-06-04T11:57:45Z</time>
			</trkpt>
		
			<trkpt lat="45.195200" lon="1.700090">
			 <ele>373</ele>
			<time>2016-06-04T11:59:45Z</time>
			</trkpt>
		
			<trkpt lat="45.195230" lon="1.700140">
			 <ele>373</ele>
			<time>2016-06-04T12:01:45Z</time>
			</trkpt>
		
			<trkpt lat="45.195480" lon="1.700330">
			 <ele>370</ele>
			<time>2016-06-04T12:03:45Z</time>
			</trkpt>
		
			<trkpt lat="45.195690" lon="1.700480">
			 <ele>367</ele>
			<time>2016-06-04T12:05:45Z</time>
			</trkpt>
		
			<trkpt lat="45.195840" lon="1.700560">
			 <ele>366</ele>
			<time>2016-06-04T12:07:45Z</time>
			</trkpt>
		
			<trkpt lat="45.195860" lon="1.700570">
			 <ele>366</ele>
			<time>2016-06-04T12:09:45Z</time>
			</trkpt>
		
			<trkpt lat="45.195920" lon="1.700600">
			 <ele>366</ele>
			<time>2016-06-04T12:11:45Z</time>
			</trkpt>
		
			<trkpt lat="45.195990" lon="1.700610">
			 <ele>365</ele>
			<time>2016-06-04T12:13:45Z</time>
			</trkpt>
		
			<trkpt lat="45.196050" lon="1.700620">
			 <ele>365</ele>
			<time>2016-06-04T12:15:45Z</time>
			</trkpt>
		
			<trkpt lat="45.196300" lon="1.700620">
			 <ele>364</ele>
			<time>2016-06-04T12:17:45Z</time>
			</trkpt>
		
			<trkpt lat="45.196310" lon="1.700620">
			 <ele>364</ele>
			<time>2016-06-04T12:19:45Z</time>
			</trkpt>
		
			<trkpt lat="45.196430" lon="1.700640">
			 <ele>363</ele>
			<time>2016-06-04T12:21:45Z</time>
			</trkpt>
		
			<trkpt lat="45.196580" lon="1.700670">
			 <ele>363</ele>
			<time>2016-06-04T12:23:45Z</time>
			</trkpt>
		
			<trkpt lat="45.196790" lon="1.700730">
			 <ele>362</ele>
			<time>2016-06-04T12:25:45Z</time>
			</trkpt>
		
			<trkpt lat="45.197090" lon="1.700830">
			 <ele>358</ele>
			<time>2016-06-04T12:27:45Z</time>
			</trkpt>
		
			<trkpt lat="45.197380" lon="1.700920">
			 <ele>355</ele>
			<time>2016-06-04T12:29:45Z</time>
			</trkpt>
		
			<trkpt lat="45.197660" lon="1.701000">
			 <ele>353</ele>
			<time>2016-06-04T12:31:45Z</time>
			</trkpt>
		
			<trkpt lat="45.197840" lon="1.701040">
			 <ele>353</ele>
			<time>2016-06-04T12:33:45Z</time>
			</trkpt>
		
			<trkpt lat="45.197870" lon="1.701040">
			 <ele>353</ele>
			<time>2016-06-04T12:35:45Z</time>
			</trkpt>
		
			<trkpt lat="45.197930" lon="1.701040">
			 <ele>353</ele>
			<time>2016-06-04T12:37:45Z</time>
			</trkpt>
		
			<trkpt lat="45.198020" lon="1.701030">
			 <ele>352</ele>
			<time>2016-06-04T12:39:45Z</time>
			</trkpt>
		
			<trkpt lat="45.198110" lon="1.700990">
			 <ele>351</ele>
			<time>2016-06-04T12:41:45Z</time>
			</trkpt>
		
			<trkpt lat="45.198200" lon="1.700930">
			 <ele>350</ele>
			<time>2016-06-04T12:43:45Z</time>
			</trkpt>
		
			<trkpt lat="45.198300" lon="1.700850">
			 <ele>348</ele>
			<time>2016-06-04T12:45:45Z</time>
			</trkpt>
		
			<trkpt lat="45.198380" lon="1.700750">
			 <ele>348</ele>
			<time>2016-06-04T12:47:45Z</time>
			</trkpt>
		
			<trkpt lat="45.198480" lon="1.700610">
			 <ele>348</ele>
			<time>2016-06-04T12:49:45Z</time>
			</trkpt>
		
			<trkpt lat="45.198560" lon="1.700490">
			 <ele>348</ele>
			<time>2016-06-04T12:51:45Z</time>
			</trkpt>
		
			<trkpt lat="45.198640" lon="1.700370">
			 <ele>347</ele>
			<time>2016-06-04T12:53:45Z</time>
			</trkpt>
		
			<trkpt lat="45.198790" lon="1.700150">
			 <ele>346</ele>
			<time>2016-06-04T12:55:45Z</time>
			</trkpt>
		
			<trkpt lat="45.198870" lon="1.700030">
			 <ele>346</ele>
			<time>2016-06-04T12:57:45Z</time>
			</trkpt>
		
			<trkpt lat="45.198960" lon="1.699930">
			 <ele>345</ele>
			<time>2016-06-04T12:59:45Z</time>
			</trkpt>
		
			<trkpt lat="45.199270" lon="1.699610">
			 <ele>342</ele>
			<time>2016-06-04T13:01:45Z</time>
			</trkpt>
		
			<trkpt lat="45.199550" lon="1.699330">
			 <ele>340</ele>
			<time>2016-06-04T13:03:45Z</time>
			</trkpt>
		
			<trkpt lat="45.199780" lon="1.699100">
			 <ele>338</ele>
			<time>2016-06-04T13:05:45Z</time>
			</trkpt>
		
			<trkpt lat="45.199970" lon="1.698890">
			 <ele>336</ele>
			<time>2016-06-04T13:07:45Z</time>
			</trkpt>
		
			<trkpt lat="45.200060" lon="1.698800">
			 <ele>335</ele>
			<time>2016-06-04T13:09:45Z</time>
			</trkpt>
		
			<trkpt lat="45.200190" lon="1.698700">
			 <ele>335</ele>
			<time>2016-06-04T13:11:45Z</time>
			</trkpt>
		
			<trkpt lat="45.200300" lon="1.698610">
			 <ele>334</ele>
			<time>2016-06-04T13:13:45Z</time>
			</trkpt>
		
			<trkpt lat="45.200450" lon="1.698530">
			 <ele>333</ele>
			<time>2016-06-04T13:15:45Z</time>
			</trkpt>
		
			<trkpt lat="45.200550" lon="1.698490">
			 <ele>334</ele>
			<time>2016-06-04T13:17:45Z</time>
			</trkpt>
		
			<trkpt lat="45.200650" lon="1.698470">
			 <ele>334</ele>
			<time>2016-06-04T13:19:45Z</time>
			</trkpt>
		
			<trkpt lat="45.200730" lon="1.698480">
			 <ele>335</ele>
			<time>2016-06-04T13:21:45Z</time>
			</trkpt>
		
			<trkpt lat="45.200860" lon="1.698530">
			 <ele>336</ele>
			<time>2016-06-04T13:23:45Z</time>
			</trkpt>
		
			<trkpt lat="45.200970" lon="1.698570">
			 <ele>336</ele>
			<time>2016-06-04T13:25:45Z</time>
			</trkpt>
		
			<trkpt lat="45.201090" lon="1.698630">
			 <ele>336</ele>
			<time>2016-06-04T13:27:45Z</time>
			</trkpt>
		
			<trkpt lat="45.201310" lon="1.698740">
			 <ele>336</ele>
			<time>2016-06-04T13:29:45Z</time>
			</trkpt>
		
			<trkpt lat="45.201490" lon="1.698820">
			 <ele>337</ele>
			<time>2016-06-04T13:31:45Z</time>
			</trkpt>
		
			<trkpt lat="45.201660" lon="1.698880">
			 <ele>337</ele>
			<time>2016-06-04T13:33:45Z</time>
			</trkpt>
		
			<trkpt lat="45.201860" lon="1.698910">
			 <ele>335</ele>
			<time>2016-06-04T13:35:45Z</time>
			</trkpt>
		
			<trkpt lat="45.202000" lon="1.698910">
			 <ele>334</ele>
			<time>2016-06-04T13:37:45Z</time>
			</trkpt>
		
			<trkpt lat="45.202120" lon="1.698890">
			 <ele>333</ele>
			<time>2016-06-04T13:39:45Z</time>
			</trkpt>
		
			<trkpt lat="45.202260" lon="1.698850">
			 <ele>331</ele>
			<time>2016-06-04T13:41:45Z</time>
			</trkpt>
		
			<trkpt lat="45.202360" lon="1.698790">
			 <ele>329</ele>
			<time>2016-06-04T13:43:45Z</time>
			</trkpt>
		
			<trkpt lat="45.202500" lon="1.698710">
			 <ele>327</ele>
			<time>2016-06-04T13:45:45Z</time>
			</trkpt>
		
			<trkpt lat="45.202620" lon="1.698620">
			 <ele>327</ele>
			<time>2016-06-04T13:47:45Z</time>
			</trkpt>
		
			<trkpt lat="45.202680" lon="1.698570">
			 <ele>327</ele>
			<time>2016-06-04T13:49:45Z</time>
			</trkpt>
		
			<trkpt lat="45.202760" lon="1.698460">
			 <ele>327</ele>
			<time>2016-06-04T13:51:45Z</time>
			</trkpt>
		
			<trkpt lat="45.202850" lon="1.698330">
			 <ele>326</ele>
			<time>2016-06-04T13:53:45Z</time>
			</trkpt>
		
			<trkpt lat="45.202900" lon="1.698240">
			 <ele>327</ele>
			<time>2016-06-04T13:55:45Z</time>
			</trkpt>
		
			<trkpt lat="45.202930" lon="1.698170">
			 <ele>327</ele>
			<time>2016-06-04T13:57:45Z</time>
			</trkpt>
		
			<trkpt lat="45.202970" lon="1.698090">
			 <ele>327</ele>
			<time>2016-06-04T13:59:45Z</time>
			</trkpt>
		
			<trkpt lat="45.202980" lon="1.698040">
			 <ele>326</ele>
			<time>2016-06-04T14:01:45Z</time>
			</trkpt>
		
			<trkpt lat="45.203030" lon="1.697870">
			 <ele>326</ele>
			<time>2016-06-04T14:03:45Z</time>
			</trkpt>
		
			<trkpt lat="45.203070" lon="1.697640">
			 <ele>324</ele>
			<time>2016-06-04T14:05:45Z</time>
			</trkpt>
		
			<trkpt lat="45.203100" lon="1.697380">
			 <ele>323</ele>
			<time>2016-06-04T14:07:45Z</time>
			</trkpt>
		
			<trkpt lat="45.203130" lon="1.697130">
			 <ele>323</ele>
			<time>2016-06-04T14:09:45Z</time>
			</trkpt>
		
			<trkpt lat="45.203140" lon="1.696910">
			 <ele>322</ele>
			<time>2016-06-04T14:11:45Z</time>
			</trkpt>
		
			<trkpt lat="45.203160" lon="1.696670">
			 <ele>322</ele>
			<time>2016-06-04T14:13:45Z</time>
			</trkpt>
		
			<trkpt lat="45.203180" lon="1.696390">
			 <ele>319</ele>
			<time>2016-06-04T14:15:45Z</time>
			</trkpt>
		
			<trkpt lat="45.203200" lon="1.696150">
			 <ele>316</ele>
			<time>2016-06-04T14:17:45Z</time>
			</trkpt>
		
			<trkpt lat="45.203230" lon="1.695970">
			 <ele>313</ele>
			<time>2016-06-04T14:19:45Z</time>
			</trkpt>
		
			<trkpt lat="45.203250" lon="1.695890">
			 <ele>312</ele>
			<time>2016-06-04T14:21:45Z</time>
			</trkpt>
		
			<trkpt lat="45.203280" lon="1.695820">
			 <ele>311</ele>
			<time>2016-06-04T14:23:45Z</time>
			</trkpt>
		
			<trkpt lat="45.203310" lon="1.695780">
			 <ele>310</ele>
			<time>2016-06-04T14:25:45Z</time>
			</trkpt>
		
			<trkpt lat="45.203330" lon="1.695760">
			 <ele>310</ele>
			<time>2016-06-04T14:27:45Z</time>
			</trkpt>
		
			<trkpt lat="45.203450" lon="1.695670">
			 <ele>311</ele>
			<time>2016-06-04T14:29:45Z</time>
			</trkpt>
		
			<trkpt lat="45.203540" lon="1.695590">
			 <ele>311</ele>
			<time>2016-06-04T14:31:45Z</time>
			</trkpt>
		
			<trkpt lat="45.203770" lon="1.695350">
			 <ele>310</ele>
			<time>2016-06-04T14:33:45Z</time>
			</trkpt>
		
			<trkpt lat="45.203860" lon="1.695250">
			 <ele>309</ele>
			<time>2016-06-04T14:35:45Z</time>
			</trkpt>
		
			<trkpt lat="45.203930" lon="1.695150">
			 <ele>308</ele>
			<time>2016-06-04T14:37:45Z</time>
			</trkpt>
		
			<trkpt lat="45.203980" lon="1.695050">
			 <ele>306</ele>
			<time>2016-06-04T14:39:45Z</time>
			</trkpt>
		
			<trkpt lat="45.204050" lon="1.694880">
			 <ele>303</ele>
			<time>2016-06-04T14:41:45Z</time>
			</trkpt>
		
			<trkpt lat="45.204130" lon="1.694700">
			 <ele>301</ele>
			<time>2016-06-04T14:43:45Z</time>
			</trkpt>
		
			<trkpt lat="45.204220" lon="1.694530">
			 <ele>297</ele>
			<time>2016-06-04T14:45:45Z</time>
			</trkpt>
		
			<trkpt lat="45.204290" lon="1.694390">
			 <ele>294</ele>
			<time>2016-06-04T14:47:45Z</time>
			</trkpt>
		
			<trkpt lat="45.204350" lon="1.694330">
			 <ele>293</ele>
			<time>2016-06-04T14:49:45Z</time>
			</trkpt>
		
			<trkpt lat="45.204440" lon="1.694250">
			 <ele>292</ele>
			<time>2016-06-04T14:51:45Z</time>
			</trkpt>
		
			<trkpt lat="45.204500" lon="1.694230">
			 <ele>291</ele>
			<time>2016-06-04T14:53:45Z</time>
			</trkpt>
		
			<trkpt lat="45.204540" lon="1.694230">
			 <ele>291</ele>
			<time>2016-06-04T14:55:45Z</time>
			</trkpt>
		
			<trkpt lat="45.204580" lon="1.694250">
			 <ele>291</ele>
			<time>2016-06-04T14:57:45Z</time>
			</trkpt>
		
			<trkpt lat="45.204620" lon="1.694280">
			 <ele>292</ele>
			<time>2016-06-04T14:59:45Z</time>
			</trkpt>
		
			<trkpt lat="45.204650" lon="1.694320">
			 <ele>292</ele>
			<time>2016-06-04T15:01:45Z</time>
			</trkpt>
		
			<trkpt lat="45.204680" lon="1.694380">
			 <ele>293</ele>
			<time>2016-06-04T15:03:45Z</time>
			</trkpt>
		
			<trkpt lat="45.204690" lon="1.694440">
			 <ele>293</ele>
			<time>2016-06-04T15:05:45Z</time>
			</trkpt>
		
			<trkpt lat="45.204700" lon="1.694510">
			 <ele>294</ele>
			<time>2016-06-04T15:07:45Z</time>
			</trkpt>
		
			<trkpt lat="45.204690" lon="1.694590">
			 <ele>295</ele>
			<time>2016-06-04T15:09:45Z</time>
			</trkpt>
		
			<trkpt lat="45.204690" lon="1.694710">
			 <ele>297</ele>
			<time>2016-06-04T15:11:45Z</time>
			</trkpt>
		
			<trkpt lat="45.204690" lon="1.694780">
			 <ele>298</ele>
			<time>2016-06-04T15:13:45Z</time>
			</trkpt>
		
			<trkpt lat="45.204690" lon="1.694850">
			 <ele>299</ele>
			<time>2016-06-04T15:15:45Z</time>
			</trkpt>
		
			<trkpt lat="45.204710" lon="1.694940">
			 <ele>300</ele>
			<time>2016-06-04T15:17:45Z</time>
			</trkpt>
		
			<trkpt lat="45.204740" lon="1.695040">
			 <ele>301</ele>
			<time>2016-06-04T15:19:45Z</time>
			</trkpt>
		
			<trkpt lat="45.204780" lon="1.695130">
			 <ele>303</ele>
			<time>2016-06-04T15:21:45Z</time>
			</trkpt>
		
			<trkpt lat="45.204870" lon="1.695270">
			 <ele>306</ele>
			<time>2016-06-04T15:23:45Z</time>
			</trkpt>
		
			<trkpt lat="45.204970" lon="1.695400">
			 <ele>308</ele>
			<time>2016-06-04T15:25:45Z</time>
			</trkpt>
		
			<trkpt lat="45.205060" lon="1.695520">
			 <ele>310</ele>
			<time>2016-06-04T15:27:45Z</time>
			</trkpt>
		
			<trkpt lat="45.205130" lon="1.695610">
			 <ele>312</ele>
			<time>2016-06-04T15:29:45Z</time>
			</trkpt>
		
			<trkpt lat="45.205240" lon="1.695830">
			 <ele>315</ele>
			<time>2016-06-04T15:31:45Z</time>
			</trkpt>
		
			<trkpt lat="45.205360" lon="1.696030">
			 <ele>317</ele>
			<time>2016-06-04T15:33:45Z</time>
			</trkpt>
		
			<trkpt lat="45.205410" lon="1.696090">
			 <ele>316</ele>
			<time>2016-06-04T15:35:45Z</time>
			</trkpt>
		
			<trkpt lat="45.205450" lon="1.696110">
			 <ele>316</ele>
			<time>2016-06-04T15:37:45Z</time>
			</trkpt>
		
			<trkpt lat="45.205500" lon="1.696120">
			 <ele>315</ele>
			<time>2016-06-04T15:39:45Z</time>
			</trkpt>
		
			<trkpt lat="45.205580" lon="1.696070">
			 <ele>313</ele>
			<time>2016-06-04T15:41:45Z</time>
			</trkpt>
		
			<trkpt lat="45.205610" lon="1.696040">
			 <ele>313</ele>
			<time>2016-06-04T15:43:45Z</time>
			</trkpt>
		
			<trkpt lat="45.205620" lon="1.696020">
			 <ele>312</ele>
			<time>2016-06-04T15:45:45Z</time>
			</trkpt>
		
			<trkpt lat="45.205630" lon="1.695940">
			 <ele>312</ele>
			<time>2016-06-04T15:47:45Z</time>
			</trkpt>
		
			<trkpt lat="45.205620" lon="1.695840">
			 <ele>311</ele>
			<time>2016-06-04T15:49:45Z</time>
			</trkpt>
		
			<trkpt lat="45.205600" lon="1.695730">
			 <ele>310</ele>
			<time>2016-06-04T15:51:45Z</time>
			</trkpt>
		
			<trkpt lat="45.205520" lon="1.695580">
			 <ele>309</ele>
			<time>2016-06-04T15:53:45Z</time>
			</trkpt>
		
			<trkpt lat="45.205430" lon="1.695360">
			 <ele>307</ele>
			<time>2016-06-04T15:55:45Z</time>
			</trkpt>
		
			<trkpt lat="45.205390" lon="1.695280">
			 <ele>305</ele>
			<time>2016-06-04T15:57:45Z</time>
			</trkpt>
		
			<trkpt lat="45.205370" lon="1.695140">
			 <ele>303</ele>
			<time>2016-06-04T15:59:45Z</time>
			</trkpt>
		
			<trkpt lat="45.205370" lon="1.694970">
			 <ele>301</ele>
			<time>2016-06-04T16:01:45Z</time>
			</trkpt>
		
			<trkpt lat="45.205390" lon="1.694850">
			 <ele>299</ele>
			<time>2016-06-04T16:03:45Z</time>
			</trkpt>
		
			<trkpt lat="45.205430" lon="1.694760">
			 <ele>299</ele>
			<time>2016-06-04T16:05:45Z</time>
			</trkpt>
		
			<trkpt lat="45.205500" lon="1.694670">
			 <ele>298</ele>
			<time>2016-06-04T16:07:45Z</time>
			</trkpt>
		
			<trkpt lat="45.205570" lon="1.694570">
			 <ele>297</ele>
			<time>2016-06-04T16:09:45Z</time>
			</trkpt>
		
			<trkpt lat="45.205630" lon="1.694410">
			 <ele>296</ele>
			<time>2016-06-04T16:11:45Z</time>
			</trkpt>
		
			<trkpt lat="45.205660" lon="1.694300">
			 <ele>295</ele>
			<time>2016-06-04T16:13:45Z</time>
			</trkpt>
		
			<trkpt lat="45.205680" lon="1.694120">
			 <ele>293</ele>
			<time>2016-06-04T16:15:45Z</time>
			</trkpt>
		
			<trkpt lat="45.205690" lon="1.693940">
			 <ele>291</ele>
			<time>2016-06-04T16:17:45Z</time>
			</trkpt>
		
			<trkpt lat="45.205680" lon="1.693820">
			 <ele>289</ele>
			<time>2016-06-04T16:19:45Z</time>
			</trkpt>
		
			<trkpt lat="45.205650" lon="1.693710">
			 <ele>288</ele>
			<time>2016-06-04T16:21:45Z</time>
			</trkpt>
		
			<trkpt lat="45.205540" lon="1.693470">
			 <ele>284</ele>
			<time>2016-06-04T16:23:45Z</time>
			</trkpt>
		
			<trkpt lat="45.205470" lon="1.693330">
			 <ele>282</ele>
			<time>2016-06-04T16:25:45Z</time>
			</trkpt>
		
			<trkpt lat="45.205430" lon="1.693190">
			 <ele>280</ele>
			<time>2016-06-04T16:27:45Z</time>
			</trkpt>
		
			<trkpt lat="45.205380" lon="1.693000">
			 <ele>278</ele>
			<time>2016-06-04T16:29:45Z</time>
			</trkpt>
		
			<trkpt lat="45.205340" lon="1.692780">
			 <ele>275</ele>
			<time>2016-06-04T16:31:45Z</time>
			</trkpt>
		
			<trkpt lat="45.205320" lon="1.692620">
			 <ele>273</ele>
			<time>2016-06-04T16:33:45Z</time>
			</trkpt>
		
			<trkpt lat="45.205330" lon="1.692450">
			 <ele>271</ele>
			<time>2016-06-04T16:35:45Z</time>
			</trkpt>
		
			<trkpt lat="45.205360" lon="1.692280">
			 <ele>271</ele>
			<time>2016-06-04T16:37:45Z</time>
			</trkpt>
		
			<trkpt lat="45.205370" lon="1.692160">
			 <ele>271</ele>
			<time>2016-06-04T16:39:45Z</time>
			</trkpt>
		
			<trkpt lat="45.205380" lon="1.692050">
			 <ele>271</ele>
			<time>2016-06-04T16:41:45Z</time>
			</trkpt>
		
			<trkpt lat="45.205370" lon="1.691940">
			 <ele>270</ele>
			<time>2016-06-04T16:43:45Z</time>
			</trkpt>
		
			<trkpt lat="45.205350" lon="1.691800">
			 <ele>269</ele>
			<time>2016-06-04T16:45:45Z</time>
			</trkpt>
		
			<trkpt lat="45.205320" lon="1.691640">
			 <ele>268</ele>
			<time>2016-06-04T16:47:45Z</time>
			</trkpt>
		
			<trkpt lat="45.205300" lon="1.691470">
			 <ele>267</ele>
			<time>2016-06-04T16:49:45Z</time>
			</trkpt>
		
			<trkpt lat="45.205300" lon="1.691360">
			 <ele>267</ele>
			<time>2016-06-04T16:51:45Z</time>
			</trkpt>
		
			<trkpt lat="45.205310" lon="1.691280">
			 <ele>267</ele>
			<time>2016-06-04T16:53:45Z</time>
			</trkpt>
		
			<trkpt lat="45.205340" lon="1.691170">
			 <ele>267</ele>
			<time>2016-06-04T16:55:45Z</time>
			</trkpt>
		
			<trkpt lat="45.205400" lon="1.691040">
			 <ele>267</ele>
			<time>2016-06-04T16:57:45Z</time>
			</trkpt>
		
			<trkpt lat="45.205460" lon="1.690940">
			 <ele>268</ele>
			<time>2016-06-04T16:59:45Z</time>
			</trkpt>
		
			<trkpt lat="45.205540" lon="1.690780">
			 <ele>269</ele>
			<time>2016-06-04T17:01:45Z</time>
			</trkpt>
		
			<trkpt lat="45.205630" lon="1.690660">
			 <ele>269</ele>
			<time>2016-06-04T17:03:45Z</time>
			</trkpt>
		
			<trkpt lat="45.205690" lon="1.690600">
			 <ele>270</ele>
			<time>2016-06-04T17:05:45Z</time>
			</trkpt>
		
			<trkpt lat="45.205760" lon="1.690550">
			 <ele>271</ele>
			<time>2016-06-04T17:07:45Z</time>
			</trkpt>
		
			<trkpt lat="45.205850" lon="1.690510">
			 <ele>272</ele>
			<time>2016-06-04T17:09:45Z</time>
			</trkpt>
		
			<trkpt lat="45.205890" lon="1.690480">
			 <ele>272</ele>
			<time>2016-06-04T17:11:45Z</time>
			</trkpt>
		
			<trkpt lat="45.205930" lon="1.690470">
			 <ele>272</ele>
			<time>2016-06-04T17:13:45Z</time>
			</trkpt>
		
			<trkpt lat="45.206000" lon="1.690450">
			 <ele>272</ele>
			<time>2016-06-04T17:15:45Z</time>
			</trkpt>
		
			<trkpt lat="45.206010" lon="1.690460">
			 <ele>272</ele>
			<time>2016-06-04T17:17:45Z</time>
			</trkpt>
		
			<trkpt lat="45.206020" lon="1.690460">
			 <ele>272</ele>
			<time>2016-06-04T17:19:45Z</time>
			</trkpt>
		
			<trkpt lat="45.206060" lon="1.690460">
			 <ele>272</ele>
			<time>2016-06-04T17:21:45Z</time>
			</trkpt>
		
			<trkpt lat="45.206190" lon="1.690500">
			 <ele>272</ele>
			<time>2016-06-04T17:23:45Z</time>
			</trkpt>
		
			<trkpt lat="45.206500" lon="1.690640">
			 <ele>273</ele>
			<time>2016-06-04T17:25:45Z</time>
			</trkpt>
		
			<trkpt lat="45.206900" lon="1.690830">
			 <ele>273</ele>
			<time>2016-06-04T17:27:45Z</time>
			</trkpt>
		
			<trkpt lat="45.207020" lon="1.690900">
			 <ele>272</ele>
			<time>2016-06-04T17:29:45Z</time>
			</trkpt>
		
			<trkpt lat="45.207180" lon="1.691020">
			 <ele>272</ele>
			<time>2016-06-04T17:31:45Z</time>
			</trkpt>
		
			<trkpt lat="45.207280" lon="1.691130">
			 <ele>272</ele>
			<time>2016-06-04T17:33:45Z</time>
			</trkpt>
		
			<trkpt lat="45.207370" lon="1.691220">
			 <ele>271</ele>
			<time>2016-06-04T17:35:45Z</time>
			</trkpt>
		
			<trkpt lat="45.207480" lon="1.691300">
			 <ele>271</ele>
			<time>2016-06-04T17:37:45Z</time>
			</trkpt>
		
			<trkpt lat="45.207570" lon="1.691340">
			 <ele>271</ele>
			<time>2016-06-04T17:39:45Z</time>
			</trkpt>
		
			<trkpt lat="45.207650" lon="1.691370">
			 <ele>271</ele>
			<time>2016-06-04T17:41:45Z</time>
			</trkpt>
		
			<trkpt lat="45.207700" lon="1.691390">
			 <ele>271</ele>
			<time>2016-06-04T17:43:45Z</time>
			</trkpt>
		
			<trkpt lat="45.207800" lon="1.691400">
			 <ele>271</ele>
			<time>2016-06-04T17:45:45Z</time>
			</trkpt>
		
			<trkpt lat="45.207990" lon="1.691380">
			 <ele>270</ele>
			<time>2016-06-04T17:47:45Z</time>
			</trkpt>
		
			<trkpt lat="45.208330" lon="1.691340">
			 <ele>270</ele>
			<time>2016-06-04T17:49:45Z</time>
			</trkpt>
		
			<trkpt lat="45.208730" lon="1.691280">
			 <ele>269</ele>
			<time>2016-06-04T17:51:45Z</time>
			</trkpt>
		
			<trkpt lat="45.209070" lon="1.691210">
			 <ele>268</ele>
			<time>2016-06-04T17:53:45Z</time>
			</trkpt>
		
			<trkpt lat="45.209320" lon="1.691160">
			 <ele>266</ele>
			<time>2016-06-04T17:55:45Z</time>
			</trkpt>
		
			<trkpt lat="45.209430" lon="1.691150">
			 <ele>265</ele>
			<time>2016-06-04T17:57:45Z</time>
			</trkpt>
		
			<trkpt lat="45.209620" lon="1.691170">
			 <ele>264</ele>
			<time>2016-06-04T17:59:45Z</time>
			</trkpt>
		
			<trkpt lat="45.209740" lon="1.691200">
			 <ele>263</ele>
			<time>2016-06-04T18:01:45Z</time>
			</trkpt>
		
			<trkpt lat="45.209810" lon="1.691240">
			 <ele>263</ele>
			<time>2016-06-04T18:03:45Z</time>
			</trkpt>
		
			<trkpt lat="45.209830" lon="1.691260">
			 <ele>263</ele>
			<time>2016-06-04T18:05:45Z</time>
			</trkpt>
		
			<trkpt lat="45.209940" lon="1.691350">
			 <ele>263</ele>
			<time>2016-06-04T18:07:45Z</time>
			</trkpt>
		
			<trkpt lat="45.210180" lon="1.691530">
			 <ele>262</ele>
			<time>2016-06-04T18:09:45Z</time>
			</trkpt>
		
			<trkpt lat="45.210220" lon="1.691560">
			 <ele>262</ele>
			<time>2016-06-04T18:11:45Z</time>
			</trkpt>
		
			<trkpt lat="45.210380" lon="1.691690">
			 <ele>261</ele>
			<time>2016-06-04T18:13:45Z</time>
			</trkpt>
		
			<trkpt lat="45.210380" lon="1.691690">
			 <ele>261</ele>
			<time>2016-06-04T18:15:45Z</time>
			</trkpt>
		
			<trkpt lat="45.210450" lon="1.691760">
			 <ele>261</ele>
			<time>2016-06-04T18:17:45Z</time>
			</trkpt>
		
			<trkpt lat="45.210500" lon="1.691800">
			 <ele>261</ele>
			<time>2016-06-04T18:19:45Z</time>
			</trkpt>
		
			<trkpt lat="45.210560" lon="1.691830">
			 <ele>260</ele>
			<time>2016-06-04T18:21:45Z</time>
			</trkpt>
		
			<trkpt lat="45.210600" lon="1.691840">
			 <ele>260</ele>
			<time>2016-06-04T18:23:45Z</time>
			</trkpt>
		
			<trkpt lat="45.210640" lon="1.691850">
			 <ele>259</ele>
			<time>2016-06-04T18:25:45Z</time>
			</trkpt>
		
			<trkpt lat="45.210660" lon="1.691840">
			 <ele>259</ele>
			<time>2016-06-04T18:27:45Z</time>
			</trkpt>
		
			<trkpt lat="45.210810" lon="1.691770">
			 <ele>256</ele>
			<time>2016-06-04T18:29:45Z</time>
			</trkpt>
		
			<trkpt lat="45.210900" lon="1.691720">
			 <ele>255</ele>
			<time>2016-06-04T18:31:45Z</time>
			</trkpt>
		
			<trkpt lat="45.210970" lon="1.691690">
			 <ele>255</ele>
			<time>2016-06-04T18:33:45Z</time>
			</trkpt>
		
			<trkpt lat="45.211050" lon="1.691680">
			 <ele>255</ele>
			<time>2016-06-04T18:35:45Z</time>
			</trkpt>
		
			<trkpt lat="45.211050" lon="1.691700">
			 <ele>255</ele>
			<time>2016-06-04T18:37:45Z</time>
			</trkpt>
		
			<trkpt lat="45.211060" lon="1.691720">
			 <ele>255</ele>
			<time>2016-06-04T18:39:45Z</time>
			</trkpt>
		
			<trkpt lat="45.211060" lon="1.691740">
			 <ele>255</ele>
			<time>2016-06-04T18:41:45Z</time>
			</trkpt>
		
			<trkpt lat="45.211080" lon="1.691760">
			 <ele>255</ele>
			<time>2016-06-04T18:43:45Z</time>
			</trkpt>
		
			<trkpt lat="45.211090" lon="1.691760">
			 <ele>255</ele>
			<time>2016-06-04T18:45:45Z</time>
			</trkpt>
		
			<trkpt lat="45.211110" lon="1.691760">
			 <ele>254</ele>
			<time>2016-06-04T18:47:45Z</time>
			</trkpt>
		
			<trkpt lat="45.211130" lon="1.691750">
			 <ele>254</ele>
			<time>2016-06-04T18:49:45Z</time>
			</trkpt>
		
			<trkpt lat="45.211140" lon="1.691730">
			 <ele>254</ele>
			<time>2016-06-04T18:51:45Z</time>
			</trkpt>
		
			<trkpt lat="45.211140" lon="1.691730">
			 <ele>254</ele>
			<time>2016-06-04T18:53:45Z</time>
			</trkpt>
		
			<trkpt lat="45.211220" lon="1.691920">
			 <ele>254</ele>
			<time>2016-06-04T18:55:45Z</time>
			</trkpt>
		
			<trkpt lat="45.211250" lon="1.692020">
			 <ele>254</ele>
			<time>2016-06-04T18:57:45Z</time>
			</trkpt>
		
			<trkpt lat="45.211280" lon="1.692120">
			 <ele>253</ele>
			<time>2016-06-04T18:59:45Z</time>
			</trkpt>
		
			<trkpt lat="45.211300" lon="1.692170">
			 <ele>253</ele>
			<time>2016-06-04T19:01:45Z</time>
			</trkpt>
		
			<trkpt lat="45.211370" lon="1.692370">
			 <ele>251</ele>
			<time>2016-06-04T19:03:45Z</time>
			</trkpt>
		
			<trkpt lat="45.211390" lon="1.692430">
			 <ele>251</ele>
			<time>2016-06-04T19:05:45Z</time>
			</trkpt>
		
			<trkpt lat="45.211410" lon="1.692530">
			 <ele>250</ele>
			<time>2016-06-04T19:07:45Z</time>
			</trkpt>
		
			<trkpt lat="45.211420" lon="1.692650">
			 <ele>250</ele>
			<time>2016-06-04T19:09:45Z</time>
			</trkpt>
		
			<trkpt lat="45.211420" lon="1.692910">
			 <ele>249</ele>
			<time>2016-06-04T19:11:45Z</time>
			</trkpt>
		
			<trkpt lat="45.211420" lon="1.693040">
			 <ele>249</ele>
			<time>2016-06-04T19:13:45Z</time>
			</trkpt>
		
			<trkpt lat="45.211420" lon="1.693150">
			 <ele>249</ele>
			<time>2016-06-04T19:15:45Z</time>
			</trkpt>
		
			<trkpt lat="45.211410" lon="1.693300">
			 <ele>250</ele>
			<time>2016-06-04T19:17:45Z</time>
			</trkpt>
		
			<trkpt lat="45.211420" lon="1.693440">
			 <ele>250</ele>
			<time>2016-06-04T19:19:45Z</time>
			</trkpt>
		
			<trkpt lat="45.211420" lon="1.693530">
			 <ele>250</ele>
			<time>2016-06-04T19:21:45Z</time>
			</trkpt>
		
			<trkpt lat="45.211440" lon="1.693600">
			 <ele>250</ele>
			<time>2016-06-04T19:23:45Z</time>
			</trkpt>
		
			<trkpt lat="45.211460" lon="1.693660">
			 <ele>249</ele>
			<time>2016-06-04T19:25:45Z</time>
			</trkpt>
		
			<trkpt lat="45.211500" lon="1.693730">
			 <ele>248</ele>
			<time>2016-06-04T19:27:45Z</time>
			</trkpt>
		
			<trkpt lat="45.211520" lon="1.693770">
			 <ele>248</ele>
			<time>2016-06-04T19:29:45Z</time>
			</trkpt>
		
			<trkpt lat="45.211560" lon="1.693810">
			 <ele>247</ele>
			<time>2016-06-04T19:31:45Z</time>
			</trkpt>
		
			<trkpt lat="45.211640" lon="1.693860">
			 <ele>244</ele>
			<time>2016-06-04T19:33:45Z</time>
			</trkpt>
		
			<trkpt lat="45.211730" lon="1.693900">
			 <ele>242</ele>
			<time>2016-06-04T19:35:45Z</time>
			</trkpt>
		
			<trkpt lat="45.211790" lon="1.693920">
			 <ele>241</ele>
			<time>2016-06-04T19:37:45Z</time>
			</trkpt>
		
			<trkpt lat="45.212040" lon="1.694000">
			 <ele>238</ele>
			<time>2016-06-04T19:39:45Z</time>
			</trkpt>
		
			<trkpt lat="45.212230" lon="1.694060">
			 <ele>234</ele>
			<time>2016-06-04T19:41:45Z</time>
			</trkpt>
		
			<trkpt lat="45.212370" lon="1.694100">
			 <ele>232</ele>
			<time>2016-06-04T19:43:45Z</time>
			</trkpt>
		
			<trkpt lat="45.212470" lon="1.694150">
			 <ele>230</ele>
			<time>2016-06-04T19:45:45Z</time>
			</trkpt>
		
			<trkpt lat="45.212570" lon="1.694200">
			 <ele>229</ele>
			<time>2016-06-04T19:47:45Z</time>
			</trkpt>
		
			<trkpt lat="45.212660" lon="1.694260">
			 <ele>229</ele>
			<time>2016-06-04T19:49:45Z</time>
			</trkpt>
		
			<trkpt lat="45.212730" lon="1.694330">
			 <ele>229</ele>
			<time>2016-06-04T19:51:45Z</time>
			</trkpt>
		
			<trkpt lat="45.212850" lon="1.694470">
			 <ele>228</ele>
			<time>2016-06-04T19:53:45Z</time>
			</trkpt>
		
			<trkpt lat="45.212960" lon="1.694600">
			 <ele>227</ele>
			<time>2016-06-04T19:55:45Z</time>
			</trkpt>
		
			<trkpt lat="45.213070" lon="1.694750">
			 <ele>226</ele>
			<time>2016-06-04T19:57:45Z</time>
			</trkpt>
		
			<trkpt lat="45.213160" lon="1.694940">
			 <ele>225</ele>
			<time>2016-06-04T19:59:45Z</time>
			</trkpt>
		
			<trkpt lat="45.213240" lon="1.695130">
			 <ele>225</ele>
			<time>2016-06-04T20:01:45Z</time>
			</trkpt>
		
			<trkpt lat="45.213350" lon="1.695380">
			 <ele>223</ele>
			<time>2016-06-04T20:03:45Z</time>
			</trkpt>
		
			<trkpt lat="45.213540" lon="1.695650">
			 <ele>219</ele>
			<time>2016-06-04T20:05:45Z</time>
			</trkpt>
		
			<trkpt lat="45.213710" lon="1.695900">
			 <ele>214</ele>
			<time>2016-06-04T20:07:45Z</time>
			</trkpt>
		
			<trkpt lat="45.213750" lon="1.695990">
			 <ele>213</ele>
			<time>2016-06-04T20:09:45Z</time>
			</trkpt>
		
			<trkpt lat="45.213780" lon="1.696040">
			 <ele>212</ele>
			<time>2016-06-04T20:11:45Z</time>
			</trkpt>
		
			<trkpt lat="45.213790" lon="1.696090">
			 <ele>212</ele>
			<time>2016-06-04T20:13:45Z</time>
			</trkpt>
		
			<trkpt lat="45.213820" lon="1.696170">
			 <ele>211</ele>
			<time>2016-06-04T20:15:45Z</time>
			</trkpt>
		
			<trkpt lat="45.213850" lon="1.696300">
			 <ele>210</ele>
			<time>2016-06-04T20:17:45Z</time>
			</trkpt>
		
			<trkpt lat="45.213880" lon="1.696510">
			 <ele>210</ele>
			<time>2016-06-04T20:19:45Z</time>
			</trkpt>
		
			<trkpt lat="45.213910" lon="1.696770">
			 <ele>209</ele>
			<time>2016-06-04T20:21:45Z</time>
			</trkpt>
		
			<trkpt lat="45.213920" lon="1.697000">
			 <ele>210</ele>
			<time>2016-06-04T20:23:45Z</time>
			</trkpt>
		
			<trkpt lat="45.213910" lon="1.697120">
			 <ele>210</ele>
			<time>2016-06-04T20:25:45Z</time>
			</trkpt>
		
			<trkpt lat="45.213890" lon="1.697210">
			 <ele>211</ele>
			<time>2016-06-04T20:27:45Z</time>
			</trkpt>
		
			<trkpt lat="45.213850" lon="1.697340">
			 <ele>213</ele>
			<time>2016-06-04T20:29:45Z</time>
			</trkpt>
		
			<trkpt lat="45.213830" lon="1.697470">
			 <ele>214</ele>
			<time>2016-06-04T20:31:45Z</time>
			</trkpt>
		
			<trkpt lat="45.213830" lon="1.697550">
			 <ele>214</ele>
			<time>2016-06-04T20:33:45Z</time>
			</trkpt>
		
			<trkpt lat="45.213840" lon="1.697610">
			 <ele>214</ele>
			<time>2016-06-04T20:35:45Z</time>
			</trkpt>
		
			<trkpt lat="45.213860" lon="1.697670">
			 <ele>213</ele>
			<time>2016-06-04T20:37:45Z</time>
			</trkpt>
		
			<trkpt lat="45.213890" lon="1.697690">
			 <ele>212</ele>
			<time>2016-06-04T20:39:45Z</time>
			</trkpt>
		
			<trkpt lat="45.213930" lon="1.697720">
			 <ele>211</ele>
			<time>2016-06-04T20:41:45Z</time>
			</trkpt>
		
			<trkpt lat="45.213960" lon="1.697730">
			 <ele>210</ele>
			<time>2016-06-04T20:43:45Z</time>
			</trkpt>
		
			<trkpt lat="45.214010" lon="1.697730">
			 <ele>208</ele>
			<time>2016-06-04T20:45:45Z</time>
			</trkpt>
		
			<trkpt lat="45.214060" lon="1.697700">
			 <ele>206</ele>
			<time>2016-06-04T20:47:45Z</time>
			</trkpt>
		
			<trkpt lat="45.214200" lon="1.697590">
			 <ele>200</ele>
			<time>2016-06-04T20:49:45Z</time>
			</trkpt>
		
			<trkpt lat="45.214280" lon="1.697530">
			 <ele>198</ele>
			<time>2016-06-04T20:51:45Z</time>
			</trkpt>
		
			<trkpt lat="45.214380" lon="1.697470">
			 <ele>195</ele>
			<time>2016-06-04T20:53:45Z</time>
			</trkpt>
		
			<trkpt lat="45.214410" lon="1.697470">
			 <ele>194</ele>
			<time>2016-06-04T20:55:45Z</time>
			</trkpt>
		
			<trkpt lat="45.214450" lon="1.697450">
			 <ele>192</ele>
			<time>2016-06-04T20:57:45Z</time>
			</trkpt>
		
			<trkpt lat="45.214500" lon="1.697450">
			 <ele>191</ele>
			<time>2016-06-04T20:59:45Z</time>
			</trkpt>
		
			<trkpt lat="45.214550" lon="1.697460">
			 <ele>189</ele>
			<time>2016-06-04T21:01:45Z</time>
			</trkpt>
		
			<trkpt lat="45.214580" lon="1.697470">
			 <ele>189</ele>
			<time>2016-06-04T21:03:45Z</time>
			</trkpt>
		
			<trkpt lat="45.214630" lon="1.697520">
			 <ele>187</ele>
			<time>2016-06-04T21:05:45Z</time>
			</trkpt>
		
			<trkpt lat="45.214660" lon="1.697590">
			 <ele>187</ele>
			<time>2016-06-04T21:07:45Z</time>
			</trkpt>
		
			<trkpt lat="45.214680" lon="1.697680">
			 <ele>187</ele>
			<time>2016-06-04T21:09:45Z</time>
			</trkpt>
		
			<trkpt lat="45.214680" lon="1.697840">
			 <ele>188</ele>
			<time>2016-06-04T21:11:45Z</time>
			</trkpt>
		
			<trkpt lat="45.214670" lon="1.697940">
			 <ele>189</ele>
			<time>2016-06-04T21:13:45Z</time>
			</trkpt>
		
			<trkpt lat="45.214630" lon="1.698090">
			 <ele>191</ele>
			<time>2016-06-04T21:15:45Z</time>
			</trkpt>
		
			<trkpt lat="45.214560" lon="1.698250">
			 <ele>194</ele>
			<time>2016-06-04T21:17:45Z</time>
			</trkpt>
		
			<trkpt lat="45.214520" lon="1.698360">
			 <ele>195</ele>
			<time>2016-06-04T21:19:45Z</time>
			</trkpt>
		
			<trkpt lat="45.214530" lon="1.698440">
			 <ele>196</ele>
			<time>2016-06-04T21:21:45Z</time>
			</trkpt>
		
			<trkpt lat="45.214530" lon="1.698490">
			 <ele>197</ele>
			<time>2016-06-04T21:23:45Z</time>
			</trkpt>
		
			<trkpt lat="45.214550" lon="1.698520">
			 <ele>196</ele>
			<time>2016-06-04T21:25:45Z</time>
			</trkpt>
		
			<trkpt lat="45.214570" lon="1.698550">
			 <ele>196</ele>
			<time>2016-06-04T21:27:45Z</time>
			</trkpt>
		
			<trkpt lat="45.214610" lon="1.698580">
			 <ele>195</ele>
			<time>2016-06-04T21:29:45Z</time>
			</trkpt>
		
			<trkpt lat="45.214650" lon="1.698590">
			 <ele>195</ele>
			<time>2016-06-04T21:31:45Z</time>
			</trkpt>
		
			<trkpt lat="45.214690" lon="1.698590">
			 <ele>194</ele>
			<time>2016-06-04T21:33:45Z</time>
			</trkpt>
		
			<trkpt lat="45.214790" lon="1.698560">
			 <ele>191</ele>
			<time>2016-06-04T21:35:45Z</time>
			</trkpt>
		
			<trkpt lat="45.214830" lon="1.698540">
			 <ele>190</ele>
			<time>2016-06-04T21:37:45Z</time>
			</trkpt>
		
			<trkpt lat="45.214880" lon="1.698520">
			 <ele>188</ele>
			<time>2016-06-04T21:39:45Z</time>
			</trkpt>
		
			<trkpt lat="45.214960" lon="1.698500">
			 <ele>186</ele>
			<time>2016-06-04T21:41:45Z</time>
			</trkpt>
		
			<trkpt lat="45.214980" lon="1.698500">
			 <ele>185</ele>
			<time>2016-06-04T21:43:45Z</time>
			</trkpt>
		
			<trkpt lat="45.215020" lon="1.698490">
			 <ele>184</ele>
			<time>2016-06-04T21:45:45Z</time>
			</trkpt>
		
			<trkpt lat="45.215060" lon="1.698510">
			 <ele>184</ele>
			<time>2016-06-04T21:47:45Z</time>
			</trkpt>
		
			<trkpt lat="45.215120" lon="1.698560">
			 <ele>183</ele>
			<time>2016-06-04T21:49:45Z</time>
			</trkpt>
		
			<trkpt lat="45.215170" lon="1.698640">
			 <ele>183</ele>
			<time>2016-06-04T21:51:45Z</time>
			</trkpt>
		
			<trkpt lat="45.215200" lon="1.698740">
			 <ele>183</ele>
			<time>2016-06-04T21:53:45Z</time>
			</trkpt>
		
			<trkpt lat="45.215220" lon="1.698860">
			 <ele>183</ele>
			<time>2016-06-04T21:55:45Z</time>
			</trkpt>
		
			<trkpt lat="45.215240" lon="1.698980">
			 <ele>184</ele>
			<time>2016-06-04T21:57:45Z</time>
			</trkpt>
		
			<trkpt lat="45.215260" lon="1.699050">
			 <ele>184</ele>
			<time>2016-06-04T21:59:45Z</time>
			</trkpt>
		
			<trkpt lat="45.215290" lon="1.699230">
			 <ele>185</ele>
			<time>2016-06-04T22:01:45Z</time>
			</trkpt>
		
			<trkpt lat="45.215330" lon="1.699380">
			 <ele>186</ele>
			<time>2016-06-04T22:03:45Z</time>
			</trkpt>
		
			<trkpt lat="45.215420" lon="1.699580">
			 <ele>187</ele>
			<time>2016-06-04T22:05:45Z</time>
			</trkpt>
		
			<trkpt lat="45.215500" lon="1.699770">
			 <ele>187</ele>
			<time>2016-06-04T22:07:45Z</time>
			</trkpt>
		
			<trkpt lat="45.215610" lon="1.700000">
			 <ele>186</ele>
			<time>2016-06-04T22:09:45Z</time>
			</trkpt>
		
			<trkpt lat="45.215690" lon="1.700190">
			 <ele>189</ele>
			<time>2016-06-04T22:11:45Z</time>
			</trkpt>
		
			<trkpt lat="45.215770" lon="1.700280">
			 <ele>188</ele>
			<time>2016-06-04T22:13:45Z</time>
			</trkpt>
		
			<trkpt lat="45.215840" lon="1.700310">
			 <ele>187</ele>
			<time>2016-06-04T22:15:45Z</time>
			</trkpt>
		
			<trkpt lat="45.215850" lon="1.700310">
			 <ele>187</ele>
			<time>2016-06-04T22:17:45Z</time>
			</trkpt>
		
			<trkpt lat="45.215860" lon="1.700320">
			 <ele>187</ele>
			<time>2016-06-04T22:19:45Z</time>
			</trkpt>
		
			<trkpt lat="45.215880" lon="1.700340">
			 <ele>187</ele>
			<time>2016-06-04T22:21:45Z</time>
			</trkpt>
		
			<trkpt lat="45.215920" lon="1.700360">
			 <ele>187</ele>
			<time>2016-06-04T22:23:45Z</time>
			</trkpt>
		
			<trkpt lat="45.215980" lon="1.700420">
			 <ele>187</ele>
			<time>2016-06-04T22:25:45Z</time>
			</trkpt>
		
			<trkpt lat="45.215990" lon="1.700430">
			 <ele>187</ele>
			<time>2016-06-04T22:27:45Z</time>
			</trkpt>
		
			<trkpt lat="45.216050" lon="1.700550">
			 <ele>188</ele>
			<time>2016-06-04T22:29:45Z</time>
			</trkpt>
		
			<trkpt lat="45.216160" lon="1.700730">
			 <ele>188</ele>
			<time>2016-06-04T22:31:45Z</time>
			</trkpt>
		
			<trkpt lat="45.216230" lon="1.700820">
			 <ele>187</ele>
			<time>2016-06-04T22:33:45Z</time>
			</trkpt>
		
			<trkpt lat="45.216320" lon="1.700840">
			 <ele>184</ele>
			<time>2016-06-04T22:35:45Z</time>
			</trkpt>
		
			<trkpt lat="45.216370" lon="1.700850">
			 <ele>183</ele>
			<time>2016-06-04T22:37:45Z</time>
			</trkpt>
		
			<trkpt lat="45.216410" lon="1.700830">
			 <ele>181</ele>
			<time>2016-06-04T22:39:45Z</time>
			</trkpt>
		
			<trkpt lat="45.216410" lon="1.700820">
			 <ele>180</ele>
			<time>2016-06-04T22:41:45Z</time>
			</trkpt>
		
			<trkpt lat="45.216490" lon="1.700710">
			 <ele>177</ele>
			<time>2016-06-04T22:43:45Z</time>
			</trkpt>
		
			<trkpt lat="45.216640" lon="1.700490">
			 <ele>171</ele>
			<time>2016-06-04T22:45:45Z</time>
			</trkpt>
		
			<trkpt lat="45.216670" lon="1.700450">
			 <ele>171</ele>
			<time>2016-06-04T22:47:45Z</time>
			</trkpt>
		
			<trkpt lat="45.216730" lon="1.700330">
			 <ele>171</ele>
			<time>2016-06-04T22:49:45Z</time>
			</trkpt>
		
			<trkpt lat="45.216730" lon="1.700330">
			 <ele>171</ele>
			<time>2016-06-04T22:51:45Z</time>
			</trkpt>
		
			<trkpt lat="45.216870" lon="1.700440">
			 <ele>172</ele>
			<time>2016-06-04T22:53:45Z</time>
			</trkpt>
		
			<trkpt lat="45.216950" lon="1.700500">
			 <ele>172</ele>
			<time>2016-06-04T22:55:45Z</time>
			</trkpt>
		
			<trkpt lat="45.217060" lon="1.700580">
			 <ele>173</ele>
			<time>2016-06-04T22:57:45Z</time>
			</trkpt>
		
			<trkpt lat="45.217120" lon="1.700620">
			 <ele>173</ele>
			<time>2016-06-04T22:59:45Z</time>
			</trkpt>
		
			<trkpt lat="45.217340" lon="1.700730">
			 <ele>173</ele>
			<time>2016-06-04T23:01:45Z</time>
			</trkpt>
		
			<trkpt lat="45.217690" lon="1.700890">
			 <ele>173</ele>
			<time>2016-06-04T23:03:45Z</time>
			</trkpt>
		
			<trkpt lat="45.218260" lon="1.701150">
			 <ele>174</ele>
			<time>2016-06-04T23:05:45Z</time>
			</trkpt>
		
			<trkpt lat="45.218460" lon="1.701220">
			 <ele>174</ele>
			<time>2016-06-04T23:07:45Z</time>
			</trkpt>
		
			<trkpt lat="45.218460" lon="1.701220">
			 <ele>174</ele>
			<time>2016-06-04T23:09:45Z</time>
			</trkpt>
		
			<trkpt lat="45.218480" lon="1.700970">
			 <ele>176</ele>
			<time>2016-06-04T23:11:45Z</time>
			</trkpt>
		
			<trkpt lat="45.218510" lon="1.700910">
			 <ele>177</ele>
			<time>2016-06-04T23:13:45Z</time>
			</trkpt>
		
			<trkpt lat="45.218580" lon="1.700760">
			 <ele>180</ele>
			<time>2016-06-04T23:15:45Z</time>
			</trkpt>
		
			<trkpt lat="45.218600" lon="1.700730">
			 <ele>181</ele>
			<time>2016-06-04T23:17:45Z</time>
			</trkpt>
		
			<trkpt lat="45.218620" lon="1.700670">
			 <ele>182</ele>
			<time>2016-06-04T23:19:45Z</time>
			</trkpt>
		
			<trkpt lat="45.218680" lon="1.700520">
			 <ele>185</ele>
			<time>2016-06-04T23:21:45Z</time>
			</trkpt>
		
			<trkpt lat="45.218730" lon="1.700330">
			 <ele>189</ele>
			<time>2016-06-04T23:23:45Z</time>
			</trkpt>
		
			<trkpt lat="45.218750" lon="1.700280">
			 <ele>190</ele>
			<time>2016-06-04T23:25:45Z</time>
			</trkpt>
		
			<trkpt lat="45.218780" lon="1.700190">
			 <ele>192</ele>
			<time>2016-06-04T23:27:45Z</time>
			</trkpt>
		
			<trkpt lat="45.218820" lon="1.700050">
			 <ele>195</ele>
			<time>2016-06-04T23:29:45Z</time>
			</trkpt>
		
			<trkpt lat="45.218860" lon="1.699950">
			 <ele>196</ele>
			<time>2016-06-04T23:31:45Z</time>
			</trkpt>
		
			<trkpt lat="45.218890" lon="1.699900">
			 <ele>197</ele>
			<time>2016-06-04T23:33:45Z</time>
			</trkpt>
		
			<trkpt lat="45.218920" lon="1.699870">
			 <ele>198</ele>
			<time>2016-06-04T23:35:45Z</time>
			</trkpt>
		
			<trkpt lat="45.218930" lon="1.699860">
			 <ele>198</ele>
			<time>2016-06-04T23:37:45Z</time>
			</trkpt>
		
			<trkpt lat="45.218990" lon="1.699840">
			 <ele>198</ele>
			<time>2016-06-04T23:39:45Z</time>
			</trkpt>
		
			<trkpt lat="45.219030" lon="1.699840">
			 <ele>198</ele>
			<time>2016-06-04T23:41:45Z</time>
			</trkpt>
		
			<trkpt lat="45.219070" lon="1.699840">
			 <ele>197</ele>
			<time>2016-06-04T23:43:45Z</time>
			</trkpt>
		
			<trkpt lat="45.219100" lon="1.699840">
			 <ele>197</ele>
			<time>2016-06-04T23:45:45Z</time>
			</trkpt>
		
			<trkpt lat="45.219150" lon="1.699870">
			 <ele>196</ele>
			<time>2016-06-04T23:47:45Z</time>
			</trkpt>
		
			<trkpt lat="45.219180" lon="1.699900">
			 <ele>196</ele>
			<time>2016-06-04T23:49:45Z</time>
			</trkpt>
		
			<trkpt lat="45.219220" lon="1.699960">
			 <ele>196</ele>
			<time>2016-06-04T23:51:45Z</time>
			</trkpt>
		
			<trkpt lat="45.219260" lon="1.700040">
			 <ele>195</ele>
			<time>2016-06-04T23:53:45Z</time>
			</trkpt>
		
			<trkpt lat="45.219290" lon="1.700170">
			 <ele>194</ele>
			<time>2016-06-04T23:55:45Z</time>
			</trkpt>
		
			<trkpt lat="45.219310" lon="1.700280">
			 <ele>194</ele>
			<time>2016-06-04T23:57:45Z</time>
			</trkpt>
		
			<trkpt lat="45.219360" lon="1.700640">
			 <ele>191</ele>
			<time>2016-06-04T23:59:45Z</time>
			</trkpt>
		
			<trkpt lat="45.219390" lon="1.700810">
			 <ele>191</ele>
			<time>2016-06-05T00:01:45Z</time>
			</trkpt>
		
			<trkpt lat="45.219430" lon="1.700920">
			 <ele>191</ele>
			<time>2016-06-05T00:03:45Z</time>
			</trkpt>
		
			<trkpt lat="45.219490" lon="1.701090">
			 <ele>191</ele>
			<time>2016-06-05T00:05:45Z</time>
			</trkpt>
		
			<trkpt lat="45.219580" lon="1.701240">
			 <ele>191</ele>
			<time>2016-06-05T00:07:45Z</time>
			</trkpt>
		
			<trkpt lat="45.219680" lon="1.701370">
			 <ele>192</ele>
			<time>2016-06-05T00:09:45Z</time>
			</trkpt>
		
			<trkpt lat="45.219740" lon="1.701410">
			 <ele>192</ele>
			<time>2016-06-05T00:11:45Z</time>
			</trkpt>
		
			<trkpt lat="45.219900" lon="1.701550">
			 <ele>193</ele>
			<time>2016-06-05T00:13:45Z</time>
			</trkpt>
		
			<trkpt lat="45.220090" lon="1.701700">
			 <ele>195</ele>
			<time>2016-06-05T00:15:45Z</time>
			</trkpt>
		
			<trkpt lat="45.220260" lon="1.701830">
			 <ele>198</ele>
			<time>2016-06-05T00:17:45Z</time>
			</trkpt>
		
			<trkpt lat="45.220450" lon="1.702010">
			 <ele>199</ele>
			<time>2016-06-05T00:19:45Z</time>
			</trkpt>
		
			<trkpt lat="45.220570" lon="1.702130">
			 <ele>199</ele>
			<time>2016-06-05T00:21:45Z</time>
			</trkpt>
		
			<trkpt lat="45.220760" lon="1.702320">
			 <ele>199</ele>
			<time>2016-06-05T00:23:45Z</time>
			</trkpt>
		
			<trkpt lat="45.220880" lon="1.702420">
			 <ele>199</ele>
			<time>2016-06-05T00:25:45Z</time>
			</trkpt>
		
			<trkpt lat="45.220940" lon="1.702450">
			 <ele>200</ele>
			<time>2016-06-05T00:27:45Z</time>
			</trkpt>
		
			<trkpt lat="45.221070" lon="1.702500">
			 <ele>202</ele>
			<time>2016-06-05T00:29:45Z</time>
			</trkpt>
		
			<trkpt lat="45.221210" lon="1.702540">
			 <ele>205</ele>
			<time>2016-06-05T00:31:45Z</time>
			</trkpt>
		
			<trkpt lat="45.221410" lon="1.702570">
			 <ele>209</ele>
			<time>2016-06-05T00:33:45Z</time>
			</trkpt>
		
			<trkpt lat="45.221580" lon="1.702600">
			 <ele>213</ele>
			<time>2016-06-05T00:35:45Z</time>
			</trkpt>
		
			<trkpt lat="45.221760" lon="1.702620">
			 <ele>216</ele>
			<time>2016-06-05T00:37:45Z</time>
			</trkpt>
		
			<trkpt lat="45.221900" lon="1.702640">
			 <ele>217</ele>
			<time>2016-06-05T00:39:45Z</time>
			</trkpt>
		
			<trkpt lat="45.222060" lon="1.702650">
			 <ele>220</ele>
			<time>2016-06-05T00:41:45Z</time>
			</trkpt>
		
			<trkpt lat="45.222160" lon="1.702660">
			 <ele>221</ele>
			<time>2016-06-05T00:43:45Z</time>
			</trkpt>
		
			<trkpt lat="45.222240" lon="1.702670">
			 <ele>222</ele>
			<time>2016-06-05T00:45:45Z</time>
			</trkpt>
		
			<trkpt lat="45.222330" lon="1.702700">
			 <ele>222</ele>
			<time>2016-06-05T00:47:45Z</time>
			</trkpt>
		
			<trkpt lat="45.222360" lon="1.702720">
			 <ele>222</ele>
			<time>2016-06-05T00:49:45Z</time>
			</trkpt>
		
			<trkpt lat="45.222460" lon="1.702800">
			 <ele>221</ele>
			<time>2016-06-05T00:51:45Z</time>
			</trkpt>
		
			<trkpt lat="45.222560" lon="1.702870">
			 <ele>219</ele>
			<time>2016-06-05T00:53:45Z</time>
			</trkpt>
		
			<trkpt lat="45.222630" lon="1.702900">
			 <ele>219</ele>
			<time>2016-06-05T00:55:45Z</time>
			</trkpt>
		
			<trkpt lat="45.222700" lon="1.702930">
			 <ele>219</ele>
			<time>2016-06-05T00:57:45Z</time>
			</trkpt>
		
			<trkpt lat="45.222860" lon="1.703000">
			 <ele>218</ele>
			<time>2016-06-05T00:59:45Z</time>
			</trkpt>
		
			<trkpt lat="45.223020" lon="1.703050">
			 <ele>219</ele>
			<time>2016-06-05T01:01:45Z</time>
			</trkpt>
		
			<trkpt lat="45.223230" lon="1.703080">
			 <ele>220</ele>
			<time>2016-06-05T01:03:45Z</time>
			</trkpt>
		
			<trkpt lat="45.223480" lon="1.703080">
			 <ele>225</ele>
			<time>2016-06-05T01:05:45Z</time>
			</trkpt>
		
			<trkpt lat="45.223550" lon="1.703080">
			 <ele>226</ele>
			<time>2016-06-05T01:07:45Z</time>
			</trkpt>
		
			<trkpt lat="45.223630" lon="1.703070">
			 <ele>228</ele>
			<time>2016-06-05T01:09:45Z</time>
			</trkpt>
		
			<trkpt lat="45.223700" lon="1.703060">
			 <ele>230</ele>
			<time>2016-06-05T01:11:45Z</time>
			</trkpt>
		
			<trkpt lat="45.223790" lon="1.703040">
			 <ele>233</ele>
			<time>2016-06-05T01:13:45Z</time>
			</trkpt>
		
			<trkpt lat="45.223880" lon="1.703020">
			 <ele>235</ele>
			<time>2016-06-05T01:15:45Z</time>
			</trkpt>
		
			<trkpt lat="45.223910" lon="1.703020">
			 <ele>236</ele>
			<time>2016-06-05T01:17:45Z</time>
			</trkpt>
		
			<trkpt lat="45.223980" lon="1.703020">
			 <ele>237</ele>
			<time>2016-06-05T01:19:45Z</time>
			</trkpt>
		
			<trkpt lat="45.224040" lon="1.703030">
			 <ele>238</ele>
			<time>2016-06-05T01:21:45Z</time>
			</trkpt>
		
			<trkpt lat="45.224080" lon="1.703040">
			 <ele>238</ele>
			<time>2016-06-05T01:23:45Z</time>
			</trkpt>
		
			<trkpt lat="45.224100" lon="1.703050">
			 <ele>238</ele>
			<time>2016-06-05T01:25:45Z</time>
			</trkpt>
		
			<trkpt lat="45.224220" lon="1.703110">
			 <ele>239</ele>
			<time>2016-06-05T01:27:45Z</time>
			</trkpt>
		
			<trkpt lat="45.224280" lon="1.703140">
			 <ele>239</ele>
			<time>2016-06-05T01:29:45Z</time>
			</trkpt>
		
			<trkpt lat="45.224460" lon="1.703200">
			 <ele>242</ele>
			<time>2016-06-05T01:31:45Z</time>
			</trkpt>
		
			<trkpt lat="45.224540" lon="1.703240">
			 <ele>243</ele>
			<time>2016-06-05T01:33:45Z</time>
			</trkpt>
		
			<trkpt lat="45.224610" lon="1.703310">
			 <ele>243</ele>
			<time>2016-06-05T01:35:45Z</time>
			</trkpt>
		
			<trkpt lat="45.224690" lon="1.703420">
			 <ele>242</ele>
			<time>2016-06-05T01:37:45Z</time>
			</trkpt>
		
			<trkpt lat="45.224770" lon="1.703530">
			 <ele>240</ele>
			<time>2016-06-05T01:39:45Z</time>
			</trkpt>
		
			<trkpt lat="45.224850" lon="1.703610">
			 <ele>239</ele>
			<time>2016-06-05T01:41:45Z</time>
			</trkpt>
		
			<trkpt lat="45.224940" lon="1.703670">
			 <ele>240</ele>
			<time>2016-06-05T01:43:45Z</time>
			</trkpt>
		
			<trkpt lat="45.225070" lon="1.703750">
			 <ele>241</ele>
			<time>2016-06-05T01:45:45Z</time>
			</trkpt>
		
			<trkpt lat="45.225220" lon="1.703830">
			 <ele>242</ele>
			<time>2016-06-05T01:47:45Z</time>
			</trkpt>
		
			<trkpt lat="45.225340" lon="1.703890">
			 <ele>243</ele>
			<time>2016-06-05T01:49:45Z</time>
			</trkpt>
		
			<trkpt lat="45.225700" lon="1.704020">
			 <ele>248</ele>
			<time>2016-06-05T01:51:45Z</time>
			</trkpt>
		
			<trkpt lat="45.225960" lon="1.704140">
			 <ele>250</ele>
			<time>2016-06-05T01:53:45Z</time>
			</trkpt>
		
			<trkpt lat="45.226080" lon="1.704220">
			 <ele>248</ele>
			<time>2016-06-05T01:55:45Z</time>
			</trkpt>
		
			<trkpt lat="45.226220" lon="1.704270">
			 <ele>248</ele>
			<time>2016-06-05T01:57:45Z</time>
			</trkpt>
		
			<trkpt lat="45.226360" lon="1.704260">
			 <ele>250</ele>
			<time>2016-06-05T01:59:45Z</time>
			</trkpt>
		
			<trkpt lat="45.226560" lon="1.704200">
			 <ele>253</ele>
			<time>2016-06-05T02:01:45Z</time>
			</trkpt>
		
			<trkpt lat="45.226730" lon="1.704140">
			 <ele>255</ele>
			<time>2016-06-05T02:03:45Z</time>
			</trkpt>
		
			<trkpt lat="45.226900" lon="1.704070">
			 <ele>255</ele>
			<time>2016-06-05T02:05:45Z</time>
			</trkpt>
		
			<trkpt lat="45.227020" lon="1.704000">
			 <ele>256</ele>
			<time>2016-06-05T02:07:45Z</time>
			</trkpt>
		
			<trkpt lat="45.227100" lon="1.703940">
			 <ele>256</ele>
			<time>2016-06-05T02:09:45Z</time>
			</trkpt>
		
			<trkpt lat="45.227150" lon="1.703860">
			 <ele>257</ele>
			<time>2016-06-05T02:11:45Z</time>
			</trkpt>
		
			<trkpt lat="45.227200" lon="1.703750">
			 <ele>259</ele>
			<time>2016-06-05T02:13:45Z</time>
			</trkpt>
		
			<trkpt lat="45.227270" lon="1.703510">
			 <ele>262</ele>
			<time>2016-06-05T02:15:45Z</time>
			</trkpt>
		
			<trkpt lat="45.227300" lon="1.703400">
			 <ele>263</ele>
			<time>2016-06-05T02:17:45Z</time>
			</trkpt>
		
			<trkpt lat="45.227410" lon="1.703190">
			 <ele>266</ele>
			<time>2016-06-05T02:19:45Z</time>
			</trkpt>
		
			<trkpt lat="45.227530" lon="1.703020">
			 <ele>268</ele>
			<time>2016-06-05T02:21:45Z</time>
			</trkpt>
		
			<trkpt lat="45.227630" lon="1.702880">
			 <ele>269</ele>
			<time>2016-06-05T02:23:45Z</time>
			</trkpt>
		
			<trkpt lat="45.227730" lon="1.702710">
			 <ele>271</ele>
			<time>2016-06-05T02:25:45Z</time>
			</trkpt>
		
			<trkpt lat="45.227820" lon="1.702560">
			 <ele>271</ele>
			<time>2016-06-05T02:27:45Z</time>
			</trkpt>
		
			<trkpt lat="45.227930" lon="1.702420">
			 <ele>272</ele>
			<time>2016-06-05T02:29:45Z</time>
			</trkpt>
		
			<trkpt lat="45.227990" lon="1.702360">
			 <ele>272</ele>
			<time>2016-06-05T02:31:45Z</time>
			</trkpt>
		
			<trkpt lat="45.228050" lon="1.702310">
			 <ele>272</ele>
			<time>2016-06-05T02:33:45Z</time>
			</trkpt>
		
			<trkpt lat="45.228150" lon="1.702240">
			 <ele>272</ele>
			<time>2016-06-05T02:35:45Z</time>
			</trkpt>
		
			<trkpt lat="45.228190" lon="1.702220">
			 <ele>272</ele>
			<time>2016-06-05T02:37:45Z</time>
			</trkpt>
		
			<trkpt lat="45.228260" lon="1.702210">
			 <ele>271</ele>
			<time>2016-06-05T02:39:45Z</time>
			</trkpt>
		
			<trkpt lat="45.228300" lon="1.702230">
			 <ele>270</ele>
			<time>2016-06-05T02:41:45Z</time>
			</trkpt>
		
			<trkpt lat="45.228350" lon="1.702250">
			 <ele>270</ele>
			<time>2016-06-05T02:43:45Z</time>
			</trkpt>
		
			<trkpt lat="45.228390" lon="1.702290">
			 <ele>270</ele>
			<time>2016-06-05T02:45:45Z</time>
			</trkpt>
		
			<trkpt lat="45.228430" lon="1.702340">
			 <ele>270</ele>
			<time>2016-06-05T02:47:45Z</time>
			</trkpt>
		
			<trkpt lat="45.228460" lon="1.702400">
			 <ele>270</ele>
			<time>2016-06-05T02:49:45Z</time>
			</trkpt>
		
			<trkpt lat="45.228470" lon="1.702470">
			 <ele>270</ele>
			<time>2016-06-05T02:51:45Z</time>
			</trkpt>
		
			<trkpt lat="45.228480" lon="1.702530">
			 <ele>270</ele>
			<time>2016-06-05T02:53:45Z</time>
			</trkpt>
		
			<trkpt lat="45.228480" lon="1.702570">
			 <ele>270</ele>
			<time>2016-06-05T02:55:45Z</time>
			</trkpt>
		
			<trkpt lat="45.228470" lon="1.702610">
			 <ele>270</ele>
			<time>2016-06-05T02:57:45Z</time>
			</trkpt>
		
			<trkpt lat="45.228470" lon="1.702660">
			 <ele>270</ele>
			<time>2016-06-05T02:59:45Z</time>
			</trkpt>
		
			<trkpt lat="45.228460" lon="1.702690">
			 <ele>270</ele>
			<time>2016-06-05T03:01:45Z</time>
			</trkpt>
		
			<trkpt lat="45.228450" lon="1.702730">
			 <ele>270</ele>
			<time>2016-06-05T03:03:45Z</time>
			</trkpt>
		
			<trkpt lat="45.228430" lon="1.702770">
			 <ele>269</ele>
			<time>2016-06-05T03:05:45Z</time>
			</trkpt>
		
			<trkpt lat="45.228410" lon="1.702810">
			 <ele>269</ele>
			<time>2016-06-05T03:07:45Z</time>
			</trkpt>
		
			<trkpt lat="45.228390" lon="1.702850">
			 <ele>268</ele>
			<time>2016-06-05T03:09:45Z</time>
			</trkpt>
		
			<trkpt lat="45.228330" lon="1.703000">
			 <ele>267</ele>
			<time>2016-06-05T03:11:45Z</time>
			</trkpt>
		
			<trkpt lat="45.228280" lon="1.703170">
			 <ele>267</ele>
			<time>2016-06-05T03:13:45Z</time>
			</trkpt>
		
			<trkpt lat="45.228250" lon="1.703300">
			 <ele>267</ele>
			<time>2016-06-05T03:15:45Z</time>
			</trkpt>
		
			<trkpt lat="45.228240" lon="1.703400">
			 <ele>267</ele>
			<time>2016-06-05T03:17:45Z</time>
			</trkpt>
		
			<trkpt lat="45.228240" lon="1.703530">
			 <ele>266</ele>
			<time>2016-06-05T03:19:45Z</time>
			</trkpt>
		
			<trkpt lat="45.228240" lon="1.703620">
			 <ele>266</ele>
			<time>2016-06-05T03:21:45Z</time>
			</trkpt>
		
			<trkpt lat="45.228260" lon="1.703730">
			 <ele>266</ele>
			<time>2016-06-05T03:23:45Z</time>
			</trkpt>
		
			<trkpt lat="45.228300" lon="1.703930">
			 <ele>265</ele>
			<time>2016-06-05T03:25:45Z</time>
			</trkpt>
		
			<trkpt lat="45.228370" lon="1.704110">
			 <ele>266</ele>
			<time>2016-06-05T03:27:45Z</time>
			</trkpt>
		
			<trkpt lat="45.228450" lon="1.704290">
			 <ele>267</ele>
			<time>2016-06-05T03:29:45Z</time>
			</trkpt>
		
			<trkpt lat="45.228520" lon="1.704420">
			 <ele>268</ele>
			<time>2016-06-05T03:31:45Z</time>
			</trkpt>
		
			<trkpt lat="45.228530" lon="1.704430">
			 <ele>268</ele>
			<time>2016-06-05T03:33:45Z</time>
			</trkpt>
		
			<trkpt lat="45.228630" lon="1.704570">
			 <ele>269</ele>
			<time>2016-06-05T03:35:45Z</time>
			</trkpt>
		
			<trkpt lat="45.228800" lon="1.704740">
			 <ele>272</ele>
			<time>2016-06-05T03:37:45Z</time>
			</trkpt>
		
			<trkpt lat="45.228970" lon="1.704910">
			 <ele>275</ele>
			<time>2016-06-05T03:39:45Z</time>
			</trkpt>
		
			<trkpt lat="45.229170" lon="1.705100">
			 <ele>278</ele>
			<time>2016-06-05T03:41:45Z</time>
			</trkpt>
		
			<trkpt lat="45.229360" lon="1.705280">
			 <ele>281</ele>
			<time>2016-06-05T03:43:45Z</time>
			</trkpt>
		
			<trkpt lat="45.229530" lon="1.705430">
			 <ele>283</ele>
			<time>2016-06-05T03:45:45Z</time>
			</trkpt>
		
			<trkpt lat="45.229660" lon="1.705540">
			 <ele>284</ele>
			<time>2016-06-05T03:47:45Z</time>
			</trkpt>
		
			<trkpt lat="45.229790" lon="1.705600">
			 <ele>287</ele>
			<time>2016-06-05T03:49:45Z</time>
			</trkpt>
		
			<trkpt lat="45.229920" lon="1.705660">
			 <ele>289</ele>
			<time>2016-06-05T03:51:45Z</time>
			</trkpt>
		
			<trkpt lat="45.230040" lon="1.705720">
			 <ele>290</ele>
			<time>2016-06-05T03:53:45Z</time>
			</trkpt>
		
			<trkpt lat="45.230100" lon="1.705780">
			 <ele>290</ele>
			<time>2016-06-05T03:55:45Z</time>
			</trkpt>
		
			<trkpt lat="45.230150" lon="1.705850">
			 <ele>290</ele>
			<time>2016-06-05T03:57:45Z</time>
			</trkpt>
		
			<trkpt lat="45.230190" lon="1.705940">
			 <ele>290</ele>
			<time>2016-06-05T03:59:45Z</time>
			</trkpt>
		
			<trkpt lat="45.230220" lon="1.706050">
			 <ele>290</ele>
			<time>2016-06-05T04:01:45Z</time>
			</trkpt>
		
			<trkpt lat="45.230240" lon="1.706160">
			 <ele>290</ele>
			<time>2016-06-05T04:03:45Z</time>
			</trkpt>
		
			<trkpt lat="45.230240" lon="1.706250">
			 <ele>290</ele>
			<time>2016-06-05T04:05:45Z</time>
			</trkpt>
		
			<trkpt lat="45.230240" lon="1.706410">
			 <ele>290</ele>
			<time>2016-06-05T04:07:45Z</time>
			</trkpt>
		
			<trkpt lat="45.230230" lon="1.706560">
			 <ele>289</ele>
			<time>2016-06-05T04:09:45Z</time>
			</trkpt>
		
			<trkpt lat="45.230230" lon="1.706710">
			 <ele>288</ele>
			<time>2016-06-05T04:11:45Z</time>
			</trkpt>
		
			<trkpt lat="45.230260" lon="1.706810">
			 <ele>287</ele>
			<time>2016-06-05T04:13:45Z</time>
			</trkpt>
		
			<trkpt lat="45.230290" lon="1.706880">
			 <ele>286</ele>
			<time>2016-06-05T04:15:45Z</time>
			</trkpt>
		
			<trkpt lat="45.230330" lon="1.706930">
			 <ele>286</ele>
			<time>2016-06-05T04:17:45Z</time>
			</trkpt>
		
			<trkpt lat="45.230390" lon="1.706970">
			 <ele>286</ele>
			<time>2016-06-05T04:19:45Z</time>
			</trkpt>
		
			<trkpt lat="45.230460" lon="1.707000">
			 <ele>287</ele>
			<time>2016-06-05T04:21:45Z</time>
			</trkpt>
		
			<trkpt lat="45.230560" lon="1.707010">
			 <ele>288</ele>
			<time>2016-06-05T04:23:45Z</time>
			</trkpt>
		
			<trkpt lat="45.230680" lon="1.707010">
			 <ele>290</ele>
			<time>2016-06-05T04:25:45Z</time>
			</trkpt>
		
			<trkpt lat="45.230760" lon="1.707000">
			 <ele>291</ele>
			<time>2016-06-05T04:27:45Z</time>
			</trkpt>
		
			<trkpt lat="45.230910" lon="1.706970">
			 <ele>293</ele>
			<time>2016-06-05T04:29:45Z</time>
			</trkpt>
		
			<trkpt lat="45.231070" lon="1.706930">
			 <ele>295</ele>
			<time>2016-06-05T04:31:45Z</time>
			</trkpt>
		
			<trkpt lat="45.231210" lon="1.706900">
			 <ele>297</ele>
			<time>2016-06-05T04:33:45Z</time>
			</trkpt>
		
			<trkpt lat="45.231360" lon="1.706860">
			 <ele>299</ele>
			<time>2016-06-05T04:35:45Z</time>
			</trkpt>
		
			<trkpt lat="45.231500" lon="1.706830">
			 <ele>300</ele>
			<time>2016-06-05T04:37:45Z</time>
			</trkpt>
		
			<trkpt lat="45.231610" lon="1.706770">
			 <ele>302</ele>
			<time>2016-06-05T04:39:45Z</time>
			</trkpt>
		
			<trkpt lat="45.231700" lon="1.706700">
			 <ele>304</ele>
			<time>2016-06-05T04:41:45Z</time>
			</trkpt>
		
			<trkpt lat="45.231770" lon="1.706610">
			 <ele>304</ele>
			<time>2016-06-05T04:43:45Z</time>
			</trkpt>
		
			<trkpt lat="45.231830" lon="1.706490">
			 <ele>305</ele>
			<time>2016-06-05T04:45:45Z</time>
			</trkpt>
		
			<trkpt lat="45.231910" lon="1.706320">
			 <ele>307</ele>
			<time>2016-06-05T04:47:45Z</time>
			</trkpt>
		
			<trkpt lat="45.231980" lon="1.706130">
			 <ele>311</ele>
			<time>2016-06-05T04:49:45Z</time>
			</trkpt>
		
			<trkpt lat="45.232040" lon="1.706020">
			 <ele>313</ele>
			<time>2016-06-05T04:51:45Z</time>
			</trkpt>
		
			<trkpt lat="45.232080" lon="1.705950">
			 <ele>314</ele>
			<time>2016-06-05T04:53:45Z</time>
			</trkpt>
		
			<trkpt lat="45.232130" lon="1.705900">
			 <ele>315</ele>
			<time>2016-06-05T04:55:45Z</time>
			</trkpt>
		
			<trkpt lat="45.232190" lon="1.705870">
			 <ele>316</ele>
			<time>2016-06-05T04:57:45Z</time>
			</trkpt>
		
			<trkpt lat="45.232270" lon="1.705850">
			 <ele>316</ele>
			<time>2016-06-05T04:59:45Z</time>
			</trkpt>
		
			<trkpt lat="45.232400" lon="1.705840">
			 <ele>317</ele>
			<time>2016-06-05T05:01:45Z</time>
			</trkpt>
		
			<trkpt lat="45.232540" lon="1.705820">
			 <ele>317</ele>
			<time>2016-06-05T05:03:45Z</time>
			</trkpt>
		
			<trkpt lat="45.232570" lon="1.705820">
			 <ele>317</ele>
			<time>2016-06-05T05:05:45Z</time>
			</trkpt>
		
			<trkpt lat="45.232640" lon="1.705800">
			 <ele>317</ele>
			<time>2016-06-05T05:07:45Z</time>
			</trkpt>
		
			<trkpt lat="45.232800" lon="1.705730">
			 <ele>317</ele>
			<time>2016-06-05T05:09:45Z</time>
			</trkpt>
		
			<trkpt lat="45.232970" lon="1.705630">
			 <ele>318</ele>
			<time>2016-06-05T05:11:45Z</time>
			</trkpt>
		
			<trkpt lat="45.233120" lon="1.705490">
			 <ele>319</ele>
			<time>2016-06-05T05:13:45Z</time>
			</trkpt>
		
			<trkpt lat="45.233310" lon="1.705310">
			 <ele>322</ele>
			<time>2016-06-05T05:15:45Z</time>
			</trkpt>
		
			<trkpt lat="45.233450" lon="1.705160">
			 <ele>323</ele>
			<time>2016-06-05T05:17:45Z</time>
			</trkpt>
		
			<trkpt lat="45.233580" lon="1.704980">
			 <ele>324</ele>
			<time>2016-06-05T05:19:45Z</time>
			</trkpt>
		
			<trkpt lat="45.233740" lon="1.704710">
			 <ele>326</ele>
			<time>2016-06-05T05:21:45Z</time>
			</trkpt>
		
			<trkpt lat="45.233800" lon="1.704590">
			 <ele>327</ele>
			<time>2016-06-05T05:23:45Z</time>
			</trkpt>
		
			<trkpt lat="45.233830" lon="1.704470">
			 <ele>328</ele>
			<time>2016-06-05T05:25:45Z</time>
			</trkpt>
		
			<trkpt lat="45.233860" lon="1.704290">
			 <ele>330</ele>
			<time>2016-06-05T05:27:45Z</time>
			</trkpt>
		
			<trkpt lat="45.233860" lon="1.704110">
			 <ele>332</ele>
			<time>2016-06-05T05:29:45Z</time>
			</trkpt>
		
			<trkpt lat="45.233850" lon="1.703820">
			 <ele>334</ele>
			<time>2016-06-05T05:31:45Z</time>
			</trkpt>
		
			<trkpt lat="45.233850" lon="1.703570">
			 <ele>335</ele>
			<time>2016-06-05T05:33:45Z</time>
			</trkpt>
		
			<trkpt lat="45.233860" lon="1.703400">
			 <ele>335</ele>
			<time>2016-06-05T05:35:45Z</time>
			</trkpt>
		
			<trkpt lat="45.233890" lon="1.703220">
			 <ele>335</ele>
			<time>2016-06-05T05:37:45Z</time>
			</trkpt>
		
			<trkpt lat="45.233910" lon="1.703110">
			 <ele>335</ele>
			<time>2016-06-05T05:39:45Z</time>
			</trkpt>
		
			<trkpt lat="45.233910" lon="1.703020">
			 <ele>335</ele>
			<time>2016-06-05T05:41:45Z</time>
			</trkpt>
		
			<trkpt lat="45.233900" lon="1.702940">
			 <ele>335</ele>
			<time>2016-06-05T05:43:45Z</time>
			</trkpt>
		
			<trkpt lat="45.233860" lon="1.702840">
			 <ele>336</ele>
			<time>2016-06-05T05:45:45Z</time>
			</trkpt>
		
			<trkpt lat="45.233800" lon="1.702710">
			 <ele>337</ele>
			<time>2016-06-05T05:47:45Z</time>
			</trkpt>
		
			<trkpt lat="45.233700" lon="1.702560">
			 <ele>338</ele>
			<time>2016-06-05T05:49:45Z</time>
			</trkpt>
		
			<trkpt lat="45.233630" lon="1.702450">
			 <ele>339</ele>
			<time>2016-06-05T05:51:45Z</time>
			</trkpt>
		
			<trkpt lat="45.233610" lon="1.702400">
			 <ele>339</ele>
			<time>2016-06-05T05:53:45Z</time>
			</trkpt>
		
			<trkpt lat="45.233580" lon="1.702340">
			 <ele>340</ele>
			<time>2016-06-05T05:55:45Z</time>
			</trkpt>
		
			<trkpt lat="45.233560" lon="1.702260">
			 <ele>340</ele>
			<time>2016-06-05T05:57:45Z</time>
			</trkpt>
		
			<trkpt lat="45.233550" lon="1.702190">
			 <ele>340</ele>
			<time>2016-06-05T05:59:45Z</time>
			</trkpt>
		
			<trkpt lat="45.233550" lon="1.702090">
			 <ele>340</ele>
			<time>2016-06-05T06:01:45Z</time>
			</trkpt>
		
			<trkpt lat="45.233600" lon="1.701830">
			 <ele>340</ele>
			<time>2016-06-05T06:03:45Z</time>
			</trkpt>
		
			<trkpt lat="45.233710" lon="1.701440">
			 <ele>341</ele>
			<time>2016-06-05T06:05:45Z</time>
			</trkpt>
		
			<trkpt lat="45.233850" lon="1.700900">
			 <ele>345</ele>
			<time>2016-06-05T06:07:45Z</time>
			</trkpt>
		
			<trkpt lat="45.233910" lon="1.700640">
			 <ele>346</ele>
			<time>2016-06-05T06:09:45Z</time>
			</trkpt>
		
			<trkpt lat="45.233930" lon="1.700550">
			 <ele>347</ele>
			<time>2016-06-05T06:11:45Z</time>
			</trkpt>
		
			<trkpt lat="45.233950" lon="1.700480">
			 <ele>347</ele>
			<time>2016-06-05T06:13:45Z</time>
			</trkpt>
		
			<trkpt lat="45.233950" lon="1.700400">
			 <ele>347</ele>
			<time>2016-06-05T06:15:45Z</time>
			</trkpt>
		
			<trkpt lat="45.233940" lon="1.700290">
			 <ele>348</ele>
			<time>2016-06-05T06:17:45Z</time>
			</trkpt>
		
			<trkpt lat="45.233930" lon="1.700200">
			 <ele>348</ele>
			<time>2016-06-05T06:19:45Z</time>
			</trkpt>
		
			<trkpt lat="45.233900" lon="1.700080">
			 <ele>349</ele>
			<time>2016-06-05T06:21:45Z</time>
			</trkpt>
		
			<trkpt lat="45.233880" lon="1.699970">
			 <ele>349</ele>
			<time>2016-06-05T06:23:45Z</time>
			</trkpt>
		
			<trkpt lat="45.233870" lon="1.699870">
			 <ele>350</ele>
			<time>2016-06-05T06:25:45Z</time>
			</trkpt>
		
			<trkpt lat="45.233860" lon="1.699740">
			 <ele>350</ele>
			<time>2016-06-05T06:27:45Z</time>
			</trkpt>
		
			<trkpt lat="45.233860" lon="1.699610">
			 <ele>351</ele>
			<time>2016-06-05T06:29:45Z</time>
			</trkpt>
		
			<trkpt lat="45.233890" lon="1.699450">
			 <ele>352</ele>
			<time>2016-06-05T06:31:45Z</time>
			</trkpt>
		
			<trkpt lat="45.233920" lon="1.699310">
			 <ele>352</ele>
			<time>2016-06-05T06:33:45Z</time>
			</trkpt>
		
			<trkpt lat="45.233950" lon="1.699160">
			 <ele>353</ele>
			<time>2016-06-05T06:35:45Z</time>
			</trkpt>
		
			<trkpt lat="45.233990" lon="1.698840">
			 <ele>355</ele>
			<time>2016-06-05T06:37:45Z</time>
			</trkpt>
		
			<trkpt lat="45.234000" lon="1.698650">
			 <ele>356</ele>
			<time>2016-06-05T06:39:45Z</time>
			</trkpt>
		
			<trkpt lat="45.234000" lon="1.698560">
			 <ele>356</ele>
			<time>2016-06-05T06:41:45Z</time>
			</trkpt>
		
			<trkpt lat="45.233990" lon="1.698460">
			 <ele>357</ele>
			<time>2016-06-05T06:43:45Z</time>
			</trkpt>
		
			<trkpt lat="45.233960" lon="1.698410">
			 <ele>357</ele>
			<time>2016-06-05T06:45:45Z</time>
			</trkpt>
		
			<trkpt lat="45.233890" lon="1.698360">
			 <ele>356</ele>
			<time>2016-06-05T06:47:45Z</time>
			</trkpt>
		
			<trkpt lat="45.233820" lon="1.698300">
			 <ele>356</ele>
			<time>2016-06-05T06:49:45Z</time>
			</trkpt>
		
			<trkpt lat="45.233790" lon="1.698270">
			 <ele>355</ele>
			<time>2016-06-05T06:51:45Z</time>
			</trkpt>
		
			<trkpt lat="45.233760" lon="1.698220">
			 <ele>355</ele>
			<time>2016-06-05T06:53:45Z</time>
			</trkpt>
		
			<trkpt lat="45.233750" lon="1.698150">
			 <ele>355</ele>
			<time>2016-06-05T06:55:45Z</time>
			</trkpt>
		
			<trkpt lat="45.233770" lon="1.697990">
			 <ele>356</ele>
			<time>2016-06-05T06:57:45Z</time>
			</trkpt>
		
			<trkpt lat="45.233770" lon="1.697970">
			 <ele>356</ele>
			<time>2016-06-05T06:59:45Z</time>
			</trkpt>
		
			<trkpt lat="45.233820" lon="1.697760">
			 <ele>357</ele>
			<time>2016-06-05T07:01:45Z</time>
			</trkpt>
		
			<trkpt lat="45.233870" lon="1.697370">
			 <ele>357</ele>
			<time>2016-06-05T07:03:45Z</time>
			</trkpt>
		
			<trkpt lat="45.233870" lon="1.697370">
			 <ele>357</ele>
			<time>2016-06-05T07:05:45Z</time>
			</trkpt>
		
			<trkpt lat="45.234040" lon="1.697360">
			 <ele>358</ele>
			<time>2016-06-05T07:07:45Z</time>
			</trkpt>
		
			<trkpt lat="45.234050" lon="1.697360">
			 <ele>358</ele>
			<time>2016-06-05T07:09:45Z</time>
			</trkpt>
		
			<trkpt lat="45.234260" lon="1.697360">
			 <ele>360</ele>
			<time>2016-06-05T07:11:45Z</time>
			</trkpt>
		
			<trkpt lat="45.234350" lon="1.697360">
			 <ele>361</ele>
			<time>2016-06-05T07:13:45Z</time>
			</trkpt>
		
			<trkpt lat="45.234730" lon="1.697360">
			 <ele>364</ele>
			<time>2016-06-05T07:15:45Z</time>
			</trkpt>
		
			<trkpt lat="45.235050" lon="1.697360">
			 <ele>366</ele>
			<time>2016-06-05T07:17:45Z</time>
			</trkpt>
		
			<trkpt lat="45.235290" lon="1.697360">
			 <ele>369</ele>
			<time>2016-06-05T07:19:45Z</time>
			</trkpt>
		
			<trkpt lat="45.235460" lon="1.697350">
			 <ele>371</ele>
			<time>2016-06-05T07:21:45Z</time>
			</trkpt>
		
			<trkpt lat="45.235600" lon="1.697310">
			 <ele>373</ele>
			<time>2016-06-05T07:23:45Z</time>
			</trkpt>
		
			<trkpt lat="45.235800" lon="1.697200">
			 <ele>375</ele>
			<time>2016-06-05T07:25:45Z</time>
			</trkpt>
		
			<trkpt lat="45.236170" lon="1.696930">
			 <ele>375</ele>
			<time>2016-06-05T07:27:45Z</time>
			</trkpt>
		
			<trkpt lat="45.236310" lon="1.696820">
			 <ele>376</ele>
			<time>2016-06-05T07:29:45Z</time>
			</trkpt>
		
			<trkpt lat="45.236340" lon="1.696790">
			 <ele>376</ele>
			<time>2016-06-05T07:31:45Z</time>
			</trkpt>
		
			<trkpt lat="45.236380" lon="1.696750">
			 <ele>376</ele>
			<time>2016-06-05T07:33:45Z</time>
			</trkpt>
		
			<trkpt lat="45.236460" lon="1.696650">
			 <ele>376</ele>
			<time>2016-06-05T07:35:45Z</time>
			</trkpt>
		
			<trkpt lat="45.236550" lon="1.696490">
			 <ele>377</ele>
			<time>2016-06-05T07:37:45Z</time>
			</trkpt>
		
			<trkpt lat="45.236770" lon="1.696040">
			 <ele>378</ele>
			<time>2016-06-05T07:39:45Z</time>
			</trkpt>
		
			<trkpt lat="45.236970" lon="1.695610">
			 <ele>381</ele>
			<time>2016-06-05T07:41:45Z</time>
			</trkpt>
		
			<trkpt lat="45.237010" lon="1.695530">
			 <ele>382</ele>
			<time>2016-06-05T07:43:45Z</time>
			</trkpt>
		
			<trkpt lat="45.237050" lon="1.695470">
			 <ele>383</ele>
			<time>2016-06-05T07:45:45Z</time>
			</trkpt>
		
			<trkpt lat="45.237130" lon="1.695400">
			 <ele>384</ele>
			<time>2016-06-05T07:47:45Z</time>
			</trkpt>
		
			<trkpt lat="45.237140" lon="1.695390">
			 <ele>384</ele>
			<time>2016-06-05T07:49:45Z</time>
			</trkpt>
		
			<trkpt lat="45.237450" lon="1.695240">
			 <ele>388</ele>
			<time>2016-06-05T07:51:45Z</time>
			</trkpt>
		
			<trkpt lat="45.237750" lon="1.695070">
			 <ele>389</ele>
			<time>2016-06-05T07:53:45Z</time>
			</trkpt>
		
			<trkpt lat="45.237930" lon="1.694970">
			 <ele>389</ele>
			<time>2016-06-05T07:55:45Z</time>
			</trkpt>
		
			<trkpt lat="45.238060" lon="1.694910">
			 <ele>389</ele>
			<time>2016-06-05T07:57:45Z</time>
			</trkpt>
		
			<trkpt lat="45.238280" lon="1.694830">
			 <ele>389</ele>
			<time>2016-06-05T07:59:45Z</time>
			</trkpt>
		
			<trkpt lat="45.238500" lon="1.694750">
			 <ele>390</ele>
			<time>2016-06-05T08:01:45Z</time>
			</trkpt>
		
			<trkpt lat="45.238850" lon="1.694630">
			 <ele>393</ele>
			<time>2016-06-05T08:03:45Z</time>
			</trkpt>
		
			<trkpt lat="45.239120" lon="1.694530">
			 <ele>395</ele>
			<time>2016-06-05T08:05:45Z</time>
			</trkpt>
		
			<trkpt lat="45.239150" lon="1.694520">
			 <ele>395</ele>
			<time>2016-06-05T08:07:45Z</time>
			</trkpt>
		
			<trkpt lat="45.239340" lon="1.694420">
			 <ele>396</ele>
			<time>2016-06-05T08:09:45Z</time>
			</trkpt>
		
			<trkpt lat="45.239370" lon="1.694400">
			 <ele>397</ele>
			<time>2016-06-05T08:11:45Z</time>
			</trkpt>
		
			<trkpt lat="45.239500" lon="1.694340">
			 <ele>397</ele>
			<time>2016-06-05T08:13:45Z</time>
			</trkpt>
		
			<trkpt lat="45.239670" lon="1.694240">
			 <ele>397</ele>
			<time>2016-06-05T08:15:45Z</time>
			</trkpt>
		
			<trkpt lat="45.239940" lon="1.694100">
			 <ele>398</ele>
			<time>2016-06-05T08:17:45Z</time>
			</trkpt>
		
			<trkpt lat="45.240190" lon="1.693960">
			 <ele>397</ele>
			<time>2016-06-05T08:19:45Z</time>
			</trkpt>
		
			<trkpt lat="45.240420" lon="1.693820">
			 <ele>395</ele>
			<time>2016-06-05T08:21:45Z</time>
			</trkpt>
		
			<trkpt lat="45.240600" lon="1.693690">
			 <ele>394</ele>
			<time>2016-06-05T08:23:45Z</time>
			</trkpt>
		
			<trkpt lat="45.240750" lon="1.693600">
			 <ele>392</ele>
			<time>2016-06-05T08:25:45Z</time>
			</trkpt>
		
			<trkpt lat="45.241020" lon="1.693350">
			 <ele>390</ele>
			<time>2016-06-05T08:27:45Z</time>
			</trkpt>
		
			<trkpt lat="45.241280" lon="1.693090">
			 <ele>390</ele>
			<time>2016-06-05T08:29:45Z</time>
			</trkpt>
		
			<trkpt lat="45.241520" lon="1.692840">
			 <ele>390</ele>
			<time>2016-06-05T08:31:45Z</time>
			</trkpt>
		
			<trkpt lat="45.241720" lon="1.692600">
			 <ele>390</ele>
			<time>2016-06-05T08:33:45Z</time>
			</trkpt>
		
			<trkpt lat="45.242010" lon="1.692170">
			 <ele>392</ele>
			<time>2016-06-05T08:35:45Z</time>
			</trkpt>
		
			<trkpt lat="45.242120" lon="1.692010">
			 <ele>393</ele>
			<time>2016-06-05T08:37:45Z</time>
			</trkpt>
		
			<trkpt lat="45.242230" lon="1.691820">
			 <ele>394</ele>
			<time>2016-06-05T08:39:45Z</time>
			</trkpt>
		
			<trkpt lat="45.242320" lon="1.691610">
			 <ele>394</ele>
			<time>2016-06-05T08:41:45Z</time>
			</trkpt>
		
			<trkpt lat="45.242430" lon="1.691450">
			 <ele>394</ele>
			<time>2016-06-05T08:43:45Z</time>
			</trkpt>
		
			<trkpt lat="45.242510" lon="1.691340">
			 <ele>394</ele>
			<time>2016-06-05T08:45:45Z</time>
			</trkpt>
		
			<trkpt lat="45.242600" lon="1.691250">
			 <ele>393</ele>
			<time>2016-06-05T08:47:45Z</time>
			</trkpt>
		
			<trkpt lat="45.242780" lon="1.691130">
			 <ele>393</ele>
			<time>2016-06-05T08:49:45Z</time>
			</trkpt>
		
			<trkpt lat="45.243370" lon="1.690790">
			 <ele>393</ele>
			<time>2016-06-05T08:51:45Z</time>
			</trkpt>
		
			<trkpt lat="45.243800" lon="1.690550">
			 <ele>393</ele>
			<time>2016-06-05T08:53:45Z</time>
			</trkpt>
		
			<trkpt lat="45.244090" lon="1.690360">
			 <ele>393</ele>
			<time>2016-06-05T08:55:45Z</time>
			</trkpt>
		
			<trkpt lat="45.244170" lon="1.690310">
			 <ele>393</ele>
			<time>2016-06-05T08:57:45Z</time>
			</trkpt>
		
			<trkpt lat="45.244260" lon="1.690250">
			 <ele>393</ele>
			<time>2016-06-05T08:59:45Z</time>
			</trkpt>
		
			<trkpt lat="45.244420" lon="1.690170">
			 <ele>392</ele>
			<time>2016-06-05T09:01:45Z</time>
			</trkpt>
		
			<trkpt lat="45.244700" lon="1.690070">
			 <ele>392</ele>
			<time>2016-06-05T09:03:45Z</time>
			</trkpt>
		
			<trkpt lat="45.244730" lon="1.690060">
			 <ele>392</ele>
			<time>2016-06-05T09:05:45Z</time>
			</trkpt>
		
			<trkpt lat="45.245010" lon="1.689960">
			 <ele>392</ele>
			<time>2016-06-05T09:07:45Z</time>
			</trkpt>
		
			<trkpt lat="45.245180" lon="1.689880">
			 <ele>391</ele>
			<time>2016-06-05T09:09:45Z</time>
			</trkpt>
		
			<trkpt lat="45.245200" lon="1.689870">
			 <ele>391</ele>
			<time>2016-06-05T09:11:45Z</time>
			</trkpt>
		
			<trkpt lat="45.245300" lon="1.689820">
			 <ele>390</ele>
			<time>2016-06-05T09:13:45Z</time>
			</trkpt>
		
			<trkpt lat="45.245310" lon="1.689810">
			 <ele>390</ele>
			<time>2016-06-05T09:15:45Z</time>
			</trkpt>
		
			<trkpt lat="45.245390" lon="1.689730">
			 <ele>390</ele>
			<time>2016-06-05T09:17:45Z</time>
			</trkpt>
		
			<trkpt lat="45.245460" lon="1.689660">
			 <ele>389</ele>
			<time>2016-06-05T09:19:45Z</time>
			</trkpt>
		
			<trkpt lat="45.245530" lon="1.689560">
			 <ele>388</ele>
			<time>2016-06-05T09:21:45Z</time>
			</trkpt>
		
			<trkpt lat="45.245590" lon="1.689440">
			 <ele>388</ele>
			<time>2016-06-05T09:23:45Z</time>
			</trkpt>
		
			<trkpt lat="45.245640" lon="1.689280">
			 <ele>387</ele>
			<time>2016-06-05T09:25:45Z</time>
			</trkpt>
		
			<trkpt lat="45.245730" lon="1.689000">
			 <ele>386</ele>
			<time>2016-06-05T09:27:45Z</time>
			</trkpt>
		
			<trkpt lat="45.245810" lon="1.688710">
			 <ele>385</ele>
			<time>2016-06-05T09:29:45Z</time>
			</trkpt>
		
			<trkpt lat="45.245820" lon="1.688690">
			 <ele>385</ele>
			<time>2016-06-05T09:31:45Z</time>
			</trkpt>
		
			<trkpt lat="45.245910" lon="1.688370">
			 <ele>385</ele>
			<time>2016-06-05T09:33:45Z</time>
			</trkpt>
		
			<trkpt lat="45.246000" lon="1.688140">
			 <ele>385</ele>
			<time>2016-06-05T09:35:45Z</time>
			</trkpt>
		
			<trkpt lat="45.246020" lon="1.688100">
			 <ele>385</ele>
			<time>2016-06-05T09:37:45Z</time>
			</trkpt>
		
			<trkpt lat="45.246170" lon="1.687770">
			 <ele>384</ele>
			<time>2016-06-05T09:39:45Z</time>
			</trkpt>
		
			<trkpt lat="45.246390" lon="1.687400">
			 <ele>384</ele>
			<time>2016-06-05T09:41:45Z</time>
			</trkpt>
		
			<trkpt lat="45.246610" lon="1.687050">
			 <ele>384</ele>
			<time>2016-06-05T09:43:45Z</time>
			</trkpt>
		
			<trkpt lat="45.246740" lon="1.686850">
			 <ele>384</ele>
			<time>2016-06-05T09:45:45Z</time>
			</trkpt>
		
			<trkpt lat="45.246880" lon="1.686650">
			 <ele>384</ele>
			<time>2016-06-05T09:47:45Z</time>
			</trkpt>
		
			<trkpt lat="45.247090" lon="1.686350">
			 <ele>385</ele>
			<time>2016-06-05T09:49:45Z</time>
			</trkpt>
		
			<trkpt lat="45.247200" lon="1.686170">
			 <ele>386</ele>
			<time>2016-06-05T09:51:45Z</time>
			</trkpt>
		
			<trkpt lat="45.247310" lon="1.685950">
			 <ele>387</ele>
			<time>2016-06-05T09:53:45Z</time>
			</trkpt>
		
			<trkpt lat="45.247390" lon="1.685760">
			 <ele>389</ele>
			<time>2016-06-05T09:55:45Z</time>
			</trkpt>
		
			<trkpt lat="45.247430" lon="1.685680">
			 <ele>390</ele>
			<time>2016-06-05T09:57:45Z</time>
			</trkpt>
		
			<trkpt lat="45.247480" lon="1.685620">
			 <ele>391</ele>
			<time>2016-06-05T09:59:45Z</time>
			</trkpt>
		
			<trkpt lat="45.247540" lon="1.685540">
			 <ele>392</ele>
			<time>2016-06-05T10:01:45Z</time>
			</trkpt>
		
			<trkpt lat="45.247580" lon="1.685490">
			 <ele>393</ele>
			<time>2016-06-05T10:03:45Z</time>
			</trkpt>
		
			<trkpt lat="45.247620" lon="1.685450">
			 <ele>394</ele>
			<time>2016-06-05T10:05:45Z</time>
			</trkpt>
		
			<trkpt lat="45.247800" lon="1.685330">
			 <ele>396</ele>
			<time>2016-06-05T10:07:45Z</time>
			</trkpt>
		
			<trkpt lat="45.248050" lon="1.685200">
			 <ele>399</ele>
			<time>2016-06-05T10:09:45Z</time>
			</trkpt>
		
			<trkpt lat="45.248290" lon="1.685030">
			 <ele>403</ele>
			<time>2016-06-05T10:11:45Z</time>
			</trkpt>
		
			<trkpt lat="45.248510" lon="1.684810">
			 <ele>405</ele>
			<time>2016-06-05T10:13:45Z</time>
			</trkpt>
		
			<trkpt lat="45.248750" lon="1.684580">
			 <ele>406</ele>
			<time>2016-06-05T10:15:45Z</time>
			</trkpt>
		
			<trkpt lat="45.248930" lon="1.684420">
			 <ele>405</ele>
			<time>2016-06-05T10:17:45Z</time>
			</trkpt>
		
			<trkpt lat="45.249100" lon="1.684260">
			 <ele>404</ele>
			<time>2016-06-05T10:19:45Z</time>
			</trkpt>
		
			<trkpt lat="45.249200" lon="1.684160">
			 <ele>404</ele>
			<time>2016-06-05T10:21:45Z</time>
			</trkpt>
		
			<trkpt lat="45.249280" lon="1.684080">
			 <ele>404</ele>
			<time>2016-06-05T10:23:45Z</time>
			</trkpt>
		
			<trkpt lat="45.249320" lon="1.684010">
			 <ele>405</ele>
			<time>2016-06-05T10:25:45Z</time>
			</trkpt>
		
			<trkpt lat="45.249350" lon="1.683930">
			 <ele>405</ele>
			<time>2016-06-05T10:27:45Z</time>
			</trkpt>
		
			<trkpt lat="45.249410" lon="1.683750">
			 <ele>406</ele>
			<time>2016-06-05T10:29:45Z</time>
			</trkpt>
		
			<trkpt lat="45.249430" lon="1.683660">
			 <ele>406</ele>
			<time>2016-06-05T10:31:45Z</time>
			</trkpt>
		
			<trkpt lat="45.249510" lon="1.683400">
			 <ele>407</ele>
			<time>2016-06-05T10:33:45Z</time>
			</trkpt>
		
			<trkpt lat="45.249620" lon="1.683180">
			 <ele>408</ele>
			<time>2016-06-05T10:35:45Z</time>
			</trkpt>
		
			<trkpt lat="45.249750" lon="1.682940">
			 <ele>408</ele>
			<time>2016-06-05T10:37:45Z</time>
			</trkpt>
		
			<trkpt lat="45.249910" lon="1.682730">
			 <ele>407</ele>
			<time>2016-06-05T10:39:45Z</time>
			</trkpt>
		
			<trkpt lat="45.250070" lon="1.682560">
			 <ele>407</ele>
			<time>2016-06-05T10:41:45Z</time>
			</trkpt>
		
			<trkpt lat="45.250240" lon="1.682430">
			 <ele>407</ele>
			<time>2016-06-05T10:43:45Z</time>
			</trkpt>
		
			<trkpt lat="45.250480" lon="1.682310">
			 <ele>407</ele>
			<time>2016-06-05T10:45:45Z</time>
			</trkpt>
		
			<trkpt lat="45.250950" lon="1.682120">
			 <ele>409</ele>
			<time>2016-06-05T10:47:45Z</time>
			</trkpt>
		
			<trkpt lat="45.251120" lon="1.682030">
			 <ele>409</ele>
			<time>2016-06-05T10:49:45Z</time>
			</trkpt>
		
			<trkpt lat="45.251260" lon="1.681930">
			 <ele>410</ele>
			<time>2016-06-05T10:51:45Z</time>
			</trkpt>
		
			<trkpt lat="45.251400" lon="1.681820">
			 <ele>411</ele>
			<time>2016-06-05T10:53:45Z</time>
			</trkpt>
		
			<trkpt lat="45.252020" lon="1.681300">
			 <ele>418</ele>
			<time>2016-06-05T10:55:45Z</time>
			</trkpt>
		
			<trkpt lat="45.252170" lon="1.681190">
			 <ele>421</ele>
			<time>2016-06-05T10:57:45Z</time>
			</trkpt>
		
			<trkpt lat="45.252210" lon="1.681170">
			 <ele>421</ele>
			<time>2016-06-05T10:59:45Z</time>
			</trkpt>
		
			<trkpt lat="45.252260" lon="1.681160">
			 <ele>422</ele>
			<time>2016-06-05T11:01:45Z</time>
			</trkpt>
		
			<trkpt lat="45.252380" lon="1.681140">
			 <ele>424</ele>
			<time>2016-06-05T11:03:45Z</time>
			</trkpt>
		
			<trkpt lat="45.252620" lon="1.681140">
			 <ele>425</ele>
			<time>2016-06-05T11:05:45Z</time>
			</trkpt>
		
			<trkpt lat="45.252770" lon="1.681140">
			 <ele>425</ele>
			<time>2016-06-05T11:07:45Z</time>
			</trkpt>
		
			<trkpt lat="45.253230" lon="1.681030">
			 <ele>424</ele>
			<time>2016-06-05T11:09:45Z</time>
			</trkpt>
		
			<trkpt lat="45.253540" lon="1.680970">
			 <ele>424</ele>
			<time>2016-06-05T11:11:45Z</time>
			</trkpt>
		
			<trkpt lat="45.253650" lon="1.680960">
			 <ele>425</ele>
			<time>2016-06-05T11:13:45Z</time>
			</trkpt>
		
			<trkpt lat="45.253740" lon="1.680970">
			 <ele>424</ele>
			<time>2016-06-05T11:15:45Z</time>
			</trkpt>
		
			<trkpt lat="45.253870" lon="1.681010">
			 <ele>424</ele>
			<time>2016-06-05T11:17:45Z</time>
			</trkpt>
		
			<trkpt lat="45.254170" lon="1.681180">
			 <ele>423</ele>
			<time>2016-06-05T11:19:45Z</time>
			</trkpt>
		
			<trkpt lat="45.254480" lon="1.681350">
			 <ele>424</ele>
			<time>2016-06-05T11:21:45Z</time>
			</trkpt>
		
			<trkpt lat="45.254740" lon="1.681460">
			 <ele>425</ele>
			<time>2016-06-05T11:23:45Z</time>
			</trkpt>
		
			<trkpt lat="45.254920" lon="1.681500">
			 <ele>426</ele>
			<time>2016-06-05T11:25:45Z</time>
			</trkpt>
		
			<trkpt lat="45.255050" lon="1.681500">
			 <ele>427</ele>
			<time>2016-06-05T11:27:45Z</time>
			</trkpt>
		
			<trkpt lat="45.255130" lon="1.681490">
			 <ele>427</ele>
			<time>2016-06-05T11:29:45Z</time>
			</trkpt>
		
			<trkpt lat="45.255210" lon="1.681460">
			 <ele>428</ele>
			<time>2016-06-05T11:31:45Z</time>
			</trkpt>
		
			<trkpt lat="45.255300" lon="1.681380">
			 <ele>428</ele>
			<time>2016-06-05T11:33:45Z</time>
			</trkpt>
		
			<trkpt lat="45.255360" lon="1.681310">
			 <ele>429</ele>
			<time>2016-06-05T11:35:45Z</time>
			</trkpt>
		
			<trkpt lat="45.255510" lon="1.681080">
			 <ele>429</ele>
			<time>2016-06-05T11:37:45Z</time>
			</trkpt>
		
			<trkpt lat="45.255750" lon="1.680720">
			 <ele>429</ele>
			<time>2016-06-05T11:39:45Z</time>
			</trkpt>
		
			<trkpt lat="45.256300" lon="1.679860">
			 <ele>425</ele>
			<time>2016-06-05T11:41:45Z</time>
			</trkpt>
		
			<trkpt lat="45.256490" lon="1.679580">
			 <ele>423</ele>
			<time>2016-06-05T11:43:45Z</time>
			</trkpt>
		
			<trkpt lat="45.256580" lon="1.679460">
			 <ele>421</ele>
			<time>2016-06-05T11:45:45Z</time>
			</trkpt>
		
			<trkpt lat="45.256680" lon="1.679370">
			 <ele>420</ele>
			<time>2016-06-05T11:47:45Z</time>
			</trkpt>
		
			<trkpt lat="45.256760" lon="1.679300">
			 <ele>419</ele>
			<time>2016-06-05T11:49:45Z</time>
			</trkpt>
		
			<trkpt lat="45.256880" lon="1.679240">
			 <ele>419</ele>
			<time>2016-06-05T11:51:45Z</time>
			</trkpt>
		
			<trkpt lat="45.257130" lon="1.679140">
			 <ele>418</ele>
			<time>2016-06-05T11:53:45Z</time>
			</trkpt>
		
			<trkpt lat="45.257310" lon="1.679040">
			 <ele>418</ele>
			<time>2016-06-05T11:55:45Z</time>
			</trkpt>
		
			<trkpt lat="45.257490" lon="1.678920">
			 <ele>418</ele>
			<time>2016-06-05T11:57:45Z</time>
			</trkpt>
		
			<trkpt lat="45.257640" lon="1.678800">
			 <ele>418</ele>
			<time>2016-06-05T11:59:45Z</time>
			</trkpt>
		
			<trkpt lat="45.257720" lon="1.678710">
			 <ele>417</ele>
			<time>2016-06-05T12:01:45Z</time>
			</trkpt>
		
			<trkpt lat="45.257790" lon="1.678620">
			 <ele>417</ele>
			<time>2016-06-05T12:03:45Z</time>
			</trkpt>
		
			<trkpt lat="45.257890" lon="1.678460">
			 <ele>416</ele>
			<time>2016-06-05T12:05:45Z</time>
			</trkpt>
		
			<trkpt lat="45.257960" lon="1.678350">
			 <ele>416</ele>
			<time>2016-06-05T12:07:45Z</time>
			</trkpt>
		
			<trkpt lat="45.258100" lon="1.678120">
			 <ele>414</ele>
			<time>2016-06-05T12:09:45Z</time>
			</trkpt>
		
			<trkpt lat="45.258170" lon="1.678030">
			 <ele>414</ele>
			<time>2016-06-05T12:11:45Z</time>
			</trkpt>
		
			<trkpt lat="45.258240" lon="1.677960">
			 <ele>413</ele>
			<time>2016-06-05T12:13:45Z</time>
			</trkpt>
		
			<trkpt lat="45.258290" lon="1.677930">
			 <ele>413</ele>
			<time>2016-06-05T12:15:45Z</time>
			</trkpt>
		
			<trkpt lat="45.258420" lon="1.677850">
			 <ele>413</ele>
			<time>2016-06-05T12:17:45Z</time>
			</trkpt>
		
			<trkpt lat="45.258840" lon="1.677640">
			 <ele>413</ele>
			<time>2016-06-05T12:19:45Z</time>
			</trkpt>
		
			<trkpt lat="45.258850" lon="1.677640">
			 <ele>413</ele>
			<time>2016-06-05T12:21:45Z</time>
			</trkpt>
		
			<trkpt lat="45.258940" lon="1.677610">
			 <ele>413</ele>
			<time>2016-06-05T12:23:45Z</time>
			</trkpt>
		
			<trkpt lat="45.259030" lon="1.677610">
			 <ele>413</ele>
			<time>2016-06-05T12:25:45Z</time>
			</trkpt>
		
			<trkpt lat="45.259100" lon="1.677640">
			 <ele>414</ele>
			<time>2016-06-05T12:27:45Z</time>
			</trkpt>
		
			<trkpt lat="45.259180" lon="1.677690">
			 <ele>414</ele>
			<time>2016-06-05T12:29:45Z</time>
			</trkpt>
		
			<trkpt lat="45.259250" lon="1.677780">
			 <ele>413</ele>
			<time>2016-06-05T12:31:45Z</time>
			</trkpt>
		
			<trkpt lat="45.259530" lon="1.678240">
			 <ele>412</ele>
			<time>2016-06-05T12:33:45Z</time>
			</trkpt>
		
			<trkpt lat="45.260160" lon="1.679250">
			 <ele>408</ele>
			<time>2016-06-05T12:35:45Z</time>
			</trkpt>
		
			<trkpt lat="45.260310" lon="1.679450">
			 <ele>408</ele>
			<time>2016-06-05T12:37:45Z</time>
			</trkpt>
		
			<trkpt lat="45.260530" lon="1.679680">
			 <ele>407</ele>
			<time>2016-06-05T12:39:45Z</time>
			</trkpt>
		
			<trkpt lat="45.260560" lon="1.679710">
			 <ele>407</ele>
			<time>2016-06-05T12:41:45Z</time>
			</trkpt>
		
			<trkpt lat="45.260740" lon="1.679890">
			 <ele>407</ele>
			<time>2016-06-05T12:43:45Z</time>
			</trkpt>
		
			<trkpt lat="45.260870" lon="1.680060">
			 <ele>407</ele>
			<time>2016-06-05T12:45:45Z</time>
			</trkpt>
		
			<trkpt lat="45.261050" lon="1.680360">
			 <ele>408</ele>
			<time>2016-06-05T12:47:45Z</time>
			</trkpt>
		
			<trkpt lat="45.261210" lon="1.680570">
			 <ele>408</ele>
			<time>2016-06-05T12:49:45Z</time>
			</trkpt>
		
			<trkpt lat="45.261400" lon="1.680860">
			 <ele>408</ele>
			<time>2016-06-05T12:51:45Z</time>
			</trkpt>
		
			<trkpt lat="45.261500" lon="1.681080">
			 <ele>408</ele>
			<time>2016-06-05T12:53:45Z</time>
			</trkpt>
		
			<trkpt lat="45.261560" lon="1.681270">
			 <ele>409</ele>
			<time>2016-06-05T12:55:45Z</time>
			</trkpt>
		
			<trkpt lat="45.261600" lon="1.681500">
			 <ele>410</ele>
			<time>2016-06-05T12:57:45Z</time>
			</trkpt>
		
			<trkpt lat="45.261620" lon="1.681640">
			 <ele>411</ele>
			<time>2016-06-05T12:59:45Z</time>
			</trkpt>
		
			<trkpt lat="45.261650" lon="1.681740">
			 <ele>411</ele>
			<time>2016-06-05T13:01:45Z</time>
			</trkpt>
		
			<trkpt lat="45.261700" lon="1.681810">
			 <ele>412</ele>
			<time>2016-06-05T13:03:45Z</time>
			</trkpt>
		
			<trkpt lat="45.261740" lon="1.681850">
			 <ele>413</ele>
			<time>2016-06-05T13:05:45Z</time>
			</trkpt>
		
			<trkpt lat="45.261790" lon="1.681870">
			 <ele>413</ele>
			<time>2016-06-05T13:07:45Z</time>
			</trkpt>
		
			<trkpt lat="45.261870" lon="1.681880">
			 <ele>413</ele>
			<time>2016-06-05T13:09:45Z</time>
			</trkpt>
		
			<trkpt lat="45.261930" lon="1.681870">
			 <ele>413</ele>
			<time>2016-06-05T13:11:45Z</time>
			</trkpt>
		
			<trkpt lat="45.262000" lon="1.681830">
			 <ele>413</ele>
			<time>2016-06-05T13:13:45Z</time>
			</trkpt>
		
			<trkpt lat="45.262070" lon="1.681770">
			 <ele>412</ele>
			<time>2016-06-05T13:15:45Z</time>
			</trkpt>
		
			<trkpt lat="45.262120" lon="1.681670">
			 <ele>412</ele>
			<time>2016-06-05T13:17:45Z</time>
			</trkpt>
		
			<trkpt lat="45.262150" lon="1.681570">
			 <ele>412</ele>
			<time>2016-06-05T13:19:45Z</time>
			</trkpt>
		
			<trkpt lat="45.262210" lon="1.681340">
			 <ele>411</ele>
			<time>2016-06-05T13:21:45Z</time>
			</trkpt>
		
			<trkpt lat="45.262260" lon="1.681210">
			 <ele>411</ele>
			<time>2016-06-05T13:23:45Z</time>
			</trkpt>
		
			<trkpt lat="45.262310" lon="1.681090">
			 <ele>411</ele>
			<time>2016-06-05T13:25:45Z</time>
			</trkpt>
		
			<trkpt lat="45.262370" lon="1.681000">
			 <ele>411</ele>
			<time>2016-06-05T13:27:45Z</time>
			</trkpt>
		
			<trkpt lat="45.262420" lon="1.680930">
			 <ele>411</ele>
			<time>2016-06-05T13:29:45Z</time>
			</trkpt>
		
			<trkpt lat="45.262720" lon="1.680520">
			 <ele>413</ele>
			<time>2016-06-05T13:31:45Z</time>
			</trkpt>
		
			<trkpt lat="45.262840" lon="1.680320">
			 <ele>414</ele>
			<time>2016-06-05T13:33:45Z</time>
			</trkpt>
		
			<trkpt lat="45.262910" lon="1.680200">
			 <ele>414</ele>
			<time>2016-06-05T13:35:45Z</time>
			</trkpt>
		
			<trkpt lat="45.262940" lon="1.680090">
			 <ele>414</ele>
			<time>2016-06-05T13:37:45Z</time>
			</trkpt>
		
			<trkpt lat="45.262960" lon="1.679980">
			 <ele>415</ele>
			<time>2016-06-05T13:39:45Z</time>
			</trkpt>
		
			<trkpt lat="45.262960" lon="1.679850">
			 <ele>416</ele>
			<time>2016-06-05T13:41:45Z</time>
			</trkpt>
		
			<trkpt lat="45.262940" lon="1.679740">
			 <ele>416</ele>
			<time>2016-06-05T13:43:45Z</time>
			</trkpt>
		
			<trkpt lat="45.262930" lon="1.679680">
			 <ele>417</ele>
			<time>2016-06-05T13:45:45Z</time>
			</trkpt>
		
			<trkpt lat="45.262900" lon="1.679610">
			 <ele>417</ele>
			<time>2016-06-05T13:47:45Z</time>
			</trkpt>
		
			<trkpt lat="45.262700" lon="1.679240">
			 <ele>418</ele>
			<time>2016-06-05T13:49:45Z</time>
			</trkpt>
		
			<trkpt lat="45.262650" lon="1.679130">
			 <ele>418</ele>
			<time>2016-06-05T13:51:45Z</time>
			</trkpt>
		
			<trkpt lat="45.262620" lon="1.679010">
			 <ele>417</ele>
			<time>2016-06-05T13:53:45Z</time>
			</trkpt>
		
			<trkpt lat="45.262600" lon="1.678900">
			 <ele>417</ele>
			<time>2016-06-05T13:55:45Z</time>
			</trkpt>
		
			<trkpt lat="45.262610" lon="1.678780">
			 <ele>417</ele>
			<time>2016-06-05T13:57:45Z</time>
			</trkpt>
		
			<trkpt lat="45.262650" lon="1.678560">
			 <ele>418</ele>
			<time>2016-06-05T13:59:45Z</time>
			</trkpt>
		
			<trkpt lat="45.262820" lon="1.678060">
			 <ele>419</ele>
			<time>2016-06-05T14:01:45Z</time>
			</trkpt>
		
			<trkpt lat="45.262900" lon="1.677850">
			 <ele>419</ele>
			<time>2016-06-05T14:03:45Z</time>
			</trkpt>
		
			<trkpt lat="45.262970" lon="1.677700">
			 <ele>419</ele>
			<time>2016-06-05T14:05:45Z</time>
			</trkpt>
		
			<trkpt lat="45.263040" lon="1.677600">
			 <ele>420</ele>
			<time>2016-06-05T14:07:45Z</time>
			</trkpt>
		
			<trkpt lat="45.263040" lon="1.677590">
			 <ele>420</ele>
			<time>2016-06-05T14:09:45Z</time>
			</trkpt>
		
			<trkpt lat="45.263150" lon="1.677470">
			 <ele>422</ele>
			<time>2016-06-05T14:11:45Z</time>
			</trkpt>
		
			<trkpt lat="45.263230" lon="1.677390">
			 <ele>423</ele>
			<time>2016-06-05T14:13:45Z</time>
			</trkpt>
		
			<trkpt lat="45.263310" lon="1.677340">
			 <ele>424</ele>
			<time>2016-06-05T14:15:45Z</time>
			</trkpt>
		
			<trkpt lat="45.263350" lon="1.677310">
			 <ele>424</ele>
			<time>2016-06-05T14:17:45Z</time>
			</trkpt>
		
			<trkpt lat="45.263510" lon="1.677250">
			 <ele>425</ele>
			<time>2016-06-05T14:19:45Z</time>
			</trkpt>
		
			<trkpt lat="45.263780" lon="1.677170">
			 <ele>426</ele>
			<time>2016-06-05T14:21:45Z</time>
			</trkpt>
		
			<trkpt lat="45.263930" lon="1.677130">
			 <ele>427</ele>
			<time>2016-06-05T14:23:45Z</time>
			</trkpt>
		
			<trkpt lat="45.264000" lon="1.677090">
			 <ele>428</ele>
			<time>2016-06-05T14:25:45Z</time>
			</trkpt>
		
			<trkpt lat="45.264010" lon="1.677080">
			 <ele>428</ele>
			<time>2016-06-05T14:27:45Z</time>
			</trkpt>
		
			<trkpt lat="45.264080" lon="1.677020">
			 <ele>428</ele>
			<time>2016-06-05T14:29:45Z</time>
			</trkpt>
		
			<trkpt lat="45.264090" lon="1.677000">
			 <ele>428</ele>
			<time>2016-06-05T14:31:45Z</time>
			</trkpt>
		
			<trkpt lat="45.264150" lon="1.676930">
			 <ele>428</ele>
			<time>2016-06-05T14:33:45Z</time>
			</trkpt>
		
			<trkpt lat="45.264320" lon="1.676690">
			 <ele>426</ele>
			<time>2016-06-05T14:35:45Z</time>
			</trkpt>
		
			<trkpt lat="45.264380" lon="1.676610">
			 <ele>426</ele>
			<time>2016-06-05T14:37:45Z</time>
			</trkpt>
		
			<trkpt lat="45.264640" lon="1.676210">
			 <ele>424</ele>
			<time>2016-06-05T14:39:45Z</time>
			</trkpt>
		
			<trkpt lat="45.264760" lon="1.676030">
			 <ele>425</ele>
			<time>2016-06-05T14:41:45Z</time>
			</trkpt>
		
			<trkpt lat="45.264830" lon="1.675950">
			 <ele>425</ele>
			<time>2016-06-05T14:43:45Z</time>
			</trkpt>
		
			<trkpt lat="45.264860" lon="1.675920">
			 <ele>425</ele>
			<time>2016-06-05T14:45:45Z</time>
			</trkpt>
		
			<trkpt lat="45.264970" lon="1.675820">
			 <ele>426</ele>
			<time>2016-06-05T14:47:45Z</time>
			</trkpt>
		
			<trkpt lat="45.265030" lon="1.675790">
			 <ele>426</ele>
			<time>2016-06-05T14:49:45Z</time>
			</trkpt>
		
			<trkpt lat="45.265080" lon="1.675770">
			 <ele>427</ele>
			<time>2016-06-05T14:51:45Z</time>
			</trkpt>
		
			<trkpt lat="45.265200" lon="1.675720">
			 <ele>428</ele>
			<time>2016-06-05T14:53:45Z</time>
			</trkpt>
		
			<trkpt lat="45.265350" lon="1.675700">
			 <ele>429</ele>
			<time>2016-06-05T14:55:45Z</time>
			</trkpt>
		
			<trkpt lat="45.265660" lon="1.675680">
			 <ele>430</ele>
			<time>2016-06-05T14:57:45Z</time>
			</trkpt>
		
			<trkpt lat="45.265890" lon="1.675660">
			 <ele>431</ele>
			<time>2016-06-05T14:59:45Z</time>
			</trkpt>
		
			<trkpt lat="45.266040" lon="1.675630">
			 <ele>431</ele>
			<time>2016-06-05T15:01:45Z</time>
			</trkpt>
		
			<trkpt lat="45.266150" lon="1.675590">
			 <ele>431</ele>
			<time>2016-06-05T15:03:45Z</time>
			</trkpt>
		
			<trkpt lat="45.266240" lon="1.675520">
			 <ele>431</ele>
			<time>2016-06-05T15:05:45Z</time>
			</trkpt>
		
			<trkpt lat="45.266350" lon="1.675410">
			 <ele>431</ele>
			<time>2016-06-05T15:07:45Z</time>
			</trkpt>
		
			<trkpt lat="45.266420" lon="1.675330">
			 <ele>430</ele>
			<time>2016-06-05T15:09:45Z</time>
			</trkpt>
		
			<trkpt lat="45.266460" lon="1.675280">
			 <ele>430</ele>
			<time>2016-06-05T15:11:45Z</time>
			</trkpt>
		
			<trkpt lat="45.266520" lon="1.675160">
			 <ele>430</ele>
			<time>2016-06-05T15:13:45Z</time>
			</trkpt>
		
			<trkpt lat="45.266590" lon="1.674870">
			 <ele>428</ele>
			<time>2016-06-05T15:15:45Z</time>
			</trkpt>
		
			<trkpt lat="45.266660" lon="1.674560">
			 <ele>424</ele>
			<time>2016-06-05T15:17:45Z</time>
			</trkpt>
		
			<trkpt lat="45.266730" lon="1.674290">
			 <ele>422</ele>
			<time>2016-06-05T15:19:45Z</time>
			</trkpt>
		
			<trkpt lat="45.266830" lon="1.674060">
			 <ele>421</ele>
			<time>2016-06-05T15:21:45Z</time>
			</trkpt>
		
			<trkpt lat="45.266910" lon="1.673920">
			 <ele>421</ele>
			<time>2016-06-05T15:23:45Z</time>
			</trkpt>
		
			<trkpt lat="45.267050" lon="1.673720">
			 <ele>421</ele>
			<time>2016-06-05T15:25:45Z</time>
			</trkpt>
		
			<trkpt lat="45.267220" lon="1.673480">
			 <ele>421</ele>
			<time>2016-06-05T15:27:45Z</time>
			</trkpt>
		
			<trkpt lat="45.267570" lon="1.673010">
			 <ele>424</ele>
			<time>2016-06-05T15:29:45Z</time>
			</trkpt>
		
			<trkpt lat="45.267860" lon="1.672520">
			 <ele>427</ele>
			<time>2016-06-05T15:31:45Z</time>
			</trkpt>
		
			<trkpt lat="45.268030" lon="1.672220">
			 <ele>426</ele>
			<time>2016-06-05T15:33:45Z</time>
			</trkpt>
		
			<trkpt lat="45.268230" lon="1.671790">
			 <ele>425</ele>
			<time>2016-06-05T15:35:45Z</time>
			</trkpt>
		
			<trkpt lat="45.268440" lon="1.671300">
			 <ele>426</ele>
			<time>2016-06-05T15:37:45Z</time>
			</trkpt>
		
			<trkpt lat="45.268540" lon="1.670990">
			 <ele>428</ele>
			<time>2016-06-05T15:39:45Z</time>
			</trkpt>
		
			<trkpt lat="45.268630" lon="1.670600">
			 <ele>428</ele>
			<time>2016-06-05T15:41:45Z</time>
			</trkpt>
		
			<trkpt lat="45.268690" lon="1.670400">
			 <ele>428</ele>
			<time>2016-06-05T15:43:45Z</time>
			</trkpt>
		
			<trkpt lat="45.268840" lon="1.669810">
			 <ele>428</ele>
			<time>2016-06-05T15:45:45Z</time>
			</trkpt>
		
			<trkpt lat="45.268940" lon="1.669500">
			 <ele>429</ele>
			<time>2016-06-05T15:47:45Z</time>
			</trkpt>
		
			<trkpt lat="45.269060" lon="1.669240">
			 <ele>430</ele>
			<time>2016-06-05T15:49:45Z</time>
			</trkpt>
		
			<trkpt lat="45.269120" lon="1.669120">
			 <ele>431</ele>
			<time>2016-06-05T15:51:45Z</time>
			</trkpt>
		
			<trkpt lat="45.269190" lon="1.669000">
			 <ele>431</ele>
			<time>2016-06-05T15:53:45Z</time>
			</trkpt>
		
			<trkpt lat="45.269420" lon="1.668710">
			 <ele>432</ele>
			<time>2016-06-05T15:55:45Z</time>
			</trkpt>
		
			<trkpt lat="45.269580" lon="1.668550">
			 <ele>433</ele>
			<time>2016-06-05T15:57:45Z</time>
			</trkpt>
		
			<trkpt lat="45.269950" lon="1.668220">
			 <ele>434</ele>
			<time>2016-06-05T15:59:45Z</time>
			</trkpt>
		
			<trkpt lat="45.270300" lon="1.667900">
			 <ele>434</ele>
			<time>2016-06-05T16:01:45Z</time>
			</trkpt>
		
			<trkpt lat="45.270550" lon="1.667670">
			 <ele>433</ele>
			<time>2016-06-05T16:03:45Z</time>
			</trkpt>
		
			<trkpt lat="45.270650" lon="1.667570">
			 <ele>433</ele>
			<time>2016-06-05T16:05:45Z</time>
			</trkpt>
		
			<trkpt lat="45.270690" lon="1.667510">
			 <ele>433</ele>
			<time>2016-06-05T16:07:45Z</time>
			</trkpt>
		
			<trkpt lat="45.270720" lon="1.667430">
			 <ele>433</ele>
			<time>2016-06-05T16:09:45Z</time>
			</trkpt>
		
			<trkpt lat="45.270730" lon="1.667370">
			 <ele>433</ele>
			<time>2016-06-05T16:11:45Z</time>
			</trkpt>
		
			<trkpt lat="45.270740" lon="1.667290">
			 <ele>433</ele>
			<time>2016-06-05T16:13:45Z</time>
			</trkpt>
		
			<trkpt lat="45.270730" lon="1.667210">
			 <ele>432</ele>
			<time>2016-06-05T16:15:45Z</time>
			</trkpt>
		
			<trkpt lat="45.270700" lon="1.667120">
			 <ele>432</ele>
			<time>2016-06-05T16:17:45Z</time>
			</trkpt>
		
			<trkpt lat="45.270660" lon="1.667030">
			 <ele>432</ele>
			<time>2016-06-05T16:19:45Z</time>
			</trkpt>
		
			<trkpt lat="45.270620" lon="1.666940">
			 <ele>432</ele>
			<time>2016-06-05T16:21:45Z</time>
			</trkpt>
		
			<trkpt lat="45.270580" lon="1.666840">
			 <ele>431</ele>
			<time>2016-06-05T16:23:45Z</time>
			</trkpt>
		
			<trkpt lat="45.270550" lon="1.666760">
			 <ele>431</ele>
			<time>2016-06-05T16:25:45Z</time>
			</trkpt>
		
			<trkpt lat="45.270540" lon="1.666680">
			 <ele>431</ele>
			<time>2016-06-05T16:27:45Z</time>
			</trkpt>
		
			<trkpt lat="45.270540" lon="1.666680">
			 <ele>431</ele>
			<time>2016-06-05T16:29:45Z</time>
			</trkpt>
		
			<trkpt lat="45.270530" lon="1.666650">
			 <ele>431</ele>
			<time>2016-06-05T16:31:45Z</time>
			</trkpt>
		
			<trkpt lat="45.270570" lon="1.666570">
			 <ele>431</ele>
			<time>2016-06-05T16:33:45Z</time>
			</trkpt>
		
			<trkpt lat="45.270600" lon="1.666500">
			 <ele>431</ele>
			<time>2016-06-05T16:35:45Z</time>
			</trkpt>
		
			<trkpt lat="45.270630" lon="1.666430">
			 <ele>431</ele>
			<time>2016-06-05T16:37:45Z</time>
			</trkpt>
		
			<trkpt lat="45.270770" lon="1.666310">
			 <ele>432</ele>
			<time>2016-06-05T16:39:45Z</time>
			</trkpt>
		
			<trkpt lat="45.271100" lon="1.666030">
			 <ele>433</ele>
			<time>2016-06-05T16:41:45Z</time>
			</trkpt>
		
			<trkpt lat="45.271190" lon="1.666000">
			 <ele>433</ele>
			<time>2016-06-05T16:43:45Z</time>
			</trkpt>
		
			<trkpt lat="45.271310" lon="1.665950">
			 <ele>433</ele>
			<time>2016-06-05T16:45:45Z</time>
			</trkpt>
		
			<trkpt lat="45.271470" lon="1.665890">
			 <ele>433</ele>
			<time>2016-06-05T16:47:45Z</time>
			</trkpt>
		
			<trkpt lat="45.271470" lon="1.665890">
			 <ele>433</ele>
			<time>2016-06-05T16:49:45Z</time>
			</trkpt>
		
			<trkpt lat="45.271540" lon="1.665930">
			 <ele>433</ele>
			<time>2016-06-05T16:51:45Z</time>
			</trkpt>
		
			<trkpt lat="45.271550" lon="1.665940">
			 <ele>433</ele>
			<time>2016-06-05T16:53:45Z</time>
			</trkpt>
		
			<trkpt lat="45.271590" lon="1.665950">
			 <ele>433</ele>
			<time>2016-06-05T16:55:45Z</time>
			</trkpt>
		
			<trkpt lat="45.271630" lon="1.665950">
			 <ele>433</ele>
			<time>2016-06-05T16:57:45Z</time>
			</trkpt>
		
			<trkpt lat="45.271670" lon="1.665930">
			 <ele>433</ele>
			<time>2016-06-05T16:59:45Z</time>
			</trkpt>
		
			<trkpt lat="45.271700" lon="1.665920">
			 <ele>433</ele>
			<time>2016-06-05T17:01:45Z</time>
			</trkpt>
		
			<trkpt lat="45.271720" lon="1.665900">
			 <ele>433</ele>
			<time>2016-06-05T17:03:45Z</time>
			</trkpt>
		
			<trkpt lat="45.271730" lon="1.665880">
			 <ele>433</ele>
			<time>2016-06-05T17:05:45Z</time>
			</trkpt>
		
			<trkpt lat="45.271770" lon="1.665790">
			 <ele>433</ele>
			<time>2016-06-05T17:07:45Z</time>
			</trkpt>
		
			<trkpt lat="45.271820" lon="1.665780">
			 <ele>433</ele>
			<time>2016-06-05T17:09:45Z</time>
			</trkpt>
		
			<trkpt lat="45.271860" lon="1.665770">
			 <ele>433</ele>
			<time>2016-06-05T17:11:45Z</time>
			</trkpt>
		
			<trkpt lat="45.271910" lon="1.665770">
			 <ele>434</ele>
			<time>2016-06-05T17:13:45Z</time>
			</trkpt>
		
			<trkpt lat="45.271950" lon="1.665770">
			 <ele>434</ele>
			<time>2016-06-05T17:15:45Z</time>
			</trkpt>
		
			<trkpt lat="45.272010" lon="1.665810">
			 <ele>434</ele>
			<time>2016-06-05T17:17:45Z</time>
			</trkpt>
		
			<trkpt lat="45.272030" lon="1.665840">
			 <ele>434</ele>
			<time>2016-06-05T17:19:45Z</time>
			</trkpt>
		
			<trkpt lat="45.272050" lon="1.665880">
			 <ele>434</ele>
			<time>2016-06-05T17:21:45Z</time>
			</trkpt>
		
			<trkpt lat="45.272120" lon="1.666060">
			 <ele>434</ele>
			<time>2016-06-05T17:23:45Z</time>
			</trkpt>
		
			<trkpt lat="45.272160" lon="1.666140">
			 <ele>434</ele>
			<time>2016-06-05T17:25:45Z</time>
			</trkpt>
		
			<trkpt lat="45.272190" lon="1.666190">
			 <ele>434</ele>
			<time>2016-06-05T17:27:45Z</time>
			</trkpt>
		
			<trkpt lat="45.272250" lon="1.666250">
			 <ele>435</ele>
			<time>2016-06-05T17:29:45Z</time>
			</trkpt>
		
			<trkpt lat="45.272300" lon="1.666280">
			 <ele>434</ele>
			<time>2016-06-05T17:31:45Z</time>
			</trkpt>
		
			<trkpt lat="45.272340" lon="1.666290">
			 <ele>434</ele>
			<time>2016-06-05T17:33:45Z</time>
			</trkpt>
		
			<trkpt lat="45.272380" lon="1.666280">
			 <ele>434</ele>
			<time>2016-06-05T17:35:45Z</time>
			</trkpt>
		
			<trkpt lat="45.272400" lon="1.666280">
			 <ele>434</ele>
			<time>2016-06-05T17:37:45Z</time>
			</trkpt>
		
			<trkpt lat="45.272450" lon="1.666250">
			 <ele>435</ele>
			<time>2016-06-05T17:39:45Z</time>
			</trkpt>
		
			<trkpt lat="45.272630" lon="1.666110">
			 <ele>435</ele>
			<time>2016-06-05T17:41:45Z</time>
			</trkpt>
		
			<trkpt lat="45.272880" lon="1.665940">
			 <ele>436</ele>
			<time>2016-06-05T17:43:45Z</time>
			</trkpt>
		
			<trkpt lat="45.273050" lon="1.665820">
			 <ele>436</ele>
			<time>2016-06-05T17:45:45Z</time>
			</trkpt>
		
			<trkpt lat="45.273280" lon="1.665660">
			 <ele>437</ele>
			<time>2016-06-05T17:47:45Z</time>
			</trkpt>
		
			<trkpt lat="45.273410" lon="1.665580">
			 <ele>437</ele>
			<time>2016-06-05T17:49:45Z</time>
			</trkpt>
		
			<trkpt lat="45.273480" lon="1.665540">
			 <ele>437</ele>
			<time>2016-06-05T17:51:45Z</time>
			</trkpt>
		
			<trkpt lat="45.273520" lon="1.665520">
			 <ele>437</ele>
			<time>2016-06-05T17:53:45Z</time>
			</trkpt>
		
			<trkpt lat="45.273620" lon="1.665470">
			 <ele>437</ele>
			<time>2016-06-05T17:55:45Z</time>
			</trkpt>
		
			<trkpt lat="45.273660" lon="1.665460">
			 <ele>437</ele>
			<time>2016-06-05T17:57:45Z</time>
			</trkpt>
		
			<trkpt lat="45.273750" lon="1.665440">
			 <ele>437</ele>
			<time>2016-06-05T17:59:45Z</time>
			</trkpt>
		
			<trkpt lat="45.273880" lon="1.665430">
			 <ele>437</ele>
			<time>2016-06-05T18:01:45Z</time>
			</trkpt>
		
			<trkpt lat="45.273990" lon="1.665420">
			 <ele>437</ele>
			<time>2016-06-05T18:03:45Z</time>
			</trkpt>
		
			<trkpt lat="45.274060" lon="1.665420">
			 <ele>437</ele>
			<time>2016-06-05T18:05:45Z</time>
			</trkpt>
		
			<trkpt lat="45.274260" lon="1.665430">
			 <ele>437</ele>
			<time>2016-06-05T18:07:45Z</time>
			</trkpt>
		
			<trkpt lat="45.274430" lon="1.665430">
			 <ele>437</ele>
			<time>2016-06-05T18:09:45Z</time>
			</trkpt>
		
			<trkpt lat="45.274640" lon="1.665420">
			 <ele>437</ele>
			<time>2016-06-05T18:11:45Z</time>
			</trkpt>
		
			<trkpt lat="45.274790" lon="1.665420">
			 <ele>437</ele>
			<time>2016-06-05T18:13:45Z</time>
			</trkpt>
		
			<trkpt lat="45.274920" lon="1.665410">
			 <ele>438</ele>
			<time>2016-06-05T18:15:45Z</time>
			</trkpt>
		
			<trkpt lat="45.274990" lon="1.665380">
			 <ele>438</ele>
			<time>2016-06-05T18:17:45Z</time>
			</trkpt>
		
			<trkpt lat="45.275080" lon="1.665320">
			 <ele>437</ele>
			<time>2016-06-05T18:19:45Z</time>
			</trkpt>
		
			<trkpt lat="45.275150" lon="1.665260">
			 <ele>436</ele>
			<time>2016-06-05T18:21:45Z</time>
			</trkpt>
		
			<trkpt lat="45.275250" lon="1.665170">
			 <ele>435</ele>
			<time>2016-06-05T18:23:45Z</time>
			</trkpt>
		
			<trkpt lat="45.275260" lon="1.665170">
			 <ele>435</ele>
			<time>2016-06-05T18:25:45Z</time>
			</trkpt>
		
			<trkpt lat="45.275400" lon="1.665020">
			 <ele>434</ele>
			<time>2016-06-05T18:27:45Z</time>
			</trkpt>
		
			<trkpt lat="45.275740" lon="1.664630">
			 <ele>430</ele>
			<time>2016-06-05T18:29:45Z</time>
			</trkpt>
		
			<trkpt lat="45.275840" lon="1.664510">
			 <ele>430</ele>
			<time>2016-06-05T18:31:45Z</time>
			</trkpt>
		
			<trkpt lat="45.275880" lon="1.664460">
			 <ele>430</ele>
			<time>2016-06-05T18:33:45Z</time>
			</trkpt>
		
			<trkpt lat="45.276010" lon="1.664320">
			 <ele>430</ele>
			<time>2016-06-05T18:35:45Z</time>
			</trkpt>
		
			<trkpt lat="45.276120" lon="1.664200">
			 <ele>430</ele>
			<time>2016-06-05T18:37:45Z</time>
			</trkpt>
		
			<trkpt lat="45.276140" lon="1.664170">
			 <ele>430</ele>
			<time>2016-06-05T18:39:45Z</time>
			</trkpt>
		
			<trkpt lat="45.276240" lon="1.664050">
			 <ele>431</ele>
			<time>2016-06-05T18:41:45Z</time>
			</trkpt>
		
			<trkpt lat="45.276490" lon="1.663770">
			 <ele>432</ele>
			<time>2016-06-05T18:43:45Z</time>
			</trkpt>
		
			<trkpt lat="45.276500" lon="1.663760">
			 <ele>432</ele>
			<time>2016-06-05T18:45:45Z</time>
			</trkpt>
		
			<trkpt lat="45.276700" lon="1.663520">
			 <ele>433</ele>
			<time>2016-06-05T18:47:45Z</time>
			</trkpt>
		
			<trkpt lat="45.276740" lon="1.663470">
			 <ele>433</ele>
			<time>2016-06-05T18:49:45Z</time>
			</trkpt>
		
			<trkpt lat="45.276840" lon="1.663350">
			 <ele>433</ele>
			<time>2016-06-05T18:51:45Z</time>
			</trkpt>
		
			<trkpt lat="45.277060" lon="1.663100">
			 <ele>436</ele>
			<time>2016-06-05T18:53:45Z</time>
			</trkpt>
		
			<trkpt lat="45.277200" lon="1.662940">
			 <ele>437</ele>
			<time>2016-06-05T18:55:45Z</time>
			</trkpt>
		
			<trkpt lat="45.277310" lon="1.662810">
			 <ele>439</ele>
			<time>2016-06-05T18:57:45Z</time>
			</trkpt>
		
			<trkpt lat="45.277400" lon="1.662700">
			 <ele>440</ele>
			<time>2016-06-05T18:59:45Z</time>
			</trkpt>
		
			<trkpt lat="45.277540" lon="1.662510">
			 <ele>442</ele>
			<time>2016-06-05T19:01:45Z</time>
			</trkpt>
		
			<trkpt lat="45.277680" lon="1.662310">
			 <ele>443</ele>
			<time>2016-06-05T19:03:45Z</time>
			</trkpt>
		
			<trkpt lat="45.277830" lon="1.662070">
			 <ele>446</ele>
			<time>2016-06-05T19:05:45Z</time>
			</trkpt>
		
			<trkpt lat="45.277970" lon="1.661910">
			 <ele>446</ele>
			<time>2016-06-05T19:07:45Z</time>
			</trkpt>
		
			<trkpt lat="45.278200" lon="1.661650">
			 <ele>448</ele>
			<time>2016-06-05T19:09:45Z</time>
			</trkpt>
		
			<trkpt lat="45.278350" lon="1.661470">
			 <ele>448</ele>
			<time>2016-06-05T19:11:45Z</time>
			</trkpt>
		
			<trkpt lat="45.278490" lon="1.661320">
			 <ele>449</ele>
			<time>2016-06-05T19:13:45Z</time>
			</trkpt>
		
			<trkpt lat="45.278690" lon="1.661170">
			 <ele>448</ele>
			<time>2016-06-05T19:15:45Z</time>
			</trkpt>
		
			<trkpt lat="45.278800" lon="1.661100">
			 <ele>447</ele>
			<time>2016-06-05T19:17:45Z</time>
			</trkpt>
		
			<trkpt lat="45.278890" lon="1.661060">
			 <ele>446</ele>
			<time>2016-06-05T19:19:45Z</time>
			</trkpt>
		
			<trkpt lat="45.279010" lon="1.661020">
			 <ele>445</ele>
			<time>2016-06-05T19:21:45Z</time>
			</trkpt>
		
			<trkpt lat="45.279110" lon="1.660990">
			 <ele>443</ele>
			<time>2016-06-05T19:23:45Z</time>
			</trkpt>
		
			<trkpt lat="45.279120" lon="1.660990">
			 <ele>443</ele>
			<time>2016-06-05T19:25:45Z</time>
			</trkpt>
		
			<trkpt lat="45.279180" lon="1.660970">
			 <ele>443</ele>
			<time>2016-06-05T19:27:45Z</time>
			</trkpt>
		
			<trkpt lat="45.279270" lon="1.660930">
			 <ele>442</ele>
			<time>2016-06-05T19:29:45Z</time>
			</trkpt>
		
			<trkpt lat="45.279360" lon="1.660880">
			 <ele>442</ele>
			<time>2016-06-05T19:31:45Z</time>
			</trkpt>
		
			<trkpt lat="45.279630" lon="1.660730">
			 <ele>441</ele>
			<time>2016-06-05T19:33:45Z</time>
			</trkpt>
		
			<trkpt lat="45.279880" lon="1.660580">
			 <ele>439</ele>
			<time>2016-06-05T19:35:45Z</time>
			</trkpt>
		
			<trkpt lat="45.280260" lon="1.660340">
			 <ele>436</ele>
			<time>2016-06-05T19:37:45Z</time>
			</trkpt>
		
			<trkpt lat="45.280550" lon="1.660150">
			 <ele>435</ele>
			<time>2016-06-05T19:39:45Z</time>
			</trkpt>
		
			<trkpt lat="45.280780" lon="1.660000">
			 <ele>434</ele>
			<time>2016-06-05T19:41:45Z</time>
			</trkpt>
		
			<trkpt lat="45.280900" lon="1.659940">
			 <ele>434</ele>
			<time>2016-06-05T19:43:45Z</time>
			</trkpt>
		
			<trkpt lat="45.280990" lon="1.659880">
			 <ele>433</ele>
			<time>2016-06-05T19:45:45Z</time>
			</trkpt>
		
			<trkpt lat="45.281030" lon="1.659860">
			 <ele>433</ele>
			<time>2016-06-05T19:47:45Z</time>
			</trkpt>
		
			<trkpt lat="45.281030" lon="1.659860">
			 <ele>433</ele>
			<time>2016-06-05T19:49:45Z</time>
			</trkpt>
		
			<trkpt lat="45.281040" lon="1.659870">
			 <ele>433</ele>
			<time>2016-06-05T19:51:45Z</time>
			</trkpt>
		
			<trkpt lat="45.281200" lon="1.660140">
			 <ele>433</ele>
			<time>2016-06-05T19:53:45Z</time>
			</trkpt>
		
			<trkpt lat="45.281370" lon="1.660450">
			 <ele>433</ele>
			<time>2016-06-05T19:55:45Z</time>
			</trkpt>
		
			<trkpt lat="45.281550" lon="1.660750">
			 <ele>433</ele>
			<time>2016-06-05T19:57:45Z</time>
			</trkpt>
		
			<trkpt lat="45.281700" lon="1.661020">
			 <ele>433</ele>
			<time>2016-06-05T19:59:45Z</time>
			</trkpt>
		
			<trkpt lat="45.281750" lon="1.661110">
			 <ele>433</ele>
			<time>2016-06-05T20:01:45Z</time>
			</trkpt>
		
			<trkpt lat="45.281960" lon="1.661470">
			 <ele>433</ele>
			<time>2016-06-05T20:03:45Z</time>
			</trkpt>
		
			<trkpt lat="45.282140" lon="1.661790">
			 <ele>432</ele>
			<time>2016-06-05T20:05:45Z</time>
			</trkpt>
		
			<trkpt lat="45.282290" lon="1.662000">
			 <ele>431</ele>
			<time>2016-06-05T20:07:45Z</time>
			</trkpt>
		
			<trkpt lat="45.282380" lon="1.662100">
			 <ele>430</ele>
			<time>2016-06-05T20:09:45Z</time>
			</trkpt>
		
			<trkpt lat="45.282490" lon="1.662190">
			 <ele>429</ele>
			<time>2016-06-05T20:11:45Z</time>
			</trkpt>
		
			<trkpt lat="45.282620" lon="1.662280">
			 <ele>428</ele>
			<time>2016-06-05T20:13:45Z</time>
			</trkpt>
		
			<trkpt lat="45.282700" lon="1.662310">
			 <ele>427</ele>
			<time>2016-06-05T20:15:45Z</time>
			</trkpt>
		
			<trkpt lat="45.282730" lon="1.662330">
			 <ele>427</ele>
			<time>2016-06-05T20:17:45Z</time>
			</trkpt>
		
			<trkpt lat="45.283050" lon="1.662480">
			 <ele>425</ele>
			<time>2016-06-05T20:19:45Z</time>
			</trkpt>
		
			<trkpt lat="45.283650" lon="1.662780">
			 <ele>427</ele>
			<time>2016-06-05T20:21:45Z</time>
			</trkpt>
		
			<trkpt lat="45.283990" lon="1.663000">
			 <ele>427</ele>
			<time>2016-06-05T20:23:45Z</time>
			</trkpt>
		
			<trkpt lat="45.284130" lon="1.663120">
			 <ele>427</ele>
			<time>2016-06-05T20:25:45Z</time>
			</trkpt>
		
			<trkpt lat="45.284280" lon="1.663270">
			 <ele>425</ele>
			<time>2016-06-05T20:27:45Z</time>
			</trkpt>
		
			<trkpt lat="45.284390" lon="1.663430">
			 <ele>424</ele>
			<time>2016-06-05T20:29:45Z</time>
			</trkpt>
		
			<trkpt lat="45.284650" lon="1.663860">
			 <ele>421</ele>
			<time>2016-06-05T20:31:45Z</time>
			</trkpt>
		
			<trkpt lat="45.284800" lon="1.664130">
			 <ele>418</ele>
			<time>2016-06-05T20:33:45Z</time>
			</trkpt>
		
			<trkpt lat="45.285010" lon="1.664450">
			 <ele>415</ele>
			<time>2016-06-05T20:35:45Z</time>
			</trkpt>
		
			<trkpt lat="45.285170" lon="1.664650">
			 <ele>414</ele>
			<time>2016-06-05T20:37:45Z</time>
			</trkpt>
		
			<trkpt lat="45.285330" lon="1.664830">
			 <ele>413</ele>
			<time>2016-06-05T20:39:45Z</time>
			</trkpt>
		
			<trkpt lat="45.285480" lon="1.664970">
			 <ele>412</ele>
			<time>2016-06-05T20:41:45Z</time>
			</trkpt>
		
			<trkpt lat="45.285590" lon="1.665060">
			 <ele>411</ele>
			<time>2016-06-05T20:43:45Z</time>
			</trkpt>
		
			<trkpt lat="45.285820" lon="1.665230">
			 <ele>410</ele>
			<time>2016-06-05T20:45:45Z</time>
			</trkpt>
		
			<trkpt lat="45.286000" lon="1.665340">
			 <ele>410</ele>
			<time>2016-06-05T20:47:45Z</time>
			</trkpt>
		
			<trkpt lat="45.286270" lon="1.665470">
			 <ele>410</ele>
			<time>2016-06-05T20:49:45Z</time>
			</trkpt>
		
			<trkpt lat="45.286420" lon="1.665530">
			 <ele>410</ele>
			<time>2016-06-05T20:51:45Z</time>
			</trkpt>
		
			<trkpt lat="45.286690" lon="1.665620">
			 <ele>409</ele>
			<time>2016-06-05T20:53:45Z</time>
			</trkpt>
		
			<trkpt lat="45.287010" lon="1.665720">
			 <ele>407</ele>
			<time>2016-06-05T20:55:45Z</time>
			</trkpt>
		
			<trkpt lat="45.287220" lon="1.665780">
			 <ele>405</ele>
			<time>2016-06-05T20:57:45Z</time>
			</trkpt>
		
			<trkpt lat="45.287290" lon="1.665800">
			 <ele>404</ele>
			<time>2016-06-05T20:59:45Z</time>
			</trkpt>
		
			<trkpt lat="45.287560" lon="1.665890">
			 <ele>402</ele>
			<time>2016-06-05T21:01:45Z</time>
			</trkpt>
		
			<trkpt lat="45.287720" lon="1.665940">
			 <ele>401</ele>
			<time>2016-06-05T21:03:45Z</time>
			</trkpt>
		
			<trkpt lat="45.287740" lon="1.665950">
			 <ele>401</ele>
			<time>2016-06-05T21:05:45Z</time>
			</trkpt>
		
			<trkpt lat="45.287900" lon="1.666000">
			 <ele>400</ele>
			<time>2016-06-05T21:07:45Z</time>
			</trkpt>
		
			<trkpt lat="45.287940" lon="1.666010">
			 <ele>400</ele>
			<time>2016-06-05T21:09:45Z</time>
			</trkpt>
		
			<trkpt lat="45.287980" lon="1.666030">
			 <ele>400</ele>
			<time>2016-06-05T21:11:45Z</time>
			</trkpt>
		
			<trkpt lat="45.288070" lon="1.666070">
			 <ele>399</ele>
			<time>2016-06-05T21:13:45Z</time>
			</trkpt>
		
			<trkpt lat="45.288150" lon="1.666120">
			 <ele>399</ele>
			<time>2016-06-05T21:15:45Z</time>
			</trkpt>
		
			<trkpt lat="45.288250" lon="1.666190">
			 <ele>399</ele>
			<time>2016-06-05T21:17:45Z</time>
			</trkpt>
		
			<trkpt lat="45.288360" lon="1.666290">
			 <ele>398</ele>
			<time>2016-06-05T21:19:45Z</time>
			</trkpt>
		
			<trkpt lat="45.288520" lon="1.666450">
			 <ele>398</ele>
			<time>2016-06-05T21:21:45Z</time>
			</trkpt>
		
			<trkpt lat="45.288790" lon="1.666750">
			 <ele>398</ele>
			<time>2016-06-05T21:23:45Z</time>
			</trkpt>
		
			<trkpt lat="45.288850" lon="1.666820">
			 <ele>397</ele>
			<time>2016-06-05T21:25:45Z</time>
			</trkpt>
		
			<trkpt lat="45.289160" lon="1.667170">
			 <ele>396</ele>
			<time>2016-06-05T21:27:45Z</time>
			</trkpt>
		
			<trkpt lat="45.289440" lon="1.667490">
			 <ele>398</ele>
			<time>2016-06-05T21:29:45Z</time>
			</trkpt>
		
			<trkpt lat="45.289520" lon="1.667580">
			 <ele>399</ele>
			<time>2016-06-05T21:31:45Z</time>
			</trkpt>
		
			<trkpt lat="45.289620" lon="1.667680">
			 <ele>399</ele>
			<time>2016-06-05T21:33:45Z</time>
			</trkpt>
		
			<trkpt lat="45.289730" lon="1.667790">
			 <ele>399</ele>
			<time>2016-06-05T21:35:45Z</time>
			</trkpt>
		
			<trkpt lat="45.289830" lon="1.667880">
			 <ele>399</ele>
			<time>2016-06-05T21:37:45Z</time>
			</trkpt>
		
			<trkpt lat="45.289940" lon="1.667960">
			 <ele>399</ele>
			<time>2016-06-05T21:39:45Z</time>
			</trkpt>
		
			<trkpt lat="45.290070" lon="1.668050">
			 <ele>398</ele>
			<time>2016-06-05T21:41:45Z</time>
			</trkpt>
		
			<trkpt lat="45.290250" lon="1.668150">
			 <ele>397</ele>
			<time>2016-06-05T21:43:45Z</time>
			</trkpt>
		
			<trkpt lat="45.290510" lon="1.668280">
			 <ele>396</ele>
			<time>2016-06-05T21:45:45Z</time>
			</trkpt>
		
			<trkpt lat="45.290830" lon="1.668420">
			 <ele>395</ele>
			<time>2016-06-05T21:47:45Z</time>
			</trkpt>
		
			<trkpt lat="45.291080" lon="1.668510">
			 <ele>394</ele>
			<time>2016-06-05T21:49:45Z</time>
			</trkpt>
		
			<trkpt lat="45.291150" lon="1.668540">
			 <ele>394</ele>
			<time>2016-06-05T21:51:45Z</time>
			</trkpt>
		
			<trkpt lat="45.291590" lon="1.668690">
			 <ele>392</ele>
			<time>2016-06-05T21:53:45Z</time>
			</trkpt>
		
			<trkpt lat="45.291670" lon="1.668720">
			 <ele>391</ele>
			<time>2016-06-05T21:55:45Z</time>
			</trkpt>
		
			<trkpt lat="45.292120" lon="1.668860">
			 <ele>389</ele>
			<time>2016-06-05T21:57:45Z</time>
			</trkpt>
		
			<trkpt lat="45.292190" lon="1.668880">
			 <ele>389</ele>
			<time>2016-06-05T21:59:45Z</time>
			</trkpt>
		
			<trkpt lat="45.292270" lon="1.668910">
			 <ele>389</ele>
			<time>2016-06-05T22:01:45Z</time>
			</trkpt>
		
			<trkpt lat="45.292600" lon="1.669020">
			 <ele>388</ele>
			<time>2016-06-05T22:03:45Z</time>
			</trkpt>
		
			<trkpt lat="45.292940" lon="1.669130">
			 <ele>389</ele>
			<time>2016-06-05T22:05:45Z</time>
			</trkpt>
		
			<trkpt lat="45.293270" lon="1.669240">
			 <ele>389</ele>
			<time>2016-06-05T22:07:45Z</time>
			</trkpt>
		
			<trkpt lat="45.293420" lon="1.669300">
			 <ele>390</ele>
			<time>2016-06-05T22:09:45Z</time>
			</trkpt>
		
			<trkpt lat="45.293730" lon="1.669400">
			 <ele>391</ele>
			<time>2016-06-05T22:11:45Z</time>
			</trkpt>
		
			<trkpt lat="45.293880" lon="1.669460">
			 <ele>391</ele>
			<time>2016-06-05T22:13:45Z</time>
			</trkpt>
		
			<trkpt lat="45.294010" lon="1.669500">
			 <ele>392</ele>
			<time>2016-06-05T22:15:45Z</time>
			</trkpt>
		
			<trkpt lat="45.294200" lon="1.669580">
			 <ele>393</ele>
			<time>2016-06-05T22:17:45Z</time>
			</trkpt>
		
			<trkpt lat="45.294370" lon="1.669660">
			 <ele>394</ele>
			<time>2016-06-05T22:19:45Z</time>
			</trkpt>
		
			<trkpt lat="45.294530" lon="1.669740">
			 <ele>394</ele>
			<time>2016-06-05T22:21:45Z</time>
			</trkpt>
		
			<trkpt lat="45.294680" lon="1.669820">
			 <ele>395</ele>
			<time>2016-06-05T22:23:45Z</time>
			</trkpt>
		
			<trkpt lat="45.294840" lon="1.669920">
			 <ele>396</ele>
			<time>2016-06-05T22:25:45Z</time>
			</trkpt>
		
			<trkpt lat="45.295010" lon="1.670030">
			 <ele>397</ele>
			<time>2016-06-05T22:27:45Z</time>
			</trkpt>
		
			<trkpt lat="45.295280" lon="1.670220">
			 <ele>398</ele>
			<time>2016-06-05T22:29:45Z</time>
			</trkpt>
		
			<trkpt lat="45.295560" lon="1.670420">
			 <ele>399</ele>
			<time>2016-06-05T22:31:45Z</time>
			</trkpt>
		
			<trkpt lat="45.295890" lon="1.670660">
			 <ele>400</ele>
			<time>2016-06-05T22:33:45Z</time>
			</trkpt>
		
			<trkpt lat="45.296070" lon="1.670770">
			 <ele>401</ele>
			<time>2016-06-05T22:35:45Z</time>
			</trkpt>
		
			<trkpt lat="45.296180" lon="1.670840">
			 <ele>402</ele>
			<time>2016-06-05T22:37:45Z</time>
			</trkpt>
		
			<trkpt lat="45.296340" lon="1.670930">
			 <ele>403</ele>
			<time>2016-06-05T22:39:45Z</time>
			</trkpt>
		
			<trkpt lat="45.296520" lon="1.671030">
			 <ele>404</ele>
			<time>2016-06-05T22:41:45Z</time>
			</trkpt>
		
			<trkpt lat="45.296700" lon="1.671130">
			 <ele>405</ele>
			<time>2016-06-05T22:43:45Z</time>
			</trkpt>
		
			<trkpt lat="45.296710" lon="1.671130">
			 <ele>405</ele>
			<time>2016-06-05T22:45:45Z</time>
			</trkpt>
		
			<trkpt lat="45.297020" lon="1.671280">
			 <ele>407</ele>
			<time>2016-06-05T22:47:45Z</time>
			</trkpt>
		
			<trkpt lat="45.297330" lon="1.671420">
			 <ele>409</ele>
			<time>2016-06-05T22:49:45Z</time>
			</trkpt>
		
			<trkpt lat="45.297760" lon="1.671640">
			 <ele>411</ele>
			<time>2016-06-05T22:51:45Z</time>
			</trkpt>
		
			<trkpt lat="45.298090" lon="1.671790">
			 <ele>412</ele>
			<time>2016-06-05T22:53:45Z</time>
			</trkpt>
		
			<trkpt lat="45.298350" lon="1.671920">
			 <ele>414</ele>
			<time>2016-06-05T22:55:45Z</time>
			</trkpt>
		
			<trkpt lat="45.298420" lon="1.671950">
			 <ele>414</ele>
			<time>2016-06-05T22:57:45Z</time>
			</trkpt>
		
			<trkpt lat="45.298630" lon="1.672040">
			 <ele>416</ele>
			<time>2016-06-05T22:59:45Z</time>
			</trkpt>
		
			<trkpt lat="45.298930" lon="1.672150">
			 <ele>419</ele>
			<time>2016-06-05T23:01:45Z</time>
			</trkpt>
		
			<trkpt lat="45.299190" lon="1.672250">
			 <ele>422</ele>
			<time>2016-06-05T23:03:45Z</time>
			</trkpt>
		
			<trkpt lat="45.299450" lon="1.672350">
			 <ele>423</ele>
			<time>2016-06-05T23:05:45Z</time>
			</trkpt>
		
			<trkpt lat="45.299630" lon="1.672430">
			 <ele>424</ele>
			<time>2016-06-05T23:07:45Z</time>
			</trkpt>
		
			<trkpt lat="45.299830" lon="1.672520">
			 <ele>424</ele>
			<time>2016-06-05T23:09:45Z</time>
			</trkpt>
		
			<trkpt lat="45.299970" lon="1.672600">
			 <ele>424</ele>
			<time>2016-06-05T23:11:45Z</time>
			</trkpt>
		
			<trkpt lat="45.300110" lon="1.672690">
			 <ele>424</ele>
			<time>2016-06-05T23:13:45Z</time>
			</trkpt>
		
			<trkpt lat="45.300260" lon="1.672790">
			 <ele>424</ele>
			<time>2016-06-05T23:15:45Z</time>
			</trkpt>
		
			<trkpt lat="45.300410" lon="1.672900">
			 <ele>424</ele>
			<time>2016-06-05T23:17:45Z</time>
			</trkpt>
		
			<trkpt lat="45.300540" lon="1.673010">
			 <ele>424</ele>
			<time>2016-06-05T23:19:45Z</time>
			</trkpt>
		
			<trkpt lat="45.300690" lon="1.673130">
			 <ele>423</ele>
			<time>2016-06-05T23:21:45Z</time>
			</trkpt>
		
			<trkpt lat="45.300830" lon="1.673280">
			 <ele>422</ele>
			<time>2016-06-05T23:23:45Z</time>
			</trkpt>
		
			<trkpt lat="45.300960" lon="1.673410">
			 <ele>422</ele>
			<time>2016-06-05T23:25:45Z</time>
			</trkpt>
		
			<trkpt lat="45.301090" lon="1.673550">
			 <ele>421</ele>
			<time>2016-06-05T23:27:45Z</time>
			</trkpt>
		
			<trkpt lat="45.301180" lon="1.673660">
			 <ele>421</ele>
			<time>2016-06-05T23:29:45Z</time>
			</trkpt>
		
			<trkpt lat="45.301270" lon="1.673760">
			 <ele>421</ele>
			<time>2016-06-05T23:31:45Z</time>
			</trkpt>
		
			<trkpt lat="45.301400" lon="1.673940">
			 <ele>422</ele>
			<time>2016-06-05T23:33:45Z</time>
			</trkpt>
		
			<trkpt lat="45.301510" lon="1.674100">
			 <ele>422</ele>
			<time>2016-06-05T23:35:45Z</time>
			</trkpt>
		
			<trkpt lat="45.301650" lon="1.674320">
			 <ele>422</ele>
			<time>2016-06-05T23:37:45Z</time>
			</trkpt>
		
			<trkpt lat="45.301720" lon="1.674440">
			 <ele>422</ele>
			<time>2016-06-05T23:39:45Z</time>
			</trkpt>
		
			<trkpt lat="45.301780" lon="1.674540">
			 <ele>422</ele>
			<time>2016-06-05T23:41:45Z</time>
			</trkpt>
		
			<trkpt lat="45.301840" lon="1.674650">
			 <ele>422</ele>
			<time>2016-06-05T23:43:45Z</time>
			</trkpt>
		
			<trkpt lat="45.301910" lon="1.674760">
			 <ele>422</ele>
			<time>2016-06-05T23:45:45Z</time>
			</trkpt>
		
			<trkpt lat="45.302020" lon="1.674930">
			 <ele>422</ele>
			<time>2016-06-05T23:47:45Z</time>
			</trkpt>
		
			<trkpt lat="45.302120" lon="1.675080">
			 <ele>423</ele>
			<time>2016-06-05T23:49:45Z</time>
			</trkpt>
		
			<trkpt lat="45.302230" lon="1.675240">
			 <ele>423</ele>
			<time>2016-06-05T23:51:45Z</time>
			</trkpt>
		
			<trkpt lat="45.302320" lon="1.675370">
			 <ele>424</ele>
			<time>2016-06-05T23:53:45Z</time>
			</trkpt>
		
			<trkpt lat="45.302530" lon="1.675630">
			 <ele>425</ele>
			<time>2016-06-05T23:55:45Z</time>
			</trkpt>
		
			<trkpt lat="45.302810" lon="1.675980">
			 <ele>426</ele>
			<time>2016-06-05T23:57:45Z</time>
			</trkpt>
		
			<trkpt lat="45.302940" lon="1.676150">
			 <ele>427</ele>
			<time>2016-06-05T23:59:45Z</time>
			</trkpt>
		
			<trkpt lat="45.303110" lon="1.676360">
			 <ele>428</ele>
			<time>2016-06-06T00:01:45Z</time>
			</trkpt>
		
			<trkpt lat="45.303360" lon="1.676690">
			 <ele>428</ele>
			<time>2016-06-06T00:03:45Z</time>
			</trkpt>
		
			<trkpt lat="45.303490" lon="1.676850">
			 <ele>429</ele>
			<time>2016-06-06T00:05:45Z</time>
			</trkpt>
		
			<trkpt lat="45.303600" lon="1.676980">
			 <ele>430</ele>
			<time>2016-06-06T00:07:45Z</time>
			</trkpt>
		
			<trkpt lat="45.303680" lon="1.677070">
			 <ele>430</ele>
			<time>2016-06-06T00:09:45Z</time>
			</trkpt>
		
			<trkpt lat="45.303780" lon="1.677170">
			 <ele>431</ele>
			<time>2016-06-06T00:11:45Z</time>
			</trkpt>
		
			<trkpt lat="45.303920" lon="1.677300">
			 <ele>432</ele>
			<time>2016-06-06T00:13:45Z</time>
			</trkpt>
		
			<trkpt lat="45.304190" lon="1.677520">
			 <ele>434</ele>
			<time>2016-06-06T00:15:45Z</time>
			</trkpt>
		
			<trkpt lat="45.304320" lon="1.677610">
			 <ele>435</ele>
			<time>2016-06-06T00:17:45Z</time>
			</trkpt>
		
			<trkpt lat="45.304340" lon="1.677630">
			 <ele>436</ele>
			<time>2016-06-06T00:19:45Z</time>
			</trkpt>
		
			<trkpt lat="45.304510" lon="1.677750">
			 <ele>437</ele>
			<time>2016-06-06T00:21:45Z</time>
			</trkpt>
		
			<trkpt lat="45.304730" lon="1.677910">
			 <ele>438</ele>
			<time>2016-06-06T00:23:45Z</time>
			</trkpt>
		
			<trkpt lat="45.305110" lon="1.678190">
			 <ele>440</ele>
			<time>2016-06-06T00:25:45Z</time>
			</trkpt>
		
			<trkpt lat="45.305430" lon="1.678420">
			 <ele>443</ele>
			<time>2016-06-06T00:27:45Z</time>
			</trkpt>
		
			<trkpt lat="45.305740" lon="1.678650">
			 <ele>447</ele>
			<time>2016-06-06T00:29:45Z</time>
			</trkpt>
		
			<trkpt lat="45.306010" lon="1.678840">
			 <ele>449</ele>
			<time>2016-06-06T00:31:45Z</time>
			</trkpt>
		
			<trkpt lat="45.306320" lon="1.679100">
			 <ele>452</ele>
			<time>2016-06-06T00:33:45Z</time>
			</trkpt>
		
			<trkpt lat="45.306560" lon="1.679280">
			 <ele>453</ele>
			<time>2016-06-06T00:35:45Z</time>
			</trkpt>
		
			<trkpt lat="45.306850" lon="1.679510">
			 <ele>455</ele>
			<time>2016-06-06T00:37:45Z</time>
			</trkpt>
		
			<trkpt lat="45.306890" lon="1.679550">
			 <ele>455</ele>
			<time>2016-06-06T00:39:45Z</time>
			</trkpt>
		
			<trkpt lat="45.306990" lon="1.679620">
			 <ele>456</ele>
			<time>2016-06-06T00:41:45Z</time>
			</trkpt>
		
			<trkpt lat="45.306990" lon="1.679620">
			 <ele>456</ele>
			<time>2016-06-06T00:43:45Z</time>
			</trkpt>
		
			<trkpt lat="45.307010" lon="1.679640">
			 <ele>456</ele>
			<time>2016-06-06T00:45:45Z</time>
			</trkpt>
		
			<trkpt lat="45.307020" lon="1.679650">
			 <ele>456</ele>
			<time>2016-06-06T00:47:45Z</time>
			</trkpt>
		
			<trkpt lat="45.307040" lon="1.679650">
			 <ele>456</ele>
			<time>2016-06-06T00:49:45Z</time>
			</trkpt>
		
			<trkpt lat="45.307100" lon="1.679700">
			 <ele>456</ele>
			<time>2016-06-06T00:51:45Z</time>
			</trkpt>
		
			<trkpt lat="45.307120" lon="1.679720">
			 <ele>456</ele>
			<time>2016-06-06T00:53:45Z</time>
			</trkpt>
		
			<trkpt lat="45.307130" lon="1.679720">
			 <ele>457</ele>
			<time>2016-06-06T00:55:45Z</time>
			</trkpt>
		
			<trkpt lat="45.307300" lon="1.679860">
			 <ele>458</ele>
			<time>2016-06-06T00:57:45Z</time>
			</trkpt>
		
			<trkpt lat="45.307360" lon="1.679900">
			 <ele>458</ele>
			<time>2016-06-06T00:59:45Z</time>
			</trkpt>
		
			<trkpt lat="45.307610" lon="1.680070">
			 <ele>459</ele>
			<time>2016-06-06T01:01:45Z</time>
			</trkpt>
		
			<trkpt lat="45.307780" lon="1.680200">
			 <ele>459</ele>
			<time>2016-06-06T01:03:45Z</time>
			</trkpt>
		
			<trkpt lat="45.307910" lon="1.680280">
			 <ele>459</ele>
			<time>2016-06-06T01:05:45Z</time>
			</trkpt>
		
			<trkpt lat="45.308010" lon="1.680350">
			 <ele>459</ele>
			<time>2016-06-06T01:07:45Z</time>
			</trkpt>
		
			<trkpt lat="45.308020" lon="1.680350">
			 <ele>459</ele>
			<time>2016-06-06T01:09:45Z</time>
			</trkpt>
		
			<trkpt lat="45.308190" lon="1.680450">
			 <ele>458</ele>
			<time>2016-06-06T01:11:45Z</time>
			</trkpt>
		
			<trkpt lat="45.308330" lon="1.680510">
			 <ele>457</ele>
			<time>2016-06-06T01:13:45Z</time>
			</trkpt>
		
			<trkpt lat="45.308460" lon="1.680570">
			 <ele>458</ele>
			<time>2016-06-06T01:15:45Z</time>
			</trkpt>
		
			<trkpt lat="45.308610" lon="1.680610">
			 <ele>459</ele>
			<time>2016-06-06T01:17:45Z</time>
			</trkpt>
		
			<trkpt lat="45.308770" lon="1.680640">
			 <ele>459</ele>
			<time>2016-06-06T01:19:45Z</time>
			</trkpt>
		
			<trkpt lat="45.308920" lon="1.680660">
			 <ele>460</ele>
			<time>2016-06-06T01:21:45Z</time>
			</trkpt>
		
			<trkpt lat="45.309060" lon="1.680670">
			 <ele>460</ele>
			<time>2016-06-06T01:23:45Z</time>
			</trkpt>
		
			<trkpt lat="45.309210" lon="1.680650">
			 <ele>461</ele>
			<time>2016-06-06T01:25:45Z</time>
			</trkpt>
		
			<trkpt lat="45.309360" lon="1.680630">
			 <ele>461</ele>
			<time>2016-06-06T01:27:45Z</time>
			</trkpt>
		
			<trkpt lat="45.309520" lon="1.680590">
			 <ele>462</ele>
			<time>2016-06-06T01:29:45Z</time>
			</trkpt>
		
			<trkpt lat="45.309660" lon="1.680530">
			 <ele>463</ele>
			<time>2016-06-06T01:31:45Z</time>
			</trkpt>
		
			<trkpt lat="45.309800" lon="1.680470">
			 <ele>464</ele>
			<time>2016-06-06T01:33:45Z</time>
			</trkpt>
		
			<trkpt lat="45.310020" lon="1.680380">
			 <ele>465</ele>
			<time>2016-06-06T01:35:45Z</time>
			</trkpt>
		
			<trkpt lat="45.310030" lon="1.680370">
			 <ele>465</ele>
			<time>2016-06-06T01:37:45Z</time>
			</trkpt>
		
			<trkpt lat="45.310290" lon="1.680260">
			 <ele>464</ele>
			<time>2016-06-06T01:39:45Z</time>
			</trkpt>
		
			<trkpt lat="45.310470" lon="1.680190">
			 <ele>464</ele>
			<time>2016-06-06T01:41:45Z</time>
			</trkpt>
		
			<trkpt lat="45.310560" lon="1.680150">
			 <ele>464</ele>
			<time>2016-06-06T01:43:45Z</time>
			</trkpt>
		
			<trkpt lat="45.310680" lon="1.680090">
			 <ele>463</ele>
			<time>2016-06-06T01:45:45Z</time>
			</trkpt>
		
			<trkpt lat="45.310790" lon="1.680050">
			 <ele>463</ele>
			<time>2016-06-06T01:47:45Z</time>
			</trkpt>
		
			<trkpt lat="45.310950" lon="1.679980">
			 <ele>463</ele>
			<time>2016-06-06T01:49:45Z</time>
			</trkpt>
		
			<trkpt lat="45.311120" lon="1.679930">
			 <ele>463</ele>
			<time>2016-06-06T01:51:45Z</time>
			</trkpt>
		
			<trkpt lat="45.311290" lon="1.679880">
			 <ele>463</ele>
			<time>2016-06-06T01:53:45Z</time>
			</trkpt>
		
			<trkpt lat="45.311450" lon="1.679850">
			 <ele>463</ele>
			<time>2016-06-06T01:55:45Z</time>
			</trkpt>
		
			<trkpt lat="45.311610" lon="1.679820">
			 <ele>463</ele>
			<time>2016-06-06T01:57:45Z</time>
			</trkpt>
		
			<trkpt lat="45.311790" lon="1.679790">
			 <ele>463</ele>
			<time>2016-06-06T01:59:45Z</time>
			</trkpt>
		
			<trkpt lat="45.312040" lon="1.679770">
			 <ele>463</ele>
			<time>2016-06-06T02:01:45Z</time>
			</trkpt>
		
			<trkpt lat="45.312200" lon="1.679750">
			 <ele>463</ele>
			<time>2016-06-06T02:03:45Z</time>
			</trkpt>
		
			<trkpt lat="45.312250" lon="1.679740">
			 <ele>463</ele>
			<time>2016-06-06T02:05:45Z</time>
			</trkpt>
		
			<trkpt lat="45.312370" lon="1.679730">
			 <ele>463</ele>
			<time>2016-06-06T02:07:45Z</time>
			</trkpt>
		
			<trkpt lat="45.312540" lon="1.679700">
			 <ele>464</ele>
			<time>2016-06-06T02:09:45Z</time>
			</trkpt>
		
			<trkpt lat="45.312690" lon="1.679670">
			 <ele>464</ele>
			<time>2016-06-06T02:11:45Z</time>
			</trkpt>
		
			<trkpt lat="45.312830" lon="1.679620">
			 <ele>464</ele>
			<time>2016-06-06T02:13:45Z</time>
			</trkpt>
		
			<trkpt lat="45.313230" lon="1.679470">
			 <ele>466</ele>
			<time>2016-06-06T02:15:45Z</time>
			</trkpt>
		
			<trkpt lat="45.313480" lon="1.679360">
			 <ele>466</ele>
			<time>2016-06-06T02:17:45Z</time>
			</trkpt>
		
			<trkpt lat="45.313690" lon="1.679280">
			 <ele>466</ele>
			<time>2016-06-06T02:19:45Z</time>
			</trkpt>
		
			<trkpt lat="45.313800" lon="1.679240">
			 <ele>466</ele>
			<time>2016-06-06T02:21:45Z</time>
			</trkpt>
		
			<trkpt lat="45.313920" lon="1.679210">
			 <ele>466</ele>
			<time>2016-06-06T02:23:45Z</time>
			</trkpt>
		
			<trkpt lat="45.314050" lon="1.679170">
			 <ele>466</ele>
			<time>2016-06-06T02:25:45Z</time>
			</trkpt>
		
			<trkpt lat="45.314710" lon="1.679100">
			 <ele>465</ele>
			<time>2016-06-06T02:27:45Z</time>
			</trkpt>
		
			<trkpt lat="45.314940" lon="1.679060">
			 <ele>465</ele>
			<time>2016-06-06T02:29:45Z</time>
			</trkpt>
		
			<trkpt lat="45.315120" lon="1.679040">
			 <ele>464</ele>
			<time>2016-06-06T02:31:45Z</time>
			</trkpt>
		
			<trkpt lat="45.315260" lon="1.679040">
			 <ele>462</ele>
			<time>2016-06-06T02:33:45Z</time>
			</trkpt>
		
			<trkpt lat="45.315400" lon="1.679050">
			 <ele>461</ele>
			<time>2016-06-06T02:35:45Z</time>
			</trkpt>
		
			<trkpt lat="45.315530" lon="1.679070">
			 <ele>460</ele>
			<time>2016-06-06T02:37:45Z</time>
			</trkpt>
		
			<trkpt lat="45.315610" lon="1.679100">
			 <ele>460</ele>
			<time>2016-06-06T02:39:45Z</time>
			</trkpt>
		
			<trkpt lat="45.315720" lon="1.679160">
			 <ele>459</ele>
			<time>2016-06-06T02:41:45Z</time>
			</trkpt>
		
			<trkpt lat="45.315820" lon="1.679230">
			 <ele>458</ele>
			<time>2016-06-06T02:43:45Z</time>
			</trkpt>
		
			<trkpt lat="45.315920" lon="1.679320">
			 <ele>458</ele>
			<time>2016-06-06T02:45:45Z</time>
			</trkpt>
		
			<trkpt lat="45.316020" lon="1.679430">
			 <ele>458</ele>
			<time>2016-06-06T02:47:45Z</time>
			</trkpt>
		
			<trkpt lat="45.316190" lon="1.679600">
			 <ele>458</ele>
			<time>2016-06-06T02:49:45Z</time>
			</trkpt>
		
			<trkpt lat="45.316320" lon="1.679710">
			 <ele>458</ele>
			<time>2016-06-06T02:51:45Z</time>
			</trkpt>
		
			<trkpt lat="45.316410" lon="1.679780">
			 <ele>458</ele>
			<time>2016-06-06T02:53:45Z</time>
			</trkpt>
		
			<trkpt lat="45.316500" lon="1.679840">
			 <ele>458</ele>
			<time>2016-06-06T02:55:45Z</time>
			</trkpt>
		
			<trkpt lat="45.316590" lon="1.679880">
			 <ele>458</ele>
			<time>2016-06-06T02:57:45Z</time>
			</trkpt>
		
			<trkpt lat="45.316670" lon="1.679910">
			 <ele>457</ele>
			<time>2016-06-06T02:59:45Z</time>
			</trkpt>
		
			<trkpt lat="45.316690" lon="1.679910">
			 <ele>457</ele>
			<time>2016-06-06T03:01:45Z</time>
			</trkpt>
		
			<trkpt lat="45.316810" lon="1.679940">
			 <ele>457</ele>
			<time>2016-06-06T03:03:45Z</time>
			</trkpt>
		
			<trkpt lat="45.316920" lon="1.679950">
			 <ele>457</ele>
			<time>2016-06-06T03:05:45Z</time>
			</trkpt>
		
			<trkpt lat="45.317030" lon="1.679940">
			 <ele>457</ele>
			<time>2016-06-06T03:07:45Z</time>
			</trkpt>
		
			<trkpt lat="45.317200" lon="1.679920">
			 <ele>456</ele>
			<time>2016-06-06T03:09:45Z</time>
			</trkpt>
		
			<trkpt lat="45.317690" lon="1.679830">
			 <ele>455</ele>
			<time>2016-06-06T03:11:45Z</time>
			</trkpt>
		
			<trkpt lat="45.317890" lon="1.679790">
			 <ele>454</ele>
			<time>2016-06-06T03:13:45Z</time>
			</trkpt>
		
			<trkpt lat="45.318050" lon="1.679750">
			 <ele>454</ele>
			<time>2016-06-06T03:15:45Z</time>
			</trkpt>
		
			<trkpt lat="45.318240" lon="1.679690">
			 <ele>453</ele>
			<time>2016-06-06T03:17:45Z</time>
			</trkpt>
		
			<trkpt lat="45.318590" lon="1.679590">
			 <ele>451</ele>
			<time>2016-06-06T03:19:45Z</time>
			</trkpt>
		
			<trkpt lat="45.318750" lon="1.679530">
			 <ele>450</ele>
			<time>2016-06-06T03:21:45Z</time>
			</trkpt>
		
			<trkpt lat="45.318850" lon="1.679490">
			 <ele>449</ele>
			<time>2016-06-06T03:23:45Z</time>
			</trkpt>
		
			<trkpt lat="45.318940" lon="1.679440">
			 <ele>449</ele>
			<time>2016-06-06T03:25:45Z</time>
			</trkpt>
		
			<trkpt lat="45.319050" lon="1.679370">
			 <ele>448</ele>
			<time>2016-06-06T03:27:45Z</time>
			</trkpt>
		
			<trkpt lat="45.319070" lon="1.679350">
			 <ele>448</ele>
			<time>2016-06-06T03:29:45Z</time>
			</trkpt>
		
			<trkpt lat="45.319250" lon="1.679200">
			 <ele>447</ele>
			<time>2016-06-06T03:31:45Z</time>
			</trkpt>
		
			<trkpt lat="45.319400" lon="1.679050">
			 <ele>446</ele>
			<time>2016-06-06T03:33:45Z</time>
			</trkpt>
		
			<trkpt lat="45.319620" lon="1.678860">
			 <ele>445</ele>
			<time>2016-06-06T03:35:45Z</time>
			</trkpt>
		
			<trkpt lat="45.319710" lon="1.678800">
			 <ele>445</ele>
			<time>2016-06-06T03:37:45Z</time>
			</trkpt>
		
			<trkpt lat="45.319800" lon="1.678740">
			 <ele>445</ele>
			<time>2016-06-06T03:39:45Z</time>
			</trkpt>
		
			<trkpt lat="45.319890" lon="1.678700">
			 <ele>445</ele>
			<time>2016-06-06T03:41:45Z</time>
			</trkpt>
		
			<trkpt lat="45.319960" lon="1.678670">
			 <ele>445</ele>
			<time>2016-06-06T03:43:45Z</time>
			</trkpt>
		
			<trkpt lat="45.320000" lon="1.678670">
			 <ele>445</ele>
			<time>2016-06-06T03:45:45Z</time>
			</trkpt>
		
			<trkpt lat="45.320110" lon="1.678650">
			 <ele>445</ele>
			<time>2016-06-06T03:47:45Z</time>
			</trkpt>
		
			<trkpt lat="45.320230" lon="1.678650">
			 <ele>444</ele>
			<time>2016-06-06T03:49:45Z</time>
			</trkpt>
		
			<trkpt lat="45.320500" lon="1.678670">
			 <ele>444</ele>
			<time>2016-06-06T03:51:45Z</time>
			</trkpt>
		
			<trkpt lat="45.320750" lon="1.678700">
			 <ele>444</ele>
			<time>2016-06-06T03:53:45Z</time>
			</trkpt>
		
			<trkpt lat="45.320870" lon="1.678700">
			 <ele>444</ele>
			<time>2016-06-06T03:55:45Z</time>
			</trkpt>
		
			<trkpt lat="45.320920" lon="1.678700">
			 <ele>444</ele>
			<time>2016-06-06T03:57:45Z</time>
			</trkpt>
		
			<trkpt lat="45.320990" lon="1.678700">
			 <ele>444</ele>
			<time>2016-06-06T03:59:45Z</time>
			</trkpt>
		
			<trkpt lat="45.321090" lon="1.678690">
			 <ele>444</ele>
			<time>2016-06-06T04:01:45Z</time>
			</trkpt>
		
			<trkpt lat="45.321220" lon="1.678660">
			 <ele>444</ele>
			<time>2016-06-06T04:03:45Z</time>
			</trkpt>
		
			<trkpt lat="45.321340" lon="1.678630">
			 <ele>443</ele>
			<time>2016-06-06T04:05:45Z</time>
			</trkpt>
		
			<trkpt lat="45.321400" lon="1.678610">
			 <ele>443</ele>
			<time>2016-06-06T04:07:45Z</time>
			</trkpt>
		
			<trkpt lat="45.321510" lon="1.678580">
			 <ele>443</ele>
			<time>2016-06-06T04:09:45Z</time>
			</trkpt>
		
			<trkpt lat="45.321710" lon="1.678530">
			 <ele>442</ele>
			<time>2016-06-06T04:11:45Z</time>
			</trkpt>
		
			<trkpt lat="45.321850" lon="1.678510">
			 <ele>441</ele>
			<time>2016-06-06T04:13:45Z</time>
			</trkpt>
		
			<trkpt lat="45.321980" lon="1.678490">
			 <ele>441</ele>
			<time>2016-06-06T04:15:45Z</time>
			</trkpt>
		
			<trkpt lat="45.322090" lon="1.678490">
			 <ele>440</ele>
			<time>2016-06-06T04:17:45Z</time>
			</trkpt>
		
			<trkpt lat="45.322180" lon="1.678500">
			 <ele>440</ele>
			<time>2016-06-06T04:19:45Z</time>
			</trkpt>
		
			<trkpt lat="45.322200" lon="1.678500">
			 <ele>440</ele>
			<time>2016-06-06T04:21:45Z</time>
			</trkpt>
		
			<trkpt lat="45.322280" lon="1.678530">
			 <ele>439</ele>
			<time>2016-06-06T04:23:45Z</time>
			</trkpt>
		
			<trkpt lat="45.322380" lon="1.678570">
			 <ele>439</ele>
			<time>2016-06-06T04:25:45Z</time>
			</trkpt>
		
			<trkpt lat="45.322410" lon="1.678580">
			 <ele>439</ele>
			<time>2016-06-06T04:27:45Z</time>
			</trkpt>
		
			<trkpt lat="45.322490" lon="1.678630">
			 <ele>439</ele>
			<time>2016-06-06T04:29:45Z</time>
			</trkpt>
		
			<trkpt lat="45.322590" lon="1.678710">
			 <ele>439</ele>
			<time>2016-06-06T04:31:45Z</time>
			</trkpt>
		
			<trkpt lat="45.322670" lon="1.678800">
			 <ele>439</ele>
			<time>2016-06-06T04:33:45Z</time>
			</trkpt>
		
			<trkpt lat="45.322760" lon="1.678900">
			 <ele>439</ele>
			<time>2016-06-06T04:35:45Z</time>
			</trkpt>
		
			<trkpt lat="45.322850" lon="1.679020">
			 <ele>439</ele>
			<time>2016-06-06T04:37:45Z</time>
			</trkpt>
		
			<trkpt lat="45.322980" lon="1.679170">
			 <ele>438</ele>
			<time>2016-06-06T04:39:45Z</time>
			</trkpt>
		
			<trkpt lat="45.323100" lon="1.679340">
			 <ele>437</ele>
			<time>2016-06-06T04:41:45Z</time>
			</trkpt>
		
			<trkpt lat="45.323220" lon="1.679510">
			 <ele>436</ele>
			<time>2016-06-06T04:43:45Z</time>
			</trkpt>
		
			<trkpt lat="45.323240" lon="1.679540">
			 <ele>435</ele>
			<time>2016-06-06T04:45:45Z</time>
			</trkpt>
		
			<trkpt lat="45.323370" lon="1.679680">
			 <ele>434</ele>
			<time>2016-06-06T04:47:45Z</time>
			</trkpt>
		
			<trkpt lat="45.323510" lon="1.679830">
			 <ele>434</ele>
			<time>2016-06-06T04:49:45Z</time>
			</trkpt>
		
			<trkpt lat="45.323640" lon="1.679940">
			 <ele>433</ele>
			<time>2016-06-06T04:51:45Z</time>
			</trkpt>
		
			<trkpt lat="45.323700" lon="1.679980">
			 <ele>433</ele>
			<time>2016-06-06T04:53:45Z</time>
			</trkpt>
		
			<trkpt lat="45.323810" lon="1.680060">
			 <ele>433</ele>
			<time>2016-06-06T04:55:45Z</time>
			</trkpt>
		
			<trkpt lat="45.323990" lon="1.680180">
			 <ele>432</ele>
			<time>2016-06-06T04:57:45Z</time>
			</trkpt>
		
			<trkpt lat="45.324210" lon="1.680310">
			 <ele>430</ele>
			<time>2016-06-06T04:59:45Z</time>
			</trkpt>
		
			<trkpt lat="45.324440" lon="1.680450">
			 <ele>430</ele>
			<time>2016-06-06T05:01:45Z</time>
			</trkpt>
		
			<trkpt lat="45.324550" lon="1.680520">
			 <ele>430</ele>
			<time>2016-06-06T05:03:45Z</time>
			</trkpt>
		
			<trkpt lat="45.324750" lon="1.680650">
			 <ele>430</ele>
			<time>2016-06-06T05:05:45Z</time>
			</trkpt>
		
			<trkpt lat="45.324860" lon="1.680730">
			 <ele>430</ele>
			<time>2016-06-06T05:07:45Z</time>
			</trkpt>
		
			<trkpt lat="45.325000" lon="1.680830">
			 <ele>430</ele>
			<time>2016-06-06T05:09:45Z</time>
			</trkpt>
		
			<trkpt lat="45.325140" lon="1.680910">
			 <ele>429</ele>
			<time>2016-06-06T05:11:45Z</time>
			</trkpt>
		
			<trkpt lat="45.325450" lon="1.681110">
			 <ele>429</ele>
			<time>2016-06-06T05:13:45Z</time>
			</trkpt>
		
			<trkpt lat="45.325600" lon="1.681210">
			 <ele>429</ele>
			<time>2016-06-06T05:15:45Z</time>
			</trkpt>
		
			<trkpt lat="45.325720" lon="1.681280">
			 <ele>429</ele>
			<time>2016-06-06T05:17:45Z</time>
			</trkpt>
		
			<trkpt lat="45.325780" lon="1.681320">
			 <ele>429</ele>
			<time>2016-06-06T05:19:45Z</time>
			</trkpt>
		
			<trkpt lat="45.325900" lon="1.681390">
			 <ele>429</ele>
			<time>2016-06-06T05:21:45Z</time>
			</trkpt>
		
			<trkpt lat="45.325980" lon="1.681430">
			 <ele>430</ele>
			<time>2016-06-06T05:23:45Z</time>
			</trkpt>
		
			<trkpt lat="45.326090" lon="1.681470">
			 <ele>430</ele>
			<time>2016-06-06T05:25:45Z</time>
			</trkpt>
		
			<trkpt lat="45.326210" lon="1.681510">
			 <ele>430</ele>
			<time>2016-06-06T05:27:45Z</time>
			</trkpt>
		
			<trkpt lat="45.326330" lon="1.681530">
			 <ele>431</ele>
			<time>2016-06-06T05:29:45Z</time>
			</trkpt>
		
			<trkpt lat="45.326450" lon="1.681540">
			 <ele>431</ele>
			<time>2016-06-06T05:31:45Z</time>
			</trkpt>
		
			<trkpt lat="45.326580" lon="1.681540">
			 <ele>431</ele>
			<time>2016-06-06T05:33:45Z</time>
			</trkpt>
		
			<trkpt lat="45.326760" lon="1.681530">
			 <ele>432</ele>
			<time>2016-06-06T05:35:45Z</time>
			</trkpt>
		
			<trkpt lat="45.326940" lon="1.681500">
			 <ele>434</ele>
			<time>2016-06-06T05:37:45Z</time>
			</trkpt>
		
			<trkpt lat="45.326980" lon="1.681490">
			 <ele>434</ele>
			<time>2016-06-06T05:39:45Z</time>
			</trkpt>
		
			<trkpt lat="45.327180" lon="1.681440">
			 <ele>436</ele>
			<time>2016-06-06T05:41:45Z</time>
			</trkpt>
		
			<trkpt lat="45.327320" lon="1.681400">
			 <ele>437</ele>
			<time>2016-06-06T05:43:45Z</time>
			</trkpt>
		
			<trkpt lat="45.327440" lon="1.681390">
			 <ele>438</ele>
			<time>2016-06-06T05:45:45Z</time>
			</trkpt>
		
			<trkpt lat="45.327540" lon="1.681380">
			 <ele>438</ele>
			<time>2016-06-06T05:47:45Z</time>
			</trkpt>
		
			<trkpt lat="45.327660" lon="1.681390">
			 <ele>439</ele>
			<time>2016-06-06T05:49:45Z</time>
			</trkpt>
		
			<trkpt lat="45.327770" lon="1.681410">
			 <ele>440</ele>
			<time>2016-06-06T05:51:45Z</time>
			</trkpt>
		
			<trkpt lat="45.327790" lon="1.681410">
			 <ele>440</ele>
			<time>2016-06-06T05:53:45Z</time>
			</trkpt>
		
			<trkpt lat="45.327890" lon="1.681450">
			 <ele>440</ele>
			<time>2016-06-06T05:55:45Z</time>
			</trkpt>
		
			<trkpt lat="45.328010" lon="1.681520">
			 <ele>441</ele>
			<time>2016-06-06T05:57:45Z</time>
			</trkpt>
		
			<trkpt lat="45.328070" lon="1.681560">
			 <ele>442</ele>
			<time>2016-06-06T05:59:45Z</time>
			</trkpt>
		
			<trkpt lat="45.328120" lon="1.681600">
			 <ele>442</ele>
			<time>2016-06-06T06:01:45Z</time>
			</trkpt>
		
			<trkpt lat="45.328210" lon="1.681680">
			 <ele>443</ele>
			<time>2016-06-06T06:03:45Z</time>
			</trkpt>
		
			<trkpt lat="45.328300" lon="1.681790">
			 <ele>443</ele>
			<time>2016-06-06T06:05:45Z</time>
			</trkpt>
		
			<trkpt lat="45.328390" lon="1.681900">
			 <ele>444</ele>
			<time>2016-06-06T06:07:45Z</time>
			</trkpt>
		
			<trkpt lat="45.328460" lon="1.682040">
			 <ele>445</ele>
			<time>2016-06-06T06:09:45Z</time>
			</trkpt>
		
			<trkpt lat="45.328530" lon="1.682190">
			 <ele>445</ele>
			<time>2016-06-06T06:11:45Z</time>
			</trkpt>
		
			<trkpt lat="45.328610" lon="1.682360">
			 <ele>445</ele>
			<time>2016-06-06T06:13:45Z</time>
			</trkpt>
		
			<trkpt lat="45.328680" lon="1.682540">
			 <ele>446</ele>
			<time>2016-06-06T06:15:45Z</time>
			</trkpt>
		
			<trkpt lat="45.328760" lon="1.682680">
			 <ele>445</ele>
			<time>2016-06-06T06:17:45Z</time>
			</trkpt>
		
			<trkpt lat="45.328840" lon="1.682810">
			 <ele>445</ele>
			<time>2016-06-06T06:19:45Z</time>
			</trkpt>
		
			<trkpt lat="45.328910" lon="1.682910">
			 <ele>444</ele>
			<time>2016-06-06T06:21:45Z</time>
			</trkpt>
		
			<trkpt lat="45.329000" lon="1.683010">
			 <ele>443</ele>
			<time>2016-06-06T06:23:45Z</time>
			</trkpt>
		
			<trkpt lat="45.329080" lon="1.683080">
			 <ele>442</ele>
			<time>2016-06-06T06:25:45Z</time>
			</trkpt>
		
			<trkpt lat="45.329160" lon="1.683160">
			 <ele>441</ele>
			<time>2016-06-06T06:27:45Z</time>
			</trkpt>
		
			<trkpt lat="45.329250" lon="1.683210">
			 <ele>440</ele>
			<time>2016-06-06T06:29:45Z</time>
			</trkpt>
		
			<trkpt lat="45.329280" lon="1.683230">
			 <ele>440</ele>
			<time>2016-06-06T06:31:45Z</time>
			</trkpt>
		
			<trkpt lat="45.329370" lon="1.683260">
			 <ele>439</ele>
			<time>2016-06-06T06:33:45Z</time>
			</trkpt>
		
			<trkpt lat="45.329480" lon="1.683290">
			 <ele>438</ele>
			<time>2016-06-06T06:35:45Z</time>
			</trkpt>
		
			<trkpt lat="45.329610" lon="1.683300">
			 <ele>437</ele>
			<time>2016-06-06T06:37:45Z</time>
			</trkpt>
		
			<trkpt lat="45.329720" lon="1.683300">
			 <ele>436</ele>
			<time>2016-06-06T06:39:45Z</time>
			</trkpt>
		
			<trkpt lat="45.329850" lon="1.683270">
			 <ele>435</ele>
			<time>2016-06-06T06:41:45Z</time>
			</trkpt>
		
			<trkpt lat="45.329980" lon="1.683230">
			 <ele>434</ele>
			<time>2016-06-06T06:43:45Z</time>
			</trkpt>
		
			<trkpt lat="45.330120" lon="1.683140">
			 <ele>434</ele>
			<time>2016-06-06T06:45:45Z</time>
			</trkpt>
		
			<trkpt lat="45.330280" lon="1.683030">
			 <ele>434</ele>
			<time>2016-06-06T06:47:45Z</time>
			</trkpt>
		
			<trkpt lat="45.330440" lon="1.682880">
			 <ele>433</ele>
			<time>2016-06-06T06:49:45Z</time>
			</trkpt>
		
			<trkpt lat="45.330650" lon="1.682670">
			 <ele>431</ele>
			<time>2016-06-06T06:51:45Z</time>
			</trkpt>
		
			<trkpt lat="45.330870" lon="1.682470">
			 <ele>429</ele>
			<time>2016-06-06T06:53:45Z</time>
			</trkpt>
		
			<trkpt lat="45.331000" lon="1.682350">
			 <ele>428</ele>
			<time>2016-06-06T06:55:45Z</time>
			</trkpt>
		
			<trkpt lat="45.331100" lon="1.682230">
			 <ele>428</ele>
			<time>2016-06-06T06:57:45Z</time>
			</trkpt>
		
			<trkpt lat="45.331210" lon="1.682090">
			 <ele>427</ele>
			<time>2016-06-06T06:59:45Z</time>
			</trkpt>
		
			<trkpt lat="45.331350" lon="1.681880">
			 <ele>425</ele>
			<time>2016-06-06T07:01:45Z</time>
			</trkpt>
		
			<trkpt lat="45.331490" lon="1.681620">
			 <ele>424</ele>
			<time>2016-06-06T07:03:45Z</time>
			</trkpt>
		
			<trkpt lat="45.331690" lon="1.681240">
			 <ele>423</ele>
			<time>2016-06-06T07:05:45Z</time>
			</trkpt>
		
			<trkpt lat="45.331870" lon="1.680870">
			 <ele>423</ele>
			<time>2016-06-06T07:07:45Z</time>
			</trkpt>
		
			<trkpt lat="45.331890" lon="1.680840">
			 <ele>423</ele>
			<time>2016-06-06T07:09:45Z</time>
			</trkpt>
		
			<trkpt lat="45.332090" lon="1.680440">
			 <ele>422</ele>
			<time>2016-06-06T07:11:45Z</time>
			</trkpt>
		
			<trkpt lat="45.332200" lon="1.680240">
			 <ele>422</ele>
			<time>2016-06-06T07:13:45Z</time>
			</trkpt>
		
			<trkpt lat="45.332270" lon="1.680130">
			 <ele>421</ele>
			<time>2016-06-06T07:15:45Z</time>
			</trkpt>
		
			<trkpt lat="45.332330" lon="1.680040">
			 <ele>421</ele>
			<time>2016-06-06T07:17:45Z</time>
			</trkpt>
		
			<trkpt lat="45.332420" lon="1.679950">
			 <ele>421</ele>
			<time>2016-06-06T07:19:45Z</time>
			</trkpt>
		
			<trkpt lat="45.332520" lon="1.679870">
			 <ele>420</ele>
			<time>2016-06-06T07:21:45Z</time>
			</trkpt>
		
			<trkpt lat="45.332630" lon="1.679800">
			 <ele>419</ele>
			<time>2016-06-06T07:23:45Z</time>
			</trkpt>
		
			<trkpt lat="45.332720" lon="1.679750">
			 <ele>419</ele>
			<time>2016-06-06T07:25:45Z</time>
			</trkpt>
		
			<trkpt lat="45.332810" lon="1.679720">
			 <ele>418</ele>
			<time>2016-06-06T07:27:45Z</time>
			</trkpt>
		
			<trkpt lat="45.332910" lon="1.679700">
			 <ele>418</ele>
			<time>2016-06-06T07:29:45Z</time>
			</trkpt>
		
			<trkpt lat="45.333000" lon="1.679700">
			 <ele>418</ele>
			<time>2016-06-06T07:31:45Z</time>
			</trkpt>
		
			<trkpt lat="45.333140" lon="1.679710">
			 <ele>417</ele>
			<time>2016-06-06T07:33:45Z</time>
			</trkpt>
		
			<trkpt lat="45.333350" lon="1.679730">
			 <ele>417</ele>
			<time>2016-06-06T07:35:45Z</time>
			</trkpt>
		
			<trkpt lat="45.333550" lon="1.679760">
			 <ele>416</ele>
			<time>2016-06-06T07:37:45Z</time>
			</trkpt>
		
			<trkpt lat="45.333730" lon="1.679780">
			 <ele>415</ele>
			<time>2016-06-06T07:39:45Z</time>
			</trkpt>
		
			<trkpt lat="45.333890" lon="1.679820">
			 <ele>415</ele>
			<time>2016-06-06T07:41:45Z</time>
			</trkpt>
		
			<trkpt lat="45.333980" lon="1.679830">
			 <ele>414</ele>
			<time>2016-06-06T07:43:45Z</time>
			</trkpt>
		
			<trkpt lat="45.334060" lon="1.679870">
			 <ele>414</ele>
			<time>2016-06-06T07:45:45Z</time>
			</trkpt>
		
			<trkpt lat="45.334140" lon="1.679920">
			 <ele>414</ele>
			<time>2016-06-06T07:47:45Z</time>
			</trkpt>
		
			<trkpt lat="45.334220" lon="1.679980">
			 <ele>414</ele>
			<time>2016-06-06T07:49:45Z</time>
			</trkpt>
		
			<trkpt lat="45.334300" lon="1.680050">
			 <ele>413</ele>
			<time>2016-06-06T07:51:45Z</time>
			</trkpt>
		
			<trkpt lat="45.334410" lon="1.680140">
			 <ele>413</ele>
			<time>2016-06-06T07:53:45Z</time>
			</trkpt>
		
			<trkpt lat="45.334490" lon="1.680210">
			 <ele>413</ele>
			<time>2016-06-06T07:55:45Z</time>
			</trkpt>
		
			<trkpt lat="45.334550" lon="1.680250">
			 <ele>412</ele>
			<time>2016-06-06T07:57:45Z</time>
			</trkpt>
		
			<trkpt lat="45.334630" lon="1.680310">
			 <ele>412</ele>
			<time>2016-06-06T07:59:45Z</time>
			</trkpt>
		
			<trkpt lat="45.334720" lon="1.680380">
			 <ele>411</ele>
			<time>2016-06-06T08:01:45Z</time>
			</trkpt>
		
			<trkpt lat="45.334880" lon="1.680470">
			 <ele>409</ele>
			<time>2016-06-06T08:03:45Z</time>
			</trkpt>
		
			<trkpt lat="45.335090" lon="1.680590">
			 <ele>407</ele>
			<time>2016-06-06T08:05:45Z</time>
			</trkpt>
		
			<trkpt lat="45.335120" lon="1.680600">
			 <ele>407</ele>
			<time>2016-06-06T08:07:45Z</time>
			</trkpt>
		
			<trkpt lat="45.335190" lon="1.680640">
			 <ele>407</ele>
			<time>2016-06-06T08:09:45Z</time>
			</trkpt>
		
			<trkpt lat="45.335360" lon="1.680730">
			 <ele>407</ele>
			<time>2016-06-06T08:11:45Z</time>
			</trkpt>
		
			<trkpt lat="45.335450" lon="1.680780">
			 <ele>406</ele>
			<time>2016-06-06T08:13:45Z</time>
			</trkpt>
		
			<trkpt lat="45.335600" lon="1.680870">
			 <ele>406</ele>
			<time>2016-06-06T08:15:45Z</time>
			</trkpt>
		
			<trkpt lat="45.335630" lon="1.680880">
			 <ele>406</ele>
			<time>2016-06-06T08:17:45Z</time>
			</trkpt>
		
			<trkpt lat="45.336030" lon="1.681100">
			 <ele>407</ele>
			<time>2016-06-06T08:19:45Z</time>
			</trkpt>
		
			<trkpt lat="45.336290" lon="1.681230">
			 <ele>407</ele>
			<time>2016-06-06T08:21:45Z</time>
			</trkpt>
		
			<trkpt lat="45.336330" lon="1.681250">
			 <ele>408</ele>
			<time>2016-06-06T08:23:45Z</time>
			</trkpt>
		
			<trkpt lat="45.336700" lon="1.681440">
			 <ele>409</ele>
			<time>2016-06-06T08:25:45Z</time>
			</trkpt>
		
			<trkpt lat="45.337230" lon="1.681720">
			 <ele>412</ele>
			<time>2016-06-06T08:27:45Z</time>
			</trkpt>
		
			<trkpt lat="45.337620" lon="1.681930">
			 <ele>414</ele>
			<time>2016-06-06T08:29:45Z</time>
			</trkpt>
		
			<trkpt lat="45.337830" lon="1.682040">
			 <ele>415</ele>
			<time>2016-06-06T08:31:45Z</time>
			</trkpt>
		
			<trkpt lat="45.337860" lon="1.682050">
			 <ele>416</ele>
			<time>2016-06-06T08:33:45Z</time>
			</trkpt>
		
			<trkpt lat="45.338150" lon="1.682210">
			 <ele>418</ele>
			<time>2016-06-06T08:35:45Z</time>
			</trkpt>
		
			<trkpt lat="45.338430" lon="1.682350">
			 <ele>420</ele>
			<time>2016-06-06T08:37:45Z</time>
			</trkpt>
		
			<trkpt lat="45.338760" lon="1.682520">
			 <ele>423</ele>
			<time>2016-06-06T08:39:45Z</time>
			</trkpt>
		
			<trkpt lat="45.339020" lon="1.682640">
			 <ele>425</ele>
			<time>2016-06-06T08:41:45Z</time>
			</trkpt>
		
			<trkpt lat="45.339260" lon="1.682770">
			 <ele>426</ele>
			<time>2016-06-06T08:43:45Z</time>
			</trkpt>
		
			<trkpt lat="45.339350" lon="1.682820">
			 <ele>427</ele>
			<time>2016-06-06T08:45:45Z</time>
			</trkpt>
		
			<trkpt lat="45.339450" lon="1.682880">
			 <ele>428</ele>
			<time>2016-06-06T08:47:45Z</time>
			</trkpt>
		
			<trkpt lat="45.339500" lon="1.682920">
			 <ele>428</ele>
			<time>2016-06-06T08:49:45Z</time>
			</trkpt>
		
			<trkpt lat="45.339540" lon="1.682960">
			 <ele>429</ele>
			<time>2016-06-06T08:51:45Z</time>
			</trkpt>
		
			<trkpt lat="45.339640" lon="1.683060">
			 <ele>429</ele>
			<time>2016-06-06T08:53:45Z</time>
			</trkpt>
		
			<trkpt lat="45.339750" lon="1.683200">
			 <ele>430</ele>
			<time>2016-06-06T08:55:45Z</time>
			</trkpt>
		
			<trkpt lat="45.339860" lon="1.683330">
			 <ele>431</ele>
			<time>2016-06-06T08:57:45Z</time>
			</trkpt>
		
			<trkpt lat="45.339960" lon="1.683460">
			 <ele>431</ele>
			<time>2016-06-06T08:59:45Z</time>
			</trkpt>
		
			<trkpt lat="45.340060" lon="1.683570">
			 <ele>432</ele>
			<time>2016-06-06T09:01:45Z</time>
			</trkpt>
		
			<trkpt lat="45.340120" lon="1.683620">
			 <ele>432</ele>
			<time>2016-06-06T09:03:45Z</time>
			</trkpt>
		
			<trkpt lat="45.340150" lon="1.683650">
			 <ele>432</ele>
			<time>2016-06-06T09:05:45Z</time>
			</trkpt>
		
			<trkpt lat="45.340230" lon="1.683690">
			 <ele>432</ele>
			<time>2016-06-06T09:07:45Z</time>
			</trkpt>
		
			<trkpt lat="45.340300" lon="1.683720">
			 <ele>432</ele>
			<time>2016-06-06T09:09:45Z</time>
			</trkpt>
		
			<trkpt lat="45.340440" lon="1.683780">
			 <ele>432</ele>
			<time>2016-06-06T09:11:45Z</time>
			</trkpt>
		
			<trkpt lat="45.340560" lon="1.683820">
			 <ele>432</ele>
			<time>2016-06-06T09:13:45Z</time>
			</trkpt>
		
			<trkpt lat="45.340690" lon="1.683870">
			 <ele>433</ele>
			<time>2016-06-06T09:15:45Z</time>
			</trkpt>
		
			<trkpt lat="45.340800" lon="1.683940">
			 <ele>433</ele>
			<time>2016-06-06T09:17:45Z</time>
			</trkpt>
		
			<trkpt lat="45.340880" lon="1.684010">
			 <ele>433</ele>
			<time>2016-06-06T09:19:45Z</time>
			</trkpt>
		
			<trkpt lat="45.341010" lon="1.684150">
			 <ele>433</ele>
			<time>2016-06-06T09:21:45Z</time>
			</trkpt>
		
			<trkpt lat="45.341080" lon="1.684250">
			 <ele>433</ele>
			<time>2016-06-06T09:23:45Z</time>
			</trkpt>
		
			<trkpt lat="45.341120" lon="1.684300">
			 <ele>433</ele>
			<time>2016-06-06T09:25:45Z</time>
			</trkpt>
		
			<trkpt lat="45.341200" lon="1.684350">
			 <ele>433</ele>
			<time>2016-06-06T09:27:45Z</time>
			</trkpt>
		
			<trkpt lat="45.341250" lon="1.684370">
			 <ele>433</ele>
			<time>2016-06-06T09:29:45Z</time>
			</trkpt>
		
			<trkpt lat="45.341270" lon="1.684420">
			 <ele>433</ele>
			<time>2016-06-06T09:31:45Z</time>
			</trkpt>
		
			<trkpt lat="45.341280" lon="1.684430">
			 <ele>433</ele>
			<time>2016-06-06T09:33:45Z</time>
			</trkpt>
		
			<trkpt lat="45.341310" lon="1.684460">
			 <ele>433</ele>
			<time>2016-06-06T09:35:45Z</time>
			</trkpt>
		
			<trkpt lat="45.341360" lon="1.684470">
			 <ele>433</ele>
			<time>2016-06-06T09:37:45Z</time>
			</trkpt>
		
			<trkpt lat="45.341400" lon="1.684470">
			 <ele>434</ele>
			<time>2016-06-06T09:39:45Z</time>
			</trkpt>
		
			<trkpt lat="45.341410" lon="1.684460">
			 <ele>434</ele>
			<time>2016-06-06T09:41:45Z</time>
			</trkpt>
		
			<trkpt lat="45.341440" lon="1.684450">
			 <ele>434</ele>
			<time>2016-06-06T09:43:45Z</time>
			</trkpt>
		
			<trkpt lat="45.341470" lon="1.684400">
			 <ele>434</ele>
			<time>2016-06-06T09:45:45Z</time>
			</trkpt>
		
			<trkpt lat="45.341480" lon="1.684350">
			 <ele>434</ele>
			<time>2016-06-06T09:47:45Z</time>
			</trkpt>
		
			<trkpt lat="45.341530" lon="1.684320">
			 <ele>434</ele>
			<time>2016-06-06T09:49:45Z</time>
			</trkpt>
		
			<trkpt lat="45.341570" lon="1.684310">
			 <ele>435</ele>
			<time>2016-06-06T09:51:45Z</time>
			</trkpt>
		
			<trkpt lat="45.341640" lon="1.684310">
			 <ele>435</ele>
			<time>2016-06-06T09:53:45Z</time>
			</trkpt>
		
			<trkpt lat="45.341720" lon="1.684320">
			 <ele>436</ele>
			<time>2016-06-06T09:55:45Z</time>
			</trkpt>
		
			<trkpt lat="45.341730" lon="1.684330">
			 <ele>436</ele>
			<time>2016-06-06T09:57:45Z</time>
			</trkpt>
		
			<trkpt lat="45.341830" lon="1.684430">
			 <ele>437</ele>
			<time>2016-06-06T09:59:45Z</time>
			</trkpt>
		
			<trkpt lat="45.342020" lon="1.684640">
			 <ele>439</ele>
			<time>2016-06-06T10:01:45Z</time>
			</trkpt>
		
			<trkpt lat="45.342340" lon="1.684980">
			 <ele>442</ele>
			<time>2016-06-06T10:03:45Z</time>
			</trkpt>
		
			<trkpt lat="45.342600" lon="1.685270">
			 <ele>445</ele>
			<time>2016-06-06T10:05:45Z</time>
			</trkpt>
		
			<trkpt lat="45.342800" lon="1.685490">
			 <ele>446</ele>
			<time>2016-06-06T10:07:45Z</time>
			</trkpt>
		
			<trkpt lat="45.342920" lon="1.685610">
			 <ele>446</ele>
			<time>2016-06-06T10:09:45Z</time>
			</trkpt>
		
			<trkpt lat="45.343060" lon="1.685720">
			 <ele>447</ele>
			<time>2016-06-06T10:11:45Z</time>
			</trkpt>
		
			<trkpt lat="45.343170" lon="1.685780">
			 <ele>447</ele>
			<time>2016-06-06T10:13:45Z</time>
			</trkpt>
		
			<trkpt lat="45.343300" lon="1.685830">
			 <ele>448</ele>
			<time>2016-06-06T10:15:45Z</time>
			</trkpt>
		
			<trkpt lat="45.343440" lon="1.685870">
			 <ele>448</ele>
			<time>2016-06-06T10:17:45Z</time>
			</trkpt>
		
			<trkpt lat="45.343650" lon="1.685910">
			 <ele>449</ele>
			<time>2016-06-06T10:19:45Z</time>
			</trkpt>
		
			<trkpt lat="45.343850" lon="1.685920">
			 <ele>449</ele>
			<time>2016-06-06T10:21:45Z</time>
			</trkpt>
		
			<trkpt lat="45.344040" lon="1.685970">
			 <ele>450</ele>
			<time>2016-06-06T10:23:45Z</time>
			</trkpt>
		
			<trkpt lat="45.344200" lon="1.686000">
			 <ele>450</ele>
			<time>2016-06-06T10:25:45Z</time>
			</trkpt>
		
			<trkpt lat="45.344210" lon="1.686000">
			 <ele>450</ele>
			<time>2016-06-06T10:27:45Z</time>
			</trkpt>
		
			<trkpt lat="45.344250" lon="1.686020">
			 <ele>450</ele>
			<time>2016-06-06T10:29:45Z</time>
			</trkpt>
		
			<trkpt lat="45.344340" lon="1.686060">
			 <ele>450</ele>
			<time>2016-06-06T10:31:45Z</time>
			</trkpt>
		
			<trkpt lat="45.344490" lon="1.686130">
			 <ele>451</ele>
			<time>2016-06-06T10:33:45Z</time>
			</trkpt>
		
			<trkpt lat="45.344640" lon="1.686240">
			 <ele>452</ele>
			<time>2016-06-06T10:35:45Z</time>
			</trkpt>
		
			<trkpt lat="45.344660" lon="1.686250">
			 <ele>452</ele>
			<time>2016-06-06T10:37:45Z</time>
			</trkpt>
		
			<trkpt lat="45.344700" lon="1.686280">
			 <ele>452</ele>
			<time>2016-06-06T10:39:45Z</time>
			</trkpt>
		
			<trkpt lat="45.344780" lon="1.686360">
			 <ele>453</ele>
			<time>2016-06-06T10:41:45Z</time>
			</trkpt>
		
			<trkpt lat="45.344900" lon="1.686510">
			 <ele>454</ele>
			<time>2016-06-06T10:43:45Z</time>
			</trkpt>
		
			<trkpt lat="45.345010" lon="1.686700">
			 <ele>455</ele>
			<time>2016-06-06T10:45:45Z</time>
			</trkpt>
		
			<trkpt lat="45.345100" lon="1.686930">
			 <ele>457</ele>
			<time>2016-06-06T10:47:45Z</time>
			</trkpt>
		
			<trkpt lat="45.345120" lon="1.686990">
			 <ele>457</ele>
			<time>2016-06-06T10:49:45Z</time>
			</trkpt>
		
			<trkpt lat="45.345180" lon="1.687180">
			 <ele>458</ele>
			<time>2016-06-06T10:51:45Z</time>
			</trkpt>
		
			<trkpt lat="45.345290" lon="1.687620">
			 <ele>461</ele>
			<time>2016-06-06T10:53:45Z</time>
			</trkpt>
		
			<trkpt lat="45.345380" lon="1.688070">
			 <ele>464</ele>
			<time>2016-06-06T10:55:45Z</time>
			</trkpt>
		
			<trkpt lat="45.345480" lon="1.688630">
			 <ele>466</ele>
			<time>2016-06-06T10:57:45Z</time>
			</trkpt>
		
			<trkpt lat="45.345670" lon="1.689570">
			 <ele>470</ele>
			<time>2016-06-06T10:59:45Z</time>
			</trkpt>
		
			<trkpt lat="45.345820" lon="1.690340">
			 <ele>473</ele>
			<time>2016-06-06T11:01:45Z</time>
			</trkpt>
		
			<trkpt lat="45.345900" lon="1.690790">
			 <ele>476</ele>
			<time>2016-06-06T11:03:45Z</time>
			</trkpt>
		
			<trkpt lat="45.345940" lon="1.691050">
			 <ele>478</ele>
			<time>2016-06-06T11:05:45Z</time>
			</trkpt>
		
			<trkpt lat="45.345950" lon="1.691180">
			 <ele>479</ele>
			<time>2016-06-06T11:07:45Z</time>
			</trkpt>
		
			<trkpt lat="45.345960" lon="1.691400">
			 <ele>481</ele>
			<time>2016-06-06T11:09:45Z</time>
			</trkpt>
		
			<trkpt lat="45.345970" lon="1.691590">
			 <ele>482</ele>
			<time>2016-06-06T11:11:45Z</time>
			</trkpt>
		
			<trkpt lat="45.345960" lon="1.691830">
			 <ele>484</ele>
			<time>2016-06-06T11:13:45Z</time>
			</trkpt>
		
			<trkpt lat="45.345930" lon="1.692100">
			 <ele>485</ele>
			<time>2016-06-06T11:15:45Z</time>
			</trkpt>
		
			<trkpt lat="45.345840" lon="1.692970">
			 <ele>487</ele>
			<time>2016-06-06T11:17:45Z</time>
			</trkpt>
		
			<trkpt lat="45.345820" lon="1.693220">
			 <ele>488</ele>
			<time>2016-06-06T11:19:45Z</time>
			</trkpt>
		
			<trkpt lat="45.345810" lon="1.693330">
			 <ele>488</ele>
			<time>2016-06-06T11:21:45Z</time>
			</trkpt>
		
			<trkpt lat="45.345810" lon="1.693440">
			 <ele>488</ele>
			<time>2016-06-06T11:23:45Z</time>
			</trkpt>
		
			<trkpt lat="45.345810" lon="1.693550">
			 <ele>489</ele>
			<time>2016-06-06T11:25:45Z</time>
			</trkpt>
		
			<trkpt lat="45.345830" lon="1.693730">
			 <ele>489</ele>
			<time>2016-06-06T11:27:45Z</time>
			</trkpt>
		
			<trkpt lat="45.345870" lon="1.694050">
			 <ele>491</ele>
			<time>2016-06-06T11:29:45Z</time>
			</trkpt>
		
			<trkpt lat="45.345910" lon="1.694250">
			 <ele>492</ele>
			<time>2016-06-06T11:31:45Z</time>
			</trkpt>
		
			<trkpt lat="45.345970" lon="1.694500">
			 <ele>493</ele>
			<time>2016-06-06T11:33:45Z</time>
			</trkpt>
		
			<trkpt lat="45.346090" lon="1.694800">
			 <ele>495</ele>
			<time>2016-06-06T11:35:45Z</time>
			</trkpt>
		
			<trkpt lat="45.346190" lon="1.695020">
			 <ele>496</ele>
			<time>2016-06-06T11:37:45Z</time>
			</trkpt>
		
			<trkpt lat="45.346310" lon="1.695240">
			 <ele>497</ele>
			<time>2016-06-06T11:39:45Z</time>
			</trkpt>
		
			<trkpt lat="45.346440" lon="1.695420">
			 <ele>497</ele>
			<time>2016-06-06T11:41:45Z</time>
			</trkpt>
		
			<trkpt lat="45.346580" lon="1.695590">
			 <ele>497</ele>
			<time>2016-06-06T11:43:45Z</time>
			</trkpt>
		
			<trkpt lat="45.346720" lon="1.695730">
			 <ele>497</ele>
			<time>2016-06-06T11:45:45Z</time>
			</trkpt>
		
			<trkpt lat="45.346860" lon="1.695840">
			 <ele>497</ele>
			<time>2016-06-06T11:47:45Z</time>
			</trkpt>
		
			<trkpt lat="45.347000" lon="1.695940">
			 <ele>497</ele>
			<time>2016-06-06T11:49:45Z</time>
			</trkpt>
		
			<trkpt lat="45.347300" lon="1.696130">
			 <ele>497</ele>
			<time>2016-06-06T11:51:45Z</time>
			</trkpt>
		
			<trkpt lat="45.347320" lon="1.696130">
			 <ele>497</ele>
			<time>2016-06-06T11:53:45Z</time>
			</trkpt>
		
			<trkpt lat="45.347370" lon="1.696160">
			 <ele>497</ele>
			<time>2016-06-06T11:55:45Z</time>
			</trkpt>
		
			<trkpt lat="45.347410" lon="1.696180">
			 <ele>497</ele>
			<time>2016-06-06T11:57:45Z</time>
			</trkpt>
		
			<trkpt lat="45.347590" lon="1.696260">
			 <ele>497</ele>
			<time>2016-06-06T11:59:45Z</time>
			</trkpt>
		
			<trkpt lat="45.347780" lon="1.696360">
			 <ele>496</ele>
			<time>2016-06-06T12:01:45Z</time>
			</trkpt>
		
			<trkpt lat="45.347930" lon="1.696470">
			 <ele>497</ele>
			<time>2016-06-06T12:03:45Z</time>
			</trkpt>
		
			<trkpt lat="45.348020" lon="1.696540">
			 <ele>497</ele>
			<time>2016-06-06T12:05:45Z</time>
			</trkpt>
		
			<trkpt lat="45.348110" lon="1.696620">
			 <ele>497</ele>
			<time>2016-06-06T12:07:45Z</time>
			</trkpt>
		
			<trkpt lat="45.348260" lon="1.696800">
			 <ele>498</ele>
			<time>2016-06-06T12:09:45Z</time>
			</trkpt>
		
			<trkpt lat="45.348360" lon="1.696950">
			 <ele>499</ele>
			<time>2016-06-06T12:11:45Z</time>
			</trkpt>
		
			<trkpt lat="45.348410" lon="1.697020">
			 <ele>499</ele>
			<time>2016-06-06T12:13:45Z</time>
			</trkpt>
		
			<trkpt lat="45.348500" lon="1.697200">
			 <ele>500</ele>
			<time>2016-06-06T12:15:45Z</time>
			</trkpt>
		
			<trkpt lat="45.348590" lon="1.697440">
			 <ele>500</ele>
			<time>2016-06-06T12:17:45Z</time>
			</trkpt>
		
			<trkpt lat="45.348600" lon="1.697480">
			 <ele>500</ele>
			<time>2016-06-06T12:19:45Z</time>
			</trkpt>
		
			<trkpt lat="45.348620" lon="1.697510">
			 <ele>500</ele>
			<time>2016-06-06T12:21:45Z</time>
			</trkpt>
		
			<trkpt lat="45.348650" lon="1.697630">
			 <ele>500</ele>
			<time>2016-06-06T12:23:45Z</time>
			</trkpt>
		
			<trkpt lat="45.348690" lon="1.697790">
			 <ele>501</ele>
			<time>2016-06-06T12:25:45Z</time>
			</trkpt>
		
			<trkpt lat="45.348700" lon="1.697890">
			 <ele>501</ele>
			<time>2016-06-06T12:27:45Z</time>
			</trkpt>
		
			<trkpt lat="45.348710" lon="1.697940">
			 <ele>501</ele>
			<time>2016-06-06T12:29:45Z</time>
			</trkpt>
		
			<trkpt lat="45.348720" lon="1.698000">
			 <ele>501</ele>
			<time>2016-06-06T12:31:45Z</time>
			</trkpt>
		
			<trkpt lat="45.348730" lon="1.698100">
			 <ele>501</ele>
			<time>2016-06-06T12:33:45Z</time>
			</trkpt>
		
			<trkpt lat="45.348760" lon="1.698240">
			 <ele>501</ele>
			<time>2016-06-06T12:35:45Z</time>
			</trkpt>
		
			<trkpt lat="45.348780" lon="1.698440">
			 <ele>502</ele>
			<time>2016-06-06T12:37:45Z</time>
			</trkpt>
		
			<trkpt lat="45.348830" lon="1.699030">
			 <ele>503</ele>
			<time>2016-06-06T12:39:45Z</time>
			</trkpt>
		
			<trkpt lat="45.348890" lon="1.699580">
			 <ele>503</ele>
			<time>2016-06-06T12:41:45Z</time>
			</trkpt>
		
			<trkpt lat="45.348930" lon="1.699960">
			 <ele>502</ele>
			<time>2016-06-06T12:43:45Z</time>
			</trkpt>
		
			<trkpt lat="45.348950" lon="1.700120">
			 <ele>502</ele>
			<time>2016-06-06T12:45:45Z</time>
			</trkpt>
		
			<trkpt lat="45.348970" lon="1.700220">
			 <ele>502</ele>
			<time>2016-06-06T12:47:45Z</time>
			</trkpt>
		
			<trkpt lat="45.348990" lon="1.700320">
			 <ele>501</ele>
			<time>2016-06-06T12:49:45Z</time>
			</trkpt>
		
			<trkpt lat="45.349010" lon="1.700390">
			 <ele>501</ele>
			<time>2016-06-06T12:51:45Z</time>
			</trkpt>
		
			<trkpt lat="45.349040" lon="1.700510">
			 <ele>501</ele>
			<time>2016-06-06T12:53:45Z</time>
			</trkpt>
		
			<trkpt lat="45.349080" lon="1.700620">
			 <ele>501</ele>
			<time>2016-06-06T12:55:45Z</time>
			</trkpt>
		
			<trkpt lat="45.349140" lon="1.700740">
			 <ele>500</ele>
			<time>2016-06-06T12:57:45Z</time>
			</trkpt>
		
			<trkpt lat="45.349190" lon="1.700830">
			 <ele>500</ele>
			<time>2016-06-06T12:59:45Z</time>
			</trkpt>
		
			<trkpt lat="45.349250" lon="1.700920">
			 <ele>500</ele>
			<time>2016-06-06T13:01:45Z</time>
			</trkpt>
		
			<trkpt lat="45.349320" lon="1.701010">
			 <ele>501</ele>
			<time>2016-06-06T13:03:45Z</time>
			</trkpt>
		
			<trkpt lat="45.349350" lon="1.701050">
			 <ele>501</ele>
			<time>2016-06-06T13:05:45Z</time>
			</trkpt>
		
			<trkpt lat="45.349370" lon="1.701080">
			 <ele>501</ele>
			<time>2016-06-06T13:07:45Z</time>
			</trkpt>
		
			<trkpt lat="45.349400" lon="1.701100">
			 <ele>501</ele>
			<time>2016-06-06T13:09:45Z</time>
			</trkpt>
		
			<trkpt lat="45.349410" lon="1.701110">
			 <ele>501</ele>
			<time>2016-06-06T13:11:45Z</time>
			</trkpt>
		
			<trkpt lat="45.349420" lon="1.701120">
			 <ele>501</ele>
			<time>2016-06-06T13:13:45Z</time>
			</trkpt>
		
			<trkpt lat="45.349450" lon="1.701150">
			 <ele>501</ele>
			<time>2016-06-06T13:15:45Z</time>
			</trkpt>
		
			<trkpt lat="45.349480" lon="1.701170">
			 <ele>501</ele>
			<time>2016-06-06T13:17:45Z</time>
			</trkpt>
		
			<trkpt lat="45.349540" lon="1.701220">
			 <ele>501</ele>
			<time>2016-06-06T13:19:45Z</time>
			</trkpt>
		
			<trkpt lat="45.349590" lon="1.701250">
			 <ele>501</ele>
			<time>2016-06-06T13:21:45Z</time>
			</trkpt>
		
			<trkpt lat="45.349640" lon="1.701280">
			 <ele>501</ele>
			<time>2016-06-06T13:23:45Z</time>
			</trkpt>
		
			<trkpt lat="45.349700" lon="1.701320">
			 <ele>501</ele>
			<time>2016-06-06T13:25:45Z</time>
			</trkpt>
		
			<trkpt lat="45.349820" lon="1.701370">
			 <ele>500</ele>
			<time>2016-06-06T13:27:45Z</time>
			</trkpt>
		
			<trkpt lat="45.349960" lon="1.701430">
			 <ele>500</ele>
			<time>2016-06-06T13:29:45Z</time>
			</trkpt>
		
			<trkpt lat="45.350090" lon="1.701480">
			 <ele>499</ele>
			<time>2016-06-06T13:31:45Z</time>
			</trkpt>
		
			<trkpt lat="45.350360" lon="1.701600">
			 <ele>498</ele>
			<time>2016-06-06T13:33:45Z</time>
			</trkpt>
		
			<trkpt lat="45.350540" lon="1.701680">
			 <ele>498</ele>
			<time>2016-06-06T13:35:45Z</time>
			</trkpt>
		
			<trkpt lat="45.350620" lon="1.701720">
			 <ele>497</ele>
			<time>2016-06-06T13:37:45Z</time>
			</trkpt>
		
			<trkpt lat="45.350760" lon="1.701800">
			 <ele>497</ele>
			<time>2016-06-06T13:39:45Z</time>
			</trkpt>
		
			<trkpt lat="45.350940" lon="1.701930">
			 <ele>497</ele>
			<time>2016-06-06T13:41:45Z</time>
			</trkpt>
		
			<trkpt lat="45.351120" lon="1.702080">
			 <ele>498</ele>
			<time>2016-06-06T13:43:45Z</time>
			</trkpt>
		
			<trkpt lat="45.351270" lon="1.702250">
			 <ele>499</ele>
			<time>2016-06-06T13:45:45Z</time>
			</trkpt>
		
			<trkpt lat="45.351360" lon="1.702350">
			 <ele>499</ele>
			<time>2016-06-06T13:47:45Z</time>
			</trkpt>
		
			<trkpt lat="45.351400" lon="1.702410">
			 <ele>499</ele>
			<time>2016-06-06T13:49:45Z</time>
			</trkpt>
		
			<trkpt lat="45.351440" lon="1.702460">
			 <ele>499</ele>
			<time>2016-06-06T13:51:45Z</time>
			</trkpt>
		
			<trkpt lat="45.351550" lon="1.702630">
			 <ele>499</ele>
			<time>2016-06-06T13:53:45Z</time>
			</trkpt>
		
			<trkpt lat="45.351570" lon="1.702660">
			 <ele>499</ele>
			<time>2016-06-06T13:55:45Z</time>
			</trkpt>
		
			<trkpt lat="45.351600" lon="1.702700">
			 <ele>499</ele>
			<time>2016-06-06T13:57:45Z</time>
			</trkpt>
		
			<trkpt lat="45.351600" lon="1.702710">
			 <ele>499</ele>
			<time>2016-06-06T13:59:45Z</time>
			</trkpt>
		
			<trkpt lat="45.351620" lon="1.702750">
			 <ele>499</ele>
			<time>2016-06-06T14:01:45Z</time>
			</trkpt>
		
			<trkpt lat="45.351650" lon="1.702790">
			 <ele>499</ele>
			<time>2016-06-06T14:03:45Z</time>
			</trkpt>
		
			<trkpt lat="45.351670" lon="1.702840">
			 <ele>498</ele>
			<time>2016-06-06T14:05:45Z</time>
			</trkpt>
		
			<trkpt lat="45.351740" lon="1.702980">
			 <ele>497</ele>
			<time>2016-06-06T14:07:45Z</time>
			</trkpt>
		
			<trkpt lat="45.351900" lon="1.703300">
			 <ele>495</ele>
			<time>2016-06-06T14:09:45Z</time>
			</trkpt>
		
			<trkpt lat="45.352100" lon="1.703730">
			 <ele>495</ele>
			<time>2016-06-06T14:11:45Z</time>
			</trkpt>
		
			<trkpt lat="45.352320" lon="1.704190">
			 <ele>495</ele>
			<time>2016-06-06T14:13:45Z</time>
			</trkpt>
		
			<trkpt lat="45.352410" lon="1.704400">
			 <ele>495</ele>
			<time>2016-06-06T14:15:45Z</time>
			</trkpt>
		
			<trkpt lat="45.352670" lon="1.704960">
			 <ele>497</ele>
			<time>2016-06-06T14:17:45Z</time>
			</trkpt>
		
			<trkpt lat="45.352870" lon="1.705420">
			 <ele>500</ele>
			<time>2016-06-06T14:19:45Z</time>
			</trkpt>
		
			<trkpt lat="45.352900" lon="1.705500">
			 <ele>501</ele>
			<time>2016-06-06T14:21:45Z</time>
			</trkpt>
		
			<trkpt lat="45.352940" lon="1.705610">
			 <ele>502</ele>
			<time>2016-06-06T14:23:45Z</time>
			</trkpt>
		
			<trkpt lat="45.353020" lon="1.705860">
			 <ele>504</ele>
			<time>2016-06-06T14:25:45Z</time>
			</trkpt>
		
			<trkpt lat="45.353070" lon="1.706000">
			 <ele>504</ele>
			<time>2016-06-06T14:27:45Z</time>
			</trkpt>
		
			<trkpt lat="45.353170" lon="1.706260">
			 <ele>505</ele>
			<time>2016-06-06T14:29:45Z</time>
			</trkpt>
		
			<trkpt lat="45.353250" lon="1.706520">
			 <ele>505</ele>
			<time>2016-06-06T14:31:45Z</time>
			</trkpt>
		
			<trkpt lat="45.353360" lon="1.706810">
			 <ele>506</ele>
			<time>2016-06-06T14:33:45Z</time>
			</trkpt>
		
			<trkpt lat="45.353410" lon="1.706930">
			 <ele>507</ele>
			<time>2016-06-06T14:35:45Z</time>
			</trkpt>
		
			<trkpt lat="45.353460" lon="1.707050">
			 <ele>507</ele>
			<time>2016-06-06T14:37:45Z</time>
			</trkpt>
		
			<trkpt lat="45.353510" lon="1.707160">
			 <ele>508</ele>
			<time>2016-06-06T14:39:45Z</time>
			</trkpt>
		
			<trkpt lat="45.353560" lon="1.707260">
			 <ele>508</ele>
			<time>2016-06-06T14:41:45Z</time>
			</trkpt>
		
			<trkpt lat="45.353660" lon="1.707430">
			 <ele>509</ele>
			<time>2016-06-06T14:43:45Z</time>
			</trkpt>
		
			<trkpt lat="45.353740" lon="1.707550">
			 <ele>509</ele>
			<time>2016-06-06T14:45:45Z</time>
			</trkpt>
		
			<trkpt lat="45.353830" lon="1.707670">
			 <ele>510</ele>
			<time>2016-06-06T14:47:45Z</time>
			</trkpt>
		
			<trkpt lat="45.353900" lon="1.707760">
			 <ele>510</ele>
			<time>2016-06-06T14:49:45Z</time>
			</trkpt>
		
			<trkpt lat="45.354000" lon="1.707870">
			 <ele>511</ele>
			<time>2016-06-06T14:51:45Z</time>
			</trkpt>
		
			<trkpt lat="45.354100" lon="1.707970">
			 <ele>511</ele>
			<time>2016-06-06T14:53:45Z</time>
			</trkpt>
		
			<trkpt lat="45.354210" lon="1.708060">
			 <ele>511</ele>
			<time>2016-06-06T14:55:45Z</time>
			</trkpt>
		
			<trkpt lat="45.354340" lon="1.708160">
			 <ele>511</ele>
			<time>2016-06-06T14:57:45Z</time>
			</trkpt>
		
			<trkpt lat="45.354520" lon="1.708270">
			 <ele>510</ele>
			<time>2016-06-06T14:59:45Z</time>
			</trkpt>
		
			<trkpt lat="45.354780" lon="1.708380">
			 <ele>510</ele>
			<time>2016-06-06T15:01:45Z</time>
			</trkpt>
		
			<trkpt lat="45.354980" lon="1.708440">
			 <ele>509</ele>
			<time>2016-06-06T15:03:45Z</time>
			</trkpt>
		
			<trkpt lat="45.355230" lon="1.708490">
			 <ele>507</ele>
			<time>2016-06-06T15:05:45Z</time>
			</trkpt>
		
			<trkpt lat="45.355590" lon="1.708540">
			 <ele>504</ele>
			<time>2016-06-06T15:07:45Z</time>
			</trkpt>
		
			<trkpt lat="45.356020" lon="1.708590">
			 <ele>500</ele>
			<time>2016-06-06T15:09:45Z</time>
			</trkpt>
		
			<trkpt lat="45.356220" lon="1.708620">
			 <ele>499</ele>
			<time>2016-06-06T15:11:45Z</time>
			</trkpt>
		
			<trkpt lat="45.356390" lon="1.708680">
			 <ele>497</ele>
			<time>2016-06-06T15:13:45Z</time>
			</trkpt>
		
			<trkpt lat="45.356540" lon="1.708740">
			 <ele>496</ele>
			<time>2016-06-06T15:15:45Z</time>
			</trkpt>
		
			<trkpt lat="45.356740" lon="1.708860">
			 <ele>493</ele>
			<time>2016-06-06T15:17:45Z</time>
			</trkpt>
		
			<trkpt lat="45.356930" lon="1.709000">
			 <ele>492</ele>
			<time>2016-06-06T15:19:45Z</time>
			</trkpt>
		
			<trkpt lat="45.357130" lon="1.709180">
			 <ele>489</ele>
			<time>2016-06-06T15:21:45Z</time>
			</trkpt>
		
			<trkpt lat="45.357320" lon="1.709390">
			 <ele>487</ele>
			<time>2016-06-06T15:23:45Z</time>
			</trkpt>
		
			<trkpt lat="45.357450" lon="1.709590">
			 <ele>484</ele>
			<time>2016-06-06T15:25:45Z</time>
			</trkpt>
		
			<trkpt lat="45.357620" lon="1.709900">
			 <ele>479</ele>
			<time>2016-06-06T15:27:45Z</time>
			</trkpt>
		
			<trkpt lat="45.357710" lon="1.710110">
			 <ele>477</ele>
			<time>2016-06-06T15:29:45Z</time>
			</trkpt>
		
			<trkpt lat="45.357810" lon="1.710350">
			 <ele>474</ele>
			<time>2016-06-06T15:31:45Z</time>
			</trkpt>
		
			<trkpt lat="45.357840" lon="1.710470">
			 <ele>473</ele>
			<time>2016-06-06T15:33:45Z</time>
			</trkpt>
		
			<trkpt lat="45.357880" lon="1.710590">
			 <ele>471</ele>
			<time>2016-06-06T15:35:45Z</time>
			</trkpt>
		
			<trkpt lat="45.357900" lon="1.710660">
			 <ele>470</ele>
			<time>2016-06-06T15:37:45Z</time>
			</trkpt>
		
			<trkpt lat="45.357910" lon="1.710710">
			 <ele>469</ele>
			<time>2016-06-06T15:39:45Z</time>
			</trkpt>
		
			<trkpt lat="45.357920" lon="1.710760">
			 <ele>468</ele>
			<time>2016-06-06T15:41:45Z</time>
			</trkpt>
		
			<trkpt lat="45.357970" lon="1.710920">
			 <ele>466</ele>
			<time>2016-06-06T15:43:45Z</time>
			</trkpt>
		
			<trkpt lat="45.357990" lon="1.710990">
			 <ele>466</ele>
			<time>2016-06-06T15:45:45Z</time>
			</trkpt>
		
			<trkpt lat="45.358030" lon="1.711150">
			 <ele>465</ele>
			<time>2016-06-06T15:47:45Z</time>
			</trkpt>
		
			<trkpt lat="45.358080" lon="1.711290">
			 <ele>464</ele>
			<time>2016-06-06T15:49:45Z</time>
			</trkpt>
		
			<trkpt lat="45.358120" lon="1.711400">
			 <ele>463</ele>
			<time>2016-06-06T15:51:45Z</time>
			</trkpt>
		
			<trkpt lat="45.358170" lon="1.711530">
			 <ele>461</ele>
			<time>2016-06-06T15:53:45Z</time>
			</trkpt>
		
			<trkpt lat="45.358220" lon="1.711640">
			 <ele>460</ele>
			<time>2016-06-06T15:55:45Z</time>
			</trkpt>
		
			<trkpt lat="45.358270" lon="1.711730">
			 <ele>460</ele>
			<time>2016-06-06T15:57:45Z</time>
			</trkpt>
		
			<trkpt lat="45.358350" lon="1.711860">
			 <ele>459</ele>
			<time>2016-06-06T15:59:45Z</time>
			</trkpt>
		
			<trkpt lat="45.358460" lon="1.712030">
			 <ele>458</ele>
			<time>2016-06-06T16:01:45Z</time>
			</trkpt>
		
			<trkpt lat="45.358660" lon="1.712340">
			 <ele>456</ele>
			<time>2016-06-06T16:03:45Z</time>
			</trkpt>
		
			<trkpt lat="45.358740" lon="1.712470">
			 <ele>455</ele>
			<time>2016-06-06T16:05:45Z</time>
			</trkpt>
		
			<trkpt lat="45.358760" lon="1.712480">
			 <ele>455</ele>
			<time>2016-06-06T16:07:45Z</time>
			</trkpt>
		
			<trkpt lat="45.358810" lon="1.712560">
			 <ele>455</ele>
			<time>2016-06-06T16:09:45Z</time>
			</trkpt>
		
			<trkpt lat="45.358850" lon="1.712620">
			 <ele>454</ele>
			<time>2016-06-06T16:11:45Z</time>
			</trkpt>
		
			<trkpt lat="45.358970" lon="1.712780">
			 <ele>454</ele>
			<time>2016-06-06T16:13:45Z</time>
			</trkpt>
		
			<trkpt lat="45.359080" lon="1.712900">
			 <ele>453</ele>
			<time>2016-06-06T16:15:45Z</time>
			</trkpt>
		
			<trkpt lat="45.359160" lon="1.712980">
			 <ele>453</ele>
			<time>2016-06-06T16:17:45Z</time>
			</trkpt>
		
			<trkpt lat="45.359300" lon="1.713080">
			 <ele>453</ele>
			<time>2016-06-06T16:19:45Z</time>
			</trkpt>
		
			<trkpt lat="45.359310" lon="1.713090">
			 <ele>453</ele>
			<time>2016-06-06T16:21:45Z</time>
			</trkpt>
		
			<trkpt lat="45.359480" lon="1.713220">
			 <ele>452</ele>
			<time>2016-06-06T16:23:45Z</time>
			</trkpt>
		
			<trkpt lat="45.359490" lon="1.713220">
			 <ele>452</ele>
			<time>2016-06-06T16:25:45Z</time>
			</trkpt>
		
			<trkpt lat="45.359650" lon="1.713340">
			 <ele>452</ele>
			<time>2016-06-06T16:27:45Z</time>
			</trkpt>
		
			<trkpt lat="45.359870" lon="1.713510">
			 <ele>453</ele>
			<time>2016-06-06T16:29:45Z</time>
			</trkpt>
		
			<trkpt lat="45.359960" lon="1.713570">
			 <ele>453</ele>
			<time>2016-06-06T16:31:45Z</time>
			</trkpt>
		
			<trkpt lat="45.360070" lon="1.713650">
			 <ele>454</ele>
			<time>2016-06-06T16:33:45Z</time>
			</trkpt>
		
			<trkpt lat="45.360090" lon="1.713660">
			 <ele>454</ele>
			<time>2016-06-06T16:35:45Z</time>
			</trkpt>
		
			<trkpt lat="45.360130" lon="1.713700">
			 <ele>454</ele>
			<time>2016-06-06T16:37:45Z</time>
			</trkpt>
		
			<trkpt lat="45.360300" lon="1.713820">
			 <ele>454</ele>
			<time>2016-06-06T16:39:45Z</time>
			</trkpt>
		
			<trkpt lat="45.360520" lon="1.713990">
			 <ele>455</ele>
			<time>2016-06-06T16:41:45Z</time>
			</trkpt>
		
			<trkpt lat="45.360660" lon="1.714080">
			 <ele>455</ele>
			<time>2016-06-06T16:43:45Z</time>
			</trkpt>
		
			<trkpt lat="45.360800" lon="1.714160">
			 <ele>455</ele>
			<time>2016-06-06T16:45:45Z</time>
			</trkpt>
		
			<trkpt lat="45.360920" lon="1.714200">
			 <ele>456</ele>
			<time>2016-06-06T16:47:45Z</time>
			</trkpt>
		
			<trkpt lat="45.361060" lon="1.714230">
			 <ele>457</ele>
			<time>2016-06-06T16:49:45Z</time>
			</trkpt>
		
			<trkpt lat="45.361200" lon="1.714230">
			 <ele>458</ele>
			<time>2016-06-06T16:51:45Z</time>
			</trkpt>
		
			<trkpt lat="45.361330" lon="1.714200">
			 <ele>459</ele>
			<time>2016-06-06T16:53:45Z</time>
			</trkpt>
		
			<trkpt lat="45.361460" lon="1.714160">
			 <ele>459</ele>
			<time>2016-06-06T16:55:45Z</time>
			</trkpt>
		
			<trkpt lat="45.361650" lon="1.714070">
			 <ele>461</ele>
			<time>2016-06-06T16:57:45Z</time>
			</trkpt>
		
			<trkpt lat="45.361720" lon="1.714030">
			 <ele>461</ele>
			<time>2016-06-06T16:59:45Z</time>
			</trkpt>
		
			<trkpt lat="45.361890" lon="1.713940">
			 <ele>463</ele>
			<time>2016-06-06T17:01:45Z</time>
			</trkpt>
		
			<trkpt lat="45.361960" lon="1.713890">
			 <ele>464</ele>
			<time>2016-06-06T17:03:45Z</time>
			</trkpt>
		
			<trkpt lat="45.362150" lon="1.713780">
			 <ele>465</ele>
			<time>2016-06-06T17:05:45Z</time>
			</trkpt>
		
			<trkpt lat="45.362450" lon="1.713610">
			 <ele>467</ele>
			<time>2016-06-06T17:07:45Z</time>
			</trkpt>
		
			<trkpt lat="45.362810" lon="1.713410">
			 <ele>470</ele>
			<time>2016-06-06T17:09:45Z</time>
			</trkpt>
		
			<trkpt lat="45.363060" lon="1.713260">
			 <ele>471</ele>
			<time>2016-06-06T17:11:45Z</time>
			</trkpt>
		
			<trkpt lat="45.363290" lon="1.713130">
			 <ele>472</ele>
			<time>2016-06-06T17:13:45Z</time>
			</trkpt>
		
			<trkpt lat="45.363480" lon="1.713020">
			 <ele>472</ele>
			<time>2016-06-06T17:15:45Z</time>
			</trkpt>
		
			<trkpt lat="45.363610" lon="1.712960">
			 <ele>473</ele>
			<time>2016-06-06T17:17:45Z</time>
			</trkpt>
		
			<trkpt lat="45.363700" lon="1.712920">
			 <ele>473</ele>
			<time>2016-06-06T17:19:45Z</time>
			</trkpt>
		
			<trkpt lat="45.363780" lon="1.712900">
			 <ele>473</ele>
			<time>2016-06-06T17:21:45Z</time>
			</trkpt>
		
			<trkpt lat="45.363860" lon="1.712890">
			 <ele>473</ele>
			<time>2016-06-06T17:23:45Z</time>
			</trkpt>
		
			<trkpt lat="45.363980" lon="1.712900">
			 <ele>474</ele>
			<time>2016-06-06T17:25:45Z</time>
			</trkpt>
		
			<trkpt lat="45.364270" lon="1.712950">
			 <ele>477</ele>
			<time>2016-06-06T17:27:45Z</time>
			</trkpt>
		
			<trkpt lat="45.364600" lon="1.713000">
			 <ele>480</ele>
			<time>2016-06-06T17:29:45Z</time>
			</trkpt>
		
			<trkpt lat="45.364890" lon="1.713040">
			 <ele>483</ele>
			<time>2016-06-06T17:31:45Z</time>
			</trkpt>
		
			<trkpt lat="45.365170" lon="1.713080">
			 <ele>486</ele>
			<time>2016-06-06T17:33:45Z</time>
			</trkpt>
		
			<trkpt lat="45.365390" lon="1.713110">
			 <ele>488</ele>
			<time>2016-06-06T17:35:45Z</time>
			</trkpt>
		
			<trkpt lat="45.365530" lon="1.713130">
			 <ele>489</ele>
			<time>2016-06-06T17:37:45Z</time>
			</trkpt>
		
			<trkpt lat="45.365570" lon="1.713130">
			 <ele>490</ele>
			<time>2016-06-06T17:39:45Z</time>
			</trkpt>
		
			<trkpt lat="45.365590" lon="1.713140">
			 <ele>490</ele>
			<time>2016-06-06T17:41:45Z</time>
			</trkpt>
		
			<trkpt lat="45.365650" lon="1.713140">
			 <ele>490</ele>
			<time>2016-06-06T17:43:45Z</time>
			</trkpt>
		
			<trkpt lat="45.365780" lon="1.713160">
			 <ele>492</ele>
			<time>2016-06-06T17:45:45Z</time>
			</trkpt>
		
			<trkpt lat="45.366030" lon="1.713200">
			 <ele>492</ele>
			<time>2016-06-06T17:47:45Z</time>
			</trkpt>
		
			<trkpt lat="45.366230" lon="1.713220">
			 <ele>492</ele>
			<time>2016-06-06T17:49:45Z</time>
			</trkpt>
		
			<trkpt lat="45.366390" lon="1.713250">
			 <ele>491</ele>
			<time>2016-06-06T17:51:45Z</time>
			</trkpt>
		
			<trkpt lat="45.366460" lon="1.713260">
			 <ele>491</ele>
			<time>2016-06-06T17:53:45Z</time>
			</trkpt>
		
			<trkpt lat="45.366660" lon="1.713290">
			 <ele>491</ele>
			<time>2016-06-06T17:55:45Z</time>
			</trkpt>
		
			<trkpt lat="45.366780" lon="1.713310">
			 <ele>491</ele>
			<time>2016-06-06T17:57:45Z</time>
			</trkpt>
		
			<trkpt lat="45.366930" lon="1.713340">
			 <ele>491</ele>
			<time>2016-06-06T17:59:45Z</time>
			</trkpt>
		
			<trkpt lat="45.367030" lon="1.713360">
			 <ele>491</ele>
			<time>2016-06-06T18:01:45Z</time>
			</trkpt>
		
			<trkpt lat="45.367090" lon="1.713400">
			 <ele>490</ele>
			<time>2016-06-06T18:03:45Z</time>
			</trkpt>
		
			<trkpt lat="45.367140" lon="1.713440">
			 <ele>490</ele>
			<time>2016-06-06T18:05:45Z</time>
			</trkpt>
		
			<trkpt lat="45.367160" lon="1.713470">
			 <ele>490</ele>
			<time>2016-06-06T18:07:45Z</time>
			</trkpt>
		
			<trkpt lat="45.367200" lon="1.713540">
			 <ele>490</ele>
			<time>2016-06-06T18:09:45Z</time>
			</trkpt>
		
			<trkpt lat="45.367240" lon="1.713630">
			 <ele>490</ele>
			<time>2016-06-06T18:11:45Z</time>
			</trkpt>
		
			<trkpt lat="45.367320" lon="1.713890">
			 <ele>490</ele>
			<time>2016-06-06T18:13:45Z</time>
			</trkpt>
		
			<trkpt lat="45.367450" lon="1.714290">
			 <ele>489</ele>
			<time>2016-06-06T18:15:45Z</time>
			</trkpt>
		
			<trkpt lat="45.367580" lon="1.714690">
			 <ele>487</ele>
			<time>2016-06-06T18:17:45Z</time>
			</trkpt>
		
			<trkpt lat="45.367730" lon="1.715200">
			 <ele>487</ele>
			<time>2016-06-06T18:19:45Z</time>
			</trkpt>
		
			<trkpt lat="45.367770" lon="1.715310">
			 <ele>488</ele>
			<time>2016-06-06T18:21:45Z</time>
			</trkpt>
		
			<trkpt lat="45.367850" lon="1.715570">
			 <ele>489</ele>
			<time>2016-06-06T18:23:45Z</time>
			</trkpt>
		
			<trkpt lat="45.367890" lon="1.715700">
			 <ele>489</ele>
			<time>2016-06-06T18:25:45Z</time>
			</trkpt>
		
			<trkpt lat="45.367980" lon="1.716000">
			 <ele>491</ele>
			<time>2016-06-06T18:27:45Z</time>
			</trkpt>
		
			<trkpt lat="45.368060" lon="1.716230">
			 <ele>492</ele>
			<time>2016-06-06T18:29:45Z</time>
			</trkpt>
		
			<trkpt lat="45.368190" lon="1.716620">
			 <ele>493</ele>
			<time>2016-06-06T18:31:45Z</time>
			</trkpt>
		
			<trkpt lat="45.368250" lon="1.716810">
			 <ele>493</ele>
			<time>2016-06-06T18:33:45Z</time>
			</trkpt>
		
			<trkpt lat="45.368310" lon="1.717000">
			 <ele>493</ele>
			<time>2016-06-06T18:35:45Z</time>
			</trkpt>
		
			<trkpt lat="45.368400" lon="1.717270">
			 <ele>492</ele>
			<time>2016-06-06T18:37:45Z</time>
			</trkpt>
		
			<trkpt lat="45.368520" lon="1.717710">
			 <ele>491</ele>
			<time>2016-06-06T18:39:45Z</time>
			</trkpt>
		
			<trkpt lat="45.368640" lon="1.718070">
			 <ele>491</ele>
			<time>2016-06-06T18:41:45Z</time>
			</trkpt>
		
			<trkpt lat="45.368700" lon="1.718270">
			 <ele>491</ele>
			<time>2016-06-06T18:43:45Z</time>
			</trkpt>
		
			<trkpt lat="45.368760" lon="1.718450">
			 <ele>491</ele>
			<time>2016-06-06T18:45:45Z</time>
			</trkpt>
		
			<trkpt lat="45.368840" lon="1.718670">
			 <ele>492</ele>
			<time>2016-06-06T18:47:45Z</time>
			</trkpt>
		
			<trkpt lat="45.368900" lon="1.718820">
			 <ele>492</ele>
			<time>2016-06-06T18:49:45Z</time>
			</trkpt>
		
			<trkpt lat="45.368950" lon="1.718890">
			 <ele>492</ele>
			<time>2016-06-06T18:51:45Z</time>
			</trkpt>
		
			<trkpt lat="45.368990" lon="1.718950">
			 <ele>492</ele>
			<time>2016-06-06T18:53:45Z</time>
			</trkpt>
		
			<trkpt lat="45.369110" lon="1.719110">
			 <ele>492</ele>
			<time>2016-06-06T18:55:45Z</time>
			</trkpt>
		
			<trkpt lat="45.369210" lon="1.719230">
			 <ele>492</ele>
			<time>2016-06-06T18:57:45Z</time>
			</trkpt>
		
			<trkpt lat="45.369270" lon="1.719320">
			 <ele>492</ele>
			<time>2016-06-06T18:59:45Z</time>
			</trkpt>
		
			<trkpt lat="45.369300" lon="1.719380">
			 <ele>492</ele>
			<time>2016-06-06T19:01:45Z</time>
			</trkpt>
		
			<trkpt lat="45.369330" lon="1.719440">
			 <ele>492</ele>
			<time>2016-06-06T19:03:45Z</time>
			</trkpt>
		
			<trkpt lat="45.369350" lon="1.719500">
			 <ele>492</ele>
			<time>2016-06-06T19:05:45Z</time>
			</trkpt>
		
			<trkpt lat="45.369380" lon="1.719590">
			 <ele>492</ele>
			<time>2016-06-06T19:07:45Z</time>
			</trkpt>
		
			<trkpt lat="45.369410" lon="1.719680">
			 <ele>491</ele>
			<time>2016-06-06T19:09:45Z</time>
			</trkpt>
		
			<trkpt lat="45.369430" lon="1.719810">
			 <ele>491</ele>
			<time>2016-06-06T19:11:45Z</time>
			</trkpt>
		
			<trkpt lat="45.369480" lon="1.720090">
			 <ele>491</ele>
			<time>2016-06-06T19:13:45Z</time>
			</trkpt>
		
			<trkpt lat="45.369540" lon="1.720350">
			 <ele>490</ele>
			<time>2016-06-06T19:15:45Z</time>
			</trkpt>
		
			<trkpt lat="45.369590" lon="1.720530">
			 <ele>489</ele>
			<time>2016-06-06T19:17:45Z</time>
			</trkpt>
		
			<trkpt lat="45.369670" lon="1.720710">
			 <ele>488</ele>
			<time>2016-06-06T19:19:45Z</time>
			</trkpt>
		
			<trkpt lat="45.369750" lon="1.720840">
			 <ele>487</ele>
			<time>2016-06-06T19:21:45Z</time>
			</trkpt>
		
			<trkpt lat="45.369850" lon="1.720990">
			 <ele>487</ele>
			<time>2016-06-06T19:23:45Z</time>
			</trkpt>
		
			<trkpt lat="45.369870" lon="1.721010">
			 <ele>487</ele>
			<time>2016-06-06T19:25:45Z</time>
			</trkpt>
		
			<trkpt lat="45.369890" lon="1.721030">
			 <ele>487</ele>
			<time>2016-06-06T19:27:45Z</time>
			</trkpt>
		
			<trkpt lat="45.369980" lon="1.721100">
			 <ele>486</ele>
			<time>2016-06-06T19:29:45Z</time>
			</trkpt>
		
			<trkpt lat="45.370030" lon="1.721140">
			 <ele>486</ele>
			<time>2016-06-06T19:31:45Z</time>
			</trkpt>
		
			<trkpt lat="45.370120" lon="1.721230">
			 <ele>486</ele>
			<time>2016-06-06T19:33:45Z</time>
			</trkpt>
		
			<trkpt lat="45.370230" lon="1.721370">
			 <ele>486</ele>
			<time>2016-06-06T19:35:45Z</time>
			</trkpt>
		
			<trkpt lat="45.370330" lon="1.721520">
			 <ele>485</ele>
			<time>2016-06-06T19:37:45Z</time>
			</trkpt>
		
			<trkpt lat="45.370410" lon="1.721690">
			 <ele>485</ele>
			<time>2016-06-06T19:39:45Z</time>
			</trkpt>
		
			<trkpt lat="45.370480" lon="1.721880">
			 <ele>485</ele>
			<time>2016-06-06T19:41:45Z</time>
			</trkpt>
		
			<trkpt lat="45.370540" lon="1.722110">
			 <ele>486</ele>
			<time>2016-06-06T19:43:45Z</time>
			</trkpt>
		
			<trkpt lat="45.370560" lon="1.722310">
			 <ele>486</ele>
			<time>2016-06-06T19:45:45Z</time>
			</trkpt>
		
			<trkpt lat="45.370580" lon="1.722560">
			 <ele>487</ele>
			<time>2016-06-06T19:47:45Z</time>
			</trkpt>
		
			<trkpt lat="45.370580" lon="1.722740">
			 <ele>488</ele>
			<time>2016-06-06T19:49:45Z</time>
			</trkpt>
		
			<trkpt lat="45.370570" lon="1.722870">
			 <ele>488</ele>
			<time>2016-06-06T19:51:45Z</time>
			</trkpt>
		
			<trkpt lat="45.370540" lon="1.723030">
			 <ele>489</ele>
			<time>2016-06-06T19:53:45Z</time>
			</trkpt>
		
			<trkpt lat="45.370480" lon="1.723280">
			 <ele>490</ele>
			<time>2016-06-06T19:55:45Z</time>
			</trkpt>
		
			<trkpt lat="45.370410" lon="1.723550">
			 <ele>491</ele>
			<time>2016-06-06T19:57:45Z</time>
			</trkpt>
		
			<trkpt lat="45.370360" lon="1.723790">
			 <ele>493</ele>
			<time>2016-06-06T19:59:45Z</time>
			</trkpt>
		
			<trkpt lat="45.370350" lon="1.723960">
			 <ele>494</ele>
			<time>2016-06-06T20:01:45Z</time>
			</trkpt>
		
			<trkpt lat="45.370360" lon="1.724150">
			 <ele>495</ele>
			<time>2016-06-06T20:03:45Z</time>
			</trkpt>
		
			<trkpt lat="45.370380" lon="1.724460">
			 <ele>497</ele>
			<time>2016-06-06T20:05:45Z</time>
			</trkpt>
		
			<trkpt lat="45.370420" lon="1.724790">
			 <ele>499</ele>
			<time>2016-06-06T20:07:45Z</time>
			</trkpt>
		
			<trkpt lat="45.370450" lon="1.725070">
			 <ele>502</ele>
			<time>2016-06-06T20:09:45Z</time>
			</trkpt>
		
			<trkpt lat="45.370440" lon="1.725130">
			 <ele>502</ele>
			<time>2016-06-06T20:11:45Z</time>
			</trkpt>
		
			<trkpt lat="45.370440" lon="1.725250">
			 <ele>503</ele>
			<time>2016-06-06T20:13:45Z</time>
			</trkpt>
		
			<trkpt lat="45.370440" lon="1.725330">
			 <ele>503</ele>
			<time>2016-06-06T20:15:45Z</time>
			</trkpt>
		
			<trkpt lat="45.370440" lon="1.725450">
			 <ele>504</ele>
			<time>2016-06-06T20:17:45Z</time>
			</trkpt>
		
			<trkpt lat="45.370460" lon="1.725610">
			 <ele>505</ele>
			<time>2016-06-06T20:19:45Z</time>
			</trkpt>
		
			<trkpt lat="45.370460" lon="1.725610">
			 <ele>505</ele>
			<time>2016-06-06T20:21:45Z</time>
			</trkpt>
		
			<trkpt lat="45.370540" lon="1.725590">
			 <ele>506</ele>
			<time>2016-06-06T20:23:45Z</time>
			</trkpt>
		
			<trkpt lat="45.371170" lon="1.725430">
			 <ele>506</ele>
			<time>2016-06-06T20:25:45Z</time>
			</trkpt>
		
			<trkpt lat="45.372250" lon="1.725240">
			 <ele>506</ele>
			<time>2016-06-06T20:27:45Z</time>
			</trkpt>
		
			<trkpt lat="45.373600" lon="1.724980">
			 <ele>510</ele>
			<time>2016-06-06T20:29:45Z</time>
			</trkpt>
		
			<trkpt lat="45.374820" lon="1.724750">
			 <ele>509</ele>
			<time>2016-06-06T20:31:45Z</time>
			</trkpt>
		
			<trkpt lat="45.375390" lon="1.724650">
			 <ele>507</ele>
			<time>2016-06-06T20:33:45Z</time>
			</trkpt>
		
			<trkpt lat="45.375590" lon="1.724600">
			 <ele>506</ele>
			<time>2016-06-06T20:35:45Z</time>
			</trkpt>
		
			<trkpt lat="45.375890" lon="1.724500">
			 <ele>505</ele>
			<time>2016-06-06T20:37:45Z</time>
			</trkpt>
		
			<trkpt lat="45.376560" lon="1.724210">
			 <ele>504</ele>
			<time>2016-06-06T20:39:45Z</time>
			</trkpt>
		
			<trkpt lat="45.377080" lon="1.723980">
			 <ele>504</ele>
			<time>2016-06-06T20:41:45Z</time>
			</trkpt>
		
			<trkpt lat="45.378000" lon="1.723570">
			 <ele>503</ele>
			<time>2016-06-06T20:43:45Z</time>
			</trkpt>
		
			<trkpt lat="45.378220" lon="1.723470">
			 <ele>502</ele>
			<time>2016-06-06T20:45:45Z</time>
			</trkpt>
		
			<trkpt lat="45.378320" lon="1.723430">
			 <ele>502</ele>
			<time>2016-06-06T20:47:45Z</time>
			</trkpt>
		
			<trkpt lat="45.378570" lon="1.723320">
			 <ele>502</ele>
			<time>2016-06-06T20:49:45Z</time>
			</trkpt>
		
			<trkpt lat="45.379180" lon="1.723040">
			 <ele>503</ele>
			<time>2016-06-06T20:51:45Z</time>
			</trkpt>
		
			<trkpt lat="45.379690" lon="1.722800">
			 <ele>504</ele>
			<time>2016-06-06T20:53:45Z</time>
			</trkpt>
		
			<trkpt lat="45.379870" lon="1.722700">
			 <ele>505</ele>
			<time>2016-06-06T20:55:45Z</time>
			</trkpt>
		
			<trkpt lat="45.380070" lon="1.722560">
			 <ele>505</ele>
			<time>2016-06-06T20:57:45Z</time>
			</trkpt>
		
			<trkpt lat="45.380140" lon="1.722500">
			 <ele>505</ele>
			<time>2016-06-06T20:59:45Z</time>
			</trkpt>
		
			<trkpt lat="45.380330" lon="1.722280">
			 <ele>504</ele>
			<time>2016-06-06T21:01:45Z</time>
			</trkpt>
		
			<trkpt lat="45.380510" lon="1.722070">
			 <ele>504</ele>
			<time>2016-06-06T21:03:45Z</time>
			</trkpt>
		
			<trkpt lat="45.380740" lon="1.721870">
			 <ele>505</ele>
			<time>2016-06-06T21:05:45Z</time>
			</trkpt>
		
			<trkpt lat="45.380800" lon="1.721810">
			 <ele>505</ele>
			<time>2016-06-06T21:07:45Z</time>
			</trkpt>
		
			<trkpt lat="45.380890" lon="1.721730">
			 <ele>506</ele>
			<time>2016-06-06T21:09:45Z</time>
			</trkpt>
		
			<trkpt lat="45.380950" lon="1.721690">
			 <ele>506</ele>
			<time>2016-06-06T21:11:45Z</time>
			</trkpt>
		
			<trkpt lat="45.381080" lon="1.721620">
			 <ele>506</ele>
			<time>2016-06-06T21:13:45Z</time>
			</trkpt>
		
			<trkpt lat="45.381210" lon="1.721560">
			 <ele>507</ele>
			<time>2016-06-06T21:15:45Z</time>
			</trkpt>
		
			<trkpt lat="45.381350" lon="1.721520">
			 <ele>507</ele>
			<time>2016-06-06T21:17:45Z</time>
			</trkpt>
		
			<trkpt lat="45.381600" lon="1.721460">
			 <ele>507</ele>
			<time>2016-06-06T21:19:45Z</time>
			</trkpt>
		
			<trkpt lat="45.381780" lon="1.721450">
			 <ele>508</ele>
			<time>2016-06-06T21:21:45Z</time>
			</trkpt>
		
			<trkpt lat="45.382640" lon="1.721530">
			 <ele>510</ele>
			<time>2016-06-06T21:23:45Z</time>
			</trkpt>
		
			<trkpt lat="45.383500" lon="1.721610">
			 <ele>513</ele>
			<time>2016-06-06T21:25:45Z</time>
			</trkpt>
		
			<trkpt lat="45.383610" lon="1.721620">
			 <ele>512</ele>
			<time>2016-06-06T21:27:45Z</time>
			</trkpt>
		
			<trkpt lat="45.383840" lon="1.721660">
			 <ele>510</ele>
			<time>2016-06-06T21:29:45Z</time>
			</trkpt>
		
			<trkpt lat="45.385000" lon="1.721750">
			 <ele>506</ele>
			<time>2016-06-06T21:31:45Z</time>
			</trkpt>
		
			<trkpt lat="45.386180" lon="1.721850">
			 <ele>502</ele>
			<time>2016-06-06T21:33:45Z</time>
			</trkpt>
		
			<trkpt lat="45.387100" lon="1.721930">
			 <ele>498</ele>
			<time>2016-06-06T21:35:45Z</time>
			</trkpt>
		
			<trkpt lat="45.388190" lon="1.722090">
			 <ele>493</ele>
			<time>2016-06-06T21:37:45Z</time>
			</trkpt>
		
			<trkpt lat="45.388190" lon="1.722090">
			 <ele>493</ele>
			<time>2016-06-06T21:39:45Z</time>
			</trkpt>
		
			<trkpt lat="45.388360" lon="1.722360">
			 <ele>492</ele>
			<time>2016-06-06T21:41:45Z</time>
			</trkpt>
		
			<trkpt lat="45.388410" lon="1.722420">
			 <ele>491</ele>
			<time>2016-06-06T21:43:45Z</time>
			</trkpt>
		
			<trkpt lat="45.388530" lon="1.722570">
			 <ele>490</ele>
			<time>2016-06-06T21:45:45Z</time>
			</trkpt>
		
			<trkpt lat="45.388740" lon="1.722830">
			 <ele>489</ele>
			<time>2016-06-06T21:47:45Z</time>
			</trkpt>
		
			<trkpt lat="45.388870" lon="1.723010">
			 <ele>489</ele>
			<time>2016-06-06T21:49:45Z</time>
			</trkpt>
		
			<trkpt lat="45.389170" lon="1.723370">
			 <ele>489</ele>
			<time>2016-06-06T21:51:45Z</time>
			</trkpt>
		
			<trkpt lat="45.389820" lon="1.724140">
			 <ele>494</ele>
			<time>2016-06-06T21:53:45Z</time>
			</trkpt>
		
			<trkpt lat="45.389980" lon="1.724350">
			 <ele>495</ele>
			<time>2016-06-06T21:55:45Z</time>
			</trkpt>
		
			<trkpt lat="45.390100" lon="1.724520">
			 <ele>495</ele>
			<time>2016-06-06T21:57:45Z</time>
			</trkpt>
		
			<trkpt lat="45.390110" lon="1.724540">
			 <ele>496</ele>
			<time>2016-06-06T21:59:45Z</time>
			</trkpt>
		
			<trkpt lat="45.390170" lon="1.724680">
			 <ele>496</ele>
			<time>2016-06-06T22:01:45Z</time>
			</trkpt>
		
			<trkpt lat="45.390170" lon="1.724690">
			 <ele>496</ele>
			<time>2016-06-06T22:03:45Z</time>
			</trkpt>
		
			<trkpt lat="45.390210" lon="1.724830">
			 <ele>497</ele>
			<time>2016-06-06T22:05:45Z</time>
			</trkpt>
		
			<trkpt lat="45.390220" lon="1.724850">
			 <ele>497</ele>
			<time>2016-06-06T22:07:45Z</time>
			</trkpt>
		
			<trkpt lat="45.390250" lon="1.725010">
			 <ele>497</ele>
			<time>2016-06-06T22:09:45Z</time>
			</trkpt>
		
			<trkpt lat="45.390260" lon="1.725100">
			 <ele>497</ele>
			<time>2016-06-06T22:11:45Z</time>
			</trkpt>
		
			<trkpt lat="45.390270" lon="1.725290">
			 <ele>497</ele>
			<time>2016-06-06T22:13:45Z</time>
			</trkpt>
		
			<trkpt lat="45.390270" lon="1.725580">
			 <ele>498</ele>
			<time>2016-06-06T22:15:45Z</time>
			</trkpt>
		
			<trkpt lat="45.390260" lon="1.725800">
			 <ele>498</ele>
			<time>2016-06-06T22:17:45Z</time>
			</trkpt>
		
			<trkpt lat="45.390220" lon="1.726080">
			 <ele>499</ele>
			<time>2016-06-06T22:19:45Z</time>
			</trkpt>
		
			<trkpt lat="45.390130" lon="1.726580">
			 <ele>502</ele>
			<time>2016-06-06T22:21:45Z</time>
			</trkpt>
		
			<trkpt lat="45.389940" lon="1.727500">
			 <ele>506</ele>
			<time>2016-06-06T22:23:45Z</time>
			</trkpt>
		
			<trkpt lat="45.389860" lon="1.727900">
			 <ele>508</ele>
			<time>2016-06-06T22:25:45Z</time>
			</trkpt>
		
			<trkpt lat="45.389860" lon="1.727930">
			 <ele>508</ele>
			<time>2016-06-06T22:27:45Z</time>
			</trkpt>
		
			<trkpt lat="45.389850" lon="1.728150">
			 <ele>510</ele>
			<time>2016-06-06T22:29:45Z</time>
			</trkpt>
		
			<trkpt lat="45.389860" lon="1.728170">
			 <ele>510</ele>
			<time>2016-06-06T22:31:45Z</time>
			</trkpt>
		
			<trkpt lat="45.389870" lon="1.728300">
			 <ele>511</ele>
			<time>2016-06-06T22:33:45Z</time>
			</trkpt>
		
			<trkpt lat="45.389890" lon="1.728370">
			 <ele>511</ele>
			<time>2016-06-06T22:35:45Z</time>
			</trkpt>
		
			<trkpt lat="45.389920" lon="1.728450">
			 <ele>511</ele>
			<time>2016-06-06T22:37:45Z</time>
			</trkpt>
		
			<trkpt lat="45.389950" lon="1.728520">
			 <ele>511</ele>
			<time>2016-06-06T22:39:45Z</time>
			</trkpt>
		
			<trkpt lat="45.390050" lon="1.728650">
			 <ele>511</ele>
			<time>2016-06-06T22:41:45Z</time>
			</trkpt>
		
			<trkpt lat="45.390070" lon="1.728690">
			 <ele>511</ele>
			<time>2016-06-06T22:43:45Z</time>
			</trkpt>
		
			<trkpt lat="45.390170" lon="1.728770">
			 <ele>510</ele>
			<time>2016-06-06T22:45:45Z</time>
			</trkpt>
		
			<trkpt lat="45.390230" lon="1.728810">
			 <ele>510</ele>
			<time>2016-06-06T22:47:45Z</time>
			</trkpt>
		
			<trkpt lat="45.390320" lon="1.728830">
			 <ele>509</ele>
			<time>2016-06-06T22:49:45Z</time>
			</trkpt>
		
			<trkpt lat="45.390350" lon="1.728840">
			 <ele>509</ele>
			<time>2016-06-06T22:51:45Z</time>
			</trkpt>
		
			<trkpt lat="45.390440" lon="1.728830">
			 <ele>509</ele>
			<time>2016-06-06T22:53:45Z</time>
			</trkpt>
		
			<trkpt lat="45.390520" lon="1.728810">
			 <ele>509</ele>
			<time>2016-06-06T22:55:45Z</time>
			</trkpt>
		
			<trkpt lat="45.390550" lon="1.728800">
			 <ele>509</ele>
			<time>2016-06-06T22:57:45Z</time>
			</trkpt>
		
			<trkpt lat="45.390610" lon="1.728770">
			 <ele>509</ele>
			<time>2016-06-06T22:59:45Z</time>
			</trkpt>
		
			<trkpt lat="45.390690" lon="1.728710">
			 <ele>509</ele>
			<time>2016-06-06T23:01:45Z</time>
			</trkpt>
		
			<trkpt lat="45.390780" lon="1.728640">
			 <ele>510</ele>
			<time>2016-06-06T23:03:45Z</time>
			</trkpt>
		
			<trkpt lat="45.390910" lon="1.728520">
			 <ele>510</ele>
			<time>2016-06-06T23:05:45Z</time>
			</trkpt>
		
			<trkpt lat="45.391100" lon="1.728320">
			 <ele>510</ele>
			<time>2016-06-06T23:07:45Z</time>
			</trkpt>
		
			<trkpt lat="45.391400" lon="1.728040">
			 <ele>509</ele>
			<time>2016-06-06T23:09:45Z</time>
			</trkpt>
		
			<trkpt lat="45.391490" lon="1.727980">
			 <ele>509</ele>
			<time>2016-06-06T23:11:45Z</time>
			</trkpt>
		
			<trkpt lat="45.391580" lon="1.727940">
			 <ele>508</ele>
			<time>2016-06-06T23:13:45Z</time>
			</trkpt>
		
			<trkpt lat="45.391600" lon="1.727930">
			 <ele>508</ele>
			<time>2016-06-06T23:15:45Z</time>
			</trkpt>
		
			<trkpt lat="45.391750" lon="1.727910">
			 <ele>508</ele>
			<time>2016-06-06T23:17:45Z</time>
			</trkpt>
		
			<trkpt lat="45.391860" lon="1.727920">
			 <ele>507</ele>
			<time>2016-06-06T23:19:45Z</time>
			</trkpt>
		
			<trkpt lat="45.392040" lon="1.727990">
			 <ele>505</ele>
			<time>2016-06-06T23:21:45Z</time>
			</trkpt>
		
			<trkpt lat="45.392250" lon="1.728090">
			 <ele>503</ele>
			<time>2016-06-06T23:23:45Z</time>
			</trkpt>
		
			<trkpt lat="45.392620" lon="1.728280">
			 <ele>501</ele>
			<time>2016-06-06T23:25:45Z</time>
			</trkpt>
		
			<trkpt lat="45.392740" lon="1.728400">
			 <ele>501</ele>
			<time>2016-06-06T23:27:45Z</time>
			</trkpt>
		
			<trkpt lat="45.392750" lon="1.728420">
			 <ele>501</ele>
			<time>2016-06-06T23:29:45Z</time>
			</trkpt>
		
			<trkpt lat="45.392820" lon="1.728530">
			 <ele>500</ele>
			<time>2016-06-06T23:31:45Z</time>
			</trkpt>
		
			<trkpt lat="45.392880" lon="1.728680">
			 <ele>500</ele>
			<time>2016-06-06T23:33:45Z</time>
			</trkpt>
		
			<trkpt lat="45.392880" lon="1.728710">
			 <ele>500</ele>
			<time>2016-06-06T23:35:45Z</time>
			</trkpt>
		
			<trkpt lat="45.392920" lon="1.728940">
			 <ele>499</ele>
			<time>2016-06-06T23:37:45Z</time>
			</trkpt>
		
			<trkpt lat="45.392940" lon="1.729230">
			 <ele>498</ele>
			<time>2016-06-06T23:39:45Z</time>
			</trkpt>
		
			<trkpt lat="45.392940" lon="1.729490">
			 <ele>498</ele>
			<time>2016-06-06T23:41:45Z</time>
			</trkpt>
		
			<trkpt lat="45.392910" lon="1.729690">
			 <ele>498</ele>
			<time>2016-06-06T23:43:45Z</time>
			</trkpt>
		
			<trkpt lat="45.392880" lon="1.729810">
			 <ele>498</ele>
			<time>2016-06-06T23:45:45Z</time>
			</trkpt>
		
			<trkpt lat="45.392660" lon="1.730290">
			 <ele>496</ele>
			<time>2016-06-06T23:47:45Z</time>
			</trkpt>
		
			<trkpt lat="45.392470" lon="1.730680">
			 <ele>494</ele>
			<time>2016-06-06T23:49:45Z</time>
			</trkpt>
		
			<trkpt lat="45.392390" lon="1.730860">
			 <ele>494</ele>
			<time>2016-06-06T23:51:45Z</time>
			</trkpt>
		
			<trkpt lat="45.392370" lon="1.730940">
			 <ele>494</ele>
			<time>2016-06-06T23:53:45Z</time>
			</trkpt>
		
			<trkpt lat="45.392350" lon="1.731060">
			 <ele>494</ele>
			<time>2016-06-06T23:55:45Z</time>
			</trkpt>
		
			<trkpt lat="45.392330" lon="1.731160">
			 <ele>493</ele>
			<time>2016-06-06T23:57:45Z</time>
			</trkpt>
		
			<trkpt lat="45.392320" lon="1.731290">
			 <ele>493</ele>
			<time>2016-06-06T23:59:45Z</time>
			</trkpt>
		
			<trkpt lat="45.392320" lon="1.731390">
			 <ele>493</ele>
			<time>2016-06-07T00:01:45Z</time>
			</trkpt>
		
			<trkpt lat="45.392330" lon="1.731510">
			 <ele>494</ele>
			<time>2016-06-07T00:03:45Z</time>
			</trkpt>
		
			<trkpt lat="45.392350" lon="1.731610">
			 <ele>494</ele>
			<time>2016-06-07T00:05:45Z</time>
			</trkpt>
		
			<trkpt lat="45.392370" lon="1.731720">
			 <ele>494</ele>
			<time>2016-06-07T00:07:45Z</time>
			</trkpt>
		
			<trkpt lat="45.392400" lon="1.731810">
			 <ele>493</ele>
			<time>2016-06-07T00:09:45Z</time>
			</trkpt>
		
			<trkpt lat="45.392410" lon="1.731860">
			 <ele>493</ele>
			<time>2016-06-07T00:11:45Z</time>
			</trkpt>
		
			<trkpt lat="45.392500" lon="1.732090">
			 <ele>492</ele>
			<time>2016-06-07T00:13:45Z</time>
			</trkpt>
		
			<trkpt lat="45.392660" lon="1.732410">
			 <ele>492</ele>
			<time>2016-06-07T00:15:45Z</time>
			</trkpt>
		
			<trkpt lat="45.392730" lon="1.732520">
			 <ele>492</ele>
			<time>2016-06-07T00:17:45Z</time>
			</trkpt>
		
			<trkpt lat="45.392800" lon="1.732620">
			 <ele>491</ele>
			<time>2016-06-07T00:19:45Z</time>
			</trkpt>
		
			<trkpt lat="45.392970" lon="1.732800">
			 <ele>491</ele>
			<time>2016-06-07T00:21:45Z</time>
			</trkpt>
		
			<trkpt lat="45.393050" lon="1.732860">
			 <ele>492</ele>
			<time>2016-06-07T00:23:45Z</time>
			</trkpt>
		
			<trkpt lat="45.393360" lon="1.733120">
			 <ele>491</ele>
			<time>2016-06-07T00:25:45Z</time>
			</trkpt>
		
			<trkpt lat="45.393550" lon="1.733300">
			 <ele>488</ele>
			<time>2016-06-07T00:27:45Z</time>
			</trkpt>
		
			<trkpt lat="45.393620" lon="1.733350">
			 <ele>487</ele>
			<time>2016-06-07T00:29:45Z</time>
			</trkpt>
		
			<trkpt lat="45.393980" lon="1.733630">
			 <ele>485</ele>
			<time>2016-06-07T00:31:45Z</time>
			</trkpt>
		
			<trkpt lat="45.394160" lon="1.733780">
			 <ele>485</ele>
			<time>2016-06-07T00:33:45Z</time>
			</trkpt>
		
			<trkpt lat="45.394320" lon="1.733900">
			 <ele>484</ele>
			<time>2016-06-07T00:35:45Z</time>
			</trkpt>
		
			<trkpt lat="45.394500" lon="1.734050">
			 <ele>483</ele>
			<time>2016-06-07T00:37:45Z</time>
			</trkpt>
		
			<trkpt lat="45.394530" lon="1.734080">
			 <ele>483</ele>
			<time>2016-06-07T00:39:45Z</time>
			</trkpt>
		
			<trkpt lat="45.394670" lon="1.734190">
			 <ele>483</ele>
			<time>2016-06-07T00:41:45Z</time>
			</trkpt>
		
			<trkpt lat="45.394910" lon="1.734330">
			 <ele>483</ele>
			<time>2016-06-07T00:43:45Z</time>
			</trkpt>
		
			<trkpt lat="45.395140" lon="1.734420">
			 <ele>483</ele>
			<time>2016-06-07T00:45:45Z</time>
			</trkpt>
		
			<trkpt lat="45.395470" lon="1.734530">
			 <ele>482</ele>
			<time>2016-06-07T00:47:45Z</time>
			</trkpt>
		
			<trkpt lat="45.395830" lon="1.734630">
			 <ele>481</ele>
			<time>2016-06-07T00:49:45Z</time>
			</trkpt>
		
			<trkpt lat="45.395930" lon="1.734670">
			 <ele>480</ele>
			<time>2016-06-07T00:51:45Z</time>
			</trkpt>
		
			<trkpt lat="45.396040" lon="1.734760">
			 <ele>479</ele>
			<time>2016-06-07T00:53:45Z</time>
			</trkpt>
		
			<trkpt lat="45.396100" lon="1.734830">
			 <ele>479</ele>
			<time>2016-06-07T00:55:45Z</time>
			</trkpt>
		
			<trkpt lat="45.396180" lon="1.734930">
			 <ele>479</ele>
			<time>2016-06-07T00:57:45Z</time>
			</trkpt>
		
			<trkpt lat="45.396270" lon="1.735090">
			 <ele>478</ele>
			<time>2016-06-07T00:59:45Z</time>
			</trkpt>
		
			<trkpt lat="45.396310" lon="1.735210">
			 <ele>478</ele>
			<time>2016-06-07T01:01:45Z</time>
			</trkpt>
		
			<trkpt lat="45.396340" lon="1.735330">
			 <ele>478</ele>
			<time>2016-06-07T01:03:45Z</time>
			</trkpt>
		
			<trkpt lat="45.396350" lon="1.735470">
			 <ele>478</ele>
			<time>2016-06-07T01:05:45Z</time>
			</trkpt>
		
			<trkpt lat="45.396340" lon="1.735660">
			 <ele>478</ele>
			<time>2016-06-07T01:07:45Z</time>
			</trkpt>
		
			<trkpt lat="45.396320" lon="1.735880">
			 <ele>478</ele>
			<time>2016-06-07T01:09:45Z</time>
			</trkpt>
		
			<trkpt lat="45.396280" lon="1.736040">
			 <ele>478</ele>
			<time>2016-06-07T01:11:45Z</time>
			</trkpt>
		
			<trkpt lat="45.396220" lon="1.736310">
			 <ele>477</ele>
			<time>2016-06-07T01:13:45Z</time>
			</trkpt>
		
			<trkpt lat="45.396180" lon="1.736500">
			 <ele>477</ele>
			<time>2016-06-07T01:15:45Z</time>
			</trkpt>
		
			<trkpt lat="45.396110" lon="1.736790">
			 <ele>476</ele>
			<time>2016-06-07T01:17:45Z</time>
			</trkpt>
		
			<trkpt lat="45.396050" lon="1.737030">
			 <ele>475</ele>
			<time>2016-06-07T01:19:45Z</time>
			</trkpt>
		
			<trkpt lat="45.395990" lon="1.737220">
			 <ele>474</ele>
			<time>2016-06-07T01:21:45Z</time>
			</trkpt>
		
			<trkpt lat="45.395930" lon="1.737400">
			 <ele>473</ele>
			<time>2016-06-07T01:23:45Z</time>
			</trkpt>
		
			<trkpt lat="45.395860" lon="1.737560">
			 <ele>473</ele>
			<time>2016-06-07T01:25:45Z</time>
			</trkpt>
		
			<trkpt lat="45.395790" lon="1.737730">
			 <ele>473</ele>
			<time>2016-06-07T01:27:45Z</time>
			</trkpt>
		
			<trkpt lat="45.395690" lon="1.737940">
			 <ele>473</ele>
			<time>2016-06-07T01:29:45Z</time>
			</trkpt>
		
			<trkpt lat="45.395580" lon="1.738210">
			 <ele>471</ele>
			<time>2016-06-07T01:31:45Z</time>
			</trkpt>
		
			<trkpt lat="45.395480" lon="1.738440">
			 <ele>470</ele>
			<time>2016-06-07T01:33:45Z</time>
			</trkpt>
		
			<trkpt lat="45.395430" lon="1.738610">
			 <ele>469</ele>
			<time>2016-06-07T01:35:45Z</time>
			</trkpt>
		
			<trkpt lat="45.395390" lon="1.738750">
			 <ele>468</ele>
			<time>2016-06-07T01:37:45Z</time>
			</trkpt>
		
			<trkpt lat="45.395370" lon="1.738880">
			 <ele>467</ele>
			<time>2016-06-07T01:39:45Z</time>
			</trkpt>
		
			<trkpt lat="45.395360" lon="1.739000">
			 <ele>466</ele>
			<time>2016-06-07T01:41:45Z</time>
			</trkpt>
		
			<trkpt lat="45.395360" lon="1.739120">
			 <ele>465</ele>
			<time>2016-06-07T01:43:45Z</time>
			</trkpt>
		
			<trkpt lat="45.395380" lon="1.739260">
			 <ele>464</ele>
			<time>2016-06-07T01:45:45Z</time>
			</trkpt>
		
			<trkpt lat="45.395440" lon="1.739580">
			 <ele>463</ele>
			<time>2016-06-07T01:47:45Z</time>
			</trkpt>
		
			<trkpt lat="45.395440" lon="1.739610">
			 <ele>463</ele>
			<time>2016-06-07T01:49:45Z</time>
			</trkpt>
		
			<trkpt lat="45.395600" lon="1.740340">
			 <ele>464</ele>
			<time>2016-06-07T01:51:45Z</time>
			</trkpt>
		
			<trkpt lat="45.395760" lon="1.740990">
			 <ele>467</ele>
			<time>2016-06-07T01:53:45Z</time>
			</trkpt>
		
			<trkpt lat="45.395870" lon="1.741550">
			 <ele>470</ele>
			<time>2016-06-07T01:55:45Z</time>
			</trkpt>
		
			<trkpt lat="45.395940" lon="1.741830">
			 <ele>470</ele>
			<time>2016-06-07T01:57:45Z</time>
			</trkpt>
		
			<trkpt lat="45.395970" lon="1.741970">
			 <ele>469</ele>
			<time>2016-06-07T01:59:45Z</time>
			</trkpt>
		
			<trkpt lat="45.396010" lon="1.742150">
			 <ele>469</ele>
			<time>2016-06-07T02:01:45Z</time>
			</trkpt>
		
			<trkpt lat="45.396100" lon="1.742540">
			 <ele>469</ele>
			<time>2016-06-07T02:03:45Z</time>
			</trkpt>
		
			<trkpt lat="45.396210" lon="1.743030">
			 <ele>469</ele>
			<time>2016-06-07T02:05:45Z</time>
			</trkpt>
		
			<trkpt lat="45.396390" lon="1.743820">
			 <ele>471</ele>
			<time>2016-06-07T02:07:45Z</time>
			</trkpt>
		
			<trkpt lat="45.396690" lon="1.745110">
			 <ele>475</ele>
			<time>2016-06-07T02:09:45Z</time>
			</trkpt>
		
			<trkpt lat="45.396740" lon="1.745390">
			 <ele>475</ele>
			<time>2016-06-07T02:11:45Z</time>
			</trkpt>
		
			<trkpt lat="45.396780" lon="1.745610">
			 <ele>474</ele>
			<time>2016-06-07T02:13:45Z</time>
			</trkpt>
		
			<trkpt lat="45.396800" lon="1.745880">
			 <ele>474</ele>
			<time>2016-06-07T02:15:45Z</time>
			</trkpt>
		
			<trkpt lat="45.396840" lon="1.746600">
			 <ele>476</ele>
			<time>2016-06-07T02:17:45Z</time>
			</trkpt>
		
			<trkpt lat="45.396860" lon="1.747090">
			 <ele>478</ele>
			<time>2016-06-07T02:19:45Z</time>
			</trkpt>
		
			<trkpt lat="45.396900" lon="1.747360">
			 <ele>478</ele>
			<time>2016-06-07T02:21:45Z</time>
			</trkpt>
		
			<trkpt lat="45.396930" lon="1.747440">
			 <ele>479</ele>
			<time>2016-06-07T02:23:45Z</time>
			</trkpt>
		
			<trkpt lat="45.396960" lon="1.747500">
			 <ele>478</ele>
			<time>2016-06-07T02:25:45Z</time>
			</trkpt>
		
			<trkpt lat="45.396990" lon="1.747570">
			 <ele>479</ele>
			<time>2016-06-07T02:27:45Z</time>
			</trkpt>
		
			<trkpt lat="45.397040" lon="1.747620">
			 <ele>479</ele>
			<time>2016-06-07T02:29:45Z</time>
			</trkpt>
		
			<trkpt lat="45.397080" lon="1.747670">
			 <ele>479</ele>
			<time>2016-06-07T02:31:45Z</time>
			</trkpt>
		
			<trkpt lat="45.397130" lon="1.747700">
			 <ele>478</ele>
			<time>2016-06-07T02:33:45Z</time>
			</trkpt>
		
			<trkpt lat="45.397190" lon="1.747720">
			 <ele>478</ele>
			<time>2016-06-07T02:35:45Z</time>
			</trkpt>
		
			<trkpt lat="45.397280" lon="1.747730">
			 <ele>477</ele>
			<time>2016-06-07T02:37:45Z</time>
			</trkpt>
		
			<trkpt lat="45.397550" lon="1.747720">
			 <ele>475</ele>
			<time>2016-06-07T02:39:45Z</time>
			</trkpt>
		
			<trkpt lat="45.397930" lon="1.747690">
			 <ele>477</ele>
			<time>2016-06-07T02:41:45Z</time>
			</trkpt>
		
			<trkpt lat="45.398290" lon="1.747660">
			 <ele>478</ele>
			<time>2016-06-07T02:43:45Z</time>
			</trkpt>
		
			<trkpt lat="45.398780" lon="1.747640">
			 <ele>477</ele>
			<time>2016-06-07T02:45:45Z</time>
			</trkpt>
		
			<trkpt lat="45.398860" lon="1.747630">
			 <ele>477</ele>
			<time>2016-06-07T02:47:45Z</time>
			</trkpt>
		
			<trkpt lat="45.398930" lon="1.747650">
			 <ele>477</ele>
			<time>2016-06-07T02:49:45Z</time>
			</trkpt>
		
			<trkpt lat="45.398970" lon="1.747670">
			 <ele>477</ele>
			<time>2016-06-07T02:51:45Z</time>
			</trkpt>
		
			<trkpt lat="45.399010" lon="1.747710">
			 <ele>477</ele>
			<time>2016-06-07T02:53:45Z</time>
			</trkpt>
		
			<trkpt lat="45.399020" lon="1.747710">
			 <ele>477</ele>
			<time>2016-06-07T02:55:45Z</time>
			</trkpt>
		
			<trkpt lat="45.399050" lon="1.747750">
			 <ele>477</ele>
			<time>2016-06-07T02:57:45Z</time>
			</trkpt>
		
			<trkpt lat="45.399080" lon="1.747810">
			 <ele>477</ele>
			<time>2016-06-07T02:59:45Z</time>
			</trkpt>
		
			<trkpt lat="45.399110" lon="1.747870">
			 <ele>477</ele>
			<time>2016-06-07T03:01:45Z</time>
			</trkpt>
		
			<trkpt lat="45.399140" lon="1.747990">
			 <ele>478</ele>
			<time>2016-06-07T03:03:45Z</time>
			</trkpt>
		
			<trkpt lat="45.399160" lon="1.748170">
			 <ele>479</ele>
			<time>2016-06-07T03:05:45Z</time>
			</trkpt>
		
			<trkpt lat="45.399190" lon="1.748400">
			 <ele>480</ele>
			<time>2016-06-07T03:07:45Z</time>
			</trkpt>
		
			<trkpt lat="45.399190" lon="1.748590">
			 <ele>480</ele>
			<time>2016-06-07T03:09:45Z</time>
			</trkpt>
		
			<trkpt lat="45.399200" lon="1.748800">
			 <ele>480</ele>
			<time>2016-06-07T03:11:45Z</time>
			</trkpt>
		
			<trkpt lat="45.399180" lon="1.749060">
			 <ele>481</ele>
			<time>2016-06-07T03:13:45Z</time>
			</trkpt>
		
			<trkpt lat="45.399140" lon="1.749240">
			 <ele>482</ele>
			<time>2016-06-07T03:15:45Z</time>
			</trkpt>
		
			<trkpt lat="45.399070" lon="1.749400">
			 <ele>481</ele>
			<time>2016-06-07T03:17:45Z</time>
			</trkpt>
		
			<trkpt lat="45.399010" lon="1.749540">
			 <ele>481</ele>
			<time>2016-06-07T03:19:45Z</time>
			</trkpt>
		
			<trkpt lat="45.398910" lon="1.749760">
			 <ele>481</ele>
			<time>2016-06-07T03:21:45Z</time>
			</trkpt>
		
			<trkpt lat="45.398840" lon="1.749990">
			 <ele>481</ele>
			<time>2016-06-07T03:23:45Z</time>
			</trkpt>
		
			<trkpt lat="45.398800" lon="1.750120">
			 <ele>480</ele>
			<time>2016-06-07T03:25:45Z</time>
			</trkpt>
		
			<trkpt lat="45.398770" lon="1.750290">
			 <ele>480</ele>
			<time>2016-06-07T03:27:45Z</time>
			</trkpt>
		
			<trkpt lat="45.398730" lon="1.750550">
			 <ele>479</ele>
			<time>2016-06-07T03:29:45Z</time>
			</trkpt>
		
			<trkpt lat="45.398690" lon="1.750920">
			 <ele>478</ele>
			<time>2016-06-07T03:31:45Z</time>
			</trkpt>
		
			<trkpt lat="45.398670" lon="1.751330">
			 <ele>477</ele>
			<time>2016-06-07T03:33:45Z</time>
			</trkpt>
		
			<trkpt lat="45.398620" lon="1.752000">
			 <ele>474</ele>
			<time>2016-06-07T03:35:45Z</time>
			</trkpt>
		
			<trkpt lat="45.398600" lon="1.752210">
			 <ele>472</ele>
			<time>2016-06-07T03:37:45Z</time>
			</trkpt>
		
			<trkpt lat="45.398570" lon="1.752570">
			 <ele>470</ele>
			<time>2016-06-07T03:39:45Z</time>
			</trkpt>
		
			<trkpt lat="45.398510" lon="1.753190">
			 <ele>468</ele>
			<time>2016-06-07T03:41:45Z</time>
			</trkpt>
		
			<trkpt lat="45.398510" lon="1.753550">
			 <ele>468</ele>
			<time>2016-06-07T03:43:45Z</time>
			</trkpt>
		
			<trkpt lat="45.398510" lon="1.753800">
			 <ele>469</ele>
			<time>2016-06-07T03:45:45Z</time>
			</trkpt>
		
			<trkpt lat="45.398540" lon="1.754120">
			 <ele>469</ele>
			<time>2016-06-07T03:47:45Z</time>
			</trkpt>
		
			<trkpt lat="45.398590" lon="1.754660">
			 <ele>469</ele>
			<time>2016-06-07T03:49:45Z</time>
			</trkpt>
		
			<trkpt lat="45.398620" lon="1.754870">
			 <ele>469</ele>
			<time>2016-06-07T03:51:45Z</time>
			</trkpt>
		
			<trkpt lat="45.398660" lon="1.755080">
			 <ele>468</ele>
			<time>2016-06-07T03:53:45Z</time>
			</trkpt>
		
			<trkpt lat="45.398730" lon="1.755260">
			 <ele>467</ele>
			<time>2016-06-07T03:55:45Z</time>
			</trkpt>
		
			<trkpt lat="45.398780" lon="1.755360">
			 <ele>467</ele>
			<time>2016-06-07T03:57:45Z</time>
			</trkpt>
		
			<trkpt lat="45.398870" lon="1.755460">
			 <ele>467</ele>
			<time>2016-06-07T03:59:45Z</time>
			</trkpt>
		
			<trkpt lat="45.398950" lon="1.755510">
			 <ele>468</ele>
			<time>2016-06-07T04:01:45Z</time>
			</trkpt>
		
			<trkpt lat="45.399100" lon="1.755600">
			 <ele>468</ele>
			<time>2016-06-07T04:03:45Z</time>
			</trkpt>
		
			<trkpt lat="45.399330" lon="1.755740">
			 <ele>468</ele>
			<time>2016-06-07T04:05:45Z</time>
			</trkpt>
		
			<trkpt lat="45.399610" lon="1.755910">
			 <ele>469</ele>
			<time>2016-06-07T04:07:45Z</time>
			</trkpt>
		
			<trkpt lat="45.399670" lon="1.755950">
			 <ele>469</ele>
			<time>2016-06-07T04:09:45Z</time>
			</trkpt>
		
			<trkpt lat="45.399930" lon="1.756090">
			 <ele>471</ele>
			<time>2016-06-07T04:11:45Z</time>
			</trkpt>
		
			<trkpt lat="45.400010" lon="1.756150">
			 <ele>472</ele>
			<time>2016-06-07T04:13:45Z</time>
			</trkpt>
		
			<trkpt lat="45.400070" lon="1.756180">
			 <ele>472</ele>
			<time>2016-06-07T04:15:45Z</time>
			</trkpt>
		
			<trkpt lat="45.400460" lon="1.756420">
			 <ele>475</ele>
			<time>2016-06-07T04:17:45Z</time>
			</trkpt>
		
			<trkpt lat="45.400740" lon="1.756580">
			 <ele>478</ele>
			<time>2016-06-07T04:19:45Z</time>
			</trkpt>
		
			<trkpt lat="45.400950" lon="1.756700">
			 <ele>479</ele>
			<time>2016-06-07T04:21:45Z</time>
			</trkpt>
		
			<trkpt lat="45.401030" lon="1.756750">
			 <ele>478</ele>
			<time>2016-06-07T04:23:45Z</time>
			</trkpt>
		
			<trkpt lat="45.401090" lon="1.756800">
			 <ele>478</ele>
			<time>2016-06-07T04:25:45Z</time>
			</trkpt>
		
			<trkpt lat="45.401140" lon="1.756860">
			 <ele>478</ele>
			<time>2016-06-07T04:27:45Z</time>
			</trkpt>
		
			<trkpt lat="45.401220" lon="1.756960">
			 <ele>478</ele>
			<time>2016-06-07T04:29:45Z</time>
			</trkpt>
		
			<trkpt lat="45.401260" lon="1.757090">
			 <ele>478</ele>
			<time>2016-06-07T04:31:45Z</time>
			</trkpt>
		
			<trkpt lat="45.401360" lon="1.757430">
			 <ele>478</ele>
			<time>2016-06-07T04:33:45Z</time>
			</trkpt>
		
			<trkpt lat="45.401460" lon="1.757840">
			 <ele>478</ele>
			<time>2016-06-07T04:35:45Z</time>
			</trkpt>
		
			<trkpt lat="45.401530" lon="1.758160">
			 <ele>478</ele>
			<time>2016-06-07T04:37:45Z</time>
			</trkpt>
		
			<trkpt lat="45.401610" lon="1.758460">
			 <ele>479</ele>
			<time>2016-06-07T04:39:45Z</time>
			</trkpt>
		
			<trkpt lat="45.401630" lon="1.758590">
			 <ele>479</ele>
			<time>2016-06-07T04:41:45Z</time>
			</trkpt>
		
			<trkpt lat="45.401670" lon="1.758770">
			 <ele>479</ele>
			<time>2016-06-07T04:43:45Z</time>
			</trkpt>
		
			<trkpt lat="45.401680" lon="1.758890">
			 <ele>479</ele>
			<time>2016-06-07T04:45:45Z</time>
			</trkpt>
		
			<trkpt lat="45.401680" lon="1.759010">
			 <ele>479</ele>
			<time>2016-06-07T04:47:45Z</time>
			</trkpt>
		
			<trkpt lat="45.401670" lon="1.759220">
			 <ele>480</ele>
			<time>2016-06-07T04:49:45Z</time>
			</trkpt>
		
			<trkpt lat="45.401650" lon="1.759380">
			 <ele>481</ele>
			<time>2016-06-07T04:51:45Z</time>
			</trkpt>
		
			<trkpt lat="45.401640" lon="1.759490">
			 <ele>482</ele>
			<time>2016-06-07T04:53:45Z</time>
			</trkpt>
		
			<trkpt lat="45.401640" lon="1.759670">
			 <ele>483</ele>
			<time>2016-06-07T04:55:45Z</time>
			</trkpt>
		
			<trkpt lat="45.401650" lon="1.759770">
			 <ele>483</ele>
			<time>2016-06-07T04:57:45Z</time>
			</trkpt>
		
			<trkpt lat="45.401660" lon="1.759840">
			 <ele>483</ele>
			<time>2016-06-07T04:59:45Z</time>
			</trkpt>
		
			<trkpt lat="45.401680" lon="1.759950">
			 <ele>484</ele>
			<time>2016-06-07T05:01:45Z</time>
			</trkpt>
		
			<trkpt lat="45.401740" lon="1.760070">
			 <ele>483</ele>
			<time>2016-06-07T05:03:45Z</time>
			</trkpt>
		
			<trkpt lat="45.401760" lon="1.760110">
			 <ele>483</ele>
			<time>2016-06-07T05:05:45Z</time>
			</trkpt>
		
			<trkpt lat="45.401800" lon="1.760150">
			 <ele>482</ele>
			<time>2016-06-07T05:07:45Z</time>
			</trkpt>
		
			<trkpt lat="45.401860" lon="1.760210">
			 <ele>481</ele>
			<time>2016-06-07T05:09:45Z</time>
			</trkpt>
		
			<trkpt lat="45.401910" lon="1.760260">
			 <ele>481</ele>
			<time>2016-06-07T05:11:45Z</time>
			</trkpt>
		
			<trkpt lat="45.402100" lon="1.760400">
			 <ele>478</ele>
			<time>2016-06-07T05:13:45Z</time>
			</trkpt>
		
			<trkpt lat="45.402180" lon="1.760470">
			 <ele>477</ele>
			<time>2016-06-07T05:15:45Z</time>
			</trkpt>
		
			<trkpt lat="45.402250" lon="1.760550">
			 <ele>477</ele>
			<time>2016-06-07T05:17:45Z</time>
			</trkpt>
		
			<trkpt lat="45.402280" lon="1.760600">
			 <ele>477</ele>
			<time>2016-06-07T05:19:45Z</time>
			</trkpt>
		
			<trkpt lat="45.402320" lon="1.760680">
			 <ele>476</ele>
			<time>2016-06-07T05:21:45Z</time>
			</trkpt>
		
			<trkpt lat="45.402330" lon="1.760720">
			 <ele>476</ele>
			<time>2016-06-07T05:23:45Z</time>
			</trkpt>
		
			<trkpt lat="45.402340" lon="1.760790">
			 <ele>477</ele>
			<time>2016-06-07T05:25:45Z</time>
			</trkpt>
		
			<trkpt lat="45.402350" lon="1.760860">
			 <ele>477</ele>
			<time>2016-06-07T05:27:45Z</time>
			</trkpt>
		
			<trkpt lat="45.402340" lon="1.760930">
			 <ele>477</ele>
			<time>2016-06-07T05:29:45Z</time>
			</trkpt>
		
			<trkpt lat="45.402330" lon="1.761000">
			 <ele>476</ele>
			<time>2016-06-07T05:31:45Z</time>
			</trkpt>
		
			<trkpt lat="45.402300" lon="1.761060">
			 <ele>476</ele>
			<time>2016-06-07T05:33:45Z</time>
			</trkpt>
		
			<trkpt lat="45.402220" lon="1.761240">
			 <ele>477</ele>
			<time>2016-06-07T05:35:45Z</time>
			</trkpt>
		
			<trkpt lat="45.402170" lon="1.761360">
			 <ele>477</ele>
			<time>2016-06-07T05:37:45Z</time>
			</trkpt>
		
			<trkpt lat="45.402070" lon="1.761550">
			 <ele>478</ele>
			<time>2016-06-07T05:39:45Z</time>
			</trkpt>
		
			<trkpt lat="45.401950" lon="1.761780">
			 <ele>479</ele>
			<time>2016-06-07T05:41:45Z</time>
			</trkpt>
		
			<trkpt lat="45.401840" lon="1.761990">
			 <ele>480</ele>
			<time>2016-06-07T05:43:45Z</time>
			</trkpt>
		
			<trkpt lat="45.401780" lon="1.762140">
			 <ele>480</ele>
			<time>2016-06-07T05:45:45Z</time>
			</trkpt>
		
			<trkpt lat="45.401720" lon="1.762280">
			 <ele>480</ele>
			<time>2016-06-07T05:47:45Z</time>
			</trkpt>
		
			<trkpt lat="45.401710" lon="1.762350">
			 <ele>480</ele>
			<time>2016-06-07T05:49:45Z</time>
			</trkpt>
		
			<trkpt lat="45.401680" lon="1.762450">
			 <ele>480</ele>
			<time>2016-06-07T05:51:45Z</time>
			</trkpt>
		
			<trkpt lat="45.401680" lon="1.762500">
			 <ele>480</ele>
			<time>2016-06-07T05:53:45Z</time>
			</trkpt>
		
			<trkpt lat="45.401680" lon="1.762510">
			 <ele>480</ele>
			<time>2016-06-07T05:55:45Z</time>
			</trkpt>
		
			<trkpt lat="45.401690" lon="1.762610">
			 <ele>479</ele>
			<time>2016-06-07T05:57:45Z</time>
			</trkpt>
		
			<trkpt lat="45.401700" lon="1.762690">
			 <ele>479</ele>
			<time>2016-06-07T05:59:45Z</time>
			</trkpt>
		
			<trkpt lat="45.401710" lon="1.762760">
			 <ele>479</ele>
			<time>2016-06-07T06:01:45Z</time>
			</trkpt>
		
			<trkpt lat="45.401810" lon="1.762900">
			 <ele>477</ele>
			<time>2016-06-07T06:03:45Z</time>
			</trkpt>
		
			<trkpt lat="45.401980" lon="1.763060">
			 <ele>475</ele>
			<time>2016-06-07T06:05:45Z</time>
			</trkpt>
		
			<trkpt lat="45.402200" lon="1.763260">
			 <ele>473</ele>
			<time>2016-06-07T06:07:45Z</time>
			</trkpt>
		
			<trkpt lat="45.402450" lon="1.763480">
			 <ele>471</ele>
			<time>2016-06-07T06:09:45Z</time>
			</trkpt>
		
			<trkpt lat="45.402520" lon="1.763540">
			 <ele>471</ele>
			<time>2016-06-07T06:11:45Z</time>
			</trkpt>
		
			<trkpt lat="45.402920" lon="1.763900">
			 <ele>473</ele>
			<time>2016-06-07T06:13:45Z</time>
			</trkpt>
		
			<trkpt lat="45.403300" lon="1.764230">
			 <ele>474</ele>
			<time>2016-06-07T06:15:45Z</time>
			</trkpt>
		
			<trkpt lat="45.403820" lon="1.764680">
			 <ele>476</ele>
			<time>2016-06-07T06:17:45Z</time>
			</trkpt>
		
			<trkpt lat="45.404300" lon="1.765100">
			 <ele>475</ele>
			<time>2016-06-07T06:19:45Z</time>
			</trkpt>
		
			<trkpt lat="45.404720" lon="1.765460">
			 <ele>475</ele>
			<time>2016-06-07T06:21:45Z</time>
			</trkpt>
		
			<trkpt lat="45.404750" lon="1.765490">
			 <ele>475</ele>
			<time>2016-06-07T06:23:45Z</time>
			</trkpt>
		
			<trkpt lat="45.404910" lon="1.765620">
			 <ele>476</ele>
			<time>2016-06-07T06:25:45Z</time>
			</trkpt>
		
			<trkpt lat="45.405100" lon="1.765780">
			 <ele>476</ele>
			<time>2016-06-07T06:27:45Z</time>
			</trkpt>
		
			<trkpt lat="45.405410" lon="1.766080">
			 <ele>477</ele>
			<time>2016-06-07T06:29:45Z</time>
			</trkpt>
		
			<trkpt lat="45.405570" lon="1.766260">
			 <ele>478</ele>
			<time>2016-06-07T06:31:45Z</time>
			</trkpt>
		
			<trkpt lat="45.405660" lon="1.766360">
			 <ele>478</ele>
			<time>2016-06-07T06:33:45Z</time>
			</trkpt>
		
			<trkpt lat="45.405730" lon="1.766440">
			 <ele>479</ele>
			<time>2016-06-07T06:35:45Z</time>
			</trkpt>
		
			<trkpt lat="45.405740" lon="1.766460">
			 <ele>479</ele>
			<time>2016-06-07T06:37:45Z</time>
			</trkpt>
		
			<trkpt lat="45.405800" lon="1.766500">
			 <ele>480</ele>
			<time>2016-06-07T06:39:45Z</time>
			</trkpt>
		
			<trkpt lat="45.405900" lon="1.766530">
			 <ele>481</ele>
			<time>2016-06-07T06:41:45Z</time>
			</trkpt>
		
			<trkpt lat="45.406000" lon="1.766530">
			 <ele>482</ele>
			<time>2016-06-07T06:43:45Z</time>
			</trkpt>
		
			<trkpt lat="45.406150" lon="1.766500">
			 <ele>483</ele>
			<time>2016-06-07T06:45:45Z</time>
			</trkpt>
		
			<trkpt lat="45.406420" lon="1.766450">
			 <ele>486</ele>
			<time>2016-06-07T06:47:45Z</time>
			</trkpt>
		
			<trkpt lat="45.406550" lon="1.766430">
			 <ele>487</ele>
			<time>2016-06-07T06:49:45Z</time>
			</trkpt>
		
			<trkpt lat="45.406700" lon="1.766420">
			 <ele>489</ele>
			<time>2016-06-07T06:51:45Z</time>
			</trkpt>
		
			<trkpt lat="45.406860" lon="1.766460">
			 <ele>490</ele>
			<time>2016-06-07T06:53:45Z</time>
			</trkpt>
		
			<trkpt lat="45.407040" lon="1.766520">
			 <ele>492</ele>
			<time>2016-06-07T06:55:45Z</time>
			</trkpt>
		
			<trkpt lat="45.407270" lon="1.766640">
			 <ele>494</ele>
			<time>2016-06-07T06:57:45Z</time>
			</trkpt>
		
			<trkpt lat="45.407520" lon="1.766800">
			 <ele>497</ele>
			<time>2016-06-07T06:59:45Z</time>
			</trkpt>
		
			<trkpt lat="45.407770" lon="1.766990">
			 <ele>498</ele>
			<time>2016-06-07T07:01:45Z</time>
			</trkpt>
		
			<trkpt lat="45.407990" lon="1.767170">
			 <ele>499</ele>
			<time>2016-06-07T07:03:45Z</time>
			</trkpt>
		
			<trkpt lat="45.408200" lon="1.767390">
			 <ele>501</ele>
			<time>2016-06-07T07:05:45Z</time>
			</trkpt>
		
			<trkpt lat="45.408540" lon="1.767720">
			 <ele>502</ele>
			<time>2016-06-07T07:07:45Z</time>
			</trkpt>
		
			<trkpt lat="45.408930" lon="1.768120">
			 <ele>503</ele>
			<time>2016-06-07T07:09:45Z</time>
			</trkpt>
		
			<trkpt lat="45.409060" lon="1.768250">
			 <ele>504</ele>
			<time>2016-06-07T07:11:45Z</time>
			</trkpt>
		
			<trkpt lat="45.409270" lon="1.768420">
			 <ele>504</ele>
			<time>2016-06-07T07:13:45Z</time>
			</trkpt>
		
			<trkpt lat="45.409340" lon="1.768480">
			 <ele>505</ele>
			<time>2016-06-07T07:15:45Z</time>
			</trkpt>
		
			<trkpt lat="45.409490" lon="1.768560">
			 <ele>506</ele>
			<time>2016-06-07T07:17:45Z</time>
			</trkpt>
		
			<trkpt lat="45.409680" lon="1.768620">
			 <ele>507</ele>
			<time>2016-06-07T07:19:45Z</time>
			</trkpt>
		
			<trkpt lat="45.410020" lon="1.768700">
			 <ele>509</ele>
			<time>2016-06-07T07:21:45Z</time>
			</trkpt>
		
			<trkpt lat="45.410300" lon="1.768750">
			 <ele>511</ele>
			<time>2016-06-07T07:23:45Z</time>
			</trkpt>
		
			<trkpt lat="45.410670" lon="1.768850">
			 <ele>513</ele>
			<time>2016-06-07T07:25:45Z</time>
			</trkpt>
		
			<trkpt lat="45.410910" lon="1.768990">
			 <ele>513</ele>
			<time>2016-06-07T07:27:45Z</time>
			</trkpt>
		
			<trkpt lat="45.411040" lon="1.769100">
			 <ele>513</ele>
			<time>2016-06-07T07:29:45Z</time>
			</trkpt>
		
			<trkpt lat="45.411200" lon="1.769260">
			 <ele>514</ele>
			<time>2016-06-07T07:31:45Z</time>
			</trkpt>
		
			<trkpt lat="45.411380" lon="1.769450">
			 <ele>514</ele>
			<time>2016-06-07T07:33:45Z</time>
			</trkpt>
		
			<trkpt lat="45.411410" lon="1.769490">
			 <ele>514</ele>
			<time>2016-06-07T07:35:45Z</time>
			</trkpt>
		
			<trkpt lat="45.411470" lon="1.769570">
			 <ele>515</ele>
			<time>2016-06-07T07:37:45Z</time>
			</trkpt>
		
			<trkpt lat="45.411760" lon="1.769920">
			 <ele>515</ele>
			<time>2016-06-07T07:39:45Z</time>
			</trkpt>
		
			<trkpt lat="45.412170" lon="1.770360">
			 <ele>515</ele>
			<time>2016-06-07T07:41:45Z</time>
			</trkpt>
		
			<trkpt lat="45.412430" lon="1.770610">
			 <ele>514</ele>
			<time>2016-06-07T07:43:45Z</time>
			</trkpt>
		
			<trkpt lat="45.412530" lon="1.770680">
			 <ele>514</ele>
			<time>2016-06-07T07:45:45Z</time>
			</trkpt>
		
			<trkpt lat="45.412630" lon="1.770730">
			 <ele>514</ele>
			<time>2016-06-07T07:47:45Z</time>
			</trkpt>
		
			<trkpt lat="45.412820" lon="1.770790">
			 <ele>514</ele>
			<time>2016-06-07T07:49:45Z</time>
			</trkpt>
		
			<trkpt lat="45.412930" lon="1.770790">
			 <ele>513</ele>
			<time>2016-06-07T07:51:45Z</time>
			</trkpt>
		
			<trkpt lat="45.413000" lon="1.770770">
			 <ele>513</ele>
			<time>2016-06-07T07:53:45Z</time>
			</trkpt>
		
			<trkpt lat="45.413120" lon="1.770730">
			 <ele>513</ele>
			<time>2016-06-07T07:55:45Z</time>
			</trkpt>
		
			<trkpt lat="45.413380" lon="1.770600">
			 <ele>513</ele>
			<time>2016-06-07T07:57:45Z</time>
			</trkpt>
		
			<trkpt lat="45.413640" lon="1.770450">
			 <ele>512</ele>
			<time>2016-06-07T07:59:45Z</time>
			</trkpt>
		
			<trkpt lat="45.413910" lon="1.770320">
			 <ele>511</ele>
			<time>2016-06-07T08:01:45Z</time>
			</trkpt>
		
			<trkpt lat="45.414080" lon="1.770240">
			 <ele>510</ele>
			<time>2016-06-07T08:03:45Z</time>
			</trkpt>
		
			<trkpt lat="45.414260" lon="1.770170">
			 <ele>509</ele>
			<time>2016-06-07T08:05:45Z</time>
			</trkpt>
		
			<trkpt lat="45.414520" lon="1.770080">
			 <ele>508</ele>
			<time>2016-06-07T08:07:45Z</time>
			</trkpt>
		
			<trkpt lat="45.414920" lon="1.769950">
			 <ele>507</ele>
			<time>2016-06-07T08:09:45Z</time>
			</trkpt>
		
			<trkpt lat="45.415070" lon="1.769930">
			 <ele>506</ele>
			<time>2016-06-07T08:11:45Z</time>
			</trkpt>
		
			<trkpt lat="45.415170" lon="1.769930">
			 <ele>506</ele>
			<time>2016-06-07T08:13:45Z</time>
			</trkpt>
		
			<trkpt lat="45.415190" lon="1.769930">
			 <ele>506</ele>
			<time>2016-06-07T08:15:45Z</time>
			</trkpt>
		
			<trkpt lat="45.415310" lon="1.769970">
			 <ele>505</ele>
			<time>2016-06-07T08:17:45Z</time>
			</trkpt>
		
			<trkpt lat="45.415340" lon="1.769980">
			 <ele>505</ele>
			<time>2016-06-07T08:19:45Z</time>
			</trkpt>
		
			<trkpt lat="45.415450" lon="1.770050">
			 <ele>505</ele>
			<time>2016-06-07T08:21:45Z</time>
			</trkpt>
		
			<trkpt lat="45.415480" lon="1.770060">
			 <ele>505</ele>
			<time>2016-06-07T08:23:45Z</time>
			</trkpt>
		
			<trkpt lat="45.415610" lon="1.770120">
			 <ele>504</ele>
			<time>2016-06-07T08:25:45Z</time>
			</trkpt>
		
			<trkpt lat="45.415640" lon="1.770130">
			 <ele>504</ele>
			<time>2016-06-07T08:27:45Z</time>
			</trkpt>
		
			<trkpt lat="45.415750" lon="1.770130">
			 <ele>504</ele>
			<time>2016-06-07T08:29:45Z</time>
			</trkpt>
		
			<trkpt lat="45.415870" lon="1.770110">
			 <ele>503</ele>
			<time>2016-06-07T08:31:45Z</time>
			</trkpt>
		
			<trkpt lat="45.416070" lon="1.770020">
			 <ele>503</ele>
			<time>2016-06-07T08:33:45Z</time>
			</trkpt>
		
			<trkpt lat="45.416430" lon="1.769850">
			 <ele>501</ele>
			<time>2016-06-07T08:35:45Z</time>
			</trkpt>
		
			<trkpt lat="45.416830" lon="1.769650">
			 <ele>499</ele>
			<time>2016-06-07T08:37:45Z</time>
			</trkpt>
		
			<trkpt lat="45.417240" lon="1.769440">
			 <ele>497</ele>
			<time>2016-06-07T08:39:45Z</time>
			</trkpt>
		
			<trkpt lat="45.417480" lon="1.769320">
			 <ele>496</ele>
			<time>2016-06-07T08:41:45Z</time>
			</trkpt>
		
			<trkpt lat="45.417580" lon="1.769270">
			 <ele>496</ele>
			<time>2016-06-07T08:43:45Z</time>
			</trkpt>
		
			<trkpt lat="45.417890" lon="1.769110">
			 <ele>495</ele>
			<time>2016-06-07T08:45:45Z</time>
			</trkpt>
		
			<trkpt lat="45.418080" lon="1.769030">
			 <ele>494</ele>
			<time>2016-06-07T08:47:45Z</time>
			</trkpt>
		
			<trkpt lat="45.418190" lon="1.768990">
			 <ele>494</ele>
			<time>2016-06-07T08:49:45Z</time>
			</trkpt>
		
			<trkpt lat="45.418250" lon="1.768980">
			 <ele>494</ele>
			<time>2016-06-07T08:51:45Z</time>
			</trkpt>
		
			<trkpt lat="45.418490" lon="1.768930">
			 <ele>494</ele>
			<time>2016-06-07T08:53:45Z</time>
			</trkpt>
		
			<trkpt lat="45.418990" lon="1.768870">
			 <ele>493</ele>
			<time>2016-06-07T08:55:45Z</time>
			</trkpt>
		
			<trkpt lat="45.419630" lon="1.768820">
			 <ele>492</ele>
			<time>2016-06-07T08:57:45Z</time>
			</trkpt>
		
			<trkpt lat="45.420150" lon="1.768760">
			 <ele>491</ele>
			<time>2016-06-07T08:59:45Z</time>
			</trkpt>
		
			<trkpt lat="45.420490" lon="1.768730">
			 <ele>491</ele>
			<time>2016-06-07T09:01:45Z</time>
			</trkpt>
		
			<trkpt lat="45.420600" lon="1.768720">
			 <ele>491</ele>
			<time>2016-06-07T09:03:45Z</time>
			</trkpt>
		
			<trkpt lat="45.421180" lon="1.768670">
			 <ele>491</ele>
			<time>2016-06-07T09:05:45Z</time>
			</trkpt>
		
			<trkpt lat="45.421510" lon="1.768640">
			 <ele>490</ele>
			<time>2016-06-07T09:07:45Z</time>
			</trkpt>
		
			<trkpt lat="45.421820" lon="1.768610">
			 <ele>490</ele>
			<time>2016-06-07T09:09:45Z</time>
			</trkpt>
		
			<trkpt lat="45.422350" lon="1.768560">
			 <ele>490</ele>
			<time>2016-06-07T09:11:45Z</time>
			</trkpt>
		
			<trkpt lat="45.422440" lon="1.768550">
			 <ele>490</ele>
			<time>2016-06-07T09:13:45Z</time>
			</trkpt>
		
			<trkpt lat="45.423000" lon="1.768480">
			 <ele>491</ele>
			<time>2016-06-07T09:15:45Z</time>
			</trkpt>
		
			<trkpt lat="45.423590" lon="1.768420">
			 <ele>491</ele>
			<time>2016-06-07T09:17:45Z</time>
			</trkpt>
		
			<trkpt lat="45.424400" lon="1.768370">
			 <ele>494</ele>
			<time>2016-06-07T09:19:45Z</time>
			</trkpt>
		
			<trkpt lat="45.424680" lon="1.768340">
			 <ele>495</ele>
			<time>2016-06-07T09:21:45Z</time>
			</trkpt>
		
			<trkpt lat="45.424840" lon="1.768330">
			 <ele>495</ele>
			<time>2016-06-07T09:23:45Z</time>
			</trkpt>
		
			<trkpt lat="45.425140" lon="1.768300">
			 <ele>495</ele>
			<time>2016-06-07T09:25:45Z</time>
			</trkpt>
		
			<trkpt lat="45.425620" lon="1.768250">
			 <ele>493</ele>
			<time>2016-06-07T09:27:45Z</time>
			</trkpt>
		
			<trkpt lat="45.425790" lon="1.768230">
			 <ele>493</ele>
			<time>2016-06-07T09:29:45Z</time>
			</trkpt>
		
			<trkpt lat="45.425880" lon="1.768210">
			 <ele>493</ele>
			<time>2016-06-07T09:31:45Z</time>
			</trkpt>
		
			<trkpt lat="45.426110" lon="1.768160">
			 <ele>492</ele>
			<time>2016-06-07T09:33:45Z</time>
			</trkpt>
		
			<trkpt lat="45.426360" lon="1.768080">
			 <ele>492</ele>
			<time>2016-06-07T09:35:45Z</time>
			</trkpt>
		
			<trkpt lat="45.426810" lon="1.767920">
			 <ele>491</ele>
			<time>2016-06-07T09:37:45Z</time>
			</trkpt>
		
			<trkpt lat="45.427240" lon="1.767760">
			 <ele>490</ele>
			<time>2016-06-07T09:39:45Z</time>
			</trkpt>
		
			<trkpt lat="45.427480" lon="1.767690">
			 <ele>489</ele>
			<time>2016-06-07T09:41:45Z</time>
			</trkpt>
		
			<trkpt lat="45.427650" lon="1.767670">
			 <ele>490</ele>
			<time>2016-06-07T09:43:45Z</time>
			</trkpt>
		
			<trkpt lat="45.427770" lon="1.767690">
			 <ele>490</ele>
			<time>2016-06-07T09:45:45Z</time>
			</trkpt>
		
			<trkpt lat="45.427920" lon="1.767720">
			 <ele>491</ele>
			<time>2016-06-07T09:47:45Z</time>
			</trkpt>
		
			<trkpt lat="45.428060" lon="1.767810">
			 <ele>491</ele>
			<time>2016-06-07T09:49:45Z</time>
			</trkpt>
		
			<trkpt lat="45.428160" lon="1.767880">
			 <ele>491</ele>
			<time>2016-06-07T09:51:45Z</time>
			</trkpt>
		
			<trkpt lat="45.428330" lon="1.768050">
			 <ele>492</ele>
			<time>2016-06-07T09:53:45Z</time>
			</trkpt>
		
			<trkpt lat="45.428450" lon="1.768160">
			 <ele>492</ele>
			<time>2016-06-07T09:55:45Z</time>
			</trkpt>
		
			<trkpt lat="45.428570" lon="1.768270">
			 <ele>493</ele>
			<time>2016-06-07T09:57:45Z</time>
			</trkpt>
		
			<trkpt lat="45.428740" lon="1.768380">
			 <ele>494</ele>
			<time>2016-06-07T09:59:45Z</time>
			</trkpt>
		
			<trkpt lat="45.428880" lon="1.768430">
			 <ele>494</ele>
			<time>2016-06-07T10:01:45Z</time>
			</trkpt>
		
			<trkpt lat="45.428970" lon="1.768440">
			 <ele>495</ele>
			<time>2016-06-07T10:03:45Z</time>
			</trkpt>
		
			<trkpt lat="45.429040" lon="1.768440">
			 <ele>495</ele>
			<time>2016-06-07T10:05:45Z</time>
			</trkpt>
		
			<trkpt lat="45.429300" lon="1.768410">
			 <ele>496</ele>
			<time>2016-06-07T10:07:45Z</time>
			</trkpt>
		
			<trkpt lat="45.429740" lon="1.768360">
			 <ele>497</ele>
			<time>2016-06-07T10:09:45Z</time>
			</trkpt>
		
			<trkpt lat="45.430190" lon="1.768310">
			 <ele>498</ele>
			<time>2016-06-07T10:11:45Z</time>
			</trkpt>
		
			<trkpt lat="45.430480" lon="1.768280">
			 <ele>498</ele>
			<time>2016-06-07T10:13:45Z</time>
			</trkpt>
		
			<trkpt lat="45.430670" lon="1.768230">
			 <ele>498</ele>
			<time>2016-06-07T10:15:45Z</time>
			</trkpt>
		
			<trkpt lat="45.430800" lon="1.768180">
			 <ele>498</ele>
			<time>2016-06-07T10:17:45Z</time>
			</trkpt>
		
			<trkpt lat="45.430950" lon="1.768090">
			 <ele>498</ele>
			<time>2016-06-07T10:19:45Z</time>
			</trkpt>
		
			<trkpt lat="45.431050" lon="1.768020">
			 <ele>498</ele>
			<time>2016-06-07T10:21:45Z</time>
			</trkpt>
		
			<trkpt lat="45.431160" lon="1.767940">
			 <ele>498</ele>
			<time>2016-06-07T10:23:45Z</time>
			</trkpt>
		
			<trkpt lat="45.431330" lon="1.767790">
			 <ele>498</ele>
			<time>2016-06-07T10:25:45Z</time>
			</trkpt>
		
			<trkpt lat="45.431630" lon="1.767510">
			 <ele>498</ele>
			<time>2016-06-07T10:27:45Z</time>
			</trkpt>
		
			<trkpt lat="45.431840" lon="1.767330">
			 <ele>499</ele>
			<time>2016-06-07T10:29:45Z</time>
			</trkpt>
		
			<trkpt lat="45.432010" lon="1.767200">
			 <ele>499</ele>
			<time>2016-06-07T10:31:45Z</time>
			</trkpt>
		
			<trkpt lat="45.432090" lon="1.767150">
			 <ele>499</ele>
			<time>2016-06-07T10:33:45Z</time>
			</trkpt>
		
			<trkpt lat="45.432160" lon="1.767120">
			 <ele>499</ele>
			<time>2016-06-07T10:35:45Z</time>
			</trkpt>
		
			<trkpt lat="45.432240" lon="1.767110">
			 <ele>499</ele>
			<time>2016-06-07T10:37:45Z</time>
			</trkpt>
		
			<trkpt lat="45.432320" lon="1.767110">
			 <ele>500</ele>
			<time>2016-06-07T10:39:45Z</time>
			</trkpt>
		
			<trkpt lat="45.432430" lon="1.767140">
			 <ele>500</ele>
			<time>2016-06-07T10:41:45Z</time>
			</trkpt>
		
			<trkpt lat="45.432510" lon="1.767190">
			 <ele>500</ele>
			<time>2016-06-07T10:43:45Z</time>
			</trkpt>
		
			<trkpt lat="45.432580" lon="1.767240">
			 <ele>501</ele>
			<time>2016-06-07T10:45:45Z</time>
			</trkpt>
		
			<trkpt lat="45.432580" lon="1.767240">
			 <ele>501</ele>
			<time>2016-06-07T10:47:45Z</time>
			</trkpt>
		
			<trkpt lat="45.432390" lon="1.767360">
			 <ele>500</ele>
			<time>2016-06-07T10:49:45Z</time>
			</trkpt>
		
			<trkpt lat="45.432210" lon="1.767550">
			 <ele>500</ele>
			<time>2016-06-07T10:51:45Z</time>
			</trkpt>
		
			<trkpt lat="45.432110" lon="1.767720">
			 <ele>499</ele>
			<time>2016-06-07T10:53:45Z</time>
			</trkpt>
		
			<trkpt lat="45.432110" lon="1.767740">
			 <ele>499</ele>
			<time>2016-06-07T10:55:45Z</time>
			</trkpt>
		
			<trkpt lat="45.432020" lon="1.767950">
			 <ele>498</ele>
			<time>2016-06-07T10:57:45Z</time>
			</trkpt>
		
			<trkpt lat="45.432020" lon="1.767970">
			 <ele>498</ele>
			<time>2016-06-07T10:59:45Z</time>
			</trkpt>
		
			<trkpt lat="45.431900" lon="1.768420">
			 <ele>495</ele>
			<time>2016-06-07T11:01:45Z</time>
			</trkpt>
		
			<trkpt lat="45.431780" lon="1.768980">
			 <ele>492</ele>
			<time>2016-06-07T11:03:45Z</time>
			</trkpt>
		
			<trkpt lat="45.431570" lon="1.769790">
			 <ele>492</ele>
			<time>2016-06-07T11:05:45Z</time>
			</trkpt>
		
			<trkpt lat="45.431560" lon="1.769860">
			 <ele>492</ele>
			<time>2016-06-07T11:07:45Z</time>
			</trkpt>
		
			<trkpt lat="45.431390" lon="1.770570">
			 <ele>490</ele>
			<time>2016-06-07T11:09:45Z</time>
			</trkpt>
		
			<trkpt lat="45.431210" lon="1.771310">
			 <ele>487</ele>
			<time>2016-06-07T11:11:45Z</time>
			</trkpt>
		
			<trkpt lat="45.431090" lon="1.771800">
			 <ele>485</ele>
			<time>2016-06-07T11:13:45Z</time>
			</trkpt>
		
			<trkpt lat="45.431010" lon="1.772080">
			 <ele>485</ele>
			<time>2016-06-07T11:15:45Z</time>
			</trkpt>
		
			<trkpt lat="45.430870" lon="1.772440">
			 <ele>485</ele>
			<time>2016-06-07T11:17:45Z</time>
			</trkpt>
		
			<trkpt lat="45.430840" lon="1.772510">
			 <ele>485</ele>
			<time>2016-06-07T11:19:45Z</time>
			</trkpt>
		
			<trkpt lat="45.430680" lon="1.772830">
			 <ele>486</ele>
			<time>2016-06-07T11:21:45Z</time>
			</trkpt>
		
			<trkpt lat="45.430610" lon="1.772870">
			 <ele>486</ele>
			<time>2016-06-07T11:23:45Z</time>
			</trkpt>
		
			<trkpt lat="45.430560" lon="1.772870">
			 <ele>486</ele>
			<time>2016-06-07T11:25:45Z</time>
			</trkpt>
		
			<trkpt lat="45.430440" lon="1.772810">
			 <ele>486</ele>
			<time>2016-06-07T11:27:45Z</time>
			</trkpt>
		
			<trkpt lat="45.430220" lon="1.772790">
			 <ele>486</ele>
			<time>2016-06-07T11:29:45Z</time>
			</trkpt>
		
			<trkpt lat="45.430090" lon="1.772810">
			 <ele>486</ele>
			<time>2016-06-07T11:31:45Z</time>
			</trkpt>
		
			<trkpt lat="45.429980" lon="1.772880">
			 <ele>486</ele>
			<time>2016-06-07T11:33:45Z</time>
			</trkpt>
		
			<trkpt lat="45.429890" lon="1.772990">
			 <ele>486</ele>
			<time>2016-06-07T11:35:45Z</time>
			</trkpt>
		
			<trkpt lat="45.429760" lon="1.773140">
			 <ele>485</ele>
			<time>2016-06-07T11:37:45Z</time>
			</trkpt>
		
			<trkpt lat="45.429660" lon="1.773240">
			 <ele>485</ele>
			<time>2016-06-07T11:39:45Z</time>
			</trkpt>
		
			<trkpt lat="45.429500" lon="1.773350">
			 <ele>484</ele>
			<time>2016-06-07T11:41:45Z</time>
			</trkpt>
		
			<trkpt lat="45.429310" lon="1.773490">
			 <ele>484</ele>
			<time>2016-06-07T11:43:45Z</time>
			</trkpt>
		
			<trkpt lat="45.429170" lon="1.773650">
			 <ele>484</ele>
			<time>2016-06-07T11:45:45Z</time>
			</trkpt>
		
			<trkpt lat="45.428990" lon="1.773870">
			 <ele>484</ele>
			<time>2016-06-07T11:47:45Z</time>
			</trkpt>
		
			<trkpt lat="45.428850" lon="1.774060">
			 <ele>484</ele>
			<time>2016-06-07T11:49:45Z</time>
			</trkpt>
		
			<trkpt lat="45.428530" lon="1.774490">
			 <ele>484</ele>
			<time>2016-06-07T11:51:45Z</time>
			</trkpt>
		
			<trkpt lat="45.428420" lon="1.774670">
			 <ele>484</ele>
			<time>2016-06-07T11:53:45Z</time>
			</trkpt>
		
			<trkpt lat="45.428380" lon="1.774800">
			 <ele>484</ele>
			<time>2016-06-07T11:55:45Z</time>
			</trkpt>
		
			<trkpt lat="45.428340" lon="1.775100">
			 <ele>484</ele>
			<time>2016-06-07T11:57:45Z</time>
			</trkpt>
		
			<trkpt lat="45.428290" lon="1.775710">
			 <ele>482</ele>
			<time>2016-06-07T11:59:45Z</time>
			</trkpt>
		
			<trkpt lat="45.428240" lon="1.776410">
			 <ele>481</ele>
			<time>2016-06-07T12:01:45Z</time>
			</trkpt>
		
			<trkpt lat="45.428200" lon="1.776850">
			 <ele>481</ele>
			<time>2016-06-07T12:03:45Z</time>
			</trkpt>
		
			<trkpt lat="45.428190" lon="1.777240">
			 <ele>481</ele>
			<time>2016-06-07T12:05:45Z</time>
			</trkpt>
		
			<trkpt lat="45.428190" lon="1.777610">
			 <ele>482</ele>
			<time>2016-06-07T12:07:45Z</time>
			</trkpt>
		
			<trkpt lat="45.428170" lon="1.777880">
			 <ele>482</ele>
			<time>2016-06-07T12:09:45Z</time>
			</trkpt>
		
			<trkpt lat="45.428160" lon="1.778000">
			 <ele>482</ele>
			<time>2016-06-07T12:11:45Z</time>
			</trkpt>
		
			<trkpt lat="45.428150" lon="1.778030">
			 <ele>482</ele>
			<time>2016-06-07T12:13:45Z</time>
			</trkpt>
		
			<trkpt lat="45.428100" lon="1.778570">
			 <ele>482</ele>
			<time>2016-06-07T12:15:45Z</time>
			</trkpt>
		
			<trkpt lat="45.428090" lon="1.778680">
			 <ele>482</ele>
			<time>2016-06-07T12:17:45Z</time>
			</trkpt>
		
			<trkpt lat="45.428030" lon="1.779210">
			 <ele>480</ele>
			<time>2016-06-07T12:19:45Z</time>
			</trkpt>
		
			<trkpt lat="45.428020" lon="1.779240">
			 <ele>480</ele>
			<time>2016-06-07T12:21:45Z</time>
			</trkpt>
		
			<trkpt lat="45.427970" lon="1.779640">
			 <ele>481</ele>
			<time>2016-06-07T12:23:45Z</time>
			</trkpt>
		
			<trkpt lat="45.427910" lon="1.779940">
			 <ele>482</ele>
			<time>2016-06-07T12:25:45Z</time>
			</trkpt>
		
			<trkpt lat="45.427830" lon="1.780180">
			 <ele>484</ele>
			<time>2016-06-07T12:27:45Z</time>
			</trkpt>
		
			<trkpt lat="45.427750" lon="1.780330">
			 <ele>485</ele>
			<time>2016-06-07T12:29:45Z</time>
			</trkpt>
		
			<trkpt lat="45.427660" lon="1.780400">
			 <ele>486</ele>
			<time>2016-06-07T12:31:45Z</time>
			</trkpt>
		
			<trkpt lat="45.427520" lon="1.780450">
			 <ele>486</ele>
			<time>2016-06-07T12:33:45Z</time>
			</trkpt>
		
			<trkpt lat="45.427360" lon="1.780500">
			 <ele>486</ele>
			<time>2016-06-07T12:35:45Z</time>
			</trkpt>
		
			<trkpt lat="45.427130" lon="1.780610">
			 <ele>486</ele>
			<time>2016-06-07T12:37:45Z</time>
			</trkpt>
		
			<trkpt lat="45.426950" lon="1.780690">
			 <ele>485</ele>
			<time>2016-06-07T12:39:45Z</time>
			</trkpt>
		
			<trkpt lat="45.426750" lon="1.780750">
			 <ele>484</ele>
			<time>2016-06-07T12:41:45Z</time>
			</trkpt>
		
			<trkpt lat="45.426640" lon="1.780740">
			 <ele>483</ele>
			<time>2016-06-07T12:43:45Z</time>
			</trkpt>
		
			<trkpt lat="45.426550" lon="1.780730">
			 <ele>483</ele>
			<time>2016-06-07T12:45:45Z</time>
			</trkpt>
		
			<trkpt lat="45.426460" lon="1.780760">
			 <ele>482</ele>
			<time>2016-06-07T12:47:45Z</time>
			</trkpt>
		
			<trkpt lat="45.426450" lon="1.780770">
			 <ele>482</ele>
			<time>2016-06-07T12:49:45Z</time>
			</trkpt>
		
			<trkpt lat="45.426410" lon="1.780790">
			 <ele>482</ele>
			<time>2016-06-07T12:51:45Z</time>
			</trkpt>
		
			<trkpt lat="45.426380" lon="1.780830">
			 <ele>482</ele>
			<time>2016-06-07T12:53:45Z</time>
			</trkpt>
		
			<trkpt lat="45.426370" lon="1.780840">
			 <ele>482</ele>
			<time>2016-06-07T12:55:45Z</time>
			</trkpt>
		
			<trkpt lat="45.426340" lon="1.780870">
			 <ele>482</ele>
			<time>2016-06-07T12:57:45Z</time>
			</trkpt>
		
			<trkpt lat="45.426310" lon="1.780910">
			 <ele>482</ele>
			<time>2016-06-07T12:59:45Z</time>
			</trkpt>
		
			<trkpt lat="45.426300" lon="1.780930">
			 <ele>482</ele>
			<time>2016-06-07T13:01:45Z</time>
			</trkpt>
		
			<trkpt lat="45.426250" lon="1.781040">
			 <ele>483</ele>
			<time>2016-06-07T13:03:45Z</time>
			</trkpt>
		
			<trkpt lat="45.426250" lon="1.781050">
			 <ele>483</ele>
			<time>2016-06-07T13:05:45Z</time>
			</trkpt>
		
			<trkpt lat="45.426220" lon="1.781350">
			 <ele>485</ele>
			<time>2016-06-07T13:07:45Z</time>
			</trkpt>
		
			<trkpt lat="45.426220" lon="1.781930">
			 <ele>487</ele>
			<time>2016-06-07T13:09:45Z</time>
			</trkpt>
		
			<trkpt lat="45.426230" lon="1.782290">
			 <ele>487</ele>
			<time>2016-06-07T13:11:45Z</time>
			</trkpt>
		
			<trkpt lat="45.426220" lon="1.782400">
			 <ele>487</ele>
			<time>2016-06-07T13:13:45Z</time>
			</trkpt>
		
			<trkpt lat="45.426210" lon="1.782440">
			 <ele>486</ele>
			<time>2016-06-07T13:15:45Z</time>
			</trkpt>
		
			<trkpt lat="45.426180" lon="1.782460">
			 <ele>486</ele>
			<time>2016-06-07T13:17:45Z</time>
			</trkpt>
		
			<trkpt lat="45.426160" lon="1.782470">
			 <ele>486</ele>
			<time>2016-06-07T13:19:45Z</time>
			</trkpt>
		
			<trkpt lat="45.426140" lon="1.782490">
			 <ele>486</ele>
			<time>2016-06-07T13:21:45Z</time>
			</trkpt>
		
			<trkpt lat="45.426110" lon="1.782490">
			 <ele>486</ele>
			<time>2016-06-07T13:23:45Z</time>
			</trkpt>
		
			<trkpt lat="45.426080" lon="1.782480">
			 <ele>486</ele>
			<time>2016-06-07T13:25:45Z</time>
			</trkpt>
		
			<trkpt lat="45.426050" lon="1.782460">
			 <ele>486</ele>
			<time>2016-06-07T13:27:45Z</time>
			</trkpt>
		
			<trkpt lat="45.425940" lon="1.782360">
			 <ele>486</ele>
			<time>2016-06-07T13:29:45Z</time>
			</trkpt>
		
			<trkpt lat="45.425760" lon="1.782170">
			 <ele>486</ele>
			<time>2016-06-07T13:31:45Z</time>
			</trkpt>
		
			<trkpt lat="45.425650" lon="1.782100">
			 <ele>487</ele>
			<time>2016-06-07T13:33:45Z</time>
			</trkpt>
		
			<trkpt lat="45.425620" lon="1.782080">
			 <ele>487</ele>
			<time>2016-06-07T13:35:45Z</time>
			</trkpt>
		
			<trkpt lat="45.425610" lon="1.782080">
			 <ele>487</ele>
			<time>2016-06-07T13:37:45Z</time>
			</trkpt>
		
			<trkpt lat="45.425590" lon="1.782080">
			 <ele>487</ele>
			<time>2016-06-07T13:39:45Z</time>
			</trkpt>
		
			<trkpt lat="45.425530" lon="1.782110">
			 <ele>487</ele>
			<time>2016-06-07T13:41:45Z</time>
			</trkpt>
		
			<trkpt lat="45.425420" lon="1.782170">
			 <ele>487</ele>
			<time>2016-06-07T13:43:45Z</time>
			</trkpt>
		
			<trkpt lat="45.425280" lon="1.782280">
			 <ele>488</ele>
			<time>2016-06-07T13:45:45Z</time>
			</trkpt>
		
			<trkpt lat="45.425180" lon="1.782310">
			 <ele>489</ele>
			<time>2016-06-07T13:47:45Z</time>
			</trkpt>
		
			<trkpt lat="45.425130" lon="1.782300">
			 <ele>489</ele>
			<time>2016-06-07T13:49:45Z</time>
			</trkpt>
		
			<trkpt lat="45.425070" lon="1.782280">
			 <ele>489</ele>
			<time>2016-06-07T13:51:45Z</time>
			</trkpt>
		
			<trkpt lat="45.425010" lon="1.782240">
			 <ele>489</ele>
			<time>2016-06-07T13:53:45Z</time>
			</trkpt>
		
			<trkpt lat="45.424930" lon="1.782170">
			 <ele>489</ele>
			<time>2016-06-07T13:55:45Z</time>
			</trkpt>
		
			<trkpt lat="45.424800" lon="1.782020">
			 <ele>489</ele>
			<time>2016-06-07T13:57:45Z</time>
			</trkpt>
		
			<trkpt lat="45.424680" lon="1.781890">
			 <ele>489</ele>
			<time>2016-06-07T13:59:45Z</time>
			</trkpt>
		
			<trkpt lat="45.424620" lon="1.781840">
			 <ele>490</ele>
			<time>2016-06-07T14:01:45Z</time>
			</trkpt>
		
			<trkpt lat="45.424580" lon="1.781830">
			 <ele>490</ele>
			<time>2016-06-07T14:03:45Z</time>
			</trkpt>
		
			<trkpt lat="45.424530" lon="1.781830">
			 <ele>490</ele>
			<time>2016-06-07T14:05:45Z</time>
			</trkpt>
		
			<trkpt lat="45.424450" lon="1.781860">
			 <ele>490</ele>
			<time>2016-06-07T14:07:45Z</time>
			</trkpt>
		
			<trkpt lat="45.424310" lon="1.781980">
			 <ele>492</ele>
			<time>2016-06-07T14:09:45Z</time>
			</trkpt>
		
			<trkpt lat="45.423990" lon="1.782300">
			 <ele>493</ele>
			<time>2016-06-07T14:11:45Z</time>
			</trkpt>
		
			<trkpt lat="45.423920" lon="1.782370">
			 <ele>493</ele>
			<time>2016-06-07T14:13:45Z</time>
			</trkpt>
		
			<trkpt lat="45.423680" lon="1.782600">
			 <ele>494</ele>
			<time>2016-06-07T14:15:45Z</time>
			</trkpt>
		
			<trkpt lat="45.423320" lon="1.782950">
			 <ele>497</ele>
			<time>2016-06-07T14:17:45Z</time>
			</trkpt>
		
			<trkpt lat="45.423020" lon="1.783250">
			 <ele>499</ele>
			<time>2016-06-07T14:19:45Z</time>
			</trkpt>
		
			<trkpt lat="45.422850" lon="1.783420">
			 <ele>499</ele>
			<time>2016-06-07T14:21:45Z</time>
			</trkpt>
		
			<trkpt lat="45.422810" lon="1.783470">
			 <ele>499</ele>
			<time>2016-06-07T14:23:45Z</time>
			</trkpt>
		
			<trkpt lat="45.422770" lon="1.783520">
			 <ele>499</ele>
			<time>2016-06-07T14:25:45Z</time>
			</trkpt>
		
			<trkpt lat="45.422720" lon="1.783600">
			 <ele>499</ele>
			<time>2016-06-07T14:27:45Z</time>
			</trkpt>
		
			<trkpt lat="45.422490" lon="1.783770">
			 <ele>498</ele>
			<time>2016-06-07T14:29:45Z</time>
			</trkpt>
		
			<trkpt lat="45.422430" lon="1.783800">
			 <ele>498</ele>
			<time>2016-06-07T14:31:45Z</time>
			</trkpt>
		
			<trkpt lat="45.422340" lon="1.783830">
			 <ele>498</ele>
			<time>2016-06-07T14:33:45Z</time>
			</trkpt>
		
			<trkpt lat="45.422280" lon="1.783840">
			 <ele>498</ele>
			<time>2016-06-07T14:35:45Z</time>
			</trkpt>
		
			<trkpt lat="45.422230" lon="1.783840">
			 <ele>497</ele>
			<time>2016-06-07T14:37:45Z</time>
			</trkpt>
		
			<trkpt lat="45.422090" lon="1.783830">
			 <ele>497</ele>
			<time>2016-06-07T14:39:45Z</time>
			</trkpt>
		
			<trkpt lat="45.421970" lon="1.783790">
			 <ele>496</ele>
			<time>2016-06-07T14:41:45Z</time>
			</trkpt>
		
			<trkpt lat="45.421970" lon="1.783790">
			 <ele>496</ele>
			<time>2016-06-07T14:43:45Z</time>
			</trkpt>
		
			<trkpt lat="45.421950" lon="1.783950">
			 <ele>496</ele>
			<time>2016-06-07T14:45:45Z</time>
			</trkpt>
		
			<trkpt lat="45.421940" lon="1.784160">
			 <ele>497</ele>
			<time>2016-06-07T14:47:45Z</time>
			</trkpt>
		
			<trkpt lat="45.421930" lon="1.784330">
			 <ele>497</ele>
			<time>2016-06-07T14:49:45Z</time>
			</trkpt>
		
			<trkpt lat="45.421910" lon="1.784790">
			 <ele>495</ele>
			<time>2016-06-07T14:51:45Z</time>
			</trkpt>
		
			<trkpt lat="45.421890" lon="1.785040">
			 <ele>495</ele>
			<time>2016-06-07T14:53:45Z</time>
			</trkpt>
		
			<trkpt lat="45.421890" lon="1.785120">
			 <ele>494</ele>
			<time>2016-06-07T14:55:45Z</time>
			</trkpt>
		
			<trkpt lat="45.421900" lon="1.785190">
			 <ele>494</ele>
			<time>2016-06-07T14:57:45Z</time>
			</trkpt>
		
			<trkpt lat="45.421920" lon="1.785260">
			 <ele>493</ele>
			<time>2016-06-07T14:59:45Z</time>
			</trkpt>
		
			<trkpt lat="45.421970" lon="1.785370">
			 <ele>493</ele>
			<time>2016-06-07T15:01:45Z</time>
			</trkpt>
		
			<trkpt lat="45.422070" lon="1.785510">
			 <ele>492</ele>
			<time>2016-06-07T15:03:45Z</time>
			</trkpt>
		
			<trkpt lat="45.422140" lon="1.785610">
			 <ele>492</ele>
			<time>2016-06-07T15:05:45Z</time>
			</trkpt>
		
			<trkpt lat="45.422180" lon="1.785680">
			 <ele>492</ele>
			<time>2016-06-07T15:07:45Z</time>
			</trkpt>
		
			<trkpt lat="45.422240" lon="1.785840">
			 <ele>491</ele>
			<time>2016-06-07T15:09:45Z</time>
			</trkpt>
		
			<trkpt lat="45.422300" lon="1.786090">
			 <ele>492</ele>
			<time>2016-06-07T15:11:45Z</time>
			</trkpt>
		
			<trkpt lat="45.422320" lon="1.786190">
			 <ele>492</ele>
			<time>2016-06-07T15:13:45Z</time>
			</trkpt>
		
			<trkpt lat="45.422320" lon="1.786270">
			 <ele>492</ele>
			<time>2016-06-07T15:15:45Z</time>
			</trkpt>
		
			<trkpt lat="45.422320" lon="1.786360">
			 <ele>492</ele>
			<time>2016-06-07T15:17:45Z</time>
			</trkpt>
		
			<trkpt lat="45.422300" lon="1.786420">
			 <ele>492</ele>
			<time>2016-06-07T15:19:45Z</time>
			</trkpt>
		
			<trkpt lat="45.422270" lon="1.786480">
			 <ele>492</ele>
			<time>2016-06-07T15:21:45Z</time>
			</trkpt>
		
			<trkpt lat="45.422250" lon="1.786510">
			 <ele>491</ele>
			<time>2016-06-07T15:23:45Z</time>
			</trkpt>
		
			<trkpt lat="45.422170" lon="1.786620">
			 <ele>490</ele>
			<time>2016-06-07T15:25:45Z</time>
			</trkpt>
		
			<trkpt lat="45.422020" lon="1.786780">
			 <ele>488</ele>
			<time>2016-06-07T15:27:45Z</time>
			</trkpt>
		
			<trkpt lat="45.421920" lon="1.786910">
			 <ele>488</ele>
			<time>2016-06-07T15:29:45Z</time>
			</trkpt>
		
			<trkpt lat="45.421860" lon="1.787000">
			 <ele>487</ele>
			<time>2016-06-07T15:31:45Z</time>
			</trkpt>
		
			<trkpt lat="45.421840" lon="1.787050">
			 <ele>487</ele>
			<time>2016-06-07T15:33:45Z</time>
			</trkpt>
		
			<trkpt lat="45.421800" lon="1.787220">
			 <ele>487</ele>
			<time>2016-06-07T15:35:45Z</time>
			</trkpt>
		
			<trkpt lat="45.421770" lon="1.787370">
			 <ele>487</ele>
			<time>2016-06-07T15:37:45Z</time>
			</trkpt>
		
			<trkpt lat="45.421760" lon="1.787450">
			 <ele>487</ele>
			<time>2016-06-07T15:39:45Z</time>
			</trkpt>
		
			<trkpt lat="45.421770" lon="1.787500">
			 <ele>487</ele>
			<time>2016-06-07T15:41:45Z</time>
			</trkpt>
		
			<trkpt lat="45.421780" lon="1.787550">
			 <ele>487</ele>
			<time>2016-06-07T15:43:45Z</time>
			</trkpt>
		
			<trkpt lat="45.421810" lon="1.787630">
			 <ele>487</ele>
			<time>2016-06-07T15:45:45Z</time>
			</trkpt>
		
			<trkpt lat="45.421950" lon="1.787860">
			 <ele>488</ele>
			<time>2016-06-07T15:47:45Z</time>
			</trkpt>
		
			<trkpt lat="45.422020" lon="1.787970">
			 <ele>488</ele>
			<time>2016-06-07T15:49:45Z</time>
			</trkpt>
		
			<trkpt lat="45.422120" lon="1.788110">
			 <ele>488</ele>
			<time>2016-06-07T15:51:45Z</time>
			</trkpt>
		
			<trkpt lat="45.422150" lon="1.788170">
			 <ele>488</ele>
			<time>2016-06-07T15:53:45Z</time>
			</trkpt>
		
			<trkpt lat="45.422170" lon="1.788230">
			 <ele>488</ele>
			<time>2016-06-07T15:55:45Z</time>
			</trkpt>
		
			<trkpt lat="45.422180" lon="1.788280">
			 <ele>488</ele>
			<time>2016-06-07T15:57:45Z</time>
			</trkpt>
		
			<trkpt lat="45.422180" lon="1.788320">
			 <ele>488</ele>
			<time>2016-06-07T15:59:45Z</time>
			</trkpt>
		
			<trkpt lat="45.422170" lon="1.788380">
			 <ele>487</ele>
			<time>2016-06-07T16:01:45Z</time>
			</trkpt>
		
			<trkpt lat="45.422150" lon="1.788440">
			 <ele>487</ele>
			<time>2016-06-07T16:03:45Z</time>
			</trkpt>
		
			<trkpt lat="45.422150" lon="1.788540">
			 <ele>486</ele>
			<time>2016-06-07T16:05:45Z</time>
			</trkpt>
		
			<trkpt lat="45.422170" lon="1.788740">
			 <ele>485</ele>
			<time>2016-06-07T16:07:45Z</time>
			</trkpt>
		
			<trkpt lat="45.422200" lon="1.789040">
			 <ele>483</ele>
			<time>2016-06-07T16:09:45Z</time>
			</trkpt>
		
			<trkpt lat="45.422320" lon="1.789980">
			 <ele>480</ele>
			<time>2016-06-07T16:11:45Z</time>
			</trkpt>
		
			<trkpt lat="45.422440" lon="1.790820">
			 <ele>478</ele>
			<time>2016-06-07T16:13:45Z</time>
			</trkpt>
		
			<trkpt lat="45.422460" lon="1.790950">
			 <ele>478</ele>
			<time>2016-06-07T16:15:45Z</time>
			</trkpt>
		
			<trkpt lat="45.422480" lon="1.791070">
			 <ele>477</ele>
			<time>2016-06-07T16:17:45Z</time>
			</trkpt>
		
			<trkpt lat="45.422540" lon="1.791460">
			 <ele>474</ele>
			<time>2016-06-07T16:19:45Z</time>
			</trkpt>
		
			<trkpt lat="45.422580" lon="1.791680">
			 <ele>472</ele>
			<time>2016-06-07T16:21:45Z</time>
			</trkpt>
		
			<trkpt lat="45.422630" lon="1.791720">
			 <ele>470</ele>
			<time>2016-06-07T16:23:45Z</time>
			</trkpt>
		
			<trkpt lat="45.422660" lon="1.791740">
			 <ele>470</ele>
			<time>2016-06-07T16:25:45Z</time>
			</trkpt>
		
			<trkpt lat="45.422700" lon="1.791740">
			 <ele>469</ele>
			<time>2016-06-07T16:27:45Z</time>
			</trkpt>
		
			<trkpt lat="45.422730" lon="1.791720">
			 <ele>469</ele>
			<time>2016-06-07T16:29:45Z</time>
			</trkpt>
		
			<trkpt lat="45.422820" lon="1.791660">
			 <ele>469</ele>
			<time>2016-06-07T16:31:45Z</time>
			</trkpt>
		
			<trkpt lat="45.422950" lon="1.791460">
			 <ele>469</ele>
			<time>2016-06-07T16:33:45Z</time>
			</trkpt>
		
			<trkpt lat="45.423000" lon="1.791170">
			 <ele>472</ele>
			<time>2016-06-07T16:35:45Z</time>
			</trkpt>
		
			<trkpt lat="45.423030" lon="1.791120">
			 <ele>473</ele>
			<time>2016-06-07T16:37:45Z</time>
			</trkpt>
		
			<trkpt lat="45.423090" lon="1.791090">
			 <ele>473</ele>
			<time>2016-06-07T16:39:45Z</time>
			</trkpt>
		
			<trkpt lat="45.423260" lon="1.791060">
			 <ele>472</ele>
			<time>2016-06-07T16:41:45Z</time>
			</trkpt>
		
			<trkpt lat="45.423330" lon="1.791020">
			 <ele>472</ele>
			<time>2016-06-07T16:43:45Z</time>
			</trkpt>
		
			<trkpt lat="45.423590" lon="1.790740">
			 <ele>476</ele>
			<time>2016-06-07T16:45:45Z</time>
			</trkpt>
		
			<trkpt lat="45.423690" lon="1.790690">
			 <ele>476</ele>
			<time>2016-06-07T16:47:45Z</time>
			</trkpt>
		
			<trkpt lat="45.423740" lon="1.790700">
			 <ele>476</ele>
			<time>2016-06-07T16:49:45Z</time>
			</trkpt>
		
			<trkpt lat="45.423770" lon="1.790700">
			 <ele>476</ele>
			<time>2016-06-07T16:51:45Z</time>
			</trkpt>
		
			<trkpt lat="45.423790" lon="1.790720">
			 <ele>476</ele>
			<time>2016-06-07T16:53:45Z</time>
			</trkpt>
		
			<trkpt lat="45.423850" lon="1.790780">
			 <ele>475</ele>
			<time>2016-06-07T16:55:45Z</time>
			</trkpt>
		
			<trkpt lat="45.423870" lon="1.790840">
			 <ele>474</ele>
			<time>2016-06-07T16:57:45Z</time>
			</trkpt>
		
			<trkpt lat="45.423890" lon="1.790880">
			 <ele>474</ele>
			<time>2016-06-07T16:59:45Z</time>
			</trkpt>
		
			<trkpt lat="45.423900" lon="1.790940">
			 <ele>473</ele>
			<time>2016-06-07T17:01:45Z</time>
			</trkpt>
		
			<trkpt lat="45.423880" lon="1.791050">
			 <ele>472</ele>
			<time>2016-06-07T17:03:45Z</time>
			</trkpt>
		
			<trkpt lat="45.423820" lon="1.791280">
			 <ele>470</ele>
			<time>2016-06-07T17:05:45Z</time>
			</trkpt>
		
			<trkpt lat="45.423790" lon="1.791880">
			 <ele>465</ele>
			<time>2016-06-07T17:07:45Z</time>
			</trkpt>
		
			<trkpt lat="45.423780" lon="1.792010">
			 <ele>464</ele>
			<time>2016-06-07T17:09:45Z</time>
			</trkpt>
		
			<trkpt lat="45.423740" lon="1.792140">
			 <ele>462</ele>
			<time>2016-06-07T17:11:45Z</time>
			</trkpt>
		
			<trkpt lat="45.423600" lon="1.792450">
			 <ele>458</ele>
			<time>2016-06-07T17:13:45Z</time>
			</trkpt>
		
			<trkpt lat="45.423410" lon="1.792870">
			 <ele>453</ele>
			<time>2016-06-07T17:15:45Z</time>
			</trkpt>
		
			<trkpt lat="45.423240" lon="1.793330">
			 <ele>449</ele>
			<time>2016-06-07T17:17:45Z</time>
			</trkpt>
		
			<trkpt lat="45.423060" lon="1.793740">
			 <ele>446</ele>
			<time>2016-06-07T17:19:45Z</time>
			</trkpt>
		
			<trkpt lat="45.423040" lon="1.793800">
			 <ele>446</ele>
			<time>2016-06-07T17:21:45Z</time>
			</trkpt>
		
			<trkpt lat="45.423040" lon="1.793850">
			 <ele>446</ele>
			<time>2016-06-07T17:23:45Z</time>
			</trkpt>
		
			<trkpt lat="45.423060" lon="1.794030">
			 <ele>445</ele>
			<time>2016-06-07T17:25:45Z</time>
			</trkpt>
		
			<trkpt lat="45.423060" lon="1.794160">
			 <ele>445</ele>
			<time>2016-06-07T17:27:45Z</time>
			</trkpt>
		
			<trkpt lat="45.423060" lon="1.794220">
			 <ele>445</ele>
			<time>2016-06-07T17:29:45Z</time>
			</trkpt>
		
			<trkpt lat="45.423050" lon="1.794290">
			 <ele>445</ele>
			<time>2016-06-07T17:31:45Z</time>
			</trkpt>
		
			<trkpt lat="45.422910" lon="1.794730">
			 <ele>444</ele>
			<time>2016-06-07T17:33:45Z</time>
			</trkpt>
		
			<trkpt lat="45.422620" lon="1.795360">
			 <ele>439</ele>
			<time>2016-06-07T17:35:45Z</time>
			</trkpt>
		
			<trkpt lat="45.422360" lon="1.795920">
			 <ele>436</ele>
			<time>2016-06-07T17:37:45Z</time>
			</trkpt>
		
			<trkpt lat="45.422060" lon="1.796410">
			 <ele>428</ele>
			<time>2016-06-07T17:39:45Z</time>
			</trkpt>
		
			<trkpt lat="45.422020" lon="1.796520">
			 <ele>427</ele>
			<time>2016-06-07T17:41:45Z</time>
			</trkpt>
		
			<trkpt lat="45.422010" lon="1.796530">
			 <ele>427</ele>
			<time>2016-06-07T17:43:45Z</time>
			</trkpt>
		
			<trkpt lat="45.421960" lon="1.796640">
			 <ele>425</ele>
			<time>2016-06-07T17:45:45Z</time>
			</trkpt>
		
			<trkpt lat="45.421900" lon="1.796770">
			 <ele>422</ele>
			<time>2016-06-07T17:47:45Z</time>
			</trkpt>
		
			<trkpt lat="45.421880" lon="1.796840">
			 <ele>421</ele>
			<time>2016-06-07T17:49:45Z</time>
			</trkpt>
		
			<trkpt lat="45.421870" lon="1.796960">
			 <ele>420</ele>
			<time>2016-06-07T17:51:45Z</time>
			</trkpt>
		
			<trkpt lat="45.421880" lon="1.797070">
			 <ele>419</ele>
			<time>2016-06-07T17:53:45Z</time>
			</trkpt>
		
			<trkpt lat="45.421930" lon="1.797170">
			 <ele>419</ele>
			<time>2016-06-07T17:55:45Z</time>
			</trkpt>
		
			<trkpt lat="45.422020" lon="1.797260">
			 <ele>420</ele>
			<time>2016-06-07T17:57:45Z</time>
			</trkpt>
		
			<trkpt lat="45.422210" lon="1.797300">
			 <ele>423</ele>
			<time>2016-06-07T17:59:45Z</time>
			</trkpt>
		
			<trkpt lat="45.422660" lon="1.797450">
			 <ele>428</ele>
			<time>2016-06-07T18:01:45Z</time>
			</trkpt>
		
			<trkpt lat="45.423240" lon="1.797730">
			 <ele>424</ele>
			<time>2016-06-07T18:03:45Z</time>
			</trkpt>
		
			<trkpt lat="45.423450" lon="1.797870">
			 <ele>422</ele>
			<time>2016-06-07T18:05:45Z</time>
			</trkpt>
		
			<trkpt lat="45.423620" lon="1.798020">
			 <ele>418</ele>
			<time>2016-06-07T18:07:45Z</time>
			</trkpt>
		
			<trkpt lat="45.423920" lon="1.798280">
			 <ele>413</ele>
			<time>2016-06-07T18:09:45Z</time>
			</trkpt>
		
			<trkpt lat="45.424210" lon="1.798440">
			 <ele>411</ele>
			<time>2016-06-07T18:11:45Z</time>
			</trkpt>
		
			<trkpt lat="45.424400" lon="1.798550">
			 <ele>407</ele>
			<time>2016-06-07T18:13:45Z</time>
			</trkpt>
		
			<trkpt lat="45.424590" lon="1.798650">
			 <ele>404</ele>
			<time>2016-06-07T18:15:45Z</time>
			</trkpt>
		
			<trkpt lat="45.424690" lon="1.798680">
			 <ele>403</ele>
			<time>2016-06-07T18:17:45Z</time>
			</trkpt>
		
			<trkpt lat="45.424770" lon="1.798680">
			 <ele>403</ele>
			<time>2016-06-07T18:19:45Z</time>
			</trkpt>
		
			<trkpt lat="45.424870" lon="1.798650">
			 <ele>404</ele>
			<time>2016-06-07T18:21:45Z</time>
			</trkpt>
		
			<trkpt lat="45.424970" lon="1.798600">
			 <ele>405</ele>
			<time>2016-06-07T18:23:45Z</time>
			</trkpt>
		
			<trkpt lat="45.425060" lon="1.798490">
			 <ele>407</ele>
			<time>2016-06-07T18:25:45Z</time>
			</trkpt>
		
			<trkpt lat="45.425150" lon="1.798340">
			 <ele>410</ele>
			<time>2016-06-07T18:27:45Z</time>
			</trkpt>
		
			<trkpt lat="45.425190" lon="1.798100">
			 <ele>414</ele>
			<time>2016-06-07T18:29:45Z</time>
			</trkpt>
		
			<trkpt lat="45.425250" lon="1.797780">
			 <ele>418</ele>
			<time>2016-06-07T18:31:45Z</time>
			</trkpt>
		
			<trkpt lat="45.425290" lon="1.797640">
			 <ele>420</ele>
			<time>2016-06-07T18:33:45Z</time>
			</trkpt>
		
			<trkpt lat="45.425380" lon="1.797470">
			 <ele>421</ele>
			<time>2016-06-07T18:35:45Z</time>
			</trkpt>
		
			<trkpt lat="45.425450" lon="1.797410">
			 <ele>422</ele>
			<time>2016-06-07T18:37:45Z</time>
			</trkpt>
		
			<trkpt lat="45.425470" lon="1.797400">
			 <ele>422</ele>
			<time>2016-06-07T18:39:45Z</time>
			</trkpt>
		
			<trkpt lat="45.425500" lon="1.797400">
			 <ele>421</ele>
			<time>2016-06-07T18:41:45Z</time>
			</trkpt>
		
			<trkpt lat="45.425530" lon="1.797410">
			 <ele>421</ele>
			<time>2016-06-07T18:43:45Z</time>
			</trkpt>
		
			<trkpt lat="45.425560" lon="1.797480">
			 <ele>420</ele>
			<time>2016-06-07T18:45:45Z</time>
			</trkpt>
		
			<trkpt lat="45.425640" lon="1.797680">
			 <ele>418</ele>
			<time>2016-06-07T18:47:45Z</time>
			</trkpt>
		
			<trkpt lat="45.425730" lon="1.798070">
			 <ele>414</ele>
			<time>2016-06-07T18:49:45Z</time>
			</trkpt>
		
			<trkpt lat="45.425760" lon="1.798320">
			 <ele>412</ele>
			<time>2016-06-07T18:51:45Z</time>
			</trkpt>
		
			<trkpt lat="45.425760" lon="1.798700">
			 <ele>409</ele>
			<time>2016-06-07T18:53:45Z</time>
			</trkpt>
		
			<trkpt lat="45.425750" lon="1.799000">
			 <ele>406</ele>
			<time>2016-06-07T18:55:45Z</time>
			</trkpt>
		
			<trkpt lat="45.425760" lon="1.799090">
			 <ele>406</ele>
			<time>2016-06-07T18:57:45Z</time>
			</trkpt>
		
			<trkpt lat="45.425780" lon="1.799120">
			 <ele>406</ele>
			<time>2016-06-07T18:59:45Z</time>
			</trkpt>
		
			<trkpt lat="45.425880" lon="1.799280">
			 <ele>406</ele>
			<time>2016-06-07T19:01:45Z</time>
			</trkpt>
		
			<trkpt lat="45.426150" lon="1.799480">
			 <ele>411</ele>
			<time>2016-06-07T19:03:45Z</time>
			</trkpt>
		
			<trkpt lat="45.426200" lon="1.799530">
			 <ele>412</ele>
			<time>2016-06-07T19:05:45Z</time>
			</trkpt>
		
			<trkpt lat="45.426230" lon="1.799590">
			 <ele>412</ele>
			<time>2016-06-07T19:07:45Z</time>
			</trkpt>
		
			<trkpt lat="45.426250" lon="1.799690">
			 <ele>411</ele>
			<time>2016-06-07T19:09:45Z</time>
			</trkpt>
		
			<trkpt lat="45.426250" lon="1.799770">
			 <ele>411</ele>
			<time>2016-06-07T19:11:45Z</time>
			</trkpt>
		
			<trkpt lat="45.426240" lon="1.800170">
			 <ele>406</ele>
			<time>2016-06-07T19:13:45Z</time>
			</trkpt>
		
			<trkpt lat="45.426250" lon="1.800460">
			 <ele>404</ele>
			<time>2016-06-07T19:15:45Z</time>
			</trkpt>
		
			<trkpt lat="45.426290" lon="1.800740">
			 <ele>401</ele>
			<time>2016-06-07T19:17:45Z</time>
			</trkpt>
		
			<trkpt lat="45.426420" lon="1.801040">
			 <ele>403</ele>
			<time>2016-06-07T19:19:45Z</time>
			</trkpt>
		
			<trkpt lat="45.426570" lon="1.801270">
			 <ele>403</ele>
			<time>2016-06-07T19:21:45Z</time>
			</trkpt>
		
			<trkpt lat="45.426770" lon="1.801410">
			 <ele>402</ele>
			<time>2016-06-07T19:23:45Z</time>
			</trkpt>
		
			<trkpt lat="45.427160" lon="1.801560">
			 <ele>402</ele>
			<time>2016-06-07T19:25:45Z</time>
			</trkpt>
		
			<trkpt lat="45.427350" lon="1.801660">
			 <ele>402</ele>
			<time>2016-06-07T19:27:45Z</time>
			</trkpt>
		
			<trkpt lat="45.427500" lon="1.801780">
			 <ele>402</ele>
			<time>2016-06-07T19:29:45Z</time>
			</trkpt>
		
			<trkpt lat="45.427540" lon="1.801830">
			 <ele>402</ele>
			<time>2016-06-07T19:31:45Z</time>
			</trkpt>
		
			<trkpt lat="45.427570" lon="1.801900">
			 <ele>403</ele>
			<time>2016-06-07T19:33:45Z</time>
			</trkpt>
		
			<trkpt lat="45.427590" lon="1.802020">
			 <ele>403</ele>
			<time>2016-06-07T19:35:45Z</time>
			</trkpt>
		
			<trkpt lat="45.427600" lon="1.802130">
			 <ele>403</ele>
			<time>2016-06-07T19:37:45Z</time>
			</trkpt>
		
			<trkpt lat="45.427590" lon="1.802170">
			 <ele>403</ele>
			<time>2016-06-07T19:39:45Z</time>
			</trkpt>
		
			<trkpt lat="45.427560" lon="1.802270">
			 <ele>403</ele>
			<time>2016-06-07T19:41:45Z</time>
			</trkpt>
		
			<trkpt lat="45.427510" lon="1.802340">
			 <ele>404</ele>
			<time>2016-06-07T19:43:45Z</time>
			</trkpt>
		
			<trkpt lat="45.427470" lon="1.802360">
			 <ele>404</ele>
			<time>2016-06-07T19:45:45Z</time>
			</trkpt>
		
			<trkpt lat="45.427340" lon="1.802370">
			 <ele>405</ele>
			<time>2016-06-07T19:47:45Z</time>
			</trkpt>
		
			<trkpt lat="45.427120" lon="1.802350">
			 <ele>408</ele>
			<time>2016-06-07T19:49:45Z</time>
			</trkpt>
		
			<trkpt lat="45.426920" lon="1.802300">
			 <ele>409</ele>
			<time>2016-06-07T19:51:45Z</time>
			</trkpt>
		
			<trkpt lat="45.425600" lon="1.801760">
			 <ele>417</ele>
			<time>2016-06-07T19:53:45Z</time>
			</trkpt>
		
			<trkpt lat="45.425120" lon="1.801550">
			 <ele>419</ele>
			<time>2016-06-07T19:55:45Z</time>
			</trkpt>
		
			<trkpt lat="45.424950" lon="1.801510">
			 <ele>419</ele>
			<time>2016-06-07T19:57:45Z</time>
			</trkpt>
		
			<trkpt lat="45.424760" lon="1.801510">
			 <ele>418</ele>
			<time>2016-06-07T19:59:45Z</time>
			</trkpt>
		
			<trkpt lat="45.424600" lon="1.801580">
			 <ele>419</ele>
			<time>2016-06-07T20:01:45Z</time>
			</trkpt>
		
			<trkpt lat="45.424340" lon="1.801910">
			 <ele>425</ele>
			<time>2016-06-07T20:03:45Z</time>
			</trkpt>
		
			<trkpt lat="45.424160" lon="1.802230">
			 <ele>431</ele>
			<time>2016-06-07T20:05:45Z</time>
			</trkpt>
		
			<trkpt lat="45.424030" lon="1.802460">
			 <ele>438</ele>
			<time>2016-06-07T20:07:45Z</time>
			</trkpt>
		
			<trkpt lat="45.423930" lon="1.802570">
			 <ele>441</ele>
			<time>2016-06-07T20:09:45Z</time>
			</trkpt>
		
			<trkpt lat="45.423880" lon="1.802610">
			 <ele>442</ele>
			<time>2016-06-07T20:11:45Z</time>
			</trkpt>
		
			<trkpt lat="45.423860" lon="1.802610">
			 <ele>442</ele>
			<time>2016-06-07T20:13:45Z</time>
			</trkpt>
		
			<trkpt lat="45.423810" lon="1.802610">
			 <ele>442</ele>
			<time>2016-06-07T20:15:45Z</time>
			</trkpt>
		
			<trkpt lat="45.423750" lon="1.802580">
			 <ele>443</ele>
			<time>2016-06-07T20:17:45Z</time>
			</trkpt>
		
			<trkpt lat="45.423710" lon="1.802570">
			 <ele>443</ele>
			<time>2016-06-07T20:19:45Z</time>
			</trkpt>
		
			<trkpt lat="45.423680" lon="1.802550">
			 <ele>443</ele>
			<time>2016-06-07T20:21:45Z</time>
			</trkpt>
		
			<trkpt lat="45.423640" lon="1.802520">
			 <ele>443</ele>
			<time>2016-06-07T20:23:45Z</time>
			</trkpt>
		
			<trkpt lat="45.423620" lon="1.802500">
			 <ele>443</ele>
			<time>2016-06-07T20:25:45Z</time>
			</trkpt>
		
			<trkpt lat="45.423590" lon="1.802460">
			 <ele>443</ele>
			<time>2016-06-07T20:27:45Z</time>
			</trkpt>
		
			<trkpt lat="45.423560" lon="1.802410">
			 <ele>442</ele>
			<time>2016-06-07T20:29:45Z</time>
			</trkpt>
		
			<trkpt lat="45.423510" lon="1.802290">
			 <ele>442</ele>
			<time>2016-06-07T20:31:45Z</time>
			</trkpt>
		
			<trkpt lat="45.423370" lon="1.801840">
			 <ele>440</ele>
			<time>2016-06-07T20:33:45Z</time>
			</trkpt>
		
			<trkpt lat="45.423180" lon="1.801280">
			 <ele>436</ele>
			<time>2016-06-07T20:35:45Z</time>
			</trkpt>
		
			<trkpt lat="45.423130" lon="1.801160">
			 <ele>435</ele>
			<time>2016-06-07T20:37:45Z</time>
			</trkpt>
		
			<trkpt lat="45.423080" lon="1.801100">
			 <ele>435</ele>
			<time>2016-06-07T20:39:45Z</time>
			</trkpt>
		
			<trkpt lat="45.423040" lon="1.801060">
			 <ele>435</ele>
			<time>2016-06-07T20:41:45Z</time>
			</trkpt>
		
			<trkpt lat="45.422980" lon="1.801020">
			 <ele>435</ele>
			<time>2016-06-07T20:43:45Z</time>
			</trkpt>
		
			<trkpt lat="45.422860" lon="1.800990">
			 <ele>437</ele>
			<time>2016-06-07T20:45:45Z</time>
			</trkpt>
		
			<trkpt lat="45.422760" lon="1.800970">
			 <ele>439</ele>
			<time>2016-06-07T20:47:45Z</time>
			</trkpt>
		
			<trkpt lat="45.422590" lon="1.800990">
			 <ele>442</ele>
			<time>2016-06-07T20:49:45Z</time>
			</trkpt>
		
			<trkpt lat="45.422390" lon="1.801040">
			 <ele>445</ele>
			<time>2016-06-07T20:51:45Z</time>
			</trkpt>
		
			<trkpt lat="45.422230" lon="1.801080">
			 <ele>446</ele>
			<time>2016-06-07T20:53:45Z</time>
			</trkpt>
		
			<trkpt lat="45.422110" lon="1.801110">
			 <ele>447</ele>
			<time>2016-06-07T20:55:45Z</time>
			</trkpt>
		
			<trkpt lat="45.422080" lon="1.801120">
			 <ele>447</ele>
			<time>2016-06-07T20:57:45Z</time>
			</trkpt>
		
			<trkpt lat="45.422040" lon="1.801130">
			 <ele>447</ele>
			<time>2016-06-07T20:59:45Z</time>
			</trkpt>
		
			<trkpt lat="45.421990" lon="1.801160">
			 <ele>448</ele>
			<time>2016-06-07T21:01:45Z</time>
			</trkpt>
		
			<trkpt lat="45.421900" lon="1.801230">
			 <ele>449</ele>
			<time>2016-06-07T21:03:45Z</time>
			</trkpt>
		
			<trkpt lat="45.421790" lon="1.801310">
			 <ele>450</ele>
			<time>2016-06-07T21:05:45Z</time>
			</trkpt>
		
			<trkpt lat="45.421700" lon="1.801380">
			 <ele>452</ele>
			<time>2016-06-07T21:07:45Z</time>
			</trkpt>
		
			<trkpt lat="45.421660" lon="1.801420">
			 <ele>452</ele>
			<time>2016-06-07T21:09:45Z</time>
			</trkpt>
		
			<trkpt lat="45.421630" lon="1.801490">
			 <ele>453</ele>
			<time>2016-06-07T21:11:45Z</time>
			</trkpt>
		
			<trkpt lat="45.421600" lon="1.801540">
			 <ele>453</ele>
			<time>2016-06-07T21:13:45Z</time>
			</trkpt>
		
			<trkpt lat="45.421590" lon="1.801560">
			 <ele>453</ele>
			<time>2016-06-07T21:15:45Z</time>
			</trkpt>
		
			<trkpt lat="45.421560" lon="1.801660">
			 <ele>454</ele>
			<time>2016-06-07T21:17:45Z</time>
			</trkpt>
		
			<trkpt lat="45.421540" lon="1.801770">
			 <ele>455</ele>
			<time>2016-06-07T21:19:45Z</time>
			</trkpt>
		
			<trkpt lat="45.421530" lon="1.801830">
			 <ele>455</ele>
			<time>2016-06-07T21:21:45Z</time>
			</trkpt>
		
			<trkpt lat="45.421520" lon="1.801900">
			 <ele>455</ele>
			<time>2016-06-07T21:23:45Z</time>
			</trkpt>
		
			<trkpt lat="45.421520" lon="1.801930">
			 <ele>455</ele>
			<time>2016-06-07T21:25:45Z</time>
			</trkpt>
		
			<trkpt lat="45.421530" lon="1.802030">
			 <ele>455</ele>
			<time>2016-06-07T21:27:45Z</time>
			</trkpt>
		
			<trkpt lat="45.421560" lon="1.802190">
			 <ele>456</ele>
			<time>2016-06-07T21:29:45Z</time>
			</trkpt>
		
			<trkpt lat="45.421590" lon="1.802330">
			 <ele>457</ele>
			<time>2016-06-07T21:31:45Z</time>
			</trkpt>
		
			<trkpt lat="45.421600" lon="1.802350">
			 <ele>457</ele>
			<time>2016-06-07T21:33:45Z</time>
			</trkpt>
		
			<trkpt lat="45.421610" lon="1.802390">
			 <ele>457</ele>
			<time>2016-06-07T21:35:45Z</time>
			</trkpt>
		
			<trkpt lat="45.421650" lon="1.802470">
			 <ele>459</ele>
			<time>2016-06-07T21:37:45Z</time>
			</trkpt>
		
			<trkpt lat="45.421740" lon="1.802600">
			 <ele>458</ele>
			<time>2016-06-07T21:39:45Z</time>
			</trkpt>
		
			<trkpt lat="45.421800" lon="1.802680">
			 <ele>456</ele>
			<time>2016-06-07T21:41:45Z</time>
			</trkpt>
		
			<trkpt lat="45.421960" lon="1.802880">
			 <ele>454</ele>
			<time>2016-06-07T21:43:45Z</time>
			</trkpt>
		
			<trkpt lat="45.422040" lon="1.802970">
			 <ele>453</ele>
			<time>2016-06-07T21:45:45Z</time>
			</trkpt>
		
			<trkpt lat="45.422200" lon="1.803110">
			 <ele>451</ele>
			<time>2016-06-07T21:47:45Z</time>
			</trkpt>
		
			<trkpt lat="45.422260" lon="1.803130">
			 <ele>451</ele>
			<time>2016-06-07T21:49:45Z</time>
			</trkpt>
		
			<trkpt lat="45.422330" lon="1.803150">
			 <ele>451</ele>
			<time>2016-06-07T21:51:45Z</time>
			</trkpt>
		
			<trkpt lat="45.422490" lon="1.803100">
			 <ele>453</ele>
			<time>2016-06-07T21:53:45Z</time>
			</trkpt>
		
			<trkpt lat="45.422830" lon="1.803000">
			 <ele>452</ele>
			<time>2016-06-07T21:55:45Z</time>
			</trkpt>
		
			<trkpt lat="45.422950" lon="1.802970">
			 <ele>452</ele>
			<time>2016-06-07T21:57:45Z</time>
			</trkpt>
		
			<trkpt lat="45.423000" lon="1.802960">
			 <ele>451</ele>
			<time>2016-06-07T21:59:45Z</time>
			</trkpt>
		
			<trkpt lat="45.423000" lon="1.802960">
			 <ele>451</ele>
			<time>2016-06-07T22:01:45Z</time>
			</trkpt>
		
			<trkpt lat="45.423020" lon="1.802950">
			 <ele>451</ele>
			<time>2016-06-07T22:03:45Z</time>
			</trkpt>
		
			<trkpt lat="45.423050" lon="1.802950">
			 <ele>451</ele>
			<time>2016-06-07T22:05:45Z</time>
			</trkpt>
		
			<trkpt lat="45.423080" lon="1.802960">
			 <ele>451</ele>
			<time>2016-06-07T22:07:45Z</time>
			</trkpt>
		
			<trkpt lat="45.423130" lon="1.802990">
			 <ele>450</ele>
			<time>2016-06-07T22:09:45Z</time>
			</trkpt>
		
			<trkpt lat="45.423210" lon="1.803080">
			 <ele>450</ele>
			<time>2016-06-07T22:11:45Z</time>
			</trkpt>
		
			<trkpt lat="45.423250" lon="1.803170">
			 <ele>450</ele>
			<time>2016-06-07T22:13:45Z</time>
			</trkpt>
		
			<trkpt lat="45.423270" lon="1.803230">
			 <ele>450</ele>
			<time>2016-06-07T22:15:45Z</time>
			</trkpt>
		
			<trkpt lat="45.423280" lon="1.803290">
			 <ele>451</ele>
			<time>2016-06-07T22:17:45Z</time>
			</trkpt>
		
			<trkpt lat="45.423290" lon="1.803400">
			 <ele>451</ele>
			<time>2016-06-07T22:19:45Z</time>
			</trkpt>
		
			<trkpt lat="45.423300" lon="1.803780">
			 <ele>454</ele>
			<time>2016-06-07T22:21:45Z</time>
			</trkpt>
		
			<trkpt lat="45.423330" lon="1.804230">
			 <ele>457</ele>
			<time>2016-06-07T22:23:45Z</time>
			</trkpt>
		
			<trkpt lat="45.423340" lon="1.804370">
			 <ele>458</ele>
			<time>2016-06-07T22:25:45Z</time>
			</trkpt>
		
			<trkpt lat="45.423360" lon="1.804620">
			 <ele>459</ele>
			<time>2016-06-07T22:27:45Z</time>
			</trkpt>
		
			<trkpt lat="45.423390" lon="1.804780">
			 <ele>460</ele>
			<time>2016-06-07T22:29:45Z</time>
			</trkpt>
		
			<trkpt lat="45.423430" lon="1.805070">
			 <ele>461</ele>
			<time>2016-06-07T22:31:45Z</time>
			</trkpt>
		
			<trkpt lat="45.423480" lon="1.805220">
			 <ele>462</ele>
			<time>2016-06-07T22:33:45Z</time>
			</trkpt>
		
			<trkpt lat="45.423720" lon="1.805590">
			 <ele>467</ele>
			<time>2016-06-07T22:35:45Z</time>
			</trkpt>
		
			<trkpt lat="45.424090" lon="1.806150">
			 <ele>476</ele>
			<time>2016-06-07T22:37:45Z</time>
			</trkpt>
		
			<trkpt lat="45.424120" lon="1.806220">
			 <ele>476</ele>
			<time>2016-06-07T22:39:45Z</time>
			</trkpt>
		
			<trkpt lat="45.424140" lon="1.806260">
			 <ele>477</ele>
			<time>2016-06-07T22:41:45Z</time>
			</trkpt>
		
			<trkpt lat="45.424140" lon="1.806310">
			 <ele>476</ele>
			<time>2016-06-07T22:43:45Z</time>
			</trkpt>
		
			<trkpt lat="45.424140" lon="1.806350">
			 <ele>476</ele>
			<time>2016-06-07T22:45:45Z</time>
			</trkpt>
		
			<trkpt lat="45.424130" lon="1.806500">
			 <ele>475</ele>
			<time>2016-06-07T22:47:45Z</time>
			</trkpt>
		
			<trkpt lat="45.424130" lon="1.806580">
			 <ele>474</ele>
			<time>2016-06-07T22:49:45Z</time>
			</trkpt>
		
			<trkpt lat="45.424140" lon="1.806650">
			 <ele>474</ele>
			<time>2016-06-07T22:51:45Z</time>
			</trkpt>
		
			<trkpt lat="45.424150" lon="1.806720">
			 <ele>474</ele>
			<time>2016-06-07T22:53:45Z</time>
			</trkpt>
		
			<trkpt lat="45.424170" lon="1.806790">
			 <ele>474</ele>
			<time>2016-06-07T22:55:45Z</time>
			</trkpt>
		
			<trkpt lat="45.424190" lon="1.806850">
			 <ele>474</ele>
			<time>2016-06-07T22:57:45Z</time>
			</trkpt>
		
			<trkpt lat="45.424220" lon="1.806900">
			 <ele>474</ele>
			<time>2016-06-07T22:59:45Z</time>
			</trkpt>
		
			<trkpt lat="45.424330" lon="1.807010">
			 <ele>474</ele>
			<time>2016-06-07T23:01:45Z</time>
			</trkpt>
		
			<trkpt lat="45.424470" lon="1.807140">
			 <ele>476</ele>
			<time>2016-06-07T23:03:45Z</time>
			</trkpt>
		
			<trkpt lat="45.424630" lon="1.807250">
			 <ele>478</ele>
			<time>2016-06-07T23:05:45Z</time>
			</trkpt>
		
			<trkpt lat="45.424750" lon="1.807330">
			 <ele>480</ele>
			<time>2016-06-07T23:07:45Z</time>
			</trkpt>
		
			<trkpt lat="45.424820" lon="1.807390">
			 <ele>481</ele>
			<time>2016-06-07T23:09:45Z</time>
			</trkpt>
		
			<trkpt lat="45.424850" lon="1.807440">
			 <ele>482</ele>
			<time>2016-06-07T23:11:45Z</time>
			</trkpt>
		
			<trkpt lat="45.424870" lon="1.807480">
			 <ele>482</ele>
			<time>2016-06-07T23:13:45Z</time>
			</trkpt>
		
			<trkpt lat="45.424900" lon="1.807550">
			 <ele>483</ele>
			<time>2016-06-07T23:15:45Z</time>
			</trkpt>
		
			<trkpt lat="45.424920" lon="1.807640">
			 <ele>483</ele>
			<time>2016-06-07T23:17:45Z</time>
			</trkpt>
		
			<trkpt lat="45.424940" lon="1.807760">
			 <ele>484</ele>
			<time>2016-06-07T23:19:45Z</time>
			</trkpt>
		
			<trkpt lat="45.424990" lon="1.808050">
			 <ele>485</ele>
			<time>2016-06-07T23:21:45Z</time>
			</trkpt>
		
			<trkpt lat="45.425060" lon="1.808460">
			 <ele>487</ele>
			<time>2016-06-07T23:23:45Z</time>
			</trkpt>
		
			<trkpt lat="45.425060" lon="1.808520">
			 <ele>488</ele>
			<time>2016-06-07T23:25:45Z</time>
			</trkpt>
		
			<trkpt lat="45.425080" lon="1.808610">
			 <ele>488</ele>
			<time>2016-06-07T23:27:45Z</time>
			</trkpt>
		
			<trkpt lat="45.425100" lon="1.808780">
			 <ele>489</ele>
			<time>2016-06-07T23:29:45Z</time>
			</trkpt>
		
			<trkpt lat="45.425110" lon="1.808830">
			 <ele>490</ele>
			<time>2016-06-07T23:31:45Z</time>
			</trkpt>
		
			<trkpt lat="45.425120" lon="1.809000">
			 <ele>490</ele>
			<time>2016-06-07T23:33:45Z</time>
			</trkpt>
		
			<trkpt lat="45.425130" lon="1.809210">
			 <ele>491</ele>
			<time>2016-06-07T23:35:45Z</time>
			</trkpt>
		
			<trkpt lat="45.425110" lon="1.809770">
			 <ele>492</ele>
			<time>2016-06-07T23:37:45Z</time>
			</trkpt>
		
			<trkpt lat="45.425100" lon="1.810220">
			 <ele>491</ele>
			<time>2016-06-07T23:39:45Z</time>
			</trkpt>
		
			<trkpt lat="45.425090" lon="1.810480">
			 <ele>489</ele>
			<time>2016-06-07T23:41:45Z</time>
			</trkpt>
		
			<trkpt lat="45.425090" lon="1.810610">
			 <ele>488</ele>
			<time>2016-06-07T23:43:45Z</time>
			</trkpt>
		
			<trkpt lat="45.425120" lon="1.811120">
			 <ele>488</ele>
			<time>2016-06-07T23:45:45Z</time>
			</trkpt>
		
			<trkpt lat="45.425140" lon="1.811660">
			 <ele>487</ele>
			<time>2016-06-07T23:47:45Z</time>
			</trkpt>
		
			<trkpt lat="45.425150" lon="1.812110">
			 <ele>487</ele>
			<time>2016-06-07T23:49:45Z</time>
			</trkpt>
		
			<trkpt lat="45.425150" lon="1.812490">
			 <ele>487</ele>
			<time>2016-06-07T23:51:45Z</time>
			</trkpt>
		
			<trkpt lat="45.425180" lon="1.813400">
			 <ele>490</ele>
			<time>2016-06-07T23:53:45Z</time>
			</trkpt>
		
			<trkpt lat="45.425190" lon="1.813610">
			 <ele>489</ele>
			<time>2016-06-07T23:55:45Z</time>
			</trkpt>
		
			<trkpt lat="45.425200" lon="1.813750">
			 <ele>489</ele>
			<time>2016-06-07T23:57:45Z</time>
			</trkpt>
		
			<trkpt lat="45.425240" lon="1.813920">
			 <ele>489</ele>
			<time>2016-06-07T23:59:45Z</time>
			</trkpt>
		
			<trkpt lat="45.425320" lon="1.814120">
			 <ele>491</ele>
			<time>2016-06-08T00:01:45Z</time>
			</trkpt>
		
			<trkpt lat="45.425550" lon="1.814610">
			 <ele>493</ele>
			<time>2016-06-08T00:03:45Z</time>
			</trkpt>
		
			<trkpt lat="45.425750" lon="1.814950">
			 <ele>492</ele>
			<time>2016-06-08T00:05:45Z</time>
			</trkpt>
		
			<trkpt lat="45.425800" lon="1.815030">
			 <ele>491</ele>
			<time>2016-06-08T00:07:45Z</time>
			</trkpt>
		
			<trkpt lat="45.425890" lon="1.815070">
			 <ele>492</ele>
			<time>2016-06-08T00:09:45Z</time>
			</trkpt>
		
			<trkpt lat="45.426080" lon="1.815090">
			 <ele>493</ele>
			<time>2016-06-08T00:11:45Z</time>
			</trkpt>
		
			<trkpt lat="45.426400" lon="1.815080">
			 <ele>495</ele>
			<time>2016-06-08T00:13:45Z</time>
			</trkpt>
		
			<trkpt lat="45.426410" lon="1.815080">
			 <ele>495</ele>
			<time>2016-06-08T00:15:45Z</time>
			</trkpt>
		
			<trkpt lat="45.426510" lon="1.815110">
			 <ele>496</ele>
			<time>2016-06-08T00:17:45Z</time>
			</trkpt>
		
			<trkpt lat="45.426560" lon="1.815140">
			 <ele>496</ele>
			<time>2016-06-08T00:19:45Z</time>
			</trkpt>
		
			<trkpt lat="45.426570" lon="1.815150">
			 <ele>496</ele>
			<time>2016-06-08T00:21:45Z</time>
			</trkpt>
		
			<trkpt lat="45.426610" lon="1.815180">
			 <ele>496</ele>
			<time>2016-06-08T00:23:45Z</time>
			</trkpt>
		
			<trkpt lat="45.426630" lon="1.815200">
			 <ele>496</ele>
			<time>2016-06-08T00:25:45Z</time>
			</trkpt>
		
			<trkpt lat="45.426650" lon="1.815240">
			 <ele>497</ele>
			<time>2016-06-08T00:27:45Z</time>
			</trkpt>
		
			<trkpt lat="45.426650" lon="1.815300">
			 <ele>496</ele>
			<time>2016-06-08T00:29:45Z</time>
			</trkpt>
		
			<trkpt lat="45.426660" lon="1.815370">
			 <ele>496</ele>
			<time>2016-06-08T00:31:45Z</time>
			</trkpt>
		
			<trkpt lat="45.426660" lon="1.815410">
			 <ele>496</ele>
			<time>2016-06-08T00:33:45Z</time>
			</trkpt>
		
			<trkpt lat="45.426660" lon="1.815430">
			 <ele>496</ele>
			<time>2016-06-08T00:35:45Z</time>
			</trkpt>
		
			<trkpt lat="45.426630" lon="1.815490">
			 <ele>496</ele>
			<time>2016-06-08T00:37:45Z</time>
			</trkpt>
		
			<trkpt lat="45.426550" lon="1.815530">
			 <ele>495</ele>
			<time>2016-06-08T00:39:45Z</time>
			</trkpt>
		
			<trkpt lat="45.426460" lon="1.815570">
			 <ele>494</ele>
			<time>2016-06-08T00:41:45Z</time>
			</trkpt>
		
			<trkpt lat="45.426420" lon="1.815620">
			 <ele>493</ele>
			<time>2016-06-08T00:43:45Z</time>
			</trkpt>
		
			<trkpt lat="45.426370" lon="1.815700">
			 <ele>492</ele>
			<time>2016-06-08T00:45:45Z</time>
			</trkpt>
		
			<trkpt lat="45.426310" lon="1.815820">
			 <ele>491</ele>
			<time>2016-06-08T00:47:45Z</time>
			</trkpt>
		
			<trkpt lat="45.426220" lon="1.816060">
			 <ele>490</ele>
			<time>2016-06-08T00:49:45Z</time>
			</trkpt>
		
			<trkpt lat="45.426170" lon="1.816260">
			 <ele>490</ele>
			<time>2016-06-08T00:51:45Z</time>
			</trkpt>
		
			<trkpt lat="45.426170" lon="1.816390">
			 <ele>491</ele>
			<time>2016-06-08T00:53:45Z</time>
			</trkpt>
		
			<trkpt lat="45.426170" lon="1.816570">
			 <ele>492</ele>
			<time>2016-06-08T00:55:45Z</time>
			</trkpt>
		
			<trkpt lat="45.426210" lon="1.816810">
			 <ele>494</ele>
			<time>2016-06-08T00:57:45Z</time>
			</trkpt>
		
			<trkpt lat="45.426270" lon="1.817020">
			 <ele>497</ele>
			<time>2016-06-08T00:59:45Z</time>
			</trkpt>
		
			<trkpt lat="45.426470" lon="1.817570">
			 <ele>503</ele>
			<time>2016-06-08T01:01:45Z</time>
			</trkpt>
		
			<trkpt lat="45.426590" lon="1.817820">
			 <ele>504</ele>
			<time>2016-06-08T01:03:45Z</time>
			</trkpt>
		
			<trkpt lat="45.426690" lon="1.817930">
			 <ele>505</ele>
			<time>2016-06-08T01:05:45Z</time>
			</trkpt>
		
			<trkpt lat="45.426940" lon="1.818160">
			 <ele>506</ele>
			<time>2016-06-08T01:07:45Z</time>
			</trkpt>
		
			<trkpt lat="45.427230" lon="1.818400">
			 <ele>508</ele>
			<time>2016-06-08T01:09:45Z</time>
			</trkpt>
		
			<trkpt lat="45.427470" lon="1.818630">
			 <ele>508</ele>
			<time>2016-06-08T01:11:45Z</time>
			</trkpt>
		
			<trkpt lat="45.427550" lon="1.818760">
			 <ele>508</ele>
			<time>2016-06-08T01:13:45Z</time>
			</trkpt>
		
			<trkpt lat="45.427570" lon="1.818870">
			 <ele>508</ele>
			<time>2016-06-08T01:15:45Z</time>
			</trkpt>
		
			<trkpt lat="45.427600" lon="1.819210">
			 <ele>506</ele>
			<time>2016-06-08T01:17:45Z</time>
			</trkpt>
		
			<trkpt lat="45.427640" lon="1.819660">
			 <ele>507</ele>
			<time>2016-06-08T01:19:45Z</time>
			</trkpt>
		
			<trkpt lat="45.427680" lon="1.819910">
			 <ele>507</ele>
			<time>2016-06-08T01:21:45Z</time>
			</trkpt>
		
			<trkpt lat="45.427730" lon="1.820130">
			 <ele>506</ele>
			<time>2016-06-08T01:23:45Z</time>
			</trkpt>
		
			<trkpt lat="45.427750" lon="1.820230">
			 <ele>505</ele>
			<time>2016-06-08T01:25:45Z</time>
			</trkpt>
		
			<trkpt lat="45.427760" lon="1.820280">
			 <ele>505</ele>
			<time>2016-06-08T01:27:45Z</time>
			</trkpt>
		
			<trkpt lat="45.427750" lon="1.820390">
			 <ele>504</ele>
			<time>2016-06-08T01:29:45Z</time>
			</trkpt>
		
			<trkpt lat="45.427750" lon="1.820520">
			 <ele>503</ele>
			<time>2016-06-08T01:31:45Z</time>
			</trkpt>
		
			<trkpt lat="45.427730" lon="1.820610">
			 <ele>502</ele>
			<time>2016-06-08T01:33:45Z</time>
			</trkpt>
		
			<trkpt lat="45.427680" lon="1.820720">
			 <ele>501</ele>
			<time>2016-06-08T01:35:45Z</time>
			</trkpt>
		
			<trkpt lat="45.427580" lon="1.820980">
			 <ele>500</ele>
			<time>2016-06-08T01:37:45Z</time>
			</trkpt>
		
			<trkpt lat="45.427470" lon="1.821220">
			 <ele>501</ele>
			<time>2016-06-08T01:39:45Z</time>
			</trkpt>
		
			<trkpt lat="45.427390" lon="1.821450">
			 <ele>502</ele>
			<time>2016-06-08T01:41:45Z</time>
			</trkpt>
		
			<trkpt lat="45.427330" lon="1.821760">
			 <ele>502</ele>
			<time>2016-06-08T01:43:45Z</time>
			</trkpt>
		
			<trkpt lat="45.427160" lon="1.822560">
			 <ele>502</ele>
			<time>2016-06-08T01:45:45Z</time>
			</trkpt>
		
			<trkpt lat="45.427070" lon="1.823200">
			 <ele>501</ele>
			<time>2016-06-08T01:47:45Z</time>
			</trkpt>
		
			<trkpt lat="45.427040" lon="1.823470">
			 <ele>500</ele>
			<time>2016-06-08T01:49:45Z</time>
			</trkpt>
		
			<trkpt lat="45.426980" lon="1.823890">
			 <ele>499</ele>
			<time>2016-06-08T01:51:45Z</time>
			</trkpt>
		
			<trkpt lat="45.426920" lon="1.824360">
			 <ele>500</ele>
			<time>2016-06-08T01:53:45Z</time>
			</trkpt>
		
			<trkpt lat="45.426880" lon="1.824630">
			 <ele>502</ele>
			<time>2016-06-08T01:55:45Z</time>
			</trkpt>
		
			<trkpt lat="45.426850" lon="1.824740">
			 <ele>503</ele>
			<time>2016-06-08T01:57:45Z</time>
			</trkpt>
		
			<trkpt lat="45.426820" lon="1.824800">
			 <ele>503</ele>
			<time>2016-06-08T01:59:45Z</time>
			</trkpt>
		
			<trkpt lat="45.426800" lon="1.824870">
			 <ele>504</ele>
			<time>2016-06-08T02:01:45Z</time>
			</trkpt>
		
			<trkpt lat="45.426750" lon="1.824940">
			 <ele>505</ele>
			<time>2016-06-08T02:03:45Z</time>
			</trkpt>
		
			<trkpt lat="45.426690" lon="1.824990">
			 <ele>506</ele>
			<time>2016-06-08T02:05:45Z</time>
			</trkpt>
		
			<trkpt lat="45.426580" lon="1.825070">
			 <ele>507</ele>
			<time>2016-06-08T02:07:45Z</time>
			</trkpt>
		
			<trkpt lat="45.426420" lon="1.825190">
			 <ele>508</ele>
			<time>2016-06-08T02:09:45Z</time>
			</trkpt>
		
			<trkpt lat="45.426170" lon="1.825390">
			 <ele>509</ele>
			<time>2016-06-08T02:11:45Z</time>
			</trkpt>
		
			<trkpt lat="45.425970" lon="1.825580">
			 <ele>510</ele>
			<time>2016-06-08T02:13:45Z</time>
			</trkpt>
		
			<trkpt lat="45.425820" lon="1.825730">
			 <ele>510</ele>
			<time>2016-06-08T02:15:45Z</time>
			</trkpt>
		
			<trkpt lat="45.425670" lon="1.825890">
			 <ele>511</ele>
			<time>2016-06-08T02:17:45Z</time>
			</trkpt>
		
			<trkpt lat="45.425550" lon="1.826010">
			 <ele>512</ele>
			<time>2016-06-08T02:19:45Z</time>
			</trkpt>
		
			<trkpt lat="45.425450" lon="1.826120">
			 <ele>512</ele>
			<time>2016-06-08T02:21:45Z</time>
			</trkpt>
		
			<trkpt lat="45.425400" lon="1.826180">
			 <ele>513</ele>
			<time>2016-06-08T02:23:45Z</time>
			</trkpt>
		
			<trkpt lat="45.425360" lon="1.826240">
			 <ele>513</ele>
			<time>2016-06-08T02:25:45Z</time>
			</trkpt>
		
			<trkpt lat="45.425330" lon="1.826320">
			 <ele>514</ele>
			<time>2016-06-08T02:27:45Z</time>
			</trkpt>
		
			<trkpt lat="45.425300" lon="1.826420">
			 <ele>514</ele>
			<time>2016-06-08T02:29:45Z</time>
			</trkpt>
		
			<trkpt lat="45.425270" lon="1.826570">
			 <ele>515</ele>
			<time>2016-06-08T02:31:45Z</time>
			</trkpt>
		
			<trkpt lat="45.425240" lon="1.826820">
			 <ele>517</ele>
			<time>2016-06-08T02:33:45Z</time>
			</trkpt>
		
			<trkpt lat="45.425210" lon="1.827080">
			 <ele>519</ele>
			<time>2016-06-08T02:35:45Z</time>
			</trkpt>
		
			<trkpt lat="45.425180" lon="1.827270">
			 <ele>521</ele>
			<time>2016-06-08T02:37:45Z</time>
			</trkpt>
		
			<trkpt lat="45.425160" lon="1.827500">
			 <ele>523</ele>
			<time>2016-06-08T02:39:45Z</time>
			</trkpt>
		
			<trkpt lat="45.425140" lon="1.827780">
			 <ele>525</ele>
			<time>2016-06-08T02:41:45Z</time>
			</trkpt>
		
			<trkpt lat="45.425140" lon="1.828050">
			 <ele>526</ele>
			<time>2016-06-08T02:43:45Z</time>
			</trkpt>
		
			<trkpt lat="45.425180" lon="1.828540">
			 <ele>529</ele>
			<time>2016-06-08T02:45:45Z</time>
			</trkpt>
		
			<trkpt lat="45.425260" lon="1.829200">
			 <ele>534</ele>
			<time>2016-06-08T02:47:45Z</time>
			</trkpt>
		
			<trkpt lat="45.425290" lon="1.829600">
			 <ele>536</ele>
			<time>2016-06-08T02:49:45Z</time>
			</trkpt>
		
			<trkpt lat="45.425270" lon="1.829890">
			 <ele>538</ele>
			<time>2016-06-08T02:51:45Z</time>
			</trkpt>
		
			<trkpt lat="45.425210" lon="1.830250">
			 <ele>539</ele>
			<time>2016-06-08T02:53:45Z</time>
			</trkpt>
		
			<trkpt lat="45.425140" lon="1.830560">
			 <ele>541</ele>
			<time>2016-06-08T02:55:45Z</time>
			</trkpt>
		
			<trkpt lat="45.425110" lon="1.830840">
			 <ele>542</ele>
			<time>2016-06-08T02:57:45Z</time>
			</trkpt>
		
			<trkpt lat="45.425120" lon="1.831710">
			 <ele>547</ele>
			<time>2016-06-08T02:59:45Z</time>
			</trkpt>
		
			<trkpt lat="45.425140" lon="1.832420">
			 <ele>550</ele>
			<time>2016-06-08T03:01:45Z</time>
			</trkpt>
		
			<trkpt lat="45.425150" lon="1.832600">
			 <ele>551</ele>
			<time>2016-06-08T03:03:45Z</time>
			</trkpt>
		
			<trkpt lat="45.425170" lon="1.832680">
			 <ele>551</ele>
			<time>2016-06-08T03:05:45Z</time>
			</trkpt>
		
			<trkpt lat="45.425190" lon="1.832760">
			 <ele>552</ele>
			<time>2016-06-08T03:07:45Z</time>
			</trkpt>
		
			<trkpt lat="45.425220" lon="1.832840">
			 <ele>553</ele>
			<time>2016-06-08T03:09:45Z</time>
			</trkpt>
		
			<trkpt lat="45.425270" lon="1.832890">
			 <ele>553</ele>
			<time>2016-06-08T03:11:45Z</time>
			</trkpt>
		
			<trkpt lat="45.425350" lon="1.832950">
			 <ele>554</ele>
			<time>2016-06-08T03:13:45Z</time>
			</trkpt>
		
			<trkpt lat="45.425500" lon="1.833030">
			 <ele>554</ele>
			<time>2016-06-08T03:15:45Z</time>
			</trkpt>
		
			<trkpt lat="45.425520" lon="1.833040">
			 <ele>554</ele>
			<time>2016-06-08T03:17:45Z</time>
			</trkpt>
		
			<trkpt lat="45.425620" lon="1.833080">
			 <ele>555</ele>
			<time>2016-06-08T03:19:45Z</time>
			</trkpt>
		
			<trkpt lat="45.425630" lon="1.833080">
			 <ele>555</ele>
			<time>2016-06-08T03:21:45Z</time>
			</trkpt>
		
			<trkpt lat="45.425650" lon="1.833080">
			 <ele>555</ele>
			<time>2016-06-08T03:23:45Z</time>
			</trkpt>
		
			<trkpt lat="45.425690" lon="1.833090">
			 <ele>555</ele>
			<time>2016-06-08T03:25:45Z</time>
			</trkpt>
		
			<trkpt lat="45.425770" lon="1.833100">
			 <ele>555</ele>
			<time>2016-06-08T03:27:45Z</time>
			</trkpt>
		
			<trkpt lat="45.425860" lon="1.833100">
			 <ele>556</ele>
			<time>2016-06-08T03:29:45Z</time>
			</trkpt>
		
			<trkpt lat="45.426010" lon="1.833080">
			 <ele>556</ele>
			<time>2016-06-08T03:31:45Z</time>
			</trkpt>
		
			<trkpt lat="45.426100" lon="1.833070">
			 <ele>556</ele>
			<time>2016-06-08T03:33:45Z</time>
			</trkpt>
		
			<trkpt lat="45.426150" lon="1.833080">
			 <ele>556</ele>
			<time>2016-06-08T03:35:45Z</time>
			</trkpt>
		
			<trkpt lat="45.426210" lon="1.833100">
			 <ele>556</ele>
			<time>2016-06-08T03:37:45Z</time>
			</trkpt>
		
			<trkpt lat="45.426260" lon="1.833130">
			 <ele>556</ele>
			<time>2016-06-08T03:39:45Z</time>
			</trkpt>
		
			<trkpt lat="45.426290" lon="1.833170">
			 <ele>556</ele>
			<time>2016-06-08T03:41:45Z</time>
			</trkpt>
		
			<trkpt lat="45.426330" lon="1.833210">
			 <ele>556</ele>
			<time>2016-06-08T03:43:45Z</time>
			</trkpt>
		
			<trkpt lat="45.426330" lon="1.833220">
			 <ele>556</ele>
			<time>2016-06-08T03:45:45Z</time>
			</trkpt>
		
			<trkpt lat="45.426350" lon="1.833270">
			 <ele>557</ele>
			<time>2016-06-08T03:47:45Z</time>
			</trkpt>
		
			<trkpt lat="45.426370" lon="1.833340">
			 <ele>557</ele>
			<time>2016-06-08T03:49:45Z</time>
			</trkpt>
		
			<trkpt lat="45.426380" lon="1.833450">
			 <ele>557</ele>
			<time>2016-06-08T03:51:45Z</time>
			</trkpt>
		
			<trkpt lat="45.426390" lon="1.833640">
			 <ele>558</ele>
			<time>2016-06-08T03:53:45Z</time>
			</trkpt>
		
			<trkpt lat="45.426390" lon="1.834020">
			 <ele>559</ele>
			<time>2016-06-08T03:55:45Z</time>
			</trkpt>
		
			<trkpt lat="45.426390" lon="1.834150">
			 <ele>560</ele>
			<time>2016-06-08T03:57:45Z</time>
			</trkpt>
		
			<trkpt lat="45.426400" lon="1.834210">
			 <ele>560</ele>
			<time>2016-06-08T03:59:45Z</time>
			</trkpt>
		
			<trkpt lat="45.426430" lon="1.834300">
			 <ele>560</ele>
			<time>2016-06-08T04:01:45Z</time>
			</trkpt>
		
			<trkpt lat="45.426490" lon="1.834400">
			 <ele>561</ele>
			<time>2016-06-08T04:03:45Z</time>
			</trkpt>
		
			<trkpt lat="45.426490" lon="1.834400">
			 <ele>561</ele>
			<time>2016-06-08T04:05:45Z</time>
			</trkpt>
		
			<trkpt lat="45.426460" lon="1.834490">
			 <ele>561</ele>
			<time>2016-06-08T04:07:45Z</time>
			</trkpt>
		
			<trkpt lat="45.426410" lon="1.834700">
			 <ele>561</ele>
			<time>2016-06-08T04:09:45Z</time>
			</trkpt>
		
			<trkpt lat="45.426380" lon="1.834810">
			 <ele>561</ele>
			<time>2016-06-08T04:11:45Z</time>
			</trkpt>
		
			<trkpt lat="45.426340" lon="1.834910">
			 <ele>561</ele>
			<time>2016-06-08T04:13:45Z</time>
			</trkpt>
		
			<trkpt lat="45.426310" lon="1.834980">
			 <ele>561</ele>
			<time>2016-06-08T04:15:45Z</time>
			</trkpt>
		
			<trkpt lat="45.426260" lon="1.835070">
			 <ele>561</ele>
			<time>2016-06-08T04:17:45Z</time>
			</trkpt>
		
			<trkpt lat="45.426220" lon="1.835150">
			 <ele>562</ele>
			<time>2016-06-08T04:19:45Z</time>
			</trkpt>
		
			<trkpt lat="45.426180" lon="1.835220">
			 <ele>562</ele>
			<time>2016-06-08T04:21:45Z</time>
			</trkpt>
		
			<trkpt lat="45.426080" lon="1.835320">
			 <ele>562</ele>
			<time>2016-06-08T04:23:45Z</time>
			</trkpt>
		
			<trkpt lat="45.425880" lon="1.835540">
			 <ele>561</ele>
			<time>2016-06-08T04:25:45Z</time>
			</trkpt>
		
			<trkpt lat="45.425700" lon="1.835740">
			 <ele>561</ele>
			<time>2016-06-08T04:27:45Z</time>
			</trkpt>
		
			<trkpt lat="45.425590" lon="1.835840">
			 <ele>562</ele>
			<time>2016-06-08T04:29:45Z</time>
			</trkpt>
		
			<trkpt lat="45.425520" lon="1.835920">
			 <ele>562</ele>
			<time>2016-06-08T04:31:45Z</time>
			</trkpt>
		
			<trkpt lat="45.425480" lon="1.835950">
			 <ele>562</ele>
			<time>2016-06-08T04:33:45Z</time>
			</trkpt>
		
			<trkpt lat="45.425450" lon="1.835970">
			 <ele>562</ele>
			<time>2016-06-08T04:35:45Z</time>
			</trkpt>
		
			<trkpt lat="45.425370" lon="1.836040">
			 <ele>562</ele>
			<time>2016-06-08T04:37:45Z</time>
			</trkpt>
		
			<trkpt lat="45.425140" lon="1.836120">
			 <ele>562</ele>
			<time>2016-06-08T04:39:45Z</time>
			</trkpt>
		
			<trkpt lat="45.424800" lon="1.836170">
			 <ele>562</ele>
			<time>2016-06-08T04:41:45Z</time>
			</trkpt>
		
			<trkpt lat="45.424730" lon="1.836180">
			 <ele>562</ele>
			<time>2016-06-08T04:43:45Z</time>
			</trkpt>
		
			<trkpt lat="45.424690" lon="1.836180">
			 <ele>562</ele>
			<time>2016-06-08T04:45:45Z</time>
			</trkpt>
		
			<trkpt lat="45.424660" lon="1.836190">
			 <ele>562</ele>
			<time>2016-06-08T04:47:45Z</time>
			</trkpt>
		
			<trkpt lat="45.424600" lon="1.836230">
			 <ele>561</ele>
			<time>2016-06-08T04:49:45Z</time>
			</trkpt>
		
			<trkpt lat="45.424570" lon="1.836240">
			 <ele>561</ele>
			<time>2016-06-08T04:51:45Z</time>
			</trkpt>
		
			<trkpt lat="45.424510" lon="1.836290">
			 <ele>561</ele>
			<time>2016-06-08T04:53:45Z</time>
			</trkpt>
		
			<trkpt lat="45.424480" lon="1.836320">
			 <ele>561</ele>
			<time>2016-06-08T04:55:45Z</time>
			</trkpt>
		
			<trkpt lat="45.424450" lon="1.836370">
			 <ele>561</ele>
			<time>2016-06-08T04:57:45Z</time>
			</trkpt>
		
			<trkpt lat="45.424400" lon="1.836460">
			 <ele>561</ele>
			<time>2016-06-08T04:59:45Z</time>
			</trkpt>
		
			<trkpt lat="45.424390" lon="1.836510">
			 <ele>561</ele>
			<time>2016-06-08T05:01:45Z</time>
			</trkpt>
		
			<trkpt lat="45.424370" lon="1.836600">
			 <ele>561</ele>
			<time>2016-06-08T05:03:45Z</time>
			</trkpt>
		
			<trkpt lat="45.424350" lon="1.836660">
			 <ele>561</ele>
			<time>2016-06-08T05:05:45Z</time>
			</trkpt>
		
			<trkpt lat="45.424340" lon="1.836710">
			 <ele>561</ele>
			<time>2016-06-08T05:07:45Z</time>
			</trkpt>
		
			<trkpt lat="45.424320" lon="1.836860">
			 <ele>561</ele>
			<time>2016-06-08T05:09:45Z</time>
			</trkpt>
		
			<trkpt lat="45.424290" lon="1.837050">
			 <ele>561</ele>
			<time>2016-06-08T05:11:45Z</time>
			</trkpt>
		
			<trkpt lat="45.424260" lon="1.837180">
			 <ele>561</ele>
			<time>2016-06-08T05:13:45Z</time>
			</trkpt>
		
			<trkpt lat="45.424240" lon="1.837260">
			 <ele>561</ele>
			<time>2016-06-08T05:15:45Z</time>
			</trkpt>
		
			<trkpt lat="45.424210" lon="1.837360">
			 <ele>561</ele>
			<time>2016-06-08T05:17:45Z</time>
			</trkpt>
		
			<trkpt lat="45.424120" lon="1.837580">
			 <ele>561</ele>
			<time>2016-06-08T05:19:45Z</time>
			</trkpt>
		
			<trkpt lat="45.424120" lon="1.837580">
			 <ele>561</ele>
			<time>2016-06-08T05:21:45Z</time>
			</trkpt>
		
			<trkpt lat="45.424270" lon="1.837800">
			 <ele>562</ele>
			<time>2016-06-08T05:23:45Z</time>
			</trkpt>
		
			<trkpt lat="45.424330" lon="1.837910">
			 <ele>562</ele>
			<time>2016-06-08T05:25:45Z</time>
			</trkpt>
		
			<trkpt lat="45.424340" lon="1.837980">
			 <ele>562</ele>
			<time>2016-06-08T05:27:45Z</time>
			</trkpt>
		
			<trkpt lat="45.424370" lon="1.838070">
			 <ele>562</ele>
			<time>2016-06-08T05:29:45Z</time>
			</trkpt>
		
			<trkpt lat="45.424400" lon="1.838560">
			 <ele>564</ele>
			<time>2016-06-08T05:31:45Z</time>
			</trkpt>
		
			<trkpt lat="45.424440" lon="1.839730">
			 <ele>569</ele>
			<time>2016-06-08T05:33:45Z</time>
			</trkpt>
		
			<trkpt lat="45.424440" lon="1.840160">
			 <ele>570</ele>
			<time>2016-06-08T05:35:45Z</time>
			</trkpt>
		
			<trkpt lat="45.424460" lon="1.841350">
			 <ele>566</ele>
			<time>2016-06-08T05:37:45Z</time>
			</trkpt>
		
			<trkpt lat="45.424480" lon="1.842920">
			 <ele>564</ele>
			<time>2016-06-08T05:39:45Z</time>
			</trkpt>
		
			<trkpt lat="45.424490" lon="1.843110">
			 <ele>564</ele>
			<time>2016-06-08T05:41:45Z</time>
			</trkpt>
		
			<trkpt lat="45.424510" lon="1.843160">
			 <ele>564</ele>
			<time>2016-06-08T05:43:45Z</time>
			</trkpt>
		
			<trkpt lat="45.424580" lon="1.843260">
			 <ele>565</ele>
			<time>2016-06-08T05:45:45Z</time>
			</trkpt>
		
			<trkpt lat="45.424980" lon="1.843650">
			 <ele>567</ele>
			<time>2016-06-08T05:47:45Z</time>
			</trkpt>
		
			<trkpt lat="45.425480" lon="1.844160">
			 <ele>565</ele>
			<time>2016-06-08T05:49:45Z</time>
			</trkpt>
		
			<trkpt lat="45.425780" lon="1.844490">
			 <ele>566</ele>
			<time>2016-06-08T05:51:45Z</time>
			</trkpt>
		
			<trkpt lat="45.425860" lon="1.844580">
			 <ele>566</ele>
			<time>2016-06-08T05:53:45Z</time>
			</trkpt>
		
			<trkpt lat="45.425900" lon="1.844640">
			 <ele>566</ele>
			<time>2016-06-08T05:55:45Z</time>
			</trkpt>
		
			<trkpt lat="45.425930" lon="1.844740">
			 <ele>566</ele>
			<time>2016-06-08T05:57:45Z</time>
			</trkpt>
		
			<trkpt lat="45.425960" lon="1.844830">
			 <ele>566</ele>
			<time>2016-06-08T05:59:45Z</time>
			</trkpt>
		
			<trkpt lat="45.425970" lon="1.844930">
			 <ele>566</ele>
			<time>2016-06-08T06:01:45Z</time>
			</trkpt>
		
			<trkpt lat="45.425970" lon="1.845040">
			 <ele>567</ele>
			<time>2016-06-08T06:03:45Z</time>
			</trkpt>
		
			<trkpt lat="45.425950" lon="1.845140">
			 <ele>567</ele>
			<time>2016-06-08T06:05:45Z</time>
			</trkpt>
		
			<trkpt lat="45.425900" lon="1.845350">
			 <ele>567</ele>
			<time>2016-06-08T06:07:45Z</time>
			</trkpt>
		
			<trkpt lat="45.425720" lon="1.846390">
			 <ele>569</ele>
			<time>2016-06-08T06:09:45Z</time>
			</trkpt>
		
			<trkpt lat="45.425600" lon="1.847100">
			 <ele>568</ele>
			<time>2016-06-08T06:11:45Z</time>
			</trkpt>
		
			<trkpt lat="45.425590" lon="1.847230">
			 <ele>568</ele>
			<time>2016-06-08T06:13:45Z</time>
			</trkpt>
		
			<trkpt lat="45.425600" lon="1.847380">
			 <ele>569</ele>
			<time>2016-06-08T06:15:45Z</time>
			</trkpt>
		
			<trkpt lat="45.425710" lon="1.847650">
			 <ele>569</ele>
			<time>2016-06-08T06:17:45Z</time>
			</trkpt>
		
			<trkpt lat="45.425790" lon="1.847830">
			 <ele>569</ele>
			<time>2016-06-08T06:19:45Z</time>
			</trkpt>
		
			<trkpt lat="45.425960" lon="1.848110">
			 <ele>571</ele>
			<time>2016-06-08T06:21:45Z</time>
			</trkpt>
		
			<trkpt lat="45.426080" lon="1.848260">
			 <ele>572</ele>
			<time>2016-06-08T06:23:45Z</time>
			</trkpt>
		
			<trkpt lat="45.426320" lon="1.848530">
			 <ele>573</ele>
			<time>2016-06-08T06:25:45Z</time>
			</trkpt>
		
			<trkpt lat="45.426660" lon="1.848780">
			 <ele>573</ele>
			<time>2016-06-08T06:27:45Z</time>
			</trkpt>
		
			<trkpt lat="45.426890" lon="1.848950">
			 <ele>571</ele>
			<time>2016-06-08T06:29:45Z</time>
			</trkpt>
		
			<trkpt lat="45.427040" lon="1.849010">
			 <ele>571</ele>
			<time>2016-06-08T06:31:45Z</time>
			</trkpt>
		
			<trkpt lat="45.427230" lon="1.849060">
			 <ele>570</ele>
			<time>2016-06-08T06:33:45Z</time>
			</trkpt>
		
			<trkpt lat="45.427500" lon="1.849050">
			 <ele>571</ele>
			<time>2016-06-08T06:35:45Z</time>
			</trkpt>
		
			<trkpt lat="45.427850" lon="1.849060">
			 <ele>572</ele>
			<time>2016-06-08T06:37:45Z</time>
			</trkpt>
		
			<trkpt lat="45.427980" lon="1.849090">
			 <ele>572</ele>
			<time>2016-06-08T06:39:45Z</time>
			</trkpt>
		
			<trkpt lat="45.428060" lon="1.849140">
			 <ele>571</ele>
			<time>2016-06-08T06:41:45Z</time>
			</trkpt>
		
			<trkpt lat="45.428140" lon="1.849230">
			 <ele>571</ele>
			<time>2016-06-08T06:43:45Z</time>
			</trkpt>
		
			<trkpt lat="45.428290" lon="1.849520">
			 <ele>568</ele>
			<time>2016-06-08T06:45:45Z</time>
			</trkpt>
		
			<trkpt lat="45.428330" lon="1.849570">
			 <ele>568</ele>
			<time>2016-06-08T06:47:45Z</time>
			</trkpt>
		
			<trkpt lat="45.428370" lon="1.849630">
			 <ele>567</ele>
			<time>2016-06-08T06:49:45Z</time>
			</trkpt>
		
			<trkpt lat="45.428490" lon="1.849780">
			 <ele>567</ele>
			<time>2016-06-08T06:51:45Z</time>
			</trkpt>
		
			<trkpt lat="45.428660" lon="1.849900">
			 <ele>567</ele>
			<time>2016-06-08T06:53:45Z</time>
			</trkpt>
		
			<trkpt lat="45.428820" lon="1.849970">
			 <ele>567</ele>
			<time>2016-06-08T06:55:45Z</time>
			</trkpt>
		
			<trkpt lat="45.429300" lon="1.850130">
			 <ele>570</ele>
			<time>2016-06-08T06:57:45Z</time>
			</trkpt>
		
			<trkpt lat="45.429500" lon="1.850190">
			 <ele>571</ele>
			<time>2016-06-08T06:59:45Z</time>
			</trkpt>
		
			<trkpt lat="45.429660" lon="1.850340">
			 <ele>571</ele>
			<time>2016-06-08T07:01:45Z</time>
			</trkpt>
		
			<trkpt lat="45.429740" lon="1.850440">
			 <ele>571</ele>
			<time>2016-06-08T07:03:45Z</time>
			</trkpt>
		
			<trkpt lat="45.429820" lon="1.850590">
			 <ele>571</ele>
			<time>2016-06-08T07:05:45Z</time>
			</trkpt>
		
			<trkpt lat="45.429890" lon="1.850810">
			 <ele>570</ele>
			<time>2016-06-08T07:07:45Z</time>
			</trkpt>
		
			<trkpt lat="45.429920" lon="1.851000">
			 <ele>569</ele>
			<time>2016-06-08T07:09:45Z</time>
			</trkpt>
		
			<trkpt lat="45.429920" lon="1.851020">
			 <ele>569</ele>
			<time>2016-06-08T07:11:45Z</time>
			</trkpt>
		
			<trkpt lat="45.429950" lon="1.851350">
			 <ele>567</ele>
			<time>2016-06-08T07:13:45Z</time>
			</trkpt>
		
			<trkpt lat="45.429990" lon="1.851970">
			 <ele>565</ele>
			<time>2016-06-08T07:15:45Z</time>
			</trkpt>
		
			<trkpt lat="45.430020" lon="1.852100">
			 <ele>565</ele>
			<time>2016-06-08T07:17:45Z</time>
			</trkpt>
		
			<trkpt lat="45.430060" lon="1.852240">
			 <ele>565</ele>
			<time>2016-06-08T07:19:45Z</time>
			</trkpt>
		
			<trkpt lat="45.430210" lon="1.852660">
			 <ele>566</ele>
			<time>2016-06-08T07:21:45Z</time>
			</trkpt>
		
			<trkpt lat="45.430250" lon="1.852790">
			 <ele>566</ele>
			<time>2016-06-08T07:23:45Z</time>
			</trkpt>
		
			<trkpt lat="45.430260" lon="1.852900">
			 <ele>566</ele>
			<time>2016-06-08T07:25:45Z</time>
			</trkpt>
		
			<trkpt lat="45.430250" lon="1.853000">
			 <ele>566</ele>
			<time>2016-06-08T07:27:45Z</time>
			</trkpt>
		
			<trkpt lat="45.430220" lon="1.853100">
			 <ele>565</ele>
			<time>2016-06-08T07:29:45Z</time>
			</trkpt>
		
			<trkpt lat="45.430090" lon="1.853460">
			 <ele>564</ele>
			<time>2016-06-08T07:31:45Z</time>
			</trkpt>
		
			<trkpt lat="45.430070" lon="1.853540">
			 <ele>564</ele>
			<time>2016-06-08T07:33:45Z</time>
			</trkpt>
		
			<trkpt lat="45.430050" lon="1.853650">
			 <ele>564</ele>
			<time>2016-06-08T07:35:45Z</time>
			</trkpt>
		
			<trkpt lat="45.430060" lon="1.853760">
			 <ele>565</ele>
			<time>2016-06-08T07:37:45Z</time>
			</trkpt>
		
			<trkpt lat="45.430100" lon="1.853970">
			 <ele>567</ele>
			<time>2016-06-08T07:39:45Z</time>
			</trkpt>
		
			<trkpt lat="45.430190" lon="1.854250">
			 <ele>568</ele>
			<time>2016-06-08T07:41:45Z</time>
			</trkpt>
		
			<trkpt lat="45.430230" lon="1.854370">
			 <ele>567</ele>
			<time>2016-06-08T07:43:45Z</time>
			</trkpt>
		
			<trkpt lat="45.430230" lon="1.854400">
			 <ele>567</ele>
			<time>2016-06-08T07:45:45Z</time>
			</trkpt>
		
			<trkpt lat="45.430540" lon="1.855290">
			 <ele>565</ele>
			<time>2016-06-08T07:47:45Z</time>
			</trkpt>
		
			<trkpt lat="45.430590" lon="1.855370">
			 <ele>565</ele>
			<time>2016-06-08T07:49:45Z</time>
			</trkpt>
		
			<trkpt lat="45.430900" lon="1.855940">
			 <ele>565</ele>
			<time>2016-06-08T07:51:45Z</time>
			</trkpt>
		
			<trkpt lat="45.431080" lon="1.856220">
			 <ele>564</ele>
			<time>2016-06-08T07:53:45Z</time>
			</trkpt>
		
			<trkpt lat="45.431240" lon="1.856380">
			 <ele>564</ele>
			<time>2016-06-08T07:55:45Z</time>
			</trkpt>
		
			<trkpt lat="45.431380" lon="1.856500">
			 <ele>563</ele>
			<time>2016-06-08T07:57:45Z</time>
			</trkpt>
		
			<trkpt lat="45.431750" lon="1.856790">
			 <ele>563</ele>
			<time>2016-06-08T07:59:45Z</time>
			</trkpt>
		
			<trkpt lat="45.432520" lon="1.857400">
			 <ele>559</ele>
			<time>2016-06-08T08:01:45Z</time>
			</trkpt>
		
			<trkpt lat="45.432530" lon="1.857410">
			 <ele>559</ele>
			<time>2016-06-08T08:03:45Z</time>
			</trkpt>
		
			<trkpt lat="45.432620" lon="1.857500">
			 <ele>558</ele>
			<time>2016-06-08T08:05:45Z</time>
			</trkpt>
		
			<trkpt lat="45.432710" lon="1.857620">
			 <ele>558</ele>
			<time>2016-06-08T08:07:45Z</time>
			</trkpt>
		
			<trkpt lat="45.432750" lon="1.857700">
			 <ele>557</ele>
			<time>2016-06-08T08:09:45Z</time>
			</trkpt>
		
			<trkpt lat="45.432770" lon="1.857770">
			 <ele>557</ele>
			<time>2016-06-08T08:11:45Z</time>
			</trkpt>
		
			<trkpt lat="45.432800" lon="1.857950">
			 <ele>557</ele>
			<time>2016-06-08T08:13:45Z</time>
			</trkpt>
		
			<trkpt lat="45.432790" lon="1.858200">
			 <ele>557</ele>
			<time>2016-06-08T08:15:45Z</time>
			</trkpt>
		
			<trkpt lat="45.432780" lon="1.858450">
			 <ele>556</ele>
			<time>2016-06-08T08:17:45Z</time>
			</trkpt>
		
			<trkpt lat="45.432760" lon="1.858660">
			 <ele>556</ele>
			<time>2016-06-08T08:19:45Z</time>
			</trkpt>
		
			<trkpt lat="45.432730" lon="1.858840">
			 <ele>556</ele>
			<time>2016-06-08T08:21:45Z</time>
			</trkpt>
		
			<trkpt lat="45.432580" lon="1.859290">
			 <ele>554</ele>
			<time>2016-06-08T08:23:45Z</time>
			</trkpt>
		
			<trkpt lat="45.432570" lon="1.859400">
			 <ele>553</ele>
			<time>2016-06-08T08:25:45Z</time>
			</trkpt>
		
			<trkpt lat="45.432560" lon="1.859510">
			 <ele>553</ele>
			<time>2016-06-08T08:27:45Z</time>
			</trkpt>
		
			<trkpt lat="45.432560" lon="1.859650">
			 <ele>553</ele>
			<time>2016-06-08T08:29:45Z</time>
			</trkpt>
		
			<trkpt lat="45.432580" lon="1.859870">
			 <ele>553</ele>
			<time>2016-06-08T08:31:45Z</time>
			</trkpt>
		
			<trkpt lat="45.432760" lon="1.860820">
			 <ele>552</ele>
			<time>2016-06-08T08:33:45Z</time>
			</trkpt>
		
			<trkpt lat="45.432920" lon="1.861500">
			 <ele>552</ele>
			<time>2016-06-08T08:35:45Z</time>
			</trkpt>
		
			<trkpt lat="45.433000" lon="1.861790">
			 <ele>552</ele>
			<time>2016-06-08T08:37:45Z</time>
			</trkpt>
		
			<trkpt lat="45.433070" lon="1.861970">
			 <ele>552</ele>
			<time>2016-06-08T08:39:45Z</time>
			</trkpt>
		
			<trkpt lat="45.433150" lon="1.862110">
			 <ele>552</ele>
			<time>2016-06-08T08:41:45Z</time>
			</trkpt>
		
			<trkpt lat="45.433250" lon="1.862280">
			 <ele>552</ele>
			<time>2016-06-08T08:43:45Z</time>
			</trkpt>
		
			<trkpt lat="45.433770" lon="1.862900">
			 <ele>554</ele>
			<time>2016-06-08T08:45:45Z</time>
			</trkpt>
		
			<trkpt lat="45.433900" lon="1.863030">
			 <ele>554</ele>
			<time>2016-06-08T08:47:45Z</time>
			</trkpt>
		
			<trkpt lat="45.434200" lon="1.863290">
			 <ele>552</ele>
			<time>2016-06-08T08:49:45Z</time>
			</trkpt>
		
			<trkpt lat="45.434340" lon="1.863330">
			 <ele>552</ele>
			<time>2016-06-08T08:51:45Z</time>
			</trkpt>
		
			<trkpt lat="45.434530" lon="1.863300">
			 <ele>552</ele>
			<time>2016-06-08T08:53:45Z</time>
			</trkpt>
		
			<trkpt lat="45.434730" lon="1.863180">
			 <ele>554</ele>
			<time>2016-06-08T08:55:45Z</time>
			</trkpt>
		
			<trkpt lat="45.434890" lon="1.863150">
			 <ele>554</ele>
			<time>2016-06-08T08:57:45Z</time>
			</trkpt>
		
			<trkpt lat="45.435090" lon="1.863210">
			 <ele>553</ele>
			<time>2016-06-08T08:59:45Z</time>
			</trkpt>
		
			<trkpt lat="45.435200" lon="1.863300">
			 <ele>552</ele>
			<time>2016-06-08T09:01:45Z</time>
			</trkpt>
		
			<trkpt lat="45.435290" lon="1.863430">
			 <ele>551</ele>
			<time>2016-06-08T09:03:45Z</time>
			</trkpt>
		
			<trkpt lat="45.435360" lon="1.863670">
			 <ele>551</ele>
			<time>2016-06-08T09:05:45Z</time>
			</trkpt>
		
			<trkpt lat="45.435380" lon="1.864000">
			 <ele>550</ele>
			<time>2016-06-08T09:07:45Z</time>
			</trkpt>
		
			<trkpt lat="45.435430" lon="1.864210">
			 <ele>550</ele>
			<time>2016-06-08T09:09:45Z</time>
			</trkpt>
		
			<trkpt lat="45.435520" lon="1.864420">
			 <ele>551</ele>
			<time>2016-06-08T09:11:45Z</time>
			</trkpt>
		
			<trkpt lat="45.435610" lon="1.864510">
			 <ele>552</ele>
			<time>2016-06-08T09:13:45Z</time>
			</trkpt>
		
			<trkpt lat="45.436020" lon="1.864720">
			 <ele>553</ele>
			<time>2016-06-08T09:15:45Z</time>
			</trkpt>
		
			<trkpt lat="45.436220" lon="1.864810">
			 <ele>553</ele>
			<time>2016-06-08T09:17:45Z</time>
			</trkpt>
		
			<trkpt lat="45.436340" lon="1.864880">
			 <ele>553</ele>
			<time>2016-06-08T09:19:45Z</time>
			</trkpt>
		
			<trkpt lat="45.436410" lon="1.864960">
			 <ele>553</ele>
			<time>2016-06-08T09:21:45Z</time>
			</trkpt>
		
			<trkpt lat="45.436460" lon="1.865050">
			 <ele>553</ele>
			<time>2016-06-08T09:23:45Z</time>
			</trkpt>
		
			<trkpt lat="45.436500" lon="1.865190">
			 <ele>554</ele>
			<time>2016-06-08T09:25:45Z</time>
			</trkpt>
		
			<trkpt lat="45.436530" lon="1.865340">
			 <ele>554</ele>
			<time>2016-06-08T09:27:45Z</time>
			</trkpt>
		
			<trkpt lat="45.436550" lon="1.865520">
			 <ele>555</ele>
			<time>2016-06-08T09:29:45Z</time>
			</trkpt>
		
			<trkpt lat="45.436530" lon="1.865740">
			 <ele>555</ele>
			<time>2016-06-08T09:31:45Z</time>
			</trkpt>
		
			<trkpt lat="45.436510" lon="1.865910">
			 <ele>556</ele>
			<time>2016-06-08T09:33:45Z</time>
			</trkpt>
		
			<trkpt lat="45.436470" lon="1.866150">
			 <ele>556</ele>
			<time>2016-06-08T09:35:45Z</time>
			</trkpt>
		
			<trkpt lat="45.436470" lon="1.866280">
			 <ele>557</ele>
			<time>2016-06-08T09:37:45Z</time>
			</trkpt>
		
			<trkpt lat="45.436490" lon="1.866420">
			 <ele>557</ele>
			<time>2016-06-08T09:39:45Z</time>
			</trkpt>
		
			<trkpt lat="45.436550" lon="1.866630">
			 <ele>558</ele>
			<time>2016-06-08T09:41:45Z</time>
			</trkpt>
		
			<trkpt lat="45.436780" lon="1.867170">
			 <ele>559</ele>
			<time>2016-06-08T09:43:45Z</time>
			</trkpt>
		
			<trkpt lat="45.436900" lon="1.867450">
			 <ele>560</ele>
			<time>2016-06-08T09:45:45Z</time>
			</trkpt>
		
			<trkpt lat="45.436950" lon="1.867600">
			 <ele>561</ele>
			<time>2016-06-08T09:47:45Z</time>
			</trkpt>
		
			<trkpt lat="45.436990" lon="1.867690">
			 <ele>561</ele>
			<time>2016-06-08T09:49:45Z</time>
			</trkpt>
		
			<trkpt lat="45.437040" lon="1.867760">
			 <ele>561</ele>
			<time>2016-06-08T09:51:45Z</time>
			</trkpt>
		
			<trkpt lat="45.437110" lon="1.867820">
			 <ele>562</ele>
			<time>2016-06-08T09:53:45Z</time>
			</trkpt>
		
			<trkpt lat="45.437240" lon="1.867880">
			 <ele>562</ele>
			<time>2016-06-08T09:55:45Z</time>
			</trkpt>
		
			<trkpt lat="45.437450" lon="1.867950">
			 <ele>562</ele>
			<time>2016-06-08T09:57:45Z</time>
			</trkpt>
		
			<trkpt lat="45.437600" lon="1.868000">
			 <ele>562</ele>
			<time>2016-06-08T09:59:45Z</time>
			</trkpt>
		
			<trkpt lat="45.437740" lon="1.868090">
			 <ele>563</ele>
			<time>2016-06-08T10:01:45Z</time>
			</trkpt>
		
			<trkpt lat="45.437960" lon="1.868350">
			 <ele>564</ele>
			<time>2016-06-08T10:03:45Z</time>
			</trkpt>
		
			<trkpt lat="45.438770" lon="1.869500">
			 <ele>568</ele>
			<time>2016-06-08T10:05:45Z</time>
			</trkpt>
		
			<trkpt lat="45.439390" lon="1.870380">
			 <ele>572</ele>
			<time>2016-06-08T10:07:45Z</time>
			</trkpt>
		
			<trkpt lat="45.439930" lon="1.871130">
			 <ele>575</ele>
			<time>2016-06-08T10:09:45Z</time>
			</trkpt>
		
			<trkpt lat="45.440590" lon="1.872050">
			 <ele>580</ele>
			<time>2016-06-08T10:11:45Z</time>
			</trkpt>
		
			<trkpt lat="45.440860" lon="1.872430">
			 <ele>581</ele>
			<time>2016-06-08T10:13:45Z</time>
			</trkpt>
		
			<trkpt lat="45.440970" lon="1.872670">
			 <ele>582</ele>
			<time>2016-06-08T10:15:45Z</time>
			</trkpt>
		
			<trkpt lat="45.441070" lon="1.872960">
			 <ele>583</ele>
			<time>2016-06-08T10:17:45Z</time>
			</trkpt>
		
			<trkpt lat="45.441200" lon="1.873820">
			 <ele>584</ele>
			<time>2016-06-08T10:19:45Z</time>
			</trkpt>
		
			<trkpt lat="45.441420" lon="1.875330">
			 <ele>589</ele>
			<time>2016-06-08T10:21:45Z</time>
			</trkpt>
		
			<trkpt lat="45.441480" lon="1.875630">
			 <ele>588</ele>
			<time>2016-06-08T10:23:45Z</time>
			</trkpt>
		
			<trkpt lat="45.441540" lon="1.875840">
			 <ele>588</ele>
			<time>2016-06-08T10:25:45Z</time>
			</trkpt>
		
			<trkpt lat="45.441640" lon="1.876020">
			 <ele>588</ele>
			<time>2016-06-08T10:27:45Z</time>
			</trkpt>
		
			<trkpt lat="45.441770" lon="1.876220">
			 <ele>589</ele>
			<time>2016-06-08T10:29:45Z</time>
			</trkpt>
		
			<trkpt lat="45.442200" lon="1.876690">
			 <ele>592</ele>
			<time>2016-06-08T10:31:45Z</time>
			</trkpt>
		
			<trkpt lat="45.442340" lon="1.876840">
			 <ele>593</ele>
			<time>2016-06-08T10:33:45Z</time>
			</trkpt>
		
			<trkpt lat="45.442460" lon="1.876940">
			 <ele>594</ele>
			<time>2016-06-08T10:35:45Z</time>
			</trkpt>
		
			<trkpt lat="45.442470" lon="1.876950">
			 <ele>594</ele>
			<time>2016-06-08T10:37:45Z</time>
			</trkpt>
		
			<trkpt lat="45.442570" lon="1.877020">
			 <ele>594</ele>
			<time>2016-06-08T10:39:45Z</time>
			</trkpt>
		
			<trkpt lat="45.442620" lon="1.877050">
			 <ele>594</ele>
			<time>2016-06-08T10:41:45Z</time>
			</trkpt>
		
			<trkpt lat="45.442680" lon="1.877080">
			 <ele>594</ele>
			<time>2016-06-08T10:43:45Z</time>
			</trkpt>
		
			<trkpt lat="45.442780" lon="1.877110">
			 <ele>594</ele>
			<time>2016-06-08T10:45:45Z</time>
			</trkpt>
		
			<trkpt lat="45.442790" lon="1.877110">
			 <ele>595</ele>
			<time>2016-06-08T10:47:45Z</time>
			</trkpt>
		
			<trkpt lat="45.443140" lon="1.877180">
			 <ele>596</ele>
			<time>2016-06-08T10:49:45Z</time>
			</trkpt>
		
			<trkpt lat="45.444430" lon="1.877510">
			 <ele>603</ele>
			<time>2016-06-08T10:51:45Z</time>
			</trkpt>
		
			<trkpt lat="45.445080" lon="1.877680">
			 <ele>607</ele>
			<time>2016-06-08T10:53:45Z</time>
			</trkpt>
		
			<trkpt lat="45.445740" lon="1.877840">
			 <ele>601</ele>
			<time>2016-06-08T10:55:45Z</time>
			</trkpt>
		
			<trkpt lat="45.445910" lon="1.877880">
			 <ele>600</ele>
			<time>2016-06-08T10:57:45Z</time>
			</trkpt>
		
			<trkpt lat="45.446190" lon="1.877950">
			 <ele>599</ele>
			<time>2016-06-08T10:59:45Z</time>
			</trkpt>
		
			<trkpt lat="45.446210" lon="1.877950">
			 <ele>599</ele>
			<time>2016-06-08T11:01:45Z</time>
			</trkpt>
		
			<trkpt lat="45.446230" lon="1.877960">
			 <ele>598</ele>
			<time>2016-06-08T11:03:45Z</time>
			</trkpt>
		
			<trkpt lat="45.446760" lon="1.878090">
			 <ele>598</ele>
			<time>2016-06-08T11:05:45Z</time>
			</trkpt>
		
			<trkpt lat="45.447360" lon="1.878240">
			 <ele>603</ele>
			<time>2016-06-08T11:07:45Z</time>
			</trkpt>
		
			<trkpt lat="45.447670" lon="1.878320">
			 <ele>606</ele>
			<time>2016-06-08T11:09:45Z</time>
			</trkpt>
		
			<trkpt lat="45.447930" lon="1.878380">
			 <ele>607</ele>
			<time>2016-06-08T11:11:45Z</time>
			</trkpt>
		
			<trkpt lat="45.448180" lon="1.878440">
			 <ele>607</ele>
			<time>2016-06-08T11:13:45Z</time>
			</trkpt>
		
			<trkpt lat="45.448440" lon="1.878500">
			 <ele>608</ele>
			<time>2016-06-08T11:15:45Z</time>
			</trkpt>
		
			<trkpt lat="45.448600" lon="1.878550">
			 <ele>608</ele>
			<time>2016-06-08T11:17:45Z</time>
			</trkpt>
		
			<trkpt lat="45.448680" lon="1.878570">
			 <ele>609</ele>
			<time>2016-06-08T11:19:45Z</time>
			</trkpt>
		
			<trkpt lat="45.448790" lon="1.878620">
			 <ele>609</ele>
			<time>2016-06-08T11:21:45Z</time>
			</trkpt>
		
			<trkpt lat="45.448990" lon="1.878720">
			 <ele>609</ele>
			<time>2016-06-08T11:23:45Z</time>
			</trkpt>
		
			<trkpt lat="45.449310" lon="1.878880">
			 <ele>609</ele>
			<time>2016-06-08T11:25:45Z</time>
			</trkpt>
		
			<trkpt lat="45.449640" lon="1.879060">
			 <ele>610</ele>
			<time>2016-06-08T11:27:45Z</time>
			</trkpt>
		
			<trkpt lat="45.449740" lon="1.879130">
			 <ele>610</ele>
			<time>2016-06-08T11:29:45Z</time>
			</trkpt>
		
			<trkpt lat="45.449830" lon="1.879200">
			 <ele>611</ele>
			<time>2016-06-08T11:31:45Z</time>
			</trkpt>
		
			<trkpt lat="45.449910" lon="1.879280">
			 <ele>611</ele>
			<time>2016-06-08T11:33:45Z</time>
			</trkpt>
		
			<trkpt lat="45.450010" lon="1.879400">
			 <ele>612</ele>
			<time>2016-06-08T11:35:45Z</time>
			</trkpt>
		
			<trkpt lat="45.450150" lon="1.879580">
			 <ele>612</ele>
			<time>2016-06-08T11:37:45Z</time>
			</trkpt>
		
			<trkpt lat="45.450280" lon="1.879740">
			 <ele>613</ele>
			<time>2016-06-08T11:39:45Z</time>
			</trkpt>
		
			<trkpt lat="45.450350" lon="1.879810">
			 <ele>613</ele>
			<time>2016-06-08T11:41:45Z</time>
			</trkpt>
		
			<trkpt lat="45.450450" lon="1.879880">
			 <ele>614</ele>
			<time>2016-06-08T11:43:45Z</time>
			</trkpt>
		
			<trkpt lat="45.450540" lon="1.879920">
			 <ele>614</ele>
			<time>2016-06-08T11:45:45Z</time>
			</trkpt>
		
			<trkpt lat="45.450650" lon="1.879950">
			 <ele>615</ele>
			<time>2016-06-08T11:47:45Z</time>
			</trkpt>
		
			<trkpt lat="45.450710" lon="1.879960">
			 <ele>615</ele>
			<time>2016-06-08T11:49:45Z</time>
			</trkpt>
		
			<trkpt lat="45.450820" lon="1.879980">
			 <ele>616</ele>
			<time>2016-06-08T11:51:45Z</time>
			</trkpt>
		
			<trkpt lat="45.450930" lon="1.879990">
			 <ele>616</ele>
			<time>2016-06-08T11:53:45Z</time>
			</trkpt>
		
			<trkpt lat="45.450980" lon="1.879990">
			 <ele>616</ele>
			<time>2016-06-08T11:55:45Z</time>
			</trkpt>
		
			<trkpt lat="45.451130" lon="1.879990">
			 <ele>617</ele>
			<time>2016-06-08T11:57:45Z</time>
			</trkpt>
		
			<trkpt lat="45.451310" lon="1.879980">
			 <ele>617</ele>
			<time>2016-06-08T11:59:45Z</time>
			</trkpt>
		
			<trkpt lat="45.451500" lon="1.879950">
			 <ele>618</ele>
			<time>2016-06-08T12:01:45Z</time>
			</trkpt>
		
			<trkpt lat="45.451800" lon="1.879900">
			 <ele>619</ele>
			<time>2016-06-08T12:03:45Z</time>
			</trkpt>
		
			<trkpt lat="45.452090" lon="1.879850">
			 <ele>621</ele>
			<time>2016-06-08T12:05:45Z</time>
			</trkpt>
		
			<trkpt lat="45.452200" lon="1.879830">
			 <ele>622</ele>
			<time>2016-06-08T12:07:45Z</time>
			</trkpt>
		
			<trkpt lat="45.452300" lon="1.879830">
			 <ele>623</ele>
			<time>2016-06-08T12:09:45Z</time>
			</trkpt>
		
			<trkpt lat="45.452460" lon="1.879860">
			 <ele>624</ele>
			<time>2016-06-08T12:11:45Z</time>
			</trkpt>
		
			<trkpt lat="45.452720" lon="1.879930">
			 <ele>625</ele>
			<time>2016-06-08T12:13:45Z</time>
			</trkpt>
		
			<trkpt lat="45.452970" lon="1.880000">
			 <ele>625</ele>
			<time>2016-06-08T12:15:45Z</time>
			</trkpt>
		
			<trkpt lat="45.453220" lon="1.880080">
			 <ele>626</ele>
			<time>2016-06-08T12:17:45Z</time>
			</trkpt>
		
			<trkpt lat="45.453510" lon="1.880200">
			 <ele>627</ele>
			<time>2016-06-08T12:19:45Z</time>
			</trkpt>
		
			<trkpt lat="45.454180" lon="1.880490">
			 <ele>629</ele>
			<time>2016-06-08T12:21:45Z</time>
			</trkpt>
		
			<trkpt lat="45.454470" lon="1.880630">
			 <ele>630</ele>
			<time>2016-06-08T12:23:45Z</time>
			</trkpt>
		
			<trkpt lat="45.454600" lon="1.880700">
			 <ele>631</ele>
			<time>2016-06-08T12:25:45Z</time>
			</trkpt>
		
			<trkpt lat="45.454680" lon="1.880750">
			 <ele>631</ele>
			<time>2016-06-08T12:27:45Z</time>
			</trkpt>
		
			<trkpt lat="45.454800" lon="1.880840">
			 <ele>632</ele>
			<time>2016-06-08T12:29:45Z</time>
			</trkpt>
		
			<trkpt lat="45.455010" lon="1.881020">
			 <ele>633</ele>
			<time>2016-06-08T12:31:45Z</time>
			</trkpt>
		
			<trkpt lat="45.455110" lon="1.881090">
			 <ele>634</ele>
			<time>2016-06-08T12:33:45Z</time>
			</trkpt>
		
			<trkpt lat="45.455220" lon="1.881160">
			 <ele>634</ele>
			<time>2016-06-08T12:35:45Z</time>
			</trkpt>
		
			<trkpt lat="45.455470" lon="1.881290">
			 <ele>635</ele>
			<time>2016-06-08T12:37:45Z</time>
			</trkpt>
		
			<trkpt lat="45.455590" lon="1.881360">
			 <ele>636</ele>
			<time>2016-06-08T12:39:45Z</time>
			</trkpt>
		
			<trkpt lat="45.455650" lon="1.881400">
			 <ele>636</ele>
			<time>2016-06-08T12:41:45Z</time>
			</trkpt>
		
			<trkpt lat="45.455690" lon="1.881430">
			 <ele>636</ele>
			<time>2016-06-08T12:43:45Z</time>
			</trkpt>
		
			<trkpt lat="45.455760" lon="1.881490">
			 <ele>636</ele>
			<time>2016-06-08T12:45:45Z</time>
			</trkpt>
		
			<trkpt lat="45.455800" lon="1.881540">
			 <ele>636</ele>
			<time>2016-06-08T12:47:45Z</time>
			</trkpt>
		
			<trkpt lat="45.455820" lon="1.881570">
			 <ele>636</ele>
			<time>2016-06-08T12:49:45Z</time>
			</trkpt>
		
			<trkpt lat="45.455860" lon="1.881640">
			 <ele>637</ele>
			<time>2016-06-08T12:51:45Z</time>
			</trkpt>
		
			<trkpt lat="45.455900" lon="1.881740">
			 <ele>637</ele>
			<time>2016-06-08T12:53:45Z</time>
			</trkpt>
		
			<trkpt lat="45.455960" lon="1.881850">
			 <ele>638</ele>
			<time>2016-06-08T12:55:45Z</time>
			</trkpt>
		
			<trkpt lat="45.456010" lon="1.881920">
			 <ele>639</ele>
			<time>2016-06-08T12:57:45Z</time>
			</trkpt>
		
			<trkpt lat="45.456090" lon="1.882010">
			 <ele>639</ele>
			<time>2016-06-08T12:59:45Z</time>
			</trkpt>
		
			<trkpt lat="45.456270" lon="1.882160">
			 <ele>641</ele>
			<time>2016-06-08T13:01:45Z</time>
			</trkpt>
		
			<trkpt lat="45.456610" lon="1.882470">
			 <ele>644</ele>
			<time>2016-06-08T13:03:45Z</time>
			</trkpt>
		
			<trkpt lat="45.456720" lon="1.882570">
			 <ele>645</ele>
			<time>2016-06-08T13:05:45Z</time>
			</trkpt>
		
			<trkpt lat="45.456790" lon="1.882650">
			 <ele>647</ele>
			<time>2016-06-08T13:07:45Z</time>
			</trkpt>
		
			<trkpt lat="45.456860" lon="1.882740">
			 <ele>649</ele>
			<time>2016-06-08T13:09:45Z</time>
			</trkpt>
		
			<trkpt lat="45.456950" lon="1.882870">
			 <ele>651</ele>
			<time>2016-06-08T13:11:45Z</time>
			</trkpt>
		
			<trkpt lat="45.456960" lon="1.882880">
			 <ele>651</ele>
			<time>2016-06-08T13:13:45Z</time>
			</trkpt>
		
			<trkpt lat="45.457000" lon="1.882930">
			 <ele>652</ele>
			<time>2016-06-08T13:15:45Z</time>
			</trkpt>
		
			<trkpt lat="45.457080" lon="1.882980">
			 <ele>653</ele>
			<time>2016-06-08T13:17:45Z</time>
			</trkpt>
		
			<trkpt lat="45.457190" lon="1.883030">
			 <ele>653</ele>
			<time>2016-06-08T13:19:45Z</time>
			</trkpt>
		
			<trkpt lat="45.457470" lon="1.883140">
			 <ele>654</ele>
			<time>2016-06-08T13:21:45Z</time>
			</trkpt>
		
			<trkpt lat="45.457730" lon="1.883240">
			 <ele>653</ele>
			<time>2016-06-08T13:23:45Z</time>
			</trkpt>
		
			<trkpt lat="45.457840" lon="1.883290">
			 <ele>653</ele>
			<time>2016-06-08T13:25:45Z</time>
			</trkpt>
		
			<trkpt lat="45.457910" lon="1.883340">
			 <ele>653</ele>
			<time>2016-06-08T13:27:45Z</time>
			</trkpt>
		
			<trkpt lat="45.457960" lon="1.883390">
			 <ele>653</ele>
			<time>2016-06-08T13:29:45Z</time>
			</trkpt>
		
			<trkpt lat="45.458010" lon="1.883470">
			 <ele>655</ele>
			<time>2016-06-08T13:31:45Z</time>
			</trkpt>
		
			<trkpt lat="45.458050" lon="1.883570">
			 <ele>656</ele>
			<time>2016-06-08T13:33:45Z</time>
			</trkpt>
		
			<trkpt lat="45.458120" lon="1.883770">
			 <ele>660</ele>
			<time>2016-06-08T13:35:45Z</time>
			</trkpt>
		
			<trkpt lat="45.458240" lon="1.884110">
			 <ele>666</ele>
			<time>2016-06-08T13:37:45Z</time>
			</trkpt>
		
			<trkpt lat="45.458280" lon="1.884180">
			 <ele>667</ele>
			<time>2016-06-08T13:39:45Z</time>
			</trkpt>
		
			<trkpt lat="45.458320" lon="1.884240">
			 <ele>668</ele>
			<time>2016-06-08T13:41:45Z</time>
			</trkpt>
		
			<trkpt lat="45.458380" lon="1.884270">
			 <ele>668</ele>
			<time>2016-06-08T13:43:45Z</time>
			</trkpt>
		
			<trkpt lat="45.458440" lon="1.884290">
			 <ele>668</ele>
			<time>2016-06-08T13:45:45Z</time>
			</trkpt>
		
			<trkpt lat="45.458500" lon="1.884290">
			 <ele>668</ele>
			<time>2016-06-08T13:47:45Z</time>
			</trkpt>
		
			<trkpt lat="45.458600" lon="1.884270">
			 <ele>667</ele>
			<time>2016-06-08T13:49:45Z</time>
			</trkpt>
		
			<trkpt lat="45.458750" lon="1.884210">
			 <ele>665</ele>
			<time>2016-06-08T13:51:45Z</time>
			</trkpt>
		
			<trkpt lat="45.458850" lon="1.884180">
			 <ele>664</ele>
			<time>2016-06-08T13:53:45Z</time>
			</trkpt>
		
			<trkpt lat="45.458910" lon="1.884180">
			 <ele>663</ele>
			<time>2016-06-08T13:55:45Z</time>
			</trkpt>
		
			<trkpt lat="45.458990" lon="1.884200">
			 <ele>663</ele>
			<time>2016-06-08T13:57:45Z</time>
			</trkpt>
		
			<trkpt lat="45.459050" lon="1.884240">
			 <ele>664</ele>
			<time>2016-06-08T13:59:45Z</time>
			</trkpt>
		
			<trkpt lat="45.459130" lon="1.884320">
			 <ele>665</ele>
			<time>2016-06-08T14:01:45Z</time>
			</trkpt>
		
			<trkpt lat="45.459170" lon="1.884410">
			 <ele>666</ele>
			<time>2016-06-08T14:03:45Z</time>
			</trkpt>
		
			<trkpt lat="45.459220" lon="1.884530">
			 <ele>669</ele>
			<time>2016-06-08T14:05:45Z</time>
			</trkpt>
		
			<trkpt lat="45.459290" lon="1.884720">
			 <ele>673</ele>
			<time>2016-06-08T14:07:45Z</time>
			</trkpt>
		
			<trkpt lat="45.459320" lon="1.884790">
			 <ele>674</ele>
			<time>2016-06-08T14:09:45Z</time>
			</trkpt>
		
			<trkpt lat="45.459360" lon="1.884830">
			 <ele>675</ele>
			<time>2016-06-08T14:11:45Z</time>
			</trkpt>
		
			<trkpt lat="45.459450" lon="1.884870">
			 <ele>677</ele>
			<time>2016-06-08T14:13:45Z</time>
			</trkpt>
		
			<trkpt lat="45.459550" lon="1.884880">
			 <ele>678</ele>
			<time>2016-06-08T14:15:45Z</time>
			</trkpt>
		
			<trkpt lat="45.459620" lon="1.884890">
			 <ele>678</ele>
			<time>2016-06-08T14:17:45Z</time>
			</trkpt>
		
			<trkpt lat="45.459680" lon="1.884870">
			 <ele>678</ele>
			<time>2016-06-08T14:19:45Z</time>
			</trkpt>
		
			<trkpt lat="45.459740" lon="1.884830">
			 <ele>678</ele>
			<time>2016-06-08T14:21:45Z</time>
			</trkpt>
		
			<trkpt lat="45.459840" lon="1.884730">
			 <ele>677</ele>
			<time>2016-06-08T14:23:45Z</time>
			</trkpt>
		
			<trkpt lat="45.460040" lon="1.884520">
			 <ele>674</ele>
			<time>2016-06-08T14:25:45Z</time>
			</trkpt>
		
			<trkpt lat="45.460160" lon="1.884420">
			 <ele>673</ele>
			<time>2016-06-08T14:27:45Z</time>
			</trkpt>
		
			<trkpt lat="45.460260" lon="1.884370">
			 <ele>673</ele>
			<time>2016-06-08T14:29:45Z</time>
			</trkpt>
		
			<trkpt lat="45.460350" lon="1.884340">
			 <ele>673</ele>
			<time>2016-06-08T14:31:45Z</time>
			</trkpt>
		
			<trkpt lat="45.460450" lon="1.884340">
			 <ele>673</ele>
			<time>2016-06-08T14:33:45Z</time>
			</trkpt>
		
			<trkpt lat="45.460650" lon="1.884380">
			 <ele>675</ele>
			<time>2016-06-08T14:35:45Z</time>
			</trkpt>
		
			<trkpt lat="45.460860" lon="1.884440">
			 <ele>677</ele>
			<time>2016-06-08T14:37:45Z</time>
			</trkpt>
		
			<trkpt lat="45.460980" lon="1.884510">
			 <ele>678</ele>
			<time>2016-06-08T14:39:45Z</time>
			</trkpt>
		
			<trkpt lat="45.461080" lon="1.884590">
			 <ele>678</ele>
			<time>2016-06-08T14:41:45Z</time>
			</trkpt>
		
			<trkpt lat="45.461150" lon="1.884670">
			 <ele>678</ele>
			<time>2016-06-08T14:43:45Z</time>
			</trkpt>
		
			<trkpt lat="45.461190" lon="1.884730">
			 <ele>679</ele>
			<time>2016-06-08T14:45:45Z</time>
			</trkpt>
		
			<trkpt lat="45.461240" lon="1.884840">
			 <ele>679</ele>
			<time>2016-06-08T14:47:45Z</time>
			</trkpt>
		
			<trkpt lat="45.461270" lon="1.884950">
			 <ele>680</ele>
			<time>2016-06-08T14:49:45Z</time>
			</trkpt>
		
			<trkpt lat="45.461290" lon="1.885050">
			 <ele>681</ele>
			<time>2016-06-08T14:51:45Z</time>
			</trkpt>
		
			<trkpt lat="45.461290" lon="1.885180">
			 <ele>682</ele>
			<time>2016-06-08T14:53:45Z</time>
			</trkpt>
		
			<trkpt lat="45.461280" lon="1.885330">
			 <ele>683</ele>
			<time>2016-06-08T14:55:45Z</time>
			</trkpt>
		
			<trkpt lat="45.461260" lon="1.885460">
			 <ele>685</ele>
			<time>2016-06-08T14:57:45Z</time>
			</trkpt>
		
			<trkpt lat="45.461230" lon="1.885570">
			 <ele>686</ele>
			<time>2016-06-08T14:59:45Z</time>
			</trkpt>
		
			<trkpt lat="45.461130" lon="1.885930">
			 <ele>691</ele>
			<time>2016-06-08T15:01:45Z</time>
			</trkpt>
		
			<trkpt lat="45.461110" lon="1.886030">
			 <ele>691</ele>
			<time>2016-06-08T15:03:45Z</time>
			</trkpt>
		
			<trkpt lat="45.461100" lon="1.886110">
			 <ele>692</ele>
			<time>2016-06-08T15:05:45Z</time>
			</trkpt>
		
			<trkpt lat="45.461100" lon="1.886200">
			 <ele>692</ele>
			<time>2016-06-08T15:07:45Z</time>
			</trkpt>
		
			<trkpt lat="45.461120" lon="1.886330">
			 <ele>691</ele>
			<time>2016-06-08T15:09:45Z</time>
			</trkpt>
		
			<trkpt lat="45.461140" lon="1.886450">
			 <ele>691</ele>
			<time>2016-06-08T15:11:45Z</time>
			</trkpt>
		
			<trkpt lat="45.461210" lon="1.886670">
			 <ele>690</ele>
			<time>2016-06-08T15:13:45Z</time>
			</trkpt>
		
			<trkpt lat="45.461270" lon="1.886860">
			 <ele>689</ele>
			<time>2016-06-08T15:15:45Z</time>
			</trkpt>
		
			<trkpt lat="45.461310" lon="1.887040">
			 <ele>688</ele>
			<time>2016-06-08T15:17:45Z</time>
			</trkpt>
		
			<trkpt lat="45.461320" lon="1.887130">
			 <ele>688</ele>
			<time>2016-06-08T15:19:45Z</time>
			</trkpt>
		
			<trkpt lat="45.461310" lon="1.887260">
			 <ele>688</ele>
			<time>2016-06-08T15:21:45Z</time>
			</trkpt>
		
			<trkpt lat="45.461260" lon="1.887520">
			 <ele>690</ele>
			<time>2016-06-08T15:23:45Z</time>
			</trkpt>
		
			<trkpt lat="45.461030" lon="1.888590">
			 <ele>691</ele>
			<time>2016-06-08T15:25:45Z</time>
			</trkpt>
		
			<trkpt lat="45.460860" lon="1.889340">
			 <ele>691</ele>
			<time>2016-06-08T15:27:45Z</time>
			</trkpt>
		
			<trkpt lat="45.460690" lon="1.889950">
			 <ele>694</ele>
			<time>2016-06-08T15:29:45Z</time>
			</trkpt>
		
			<trkpt lat="45.460670" lon="1.890060">
			 <ele>694</ele>
			<time>2016-06-08T15:31:45Z</time>
			</trkpt>
		
			<trkpt lat="45.460660" lon="1.890160">
			 <ele>695</ele>
			<time>2016-06-08T15:33:45Z</time>
			</trkpt>
		
			<trkpt lat="45.460670" lon="1.890230">
			 <ele>694</ele>
			<time>2016-06-08T15:35:45Z</time>
			</trkpt>
		
			<trkpt lat="45.460690" lon="1.890320">
			 <ele>694</ele>
			<time>2016-06-08T15:37:45Z</time>
			</trkpt>
		
			<trkpt lat="45.460740" lon="1.890380">
			 <ele>693</ele>
			<time>2016-06-08T15:39:45Z</time>
			</trkpt>
		
			<trkpt lat="45.460800" lon="1.890430">
			 <ele>692</ele>
			<time>2016-06-08T15:41:45Z</time>
			</trkpt>
		
			<trkpt lat="45.460860" lon="1.890450">
			 <ele>691</ele>
			<time>2016-06-08T15:43:45Z</time>
			</trkpt>
		
			<trkpt lat="45.460920" lon="1.890440">
			 <ele>691</ele>
			<time>2016-06-08T15:45:45Z</time>
			</trkpt>
		
			<trkpt lat="45.460960" lon="1.890420">
			 <ele>691</ele>
			<time>2016-06-08T15:47:45Z</time>
			</trkpt>
		
			<trkpt lat="45.461010" lon="1.890380">
			 <ele>691</ele>
			<time>2016-06-08T15:49:45Z</time>
			</trkpt>
		
			<trkpt lat="45.461140" lon="1.890280">
			 <ele>691</ele>
			<time>2016-06-08T15:51:45Z</time>
			</trkpt>
		
			<trkpt lat="45.461240" lon="1.890210">
			 <ele>690</ele>
			<time>2016-06-08T15:53:45Z</time>
			</trkpt>
		
			<trkpt lat="45.461320" lon="1.890180">
			 <ele>690</ele>
			<time>2016-06-08T15:55:45Z</time>
			</trkpt>
		
			<trkpt lat="45.461410" lon="1.890170">
			 <ele>690</ele>
			<time>2016-06-08T15:57:45Z</time>
			</trkpt>
		
			<trkpt lat="45.461490" lon="1.890200">
			 <ele>690</ele>
			<time>2016-06-08T15:59:45Z</time>
			</trkpt>
		
			<trkpt lat="45.461540" lon="1.890220">
			 <ele>690</ele>
			<time>2016-06-08T16:01:45Z</time>
			</trkpt>
		
			<trkpt lat="45.461600" lon="1.890290">
			 <ele>691</ele>
			<time>2016-06-08T16:03:45Z</time>
			</trkpt>
		
			<trkpt lat="45.461650" lon="1.890400">
			 <ele>692</ele>
			<time>2016-06-08T16:05:45Z</time>
			</trkpt>
		
			<trkpt lat="45.461700" lon="1.890530">
			 <ele>693</ele>
			<time>2016-06-08T16:07:45Z</time>
			</trkpt>
		
			<trkpt lat="45.461730" lon="1.890680">
			 <ele>694</ele>
			<time>2016-06-08T16:09:45Z</time>
			</trkpt>
		
			<trkpt lat="45.461760" lon="1.890870">
			 <ele>695</ele>
			<time>2016-06-08T16:11:45Z</time>
			</trkpt>
		
			<trkpt lat="45.461790" lon="1.891080">
			 <ele>696</ele>
			<time>2016-06-08T16:13:45Z</time>
			</trkpt>
		
			<trkpt lat="45.461850" lon="1.891460">
			 <ele>698</ele>
			<time>2016-06-08T16:15:45Z</time>
			</trkpt>
		
			<trkpt lat="45.461890" lon="1.891680">
			 <ele>698</ele>
			<time>2016-06-08T16:17:45Z</time>
			</trkpt>
		
			<trkpt lat="45.461920" lon="1.891810">
			 <ele>698</ele>
			<time>2016-06-08T16:19:45Z</time>
			</trkpt>
		
			<trkpt lat="45.461950" lon="1.891910">
			 <ele>698</ele>
			<time>2016-06-08T16:21:45Z</time>
			</trkpt>
		
			<trkpt lat="45.461990" lon="1.891980">
			 <ele>698</ele>
			<time>2016-06-08T16:23:45Z</time>
			</trkpt>
		
			<trkpt lat="45.462020" lon="1.892020">
			 <ele>698</ele>
			<time>2016-06-08T16:25:45Z</time>
			</trkpt>
		
			<trkpt lat="45.462060" lon="1.892070">
			 <ele>698</ele>
			<time>2016-06-08T16:27:45Z</time>
			</trkpt>
		
			<trkpt lat="45.462110" lon="1.892090">
			 <ele>698</ele>
			<time>2016-06-08T16:29:45Z</time>
			</trkpt>
		
			<trkpt lat="45.462200" lon="1.892100">
			 <ele>698</ele>
			<time>2016-06-08T16:31:45Z</time>
			</trkpt>
		
			<trkpt lat="45.462350" lon="1.892100">
			 <ele>697</ele>
			<time>2016-06-08T16:33:45Z</time>
			</trkpt>
		
			<trkpt lat="45.462450" lon="1.892110">
			 <ele>696</ele>
			<time>2016-06-08T16:35:45Z</time>
			</trkpt>
		
			<trkpt lat="45.462530" lon="1.892130">
			 <ele>696</ele>
			<time>2016-06-08T16:37:45Z</time>
			</trkpt>
		
			<trkpt lat="45.462620" lon="1.892170">
			 <ele>697</ele>
			<time>2016-06-08T16:39:45Z</time>
			</trkpt>
		
			<trkpt lat="45.462730" lon="1.892230">
			 <ele>698</ele>
			<time>2016-06-08T16:41:45Z</time>
			</trkpt>
		
			<trkpt lat="45.462940" lon="1.892390">
			 <ele>700</ele>
			<time>2016-06-08T16:43:45Z</time>
			</trkpt>
		
			<trkpt lat="45.463080" lon="1.892480">
			 <ele>701</ele>
			<time>2016-06-08T16:45:45Z</time>
			</trkpt>
		
			<trkpt lat="45.463170" lon="1.892520">
			 <ele>701</ele>
			<time>2016-06-08T16:47:45Z</time>
			</trkpt>
		
			<trkpt lat="45.463190" lon="1.892520">
			 <ele>701</ele>
			<time>2016-06-08T16:49:45Z</time>
			</trkpt>
		
			<trkpt lat="45.463270" lon="1.892540">
			 <ele>701</ele>
			<time>2016-06-08T16:51:45Z</time>
			</trkpt>
		
			<trkpt lat="45.463350" lon="1.892540">
			 <ele>701</ele>
			<time>2016-06-08T16:53:45Z</time>
			</trkpt>
		
			<trkpt lat="45.463420" lon="1.892520">
			 <ele>701</ele>
			<time>2016-06-08T16:55:45Z</time>
			</trkpt>
		
			<trkpt lat="45.463570" lon="1.892470">
			 <ele>700</ele>
			<time>2016-06-08T16:57:45Z</time>
			</trkpt>
		
			<trkpt lat="45.463900" lon="1.892360">
			 <ele>698</ele>
			<time>2016-06-08T16:59:45Z</time>
			</trkpt>
		
			<trkpt lat="45.464760" lon="1.892100">
			 <ele>694</ele>
			<time>2016-06-08T17:01:45Z</time>
			</trkpt>
		
			<trkpt lat="45.465640" lon="1.891850">
			 <ele>694</ele>
			<time>2016-06-08T17:03:45Z</time>
			</trkpt>
		
			<trkpt lat="45.466190" lon="1.891690">
			 <ele>695</ele>
			<time>2016-06-08T17:05:45Z</time>
			</trkpt>
		
			<trkpt lat="45.466340" lon="1.891640">
			 <ele>696</ele>
			<time>2016-06-08T17:07:45Z</time>
			</trkpt>
		
			<trkpt lat="45.466460" lon="1.891590">
			 <ele>696</ele>
			<time>2016-06-08T17:09:45Z</time>
			</trkpt>
		
			<trkpt lat="45.466600" lon="1.891520">
			 <ele>696</ele>
			<time>2016-06-08T17:11:45Z</time>
			</trkpt>
		
			<trkpt lat="45.466780" lon="1.891420">
			 <ele>697</ele>
			<time>2016-06-08T17:13:45Z</time>
			</trkpt>
		
			<trkpt lat="45.467140" lon="1.891220">
			 <ele>701</ele>
			<time>2016-06-08T17:15:45Z</time>
			</trkpt>
		
			<trkpt lat="45.468060" lon="1.890720">
			 <ele>708</ele>
			<time>2016-06-08T17:17:45Z</time>
			</trkpt>
		
			<trkpt lat="45.468190" lon="1.890640">
			 <ele>708</ele>
			<time>2016-06-08T17:19:45Z</time>
			</trkpt>
		
			<trkpt lat="45.468330" lon="1.890550">
			 <ele>709</ele>
			<time>2016-06-08T17:21:45Z</time>
			</trkpt>
		
			<trkpt lat="45.468490" lon="1.890400">
			 <ele>710</ele>
			<time>2016-06-08T17:23:45Z</time>
			</trkpt>
		
			<trkpt lat="45.468600" lon="1.890320">
			 <ele>710</ele>
			<time>2016-06-08T17:25:45Z</time>
			</trkpt>
		
			<trkpt lat="45.468960" lon="1.890110">
			 <ele>714</ele>
			<time>2016-06-08T17:27:45Z</time>
			</trkpt>
		
			<trkpt lat="45.469330" lon="1.889900">
			 <ele>715</ele>
			<time>2016-06-08T17:29:45Z</time>
			</trkpt>
		
			<trkpt lat="45.469690" lon="1.889710">
			 <ele>716</ele>
			<time>2016-06-08T17:31:45Z</time>
			</trkpt>
		
			<trkpt lat="45.470310" lon="1.889410">
			 <ele>719</ele>
			<time>2016-06-08T17:33:45Z</time>
			</trkpt>
		
			<trkpt lat="45.470510" lon="1.889320">
			 <ele>720</ele>
			<time>2016-06-08T17:35:45Z</time>
			</trkpt>
		
			<trkpt lat="45.470600" lon="1.889300">
			 <ele>720</ele>
			<time>2016-06-08T17:37:45Z</time>
			</trkpt>
		
			<trkpt lat="45.470730" lon="1.889300">
			 <ele>721</ele>
			<time>2016-06-08T17:39:45Z</time>
			</trkpt>
		
			<trkpt lat="45.470930" lon="1.889300">
			 <ele>723</ele>
			<time>2016-06-08T17:41:45Z</time>
			</trkpt>
		
			<trkpt lat="45.471170" lon="1.889320">
			 <ele>726</ele>
			<time>2016-06-08T17:43:45Z</time>
			</trkpt>
		
			<trkpt lat="45.471400" lon="1.889320">
			 <ele>729</ele>
			<time>2016-06-08T17:45:45Z</time>
			</trkpt>
		
			<trkpt lat="45.471580" lon="1.889280">
			 <ele>730</ele>
			<time>2016-06-08T17:47:45Z</time>
			</trkpt>
		
			<trkpt lat="45.471700" lon="1.889170">
			 <ele>731</ele>
			<time>2016-06-08T17:49:45Z</time>
			</trkpt>
		
			<trkpt lat="45.471780" lon="1.889080">
			 <ele>731</ele>
			<time>2016-06-08T17:51:45Z</time>
			</trkpt>
		
			<trkpt lat="45.471900" lon="1.888840">
			 <ele>730</ele>
			<time>2016-06-08T17:53:45Z</time>
			</trkpt>
		
			<trkpt lat="45.471990" lon="1.888650">
			 <ele>729</ele>
			<time>2016-06-08T17:55:45Z</time>
			</trkpt>
		
			<trkpt lat="45.472140" lon="1.888420">
			 <ele>729</ele>
			<time>2016-06-08T17:57:45Z</time>
			</trkpt>
		
			<trkpt lat="45.472260" lon="1.888270">
			 <ele>730</ele>
			<time>2016-06-08T17:59:45Z</time>
			</trkpt>
		
			<trkpt lat="45.472400" lon="1.888090">
			 <ele>731</ele>
			<time>2016-06-08T18:01:45Z</time>
			</trkpt>
		
			<trkpt lat="45.472440" lon="1.888050">
			 <ele>732</ele>
			<time>2016-06-08T18:03:45Z</time>
			</trkpt>
		
			<trkpt lat="45.472470" lon="1.888010">
			 <ele>732</ele>
			<time>2016-06-08T18:05:45Z</time>
			</trkpt>
		
			<trkpt lat="45.472700" lon="1.887820">
			 <ele>736</ele>
			<time>2016-06-08T18:07:45Z</time>
			</trkpt>
		
			<trkpt lat="45.472780" lon="1.887750">
			 <ele>737</ele>
			<time>2016-06-08T18:09:45Z</time>
			</trkpt>
		
			<trkpt lat="45.472790" lon="1.887740">
			 <ele>737</ele>
			<time>2016-06-08T18:11:45Z</time>
			</trkpt>
		
			<trkpt lat="45.472910" lon="1.887630">
			 <ele>739</ele>
			<time>2016-06-08T18:13:45Z</time>
			</trkpt>
		
			<trkpt lat="45.472980" lon="1.887480">
			 <ele>739</ele>
			<time>2016-06-08T18:15:45Z</time>
			</trkpt>
		
			<trkpt lat="45.473000" lon="1.887340">
			 <ele>739</ele>
			<time>2016-06-08T18:17:45Z</time>
			</trkpt>
		
			<trkpt lat="45.473010" lon="1.887180">
			 <ele>738</ele>
			<time>2016-06-08T18:19:45Z</time>
			</trkpt>
		
			<trkpt lat="45.473030" lon="1.886970">
			 <ele>737</ele>
			<time>2016-06-08T18:21:45Z</time>
			</trkpt>
		
			<trkpt lat="45.473050" lon="1.886850">
			 <ele>737</ele>
			<time>2016-06-08T18:23:45Z</time>
			</trkpt>
		
			<trkpt lat="45.473120" lon="1.886650">
			 <ele>738</ele>
			<time>2016-06-08T18:25:45Z</time>
			</trkpt>
		
			<trkpt lat="45.473120" lon="1.886640">
			 <ele>738</ele>
			<time>2016-06-08T18:27:45Z</time>
			</trkpt>
		
			<trkpt lat="45.473230" lon="1.886380">
			 <ele>738</ele>
			<time>2016-06-08T18:29:45Z</time>
			</trkpt>
		
			<trkpt lat="45.473320" lon="1.886180">
			 <ele>738</ele>
			<time>2016-06-08T18:31:45Z</time>
			</trkpt>
		
			<trkpt lat="45.473450" lon="1.885980">
			 <ele>738</ele>
			<time>2016-06-08T18:33:45Z</time>
			</trkpt>
		
			<trkpt lat="45.473580" lon="1.885890">
			 <ele>739</ele>
			<time>2016-06-08T18:35:45Z</time>
			</trkpt>
		
			<trkpt lat="45.473850" lon="1.885720">
			 <ele>740</ele>
			<time>2016-06-08T18:37:45Z</time>
			</trkpt>
		
			<trkpt lat="45.474080" lon="1.885620">
			 <ele>741</ele>
			<time>2016-06-08T18:39:45Z</time>
			</trkpt>
		
			<trkpt lat="45.474330" lon="1.885570">
			 <ele>742</ele>
			<time>2016-06-08T18:41:45Z</time>
			</trkpt>
		
			<trkpt lat="45.474480" lon="1.885530">
			 <ele>742</ele>
			<time>2016-06-08T18:43:45Z</time>
			</trkpt>
		
			<trkpt lat="45.474710" lon="1.885470">
			 <ele>742</ele>
			<time>2016-06-08T18:45:45Z</time>
			</trkpt>
		
			<trkpt lat="45.474800" lon="1.885460">
			 <ele>742</ele>
			<time>2016-06-08T18:47:45Z</time>
			</trkpt>
		
			<trkpt lat="45.474900" lon="1.885470">
			 <ele>743</ele>
			<time>2016-06-08T18:49:45Z</time>
			</trkpt>
		
			<trkpt lat="45.475000" lon="1.885520">
			 <ele>744</ele>
			<time>2016-06-08T18:51:45Z</time>
			</trkpt>
		
			<trkpt lat="45.475070" lon="1.885580">
			 <ele>744</ele>
			<time>2016-06-08T18:53:45Z</time>
			</trkpt>
		
			<trkpt lat="45.475160" lon="1.885680">
			 <ele>744</ele>
			<time>2016-06-08T18:55:45Z</time>
			</trkpt>
		
			<trkpt lat="45.475240" lon="1.885810">
			 <ele>745</ele>
			<time>2016-06-08T18:57:45Z</time>
			</trkpt>
		
			<trkpt lat="45.475300" lon="1.885920">
			 <ele>745</ele>
			<time>2016-06-08T18:59:45Z</time>
			</trkpt>
		
			<trkpt lat="45.475320" lon="1.886060">
			 <ele>746</ele>
			<time>2016-06-08T19:01:45Z</time>
			</trkpt>
		
			<trkpt lat="45.475350" lon="1.886210">
			 <ele>748</ele>
			<time>2016-06-08T19:03:45Z</time>
			</trkpt>
		
			<trkpt lat="45.475360" lon="1.886420">
			 <ele>751</ele>
			<time>2016-06-08T19:05:45Z</time>
			</trkpt>
		
			<trkpt lat="45.475380" lon="1.886610">
			 <ele>753</ele>
			<time>2016-06-08T19:07:45Z</time>
			</trkpt>
		
			<trkpt lat="45.475420" lon="1.886730">
			 <ele>754</ele>
			<time>2016-06-08T19:09:45Z</time>
			</trkpt>
		
			<trkpt lat="45.475460" lon="1.886840">
			 <ele>755</ele>
			<time>2016-06-08T19:11:45Z</time>
			</trkpt>
		
			<trkpt lat="45.475520" lon="1.886920">
			 <ele>756</ele>
			<time>2016-06-08T19:13:45Z</time>
			</trkpt>
		
			<trkpt lat="45.475580" lon="1.886990">
			 <ele>757</ele>
			<time>2016-06-08T19:15:45Z</time>
			</trkpt>
		
			<trkpt lat="45.475690" lon="1.887040">
			 <ele>756</ele>
			<time>2016-06-08T19:17:45Z</time>
			</trkpt>
		
			<trkpt lat="45.475780" lon="1.887050">
			 <ele>756</ele>
			<time>2016-06-08T19:19:45Z</time>
			</trkpt>
		
			<trkpt lat="45.475870" lon="1.887050">
			 <ele>756</ele>
			<time>2016-06-08T19:21:45Z</time>
			</trkpt>
		
			<trkpt lat="45.475930" lon="1.887030">
			 <ele>756</ele>
			<time>2016-06-08T19:23:45Z</time>
			</trkpt>
		
			<trkpt lat="45.476010" lon="1.886980">
			 <ele>755</ele>
			<time>2016-06-08T19:25:45Z</time>
			</trkpt>
		
			<trkpt lat="45.476090" lon="1.886910">
			 <ele>754</ele>
			<time>2016-06-08T19:27:45Z</time>
			</trkpt>
		
			<trkpt lat="45.476160" lon="1.886870">
			 <ele>754</ele>
			<time>2016-06-08T19:29:45Z</time>
			</trkpt>
		
			<trkpt lat="45.476240" lon="1.886830">
			 <ele>754</ele>
			<time>2016-06-08T19:31:45Z</time>
			</trkpt>
		
			<trkpt lat="45.476300" lon="1.886830">
			 <ele>754</ele>
			<time>2016-06-08T19:33:45Z</time>
			</trkpt>
		
			<trkpt lat="45.476380" lon="1.886830">
			 <ele>755</ele>
			<time>2016-06-08T19:35:45Z</time>
			</trkpt>
		
			<trkpt lat="45.476480" lon="1.886840">
			 <ele>755</ele>
			<time>2016-06-08T19:37:45Z</time>
			</trkpt>
		
			<trkpt lat="45.476590" lon="1.886820">
			 <ele>756</ele>
			<time>2016-06-08T19:39:45Z</time>
			</trkpt>
		
			<trkpt lat="45.476700" lon="1.886800">
			 <ele>757</ele>
			<time>2016-06-08T19:41:45Z</time>
			</trkpt>
		
			<trkpt lat="45.476830" lon="1.886750">
			 <ele>758</ele>
			<time>2016-06-08T19:43:45Z</time>
			</trkpt>
		
			<trkpt lat="45.476970" lon="1.886630">
			 <ele>758</ele>
			<time>2016-06-08T19:45:45Z</time>
			</trkpt>
		
			<trkpt lat="45.477070" lon="1.886530">
			 <ele>759</ele>
			<time>2016-06-08T19:47:45Z</time>
			</trkpt>
		
			<trkpt lat="45.477120" lon="1.886470">
			 <ele>760</ele>
			<time>2016-06-08T19:49:45Z</time>
			</trkpt>
		
			<trkpt lat="45.477180" lon="1.886380">
			 <ele>760</ele>
			<time>2016-06-08T19:51:45Z</time>
			</trkpt>
		
			<trkpt lat="45.477250" lon="1.886220">
			 <ele>760</ele>
			<time>2016-06-08T19:53:45Z</time>
			</trkpt>
		
			<trkpt lat="45.477270" lon="1.886100">
			 <ele>760</ele>
			<time>2016-06-08T19:55:45Z</time>
			</trkpt>
		
			<trkpt lat="45.477280" lon="1.885920">
			 <ele>759</ele>
			<time>2016-06-08T19:57:45Z</time>
			</trkpt>
		
			<trkpt lat="45.477280" lon="1.885780">
			 <ele>759</ele>
			<time>2016-06-08T19:59:45Z</time>
			</trkpt>
		
			<trkpt lat="45.477260" lon="1.885670">
			 <ele>758</ele>
			<time>2016-06-08T20:01:45Z</time>
			</trkpt>
		
			<trkpt lat="45.477260" lon="1.885550">
			 <ele>757</ele>
			<time>2016-06-08T20:03:45Z</time>
			</trkpt>
		
			<trkpt lat="45.477270" lon="1.885450">
			 <ele>757</ele>
			<time>2016-06-08T20:05:45Z</time>
			</trkpt>
		
			<trkpt lat="45.477310" lon="1.885340">
			 <ele>758</ele>
			<time>2016-06-08T20:07:45Z</time>
			</trkpt>
		
			<trkpt lat="45.477440" lon="1.885080">
			 <ele>760</ele>
			<time>2016-06-08T20:09:45Z</time>
			</trkpt>
		
			<trkpt lat="45.477610" lon="1.884770">
			 <ele>761</ele>
			<time>2016-06-08T20:11:45Z</time>
			</trkpt>
		
			<trkpt lat="45.477730" lon="1.884590">
			 <ele>762</ele>
			<time>2016-06-08T20:13:45Z</time>
			</trkpt>
		
			<trkpt lat="45.477860" lon="1.884450">
			 <ele>764</ele>
			<time>2016-06-08T20:15:45Z</time>
			</trkpt>
		
			<trkpt lat="45.478060" lon="1.884270">
			 <ele>768</ele>
			<time>2016-06-08T20:17:45Z</time>
			</trkpt>
		
			<trkpt lat="45.478180" lon="1.884140">
			 <ele>770</ele>
			<time>2016-06-08T20:19:45Z</time>
			</trkpt>
		
			<trkpt lat="45.478240" lon="1.884040">
			 <ele>771</ele>
			<time>2016-06-08T20:21:45Z</time>
			</trkpt>
		
			<trkpt lat="45.478290" lon="1.883900">
			 <ele>771</ele>
			<time>2016-06-08T20:23:45Z</time>
			</trkpt>
		
			<trkpt lat="45.478330" lon="1.883740">
			 <ele>770</ele>
			<time>2016-06-08T20:25:45Z</time>
			</trkpt>
		
			<trkpt lat="45.478370" lon="1.883550">
			 <ele>769</ele>
			<time>2016-06-08T20:27:45Z</time>
			</trkpt>
		
			<trkpt lat="45.478460" lon="1.883250">
			 <ele>769</ele>
			<time>2016-06-08T20:29:45Z</time>
			</trkpt>
		
			<trkpt lat="45.478540" lon="1.883100">
			 <ele>771</ele>
			<time>2016-06-08T20:31:45Z</time>
			</trkpt>
		
			<trkpt lat="45.478630" lon="1.882960">
			 <ele>772</ele>
			<time>2016-06-08T20:33:45Z</time>
			</trkpt>
		
			<trkpt lat="45.478790" lon="1.882760">
			 <ele>774</ele>
			<time>2016-06-08T20:35:45Z</time>
			</trkpt>
		
			<trkpt lat="45.478950" lon="1.882590">
			 <ele>776</ele>
			<time>2016-06-08T20:37:45Z</time>
			</trkpt>
		
			<trkpt lat="45.479030" lon="1.882500">
			 <ele>777</ele>
			<time>2016-06-08T20:39:45Z</time>
			</trkpt>
		
			<trkpt lat="45.479050" lon="1.882440">
			 <ele>777</ele>
			<time>2016-06-08T20:41:45Z</time>
			</trkpt>
		
			<trkpt lat="45.479070" lon="1.882380">
			 <ele>777</ele>
			<time>2016-06-08T20:43:45Z</time>
			</trkpt>
		
			<trkpt lat="45.479070" lon="1.882280">
			 <ele>777</ele>
			<time>2016-06-08T20:45:45Z</time>
			</trkpt>
		
			<trkpt lat="45.479070" lon="1.882170">
			 <ele>776</ele>
			<time>2016-06-08T20:47:45Z</time>
			</trkpt>
		
			<trkpt lat="45.479060" lon="1.882050">
			 <ele>775</ele>
			<time>2016-06-08T20:49:45Z</time>
			</trkpt>
		
			<trkpt lat="45.479050" lon="1.881960">
			 <ele>775</ele>
			<time>2016-06-08T20:51:45Z</time>
			</trkpt>
		
			<trkpt lat="45.479040" lon="1.881900">
			 <ele>774</ele>
			<time>2016-06-08T20:53:45Z</time>
			</trkpt>
		
			<trkpt lat="45.479030" lon="1.881770">
			 <ele>773</ele>
			<time>2016-06-08T20:55:45Z</time>
			</trkpt>
		
			<trkpt lat="45.479020" lon="1.881700">
			 <ele>773</ele>
			<time>2016-06-08T20:57:45Z</time>
			</trkpt>
		
			<trkpt lat="45.479030" lon="1.881610">
			 <ele>772</ele>
			<time>2016-06-08T20:59:45Z</time>
			</trkpt>
		
			<trkpt lat="45.479070" lon="1.881500">
			 <ele>771</ele>
			<time>2016-06-08T21:01:45Z</time>
			</trkpt>
		
			<trkpt lat="45.479130" lon="1.881420">
			 <ele>771</ele>
			<time>2016-06-08T21:03:45Z</time>
			</trkpt>
		
			<trkpt lat="45.479160" lon="1.881390">
			 <ele>772</ele>
			<time>2016-06-08T21:05:45Z</time>
			</trkpt>
		
			<trkpt lat="45.479200" lon="1.881360">
			 <ele>772</ele>
			<time>2016-06-08T21:07:45Z</time>
			</trkpt>
		
			<trkpt lat="45.479290" lon="1.881340">
			 <ele>773</ele>
			<time>2016-06-08T21:09:45Z</time>
			</trkpt>
		
			<trkpt lat="45.479390" lon="1.881320">
			 <ele>774</ele>
			<time>2016-06-08T21:11:45Z</time>
			</trkpt>
		
			<trkpt lat="45.479480" lon="1.881320">
			 <ele>776</ele>
			<time>2016-06-08T21:13:45Z</time>
			</trkpt>
		
			<trkpt lat="45.479680" lon="1.881300">
			 <ele>779</ele>
			<time>2016-06-08T21:15:45Z</time>
			</trkpt>
		
			<trkpt lat="45.479780" lon="1.881260">
			 <ele>780</ele>
			<time>2016-06-08T21:17:45Z</time>
			</trkpt>
		
			<trkpt lat="45.479860" lon="1.881220">
			 <ele>780</ele>
			<time>2016-06-08T21:19:45Z</time>
			</trkpt>
		
			<trkpt lat="45.479960" lon="1.881150">
			 <ele>781</ele>
			<time>2016-06-08T21:21:45Z</time>
			</trkpt>
		
			<trkpt lat="45.480070" lon="1.881070">
			 <ele>780</ele>
			<time>2016-06-08T21:23:45Z</time>
			</trkpt>
		
			<trkpt lat="45.480140" lon="1.881030">
			 <ele>780</ele>
			<time>2016-06-08T21:25:45Z</time>
			</trkpt>
		
			<trkpt lat="45.480280" lon="1.880970">
			 <ele>780</ele>
			<time>2016-06-08T21:27:45Z</time>
			</trkpt>
		
			<trkpt lat="45.480420" lon="1.880920">
			 <ele>780</ele>
			<time>2016-06-08T21:29:45Z</time>
			</trkpt>
		
			<trkpt lat="45.480520" lon="1.880910">
			 <ele>780</ele>
			<time>2016-06-08T21:31:45Z</time>
			</trkpt>
		
			<trkpt lat="45.480610" lon="1.880920">
			 <ele>781</ele>
			<time>2016-06-08T21:33:45Z</time>
			</trkpt>
		
			<trkpt lat="45.480690" lon="1.880930">
			 <ele>781</ele>
			<time>2016-06-08T21:35:45Z</time>
			</trkpt>
		
			<trkpt lat="45.480780" lon="1.880970">
			 <ele>783</ele>
			<time>2016-06-08T21:37:45Z</time>
			</trkpt>
		
			<trkpt lat="45.481000" lon="1.881080">
			 <ele>785</ele>
			<time>2016-06-08T21:39:45Z</time>
			</trkpt>
		
			<trkpt lat="45.481260" lon="1.881200">
			 <ele>788</ele>
			<time>2016-06-08T21:41:45Z</time>
			</trkpt>
		
			<trkpt lat="45.481560" lon="1.881290">
			 <ele>790</ele>
			<time>2016-06-08T21:43:45Z</time>
			</trkpt>
		
			<trkpt lat="45.482040" lon="1.881350">
			 <ele>792</ele>
			<time>2016-06-08T21:45:45Z</time>
			</trkpt>
		
			<trkpt lat="45.482340" lon="1.881360">
			 <ele>792</ele>
			<time>2016-06-08T21:47:45Z</time>
			</trkpt>
		
			<trkpt lat="45.482570" lon="1.881320">
			 <ele>792</ele>
			<time>2016-06-08T21:49:45Z</time>
			</trkpt>
		
			<trkpt lat="45.482710" lon="1.881250">
			 <ele>793</ele>
			<time>2016-06-08T21:51:45Z</time>
			</trkpt>
		
			<trkpt lat="45.482880" lon="1.881140">
			 <ele>793</ele>
			<time>2016-06-08T21:53:45Z</time>
			</trkpt>
		
			<trkpt lat="45.483100" lon="1.880920">
			 <ele>792</ele>
			<time>2016-06-08T21:55:45Z</time>
			</trkpt>
		
			<trkpt lat="45.483410" lon="1.880640">
			 <ele>791</ele>
			<time>2016-06-08T21:57:45Z</time>
			</trkpt>
		
			<trkpt lat="45.483630" lon="1.880520">
			 <ele>791</ele>
			<time>2016-06-08T21:59:45Z</time>
			</trkpt>
		
			<trkpt lat="45.483730" lon="1.880470">
			 <ele>792</ele>
			<time>2016-06-08T22:01:45Z</time>
			</trkpt>
		
			<trkpt lat="45.484300" lon="1.880430">
			 <ele>797</ele>
			<time>2016-06-08T22:03:45Z</time>
			</trkpt>
		
			<trkpt lat="45.484640" lon="1.880420">
			 <ele>798</ele>
			<time>2016-06-08T22:05:45Z</time>
			</trkpt>
		
			<trkpt lat="45.485030" lon="1.880400">
			 <ele>800</ele>
			<time>2016-06-08T22:07:45Z</time>
			</trkpt>
		
			<trkpt lat="45.485320" lon="1.880390">
			 <ele>801</ele>
			<time>2016-06-08T22:09:45Z</time>
			</trkpt>
		
			<trkpt lat="45.485550" lon="1.880370">
			 <ele>801</ele>
			<time>2016-06-08T22:11:45Z</time>
			</trkpt>
		
			<trkpt lat="45.485610" lon="1.880370">
			 <ele>801</ele>
			<time>2016-06-08T22:13:45Z</time>
			</trkpt>
		
			<trkpt lat="45.485890" lon="1.880520">
			 <ele>805</ele>
			<time>2016-06-08T22:15:45Z</time>
			</trkpt>
		
			<trkpt lat="45.486190" lon="1.880700">
			 <ele>808</ele>
			<time>2016-06-08T22:17:45Z</time>
			</trkpt>
		
			<trkpt lat="45.486340" lon="1.880810">
			 <ele>811</ele>
			<time>2016-06-08T22:19:45Z</time>
			</trkpt>
		
			<trkpt lat="45.486450" lon="1.880840">
			 <ele>811</ele>
			<time>2016-06-08T22:21:45Z</time>
			</trkpt>
		
			<trkpt lat="45.486610" lon="1.880830">
			 <ele>811</ele>
			<time>2016-06-08T22:23:45Z</time>
			</trkpt>
		
			<trkpt lat="45.486700" lon="1.880790">
			 <ele>810</ele>
			<time>2016-06-08T22:25:45Z</time>
			</trkpt>
		
			<trkpt lat="45.487000" lon="1.880630">
			 <ele>812</ele>
			<time>2016-06-08T22:27:45Z</time>
			</trkpt>
		
			<trkpt lat="45.487310" lon="1.880460">
			 <ele>814</ele>
			<time>2016-06-08T22:29:45Z</time>
			</trkpt>
		
			<trkpt lat="45.487830" lon="1.880100">
			 <ele>816</ele>
			<time>2016-06-08T22:31:45Z</time>
			</trkpt>
		
			<trkpt lat="45.488090" lon="1.879820">
			 <ele>817</ele>
			<time>2016-06-08T22:33:45Z</time>
			</trkpt>
		
			<trkpt lat="45.488260" lon="1.879630">
			 <ele>817</ele>
			<time>2016-06-08T22:35:45Z</time>
			</trkpt>
		
			<trkpt lat="45.488380" lon="1.879400">
			 <ele>817</ele>
			<time>2016-06-08T22:37:45Z</time>
			</trkpt>
		
			<trkpt lat="45.488530" lon="1.879080">
			 <ele>816</ele>
			<time>2016-06-08T22:39:45Z</time>
			</trkpt>
		
			<trkpt lat="45.488670" lon="1.878820">
			 <ele>817</ele>
			<time>2016-06-08T22:41:45Z</time>
			</trkpt>
		
			<trkpt lat="45.488850" lon="1.878480">
			 <ele>818</ele>
			<time>2016-06-08T22:43:45Z</time>
			</trkpt>
		
			<trkpt lat="45.489060" lon="1.877960">
			 <ele>816</ele>
			<time>2016-06-08T22:45:45Z</time>
			</trkpt>
		
			<trkpt lat="45.489180" lon="1.877780">
			 <ele>815</ele>
			<time>2016-06-08T22:47:45Z</time>
			</trkpt>
		
			<trkpt lat="45.489280" lon="1.877700">
			 <ele>815</ele>
			<time>2016-06-08T22:49:45Z</time>
			</trkpt>
		
			<trkpt lat="45.489430" lon="1.877590">
			 <ele>815</ele>
			<time>2016-06-08T22:51:45Z</time>
			</trkpt>
		
			<trkpt lat="45.489620" lon="1.877520">
			 <ele>817</ele>
			<time>2016-06-08T22:53:45Z</time>
			</trkpt>
		
			<trkpt lat="45.489820" lon="1.877450">
			 <ele>818</ele>
			<time>2016-06-08T22:55:45Z</time>
			</trkpt>
		
			<trkpt lat="45.490040" lon="1.877400">
			 <ele>821</ele>
			<time>2016-06-08T22:57:45Z</time>
			</trkpt>
		
			<trkpt lat="45.490180" lon="1.877370">
			 <ele>822</ele>
			<time>2016-06-08T22:59:45Z</time>
			</trkpt>
		
			<trkpt lat="45.490300" lon="1.877340">
			 <ele>823</ele>
			<time>2016-06-08T23:01:45Z</time>
			</trkpt>
		
			<trkpt lat="45.490420" lon="1.877300">
			 <ele>824</ele>
			<time>2016-06-08T23:03:45Z</time>
			</trkpt>
		
			<trkpt lat="45.490550" lon="1.877220">
			 <ele>824</ele>
			<time>2016-06-08T23:05:45Z</time>
			</trkpt>
		
			<trkpt lat="45.490740" lon="1.877080">
			 <ele>825</ele>
			<time>2016-06-08T23:07:45Z</time>
			</trkpt>
		
			<trkpt lat="45.491090" lon="1.876820">
			 <ele>826</ele>
			<time>2016-06-08T23:09:45Z</time>
			</trkpt>
		
			<trkpt lat="45.491400" lon="1.876630">
			 <ele>828</ele>
			<time>2016-06-08T23:11:45Z</time>
			</trkpt>
		
			<trkpt lat="45.491820" lon="1.876360">
			 <ele>829</ele>
			<time>2016-06-08T23:13:45Z</time>
			</trkpt>
		
			<trkpt lat="45.492080" lon="1.876210">
			 <ele>830</ele>
			<time>2016-06-08T23:15:45Z</time>
			</trkpt>
		
			<trkpt lat="45.492240" lon="1.876040">
			 <ele>831</ele>
			<time>2016-06-08T23:17:45Z</time>
			</trkpt>
		
			<trkpt lat="45.492320" lon="1.875950">
			 <ele>831</ele>
			<time>2016-06-08T23:19:45Z</time>
			</trkpt>
		
			<trkpt lat="45.492350" lon="1.875920">
			 <ele>831</ele>
			<time>2016-06-08T23:21:45Z</time>
			</trkpt>
		
			<trkpt lat="45.492400" lon="1.875830">
			 <ele>831</ele>
			<time>2016-06-08T23:23:45Z</time>
			</trkpt>
		
			<trkpt lat="45.492430" lon="1.875740">
			 <ele>831</ele>
			<time>2016-06-08T23:25:45Z</time>
			</trkpt>
		
			<trkpt lat="45.492480" lon="1.875620">
			 <ele>830</ele>
			<time>2016-06-08T23:27:45Z</time>
			</trkpt>
		
			<trkpt lat="45.492550" lon="1.875350">
			 <ele>829</ele>
			<time>2016-06-08T23:29:45Z</time>
			</trkpt>
		
			<trkpt lat="45.492600" lon="1.875230">
			 <ele>828</ele>
			<time>2016-06-08T23:31:45Z</time>
			</trkpt>
		
			<trkpt lat="45.492660" lon="1.875140">
			 <ele>827</ele>
			<time>2016-06-08T23:33:45Z</time>
			</trkpt>
		
			<trkpt lat="45.492710" lon="1.875090">
			 <ele>827</ele>
			<time>2016-06-08T23:35:45Z</time>
			</trkpt>
		
			<trkpt lat="45.492770" lon="1.875070">
			 <ele>827</ele>
			<time>2016-06-08T23:37:45Z</time>
			</trkpt>
		
			<trkpt lat="45.492880" lon="1.875030">
			 <ele>826</ele>
			<time>2016-06-08T23:39:45Z</time>
			</trkpt>
		
			<trkpt lat="45.493120" lon="1.874970">
			 <ele>826</ele>
			<time>2016-06-08T23:41:45Z</time>
			</trkpt>
		
			<trkpt lat="45.493320" lon="1.874930">
			 <ele>825</ele>
			<time>2016-06-08T23:43:45Z</time>
			</trkpt>
		
			<trkpt lat="45.493420" lon="1.874940">
			 <ele>825</ele>
			<time>2016-06-08T23:45:45Z</time>
			</trkpt>
		
			<trkpt lat="45.493500" lon="1.874950">
			 <ele>825</ele>
			<time>2016-06-08T23:47:45Z</time>
			</trkpt>
		
			<trkpt lat="45.493560" lon="1.874970">
			 <ele>825</ele>
			<time>2016-06-08T23:49:45Z</time>
			</trkpt>
		
			<trkpt lat="45.493620" lon="1.875010">
			 <ele>825</ele>
			<time>2016-06-08T23:51:45Z</time>
			</trkpt>
		
			<trkpt lat="45.493660" lon="1.875050">
			 <ele>825</ele>
			<time>2016-06-08T23:53:45Z</time>
			</trkpt>
		
			<trkpt lat="45.493780" lon="1.875180">
			 <ele>826</ele>
			<time>2016-06-08T23:55:45Z</time>
			</trkpt>
		
			<trkpt lat="45.494060" lon="1.875550">
			 <ele>830</ele>
			<time>2016-06-08T23:57:45Z</time>
			</trkpt>
		
			<trkpt lat="45.494300" lon="1.875840">
			 <ele>835</ele>
			<time>2016-06-08T23:59:45Z</time>
			</trkpt>
		
			<trkpt lat="45.494520" lon="1.876140">
			 <ele>836</ele>
			<time>2016-06-09T00:01:45Z</time>
			</trkpt>
		
			<trkpt lat="45.494650" lon="1.876320">
			 <ele>837</ele>
			<time>2016-06-09T00:03:45Z</time>
			</trkpt>
		
			<trkpt lat="45.494730" lon="1.876440">
			 <ele>837</ele>
			<time>2016-06-09T00:05:45Z</time>
			</trkpt>
		
			<trkpt lat="45.494830" lon="1.876650">
			 <ele>837</ele>
			<time>2016-06-09T00:07:45Z</time>
			</trkpt>
		
			<trkpt lat="45.495050" lon="1.877060">
			 <ele>834</ele>
			<time>2016-06-09T00:09:45Z</time>
			</trkpt>
		
			<trkpt lat="45.495270" lon="1.877480">
			 <ele>833</ele>
			<time>2016-06-09T00:11:45Z</time>
			</trkpt>
		
			<trkpt lat="45.495380" lon="1.877690">
			 <ele>832</ele>
			<time>2016-06-09T00:13:45Z</time>
			</trkpt>
		
			<trkpt lat="45.495420" lon="1.877740">
			 <ele>832</ele>
			<time>2016-06-09T00:15:45Z</time>
			</trkpt>
		
			<trkpt lat="45.495470" lon="1.877790">
			 <ele>832</ele>
			<time>2016-06-09T00:17:45Z</time>
			</trkpt>
		
			<trkpt lat="45.495510" lon="1.877820">
			 <ele>832</ele>
			<time>2016-06-09T00:19:45Z</time>
			</trkpt>
		
			<trkpt lat="45.495560" lon="1.877840">
			 <ele>832</ele>
			<time>2016-06-09T00:21:45Z</time>
			</trkpt>
		
			<trkpt lat="45.495620" lon="1.877850">
			 <ele>832</ele>
			<time>2016-06-09T00:23:45Z</time>
			</trkpt>
		
			<trkpt lat="45.495720" lon="1.877840">
			 <ele>833</ele>
			<time>2016-06-09T00:25:45Z</time>
			</trkpt>
		
			<trkpt lat="45.495890" lon="1.877810">
			 <ele>834</ele>
			<time>2016-06-09T00:27:45Z</time>
			</trkpt>
		
			<trkpt lat="45.496100" lon="1.877760">
			 <ele>834</ele>
			<time>2016-06-09T00:29:45Z</time>
			</trkpt>
		
			<trkpt lat="45.496330" lon="1.877710">
			 <ele>834</ele>
			<time>2016-06-09T00:31:45Z</time>
			</trkpt>
		
			<trkpt lat="45.496420" lon="1.877700">
			 <ele>834</ele>
			<time>2016-06-09T00:33:45Z</time>
			</trkpt>
		
			<trkpt lat="45.496510" lon="1.877700">
			 <ele>834</ele>
			<time>2016-06-09T00:35:45Z</time>
			</trkpt>
		
			<trkpt lat="45.496590" lon="1.877720">
			 <ele>834</ele>
			<time>2016-06-09T00:37:45Z</time>
			</trkpt>
		
			<trkpt lat="45.496740" lon="1.877760">
			 <ele>833</ele>
			<time>2016-06-09T00:39:45Z</time>
			</trkpt>
		
			<trkpt lat="45.496830" lon="1.877780">
			 <ele>833</ele>
			<time>2016-06-09T00:41:45Z</time>
			</trkpt>
		
			<trkpt lat="45.496960" lon="1.877790">
			 <ele>834</ele>
			<time>2016-06-09T00:43:45Z</time>
			</trkpt>
		
			<trkpt lat="45.497160" lon="1.877770">
			 <ele>834</ele>
			<time>2016-06-09T00:45:45Z</time>
			</trkpt>
		
			<trkpt lat="45.497390" lon="1.877730">
			 <ele>835</ele>
			<time>2016-06-09T00:47:45Z</time>
			</trkpt>
		
			<trkpt lat="45.497460" lon="1.877730">
			 <ele>835</ele>
			<time>2016-06-09T00:49:45Z</time>
			</trkpt>
		
			<trkpt lat="45.497530" lon="1.877740">
			 <ele>835</ele>
			<time>2016-06-09T00:51:45Z</time>
			</trkpt>
		
			<trkpt lat="45.497680" lon="1.877780">
			 <ele>836</ele>
			<time>2016-06-09T00:53:45Z</time>
			</trkpt>
		
			<trkpt lat="45.497890" lon="1.877860">
			 <ele>838</ele>
			<time>2016-06-09T00:55:45Z</time>
			</trkpt>
		
			<trkpt lat="45.498570" lon="1.878120">
			 <ele>842</ele>
			<time>2016-06-09T00:57:45Z</time>
			</trkpt>
		
			<trkpt lat="45.498970" lon="1.878260">
			 <ele>842</ele>
			<time>2016-06-09T00:59:45Z</time>
			</trkpt>
		
			<trkpt lat="45.499190" lon="1.878310">
			 <ele>843</ele>
			<time>2016-06-09T01:01:45Z</time>
			</trkpt>
		
			<trkpt lat="45.499250" lon="1.878320">
			 <ele>843</ele>
			<time>2016-06-09T01:03:45Z</time>
			</trkpt>
		
			<trkpt lat="45.499320" lon="1.878320">
			 <ele>844</ele>
			<time>2016-06-09T01:05:45Z</time>
			</trkpt>
		
			<trkpt lat="45.499400" lon="1.878310">
			 <ele>844</ele>
			<time>2016-06-09T01:07:45Z</time>
			</trkpt>
		
			<trkpt lat="45.499510" lon="1.878270">
			 <ele>844</ele>
			<time>2016-06-09T01:09:45Z</time>
			</trkpt>
		
			<trkpt lat="45.499600" lon="1.878230">
			 <ele>843</ele>
			<time>2016-06-09T01:11:45Z</time>
			</trkpt>
		
			<trkpt lat="45.499680" lon="1.878200">
			 <ele>843</ele>
			<time>2016-06-09T01:13:45Z</time>
			</trkpt>
		
			<trkpt lat="45.499750" lon="1.878150">
			 <ele>843</ele>
			<time>2016-06-09T01:15:45Z</time>
			</trkpt>
		
			<trkpt lat="45.499810" lon="1.878120">
			 <ele>842</ele>
			<time>2016-06-09T01:17:45Z</time>
			</trkpt>
		
			<trkpt lat="45.499980" lon="1.878000">
			 <ele>840</ele>
			<time>2016-06-09T01:19:45Z</time>
			</trkpt>
		
			<trkpt lat="45.500250" lon="1.877810">
			 <ele>837</ele>
			<time>2016-06-09T01:21:45Z</time>
			</trkpt>
		
			<trkpt lat="45.500360" lon="1.877760">
			 <ele>836</ele>
			<time>2016-06-09T01:23:45Z</time>
			</trkpt>
		
			<trkpt lat="45.500490" lon="1.877730">
			 <ele>836</ele>
			<time>2016-06-09T01:25:45Z</time>
			</trkpt>
		
			<trkpt lat="45.501000" lon="1.877650">
			 <ele>834</ele>
			<time>2016-06-09T01:27:45Z</time>
			</trkpt>
		
			<trkpt lat="45.501290" lon="1.877620">
			 <ele>832</ele>
			<time>2016-06-09T01:29:45Z</time>
			</trkpt>
		
			<trkpt lat="45.501430" lon="1.877600">
			 <ele>831</ele>
			<time>2016-06-09T01:31:45Z</time>
			</trkpt>
		
			<trkpt lat="45.501540" lon="1.877590">
			 <ele>830</ele>
			<time>2016-06-09T01:33:45Z</time>
			</trkpt>
		
			<trkpt lat="45.501660" lon="1.877590">
			 <ele>830</ele>
			<time>2016-06-09T01:35:45Z</time>
			</trkpt>
		
			<trkpt lat="45.501780" lon="1.877590">
			 <ele>830</ele>
			<time>2016-06-09T01:37:45Z</time>
			</trkpt>
		
			<trkpt lat="45.501930" lon="1.877590">
			 <ele>829</ele>
			<time>2016-06-09T01:39:45Z</time>
			</trkpt>
		
			<trkpt lat="45.502100" lon="1.877600">
			 <ele>829</ele>
			<time>2016-06-09T01:41:45Z</time>
			</trkpt>
		
			<trkpt lat="45.502220" lon="1.877600">
			 <ele>829</ele>
			<time>2016-06-09T01:43:45Z</time>
			</trkpt>
		
			<trkpt lat="45.502280" lon="1.877600">
			 <ele>829</ele>
			<time>2016-06-09T01:45:45Z</time>
			</trkpt>
		
			<trkpt lat="45.502350" lon="1.877580">
			 <ele>829</ele>
			<time>2016-06-09T01:47:45Z</time>
			</trkpt>
		
			<trkpt lat="45.502440" lon="1.877560">
			 <ele>828</ele>
			<time>2016-06-09T01:49:45Z</time>
			</trkpt>
		
			<trkpt lat="45.502580" lon="1.877500">
			 <ele>827</ele>
			<time>2016-06-09T01:51:45Z</time>
			</trkpt>
		
			<trkpt lat="45.502740" lon="1.877430">
			 <ele>827</ele>
			<time>2016-06-09T01:53:45Z</time>
			</trkpt>
		
			<trkpt lat="45.502840" lon="1.877400">
			 <ele>827</ele>
			<time>2016-06-09T01:55:45Z</time>
			</trkpt>
		
			<trkpt lat="45.502930" lon="1.877390">
			 <ele>827</ele>
			<time>2016-06-09T01:57:45Z</time>
			</trkpt>
		
			<trkpt lat="45.503010" lon="1.877390">
			 <ele>827</ele>
			<time>2016-06-09T01:59:45Z</time>
			</trkpt>
		
			<trkpt lat="45.503100" lon="1.877420">
			 <ele>827</ele>
			<time>2016-06-09T02:01:45Z</time>
			</trkpt>
		
			<trkpt lat="45.503200" lon="1.877470">
			 <ele>828</ele>
			<time>2016-06-09T02:03:45Z</time>
			</trkpt>
		
			<trkpt lat="45.503360" lon="1.877570">
			 <ele>828</ele>
			<time>2016-06-09T02:05:45Z</time>
			</trkpt>
		
			<trkpt lat="45.503680" lon="1.877800">
			 <ele>828</ele>
			<time>2016-06-09T02:07:45Z</time>
			</trkpt>
		
			<trkpt lat="45.503800" lon="1.877870">
			 <ele>827</ele>
			<time>2016-06-09T02:09:45Z</time>
			</trkpt>
		
			<trkpt lat="45.503920" lon="1.877930">
			 <ele>827</ele>
			<time>2016-06-09T02:11:45Z</time>
			</trkpt>
		
			<trkpt lat="45.504050" lon="1.877980">
			 <ele>827</ele>
			<time>2016-06-09T02:13:45Z</time>
			</trkpt>
		
			<trkpt lat="45.504200" lon="1.878030">
			 <ele>827</ele>
			<time>2016-06-09T02:15:45Z</time>
			</trkpt>
		
			<trkpt lat="45.504630" lon="1.878140">
			 <ele>825</ele>
			<time>2016-06-09T02:17:45Z</time>
			</trkpt>
		
			<trkpt lat="45.504710" lon="1.878160">
			 <ele>825</ele>
			<time>2016-06-09T02:19:45Z</time>
			</trkpt>
		
			<trkpt lat="45.504800" lon="1.878170">
			 <ele>824</ele>
			<time>2016-06-09T02:21:45Z</time>
			</trkpt>
		
			<trkpt lat="45.504820" lon="1.878170">
			 <ele>824</ele>
			<time>2016-06-09T02:23:45Z</time>
			</trkpt>
		
			<trkpt lat="45.504880" lon="1.878160">
			 <ele>823</ele>
			<time>2016-06-09T02:25:45Z</time>
			</trkpt>
		
			<trkpt lat="45.504990" lon="1.878150">
			 <ele>822</ele>
			<time>2016-06-09T02:27:45Z</time>
			</trkpt>
		
			<trkpt lat="45.505090" lon="1.878120">
			 <ele>822</ele>
			<time>2016-06-09T02:29:45Z</time>
			</trkpt>
		
			<trkpt lat="45.505220" lon="1.878090">
			 <ele>822</ele>
			<time>2016-06-09T02:31:45Z</time>
			</trkpt>
		
			<trkpt lat="45.505420" lon="1.878030">
			 <ele>821</ele>
			<time>2016-06-09T02:33:45Z</time>
			</trkpt>
		
			<trkpt lat="45.505610" lon="1.877990">
			 <ele>820</ele>
			<time>2016-06-09T02:35:45Z</time>
			</trkpt>
		
			<trkpt lat="45.505690" lon="1.877980">
			 <ele>820</ele>
			<time>2016-06-09T02:37:45Z</time>
			</trkpt>
		
			<trkpt lat="45.505770" lon="1.877990">
			 <ele>820</ele>
			<time>2016-06-09T02:39:45Z</time>
			</trkpt>
		
			<trkpt lat="45.505850" lon="1.878020">
			 <ele>820</ele>
			<time>2016-06-09T02:41:45Z</time>
			</trkpt>
		
			<trkpt lat="45.505930" lon="1.878080">
			 <ele>820</ele>
			<time>2016-06-09T02:43:45Z</time>
			</trkpt>
		
			<trkpt lat="45.506000" lon="1.878150">
			 <ele>820</ele>
			<time>2016-06-09T02:45:45Z</time>
			</trkpt>
		
			<trkpt lat="45.506070" lon="1.878240">
			 <ele>820</ele>
			<time>2016-06-09T02:47:45Z</time>
			</trkpt>
		
			<trkpt lat="45.506120" lon="1.878330">
			 <ele>820</ele>
			<time>2016-06-09T02:49:45Z</time>
			</trkpt>
		
			<trkpt lat="45.506250" lon="1.878570">
			 <ele>821</ele>
			<time>2016-06-09T02:51:45Z</time>
			</trkpt>
		
			<trkpt lat="45.506380" lon="1.878780">
			 <ele>822</ele>
			<time>2016-06-09T02:53:45Z</time>
			</trkpt>
		
			<trkpt lat="45.506490" lon="1.878920">
			 <ele>823</ele>
			<time>2016-06-09T02:55:45Z</time>
			</trkpt>
		
			<trkpt lat="45.506580" lon="1.879010">
			 <ele>823</ele>
			<time>2016-06-09T02:57:45Z</time>
			</trkpt>
		
			<trkpt lat="45.506670" lon="1.879080">
			 <ele>824</ele>
			<time>2016-06-09T02:59:45Z</time>
			</trkpt>
		
			<trkpt lat="45.506730" lon="1.879100">
			 <ele>824</ele>
			<time>2016-06-09T03:01:45Z</time>
			</trkpt>
		
			<trkpt lat="45.506910" lon="1.879100">
			 <ele>822</ele>
			<time>2016-06-09T03:03:45Z</time>
			</trkpt>
		
			<trkpt lat="45.507150" lon="1.879090">
			 <ele>820</ele>
			<time>2016-06-09T03:05:45Z</time>
			</trkpt>
		
			<trkpt lat="45.507320" lon="1.879110">
			 <ele>820</ele>
			<time>2016-06-09T03:07:45Z</time>
			</trkpt>
		
			<trkpt lat="45.507530" lon="1.879180">
			 <ele>820</ele>
			<time>2016-06-09T03:09:45Z</time>
			</trkpt>
		
			<trkpt lat="45.507740" lon="1.879270">
			 <ele>818</ele>
			<time>2016-06-09T03:11:45Z</time>
			</trkpt>
		
			<trkpt lat="45.507900" lon="1.879370">
			 <ele>817</ele>
			<time>2016-06-09T03:13:45Z</time>
			</trkpt>
		
			<trkpt lat="45.508040" lon="1.879480">
			 <ele>816</ele>
			<time>2016-06-09T03:15:45Z</time>
			</trkpt>
		
			<trkpt lat="45.508120" lon="1.879580">
			 <ele>817</ele>
			<time>2016-06-09T03:17:45Z</time>
			</trkpt>
		
			<trkpt lat="45.508190" lon="1.879710">
			 <ele>818</ele>
			<time>2016-06-09T03:19:45Z</time>
			</trkpt>
		
			<trkpt lat="45.508270" lon="1.879930">
			 <ele>821</ele>
			<time>2016-06-09T03:21:45Z</time>
			</trkpt>
		
			<trkpt lat="45.508340" lon="1.880150">
			 <ele>822</ele>
			<time>2016-06-09T03:23:45Z</time>
			</trkpt>
		
			<trkpt lat="45.508400" lon="1.880260">
			 <ele>822</ele>
			<time>2016-06-09T03:25:45Z</time>
			</trkpt>
		
			<trkpt lat="45.508460" lon="1.880340">
			 <ele>822</ele>
			<time>2016-06-09T03:27:45Z</time>
			</trkpt>
		
			<trkpt lat="45.508530" lon="1.880380">
			 <ele>822</ele>
			<time>2016-06-09T03:29:45Z</time>
			</trkpt>
		
			<trkpt lat="45.508610" lon="1.880410">
			 <ele>821</ele>
			<time>2016-06-09T03:31:45Z</time>
			</trkpt>
		
			<trkpt lat="45.508730" lon="1.880430">
			 <ele>820</ele>
			<time>2016-06-09T03:33:45Z</time>
			</trkpt>
		
			<trkpt lat="45.508870" lon="1.880440">
			 <ele>819</ele>
			<time>2016-06-09T03:35:45Z</time>
			</trkpt>
		
			<trkpt lat="45.509010" lon="1.880440">
			 <ele>818</ele>
			<time>2016-06-09T03:37:45Z</time>
			</trkpt>
		
			<trkpt lat="45.509210" lon="1.880440">
			 <ele>816</ele>
			<time>2016-06-09T03:39:45Z</time>
			</trkpt>
		
			<trkpt lat="45.509830" lon="1.880440">
			 <ele>817</ele>
			<time>2016-06-09T03:41:45Z</time>
			</trkpt>
		
			<trkpt lat="45.510050" lon="1.880440">
			 <ele>817</ele>
			<time>2016-06-09T03:43:45Z</time>
			</trkpt>
		
			<trkpt lat="45.510170" lon="1.880460">
			 <ele>817</ele>
			<time>2016-06-09T03:45:45Z</time>
			</trkpt>
		
			<trkpt lat="45.510290" lon="1.880480">
			 <ele>816</ele>
			<time>2016-06-09T03:47:45Z</time>
			</trkpt>
		
			<trkpt lat="45.510420" lon="1.880510">
			 <ele>816</ele>
			<time>2016-06-09T03:49:45Z</time>
			</trkpt>
		
			<trkpt lat="45.510550" lon="1.880560">
			 <ele>816</ele>
			<time>2016-06-09T03:51:45Z</time>
			</trkpt>
		
			<trkpt lat="45.510680" lon="1.880620">
			 <ele>816</ele>
			<time>2016-06-09T03:53:45Z</time>
			</trkpt>
		
			<trkpt lat="45.510820" lon="1.880700">
			 <ele>817</ele>
			<time>2016-06-09T03:55:45Z</time>
			</trkpt>
		
			<trkpt lat="45.510940" lon="1.880770">
			 <ele>818</ele>
			<time>2016-06-09T03:57:45Z</time>
			</trkpt>
		
			<trkpt lat="45.511030" lon="1.880830">
			 <ele>818</ele>
			<time>2016-06-09T03:59:45Z</time>
			</trkpt>
		
			<trkpt lat="45.511200" lon="1.880970">
			 <ele>820</ele>
			<time>2016-06-09T04:01:45Z</time>
			</trkpt>
		
			<trkpt lat="45.511340" lon="1.881070">
			 <ele>821</ele>
			<time>2016-06-09T04:03:45Z</time>
			</trkpt>
		
			<trkpt lat="45.511450" lon="1.881130">
			 <ele>821</ele>
			<time>2016-06-09T04:05:45Z</time>
			</trkpt>
		
			<trkpt lat="45.511540" lon="1.881160">
			 <ele>821</ele>
			<time>2016-06-09T04:07:45Z</time>
			</trkpt>
		
			<trkpt lat="45.511640" lon="1.881190">
			 <ele>822</ele>
			<time>2016-06-09T04:09:45Z</time>
			</trkpt>
		
			<trkpt lat="45.511740" lon="1.881200">
			 <ele>822</ele>
			<time>2016-06-09T04:11:45Z</time>
			</trkpt>
		
			<trkpt lat="45.511830" lon="1.881180">
			 <ele>822</ele>
			<time>2016-06-09T04:13:45Z</time>
			</trkpt>
		
			<trkpt lat="45.511940" lon="1.881160">
			 <ele>822</ele>
			<time>2016-06-09T04:15:45Z</time>
			</trkpt>
		
			<trkpt lat="45.512060" lon="1.881120">
			 <ele>822</ele>
			<time>2016-06-09T04:17:45Z</time>
			</trkpt>
		
			<trkpt lat="45.512320" lon="1.881010">
			 <ele>821</ele>
			<time>2016-06-09T04:19:45Z</time>
			</trkpt>
		
			<trkpt lat="45.512810" lon="1.880820">
			 <ele>823</ele>
			<time>2016-06-09T04:21:45Z</time>
			</trkpt>
		
			<trkpt lat="45.513020" lon="1.880700">
			 <ele>824</ele>
			<time>2016-06-09T04:23:45Z</time>
			</trkpt>
		
			<trkpt lat="45.513170" lon="1.880600">
			 <ele>825</ele>
			<time>2016-06-09T04:25:45Z</time>
			</trkpt>
		
			<trkpt lat="45.513230" lon="1.880550">
			 <ele>825</ele>
			<time>2016-06-09T04:27:45Z</time>
			</trkpt>
		
			<trkpt lat="45.513290" lon="1.880450">
			 <ele>825</ele>
			<time>2016-06-09T04:29:45Z</time>
			</trkpt>
		
			<trkpt lat="45.513320" lon="1.880370">
			 <ele>825</ele>
			<time>2016-06-09T04:31:45Z</time>
			</trkpt>
		
			<trkpt lat="45.513360" lon="1.880260">
			 <ele>824</ele>
			<time>2016-06-09T04:33:45Z</time>
			</trkpt>
		
			<trkpt lat="45.513420" lon="1.880110">
			 <ele>824</ele>
			<time>2016-06-09T04:35:45Z</time>
			</trkpt>
		
			<trkpt lat="45.513460" lon="1.879970">
			 <ele>824</ele>
			<time>2016-06-09T04:37:45Z</time>
			</trkpt>
		
			<trkpt lat="45.513470" lon="1.879880">
			 <ele>824</ele>
			<time>2016-06-09T04:39:45Z</time>
			</trkpt>
		
			<trkpt lat="45.513500" lon="1.879660">
			 <ele>824</ele>
			<time>2016-06-09T04:41:45Z</time>
			</trkpt>
		
			<trkpt lat="45.513540" lon="1.879450">
			 <ele>825</ele>
			<time>2016-06-09T04:43:45Z</time>
			</trkpt>
		
			<trkpt lat="45.513550" lon="1.879390">
			 <ele>825</ele>
			<time>2016-06-09T04:45:45Z</time>
			</trkpt>
		
			<trkpt lat="45.513570" lon="1.879370">
			 <ele>825</ele>
			<time>2016-06-09T04:47:45Z</time>
			</trkpt>
		
			<trkpt lat="45.513580" lon="1.879350">
			 <ele>825</ele>
			<time>2016-06-09T04:49:45Z</time>
			</trkpt>
		
			<trkpt lat="45.513590" lon="1.879340">
			 <ele>825</ele>
			<time>2016-06-09T04:51:45Z</time>
			</trkpt>
		
			<trkpt lat="45.513650" lon="1.879310">
			 <ele>825</ele>
			<time>2016-06-09T04:53:45Z</time>
			</trkpt>
		
			<trkpt lat="45.513870" lon="1.879140">
			 <ele>826</ele>
			<time>2016-06-09T04:55:45Z</time>
			</trkpt>
		
			<trkpt lat="45.513920" lon="1.879080">
			 <ele>826</ele>
			<time>2016-06-09T04:57:45Z</time>
			</trkpt>
		
			<trkpt lat="45.514040" lon="1.878930">
			 <ele>825</ele>
			<time>2016-06-09T04:59:45Z</time>
			</trkpt>
		
			<trkpt lat="45.514100" lon="1.878880">
			 <ele>824</ele>
			<time>2016-06-09T05:01:45Z</time>
			</trkpt>
		
			<trkpt lat="45.514170" lon="1.878840">
			 <ele>824</ele>
			<time>2016-06-09T05:03:45Z</time>
			</trkpt>
		
			<trkpt lat="45.514260" lon="1.878810">
			 <ele>824</ele>
			<time>2016-06-09T05:05:45Z</time>
			</trkpt>
		
			<trkpt lat="45.514360" lon="1.878790">
			 <ele>825</ele>
			<time>2016-06-09T05:07:45Z</time>
			</trkpt>
		
			<trkpt lat="45.514960" lon="1.878710">
			 <ele>828</ele>
			<time>2016-06-09T05:09:45Z</time>
			</trkpt>
		
			<trkpt lat="45.515370" lon="1.878660">
			 <ele>828</ele>
			<time>2016-06-09T05:11:45Z</time>
			</trkpt>
		
			<trkpt lat="45.515650" lon="1.878630">
			 <ele>829</ele>
			<time>2016-06-09T05:13:45Z</time>
			</trkpt>
		
			<trkpt lat="45.515740" lon="1.878630">
			 <ele>829</ele>
			<time>2016-06-09T05:15:45Z</time>
			</trkpt>
		
			<trkpt lat="45.515820" lon="1.878650">
			 <ele>830</ele>
			<time>2016-06-09T05:17:45Z</time>
			</trkpt>
		
			<trkpt lat="45.515890" lon="1.878680">
			 <ele>830</ele>
			<time>2016-06-09T05:19:45Z</time>
			</trkpt>
		
			<trkpt lat="45.515980" lon="1.878750">
			 <ele>830</ele>
			<time>2016-06-09T05:21:45Z</time>
			</trkpt>
		
			<trkpt lat="45.516080" lon="1.878890">
			 <ele>830</ele>
			<time>2016-06-09T05:23:45Z</time>
			</trkpt>
		
			<trkpt lat="45.516160" lon="1.878940">
			 <ele>830</ele>
			<time>2016-06-09T05:25:45Z</time>
			</trkpt>
		
			<trkpt lat="45.516200" lon="1.878940">
			 <ele>830</ele>
			<time>2016-06-09T05:27:45Z</time>
			</trkpt>
		
			<trkpt lat="45.516250" lon="1.878950">
			 <ele>830</ele>
			<time>2016-06-09T05:29:45Z</time>
			</trkpt>
		
			<trkpt lat="45.516320" lon="1.878950">
			 <ele>830</ele>
			<time>2016-06-09T05:31:45Z</time>
			</trkpt>
		
			<trkpt lat="45.516360" lon="1.878950">
			 <ele>829</ele>
			<time>2016-06-09T05:33:45Z</time>
			</trkpt>
		
			<trkpt lat="45.516490" lon="1.878950">
			 <ele>829</ele>
			<time>2016-06-09T05:35:45Z</time>
			</trkpt>
		
			<trkpt lat="45.516820" lon="1.878930">
			 <ele>827</ele>
			<time>2016-06-09T05:37:45Z</time>
			</trkpt>
		
			<trkpt lat="45.517140" lon="1.878890">
			 <ele>826</ele>
			<time>2016-06-09T05:39:45Z</time>
			</trkpt>
		
			<trkpt lat="45.517380" lon="1.878840">
			 <ele>825</ele>
			<time>2016-06-09T05:41:45Z</time>
			</trkpt>
		
			<trkpt lat="45.517530" lon="1.878800">
			 <ele>825</ele>
			<time>2016-06-09T05:43:45Z</time>
			</trkpt>
		
			<trkpt lat="45.517640" lon="1.878750">
			 <ele>825</ele>
			<time>2016-06-09T05:45:45Z</time>
			</trkpt>
		
			<trkpt lat="45.517750" lon="1.878670">
			 <ele>825</ele>
			<time>2016-06-09T05:47:45Z</time>
			</trkpt>
		
			<trkpt lat="45.517880" lon="1.878550">
			 <ele>825</ele>
			<time>2016-06-09T05:49:45Z</time>
			</trkpt>
		
			<trkpt lat="45.518040" lon="1.878370">
			 <ele>826</ele>
			<time>2016-06-09T05:51:45Z</time>
			</trkpt>
		
			<trkpt lat="45.518250" lon="1.878160">
			 <ele>825</ele>
			<time>2016-06-09T05:53:45Z</time>
			</trkpt>
		
			<trkpt lat="45.518570" lon="1.877900">
			 <ele>827</ele>
			<time>2016-06-09T05:55:45Z</time>
			</trkpt>
		
			<trkpt lat="45.518680" lon="1.877830">
			 <ele>828</ele>
			<time>2016-06-09T05:57:45Z</time>
			</trkpt>
		
			<trkpt lat="45.518790" lon="1.877770">
			 <ele>829</ele>
			<time>2016-06-09T05:59:45Z</time>
			</trkpt>
		
			<trkpt lat="45.518900" lon="1.877720">
			 <ele>830</ele>
			<time>2016-06-09T06:01:45Z</time>
			</trkpt>
		
			<trkpt lat="45.519080" lon="1.877640">
			 <ele>832</ele>
			<time>2016-06-09T06:03:45Z</time>
			</trkpt>
		
			<trkpt lat="45.519360" lon="1.877550">
			 <ele>833</ele>
			<time>2016-06-09T06:05:45Z</time>
			</trkpt>
		
			<trkpt lat="45.519900" lon="1.877420">
			 <ele>834</ele>
			<time>2016-06-09T06:07:45Z</time>
			</trkpt>
		
			<trkpt lat="45.520310" lon="1.877340">
			 <ele>835</ele>
			<time>2016-06-09T06:09:45Z</time>
			</trkpt>
		
			<trkpt lat="45.520580" lon="1.877310">
			 <ele>836</ele>
			<time>2016-06-09T06:11:45Z</time>
			</trkpt>
		
			<trkpt lat="45.520700" lon="1.877310">
			 <ele>836</ele>
			<time>2016-06-09T06:13:45Z</time>
			</trkpt>
		
			<trkpt lat="45.520820" lon="1.877350">
			 <ele>837</ele>
			<time>2016-06-09T06:15:45Z</time>
			</trkpt>
		
			<trkpt lat="45.521370" lon="1.877610">
			 <ele>838</ele>
			<time>2016-06-09T06:17:45Z</time>
			</trkpt>
		
			<trkpt lat="45.521480" lon="1.877680">
			 <ele>838</ele>
			<time>2016-06-09T06:19:45Z</time>
			</trkpt>
		
			<trkpt lat="45.521580" lon="1.877800">
			 <ele>839</ele>
			<time>2016-06-09T06:21:45Z</time>
			</trkpt>
		
			<trkpt lat="45.521650" lon="1.877920">
			 <ele>839</ele>
			<time>2016-06-09T06:23:45Z</time>
			</trkpt>
		
			<trkpt lat="45.522020" lon="1.878620">
			 <ele>838</ele>
			<time>2016-06-09T06:25:45Z</time>
			</trkpt>
		
			<trkpt lat="45.522150" lon="1.878790">
			 <ele>838</ele>
			<time>2016-06-09T06:27:45Z</time>
			</trkpt>
		
			<trkpt lat="45.522280" lon="1.878960">
			 <ele>837</ele>
			<time>2016-06-09T06:29:45Z</time>
			</trkpt>
		
			<trkpt lat="45.522400" lon="1.879060">
			 <ele>837</ele>
			<time>2016-06-09T06:31:45Z</time>
			</trkpt>
		
			<trkpt lat="45.522530" lon="1.879150">
			 <ele>838</ele>
			<time>2016-06-09T06:33:45Z</time>
			</trkpt>
		
			<trkpt lat="45.522680" lon="1.879220">
			 <ele>838</ele>
			<time>2016-06-09T06:35:45Z</time>
			</trkpt>
		
			<trkpt lat="45.522820" lon="1.879240">
			 <ele>840</ele>
			<time>2016-06-09T06:37:45Z</time>
			</trkpt>
		
			<trkpt lat="45.522930" lon="1.879260">
			 <ele>841</ele>
			<time>2016-06-09T06:39:45Z</time>
			</trkpt>
		
			<trkpt lat="45.523100" lon="1.879280">
			 <ele>843</ele>
			<time>2016-06-09T06:41:45Z</time>
			</trkpt>
		
			<trkpt lat="45.523260" lon="1.879310">
			 <ele>844</ele>
			<time>2016-06-09T06:43:45Z</time>
			</trkpt>
		
			<trkpt lat="45.523380" lon="1.879340">
			 <ele>844</ele>
			<time>2016-06-09T06:45:45Z</time>
			</trkpt>
		
			<trkpt lat="45.523560" lon="1.879430">
			 <ele>842</ele>
			<time>2016-06-09T06:47:45Z</time>
			</trkpt>
		
			<trkpt lat="45.523820" lon="1.879530">
			 <ele>841</ele>
			<time>2016-06-09T06:49:45Z</time>
			</trkpt>
		
			<trkpt lat="45.523940" lon="1.879570">
			 <ele>842</ele>
			<time>2016-06-09T06:51:45Z</time>
			</trkpt>
		
			<trkpt lat="45.524050" lon="1.879580">
			 <ele>842</ele>
			<time>2016-06-09T06:53:45Z</time>
			</trkpt>
		
			<trkpt lat="45.524160" lon="1.879560">
			 <ele>843</ele>
			<time>2016-06-09T06:55:45Z</time>
			</trkpt>
		
			<trkpt lat="45.524280" lon="1.879490">
			 <ele>844</ele>
			<time>2016-06-09T06:57:45Z</time>
			</trkpt>
		
			<trkpt lat="45.524360" lon="1.879390">
			 <ele>845</ele>
			<time>2016-06-09T06:59:45Z</time>
			</trkpt>
		
			<trkpt lat="45.524430" lon="1.879240">
			 <ele>846</ele>
			<time>2016-06-09T07:01:45Z</time>
			</trkpt>
		
			<trkpt lat="45.524510" lon="1.879000">
			 <ele>847</ele>
			<time>2016-06-09T07:03:45Z</time>
			</trkpt>
		
			<trkpt lat="45.524580" lon="1.878840">
			 <ele>848</ele>
			<time>2016-06-09T07:05:45Z</time>
			</trkpt>
		
			<trkpt lat="45.524670" lon="1.878690">
			 <ele>848</ele>
			<time>2016-06-09T07:07:45Z</time>
			</trkpt>
		
			<trkpt lat="45.524940" lon="1.878380">
			 <ele>846</ele>
			<time>2016-06-09T07:09:45Z</time>
			</trkpt>
		
			<trkpt lat="45.525120" lon="1.878160">
			 <ele>846</ele>
			<time>2016-06-09T07:11:45Z</time>
			</trkpt>
		
			<trkpt lat="45.525290" lon="1.877950">
			 <ele>845</ele>
			<time>2016-06-09T07:13:45Z</time>
			</trkpt>
		
			<trkpt lat="45.525410" lon="1.877750">
			 <ele>845</ele>
			<time>2016-06-09T07:15:45Z</time>
			</trkpt>
		
			<trkpt lat="45.525480" lon="1.877580">
			 <ele>845</ele>
			<time>2016-06-09T07:17:45Z</time>
			</trkpt>
		
			<trkpt lat="45.525520" lon="1.877420">
			 <ele>846</ele>
			<time>2016-06-09T07:19:45Z</time>
			</trkpt>
		
			<trkpt lat="45.525570" lon="1.877190">
			 <ele>848</ele>
			<time>2016-06-09T07:21:45Z</time>
			</trkpt>
		
			<trkpt lat="45.525620" lon="1.876990">
			 <ele>850</ele>
			<time>2016-06-09T07:23:45Z</time>
			</trkpt>
		
			<trkpt lat="45.525690" lon="1.876810">
			 <ele>851</ele>
			<time>2016-06-09T07:25:45Z</time>
			</trkpt>
		
			<trkpt lat="45.525790" lon="1.876620">
			 <ele>852</ele>
			<time>2016-06-09T07:27:45Z</time>
			</trkpt>
		
			<trkpt lat="45.525920" lon="1.876380">
			 <ele>852</ele>
			<time>2016-06-09T07:29:45Z</time>
			</trkpt>
		
			<trkpt lat="45.526050" lon="1.876120">
			 <ele>851</ele>
			<time>2016-06-09T07:31:45Z</time>
			</trkpt>
		
			<trkpt lat="45.526170" lon="1.875860">
			 <ele>851</ele>
			<time>2016-06-09T07:33:45Z</time>
			</trkpt>
		
			<trkpt lat="45.526270" lon="1.875620">
			 <ele>851</ele>
			<time>2016-06-09T07:35:45Z</time>
			</trkpt>
		
			<trkpt lat="45.526360" lon="1.875420">
			 <ele>851</ele>
			<time>2016-06-09T07:37:45Z</time>
			</trkpt>
		
			<trkpt lat="45.526440" lon="1.875170">
			 <ele>851</ele>
			<time>2016-06-09T07:39:45Z</time>
			</trkpt>
		
			<trkpt lat="45.526500" lon="1.874960">
			 <ele>851</ele>
			<time>2016-06-09T07:41:45Z</time>
			</trkpt>
		
			<trkpt lat="45.526570" lon="1.874740">
			 <ele>851</ele>
			<time>2016-06-09T07:43:45Z</time>
			</trkpt>
		
			<trkpt lat="45.526600" lon="1.874620">
			 <ele>851</ele>
			<time>2016-06-09T07:45:45Z</time>
			</trkpt>
		
			<trkpt lat="45.526660" lon="1.874470">
			 <ele>851</ele>
			<time>2016-06-09T07:47:45Z</time>
			</trkpt>
		
			<trkpt lat="45.526710" lon="1.874360">
			 <ele>851</ele>
			<time>2016-06-09T07:49:45Z</time>
			</trkpt>
		
			<trkpt lat="45.526770" lon="1.874260">
			 <ele>851</ele>
			<time>2016-06-09T07:51:45Z</time>
			</trkpt>
		
			<trkpt lat="45.526840" lon="1.874150">
			 <ele>850</ele>
			<time>2016-06-09T07:53:45Z</time>
			</trkpt>
		
			<trkpt lat="45.526920" lon="1.874030">
			 <ele>850</ele>
			<time>2016-06-09T07:55:45Z</time>
			</trkpt>
		
			<trkpt lat="45.527050" lon="1.873870">
			 <ele>850</ele>
			<time>2016-06-09T07:57:45Z</time>
			</trkpt>
		
			<trkpt lat="45.527180" lon="1.873720">
			 <ele>850</ele>
			<time>2016-06-09T07:59:45Z</time>
			</trkpt>
		
			<trkpt lat="45.527350" lon="1.873520">
			 <ele>850</ele>
			<time>2016-06-09T08:01:45Z</time>
			</trkpt>
		
			<trkpt lat="45.527480" lon="1.873370">
			 <ele>850</ele>
			<time>2016-06-09T08:03:45Z</time>
			</trkpt>
		
			<trkpt lat="45.527590" lon="1.873260">
			 <ele>849</ele>
			<time>2016-06-09T08:05:45Z</time>
			</trkpt>
		
			<trkpt lat="45.527710" lon="1.873150">
			 <ele>848</ele>
			<time>2016-06-09T08:07:45Z</time>
			</trkpt>
		
			<trkpt lat="45.527800" lon="1.873070">
			 <ele>848</ele>
			<time>2016-06-09T08:09:45Z</time>
			</trkpt>
		
			<trkpt lat="45.527910" lon="1.873010">
			 <ele>847</ele>
			<time>2016-06-09T08:11:45Z</time>
			</trkpt>
		
			<trkpt lat="45.528010" lon="1.872960">
			 <ele>846</ele>
			<time>2016-06-09T08:13:45Z</time>
			</trkpt>
		
			<trkpt lat="45.528080" lon="1.872930">
			 <ele>846</ele>
			<time>2016-06-09T08:15:45Z</time>
			</trkpt>
		
			<trkpt lat="45.528150" lon="1.872920">
			 <ele>846</ele>
			<time>2016-06-09T08:17:45Z</time>
			</trkpt>
		
			<trkpt lat="45.528220" lon="1.872910">
			 <ele>846</ele>
			<time>2016-06-09T08:19:45Z</time>
			</trkpt>
		
			<trkpt lat="45.528290" lon="1.872910">
			 <ele>845</ele>
			<time>2016-06-09T08:21:45Z</time>
			</trkpt>
		
			<trkpt lat="45.528450" lon="1.872940">
			 <ele>846</ele>
			<time>2016-06-09T08:23:45Z</time>
			</trkpt>
		
			<trkpt lat="45.528560" lon="1.872970">
			 <ele>847</ele>
			<time>2016-06-09T08:25:45Z</time>
			</trkpt>
		
			<trkpt lat="45.528580" lon="1.872970">
			 <ele>847</ele>
			<time>2016-06-09T08:27:45Z</time>
			</trkpt>
		
			<trkpt lat="45.528640" lon="1.872990">
			 <ele>847</ele>
			<time>2016-06-09T08:29:45Z</time>
			</trkpt>
		
			<trkpt lat="45.528750" lon="1.873030">
			 <ele>848</ele>
			<time>2016-06-09T08:31:45Z</time>
			</trkpt>
		
			<trkpt lat="45.528900" lon="1.873060">
			 <ele>849</ele>
			<time>2016-06-09T08:33:45Z</time>
			</trkpt>
		
			<trkpt lat="45.529060" lon="1.873090">
			 <ele>850</ele>
			<time>2016-06-09T08:35:45Z</time>
			</trkpt>
		
			<trkpt lat="45.529360" lon="1.873100">
			 <ele>850</ele>
			<time>2016-06-09T08:37:45Z</time>
			</trkpt>
		
			<trkpt lat="45.529700" lon="1.873110">
			 <ele>850</ele>
			<time>2016-06-09T08:39:45Z</time>
			</trkpt>
		
			<trkpt lat="45.530570" lon="1.873200">
			 <ele>850</ele>
			<time>2016-06-09T08:41:45Z</time>
			</trkpt>
		
			<trkpt lat="45.531440" lon="1.873360">
			 <ele>846</ele>
			<time>2016-06-09T08:43:45Z</time>
			</trkpt>
		
			<trkpt lat="45.531520" lon="1.873400">
			 <ele>845</ele>
			<time>2016-06-09T08:45:45Z</time>
			</trkpt>
		
			<trkpt lat="45.531580" lon="1.873400">
			 <ele>844</ele>
			<time>2016-06-09T08:47:45Z</time>
			</trkpt>
		
			<trkpt lat="45.531690" lon="1.873390">
			 <ele>844</ele>
			<time>2016-06-09T08:49:45Z</time>
			</trkpt>
		
			<trkpt lat="45.531800" lon="1.873360">
			 <ele>843</ele>
			<time>2016-06-09T08:51:45Z</time>
			</trkpt>
		
			<trkpt lat="45.531900" lon="1.873310">
			 <ele>843</ele>
			<time>2016-06-09T08:53:45Z</time>
			</trkpt>
		
			<trkpt lat="45.532130" lon="1.873190">
			 <ele>842</ele>
			<time>2016-06-09T08:55:45Z</time>
			</trkpt>
		
			<trkpt lat="45.532240" lon="1.873130">
			 <ele>842</ele>
			<time>2016-06-09T08:57:45Z</time>
			</trkpt>
		
			<trkpt lat="45.532360" lon="1.873040">
			 <ele>842</ele>
			<time>2016-06-09T08:59:45Z</time>
			</trkpt>
		
			<trkpt lat="45.532670" lon="1.872720">
			 <ele>843</ele>
			<time>2016-06-09T09:01:45Z</time>
			</trkpt>
		
			<trkpt lat="45.533070" lon="1.872350">
			 <ele>841</ele>
			<time>2016-06-09T09:03:45Z</time>
			</trkpt>
		
			<trkpt lat="45.533280" lon="1.872140">
			 <ele>839</ele>
			<time>2016-06-09T09:05:45Z</time>
			</trkpt>
		
			<trkpt lat="45.533360" lon="1.872040">
			 <ele>839</ele>
			<time>2016-06-09T09:07:45Z</time>
			</trkpt>
		
			<trkpt lat="45.533450" lon="1.871980">
			 <ele>839</ele>
			<time>2016-06-09T09:09:45Z</time>
			</trkpt>
		
			<trkpt lat="45.533490" lon="1.871970">
			 <ele>839</ele>
			<time>2016-06-09T09:11:45Z</time>
			</trkpt>
		
			<trkpt lat="45.533560" lon="1.871960">
			 <ele>838</ele>
			<time>2016-06-09T09:13:45Z</time>
			</trkpt>
		
			<trkpt lat="45.533620" lon="1.871970">
			 <ele>838</ele>
			<time>2016-06-09T09:15:45Z</time>
			</trkpt>
		
			<trkpt lat="45.533740" lon="1.872010">
			 <ele>837</ele>
			<time>2016-06-09T09:17:45Z</time>
			</trkpt>
		
			<trkpt lat="45.533920" lon="1.872080">
			 <ele>835</ele>
			<time>2016-06-09T09:19:45Z</time>
			</trkpt>
		
			<trkpt lat="45.534150" lon="1.872170">
			 <ele>832</ele>
			<time>2016-06-09T09:21:45Z</time>
			</trkpt>
		
			<trkpt lat="45.534590" lon="1.872320">
			 <ele>830</ele>
			<time>2016-06-09T09:23:45Z</time>
			</trkpt>
		
			<trkpt lat="45.534970" lon="1.872440">
			 <ele>829</ele>
			<time>2016-06-09T09:25:45Z</time>
			</trkpt>
		
			<trkpt lat="45.535420" lon="1.872540">
			 <ele>826</ele>
			<time>2016-06-09T09:27:45Z</time>
			</trkpt>
		
			<trkpt lat="45.535710" lon="1.872600">
			 <ele>824</ele>
			<time>2016-06-09T09:29:45Z</time>
			</trkpt>
		
			<trkpt lat="45.535870" lon="1.872610">
			 <ele>823</ele>
			<time>2016-06-09T09:31:45Z</time>
			</trkpt>
		
			<trkpt lat="45.536040" lon="1.872590">
			 <ele>823</ele>
			<time>2016-06-09T09:33:45Z</time>
			</trkpt>
		
			<trkpt lat="45.536150" lon="1.872580">
			 <ele>823</ele>
			<time>2016-06-09T09:35:45Z</time>
			</trkpt>
		
			<trkpt lat="45.536470" lon="1.872540">
			 <ele>823</ele>
			<time>2016-06-09T09:37:45Z</time>
			</trkpt>
		
			<trkpt lat="45.536550" lon="1.872520">
			 <ele>823</ele>
			<time>2016-06-09T09:39:45Z</time>
			</trkpt>
		
			<trkpt lat="45.536620" lon="1.872490">
			 <ele>823</ele>
			<time>2016-06-09T09:41:45Z</time>
			</trkpt>
		
			<trkpt lat="45.536690" lon="1.872460">
			 <ele>823</ele>
			<time>2016-06-09T09:43:45Z</time>
			</trkpt>
		
			<trkpt lat="45.536750" lon="1.872420">
			 <ele>823</ele>
			<time>2016-06-09T09:45:45Z</time>
			</trkpt>
		
			<trkpt lat="45.536780" lon="1.872400">
			 <ele>823</ele>
			<time>2016-06-09T09:47:45Z</time>
			</trkpt>
		
			<trkpt lat="45.536880" lon="1.872310">
			 <ele>824</ele>
			<time>2016-06-09T09:49:45Z</time>
			</trkpt>
		
			<trkpt lat="45.537000" lon="1.872200">
			 <ele>824</ele>
			<time>2016-06-09T09:51:45Z</time>
			</trkpt>
		
			<trkpt lat="45.537140" lon="1.872090">
			 <ele>825</ele>
			<time>2016-06-09T09:53:45Z</time>
			</trkpt>
		
			<trkpt lat="45.537230" lon="1.872060">
			 <ele>825</ele>
			<time>2016-06-09T09:55:45Z</time>
			</trkpt>
		
			<trkpt lat="45.537280" lon="1.872050">
			 <ele>824</ele>
			<time>2016-06-09T09:57:45Z</time>
			</trkpt>
		
			<trkpt lat="45.537360" lon="1.872030">
			 <ele>824</ele>
			<time>2016-06-09T09:59:45Z</time>
			</trkpt>
		
			<trkpt lat="45.537460" lon="1.872010">
			 <ele>824</ele>
			<time>2016-06-09T10:01:45Z</time>
			</trkpt>
		
			<trkpt lat="45.537600" lon="1.872000">
			 <ele>824</ele>
			<time>2016-06-09T10:03:45Z</time>
			</trkpt>
		
			<trkpt lat="45.537740" lon="1.872010">
			 <ele>823</ele>
			<time>2016-06-09T10:05:45Z</time>
			</trkpt>
		
			<trkpt lat="45.537960" lon="1.872050">
			 <ele>823</ele>
			<time>2016-06-09T10:07:45Z</time>
			</trkpt>
		
			<trkpt lat="45.538240" lon="1.872130">
			 <ele>822</ele>
			<time>2016-06-09T10:09:45Z</time>
			</trkpt>
		
			<trkpt lat="45.538400" lon="1.872180">
			 <ele>821</ele>
			<time>2016-06-09T10:11:45Z</time>
			</trkpt>
		
			<trkpt lat="45.538560" lon="1.872240">
			 <ele>821</ele>
			<time>2016-06-09T10:13:45Z</time>
			</trkpt>
		
			<trkpt lat="45.538880" lon="1.872340">
			 <ele>820</ele>
			<time>2016-06-09T10:15:45Z</time>
			</trkpt>
		
			<trkpt lat="45.538890" lon="1.872380">
			 <ele>820</ele>
			<time>2016-06-09T10:17:45Z</time>
			</trkpt>
		
			<trkpt lat="45.538890" lon="1.872440">
			 <ele>820</ele>
			<time>2016-06-09T10:19:45Z</time>
			</trkpt>
		
			<trkpt lat="45.538900" lon="1.872470">
			 <ele>820</ele>
			<time>2016-06-09T10:21:45Z</time>
			</trkpt>
		
			<trkpt lat="45.538910" lon="1.872500">
			 <ele>820</ele>
			<time>2016-06-09T10:23:45Z</time>
			</trkpt>
		
			<trkpt lat="45.538930" lon="1.872550">
			 <ele>820</ele>
			<time>2016-06-09T10:25:45Z</time>
			</trkpt>
		
			<trkpt lat="45.538940" lon="1.872560">
			 <ele>820</ele>
			<time>2016-06-09T10:27:45Z</time>
			</trkpt>
		
			<trkpt lat="45.538970" lon="1.872620">
			 <ele>819</ele>
			<time>2016-06-09T10:29:45Z</time>
			</trkpt>
		
			<trkpt lat="45.539010" lon="1.872680">
			 <ele>819</ele>
			<time>2016-06-09T10:31:45Z</time>
			</trkpt>
		
			<trkpt lat="45.539020" lon="1.872690">
			 <ele>819</ele>
			<time>2016-06-09T10:33:45Z</time>
			</trkpt>
		
			<trkpt lat="45.539060" lon="1.872780">
			 <ele>818</ele>
			<time>2016-06-09T10:35:45Z</time>
			</trkpt>
		
			<trkpt lat="45.539090" lon="1.872830">
			 <ele>818</ele>
			<time>2016-06-09T10:37:45Z</time>
			</trkpt>
		
			<trkpt lat="45.539120" lon="1.872890">
			 <ele>818</ele>
			<time>2016-06-09T10:39:45Z</time>
			</trkpt>
		
			<trkpt lat="45.539200" lon="1.873060">
			 <ele>817</ele>
			<time>2016-06-09T10:41:45Z</time>
			</trkpt>
		
			<trkpt lat="45.539210" lon="1.873080">
			 <ele>817</ele>
			<time>2016-06-09T10:43:45Z</time>
			</trkpt>
		
			<trkpt lat="45.539320" lon="1.873320">
			 <ele>816</ele>
			<time>2016-06-09T10:45:45Z</time>
			</trkpt>
		
			<trkpt lat="45.539460" lon="1.873600">
			 <ele>815</ele>
			<time>2016-06-09T10:47:45Z</time>
			</trkpt>
		
			<trkpt lat="45.539590" lon="1.873900">
			 <ele>814</ele>
			<time>2016-06-09T10:49:45Z</time>
			</trkpt>
		
			<trkpt lat="45.539750" lon="1.874260">
			 <ele>813</ele>
			<time>2016-06-09T10:51:45Z</time>
			</trkpt>
		
			<trkpt lat="45.539830" lon="1.874400">
			 <ele>813</ele>
			<time>2016-06-09T10:53:45Z</time>
			</trkpt>
		
			<trkpt lat="45.539910" lon="1.874560">
			 <ele>812</ele>
			<time>2016-06-09T10:55:45Z</time>
			</trkpt>
		
			<trkpt lat="45.539960" lon="1.874660">
			 <ele>812</ele>
			<time>2016-06-09T10:57:45Z</time>
			</trkpt>
		
			<trkpt lat="45.540010" lon="1.874740">
			 <ele>812</ele>
			<time>2016-06-09T10:59:45Z</time>
			</trkpt>
		
			<trkpt lat="45.540050" lon="1.874800">
			 <ele>811</ele>
			<time>2016-06-09T11:01:45Z</time>
			</trkpt>
		
			<trkpt lat="45.540060" lon="1.874820">
			 <ele>811</ele>
			<time>2016-06-09T11:03:45Z</time>
			</trkpt>
		
			<trkpt lat="45.540090" lon="1.874860">
			 <ele>811</ele>
			<time>2016-06-09T11:05:45Z</time>
			</trkpt>
		
			<trkpt lat="45.540140" lon="1.874930">
			 <ele>810</ele>
			<time>2016-06-09T11:07:45Z</time>
			</trkpt>
		
			<trkpt lat="45.540190" lon="1.874980">
			 <ele>810</ele>
			<time>2016-06-09T11:09:45Z</time>
			</trkpt>
		
			<trkpt lat="45.540250" lon="1.875070">
			 <ele>810</ele>
			<time>2016-06-09T11:11:45Z</time>
			</trkpt>
		
			<trkpt lat="45.540340" lon="1.875170">
			 <ele>809</ele>
			<time>2016-06-09T11:13:45Z</time>
			</trkpt>
		
			<trkpt lat="45.540420" lon="1.875250">
			 <ele>809</ele>
			<time>2016-06-09T11:15:45Z</time>
			</trkpt>
		
			<trkpt lat="45.540510" lon="1.875340">
			 <ele>808</ele>
			<time>2016-06-09T11:17:45Z</time>
			</trkpt>
		
			<trkpt lat="45.540600" lon="1.875410">
			 <ele>808</ele>
			<time>2016-06-09T11:19:45Z</time>
			</trkpt>
		
			<trkpt lat="45.540640" lon="1.875440">
			 <ele>808</ele>
			<time>2016-06-09T11:21:45Z</time>
			</trkpt>
		
			<trkpt lat="45.540710" lon="1.875490">
			 <ele>808</ele>
			<time>2016-06-09T11:23:45Z</time>
			</trkpt>
		
			<trkpt lat="45.540780" lon="1.875540">
			 <ele>808</ele>
			<time>2016-06-09T11:25:45Z</time>
			</trkpt>
		
			<trkpt lat="45.540860" lon="1.875580">
			 <ele>808</ele>
			<time>2016-06-09T11:27:45Z</time>
			</trkpt>
		
			<trkpt lat="45.540930" lon="1.875600">
			 <ele>807</ele>
			<time>2016-06-09T11:29:45Z</time>
			</trkpt>
		
			<trkpt lat="45.541000" lon="1.875620">
			 <ele>807</ele>
			<time>2016-06-09T11:31:45Z</time>
			</trkpt>
		
			<trkpt lat="45.541060" lon="1.875630">
			 <ele>807</ele>
			<time>2016-06-09T11:33:45Z</time>
			</trkpt>
		
			<trkpt lat="45.541120" lon="1.875620">
			 <ele>806</ele>
			<time>2016-06-09T11:35:45Z</time>
			</trkpt>
		
			<trkpt lat="45.541190" lon="1.875620">
			 <ele>806</ele>
			<time>2016-06-09T11:37:45Z</time>
			</trkpt>
		
			<trkpt lat="45.541250" lon="1.875600">
			 <ele>806</ele>
			<time>2016-06-09T11:39:45Z</time>
			</trkpt>
		
			<trkpt lat="45.541280" lon="1.875580">
			 <ele>806</ele>
			<time>2016-06-09T11:41:45Z</time>
			</trkpt>
		
			<trkpt lat="45.541370" lon="1.875520">
			 <ele>806</ele>
			<time>2016-06-09T11:43:45Z</time>
			</trkpt>
		
			<trkpt lat="45.541430" lon="1.875480">
			 <ele>805</ele>
			<time>2016-06-09T11:45:45Z</time>
			</trkpt>
		
			<trkpt lat="45.541500" lon="1.875470">
			 <ele>805</ele>
			<time>2016-06-09T11:47:45Z</time>
			</trkpt>
		
			<trkpt lat="45.541550" lon="1.875460">
			 <ele>805</ele>
			<time>2016-06-09T11:49:45Z</time>
			</trkpt>
		
			<trkpt lat="45.541610" lon="1.875470">
			 <ele>805</ele>
			<time>2016-06-09T11:51:45Z</time>
			</trkpt>
		
			<trkpt lat="45.541670" lon="1.875500">
			 <ele>804</ele>
			<time>2016-06-09T11:53:45Z</time>
			</trkpt>
		
			<trkpt lat="45.541760" lon="1.875530">
			 <ele>804</ele>
			<time>2016-06-09T11:55:45Z</time>
			</trkpt>
		
			<trkpt lat="45.542090" lon="1.875680">
			 <ele>801</ele>
			<time>2016-06-09T11:57:45Z</time>
			</trkpt>
		
			<trkpt lat="45.542270" lon="1.875760">
			 <ele>799</ele>
			<time>2016-06-09T11:59:45Z</time>
			</trkpt>
		
			<trkpt lat="45.542370" lon="1.875780">
			 <ele>798</ele>
			<time>2016-06-09T12:01:45Z</time>
			</trkpt>
		
			<trkpt lat="45.542500" lon="1.875790">
			 <ele>797</ele>
			<time>2016-06-09T12:03:45Z</time>
			</trkpt>
		
			<trkpt lat="45.542590" lon="1.875780">
			 <ele>797</ele>
			<time>2016-06-09T12:05:45Z</time>
			</trkpt>
		
			<trkpt lat="45.542680" lon="1.875770">
			 <ele>796</ele>
			<time>2016-06-09T12:07:45Z</time>
			</trkpt>
		
			<trkpt lat="45.542750" lon="1.875750">
			 <ele>796</ele>
			<time>2016-06-09T12:09:45Z</time>
			</trkpt>
		
			<trkpt lat="45.542830" lon="1.875740">
			 <ele>796</ele>
			<time>2016-06-09T12:11:45Z</time>
			</trkpt>
		
			<trkpt lat="45.542930" lon="1.875740">
			 <ele>795</ele>
			<time>2016-06-09T12:13:45Z</time>
			</trkpt>
		
			<trkpt lat="45.543000" lon="1.875750">
			 <ele>794</ele>
			<time>2016-06-09T12:15:45Z</time>
			</trkpt>
		
			<trkpt lat="45.543100" lon="1.875770">
			 <ele>793</ele>
			<time>2016-06-09T12:17:45Z</time>
			</trkpt>
		
			<trkpt lat="45.543180" lon="1.875800">
			 <ele>793</ele>
			<time>2016-06-09T12:19:45Z</time>
			</trkpt>
		
			<trkpt lat="45.543280" lon="1.875830">
			 <ele>791</ele>
			<time>2016-06-09T12:21:45Z</time>
			</trkpt>
		
			<trkpt lat="45.543390" lon="1.875860">
			 <ele>791</ele>
			<time>2016-06-09T12:23:45Z</time>
			</trkpt>
		
			<trkpt lat="45.543470" lon="1.875880">
			 <ele>791</ele>
			<time>2016-06-09T12:25:45Z</time>
			</trkpt>
		
			<trkpt lat="45.543530" lon="1.875880">
			 <ele>791</ele>
			<time>2016-06-09T12:27:45Z</time>
			</trkpt>
		
			<trkpt lat="45.543610" lon="1.875890">
			 <ele>791</ele>
			<time>2016-06-09T12:29:45Z</time>
			</trkpt>
		
			<trkpt lat="45.543670" lon="1.875870">
			 <ele>791</ele>
			<time>2016-06-09T12:31:45Z</time>
			</trkpt>
		
			<trkpt lat="45.543770" lon="1.875860">
			 <ele>791</ele>
			<time>2016-06-09T12:33:45Z</time>
			</trkpt>
		
			<trkpt lat="45.543890" lon="1.875820">
			 <ele>792</ele>
			<time>2016-06-09T12:35:45Z</time>
			</trkpt>
		
			<trkpt lat="45.544000" lon="1.875760">
			 <ele>793</ele>
			<time>2016-06-09T12:37:45Z</time>
			</trkpt>
		
			<trkpt lat="45.544120" lon="1.875720">
			 <ele>793</ele>
			<time>2016-06-09T12:39:45Z</time>
			</trkpt>
		
			<trkpt lat="45.544250" lon="1.875670">
			 <ele>794</ele>
			<time>2016-06-09T12:41:45Z</time>
			</trkpt>
		
			<trkpt lat="45.544390" lon="1.875650">
			 <ele>795</ele>
			<time>2016-06-09T12:43:45Z</time>
			</trkpt>
		
			<trkpt lat="45.544450" lon="1.875640">
			 <ele>795</ele>
			<time>2016-06-09T12:45:45Z</time>
			</trkpt>
		
			<trkpt lat="45.544510" lon="1.875650">
			 <ele>795</ele>
			<time>2016-06-09T12:47:45Z</time>
			</trkpt>
		
			<trkpt lat="45.544550" lon="1.875660">
			 <ele>795</ele>
			<time>2016-06-09T12:49:45Z</time>
			</trkpt>
		
			<trkpt lat="45.544590" lon="1.875680">
			 <ele>795</ele>
			<time>2016-06-09T12:51:45Z</time>
			</trkpt>
		
			<trkpt lat="45.544640" lon="1.875710">
			 <ele>795</ele>
			<time>2016-06-09T12:53:45Z</time>
			</trkpt>
		
			<trkpt lat="45.544670" lon="1.875750">
			 <ele>794</ele>
			<time>2016-06-09T12:55:45Z</time>
			</trkpt>
		
			<trkpt lat="45.544700" lon="1.875810">
			 <ele>794</ele>
			<time>2016-06-09T12:57:45Z</time>
			</trkpt>
		
			<trkpt lat="45.544740" lon="1.875860">
			 <ele>793</ele>
			<time>2016-06-09T12:59:45Z</time>
			</trkpt>
		
			<trkpt lat="45.544760" lon="1.875900">
			 <ele>793</ele>
			<time>2016-06-09T13:01:45Z</time>
			</trkpt>
		
			<trkpt lat="45.544780" lon="1.875950">
			 <ele>792</ele>
			<time>2016-06-09T13:03:45Z</time>
			</trkpt>
		
			<trkpt lat="45.544810" lon="1.876000">
			 <ele>791</ele>
			<time>2016-06-09T13:05:45Z</time>
			</trkpt>
		
			<trkpt lat="45.544870" lon="1.876080">
			 <ele>790</ele>
			<time>2016-06-09T13:07:45Z</time>
			</trkpt>
		
			<trkpt lat="45.544920" lon="1.876140">
			 <ele>790</ele>
			<time>2016-06-09T13:09:45Z</time>
			</trkpt>
		
			<trkpt lat="45.544970" lon="1.876230">
			 <ele>789</ele>
			<time>2016-06-09T13:11:45Z</time>
			</trkpt>
		
			<trkpt lat="45.545010" lon="1.876290">
			 <ele>788</ele>
			<time>2016-06-09T13:13:45Z</time>
			</trkpt>
		
			<trkpt lat="45.545090" lon="1.876400">
			 <ele>787</ele>
			<time>2016-06-09T13:15:45Z</time>
			</trkpt>
		
			<trkpt lat="45.545190" lon="1.876480">
			 <ele>787</ele>
			<time>2016-06-09T13:17:45Z</time>
			</trkpt>
		
			<trkpt lat="45.545340" lon="1.876590">
			 <ele>787</ele>
			<time>2016-06-09T13:19:45Z</time>
			</trkpt>
		
			<trkpt lat="45.545430" lon="1.876660">
			 <ele>786</ele>
			<time>2016-06-09T13:21:45Z</time>
			</trkpt>
		
			<trkpt lat="45.545550" lon="1.876730">
			 <ele>786</ele>
			<time>2016-06-09T13:23:45Z</time>
			</trkpt>
		
			<trkpt lat="45.545720" lon="1.876830">
			 <ele>785</ele>
			<time>2016-06-09T13:25:45Z</time>
			</trkpt>
		
			<trkpt lat="45.545840" lon="1.876920">
			 <ele>784</ele>
			<time>2016-06-09T13:27:45Z</time>
			</trkpt>
		
			<trkpt lat="45.546000" lon="1.877010">
			 <ele>782</ele>
			<time>2016-06-09T13:29:45Z</time>
			</trkpt>
		
			<trkpt lat="45.546130" lon="1.877110">
			 <ele>781</ele>
			<time>2016-06-09T13:31:45Z</time>
			</trkpt>
		
			<trkpt lat="45.546220" lon="1.877180">
			 <ele>779</ele>
			<time>2016-06-09T13:33:45Z</time>
			</trkpt>
		
			<trkpt lat="45.546330" lon="1.877290">
			 <ele>777</ele>
			<time>2016-06-09T13:35:45Z</time>
			</trkpt>
		
			<trkpt lat="45.546440" lon="1.877410">
			 <ele>775</ele>
			<time>2016-06-09T13:37:45Z</time>
			</trkpt>
		
			<trkpt lat="45.546540" lon="1.877510">
			 <ele>773</ele>
			<time>2016-06-09T13:39:45Z</time>
			</trkpt>
		
			<trkpt lat="45.546670" lon="1.877640">
			 <ele>770</ele>
			<time>2016-06-09T13:41:45Z</time>
			</trkpt>
		
			<trkpt lat="45.546780" lon="1.877740">
			 <ele>770</ele>
			<time>2016-06-09T13:43:45Z</time>
			</trkpt>
		
			<trkpt lat="45.546850" lon="1.877790">
			 <ele>769</ele>
			<time>2016-06-09T13:45:45Z</time>
			</trkpt>
		
			<trkpt lat="45.546920" lon="1.877820">
			 <ele>769</ele>
			<time>2016-06-09T13:47:45Z</time>
			</trkpt>
		
			<trkpt lat="45.547020" lon="1.877850">
			 <ele>770</ele>
			<time>2016-06-09T13:49:45Z</time>
			</trkpt>
		
			<trkpt lat="45.547110" lon="1.877860">
			 <ele>770</ele>
			<time>2016-06-09T13:51:45Z</time>
			</trkpt>
		
			<trkpt lat="45.547250" lon="1.877860">
			 <ele>772</ele>
			<time>2016-06-09T13:53:45Z</time>
			</trkpt>
		
			<trkpt lat="45.547380" lon="1.877860">
			 <ele>773</ele>
			<time>2016-06-09T13:55:45Z</time>
			</trkpt>
		
			<trkpt lat="45.547510" lon="1.877850">
			 <ele>775</ele>
			<time>2016-06-09T13:57:45Z</time>
			</trkpt>
		
			<trkpt lat="45.547600" lon="1.877830">
			 <ele>775</ele>
			<time>2016-06-09T13:59:45Z</time>
			</trkpt>
		
			<trkpt lat="45.547710" lon="1.877820">
			 <ele>776</ele>
			<time>2016-06-09T14:01:45Z</time>
			</trkpt>
		
			<trkpt lat="45.547720" lon="1.877810">
			 <ele>776</ele>
			<time>2016-06-09T14:03:45Z</time>
			</trkpt>
		
			<trkpt lat="45.547790" lon="1.877810">
			 <ele>776</ele>
			<time>2016-06-09T14:05:45Z</time>
			</trkpt>
		
			<trkpt lat="45.547890" lon="1.877800">
			 <ele>777</ele>
			<time>2016-06-09T14:07:45Z</time>
			</trkpt>
		
			<trkpt lat="45.547960" lon="1.877830">
			 <ele>776</ele>
			<time>2016-06-09T14:09:45Z</time>
			</trkpt>
		
			<trkpt lat="45.548020" lon="1.877850">
			 <ele>775</ele>
			<time>2016-06-09T14:11:45Z</time>
			</trkpt>
		
			<trkpt lat="45.548090" lon="1.877900">
			 <ele>774</ele>
			<time>2016-06-09T14:13:45Z</time>
			</trkpt>
		
			<trkpt lat="45.548160" lon="1.877960">
			 <ele>773</ele>
			<time>2016-06-09T14:15:45Z</time>
			</trkpt>
		
			<trkpt lat="45.548230" lon="1.878020">
			 <ele>771</ele>
			<time>2016-06-09T14:17:45Z</time>
			</trkpt>
		
			<trkpt lat="45.548320" lon="1.878060">
			 <ele>770</ele>
			<time>2016-06-09T14:19:45Z</time>
			</trkpt>
		
			<trkpt lat="45.548410" lon="1.878090">
			 <ele>769</ele>
			<time>2016-06-09T14:21:45Z</time>
			</trkpt>
		
			<trkpt lat="45.548540" lon="1.878140">
			 <ele>768</ele>
			<time>2016-06-09T14:23:45Z</time>
			</trkpt>
		
			<trkpt lat="45.548650" lon="1.878150">
			 <ele>768</ele>
			<time>2016-06-09T14:25:45Z</time>
			</trkpt>
		
			<trkpt lat="45.548720" lon="1.878150">
			 <ele>768</ele>
			<time>2016-06-09T14:27:45Z</time>
			</trkpt>
		
			<trkpt lat="45.548850" lon="1.878160">
			 <ele>768</ele>
			<time>2016-06-09T14:29:45Z</time>
			</trkpt>
		
			<trkpt lat="45.548960" lon="1.878160">
			 <ele>768</ele>
			<time>2016-06-09T14:31:45Z</time>
			</trkpt>
		
			<trkpt lat="45.549040" lon="1.878170">
			 <ele>768</ele>
			<time>2016-06-09T14:33:45Z</time>
			</trkpt>
		
			<trkpt lat="45.549140" lon="1.878190">
			 <ele>767</ele>
			<time>2016-06-09T14:35:45Z</time>
			</trkpt>
		
			<trkpt lat="45.549210" lon="1.878230">
			 <ele>766</ele>
			<time>2016-06-09T14:37:45Z</time>
			</trkpt>
		
			<trkpt lat="45.549240" lon="1.878260">
			 <ele>766</ele>
			<time>2016-06-09T14:39:45Z</time>
			</trkpt>
		
			<trkpt lat="45.549290" lon="1.878340">
			 <ele>764</ele>
			<time>2016-06-09T14:41:45Z</time>
			</trkpt>
		
			<trkpt lat="45.549320" lon="1.878420">
			 <ele>763</ele>
			<time>2016-06-09T14:43:45Z</time>
			</trkpt>
		
			<trkpt lat="45.549340" lon="1.878480">
			 <ele>762</ele>
			<time>2016-06-09T14:45:45Z</time>
			</trkpt>
		
			<trkpt lat="45.549360" lon="1.878590">
			 <ele>760</ele>
			<time>2016-06-09T14:47:45Z</time>
			</trkpt>
		
			<trkpt lat="45.549350" lon="1.878690">
			 <ele>759</ele>
			<time>2016-06-09T14:49:45Z</time>
			</trkpt>
		
			<trkpt lat="45.549320" lon="1.878770">
			 <ele>758</ele>
			<time>2016-06-09T14:51:45Z</time>
			</trkpt>
		
			<trkpt lat="45.549280" lon="1.878910">
			 <ele>755</ele>
			<time>2016-06-09T14:53:45Z</time>
			</trkpt>
		
			<trkpt lat="45.549240" lon="1.879060">
			 <ele>753</ele>
			<time>2016-06-09T14:55:45Z</time>
			</trkpt>
		
			<trkpt lat="45.549240" lon="1.879220">
			 <ele>751</ele>
			<time>2016-06-09T14:57:45Z</time>
			</trkpt>
		
			<trkpt lat="45.549240" lon="1.879310">
			 <ele>751</ele>
			<time>2016-06-09T14:59:45Z</time>
			</trkpt>
		
			<trkpt lat="45.549310" lon="1.879470">
			 <ele>750</ele>
			<time>2016-06-09T15:01:45Z</time>
			</trkpt>
		
			<trkpt lat="45.549380" lon="1.879570">
			 <ele>749</ele>
			<time>2016-06-09T15:03:45Z</time>
			</trkpt>
		
			<trkpt lat="45.549450" lon="1.879660">
			 <ele>749</ele>
			<time>2016-06-09T15:05:45Z</time>
			</trkpt>
		
			<trkpt lat="45.549510" lon="1.879740">
			 <ele>748</ele>
			<time>2016-06-09T15:07:45Z</time>
			</trkpt>
		
			<trkpt lat="45.549610" lon="1.879800">
			 <ele>747</ele>
			<time>2016-06-09T15:09:45Z</time>
			</trkpt>
		
			<trkpt lat="45.549670" lon="1.879840">
			 <ele>747</ele>
			<time>2016-06-09T15:11:45Z</time>
			</trkpt>
		
			<trkpt lat="45.549730" lon="1.879860">
			 <ele>747</ele>
			<time>2016-06-09T15:13:45Z</time>
			</trkpt>
		
			<trkpt lat="45.549800" lon="1.879880">
			 <ele>746</ele>
			<time>2016-06-09T15:15:45Z</time>
			</trkpt>
		
			<trkpt lat="45.549870" lon="1.879880">
			 <ele>746</ele>
			<time>2016-06-09T15:17:45Z</time>
			</trkpt>
		
			<trkpt lat="45.549960" lon="1.879850">
			 <ele>746</ele>
			<time>2016-06-09T15:19:45Z</time>
			</trkpt>
		
			<trkpt lat="45.550070" lon="1.879830">
			 <ele>746</ele>
			<time>2016-06-09T15:21:45Z</time>
			</trkpt>
		
			<trkpt lat="45.550190" lon="1.879770">
			 <ele>746</ele>
			<time>2016-06-09T15:23:45Z</time>
			</trkpt>
		
			<trkpt lat="45.550340" lon="1.879680">
			 <ele>746</ele>
			<time>2016-06-09T15:25:45Z</time>
			</trkpt>
		
			<trkpt lat="45.550450" lon="1.879610">
			 <ele>746</ele>
			<time>2016-06-09T15:27:45Z</time>
			</trkpt>
		
			<trkpt lat="45.550520" lon="1.879560">
			 <ele>746</ele>
			<time>2016-06-09T15:29:45Z</time>
			</trkpt>
		
			<trkpt lat="45.550600" lon="1.879540">
			 <ele>745</ele>
			<time>2016-06-09T15:31:45Z</time>
			</trkpt>
		
			<trkpt lat="45.550660" lon="1.879530">
			 <ele>745</ele>
			<time>2016-06-09T15:33:45Z</time>
			</trkpt>
		
			<trkpt lat="45.550730" lon="1.879540">
			 <ele>744</ele>
			<time>2016-06-09T15:35:45Z</time>
			</trkpt>
		
			<trkpt lat="45.550790" lon="1.879570">
			 <ele>743</ele>
			<time>2016-06-09T15:37:45Z</time>
			</trkpt>
		
			<trkpt lat="45.550860" lon="1.879620">
			 <ele>742</ele>
			<time>2016-06-09T15:39:45Z</time>
			</trkpt>
		
			<trkpt lat="45.550900" lon="1.879660">
			 <ele>742</ele>
			<time>2016-06-09T15:41:45Z</time>
			</trkpt>
		
			<trkpt lat="45.550960" lon="1.879740">
			 <ele>741</ele>
			<time>2016-06-09T15:43:45Z</time>
			</trkpt>
		
			<trkpt lat="45.551050" lon="1.879850">
			 <ele>740</ele>
			<time>2016-06-09T15:45:45Z</time>
			</trkpt>
		
			<trkpt lat="45.551120" lon="1.879940">
			 <ele>740</ele>
			<time>2016-06-09T15:47:45Z</time>
			</trkpt>
		
			<trkpt lat="45.551200" lon="1.880060">
			 <ele>739</ele>
			<time>2016-06-09T15:49:45Z</time>
			</trkpt>
		
			<trkpt lat="45.551300" lon="1.880220">
			 <ele>737</ele>
			<time>2016-06-09T15:51:45Z</time>
			</trkpt>
		
			<trkpt lat="45.551410" lon="1.880370">
			 <ele>736</ele>
			<time>2016-06-09T15:53:45Z</time>
			</trkpt>
		
			<trkpt lat="45.551520" lon="1.880540">
			 <ele>734</ele>
			<time>2016-06-09T15:55:45Z</time>
			</trkpt>
		
			<trkpt lat="45.551610" lon="1.880630">
			 <ele>733</ele>
			<time>2016-06-09T15:57:45Z</time>
			</trkpt>
		
			<trkpt lat="45.551670" lon="1.880690">
			 <ele>732</ele>
			<time>2016-06-09T15:59:45Z</time>
			</trkpt>
		
			<trkpt lat="45.551760" lon="1.880750">
			 <ele>731</ele>
			<time>2016-06-09T16:01:45Z</time>
			</trkpt>
		
			<trkpt lat="45.551930" lon="1.880830">
			 <ele>730</ele>
			<time>2016-06-09T16:03:45Z</time>
			</trkpt>
		
			<trkpt lat="45.552130" lon="1.880920">
			 <ele>729</ele>
			<time>2016-06-09T16:05:45Z</time>
			</trkpt>
		
			<trkpt lat="45.552340" lon="1.881030">
			 <ele>728</ele>
			<time>2016-06-09T16:07:45Z</time>
			</trkpt>
		
			<trkpt lat="45.552590" lon="1.881150">
			 <ele>728</ele>
			<time>2016-06-09T16:09:45Z</time>
			</trkpt>
		
			<trkpt lat="45.552790" lon="1.881240">
			 <ele>728</ele>
			<time>2016-06-09T16:11:45Z</time>
			</trkpt>
		
			<trkpt lat="45.552940" lon="1.881310">
			 <ele>728</ele>
			<time>2016-06-09T16:13:45Z</time>
			</trkpt>
		
			<trkpt lat="45.553050" lon="1.881400">
			 <ele>728</ele>
			<time>2016-06-09T16:15:45Z</time>
			</trkpt>
		
			<trkpt lat="45.553170" lon="1.881500">
			 <ele>728</ele>
			<time>2016-06-09T16:17:45Z</time>
			</trkpt>
		
			<trkpt lat="45.553260" lon="1.881590">
			 <ele>728</ele>
			<time>2016-06-09T16:19:45Z</time>
			</trkpt>
		
			<trkpt lat="45.553340" lon="1.881670">
			 <ele>728</ele>
			<time>2016-06-09T16:21:45Z</time>
			</trkpt>
		
			<trkpt lat="45.553400" lon="1.881800">
			 <ele>728</ele>
			<time>2016-06-09T16:23:45Z</time>
			</trkpt>
		
			<trkpt lat="45.553460" lon="1.881950">
			 <ele>727</ele>
			<time>2016-06-09T16:25:45Z</time>
			</trkpt>
		
			<trkpt lat="45.553520" lon="1.882140">
			 <ele>727</ele>
			<time>2016-06-09T16:27:45Z</time>
			</trkpt>
		
			<trkpt lat="45.553590" lon="1.882350">
			 <ele>726</ele>
			<time>2016-06-09T16:29:45Z</time>
			</trkpt>
		
			<trkpt lat="45.553690" lon="1.882610">
			 <ele>724</ele>
			<time>2016-06-09T16:31:45Z</time>
			</trkpt>
		
			<trkpt lat="45.553780" lon="1.882810">
			 <ele>723</ele>
			<time>2016-06-09T16:33:45Z</time>
			</trkpt>
		
			<trkpt lat="45.553790" lon="1.882910">
			 <ele>722</ele>
			<time>2016-06-09T16:35:45Z</time>
			</trkpt>
		
			<trkpt lat="45.553810" lon="1.883020">
			 <ele>721</ele>
			<time>2016-06-09T16:37:45Z</time>
			</trkpt>
		
			<trkpt lat="45.553830" lon="1.883100">
			 <ele>721</ele>
			<time>2016-06-09T16:39:45Z</time>
			</trkpt>
		
			<trkpt lat="45.553870" lon="1.883210">
			 <ele>720</ele>
			<time>2016-06-09T16:41:45Z</time>
			</trkpt>
		
			<trkpt lat="45.553900" lon="1.883310">
			 <ele>720</ele>
			<time>2016-06-09T16:43:45Z</time>
			</trkpt>
		
			<trkpt lat="45.553940" lon="1.883400">
			 <ele>720</ele>
			<time>2016-06-09T16:45:45Z</time>
			</trkpt>
		
			<trkpt lat="45.554070" lon="1.883690">
			 <ele>722</ele>
			<time>2016-06-09T16:47:45Z</time>
			</trkpt>
		
			<trkpt lat="45.554370" lon="1.884240">
			 <ele>725</ele>
			<time>2016-06-09T16:49:45Z</time>
			</trkpt>
		
			<trkpt lat="45.554420" lon="1.884330">
			 <ele>725</ele>
			<time>2016-06-09T16:51:45Z</time>
			</trkpt>
		
			<trkpt lat="45.554450" lon="1.884380">
			 <ele>725</ele>
			<time>2016-06-09T16:53:45Z</time>
			</trkpt>
		
			<trkpt lat="45.554480" lon="1.884460">
			 <ele>725</ele>
			<time>2016-06-09T16:55:45Z</time>
			</trkpt>
		
			<trkpt lat="45.554510" lon="1.884550">
			 <ele>725</ele>
			<time>2016-06-09T16:57:45Z</time>
			</trkpt>
		
			<trkpt lat="45.554530" lon="1.884610">
			 <ele>725</ele>
			<time>2016-06-09T16:59:45Z</time>
			</trkpt>
		
			<trkpt lat="45.554550" lon="1.884660">
			 <ele>725</ele>
			<time>2016-06-09T17:01:45Z</time>
			</trkpt>
		
			<trkpt lat="45.554550" lon="1.884690">
			 <ele>725</ele>
			<time>2016-06-09T17:03:45Z</time>
			</trkpt>
		
			<trkpt lat="45.554550" lon="1.884710">
			 <ele>725</ele>
			<time>2016-06-09T17:05:45Z</time>
			</trkpt>
		
			<trkpt lat="45.554560" lon="1.884750">
			 <ele>725</ele>
			<time>2016-06-09T17:07:45Z</time>
			</trkpt>
		
			<trkpt lat="45.554570" lon="1.884830">
			 <ele>725</ele>
			<time>2016-06-09T17:09:45Z</time>
			</trkpt>
		
			<trkpt lat="45.554570" lon="1.884890">
			 <ele>725</ele>
			<time>2016-06-09T17:11:45Z</time>
			</trkpt>
		
			<trkpt lat="45.554560" lon="1.884980">
			 <ele>725</ele>
			<time>2016-06-09T17:13:45Z</time>
			</trkpt>
		
			<trkpt lat="45.554560" lon="1.885070">
			 <ele>725</ele>
			<time>2016-06-09T17:15:45Z</time>
			</trkpt>
		
			<trkpt lat="45.554420" lon="1.886210">
			 <ele>724</ele>
			<time>2016-06-09T17:17:45Z</time>
			</trkpt>
		
			<trkpt lat="45.554390" lon="1.886500">
			 <ele>723</ele>
			<time>2016-06-09T17:19:45Z</time>
			</trkpt>
		
			<trkpt lat="45.554340" lon="1.886970">
			 <ele>722</ele>
			<time>2016-06-09T17:21:45Z</time>
			</trkpt>
		
			<trkpt lat="45.554330" lon="1.887100">
			 <ele>722</ele>
			<time>2016-06-09T17:23:45Z</time>
			</trkpt>
		
			<trkpt lat="45.554320" lon="1.887170">
			 <ele>722</ele>
			<time>2016-06-09T17:25:45Z</time>
			</trkpt>
		
			<trkpt lat="45.554300" lon="1.887300">
			 <ele>723</ele>
			<time>2016-06-09T17:27:45Z</time>
			</trkpt>
		
			<trkpt lat="45.554280" lon="1.887450">
			 <ele>723</ele>
			<time>2016-06-09T17:29:45Z</time>
			</trkpt>
		
			<trkpt lat="45.554180" lon="1.888260">
			 <ele>723</ele>
			<time>2016-06-09T17:31:45Z</time>
			</trkpt>
		
			<trkpt lat="45.554150" lon="1.888510">
			 <ele>723</ele>
			<time>2016-06-09T17:33:45Z</time>
			</trkpt>
		
			<trkpt lat="45.554130" lon="1.888640">
			 <ele>723</ele>
			<time>2016-06-09T17:35:45Z</time>
			</trkpt>
		
			<trkpt lat="45.554120" lon="1.888760">
			 <ele>722</ele>
			<time>2016-06-09T17:37:45Z</time>
			</trkpt>
		
			<trkpt lat="45.554110" lon="1.888850">
			 <ele>722</ele>
			<time>2016-06-09T17:39:45Z</time>
			</trkpt>
		
			<trkpt lat="45.554120" lon="1.888950">
			 <ele>722</ele>
			<time>2016-06-09T17:41:45Z</time>
			</trkpt>
		
			<trkpt lat="45.554120" lon="1.889030">
			 <ele>722</ele>
			<time>2016-06-09T17:43:45Z</time>
			</trkpt>
		
			<trkpt lat="45.554130" lon="1.889130">
			 <ele>722</ele>
			<time>2016-06-09T17:45:45Z</time>
			</trkpt>
		
			<trkpt lat="45.554140" lon="1.889220">
			 <ele>722</ele>
			<time>2016-06-09T17:47:45Z</time>
			</trkpt>
		
			<trkpt lat="45.554150" lon="1.889280">
			 <ele>722</ele>
			<time>2016-06-09T17:49:45Z</time>
			</trkpt>
		
			<trkpt lat="45.554170" lon="1.889330">
			 <ele>723</ele>
			<time>2016-06-09T17:51:45Z</time>
			</trkpt>
		
			<trkpt lat="45.554190" lon="1.889380">
			 <ele>723</ele>
			<time>2016-06-09T17:53:45Z</time>
			</trkpt>
		
			<trkpt lat="45.554230" lon="1.889430">
			 <ele>723</ele>
			<time>2016-06-09T17:55:45Z</time>
			</trkpt>
		
			<trkpt lat="45.554300" lon="1.889510">
			 <ele>724</ele>
			<time>2016-06-09T17:57:45Z</time>
			</trkpt>
		
			<trkpt lat="45.554480" lon="1.889670">
			 <ele>725</ele>
			<time>2016-06-09T17:59:45Z</time>
			</trkpt>
		
			<trkpt lat="45.554590" lon="1.889770">
			 <ele>725</ele>
			<time>2016-06-09T18:01:45Z</time>
			</trkpt>
		
			<trkpt lat="45.554770" lon="1.889950">
			 <ele>726</ele>
			<time>2016-06-09T18:03:45Z</time>
			</trkpt>
		
			<trkpt lat="45.554990" lon="1.890130">
			 <ele>727</ele>
			<time>2016-06-09T18:05:45Z</time>
			</trkpt>
		
			<trkpt lat="45.555110" lon="1.890250">
			 <ele>728</ele>
			<time>2016-06-09T18:07:45Z</time>
			</trkpt>
		
			<trkpt lat="45.555230" lon="1.890360">
			 <ele>729</ele>
			<time>2016-06-09T18:09:45Z</time>
			</trkpt>
		
			<trkpt lat="45.555350" lon="1.890470">
			 <ele>729</ele>
			<time>2016-06-09T18:11:45Z</time>
			</trkpt>
		
			<trkpt lat="45.555500" lon="1.890610">
			 <ele>730</ele>
			<time>2016-06-09T18:13:45Z</time>
			</trkpt>
		
			<trkpt lat="45.555560" lon="1.890670">
			 <ele>730</ele>
			<time>2016-06-09T18:15:45Z</time>
			</trkpt>
		
			<trkpt lat="45.555650" lon="1.890750">
			 <ele>730</ele>
			<time>2016-06-09T18:17:45Z</time>
			</trkpt>
		
			<trkpt lat="45.555730" lon="1.890840">
			 <ele>731</ele>
			<time>2016-06-09T18:19:45Z</time>
			</trkpt>
		
			<trkpt lat="45.555830" lon="1.890960">
			 <ele>731</ele>
			<time>2016-06-09T18:21:45Z</time>
			</trkpt>
		
			<trkpt lat="45.555900" lon="1.891050">
			 <ele>730</ele>
			<time>2016-06-09T18:23:45Z</time>
			</trkpt>
		
			<trkpt lat="45.555940" lon="1.891090">
			 <ele>730</ele>
			<time>2016-06-09T18:25:45Z</time>
			</trkpt>
		
			<trkpt lat="45.555990" lon="1.891150">
			 <ele>730</ele>
			<time>2016-06-09T18:27:45Z</time>
			</trkpt>
		
			<trkpt lat="45.556030" lon="1.891210">
			 <ele>730</ele>
			<time>2016-06-09T18:29:45Z</time>
			</trkpt>
		
			<trkpt lat="45.556070" lon="1.891250">
			 <ele>730</ele>
			<time>2016-06-09T18:31:45Z</time>
			</trkpt>
		
			<trkpt lat="45.556110" lon="1.891280">
			 <ele>730</ele>
			<time>2016-06-09T18:33:45Z</time>
			</trkpt>
		
			<trkpt lat="45.556180" lon="1.891320">
			 <ele>729</ele>
			<time>2016-06-09T18:35:45Z</time>
			</trkpt>
		
			<trkpt lat="45.556270" lon="1.891360">
			 <ele>729</ele>
			<time>2016-06-09T18:37:45Z</time>
			</trkpt>
		
			<trkpt lat="45.556420" lon="1.891410">
			 <ele>730</ele>
			<time>2016-06-09T18:39:45Z</time>
			</trkpt>
		
			<trkpt lat="45.556430" lon="1.891420">
			 <ele>730</ele>
			<time>2016-06-09T18:41:45Z</time>
			</trkpt>
		
			<trkpt lat="45.556480" lon="1.891430">
			 <ele>730</ele>
			<time>2016-06-09T18:43:45Z</time>
			</trkpt>
		
			<trkpt lat="45.556520" lon="1.891440">
			 <ele>730</ele>
			<time>2016-06-09T18:45:45Z</time>
			</trkpt>
		
			<trkpt lat="45.556570" lon="1.891440">
			 <ele>730</ele>
			<time>2016-06-09T18:47:45Z</time>
			</trkpt>
		
			<trkpt lat="45.556650" lon="1.891430">
			 <ele>730</ele>
			<time>2016-06-09T18:49:45Z</time>
			</trkpt>
		
			<trkpt lat="45.556780" lon="1.891410">
			 <ele>730</ele>
			<time>2016-06-09T18:51:45Z</time>
			</trkpt>
		
			<trkpt lat="45.556880" lon="1.891380">
			 <ele>730</ele>
			<time>2016-06-09T18:53:45Z</time>
			</trkpt>
		
			<trkpt lat="45.556960" lon="1.891350">
			 <ele>730</ele>
			<time>2016-06-09T18:55:45Z</time>
			</trkpt>
		
			<trkpt lat="45.557030" lon="1.891320">
			 <ele>730</ele>
			<time>2016-06-09T18:57:45Z</time>
			</trkpt>
		
			<trkpt lat="45.557070" lon="1.891300">
			 <ele>731</ele>
			<time>2016-06-09T18:59:45Z</time>
			</trkpt>
		
			<trkpt lat="45.557130" lon="1.891270">
			 <ele>731</ele>
			<time>2016-06-09T19:01:45Z</time>
			</trkpt>
		
			<trkpt lat="45.557180" lon="1.891240">
			 <ele>731</ele>
			<time>2016-06-09T19:03:45Z</time>
			</trkpt>
		
			<trkpt lat="45.557220" lon="1.891210">
			 <ele>731</ele>
			<time>2016-06-09T19:05:45Z</time>
			</trkpt>
		
			<trkpt lat="45.557260" lon="1.891180">
			 <ele>731</ele>
			<time>2016-06-09T19:07:45Z</time>
			</trkpt>
		
			<trkpt lat="45.557320" lon="1.891140">
			 <ele>730</ele>
			<time>2016-06-09T19:09:45Z</time>
			</trkpt>
		
			<trkpt lat="45.557410" lon="1.891060">
			 <ele>730</ele>
			<time>2016-06-09T19:11:45Z</time>
			</trkpt>
		
			<trkpt lat="45.557650" lon="1.890840">
			 <ele>731</ele>
			<time>2016-06-09T19:13:45Z</time>
			</trkpt>
		
			<trkpt lat="45.558080" lon="1.890460">
			 <ele>733</ele>
			<time>2016-06-09T19:15:45Z</time>
			</trkpt>
		
			<trkpt lat="45.558310" lon="1.890250">
			 <ele>733</ele>
			<time>2016-06-09T19:17:45Z</time>
			</trkpt>
		
			<trkpt lat="45.558480" lon="1.890100">
			 <ele>732</ele>
			<time>2016-06-09T19:19:45Z</time>
			</trkpt>
		
			<trkpt lat="45.558680" lon="1.889930">
			 <ele>731</ele>
			<time>2016-06-09T19:21:45Z</time>
			</trkpt>
		
			<trkpt lat="45.558750" lon="1.889870">
			 <ele>731</ele>
			<time>2016-06-09T19:23:45Z</time>
			</trkpt>
		
			<trkpt lat="45.558830" lon="1.889810">
			 <ele>731</ele>
			<time>2016-06-09T19:25:45Z</time>
			</trkpt>
		
			<trkpt lat="45.558880" lon="1.889770">
			 <ele>731</ele>
			<time>2016-06-09T19:27:45Z</time>
			</trkpt>
		
			<trkpt lat="45.558930" lon="1.889750">
			 <ele>731</ele>
			<time>2016-06-09T19:29:45Z</time>
			</trkpt>
		
			<trkpt lat="45.558980" lon="1.889740">
			 <ele>731</ele>
			<time>2016-06-09T19:31:45Z</time>
			</trkpt>
		
			<trkpt lat="45.559050" lon="1.889720">
			 <ele>731</ele>
			<time>2016-06-09T19:33:45Z</time>
			</trkpt>
		
			<trkpt lat="45.559100" lon="1.889720">
			 <ele>731</ele>
			<time>2016-06-09T19:35:45Z</time>
			</trkpt>
		
			<trkpt lat="45.559180" lon="1.889720">
			 <ele>731</ele>
			<time>2016-06-09T19:37:45Z</time>
			</trkpt>
		
			<trkpt lat="45.559250" lon="1.889720">
			 <ele>730</ele>
			<time>2016-06-09T19:39:45Z</time>
			</trkpt>
		
			<trkpt lat="45.559310" lon="1.889730">
			 <ele>729</ele>
			<time>2016-06-09T19:41:45Z</time>
			</trkpt>
		
			<trkpt lat="45.559350" lon="1.889740">
			 <ele>729</ele>
			<time>2016-06-09T19:43:45Z</time>
			</trkpt>
		
			<trkpt lat="45.559390" lon="1.889750">
			 <ele>729</ele>
			<time>2016-06-09T19:45:45Z</time>
			</trkpt>
		
			<trkpt lat="45.559440" lon="1.889780">
			 <ele>728</ele>
			<time>2016-06-09T19:47:45Z</time>
			</trkpt>
		
			<trkpt lat="45.559480" lon="1.889820">
			 <ele>728</ele>
			<time>2016-06-09T19:49:45Z</time>
			</trkpt>
		
			<trkpt lat="45.559520" lon="1.889860">
			 <ele>728</ele>
			<time>2016-06-09T19:51:45Z</time>
			</trkpt>
		
			<trkpt lat="45.559570" lon="1.889920">
			 <ele>727</ele>
			<time>2016-06-09T19:53:45Z</time>
			</trkpt>
		
			<trkpt lat="45.559600" lon="1.889970">
			 <ele>727</ele>
			<time>2016-06-09T19:55:45Z</time>
			</trkpt>
		
			<trkpt lat="45.559640" lon="1.890030">
			 <ele>727</ele>
			<time>2016-06-09T19:57:45Z</time>
			</trkpt>
		
			<trkpt lat="45.559670" lon="1.890100">
			 <ele>727</ele>
			<time>2016-06-09T19:59:45Z</time>
			</trkpt>
		
			<trkpt lat="45.559700" lon="1.890170">
			 <ele>726</ele>
			<time>2016-06-09T20:01:45Z</time>
			</trkpt>
		
			<trkpt lat="45.559720" lon="1.890240">
			 <ele>726</ele>
			<time>2016-06-09T20:03:45Z</time>
			</trkpt>
		
			<trkpt lat="45.559740" lon="1.890300">
			 <ele>726</ele>
			<time>2016-06-09T20:05:45Z</time>
			</trkpt>
		
			<trkpt lat="45.559740" lon="1.890360">
			 <ele>726</ele>
			<time>2016-06-09T20:07:45Z</time>
			</trkpt>
		
			<trkpt lat="45.559750" lon="1.890430">
			 <ele>726</ele>
			<time>2016-06-09T20:09:45Z</time>
			</trkpt>
		
			<trkpt lat="45.559750" lon="1.890490">
			 <ele>726</ele>
			<time>2016-06-09T20:11:45Z</time>
			</trkpt>
		
			<trkpt lat="45.559750" lon="1.890560">
			 <ele>726</ele>
			<time>2016-06-09T20:13:45Z</time>
			</trkpt>
		
			<trkpt lat="45.559740" lon="1.890670">
			 <ele>726</ele>
			<time>2016-06-09T20:15:45Z</time>
			</trkpt>
		
			<trkpt lat="45.559730" lon="1.890780">
			 <ele>726</ele>
			<time>2016-06-09T20:17:45Z</time>
			</trkpt>
		
			<trkpt lat="45.559650" lon="1.891380">
			 <ele>731</ele>
			<time>2016-06-09T20:19:45Z</time>
			</trkpt>
		
			<trkpt lat="45.559610" lon="1.891710">
			 <ele>733</ele>
			<time>2016-06-09T20:21:45Z</time>
			</trkpt>
		
			<trkpt lat="45.559580" lon="1.891900">
			 <ele>733</ele>
			<time>2016-06-09T20:23:45Z</time>
			</trkpt>
		
			<trkpt lat="45.559560" lon="1.892100">
			 <ele>734</ele>
			<time>2016-06-09T20:25:45Z</time>
			</trkpt>
		
			<trkpt lat="45.559530" lon="1.892320">
			 <ele>734</ele>
			<time>2016-06-09T20:27:45Z</time>
			</trkpt>
		
			<trkpt lat="45.559510" lon="1.892450">
			 <ele>735</ele>
			<time>2016-06-09T20:29:45Z</time>
			</trkpt>
		
			<trkpt lat="45.559510" lon="1.892550">
			 <ele>734</ele>
			<time>2016-06-09T20:31:45Z</time>
			</trkpt>
		
			<trkpt lat="45.559510" lon="1.892630">
			 <ele>734</ele>
			<time>2016-06-09T20:33:45Z</time>
			</trkpt>
		
			<trkpt lat="45.559510" lon="1.892710">
			 <ele>734</ele>
			<time>2016-06-09T20:35:45Z</time>
			</trkpt>
		
			<trkpt lat="45.559510" lon="1.892790">
			 <ele>733</ele>
			<time>2016-06-09T20:37:45Z</time>
			</trkpt>
		
			<trkpt lat="45.559530" lon="1.892860">
			 <ele>733</ele>
			<time>2016-06-09T20:39:45Z</time>
			</trkpt>
		
			<trkpt lat="45.559540" lon="1.892930">
			 <ele>733</ele>
			<time>2016-06-09T20:41:45Z</time>
			</trkpt>
		
			<trkpt lat="45.559570" lon="1.893000">
			 <ele>733</ele>
			<time>2016-06-09T20:43:45Z</time>
			</trkpt>
		
			<trkpt lat="45.559600" lon="1.893060">
			 <ele>733</ele>
			<time>2016-06-09T20:45:45Z</time>
			</trkpt>
		
			<trkpt lat="45.559640" lon="1.893120">
			 <ele>733</ele>
			<time>2016-06-09T20:47:45Z</time>
			</trkpt>
		
			<trkpt lat="45.559680" lon="1.893180">
			 <ele>733</ele>
			<time>2016-06-09T20:49:45Z</time>
			</trkpt>
		
			<trkpt lat="45.559730" lon="1.893230">
			 <ele>733</ele>
			<time>2016-06-09T20:51:45Z</time>
			</trkpt>
		
			<trkpt lat="45.559780" lon="1.893270">
			 <ele>733</ele>
			<time>2016-06-09T20:53:45Z</time>
			</trkpt>
		
			<trkpt lat="45.559820" lon="1.893300">
			 <ele>734</ele>
			<time>2016-06-09T20:55:45Z</time>
			</trkpt>
		
			<trkpt lat="45.559870" lon="1.893320">
			 <ele>734</ele>
			<time>2016-06-09T20:57:45Z</time>
			</trkpt>
		
			<trkpt lat="45.559950" lon="1.893350">
			 <ele>735</ele>
			<time>2016-06-09T20:59:45Z</time>
			</trkpt>
		
			<trkpt lat="45.560140" lon="1.893390">
			 <ele>737</ele>
			<time>2016-06-09T21:01:45Z</time>
			</trkpt>
		
			<trkpt lat="45.560310" lon="1.893430">
			 <ele>739</ele>
			<time>2016-06-09T21:03:45Z</time>
			</trkpt>
		
			<trkpt lat="45.560380" lon="1.893460">
			 <ele>740</ele>
			<time>2016-06-09T21:05:45Z</time>
			</trkpt>
		
			<trkpt lat="45.560460" lon="1.893490">
			 <ele>740</ele>
			<time>2016-06-09T21:07:45Z</time>
			</trkpt>
		
			<trkpt lat="45.560510" lon="1.893510">
			 <ele>741</ele>
			<time>2016-06-09T21:09:45Z</time>
			</trkpt>
		
			<trkpt lat="45.560550" lon="1.893540">
			 <ele>742</ele>
			<time>2016-06-09T21:11:45Z</time>
			</trkpt>
		
			<trkpt lat="45.560590" lon="1.893560">
			 <ele>742</ele>
			<time>2016-06-09T21:13:45Z</time>
			</trkpt>
		
			<trkpt lat="45.560620" lon="1.893600">
			 <ele>742</ele>
			<time>2016-06-09T21:15:45Z</time>
			</trkpt>
		
			<trkpt lat="45.560670" lon="1.893640">
			 <ele>743</ele>
			<time>2016-06-09T21:17:45Z</time>
			</trkpt>
		
			<trkpt lat="45.560730" lon="1.893710">
			 <ele>744</ele>
			<time>2016-06-09T21:19:45Z</time>
			</trkpt>
		
			<trkpt lat="45.560860" lon="1.893900">
			 <ele>745</ele>
			<time>2016-06-09T21:21:45Z</time>
			</trkpt>
		
			<trkpt lat="45.561260" lon="1.894450">
			 <ele>748</ele>
			<time>2016-06-09T21:23:45Z</time>
			</trkpt>
		
			<trkpt lat="45.561320" lon="1.894530">
			 <ele>748</ele>
			<time>2016-06-09T21:25:45Z</time>
			</trkpt>
		
			<trkpt lat="45.561360" lon="1.894590">
			 <ele>748</ele>
			<time>2016-06-09T21:27:45Z</time>
			</trkpt>
		
			<trkpt lat="45.561400" lon="1.894650">
			 <ele>749</ele>
			<time>2016-06-09T21:29:45Z</time>
			</trkpt>
		
			<trkpt lat="45.561430" lon="1.894710">
			 <ele>749</ele>
			<time>2016-06-09T21:31:45Z</time>
			</trkpt>
		
			<trkpt lat="45.561450" lon="1.894760">
			 <ele>749</ele>
			<time>2016-06-09T21:33:45Z</time>
			</trkpt>
		
			<trkpt lat="45.561480" lon="1.894840">
			 <ele>750</ele>
			<time>2016-06-09T21:35:45Z</time>
			</trkpt>
		
			<trkpt lat="45.561500" lon="1.894910">
			 <ele>750</ele>
			<time>2016-06-09T21:37:45Z</time>
			</trkpt>
		
			<trkpt lat="45.561520" lon="1.894970">
			 <ele>751</ele>
			<time>2016-06-09T21:39:45Z</time>
			</trkpt>
		
			<trkpt lat="45.561540" lon="1.895060">
			 <ele>750</ele>
			<time>2016-06-09T21:41:45Z</time>
			</trkpt>
		
			<trkpt lat="45.561580" lon="1.895400">
			 <ele>749</ele>
			<time>2016-06-09T21:43:45Z</time>
			</trkpt>
		
			<trkpt lat="45.561580" lon="1.895440">
			 <ele>749</ele>
			<time>2016-06-09T21:45:45Z</time>
			</trkpt>
		
			<trkpt lat="45.561600" lon="1.895650">
			 <ele>747</ele>
			<time>2016-06-09T21:47:45Z</time>
			</trkpt>
		
			<trkpt lat="45.561620" lon="1.895780">
			 <ele>747</ele>
			<time>2016-06-09T21:49:45Z</time>
			</trkpt>
		
			<trkpt lat="45.561630" lon="1.895880">
			 <ele>746</ele>
			<time>2016-06-09T21:51:45Z</time>
			</trkpt>
		
			<trkpt lat="45.561640" lon="1.895970">
			 <ele>746</ele>
			<time>2016-06-09T21:53:45Z</time>
			</trkpt>
		
			<trkpt lat="45.561660" lon="1.896070">
			 <ele>745</ele>
			<time>2016-06-09T21:55:45Z</time>
			</trkpt>
		
			<trkpt lat="45.561680" lon="1.896130">
			 <ele>745</ele>
			<time>2016-06-09T21:57:45Z</time>
			</trkpt>
		
			<trkpt lat="45.561700" lon="1.896200">
			 <ele>745</ele>
			<time>2016-06-09T21:59:45Z</time>
			</trkpt>
		
			<trkpt lat="45.561720" lon="1.896260">
			 <ele>744</ele>
			<time>2016-06-09T22:01:45Z</time>
			</trkpt>
		
			<trkpt lat="45.561760" lon="1.896320">
			 <ele>744</ele>
			<time>2016-06-09T22:03:45Z</time>
			</trkpt>
		
			<trkpt lat="45.561790" lon="1.896370">
			 <ele>744</ele>
			<time>2016-06-09T22:05:45Z</time>
			</trkpt>
		
			<trkpt lat="45.561830" lon="1.896420">
			 <ele>744</ele>
			<time>2016-06-09T22:07:45Z</time>
			</trkpt>
		
			<trkpt lat="45.561860" lon="1.896450">
			 <ele>744</ele>
			<time>2016-06-09T22:09:45Z</time>
			</trkpt>
		
			<trkpt lat="45.561900" lon="1.896490">
			 <ele>743</ele>
			<time>2016-06-09T22:11:45Z</time>
			</trkpt>
		
			<trkpt lat="45.561940" lon="1.896520">
			 <ele>743</ele>
			<time>2016-06-09T22:13:45Z</time>
			</trkpt>
		
			<trkpt lat="45.561980" lon="1.896540">
			 <ele>743</ele>
			<time>2016-06-09T22:15:45Z</time>
			</trkpt>
		
			<trkpt lat="45.562030" lon="1.896560">
			 <ele>743</ele>
			<time>2016-06-09T22:17:45Z</time>
			</trkpt>
		
			<trkpt lat="45.562120" lon="1.896580">
			 <ele>743</ele>
			<time>2016-06-09T22:19:45Z</time>
			</trkpt>
		
			<trkpt lat="45.562240" lon="1.896600">
			 <ele>743</ele>
			<time>2016-06-09T22:21:45Z</time>
			</trkpt>
		
			<trkpt lat="45.562380" lon="1.896620">
			 <ele>743</ele>
			<time>2016-06-09T22:23:45Z</time>
			</trkpt>
		
			<trkpt lat="45.562470" lon="1.896630">
			 <ele>743</ele>
			<time>2016-06-09T22:25:45Z</time>
			</trkpt>
		
			<trkpt lat="45.562520" lon="1.896640">
			 <ele>743</ele>
			<time>2016-06-09T22:27:45Z</time>
			</trkpt>
		
			<trkpt lat="45.562590" lon="1.896660">
			 <ele>742</ele>
			<time>2016-06-09T22:29:45Z</time>
			</trkpt>
		
			<trkpt lat="45.562640" lon="1.896670">
			 <ele>742</ele>
			<time>2016-06-09T22:31:45Z</time>
			</trkpt>
		
			<trkpt lat="45.562700" lon="1.896690">
			 <ele>742</ele>
			<time>2016-06-09T22:33:45Z</time>
			</trkpt>
		
			<trkpt lat="45.562760" lon="1.896720">
			 <ele>742</ele>
			<time>2016-06-09T22:35:45Z</time>
			</trkpt>
		
			<trkpt lat="45.562830" lon="1.896740">
			 <ele>742</ele>
			<time>2016-06-09T22:37:45Z</time>
			</trkpt>
		
			<trkpt lat="45.562950" lon="1.896800">
			 <ele>741</ele>
			<time>2016-06-09T22:39:45Z</time>
			</trkpt>
		
			<trkpt lat="45.563050" lon="1.896850">
			 <ele>741</ele>
			<time>2016-06-09T22:41:45Z</time>
			</trkpt>
		
			<trkpt lat="45.563130" lon="1.896900">
			 <ele>741</ele>
			<time>2016-06-09T22:43:45Z</time>
			</trkpt>
		
			<trkpt lat="45.563180" lon="1.896940">
			 <ele>741</ele>
			<time>2016-06-09T22:45:45Z</time>
			</trkpt>
		
			<trkpt lat="45.563220" lon="1.896970">
			 <ele>740</ele>
			<time>2016-06-09T22:47:45Z</time>
			</trkpt>
		
			<trkpt lat="45.563260" lon="1.897010">
			 <ele>740</ele>
			<time>2016-06-09T22:49:45Z</time>
			</trkpt>
		
			<trkpt lat="45.563280" lon="1.897050">
			 <ele>740</ele>
			<time>2016-06-09T22:51:45Z</time>
			</trkpt>
		
			<trkpt lat="45.563310" lon="1.897090">
			 <ele>740</ele>
			<time>2016-06-09T22:53:45Z</time>
			</trkpt>
		
			<trkpt lat="45.563340" lon="1.897150">
			 <ele>740</ele>
			<time>2016-06-09T22:55:45Z</time>
			</trkpt>
		
			<trkpt lat="45.563400" lon="1.897270">
			 <ele>741</ele>
			<time>2016-06-09T22:57:45Z</time>
			</trkpt>
		
			<trkpt lat="45.563460" lon="1.897410">
			 <ele>741</ele>
			<time>2016-06-09T22:59:45Z</time>
			</trkpt>
		
			<trkpt lat="45.563500" lon="1.897490">
			 <ele>741</ele>
			<time>2016-06-09T23:01:45Z</time>
			</trkpt>
		
			<trkpt lat="45.563530" lon="1.897530">
			 <ele>742</ele>
			<time>2016-06-09T23:03:45Z</time>
			</trkpt>
		
			<trkpt lat="45.563550" lon="1.897570">
			 <ele>742</ele>
			<time>2016-06-09T23:05:45Z</time>
			</trkpt>
		
			<trkpt lat="45.563570" lon="1.897590">
			 <ele>742</ele>
			<time>2016-06-09T23:07:45Z</time>
			</trkpt>
		
			<trkpt lat="45.563580" lon="1.897600">
			 <ele>742</ele>
			<time>2016-06-09T23:09:45Z</time>
			</trkpt>
		
			<trkpt lat="45.563600" lon="1.897630">
			 <ele>743</ele>
			<time>2016-06-09T23:11:45Z</time>
			</trkpt>
		
			<trkpt lat="45.563630" lon="1.897670">
			 <ele>743</ele>
			<time>2016-06-09T23:13:45Z</time>
			</trkpt>
		
			<trkpt lat="45.563670" lon="1.897700">
			 <ele>744</ele>
			<time>2016-06-09T23:15:45Z</time>
			</trkpt>
		
			<trkpt lat="45.563690" lon="1.897720">
			 <ele>744</ele>
			<time>2016-06-09T23:17:45Z</time>
			</trkpt>
		
			<trkpt lat="45.563720" lon="1.897750">
			 <ele>744</ele>
			<time>2016-06-09T23:19:45Z</time>
			</trkpt>
		
			<trkpt lat="45.563750" lon="1.897760">
			 <ele>744</ele>
			<time>2016-06-09T23:21:45Z</time>
			</trkpt>
		
			<trkpt lat="45.563780" lon="1.897780">
			 <ele>744</ele>
			<time>2016-06-09T23:23:45Z</time>
			</trkpt>
		
			<trkpt lat="45.563820" lon="1.897790">
			 <ele>744</ele>
			<time>2016-06-09T23:25:45Z</time>
			</trkpt>
		
			<trkpt lat="45.563870" lon="1.897800">
			 <ele>744</ele>
			<time>2016-06-09T23:27:45Z</time>
			</trkpt>
		
			<trkpt lat="45.563920" lon="1.897800">
			 <ele>744</ele>
			<time>2016-06-09T23:29:45Z</time>
			</trkpt>
		
			<trkpt lat="45.563980" lon="1.897820">
			 <ele>744</ele>
			<time>2016-06-09T23:31:45Z</time>
			</trkpt>
		
			<trkpt lat="45.564030" lon="1.897830">
			 <ele>744</ele>
			<time>2016-06-09T23:33:45Z</time>
			</trkpt>
		
			<trkpt lat="45.564080" lon="1.897850">
			 <ele>744</ele>
			<time>2016-06-09T23:35:45Z</time>
			</trkpt>
		
			<trkpt lat="45.564120" lon="1.897860">
			 <ele>744</ele>
			<time>2016-06-09T23:37:45Z</time>
			</trkpt>
		
			<trkpt lat="45.564170" lon="1.897900">
			 <ele>745</ele>
			<time>2016-06-09T23:39:45Z</time>
			</trkpt>
		
			<trkpt lat="45.564240" lon="1.897940">
			 <ele>745</ele>
			<time>2016-06-09T23:41:45Z</time>
			</trkpt>
		
			<trkpt lat="45.564390" lon="1.898020">
			 <ele>745</ele>
			<time>2016-06-09T23:43:45Z</time>
			</trkpt>
		
			<trkpt lat="45.564620" lon="1.898170">
			 <ele>746</ele>
			<time>2016-06-09T23:45:45Z</time>
			</trkpt>
		
			<trkpt lat="45.564740" lon="1.898250">
			 <ele>746</ele>
			<time>2016-06-09T23:47:45Z</time>
			</trkpt>
		
			<trkpt lat="45.564790" lon="1.898290">
			 <ele>745</ele>
			<time>2016-06-09T23:49:45Z</time>
			</trkpt>
		
			<trkpt lat="45.564830" lon="1.898320">
			 <ele>745</ele>
			<time>2016-06-09T23:51:45Z</time>
			</trkpt>
		
			<trkpt lat="45.564860" lon="1.898360">
			 <ele>746</ele>
			<time>2016-06-09T23:53:45Z</time>
			</trkpt>
		
			<trkpt lat="45.564900" lon="1.898400">
			 <ele>746</ele>
			<time>2016-06-09T23:55:45Z</time>
			</trkpt>
		
			<trkpt lat="45.564920" lon="1.898440">
			 <ele>746</ele>
			<time>2016-06-09T23:57:45Z</time>
			</trkpt>
		
			<trkpt lat="45.564960" lon="1.898490">
			 <ele>746</ele>
			<time>2016-06-09T23:59:45Z</time>
			</trkpt>
		
			<trkpt lat="45.564980" lon="1.898550">
			 <ele>747</ele>
			<time>2016-06-10T00:01:45Z</time>
			</trkpt>
		
			<trkpt lat="45.565010" lon="1.898630">
			 <ele>748</ele>
			<time>2016-06-10T00:03:45Z</time>
			</trkpt>
		
			<trkpt lat="45.565050" lon="1.898760">
			 <ele>750</ele>
			<time>2016-06-10T00:05:45Z</time>
			</trkpt>
		
			<trkpt lat="45.565080" lon="1.898850">
			 <ele>751</ele>
			<time>2016-06-10T00:07:45Z</time>
			</trkpt>
		
			<trkpt lat="45.565110" lon="1.898990">
			 <ele>753</ele>
			<time>2016-06-10T00:09:45Z</time>
			</trkpt>
		
			<trkpt lat="45.565140" lon="1.899110">
			 <ele>755</ele>
			<time>2016-06-10T00:11:45Z</time>
			</trkpt>
		
			<trkpt lat="45.565160" lon="1.899180">
			 <ele>755</ele>
			<time>2016-06-10T00:13:45Z</time>
			</trkpt>
		
			<trkpt lat="45.565200" lon="1.899460">
			 <ele>756</ele>
			<time>2016-06-10T00:15:45Z</time>
			</trkpt>
		
			<trkpt lat="45.565280" lon="1.900240">
			 <ele>755</ele>
			<time>2016-06-10T00:17:45Z</time>
			</trkpt>
		
			<trkpt lat="45.565310" lon="1.900510">
			 <ele>754</ele>
			<time>2016-06-10T00:19:45Z</time>
			</trkpt>
		
			<trkpt lat="45.565310" lon="1.900630">
			 <ele>754</ele>
			<time>2016-06-10T00:21:45Z</time>
			</trkpt>
		
			<trkpt lat="45.565310" lon="1.900750">
			 <ele>753</ele>
			<time>2016-06-10T00:23:45Z</time>
			</trkpt>
		
			<trkpt lat="45.565290" lon="1.900860">
			 <ele>753</ele>
			<time>2016-06-10T00:25:45Z</time>
			</trkpt>
		
			<trkpt lat="45.565270" lon="1.900980">
			 <ele>753</ele>
			<time>2016-06-10T00:27:45Z</time>
			</trkpt>
		
			<trkpt lat="45.565230" lon="1.901160">
			 <ele>753</ele>
			<time>2016-06-10T00:29:45Z</time>
			</trkpt>
		
			<trkpt lat="45.565210" lon="1.901280">
			 <ele>753</ele>
			<time>2016-06-10T00:31:45Z</time>
			</trkpt>
		
			<trkpt lat="45.565190" lon="1.901420">
			 <ele>752</ele>
			<time>2016-06-10T00:33:45Z</time>
			</trkpt>
		
			<trkpt lat="45.565180" lon="1.901530">
			 <ele>752</ele>
			<time>2016-06-10T00:35:45Z</time>
			</trkpt>
		
			<trkpt lat="45.565180" lon="1.901620">
			 <ele>752</ele>
			<time>2016-06-10T00:37:45Z</time>
			</trkpt>
		
			<trkpt lat="45.565190" lon="1.901700">
			 <ele>752</ele>
			<time>2016-06-10T00:39:45Z</time>
			</trkpt>
		
			<trkpt lat="45.565210" lon="1.901790">
			 <ele>753</ele>
			<time>2016-06-10T00:41:45Z</time>
			</trkpt>
		
			<trkpt lat="45.565250" lon="1.901960">
			 <ele>754</ele>
			<time>2016-06-10T00:43:45Z</time>
			</trkpt>
		
			<trkpt lat="45.565280" lon="1.902060">
			 <ele>754</ele>
			<time>2016-06-10T00:45:45Z</time>
			</trkpt>
		
			<trkpt lat="45.565330" lon="1.902140">
			 <ele>755</ele>
			<time>2016-06-10T00:47:45Z</time>
			</trkpt>
		
			<trkpt lat="45.565360" lon="1.902190">
			 <ele>755</ele>
			<time>2016-06-10T00:49:45Z</time>
			</trkpt>
		
			<trkpt lat="45.565400" lon="1.902230">
			 <ele>755</ele>
			<time>2016-06-10T00:51:45Z</time>
			</trkpt>
		
			<trkpt lat="45.565440" lon="1.902260">
			 <ele>755</ele>
			<time>2016-06-10T00:53:45Z</time>
			</trkpt>
		
			<trkpt lat="45.565500" lon="1.902290">
			 <ele>755</ele>
			<time>2016-06-10T00:55:45Z</time>
			</trkpt>
		
			<trkpt lat="45.565730" lon="1.902320">
			 <ele>754</ele>
			<time>2016-06-10T00:57:45Z</time>
			</trkpt>
		
			<trkpt lat="45.565900" lon="1.902350">
			 <ele>753</ele>
			<time>2016-06-10T00:59:45Z</time>
			</trkpt>
		
			<trkpt lat="45.566070" lon="1.902380">
			 <ele>754</ele>
			<time>2016-06-10T01:01:45Z</time>
			</trkpt>
		
			<trkpt lat="45.566180" lon="1.902410">
			 <ele>754</ele>
			<time>2016-06-10T01:03:45Z</time>
			</trkpt>
		
			<trkpt lat="45.566240" lon="1.902440">
			 <ele>754</ele>
			<time>2016-06-10T01:05:45Z</time>
			</trkpt>
		
			<trkpt lat="45.566280" lon="1.902470">
			 <ele>755</ele>
			<time>2016-06-10T01:07:45Z</time>
			</trkpt>
		
			<trkpt lat="45.566340" lon="1.902510">
			 <ele>755</ele>
			<time>2016-06-10T01:09:45Z</time>
			</trkpt>
		
			<trkpt lat="45.566410" lon="1.902580">
			 <ele>755</ele>
			<time>2016-06-10T01:11:45Z</time>
			</trkpt>
		
			<trkpt lat="45.566520" lon="1.902690">
			 <ele>755</ele>
			<time>2016-06-10T01:13:45Z</time>
			</trkpt>
		
			<trkpt lat="45.566640" lon="1.902800">
			 <ele>756</ele>
			<time>2016-06-10T01:15:45Z</time>
			</trkpt>
		
			<trkpt lat="45.566800" lon="1.902960">
			 <ele>757</ele>
			<time>2016-06-10T01:17:45Z</time>
			</trkpt>
		
			<trkpt lat="45.566890" lon="1.903050">
			 <ele>757</ele>
			<time>2016-06-10T01:19:45Z</time>
			</trkpt>
		
			<trkpt lat="45.566940" lon="1.903110">
			 <ele>757</ele>
			<time>2016-06-10T01:21:45Z</time>
			</trkpt>
		
			<trkpt lat="45.566980" lon="1.903160">
			 <ele>758</ele>
			<time>2016-06-10T01:23:45Z</time>
			</trkpt>
		
			<trkpt lat="45.567030" lon="1.903220">
			 <ele>758</ele>
			<time>2016-06-10T01:25:45Z</time>
			</trkpt>
		
			<trkpt lat="45.567080" lon="1.903310">
			 <ele>758</ele>
			<time>2016-06-10T01:27:45Z</time>
			</trkpt>
		
			<trkpt lat="45.567130" lon="1.903390">
			 <ele>757</ele>
			<time>2016-06-10T01:29:45Z</time>
			</trkpt>
		
			<trkpt lat="45.567170" lon="1.903500">
			 <ele>757</ele>
			<time>2016-06-10T01:31:45Z</time>
			</trkpt>
		
			<trkpt lat="45.567220" lon="1.903620">
			 <ele>756</ele>
			<time>2016-06-10T01:33:45Z</time>
			</trkpt>
		
			<trkpt lat="45.567260" lon="1.903760">
			 <ele>756</ele>
			<time>2016-06-10T01:35:45Z</time>
			</trkpt>
		
			<trkpt lat="45.567300" lon="1.903900">
			 <ele>755</ele>
			<time>2016-06-10T01:37:45Z</time>
			</trkpt>
		
			<trkpt lat="45.567310" lon="1.903960">
			 <ele>755</ele>
			<time>2016-06-10T01:39:45Z</time>
			</trkpt>
		
			<trkpt lat="45.567360" lon="1.904140">
			 <ele>754</ele>
			<time>2016-06-10T01:41:45Z</time>
			</trkpt>
		
			<trkpt lat="45.567430" lon="1.904360">
			 <ele>753</ele>
			<time>2016-06-10T01:43:45Z</time>
			</trkpt>
		
			<trkpt lat="45.567490" lon="1.904550">
			 <ele>753</ele>
			<time>2016-06-10T01:45:45Z</time>
			</trkpt>
		
			<trkpt lat="45.567540" lon="1.904680">
			 <ele>753</ele>
			<time>2016-06-10T01:47:45Z</time>
			</trkpt>
		
			<trkpt lat="45.567580" lon="1.904770">
			 <ele>752</ele>
			<time>2016-06-10T01:49:45Z</time>
			</trkpt>
		
			<trkpt lat="45.567620" lon="1.904830">
			 <ele>752</ele>
			<time>2016-06-10T01:51:45Z</time>
			</trkpt>
		
			<trkpt lat="45.567660" lon="1.904890">
			 <ele>751</ele>
			<time>2016-06-10T01:53:45Z</time>
			</trkpt>
		
			<trkpt lat="45.567710" lon="1.904920">
			 <ele>751</ele>
			<time>2016-06-10T01:55:45Z</time>
			</trkpt>
		
			<trkpt lat="45.567840" lon="1.904980">
			 <ele>750</ele>
			<time>2016-06-10T01:57:45Z</time>
			</trkpt>
		
			<trkpt lat="45.568020" lon="1.905030">
			 <ele>748</ele>
			<time>2016-06-10T01:59:45Z</time>
			</trkpt>
		
			<trkpt lat="45.568340" lon="1.905160">
			 <ele>747</ele>
			<time>2016-06-10T02:01:45Z</time>
			</trkpt>
		
			<trkpt lat="45.568440" lon="1.905180">
			 <ele>747</ele>
			<time>2016-06-10T02:03:45Z</time>
			</trkpt>
		
			<trkpt lat="45.568500" lon="1.905190">
			 <ele>747</ele>
			<time>2016-06-10T02:05:45Z</time>
			</trkpt>
		
			<trkpt lat="45.568560" lon="1.905180">
			 <ele>747</ele>
			<time>2016-06-10T02:07:45Z</time>
			</trkpt>
		
			<trkpt lat="45.568610" lon="1.905170">
			 <ele>747</ele>
			<time>2016-06-10T02:09:45Z</time>
			</trkpt>
		
			<trkpt lat="45.568650" lon="1.905160">
			 <ele>747</ele>
			<time>2016-06-10T02:11:45Z</time>
			</trkpt>
		
			<trkpt lat="45.568700" lon="1.905130">
			 <ele>747</ele>
			<time>2016-06-10T02:13:45Z</time>
			</trkpt>
		
			<trkpt lat="45.568750" lon="1.905080">
			 <ele>746</ele>
			<time>2016-06-10T02:15:45Z</time>
			</trkpt>
		
			<trkpt lat="45.568800" lon="1.905020">
			 <ele>746</ele>
			<time>2016-06-10T02:17:45Z</time>
			</trkpt>
		
			<trkpt lat="45.568860" lon="1.904940">
			 <ele>746</ele>
			<time>2016-06-10T02:19:45Z</time>
			</trkpt>
		
			<trkpt lat="45.568900" lon="1.904880">
			 <ele>747</ele>
			<time>2016-06-10T02:21:45Z</time>
			</trkpt>
		
			<trkpt lat="45.568930" lon="1.904820">
			 <ele>747</ele>
			<time>2016-06-10T02:23:45Z</time>
			</trkpt>
		
			<trkpt lat="45.568960" lon="1.904760">
			 <ele>747</ele>
			<time>2016-06-10T02:25:45Z</time>
			</trkpt>
		
			<trkpt lat="45.568990" lon="1.904690">
			 <ele>747</ele>
			<time>2016-06-10T02:27:45Z</time>
			</trkpt>
		
			<trkpt lat="45.569030" lon="1.904630">
			 <ele>748</ele>
			<time>2016-06-10T02:29:45Z</time>
			</trkpt>
		
			<trkpt lat="45.569070" lon="1.904560">
			 <ele>748</ele>
			<time>2016-06-10T02:31:45Z</time>
			</trkpt>
		
			<trkpt lat="45.569100" lon="1.904520">
			 <ele>748</ele>
			<time>2016-06-10T02:33:45Z</time>
			</trkpt>
		
			<trkpt lat="45.569140" lon="1.904480">
			 <ele>747</ele>
			<time>2016-06-10T02:35:45Z</time>
			</trkpt>
		
			<trkpt lat="45.569200" lon="1.904430">
			 <ele>747</ele>
			<time>2016-06-10T02:37:45Z</time>
			</trkpt>
		
			<trkpt lat="45.569250" lon="1.904400">
			 <ele>747</ele>
			<time>2016-06-10T02:39:45Z</time>
			</trkpt>
		
			<trkpt lat="45.569310" lon="1.904370">
			 <ele>746</ele>
			<time>2016-06-10T02:41:45Z</time>
			</trkpt>
		
			<trkpt lat="45.569380" lon="1.904350">
			 <ele>746</ele>
			<time>2016-06-10T02:43:45Z</time>
			</trkpt>
		
			<trkpt lat="45.569450" lon="1.904340">
			 <ele>745</ele>
			<time>2016-06-10T02:45:45Z</time>
			</trkpt>
		
			<trkpt lat="45.569510" lon="1.904360">
			 <ele>745</ele>
			<time>2016-06-10T02:47:45Z</time>
			</trkpt>
		
			<trkpt lat="45.569570" lon="1.904380">
			 <ele>744</ele>
			<time>2016-06-10T02:49:45Z</time>
			</trkpt>
		
			<trkpt lat="45.569680" lon="1.904430">
			 <ele>744</ele>
			<time>2016-06-10T02:51:45Z</time>
			</trkpt>
		
			<trkpt lat="45.569800" lon="1.904490">
			 <ele>743</ele>
			<time>2016-06-10T02:53:45Z</time>
			</trkpt>
		
			<trkpt lat="45.569870" lon="1.904550">
			 <ele>743</ele>
			<time>2016-06-10T02:55:45Z</time>
			</trkpt>
		
			<trkpt lat="45.569940" lon="1.904620">
			 <ele>743</ele>
			<time>2016-06-10T02:57:45Z</time>
			</trkpt>
		
			<trkpt lat="45.570030" lon="1.904670">
			 <ele>743</ele>
			<time>2016-06-10T02:59:45Z</time>
			</trkpt>
		
			<trkpt lat="45.570100" lon="1.904710">
			 <ele>743</ele>
			<time>2016-06-10T03:01:45Z</time>
			</trkpt>
		
			<trkpt lat="45.570150" lon="1.904740">
			 <ele>743</ele>
			<time>2016-06-10T03:03:45Z</time>
			</trkpt>
		
			<trkpt lat="45.570190" lon="1.904740">
			 <ele>743</ele>
			<time>2016-06-10T03:05:45Z</time>
			</trkpt>
		
			<trkpt lat="45.570230" lon="1.904740">
			 <ele>743</ele>
			<time>2016-06-10T03:07:45Z</time>
			</trkpt>
		
			<trkpt lat="45.570270" lon="1.904740">
			 <ele>743</ele>
			<time>2016-06-10T03:09:45Z</time>
			</trkpt>
		
			<trkpt lat="45.570320" lon="1.904720">
			 <ele>742</ele>
			<time>2016-06-10T03:11:45Z</time>
			</trkpt>
		
			<trkpt lat="45.570380" lon="1.904700">
			 <ele>742</ele>
			<time>2016-06-10T03:13:45Z</time>
			</trkpt>
		
			<trkpt lat="45.570450" lon="1.904670">
			 <ele>741</ele>
			<time>2016-06-10T03:15:45Z</time>
			</trkpt>
		
			<trkpt lat="45.570520" lon="1.904630">
			 <ele>740</ele>
			<time>2016-06-10T03:17:45Z</time>
			</trkpt>
		
			<trkpt lat="45.570600" lon="1.904590">
			 <ele>739</ele>
			<time>2016-06-10T03:19:45Z</time>
			</trkpt>
		
			<trkpt lat="45.570670" lon="1.904560">
			 <ele>739</ele>
			<time>2016-06-10T03:21:45Z</time>
			</trkpt>
		
			<trkpt lat="45.570740" lon="1.904550">
			 <ele>738</ele>
			<time>2016-06-10T03:23:45Z</time>
			</trkpt>
		
			<trkpt lat="45.570810" lon="1.904540">
			 <ele>738</ele>
			<time>2016-06-10T03:25:45Z</time>
			</trkpt>
		
			<trkpt lat="45.570880" lon="1.904540">
			 <ele>737</ele>
			<time>2016-06-10T03:27:45Z</time>
			</trkpt>
		
			<trkpt lat="45.570950" lon="1.904560">
			 <ele>737</ele>
			<time>2016-06-10T03:29:45Z</time>
			</trkpt>
		
			<trkpt lat="45.571020" lon="1.904580">
			 <ele>737</ele>
			<time>2016-06-10T03:31:45Z</time>
			</trkpt>
		
			<trkpt lat="45.571080" lon="1.904620">
			 <ele>737</ele>
			<time>2016-06-10T03:33:45Z</time>
			</trkpt>
		
			<trkpt lat="45.571160" lon="1.904680">
			 <ele>738</ele>
			<time>2016-06-10T03:35:45Z</time>
			</trkpt>
		
			<trkpt lat="45.571230" lon="1.904740">
			 <ele>738</ele>
			<time>2016-06-10T03:37:45Z</time>
			</trkpt>
		
			<trkpt lat="45.571280" lon="1.904800">
			 <ele>739</ele>
			<time>2016-06-10T03:39:45Z</time>
			</trkpt>
		
			<trkpt lat="45.571320" lon="1.904870">
			 <ele>739</ele>
			<time>2016-06-10T03:41:45Z</time>
			</trkpt>
		
			<trkpt lat="45.571350" lon="1.904940">
			 <ele>740</ele>
			<time>2016-06-10T03:43:45Z</time>
			</trkpt>
		
			<trkpt lat="45.571390" lon="1.905020">
			 <ele>741</ele>
			<time>2016-06-10T03:45:45Z</time>
			</trkpt>
		
			<trkpt lat="45.571410" lon="1.905110">
			 <ele>742</ele>
			<time>2016-06-10T03:47:45Z</time>
			</trkpt>
		
			<trkpt lat="45.571420" lon="1.905150">
			 <ele>742</ele>
			<time>2016-06-10T03:49:45Z</time>
			</trkpt>
		
			<trkpt lat="45.571430" lon="1.905200">
			 <ele>743</ele>
			<time>2016-06-10T03:51:45Z</time>
			</trkpt>
		
			<trkpt lat="45.571440" lon="1.905250">
			 <ele>743</ele>
			<time>2016-06-10T03:53:45Z</time>
			</trkpt>
		
			<trkpt lat="45.571450" lon="1.905300">
			 <ele>744</ele>
			<time>2016-06-10T03:55:45Z</time>
			</trkpt>
		
			<trkpt lat="45.571450" lon="1.905350">
			 <ele>744</ele>
			<time>2016-06-10T03:57:45Z</time>
			</trkpt>
		
			<trkpt lat="45.571450" lon="1.905400">
			 <ele>745</ele>
			<time>2016-06-10T03:59:45Z</time>
			</trkpt>
		
			<trkpt lat="45.571450" lon="1.905460">
			 <ele>746</ele>
			<time>2016-06-10T04:01:45Z</time>
			</trkpt>
		
			<trkpt lat="45.571440" lon="1.905510">
			 <ele>746</ele>
			<time>2016-06-10T04:03:45Z</time>
			</trkpt>
		
			<trkpt lat="45.571440" lon="1.905570">
			 <ele>747</ele>
			<time>2016-06-10T04:05:45Z</time>
			</trkpt>
		
			<trkpt lat="45.571440" lon="1.905620">
			 <ele>748</ele>
			<time>2016-06-10T04:07:45Z</time>
			</trkpt>
		
			<trkpt lat="45.571450" lon="1.905690">
			 <ele>748</ele>
			<time>2016-06-10T04:09:45Z</time>
			</trkpt>
		
			<trkpt lat="45.571460" lon="1.905740">
			 <ele>749</ele>
			<time>2016-06-10T04:11:45Z</time>
			</trkpt>
		
			<trkpt lat="45.571460" lon="1.905790">
			 <ele>749</ele>
			<time>2016-06-10T04:13:45Z</time>
			</trkpt>
		
			<trkpt lat="45.571480" lon="1.905860">
			 <ele>750</ele>
			<time>2016-06-10T04:15:45Z</time>
			</trkpt>
		
			<trkpt lat="45.571500" lon="1.905920">
			 <ele>751</ele>
			<time>2016-06-10T04:17:45Z</time>
			</trkpt>
		
			<trkpt lat="45.571530" lon="1.905980">
			 <ele>752</ele>
			<time>2016-06-10T04:19:45Z</time>
			</trkpt>
		
			<trkpt lat="45.571560" lon="1.906040">
			 <ele>753</ele>
			<time>2016-06-10T04:21:45Z</time>
			</trkpt>
		
			<trkpt lat="45.571600" lon="1.906100">
			 <ele>754</ele>
			<time>2016-06-10T04:23:45Z</time>
			</trkpt>
		
			<trkpt lat="45.571640" lon="1.906160">
			 <ele>755</ele>
			<time>2016-06-10T04:25:45Z</time>
			</trkpt>
		
			<trkpt lat="45.571670" lon="1.906200">
			 <ele>755</ele>
			<time>2016-06-10T04:27:45Z</time>
			</trkpt>
		
			<trkpt lat="45.571710" lon="1.906240">
			 <ele>755</ele>
			<time>2016-06-10T04:29:45Z</time>
			</trkpt>
		
			<trkpt lat="45.571750" lon="1.906270">
			 <ele>755</ele>
			<time>2016-06-10T04:31:45Z</time>
			</trkpt>
		
			<trkpt lat="45.571800" lon="1.906310">
			 <ele>755</ele>
			<time>2016-06-10T04:33:45Z</time>
			</trkpt>
		
			<trkpt lat="45.571830" lon="1.906310">
			 <ele>755</ele>
			<time>2016-06-10T04:35:45Z</time>
			</trkpt>
		
			<trkpt lat="45.571890" lon="1.906330">
			 <ele>754</ele>
			<time>2016-06-10T04:37:45Z</time>
			</trkpt>
		
			<trkpt lat="45.571950" lon="1.906340">
			 <ele>754</ele>
			<time>2016-06-10T04:39:45Z</time>
			</trkpt>
		
			<trkpt lat="45.572020" lon="1.906370">
			 <ele>753</ele>
			<time>2016-06-10T04:41:45Z</time>
			</trkpt>
		
			<trkpt lat="45.572070" lon="1.906400">
			 <ele>753</ele>
			<time>2016-06-10T04:43:45Z</time>
			</trkpt>
		
			<trkpt lat="45.572180" lon="1.906460">
			 <ele>752</ele>
			<time>2016-06-10T04:45:45Z</time>
			</trkpt>
		
			<trkpt lat="45.572260" lon="1.906510">
			 <ele>751</ele>
			<time>2016-06-10T04:47:45Z</time>
			</trkpt>
		
			<trkpt lat="45.572300" lon="1.906550">
			 <ele>751</ele>
			<time>2016-06-10T04:49:45Z</time>
			</trkpt>
		
			<trkpt lat="45.572340" lon="1.906600">
			 <ele>751</ele>
			<time>2016-06-10T04:51:45Z</time>
			</trkpt>
		
			<trkpt lat="45.572360" lon="1.906620">
			 <ele>751</ele>
			<time>2016-06-10T04:53:45Z</time>
			</trkpt>
		
			<trkpt lat="45.572380" lon="1.906650">
			 <ele>751</ele>
			<time>2016-06-10T04:55:45Z</time>
			</trkpt>
		
			<trkpt lat="45.572400" lon="1.906680">
			 <ele>751</ele>
			<time>2016-06-10T04:57:45Z</time>
			</trkpt>
		
			<trkpt lat="45.572440" lon="1.906760">
			 <ele>751</ele>
			<time>2016-06-10T04:59:45Z</time>
			</trkpt>
		
			<trkpt lat="45.572450" lon="1.906830">
			 <ele>751</ele>
			<time>2016-06-10T05:01:45Z</time>
			</trkpt>
		
			<trkpt lat="45.572460" lon="1.906940">
			 <ele>752</ele>
			<time>2016-06-10T05:03:45Z</time>
			</trkpt>
		
			<trkpt lat="45.572480" lon="1.907050">
			 <ele>752</ele>
			<time>2016-06-10T05:05:45Z</time>
			</trkpt>
		
			<trkpt lat="45.572490" lon="1.907140">
			 <ele>753</ele>
			<time>2016-06-10T05:07:45Z</time>
			</trkpt>
		
			<trkpt lat="45.572510" lon="1.907270">
			 <ele>753</ele>
			<time>2016-06-10T05:09:45Z</time>
			</trkpt>
		
			<trkpt lat="45.572530" lon="1.907370">
			 <ele>754</ele>
			<time>2016-06-10T05:11:45Z</time>
			</trkpt>
		
			<trkpt lat="45.572550" lon="1.907460">
			 <ele>754</ele>
			<time>2016-06-10T05:13:45Z</time>
			</trkpt>
		
			<trkpt lat="45.572580" lon="1.907550">
			 <ele>754</ele>
			<time>2016-06-10T05:15:45Z</time>
			</trkpt>
		
			<trkpt lat="45.572600" lon="1.907610">
			 <ele>754</ele>
			<time>2016-06-10T05:17:45Z</time>
			</trkpt>
		
			<trkpt lat="45.572640" lon="1.907680">
			 <ele>753</ele>
			<time>2016-06-10T05:19:45Z</time>
			</trkpt>
		
			<trkpt lat="45.572680" lon="1.907720">
			 <ele>753</ele>
			<time>2016-06-10T05:21:45Z</time>
			</trkpt>
		
			<trkpt lat="45.572740" lon="1.907770">
			 <ele>752</ele>
			<time>2016-06-10T05:23:45Z</time>
			</trkpt>
		
			<trkpt lat="45.572830" lon="1.907800">
			 <ele>750</ele>
			<time>2016-06-10T05:25:45Z</time>
			</trkpt>
		
			<trkpt lat="45.572910" lon="1.907830">
			 <ele>749</ele>
			<time>2016-06-10T05:27:45Z</time>
			</trkpt>
		
			<trkpt lat="45.573030" lon="1.907870">
			 <ele>747</ele>
			<time>2016-06-10T05:29:45Z</time>
			</trkpt>
		
			<trkpt lat="45.573090" lon="1.907880">
			 <ele>746</ele>
			<time>2016-06-10T05:31:45Z</time>
			</trkpt>
		
			<trkpt lat="45.573130" lon="1.907880">
			 <ele>746</ele>
			<time>2016-06-10T05:33:45Z</time>
			</trkpt>
		
			<trkpt lat="45.573200" lon="1.907900">
			 <ele>745</ele>
			<time>2016-06-10T05:35:45Z</time>
			</trkpt>
		
			<trkpt lat="45.573260" lon="1.907920">
			 <ele>744</ele>
			<time>2016-06-10T05:37:45Z</time>
			</trkpt>
		
			<trkpt lat="45.573320" lon="1.907960">
			 <ele>743</ele>
			<time>2016-06-10T05:39:45Z</time>
			</trkpt>
		
			<trkpt lat="45.573380" lon="1.908010">
			 <ele>743</ele>
			<time>2016-06-10T05:41:45Z</time>
			</trkpt>
		
			<trkpt lat="45.573400" lon="1.908030">
			 <ele>743</ele>
			<time>2016-06-10T05:43:45Z</time>
			</trkpt>
		
			<trkpt lat="45.573440" lon="1.908070">
			 <ele>743</ele>
			<time>2016-06-10T05:45:45Z</time>
			</trkpt>
		
			<trkpt lat="45.573490" lon="1.908130">
			 <ele>743</ele>
			<time>2016-06-10T05:47:45Z</time>
			</trkpt>
		
			<trkpt lat="45.573550" lon="1.908230">
			 <ele>743</ele>
			<time>2016-06-10T05:49:45Z</time>
			</trkpt>
		
			<trkpt lat="45.573660" lon="1.908390">
			 <ele>743</ele>
			<time>2016-06-10T05:51:45Z</time>
			</trkpt>
		
			<trkpt lat="45.573770" lon="1.908570">
			 <ele>742</ele>
			<time>2016-06-10T05:53:45Z</time>
			</trkpt>
		
			<trkpt lat="45.573870" lon="1.908720">
			 <ele>742</ele>
			<time>2016-06-10T05:55:45Z</time>
			</trkpt>
		
			<trkpt lat="45.573920" lon="1.908840">
			 <ele>741</ele>
			<time>2016-06-10T05:57:45Z</time>
			</trkpt>
		
			<trkpt lat="45.574000" lon="1.908980">
			 <ele>741</ele>
			<time>2016-06-10T05:59:45Z</time>
			</trkpt>
		
			<trkpt lat="45.574080" lon="1.909150">
			 <ele>740</ele>
			<time>2016-06-10T06:01:45Z</time>
			</trkpt>
		
			<trkpt lat="45.574170" lon="1.909310">
			 <ele>739</ele>
			<time>2016-06-10T06:03:45Z</time>
			</trkpt>
		
			<trkpt lat="45.574240" lon="1.909430">
			 <ele>738</ele>
			<time>2016-06-10T06:05:45Z</time>
			</trkpt>
		
			<trkpt lat="45.574290" lon="1.909510">
			 <ele>737</ele>
			<time>2016-06-10T06:07:45Z</time>
			</trkpt>
		
			<trkpt lat="45.574340" lon="1.909560">
			 <ele>736</ele>
			<time>2016-06-10T06:09:45Z</time>
			</trkpt>
		
			<trkpt lat="45.574400" lon="1.909590">
			 <ele>736</ele>
			<time>2016-06-10T06:11:45Z</time>
			</trkpt>
		
			<trkpt lat="45.574460" lon="1.909590">
			 <ele>736</ele>
			<time>2016-06-10T06:13:45Z</time>
			</trkpt>
		
			<trkpt lat="45.574540" lon="1.909590">
			 <ele>735</ele>
			<time>2016-06-10T06:15:45Z</time>
			</trkpt>
		
			<trkpt lat="45.574620" lon="1.909570">
			 <ele>735</ele>
			<time>2016-06-10T06:17:45Z</time>
			</trkpt>
		
			<trkpt lat="45.574690" lon="1.909530">
			 <ele>735</ele>
			<time>2016-06-10T06:19:45Z</time>
			</trkpt>
		
			<trkpt lat="45.574790" lon="1.909480">
			 <ele>735</ele>
			<time>2016-06-10T06:21:45Z</time>
			</trkpt>
		
			<trkpt lat="45.574880" lon="1.909410">
			 <ele>736</ele>
			<time>2016-06-10T06:23:45Z</time>
			</trkpt>
		
			<trkpt lat="45.574970" lon="1.909350">
			 <ele>736</ele>
			<time>2016-06-10T06:25:45Z</time>
			</trkpt>
		
			<trkpt lat="45.575030" lon="1.909330">
			 <ele>736</ele>
			<time>2016-06-10T06:27:45Z</time>
			</trkpt>
		
			<trkpt lat="45.575100" lon="1.909300">
			 <ele>736</ele>
			<time>2016-06-10T06:29:45Z</time>
			</trkpt>
		
			<trkpt lat="45.575170" lon="1.909280">
			 <ele>736</ele>
			<time>2016-06-10T06:31:45Z</time>
			</trkpt>
		
			<trkpt lat="45.575340" lon="1.909250">
			 <ele>736</ele>
			<time>2016-06-10T06:33:45Z</time>
			</trkpt>
		
			<trkpt lat="45.575420" lon="1.909220">
			 <ele>736</ele>
			<time>2016-06-10T06:35:45Z</time>
			</trkpt>
		
			<trkpt lat="45.575490" lon="1.909170">
			 <ele>737</ele>
			<time>2016-06-10T06:37:45Z</time>
			</trkpt>
		
			<trkpt lat="45.575550" lon="1.909120">
			 <ele>737</ele>
			<time>2016-06-10T06:39:45Z</time>
			</trkpt>
		
			<trkpt lat="45.575610" lon="1.909080">
			 <ele>737</ele>
			<time>2016-06-10T06:41:45Z</time>
			</trkpt>
		
			<trkpt lat="45.575690" lon="1.909020">
			 <ele>737</ele>
			<time>2016-06-10T06:43:45Z</time>
			</trkpt>
		
			<trkpt lat="45.575750" lon="1.908980">
			 <ele>738</ele>
			<time>2016-06-10T06:45:45Z</time>
			</trkpt>
		
			<trkpt lat="45.575810" lon="1.908940">
			 <ele>738</ele>
			<time>2016-06-10T06:47:45Z</time>
			</trkpt>
		
			<trkpt lat="45.575880" lon="1.908920">
			 <ele>737</ele>
			<time>2016-06-10T06:49:45Z</time>
			</trkpt>
		
			<trkpt lat="45.575940" lon="1.908920">
			 <ele>737</ele>
			<time>2016-06-10T06:51:45Z</time>
			</trkpt>
		
			<trkpt lat="45.575990" lon="1.908930">
			 <ele>736</ele>
			<time>2016-06-10T06:53:45Z</time>
			</trkpt>
		
			<trkpt lat="45.576280" lon="1.909030">
			 <ele>733</ele>
			<time>2016-06-10T06:55:45Z</time>
			</trkpt>
		
			<trkpt lat="45.576330" lon="1.909040">
			 <ele>732</ele>
			<time>2016-06-10T06:57:45Z</time>
			</trkpt>
		
			<trkpt lat="45.576390" lon="1.909040">
			 <ele>732</ele>
			<time>2016-06-10T06:59:45Z</time>
			</trkpt>
		
			<trkpt lat="45.576860" lon="1.908980">
			 <ele>729</ele>
			<time>2016-06-10T07:01:45Z</time>
			</trkpt>
		
			<trkpt lat="45.576980" lon="1.908980">
			 <ele>728</ele>
			<time>2016-06-10T07:03:45Z</time>
			</trkpt>
		
			<trkpt lat="45.577090" lon="1.908990">
			 <ele>727</ele>
			<time>2016-06-10T07:05:45Z</time>
			</trkpt>
		
			<trkpt lat="45.577190" lon="1.909010">
			 <ele>726</ele>
			<time>2016-06-10T07:07:45Z</time>
			</trkpt>
		
			<trkpt lat="45.577300" lon="1.909050">
			 <ele>725</ele>
			<time>2016-06-10T07:09:45Z</time>
			</trkpt>
		
			<trkpt lat="45.577440" lon="1.909130">
			 <ele>724</ele>
			<time>2016-06-10T07:11:45Z</time>
			</trkpt>
		
			<trkpt lat="45.577640" lon="1.909260">
			 <ele>722</ele>
			<time>2016-06-10T07:13:45Z</time>
			</trkpt>
		
			<trkpt lat="45.577660" lon="1.909280">
			 <ele>722</ele>
			<time>2016-06-10T07:15:45Z</time>
			</trkpt>
		
			<trkpt lat="45.577960" lon="1.909500">
			 <ele>719</ele>
			<time>2016-06-10T07:17:45Z</time>
			</trkpt>
		
			<trkpt lat="45.578270" lon="1.909720">
			 <ele>717</ele>
			<time>2016-06-10T07:19:45Z</time>
			</trkpt>
		
			<trkpt lat="45.578510" lon="1.909890">
			 <ele>716</ele>
			<time>2016-06-10T07:21:45Z</time>
			</trkpt>
		
			<trkpt lat="45.578640" lon="1.909960">
			 <ele>715</ele>
			<time>2016-06-10T07:23:45Z</time>
			</trkpt>
		
			<trkpt lat="45.578940" lon="1.910120">
			 <ele>714</ele>
			<time>2016-06-10T07:25:45Z</time>
			</trkpt>
		
			<trkpt lat="45.579010" lon="1.910160">
			 <ele>714</ele>
			<time>2016-06-10T07:27:45Z</time>
			</trkpt>
		
			<trkpt lat="45.579130" lon="1.910260">
			 <ele>713</ele>
			<time>2016-06-10T07:29:45Z</time>
			</trkpt>
		
			<trkpt lat="45.579220" lon="1.910360">
			 <ele>712</ele>
			<time>2016-06-10T07:31:45Z</time>
			</trkpt>
		
			<trkpt lat="45.579300" lon="1.910460">
			 <ele>712</ele>
			<time>2016-06-10T07:33:45Z</time>
			</trkpt>
		
			<trkpt lat="45.579380" lon="1.910580">
			 <ele>711</ele>
			<time>2016-06-10T07:35:45Z</time>
			</trkpt>
		
			<trkpt lat="45.579500" lon="1.910800">
			 <ele>710</ele>
			<time>2016-06-10T07:37:45Z</time>
			</trkpt>
		
			<trkpt lat="45.579690" lon="1.911150">
			 <ele>708</ele>
			<time>2016-06-10T07:39:45Z</time>
			</trkpt>
		
			<trkpt lat="45.579770" lon="1.911270">
			 <ele>707</ele>
			<time>2016-06-10T07:41:45Z</time>
			</trkpt>
		
			<trkpt lat="45.579840" lon="1.911350">
			 <ele>707</ele>
			<time>2016-06-10T07:43:45Z</time>
			</trkpt>
		
			<trkpt lat="45.579930" lon="1.911420">
			 <ele>706</ele>
			<time>2016-06-10T07:45:45Z</time>
			</trkpt>
		
			<trkpt lat="45.580040" lon="1.911510">
			 <ele>706</ele>
			<time>2016-06-10T07:47:45Z</time>
			</trkpt>
		
			<trkpt lat="45.580460" lon="1.911760">
			 <ele>704</ele>
			<time>2016-06-10T07:49:45Z</time>
			</trkpt>
		
			<trkpt lat="45.580810" lon="1.911970">
			 <ele>704</ele>
			<time>2016-06-10T07:51:45Z</time>
			</trkpt>
		
			<trkpt lat="45.580870" lon="1.912010">
			 <ele>704</ele>
			<time>2016-06-10T07:53:45Z</time>
			</trkpt>
		
			<trkpt lat="45.580940" lon="1.912040">
			 <ele>704</ele>
			<time>2016-06-10T07:55:45Z</time>
			</trkpt>
		
			<trkpt lat="45.580960" lon="1.912060">
			 <ele>705</ele>
			<time>2016-06-10T07:57:45Z</time>
			</trkpt>
		
			<trkpt lat="45.581090" lon="1.912140">
			 <ele>705</ele>
			<time>2016-06-10T07:59:45Z</time>
			</trkpt>
		
			<trkpt lat="45.581440" lon="1.912350">
			 <ele>707</ele>
			<time>2016-06-10T08:01:45Z</time>
			</trkpt>
		
			<trkpt lat="45.581600" lon="1.912460">
			 <ele>708</ele>
			<time>2016-06-10T08:03:45Z</time>
			</trkpt>
		
			<trkpt lat="45.581720" lon="1.912550">
			 <ele>708</ele>
			<time>2016-06-10T08:05:45Z</time>
			</trkpt>
		
			<trkpt lat="45.581750" lon="1.912580">
			 <ele>708</ele>
			<time>2016-06-10T08:07:45Z</time>
			</trkpt>
		
			<trkpt lat="45.581820" lon="1.912650">
			 <ele>709</ele>
			<time>2016-06-10T08:09:45Z</time>
			</trkpt>
		
			<trkpt lat="45.581910" lon="1.912770">
			 <ele>709</ele>
			<time>2016-06-10T08:11:45Z</time>
			</trkpt>
		
			<trkpt lat="45.581980" lon="1.912880">
			 <ele>709</ele>
			<time>2016-06-10T08:13:45Z</time>
			</trkpt>
		
			<trkpt lat="45.582060" lon="1.913040">
			 <ele>708</ele>
			<time>2016-06-10T08:15:45Z</time>
			</trkpt>
		
			<trkpt lat="45.582070" lon="1.913060">
			 <ele>708</ele>
			<time>2016-06-10T08:17:45Z</time>
			</trkpt>
		
			<trkpt lat="45.582140" lon="1.913210">
			 <ele>708</ele>
			<time>2016-06-10T08:19:45Z</time>
			</trkpt>
		
			<trkpt lat="45.582190" lon="1.913360">
			 <ele>707</ele>
			<time>2016-06-10T08:21:45Z</time>
			</trkpt>
		
			<trkpt lat="45.582230" lon="1.913490">
			 <ele>707</ele>
			<time>2016-06-10T08:23:45Z</time>
			</trkpt>
		
			<trkpt lat="45.582250" lon="1.913640">
			 <ele>706</ele>
			<time>2016-06-10T08:25:45Z</time>
			</trkpt>
		
			<trkpt lat="45.582270" lon="1.913810">
			 <ele>706</ele>
			<time>2016-06-10T08:27:45Z</time>
			</trkpt>
		
			<trkpt lat="45.582280" lon="1.914020">
			 <ele>706</ele>
			<time>2016-06-10T08:29:45Z</time>
			</trkpt>
		
			<trkpt lat="45.582300" lon="1.914180">
			 <ele>706</ele>
			<time>2016-06-10T08:31:45Z</time>
			</trkpt>
		
			<trkpt lat="45.582320" lon="1.914310">
			 <ele>706</ele>
			<time>2016-06-10T08:33:45Z</time>
			</trkpt>
		
			<trkpt lat="45.582360" lon="1.914440">
			 <ele>705</ele>
			<time>2016-06-10T08:35:45Z</time>
			</trkpt>
		
			<trkpt lat="45.582410" lon="1.914560">
			 <ele>705</ele>
			<time>2016-06-10T08:37:45Z</time>
			</trkpt>
		
			<trkpt lat="45.582470" lon="1.914660">
			 <ele>704</ele>
			<time>2016-06-10T08:39:45Z</time>
			</trkpt>
		
			<trkpt lat="45.582540" lon="1.914750">
			 <ele>704</ele>
			<time>2016-06-10T08:41:45Z</time>
			</trkpt>
		
			<trkpt lat="45.582610" lon="1.914820">
			 <ele>703</ele>
			<time>2016-06-10T08:43:45Z</time>
			</trkpt>
		
			<trkpt lat="45.582700" lon="1.914900">
			 <ele>703</ele>
			<time>2016-06-10T08:45:45Z</time>
			</trkpt>
		
			<trkpt lat="45.582900" lon="1.915020">
			 <ele>702</ele>
			<time>2016-06-10T08:47:45Z</time>
			</trkpt>
		
			<trkpt lat="45.583320" lon="1.915300">
			 <ele>702</ele>
			<time>2016-06-10T08:49:45Z</time>
			</trkpt>
		
			<trkpt lat="45.583610" lon="1.915480">
			 <ele>702</ele>
			<time>2016-06-10T08:51:45Z</time>
			</trkpt>
		
			<trkpt lat="45.583730" lon="1.915550">
			 <ele>702</ele>
			<time>2016-06-10T08:53:45Z</time>
			</trkpt>
		
			<trkpt lat="45.583800" lon="1.915580">
			 <ele>703</ele>
			<time>2016-06-10T08:55:45Z</time>
			</trkpt>
		
			<trkpt lat="45.583890" lon="1.915600">
			 <ele>703</ele>
			<time>2016-06-10T08:57:45Z</time>
			</trkpt>
		
			<trkpt lat="45.584000" lon="1.915620">
			 <ele>703</ele>
			<time>2016-06-10T08:59:45Z</time>
			</trkpt>
		
			<trkpt lat="45.584110" lon="1.915610">
			 <ele>703</ele>
			<time>2016-06-10T09:01:45Z</time>
			</trkpt>
		
			<trkpt lat="45.584260" lon="1.915600">
			 <ele>703</ele>
			<time>2016-06-10T09:03:45Z</time>
			</trkpt>
		
			<trkpt lat="45.584470" lon="1.915580">
			 <ele>704</ele>
			<time>2016-06-10T09:05:45Z</time>
			</trkpt>
		
			<trkpt lat="45.584840" lon="1.915530">
			 <ele>705</ele>
			<time>2016-06-10T09:07:45Z</time>
			</trkpt>
		
			<trkpt lat="45.585130" lon="1.915510">
			 <ele>705</ele>
			<time>2016-06-10T09:09:45Z</time>
			</trkpt>
		
			<trkpt lat="45.585320" lon="1.915500">
			 <ele>705</ele>
			<time>2016-06-10T09:11:45Z</time>
			</trkpt>
		
			<trkpt lat="45.585420" lon="1.915470">
			 <ele>705</ele>
			<time>2016-06-10T09:13:45Z</time>
			</trkpt>
		
			<trkpt lat="45.585520" lon="1.915420">
			 <ele>705</ele>
			<time>2016-06-10T09:15:45Z</time>
			</trkpt>
		
			<trkpt lat="45.586030" lon="1.915190">
			 <ele>704</ele>
			<time>2016-06-10T09:17:45Z</time>
			</trkpt>
		
			<trkpt lat="45.586090" lon="1.915180">
			 <ele>703</ele>
			<time>2016-06-10T09:19:45Z</time>
			</trkpt>
		
			<trkpt lat="45.586160" lon="1.915180">
			 <ele>703</ele>
			<time>2016-06-10T09:21:45Z</time>
			</trkpt>
		
			<trkpt lat="45.586210" lon="1.915200">
			 <ele>702</ele>
			<time>2016-06-10T09:23:45Z</time>
			</trkpt>
		
			<trkpt lat="45.586640" lon="1.915340">
			 <ele>699</ele>
			<time>2016-06-10T09:25:45Z</time>
			</trkpt>
		
			<trkpt lat="45.586940" lon="1.915450">
			 <ele>699</ele>
			<time>2016-06-10T09:27:45Z</time>
			</trkpt>
		
			<trkpt lat="45.587030" lon="1.915500">
			 <ele>699</ele>
			<time>2016-06-10T09:29:45Z</time>
			</trkpt>
		
			<trkpt lat="45.587100" lon="1.915550">
			 <ele>699</ele>
			<time>2016-06-10T09:31:45Z</time>
			</trkpt>
		
			<trkpt lat="45.587170" lon="1.915600">
			 <ele>699</ele>
			<time>2016-06-10T09:33:45Z</time>
			</trkpt>
		
			<trkpt lat="45.587420" lon="1.915840">
			 <ele>699</ele>
			<time>2016-06-10T09:35:45Z</time>
			</trkpt>
		
			<trkpt lat="45.587590" lon="1.916000">
			 <ele>699</ele>
			<time>2016-06-10T09:37:45Z</time>
			</trkpt>
		
			<trkpt lat="45.587700" lon="1.916120">
			 <ele>699</ele>
			<time>2016-06-10T09:39:45Z</time>
			</trkpt>
		
			<trkpt lat="45.587780" lon="1.916230">
			 <ele>699</ele>
			<time>2016-06-10T09:41:45Z</time>
			</trkpt>
		
			<trkpt lat="45.587940" lon="1.916500">
			 <ele>698</ele>
			<time>2016-06-10T09:43:45Z</time>
			</trkpt>
		
			<trkpt lat="45.588030" lon="1.916630">
			 <ele>698</ele>
			<time>2016-06-10T09:45:45Z</time>
			</trkpt>
		
			<trkpt lat="45.588150" lon="1.916740">
			 <ele>698</ele>
			<time>2016-06-10T09:47:45Z</time>
			</trkpt>
		
			<trkpt lat="45.588260" lon="1.916820">
			 <ele>698</ele>
			<time>2016-06-10T09:49:45Z</time>
			</trkpt>
		
			<trkpt lat="45.588510" lon="1.917000">
			 <ele>697</ele>
			<time>2016-06-10T09:51:45Z</time>
			</trkpt>
		
			<trkpt lat="45.588660" lon="1.917110">
			 <ele>697</ele>
			<time>2016-06-10T09:53:45Z</time>
			</trkpt>
		
			<trkpt lat="45.588760" lon="1.917200">
			 <ele>697</ele>
			<time>2016-06-10T09:55:45Z</time>
			</trkpt>
		
			<trkpt lat="45.588830" lon="1.917280">
			 <ele>696</ele>
			<time>2016-06-10T09:57:45Z</time>
			</trkpt>
		
			<trkpt lat="45.588880" lon="1.917370">
			 <ele>696</ele>
			<time>2016-06-10T09:59:45Z</time>
			</trkpt>
		
			<trkpt lat="45.588940" lon="1.917480">
			 <ele>695</ele>
			<time>2016-06-10T10:01:45Z</time>
			</trkpt>
		
			<trkpt lat="45.589060" lon="1.917820">
			 <ele>694</ele>
			<time>2016-06-10T10:03:45Z</time>
			</trkpt>
		
			<trkpt lat="45.589340" lon="1.918660">
			 <ele>689</ele>
			<time>2016-06-10T10:05:45Z</time>
			</trkpt>
		
			<trkpt lat="45.589390" lon="1.918840">
			 <ele>688</ele>
			<time>2016-06-10T10:07:45Z</time>
			</trkpt>
		
			<trkpt lat="45.589410" lon="1.918940">
			 <ele>687</ele>
			<time>2016-06-10T10:09:45Z</time>
			</trkpt>
		
			<trkpt lat="45.589420" lon="1.919070">
			 <ele>687</ele>
			<time>2016-06-10T10:11:45Z</time>
			</trkpt>
		
			<trkpt lat="45.589430" lon="1.919550">
			 <ele>685</ele>
			<time>2016-06-10T10:13:45Z</time>
			</trkpt>
		
			<trkpt lat="45.589440" lon="1.919800">
			 <ele>684</ele>
			<time>2016-06-10T10:15:45Z</time>
			</trkpt>
		
			<trkpt lat="45.589460" lon="1.920300">
			 <ele>682</ele>
			<time>2016-06-10T10:17:45Z</time>
			</trkpt>
		
			<trkpt lat="45.589470" lon="1.920440">
			 <ele>682</ele>
			<time>2016-06-10T10:19:45Z</time>
			</trkpt>
		
			<trkpt lat="45.589490" lon="1.920540">
			 <ele>682</ele>
			<time>2016-06-10T10:21:45Z</time>
			</trkpt>
		
			<trkpt lat="45.589520" lon="1.920630">
			 <ele>682</ele>
			<time>2016-06-10T10:23:45Z</time>
			</trkpt>
		
			<trkpt lat="45.589570" lon="1.920720">
			 <ele>682</ele>
			<time>2016-06-10T10:25:45Z</time>
			</trkpt>
		
			<trkpt lat="45.589740" lon="1.920980">
			 <ele>682</ele>
			<time>2016-06-10T10:27:45Z</time>
			</trkpt>
		
			<trkpt lat="45.589890" lon="1.921180">
			 <ele>681</ele>
			<time>2016-06-10T10:29:45Z</time>
			</trkpt>
		
			<trkpt lat="45.589920" lon="1.921210">
			 <ele>681</ele>
			<time>2016-06-10T10:31:45Z</time>
			</trkpt>
		
			<trkpt lat="45.589950" lon="1.921240">
			 <ele>680</ele>
			<time>2016-06-10T10:33:45Z</time>
			</trkpt>
		
			<trkpt lat="45.590240" lon="1.921430">
			 <ele>680</ele>
			<time>2016-06-10T10:35:45Z</time>
			</trkpt>
		
			<trkpt lat="45.590560" lon="1.921650">
			 <ele>680</ele>
			<time>2016-06-10T10:37:45Z</time>
			</trkpt>
		
			<trkpt lat="45.590790" lon="1.921780">
			 <ele>680</ele>
			<time>2016-06-10T10:39:45Z</time>
			</trkpt>
		
			<trkpt lat="45.591000" lon="1.921900">
			 <ele>679</ele>
			<time>2016-06-10T10:41:45Z</time>
			</trkpt>
		
			<trkpt lat="45.591110" lon="1.921960">
			 <ele>678</ele>
			<time>2016-06-10T10:43:45Z</time>
			</trkpt>
		
			<trkpt lat="45.591130" lon="1.921970">
			 <ele>678</ele>
			<time>2016-06-10T10:45:45Z</time>
			</trkpt>
		
			<trkpt lat="45.591190" lon="1.922000">
			 <ele>678</ele>
			<time>2016-06-10T10:47:45Z</time>
			</trkpt>
		
			<trkpt lat="45.591290" lon="1.922050">
			 <ele>677</ele>
			<time>2016-06-10T10:49:45Z</time>
			</trkpt>
		
			<trkpt lat="45.591360" lon="1.922080">
			 <ele>677</ele>
			<time>2016-06-10T10:51:45Z</time>
			</trkpt>
		
			<trkpt lat="45.591390" lon="1.922090">
			 <ele>677</ele>
			<time>2016-06-10T10:53:45Z</time>
			</trkpt>
		
			<trkpt lat="45.591530" lon="1.922160">
			 <ele>676</ele>
			<time>2016-06-10T10:55:45Z</time>
			</trkpt>
		
			<trkpt lat="45.591730" lon="1.922240">
			 <ele>675</ele>
			<time>2016-06-10T10:57:45Z</time>
			</trkpt>
		
			<trkpt lat="45.591950" lon="1.922320">
			 <ele>675</ele>
			<time>2016-06-10T10:59:45Z</time>
			</trkpt>
		
			<trkpt lat="45.592180" lon="1.922400">
			 <ele>675</ele>
			<time>2016-06-10T11:01:45Z</time>
			</trkpt>
		
			<trkpt lat="45.592320" lon="1.922450">
			 <ele>675</ele>
			<time>2016-06-10T11:03:45Z</time>
			</trkpt>
		
			<trkpt lat="45.592390" lon="1.922480">
			 <ele>675</ele>
			<time>2016-06-10T11:05:45Z</time>
			</trkpt>
		
			<trkpt lat="45.592550" lon="1.922540">
			 <ele>675</ele>
			<time>2016-06-10T11:07:45Z</time>
			</trkpt>
		
			<trkpt lat="45.592630" lon="1.922590">
			 <ele>675</ele>
			<time>2016-06-10T11:09:45Z</time>
			</trkpt>
		
			<trkpt lat="45.592690" lon="1.922660">
			 <ele>675</ele>
			<time>2016-06-10T11:11:45Z</time>
			</trkpt>
		
			<trkpt lat="45.592750" lon="1.922750">
			 <ele>675</ele>
			<time>2016-06-10T11:13:45Z</time>
			</trkpt>
		
			<trkpt lat="45.592810" lon="1.922870">
			 <ele>675</ele>
			<time>2016-06-10T11:15:45Z</time>
			</trkpt>
		
			<trkpt lat="45.592960" lon="1.923200">
			 <ele>675</ele>
			<time>2016-06-10T11:17:45Z</time>
			</trkpt>
		
			<trkpt lat="45.593270" lon="1.923940">
			 <ele>676</ele>
			<time>2016-06-10T11:19:45Z</time>
			</trkpt>
		
			<trkpt lat="45.593500" lon="1.924470">
			 <ele>678</ele>
			<time>2016-06-10T11:21:45Z</time>
			</trkpt>
		
			<trkpt lat="45.593740" lon="1.925020">
			 <ele>681</ele>
			<time>2016-06-10T11:23:45Z</time>
			</trkpt>
		
			<trkpt lat="45.593740" lon="1.925020">
			 <ele>681</ele>
			<time>2016-06-10T11:25:45Z</time>
			</trkpt>
		
			<trkpt lat="45.593650" lon="1.925130">
			 <ele>680</ele>
			<time>2016-06-10T11:27:45Z</time>
			</trkpt>
		
			<trkpt lat="45.593620" lon="1.925180">
			 <ele>680</ele>
			<time>2016-06-10T11:29:45Z</time>
			</trkpt>
		
			<trkpt lat="45.593600" lon="1.925280">
			 <ele>681</ele>
			<time>2016-06-10T11:31:45Z</time>
			</trkpt>
		
			<trkpt lat="45.593590" lon="1.925500">
			 <ele>681</ele>
			<time>2016-06-10T11:33:45Z</time>
			</trkpt>
		
			<trkpt lat="45.593570" lon="1.926440">
			 <ele>684</ele>
			<time>2016-06-10T11:35:45Z</time>
			</trkpt>
		
			<trkpt lat="45.593570" lon="1.926440">
			 <ele>684</ele>
			<time>2016-06-10T11:37:45Z</time>
			</trkpt>
		
			<trkpt lat="45.593590" lon="1.925500">
			 <ele>681</ele>
			<time>2016-06-10T11:39:45Z</time>
			</trkpt>
		
			<trkpt lat="45.593600" lon="1.925280">
			 <ele>681</ele>
			<time>2016-06-10T11:41:45Z</time>
			</trkpt>
		
			<trkpt lat="45.593620" lon="1.925180">
			 <ele>680</ele>
			<time>2016-06-10T11:43:45Z</time>
			</trkpt>
		
			<trkpt lat="45.593650" lon="1.925130">
			 <ele>680</ele>
			<time>2016-06-10T11:45:45Z</time>
			</trkpt>
		
			<trkpt lat="45.593740" lon="1.925020">
			 <ele>681</ele>
			<time>2016-06-10T11:47:45Z</time>
			</trkpt>
		
			<trkpt lat="45.593740" lon="1.925020">
			 <ele>681</ele>
			<time>2016-06-10T11:49:45Z</time>
			</trkpt>
		
			<trkpt lat="45.593760" lon="1.925080">
			 <ele>681</ele>
			<time>2016-06-10T11:51:45Z</time>
			</trkpt>
		
			<trkpt lat="45.593840" lon="1.925240">
			 <ele>681</ele>
			<time>2016-06-10T11:53:45Z</time>
			</trkpt>
		
			<trkpt lat="45.593940" lon="1.925450">
			 <ele>681</ele>
			<time>2016-06-10T11:55:45Z</time>
			</trkpt>
		
			<trkpt lat="45.594040" lon="1.925620">
			 <ele>681</ele>
			<time>2016-06-10T11:57:45Z</time>
			</trkpt>
		
			<trkpt lat="45.594120" lon="1.925770">
			 <ele>681</ele>
			<time>2016-06-10T11:59:45Z</time>
			</trkpt>
		
			<trkpt lat="45.594220" lon="1.925890">
			 <ele>681</ele>
			<time>2016-06-10T12:01:45Z</time>
			</trkpt>
		
			<trkpt lat="45.594320" lon="1.926030">
			 <ele>682</ele>
			<time>2016-06-10T12:03:45Z</time>
			</trkpt>
		
			<trkpt lat="45.594430" lon="1.926130">
			 <ele>683</ele>
			<time>2016-06-10T12:05:45Z</time>
			</trkpt>
		
			<trkpt lat="45.594550" lon="1.926230">
			 <ele>684</ele>
			<time>2016-06-10T12:07:45Z</time>
			</trkpt>
		
			<trkpt lat="45.594830" lon="1.926470">
			 <ele>686</ele>
			<time>2016-06-10T12:09:45Z</time>
			</trkpt>
		
			<trkpt lat="45.594910" lon="1.926530">
			 <ele>686</ele>
			<time>2016-06-10T12:11:45Z</time>
			</trkpt>
		
			<trkpt lat="45.595150" lon="1.926720">
			 <ele>687</ele>
			<time>2016-06-10T12:13:45Z</time>
			</trkpt>
		
			<trkpt lat="45.595170" lon="1.926730">
			 <ele>687</ele>
			<time>2016-06-10T12:15:45Z</time>
			</trkpt>
		
			<trkpt lat="45.595350" lon="1.926880">
			 <ele>688</ele>
			<time>2016-06-10T12:17:45Z</time>
			</trkpt>
		
			<trkpt lat="45.595390" lon="1.926930">
			 <ele>688</ele>
			<time>2016-06-10T12:19:45Z</time>
			</trkpt>
		
			<trkpt lat="45.595410" lon="1.926960">
			 <ele>688</ele>
			<time>2016-06-10T12:21:45Z</time>
			</trkpt>
		
			<trkpt lat="45.595440" lon="1.927010">
			 <ele>688</ele>
			<time>2016-06-10T12:23:45Z</time>
			</trkpt>
		
			<trkpt lat="45.595480" lon="1.927100">
			 <ele>688</ele>
			<time>2016-06-10T12:25:45Z</time>
			</trkpt>
		
			<trkpt lat="45.595540" lon="1.927240">
			 <ele>688</ele>
			<time>2016-06-10T12:27:45Z</time>
			</trkpt>
		
			<trkpt lat="45.595570" lon="1.927290">
			 <ele>688</ele>
			<time>2016-06-10T12:29:45Z</time>
			</trkpt>
		
			<trkpt lat="45.595580" lon="1.927320">
			 <ele>689</ele>
			<time>2016-06-10T12:31:45Z</time>
			</trkpt>
		
			<trkpt lat="45.595630" lon="1.927390">
			 <ele>688</ele>
			<time>2016-06-10T12:33:45Z</time>
			</trkpt>
		
			<trkpt lat="45.595730" lon="1.927500">
			 <ele>688</ele>
			<time>2016-06-10T12:35:45Z</time>
			</trkpt>
		
			<trkpt lat="45.595750" lon="1.927510">
			 <ele>688</ele>
			<time>2016-06-10T12:37:45Z</time>
			</trkpt>
		
			<trkpt lat="45.595820" lon="1.927550">
			 <ele>687</ele>
			<time>2016-06-10T12:39:45Z</time>
			</trkpt>
		
			<trkpt lat="45.595900" lon="1.927570">
			 <ele>687</ele>
			<time>2016-06-10T12:41:45Z</time>
			</trkpt>
		
			<trkpt lat="45.595970" lon="1.927550">
			 <ele>688</ele>
			<time>2016-06-10T12:43:45Z</time>
			</trkpt>
		
			<trkpt lat="45.595980" lon="1.927550">
			 <ele>688</ele>
			<time>2016-06-10T12:45:45Z</time>
			</trkpt>
		
			<trkpt lat="45.596040" lon="1.927520">
			 <ele>688</ele>
			<time>2016-06-10T12:47:45Z</time>
			</trkpt>
		
			<trkpt lat="45.596120" lon="1.927470">
			 <ele>688</ele>
			<time>2016-06-10T12:49:45Z</time>
			</trkpt>
		
			<trkpt lat="45.596250" lon="1.927360">
			 <ele>689</ele>
			<time>2016-06-10T12:51:45Z</time>
			</trkpt>
		
			<trkpt lat="45.596350" lon="1.927290">
			 <ele>689</ele>
			<time>2016-06-10T12:53:45Z</time>
			</trkpt>
		
			<trkpt lat="45.596420" lon="1.927250">
			 <ele>690</ele>
			<time>2016-06-10T12:55:45Z</time>
			</trkpt>
		
			<trkpt lat="45.596500" lon="1.927220">
			 <ele>690</ele>
			<time>2016-06-10T12:57:45Z</time>
			</trkpt>
		
			<trkpt lat="45.596580" lon="1.927210">
			 <ele>690</ele>
			<time>2016-06-10T12:59:45Z</time>
			</trkpt>
		
			<trkpt lat="45.596690" lon="1.927210">
			 <ele>691</ele>
			<time>2016-06-10T13:01:45Z</time>
			</trkpt>
		
			<trkpt lat="45.596880" lon="1.927220">
			 <ele>692</ele>
			<time>2016-06-10T13:03:45Z</time>
			</trkpt>
		
			<trkpt lat="45.596910" lon="1.927230">
			 <ele>692</ele>
			<time>2016-06-10T13:05:45Z</time>
			</trkpt>
		
			<trkpt lat="45.597020" lon="1.927260">
			 <ele>693</ele>
			<time>2016-06-10T13:07:45Z</time>
			</trkpt>
		
			<trkpt lat="45.597040" lon="1.927260">
			 <ele>693</ele>
			<time>2016-06-10T13:09:45Z</time>
			</trkpt>
		
			<trkpt lat="45.597160" lon="1.927300">
			 <ele>694</ele>
			<time>2016-06-10T13:11:45Z</time>
			</trkpt>
		
			<trkpt lat="45.597240" lon="1.927340">
			 <ele>695</ele>
			<time>2016-06-10T13:13:45Z</time>
			</trkpt>
		
			<trkpt lat="45.597340" lon="1.927400">
			 <ele>696</ele>
			<time>2016-06-10T13:15:45Z</time>
			</trkpt>
		
			<trkpt lat="45.597470" lon="1.927500">
			 <ele>697</ele>
			<time>2016-06-10T13:17:45Z</time>
			</trkpt>
		
			<trkpt lat="45.597610" lon="1.927630">
			 <ele>698</ele>
			<time>2016-06-10T13:19:45Z</time>
			</trkpt>
		
			<trkpt lat="45.597610" lon="1.927630">
			 <ele>698</ele>
			<time>2016-06-10T13:21:45Z</time>
			</trkpt>
		
			<trkpt lat="45.597490" lon="1.927860">
			 <ele>699</ele>
			<time>2016-06-10T13:23:45Z</time>
			</trkpt>
		
			<trkpt lat="45.597450" lon="1.927930">
			 <ele>699</ele>
			<time>2016-06-10T13:25:45Z</time>
			</trkpt>
		
			<trkpt lat="45.597330" lon="1.928190">
			 <ele>699</ele>
			<time>2016-06-10T13:27:45Z</time>
			</trkpt>
		
			<trkpt lat="45.597210" lon="1.928430">
			 <ele>699</ele>
			<time>2016-06-10T13:29:45Z</time>
			</trkpt>
		
			<trkpt lat="45.597130" lon="1.928590">
			 <ele>699</ele>
			<time>2016-06-10T13:31:45Z</time>
			</trkpt>
		
			<trkpt lat="45.597080" lon="1.928710">
			 <ele>699</ele>
			<time>2016-06-10T13:33:45Z</time>
			</trkpt>
		
			<trkpt lat="45.597050" lon="1.928840">
			 <ele>699</ele>
			<time>2016-06-10T13:35:45Z</time>
			</trkpt>
		
			<trkpt lat="45.596890" lon="1.929640">
			 <ele>703</ele>
			<time>2016-06-10T13:37:45Z</time>
			</trkpt>
		
			<trkpt lat="45.596870" lon="1.929720">
			 <ele>704</ele>
			<time>2016-06-10T13:39:45Z</time>
			</trkpt>
		
			<trkpt lat="45.596660" lon="1.930740">
			 <ele>715</ele>
			<time>2016-06-10T13:41:45Z</time>
			</trkpt>
		
			<trkpt lat="45.596570" lon="1.931190">
			 <ele>719</ele>
			<time>2016-06-10T13:43:45Z</time>
			</trkpt>
		
			<trkpt lat="45.596480" lon="1.931610">
			 <ele>723</ele>
			<time>2016-06-10T13:45:45Z</time>
			</trkpt>
		
			<trkpt lat="45.596460" lon="1.931700">
			 <ele>723</ele>
			<time>2016-06-10T13:47:45Z</time>
			</trkpt>
		
			<trkpt lat="45.596450" lon="1.931810">
			 <ele>724</ele>
			<time>2016-06-10T13:49:45Z</time>
			</trkpt>
		
			<trkpt lat="45.596440" lon="1.932530">
			 <ele>727</ele>
			<time>2016-06-10T13:51:45Z</time>
			</trkpt>
		
			<trkpt lat="45.596430" lon="1.933130">
			 <ele>728</ele>
			<time>2016-06-10T13:53:45Z</time>
			</trkpt>
		
			<trkpt lat="45.596430" lon="1.933390">
			 <ele>728</ele>
			<time>2016-06-10T13:55:45Z</time>
			</trkpt>
		
			<trkpt lat="45.596430" lon="1.933540">
			 <ele>729</ele>
			<time>2016-06-10T13:57:45Z</time>
			</trkpt>
		
			<trkpt lat="45.596420" lon="1.933700">
			 <ele>729</ele>
			<time>2016-06-10T13:59:45Z</time>
			</trkpt>
		
			<trkpt lat="45.596420" lon="1.933820">
			 <ele>729</ele>
			<time>2016-06-10T14:01:45Z</time>
			</trkpt>
		
			<trkpt lat="45.596400" lon="1.933920">
			 <ele>729</ele>
			<time>2016-06-10T14:03:45Z</time>
			</trkpt>
		
			<trkpt lat="45.596380" lon="1.934030">
			 <ele>730</ele>
			<time>2016-06-10T14:05:45Z</time>
			</trkpt>
		
			<trkpt lat="45.596330" lon="1.934370">
			 <ele>730</ele>
			<time>2016-06-10T14:07:45Z</time>
			</trkpt>
		
			<trkpt lat="45.596270" lon="1.934720">
			 <ele>731</ele>
			<time>2016-06-10T14:09:45Z</time>
			</trkpt>
		
			<trkpt lat="45.596240" lon="1.934960">
			 <ele>732</ele>
			<time>2016-06-10T14:11:45Z</time>
			</trkpt>
		
			<trkpt lat="45.596210" lon="1.935170">
			 <ele>733</ele>
			<time>2016-06-10T14:13:45Z</time>
			</trkpt>
		
			<trkpt lat="45.596190" lon="1.935370">
			 <ele>733</ele>
			<time>2016-06-10T14:15:45Z</time>
			</trkpt>
		
			<trkpt lat="45.596170" lon="1.935750">
			 <ele>734</ele>
			<time>2016-06-10T14:17:45Z</time>
			</trkpt>
		
			<trkpt lat="45.596130" lon="1.936340">
			 <ele>736</ele>
			<time>2016-06-10T14:19:45Z</time>
			</trkpt>
		
			<trkpt lat="45.596100" lon="1.936740">
			 <ele>737</ele>
			<time>2016-06-10T14:21:45Z</time>
			</trkpt>
		
			<trkpt lat="45.596080" lon="1.936910">
			 <ele>738</ele>
			<time>2016-06-10T14:23:45Z</time>
			</trkpt>
		
			<trkpt lat="45.596080" lon="1.937060">
			 <ele>738</ele>
			<time>2016-06-10T14:25:45Z</time>
			</trkpt>
		
			<trkpt lat="45.596080" lon="1.937200">
			 <ele>739</ele>
			<time>2016-06-10T14:27:45Z</time>
			</trkpt>
		
			<trkpt lat="45.596080" lon="1.937220">
			 <ele>739</ele>
			<time>2016-06-10T14:29:45Z</time>
			</trkpt>
		
			<trkpt lat="45.596100" lon="1.937360">
			 <ele>739</ele>
			<time>2016-06-10T14:31:45Z</time>
			</trkpt>
		
			<trkpt lat="45.596130" lon="1.937530">
			 <ele>739</ele>
			<time>2016-06-10T14:33:45Z</time>
			</trkpt>
		
			<trkpt lat="45.596160" lon="1.937680">
			 <ele>739</ele>
			<time>2016-06-10T14:35:45Z</time>
			</trkpt>
		
			<trkpt lat="45.596200" lon="1.937810">
			 <ele>739</ele>
			<time>2016-06-10T14:37:45Z</time>
			</trkpt>
		
			<trkpt lat="45.596260" lon="1.937960">
			 <ele>739</ele>
			<time>2016-06-10T14:39:45Z</time>
			</trkpt>
		
			<trkpt lat="45.596340" lon="1.938160">
			 <ele>739</ele>
			<time>2016-06-10T14:41:45Z</time>
			</trkpt>
		
			<trkpt lat="45.596360" lon="1.938190">
			 <ele>738</ele>
			<time>2016-06-10T14:43:45Z</time>
			</trkpt>
		
			<trkpt lat="45.596420" lon="1.938300">
			 <ele>738</ele>
			<time>2016-06-10T14:45:45Z</time>
			</trkpt>
		
			<trkpt lat="45.596500" lon="1.938390">
			 <ele>738</ele>
			<time>2016-06-10T14:47:45Z</time>
			</trkpt>
		
			<trkpt lat="45.596620" lon="1.938550">
			 <ele>738</ele>
			<time>2016-06-10T14:49:45Z</time>
			</trkpt>
		
			<trkpt lat="45.596850" lon="1.938850">
			 <ele>739</ele>
			<time>2016-06-10T14:51:45Z</time>
			</trkpt>
		
			<trkpt lat="45.596970" lon="1.939020">
			 <ele>740</ele>
			<time>2016-06-10T14:53:45Z</time>
			</trkpt>
		
			<trkpt lat="45.597070" lon="1.939170">
			 <ele>740</ele>
			<time>2016-06-10T14:55:45Z</time>
			</trkpt>
		
			<trkpt lat="45.597110" lon="1.939250">
			 <ele>740</ele>
			<time>2016-06-10T14:57:45Z</time>
			</trkpt>
		
			<trkpt lat="45.597110" lon="1.939250">
			 <ele>740</ele>
			<time>2016-06-10T14:59:45Z</time>
			</trkpt>
		
			<trkpt lat="45.597150" lon="1.939320">
			 <ele>740</ele>
			<time>2016-06-10T15:01:45Z</time>
			</trkpt>
		
			<trkpt lat="45.597220" lon="1.939470">
			 <ele>740</ele>
			<time>2016-06-10T15:03:45Z</time>
			</trkpt>
		
			<trkpt lat="45.597300" lon="1.939630">
			 <ele>740</ele>
			<time>2016-06-10T15:05:45Z</time>
			</trkpt>
		
			<trkpt lat="45.597340" lon="1.939760">
			 <ele>740</ele>
			<time>2016-06-10T15:07:45Z</time>
			</trkpt>
		
			<trkpt lat="45.597360" lon="1.939810">
			 <ele>740</ele>
			<time>2016-06-10T15:09:45Z</time>
			</trkpt>
		
			<trkpt lat="45.597430" lon="1.940010">
			 <ele>740</ele>
			<time>2016-06-10T15:11:45Z</time>
			</trkpt>
		
			<trkpt lat="45.597530" lon="1.940310">
			 <ele>741</ele>
			<time>2016-06-10T15:13:45Z</time>
			</trkpt>
		
			<trkpt lat="45.597620" lon="1.940580">
			 <ele>743</ele>
			<time>2016-06-10T15:15:45Z</time>
			</trkpt>
		
			<trkpt lat="45.597700" lon="1.940810">
			 <ele>743</ele>
			<time>2016-06-10T15:17:45Z</time>
			</trkpt>
		
			<trkpt lat="45.597750" lon="1.941010">
			 <ele>745</ele>
			<time>2016-06-10T15:19:45Z</time>
			</trkpt>
		
			<trkpt lat="45.597760" lon="1.941050">
			 <ele>745</ele>
			<time>2016-06-10T15:21:45Z</time>
			</trkpt>
		
			<trkpt lat="45.597760" lon="1.941050">
			 <ele>745</ele>
			<time>2016-06-10T15:23:45Z</time>
			</trkpt>
		
			<trkpt lat="45.597830" lon="1.941070">
			 <ele>744</ele>
			<time>2016-06-10T15:25:45Z</time>
			</trkpt>
		
			<trkpt lat="45.597940" lon="1.941100">
			 <ele>743</ele>
			<time>2016-06-10T15:27:45Z</time>
			</trkpt>
		
			<trkpt lat="45.598090" lon="1.941240">
			 <ele>742</ele>
			<time>2016-06-10T15:29:45Z</time>
			</trkpt>
		
			<trkpt lat="45.598230" lon="1.941420">
			 <ele>742</ele>
			<time>2016-06-10T15:31:45Z</time>
			</trkpt>
		
			<trkpt lat="45.598360" lon="1.941630">
			 <ele>742</ele>
			<time>2016-06-10T15:33:45Z</time>
			</trkpt>
		
			<trkpt lat="45.598410" lon="1.941760">
			 <ele>743</ele>
			<time>2016-06-10T15:35:45Z</time>
			</trkpt>
		
			<trkpt lat="45.598410" lon="1.941760">
			 <ele>743</ele>
			<time>2016-06-10T15:37:45Z</time>
			</trkpt>
		
			<trkpt lat="45.598490" lon="1.941800">
			 <ele>742</ele>
			<time>2016-06-10T15:39:45Z</time>
			</trkpt>
		
			<trkpt lat="45.598540" lon="1.941820">
			 <ele>741</ele>
			<time>2016-06-10T15:41:45Z</time>
			</trkpt>
		
			<trkpt lat="45.598580" lon="1.941850">
			 <ele>741</ele>
			<time>2016-06-10T15:43:45Z</time>
			</trkpt>
		
			<trkpt lat="45.599240" lon="1.942400">
			 <ele>738</ele>
			<time>2016-06-10T15:45:45Z</time>
			</trkpt>
		
			<trkpt lat="45.599620" lon="1.942710">
			 <ele>735</ele>
			<time>2016-06-10T15:47:45Z</time>
			</trkpt>
		
			<trkpt lat="45.600210" lon="1.943220">
			 <ele>735</ele>
			<time>2016-06-10T15:49:45Z</time>
			</trkpt>
		
			<trkpt lat="45.600350" lon="1.943320">
			 <ele>735</ele>
			<time>2016-06-10T15:51:45Z</time>
			</trkpt>
		
			<trkpt lat="45.600430" lon="1.943370">
			 <ele>735</ele>
			<time>2016-06-10T15:53:45Z</time>
			</trkpt>
		
			<trkpt lat="45.600520" lon="1.943390">
			 <ele>735</ele>
			<time>2016-06-10T15:55:45Z</time>
			</trkpt>
		
			<trkpt lat="45.600600" lon="1.943390">
			 <ele>734</ele>
			<time>2016-06-10T15:57:45Z</time>
			</trkpt>
		
			<trkpt lat="45.600680" lon="1.943370">
			 <ele>734</ele>
			<time>2016-06-10T15:59:45Z</time>
			</trkpt>
		
			<trkpt lat="45.600780" lon="1.943330">
			 <ele>733</ele>
			<time>2016-06-10T16:01:45Z</time>
			</trkpt>
		
			<trkpt lat="45.600940" lon="1.943260">
			 <ele>732</ele>
			<time>2016-06-10T16:03:45Z</time>
			</trkpt>
		
			<trkpt lat="45.601000" lon="1.943240">
			 <ele>732</ele>
			<time>2016-06-10T16:05:45Z</time>
			</trkpt>
		
			<trkpt lat="45.601070" lon="1.943230">
			 <ele>731</ele>
			<time>2016-06-10T16:07:45Z</time>
			</trkpt>
		
			<trkpt lat="45.601130" lon="1.943240">
			 <ele>731</ele>
			<time>2016-06-10T16:09:45Z</time>
			</trkpt>
		
			<trkpt lat="45.601190" lon="1.943260">
			 <ele>730</ele>
			<time>2016-06-10T16:11:45Z</time>
			</trkpt>
		
			<trkpt lat="45.601260" lon="1.943290">
			 <ele>730</ele>
			<time>2016-06-10T16:13:45Z</time>
			</trkpt>
		
			<trkpt lat="45.601710" lon="1.943570">
			 <ele>730</ele>
			<time>2016-06-10T16:15:45Z</time>
			</trkpt>
		
			<trkpt lat="45.602130" lon="1.943820">
			 <ele>731</ele>
			<time>2016-06-10T16:17:45Z</time>
			</trkpt>
		
			<trkpt lat="45.602190" lon="1.943860">
			 <ele>731</ele>
			<time>2016-06-10T16:19:45Z</time>
			</trkpt>
		
			<trkpt lat="45.602300" lon="1.943920">
			 <ele>730</ele>
			<time>2016-06-10T16:21:45Z</time>
			</trkpt>
		
			<trkpt lat="45.602360" lon="1.943970">
			 <ele>730</ele>
			<time>2016-06-10T16:23:45Z</time>
			</trkpt>
		
			<trkpt lat="45.602400" lon="1.944010">
			 <ele>730</ele>
			<time>2016-06-10T16:25:45Z</time>
			</trkpt>
		
			<trkpt lat="45.602460" lon="1.944080">
			 <ele>729</ele>
			<time>2016-06-10T16:27:45Z</time>
			</trkpt>
		
			<trkpt lat="45.602520" lon="1.944190">
			 <ele>729</ele>
			<time>2016-06-10T16:29:45Z</time>
			</trkpt>
		
			<trkpt lat="45.602590" lon="1.944350">
			 <ele>728</ele>
			<time>2016-06-10T16:31:45Z</time>
			</trkpt>
		
			<trkpt lat="45.602720" lon="1.944680">
			 <ele>727</ele>
			<time>2016-06-10T16:33:45Z</time>
			</trkpt>
		
			<trkpt lat="45.602790" lon="1.944830">
			 <ele>727</ele>
			<time>2016-06-10T16:35:45Z</time>
			</trkpt>
		
			<trkpt lat="45.602850" lon="1.944920">
			 <ele>726</ele>
			<time>2016-06-10T16:37:45Z</time>
			</trkpt>
		
			<trkpt lat="45.602920" lon="1.945000">
			 <ele>727</ele>
			<time>2016-06-10T16:39:45Z</time>
			</trkpt>
		
			<trkpt lat="45.603000" lon="1.945040">
			 <ele>727</ele>
			<time>2016-06-10T16:41:45Z</time>
			</trkpt>
		
			<trkpt lat="45.603160" lon="1.945120">
			 <ele>727</ele>
			<time>2016-06-10T16:43:45Z</time>
			</trkpt>
		
			<trkpt lat="45.603200" lon="1.945150">
			 <ele>727</ele>
			<time>2016-06-10T16:45:45Z</time>
			</trkpt>
		
			<trkpt lat="45.603250" lon="1.945220">
			 <ele>726</ele>
			<time>2016-06-10T16:47:45Z</time>
			</trkpt>
		
			<trkpt lat="45.603300" lon="1.945310">
			 <ele>725</ele>
			<time>2016-06-10T16:49:45Z</time>
			</trkpt>
		
			<trkpt lat="45.603390" lon="1.945480">
			 <ele>723</ele>
			<time>2016-06-10T16:51:45Z</time>
			</trkpt>
		
			<trkpt lat="45.603420" lon="1.945540">
			 <ele>722</ele>
			<time>2016-06-10T16:53:45Z</time>
			</trkpt>
		
			<trkpt lat="45.603490" lon="1.945620">
			 <ele>722</ele>
			<time>2016-06-10T16:55:45Z</time>
			</trkpt>
		
			<trkpt lat="45.603670" lon="1.945800">
			 <ele>722</ele>
			<time>2016-06-10T16:57:45Z</time>
			</trkpt>
		
			<trkpt lat="45.603850" lon="1.945950">
			 <ele>722</ele>
			<time>2016-06-10T16:59:45Z</time>
			</trkpt>
		
			<trkpt lat="45.604050" lon="1.946090">
			 <ele>722</ele>
			<time>2016-06-10T17:01:45Z</time>
			</trkpt>
		
			<trkpt lat="45.604220" lon="1.946190">
			 <ele>722</ele>
			<time>2016-06-10T17:03:45Z</time>
			</trkpt>
		
			<trkpt lat="45.604320" lon="1.946250">
			 <ele>721</ele>
			<time>2016-06-10T17:05:45Z</time>
			</trkpt>
		
			<trkpt lat="45.604420" lon="1.946290">
			 <ele>720</ele>
			<time>2016-06-10T17:07:45Z</time>
			</trkpt>
		
			<trkpt lat="45.604560" lon="1.946320">
			 <ele>720</ele>
			<time>2016-06-10T17:09:45Z</time>
			</trkpt>
		
			<trkpt lat="45.604650" lon="1.946350">
			 <ele>720</ele>
			<time>2016-06-10T17:11:45Z</time>
			</trkpt>
		
			<trkpt lat="45.604730" lon="1.946400">
			 <ele>719</ele>
			<time>2016-06-10T17:13:45Z</time>
			</trkpt>
		
			<trkpt lat="45.604800" lon="1.946460">
			 <ele>719</ele>
			<time>2016-06-10T17:15:45Z</time>
			</trkpt>
		
			<trkpt lat="45.604870" lon="1.946550">
			 <ele>718</ele>
			<time>2016-06-10T17:17:45Z</time>
			</trkpt>
		
			<trkpt lat="45.604930" lon="1.946660">
			 <ele>717</ele>
			<time>2016-06-10T17:19:45Z</time>
			</trkpt>
		
			<trkpt lat="45.605100" lon="1.947030">
			 <ele>713</ele>
			<time>2016-06-10T17:21:45Z</time>
			</trkpt>
		
			<trkpt lat="45.605310" lon="1.947510">
			 <ele>709</ele>
			<time>2016-06-10T17:23:45Z</time>
			</trkpt>
		
			<trkpt lat="45.605390" lon="1.947680">
			 <ele>709</ele>
			<time>2016-06-10T17:25:45Z</time>
			</trkpt>
		
			<trkpt lat="45.605440" lon="1.947760">
			 <ele>709</ele>
			<time>2016-06-10T17:27:45Z</time>
			</trkpt>
		
			<trkpt lat="45.605520" lon="1.947830">
			 <ele>709</ele>
			<time>2016-06-10T17:29:45Z</time>
			</trkpt>
		
			<trkpt lat="45.605770" lon="1.948010">
			 <ele>709</ele>
			<time>2016-06-10T17:31:45Z</time>
			</trkpt>
		
			<trkpt lat="45.606430" lon="1.948500">
			 <ele>705</ele>
			<time>2016-06-10T17:33:45Z</time>
			</trkpt>
		
			<trkpt lat="45.606660" lon="1.948670">
			 <ele>704</ele>
			<time>2016-06-10T17:35:45Z</time>
			</trkpt>
		
			<trkpt lat="45.606720" lon="1.948730">
			 <ele>704</ele>
			<time>2016-06-10T17:37:45Z</time>
			</trkpt>
		
			<trkpt lat="45.606780" lon="1.948810">
			 <ele>704</ele>
			<time>2016-06-10T17:39:45Z</time>
			</trkpt>
		
			<trkpt lat="45.606820" lon="1.948900">
			 <ele>704</ele>
			<time>2016-06-10T17:41:45Z</time>
			</trkpt>
		
			<trkpt lat="45.606850" lon="1.948990">
			 <ele>704</ele>
			<time>2016-06-10T17:43:45Z</time>
			</trkpt>
		
			<trkpt lat="45.606880" lon="1.949120">
			 <ele>704</ele>
			<time>2016-06-10T17:45:45Z</time>
			</trkpt>
		
			<trkpt lat="45.606920" lon="1.949320">
			 <ele>705</ele>
			<time>2016-06-10T17:47:45Z</time>
			</trkpt>
		
			<trkpt lat="45.606940" lon="1.949440">
			 <ele>706</ele>
			<time>2016-06-10T17:49:45Z</time>
			</trkpt>
		
			<trkpt lat="45.606970" lon="1.949610">
			 <ele>707</ele>
			<time>2016-06-10T17:51:45Z</time>
			</trkpt>
		
			<trkpt lat="45.607000" lon="1.949730">
			 <ele>708</ele>
			<time>2016-06-10T17:53:45Z</time>
			</trkpt>
		
			<trkpt lat="45.607080" lon="1.950150">
			 <ele>711</ele>
			<time>2016-06-10T17:55:45Z</time>
			</trkpt>
		
			<trkpt lat="45.607100" lon="1.950280">
			 <ele>712</ele>
			<time>2016-06-10T17:57:45Z</time>
			</trkpt>
		
			<trkpt lat="45.607110" lon="1.950420">
			 <ele>713</ele>
			<time>2016-06-10T17:59:45Z</time>
			</trkpt>
		
			<trkpt lat="45.607110" lon="1.950570">
			 <ele>714</ele>
			<time>2016-06-10T18:01:45Z</time>
			</trkpt>
		
			<trkpt lat="45.607090" lon="1.950820">
			 <ele>716</ele>
			<time>2016-06-10T18:03:45Z</time>
			</trkpt>
		
			<trkpt lat="45.607060" lon="1.951250">
			 <ele>717</ele>
			<time>2016-06-10T18:05:45Z</time>
			</trkpt>
		
			<trkpt lat="45.607040" lon="1.951560">
			 <ele>719</ele>
			<time>2016-06-10T18:07:45Z</time>
			</trkpt>
		
			<trkpt lat="45.607030" lon="1.951700">
			 <ele>719</ele>
			<time>2016-06-10T18:09:45Z</time>
			</trkpt>
		
			<trkpt lat="45.607040" lon="1.951850">
			 <ele>719</ele>
			<time>2016-06-10T18:11:45Z</time>
			</trkpt>
		
			<trkpt lat="45.607070" lon="1.952010">
			 <ele>720</ele>
			<time>2016-06-10T18:13:45Z</time>
			</trkpt>
		
			<trkpt lat="45.607130" lon="1.952190">
			 <ele>721</ele>
			<time>2016-06-10T18:15:45Z</time>
			</trkpt>
		
			<trkpt lat="45.607290" lon="1.952660">
			 <ele>723</ele>
			<time>2016-06-10T18:17:45Z</time>
			</trkpt>
		
			<trkpt lat="45.607440" lon="1.953030">
			 <ele>723</ele>
			<time>2016-06-10T18:19:45Z</time>
			</trkpt>
		
			<trkpt lat="45.607550" lon="1.953270">
			 <ele>723</ele>
			<time>2016-06-10T18:21:45Z</time>
			</trkpt>
		
			<trkpt lat="45.607710" lon="1.953590">
			 <ele>724</ele>
			<time>2016-06-10T18:23:45Z</time>
			</trkpt>
		
			<trkpt lat="45.607930" lon="1.954030">
			 <ele>724</ele>
			<time>2016-06-10T18:25:45Z</time>
			</trkpt>
		
			<trkpt lat="45.608090" lon="1.954340">
			 <ele>723</ele>
			<time>2016-06-10T18:27:45Z</time>
			</trkpt>
		
			<trkpt lat="45.608190" lon="1.954520">
			 <ele>722</ele>
			<time>2016-06-10T18:29:45Z</time>
			</trkpt>
		
			<trkpt lat="45.608310" lon="1.954700">
			 <ele>722</ele>
			<time>2016-06-10T18:31:45Z</time>
			</trkpt>
		
			<trkpt lat="45.608560" lon="1.955020">
			 <ele>721</ele>
			<time>2016-06-10T18:33:45Z</time>
			</trkpt>
		
			<trkpt lat="45.608730" lon="1.955250">
			 <ele>721</ele>
			<time>2016-06-10T18:35:45Z</time>
			</trkpt>
		
			<trkpt lat="45.608850" lon="1.955420">
			 <ele>721</ele>
			<time>2016-06-10T18:37:45Z</time>
			</trkpt>
		
			<trkpt lat="45.608920" lon="1.955520">
			 <ele>721</ele>
			<time>2016-06-10T18:39:45Z</time>
			</trkpt>
		
			<trkpt lat="45.608980" lon="1.955640">
			 <ele>721</ele>
			<time>2016-06-10T18:41:45Z</time>
			</trkpt>
		
			<trkpt lat="45.609040" lon="1.955760">
			 <ele>721</ele>
			<time>2016-06-10T18:43:45Z</time>
			</trkpt>
		
			<trkpt lat="45.609210" lon="1.956180">
			 <ele>719</ele>
			<time>2016-06-10T18:45:45Z</time>
			</trkpt>
		
			<trkpt lat="45.609330" lon="1.956360">
			 <ele>719</ele>
			<time>2016-06-10T18:47:45Z</time>
			</trkpt>
		
			<trkpt lat="45.609530" lon="1.956530">
			 <ele>718</ele>
			<time>2016-06-10T18:49:45Z</time>
			</trkpt>
		
			<trkpt lat="45.609780" lon="1.956650">
			 <ele>718</ele>
			<time>2016-06-10T18:51:45Z</time>
			</trkpt>
		
			<trkpt lat="45.611040" lon="1.956880">
			 <ele>716</ele>
			<time>2016-06-10T18:53:45Z</time>
			</trkpt>
		
			<trkpt lat="45.611450" lon="1.956950">
			 <ele>713</ele>
			<time>2016-06-10T18:55:45Z</time>
			</trkpt>
		
			<trkpt lat="45.611470" lon="1.956950">
			 <ele>713</ele>
			<time>2016-06-10T18:57:45Z</time>
			</trkpt>
		
			<trkpt lat="45.611640" lon="1.956980">
			 <ele>712</ele>
			<time>2016-06-10T18:59:45Z</time>
			</trkpt>
		
			<trkpt lat="45.611700" lon="1.956990">
			 <ele>712</ele>
			<time>2016-06-10T19:01:45Z</time>
			</trkpt>
		
			<trkpt lat="45.611870" lon="1.957010">
			 <ele>711</ele>
			<time>2016-06-10T19:03:45Z</time>
			</trkpt>
		
			<trkpt lat="45.612060" lon="1.957070">
			 <ele>711</ele>
			<time>2016-06-10T19:05:45Z</time>
			</trkpt>
		
			<trkpt lat="45.612200" lon="1.957130">
			 <ele>711</ele>
			<time>2016-06-10T19:07:45Z</time>
			</trkpt>
		
			<trkpt lat="45.612350" lon="1.957260">
			 <ele>710</ele>
			<time>2016-06-10T19:09:45Z</time>
			</trkpt>
		
			<trkpt lat="45.612490" lon="1.957420">
			 <ele>710</ele>
			<time>2016-06-10T19:11:45Z</time>
			</trkpt>
		
			<trkpt lat="45.612590" lon="1.957590">
			 <ele>710</ele>
			<time>2016-06-10T19:13:45Z</time>
			</trkpt>
		
			<trkpt lat="45.612680" lon="1.957750">
			 <ele>711</ele>
			<time>2016-06-10T19:15:45Z</time>
			</trkpt>
		
			<trkpt lat="45.613030" lon="1.958330">
			 <ele>712</ele>
			<time>2016-06-10T19:17:45Z</time>
			</trkpt>
		
			<trkpt lat="45.613400" lon="1.958940">
			 <ele>718</ele>
			<time>2016-06-10T19:19:45Z</time>
			</trkpt>
		
			<trkpt lat="45.613820" lon="1.959630">
			 <ele>726</ele>
			<time>2016-06-10T19:21:45Z</time>
			</trkpt>
		
			<trkpt lat="45.614110" lon="1.960130">
			 <ele>724</ele>
			<time>2016-06-10T19:23:45Z</time>
			</trkpt>
		
			<trkpt lat="45.614190" lon="1.960290">
			 <ele>724</ele>
			<time>2016-06-10T19:25:45Z</time>
			</trkpt>
		
			<trkpt lat="45.614280" lon="1.960540">
			 <ele>725</ele>
			<time>2016-06-10T19:27:45Z</time>
			</trkpt>
		
			<trkpt lat="45.614330" lon="1.960750">
			 <ele>725</ele>
			<time>2016-06-10T19:29:45Z</time>
			</trkpt>
		
			<trkpt lat="45.614410" lon="1.961100">
			 <ele>726</ele>
			<time>2016-06-10T19:31:45Z</time>
			</trkpt>
		
			<trkpt lat="45.614510" lon="1.961680">
			 <ele>726</ele>
			<time>2016-06-10T19:33:45Z</time>
			</trkpt>
		
			<trkpt lat="45.614600" lon="1.962330">
			 <ele>727</ele>
			<time>2016-06-10T19:35:45Z</time>
			</trkpt>
		
			<trkpt lat="45.614640" lon="1.962590">
			 <ele>727</ele>
			<time>2016-06-10T19:37:45Z</time>
			</trkpt>
		
			<trkpt lat="45.614680" lon="1.962720">
			 <ele>727</ele>
			<time>2016-06-10T19:39:45Z</time>
			</trkpt>
		
			<trkpt lat="45.614740" lon="1.962840">
			 <ele>726</ele>
			<time>2016-06-10T19:41:45Z</time>
			</trkpt>
		
			<trkpt lat="45.614840" lon="1.962990">
			 <ele>725</ele>
			<time>2016-06-10T19:43:45Z</time>
			</trkpt>
		
			<trkpt lat="45.615140" lon="1.963290">
			 <ele>722</ele>
			<time>2016-06-10T19:45:45Z</time>
			</trkpt>
		
			<trkpt lat="45.615710" lon="1.963790">
			 <ele>722</ele>
			<time>2016-06-10T19:47:45Z</time>
			</trkpt>
		
			<trkpt lat="45.615900" lon="1.963950">
			 <ele>722</ele>
			<time>2016-06-10T19:49:45Z</time>
			</trkpt>
		
			<trkpt lat="45.616020" lon="1.964020">
			 <ele>723</ele>
			<time>2016-06-10T19:51:45Z</time>
			</trkpt>
		
			<trkpt lat="45.616180" lon="1.964060">
			 <ele>724</ele>
			<time>2016-06-10T19:53:45Z</time>
			</trkpt>
		
			<trkpt lat="45.616420" lon="1.964090">
			 <ele>725</ele>
			<time>2016-06-10T19:55:45Z</time>
			</trkpt>
		
			<trkpt lat="45.616660" lon="1.964120">
			 <ele>726</ele>
			<time>2016-06-10T19:57:45Z</time>
			</trkpt>
		
			<trkpt lat="45.616800" lon="1.964140">
			 <ele>726</ele>
			<time>2016-06-10T19:59:45Z</time>
			</trkpt>
		
			<trkpt lat="45.616950" lon="1.964220">
			 <ele>726</ele>
			<time>2016-06-10T20:01:45Z</time>
			</trkpt>
		
			<trkpt lat="45.617240" lon="1.964460">
			 <ele>727</ele>
			<time>2016-06-10T20:03:45Z</time>
			</trkpt>
		
			<trkpt lat="45.617500" lon="1.964700">
			 <ele>726</ele>
			<time>2016-06-10T20:05:45Z</time>
			</trkpt>
		
			<trkpt lat="45.617590" lon="1.964810">
			 <ele>726</ele>
			<time>2016-06-10T20:07:45Z</time>
			</trkpt>
		
			<trkpt lat="45.617650" lon="1.964920">
			 <ele>725</ele>
			<time>2016-06-10T20:09:45Z</time>
			</trkpt>
		
			<trkpt lat="45.617690" lon="1.965080">
			 <ele>725</ele>
			<time>2016-06-10T20:11:45Z</time>
			</trkpt>
		
			<trkpt lat="45.617730" lon="1.965430">
			 <ele>726</ele>
			<time>2016-06-10T20:13:45Z</time>
			</trkpt>
		
			<trkpt lat="45.617770" lon="1.965700">
			 <ele>727</ele>
			<time>2016-06-10T20:15:45Z</time>
			</trkpt>
		
			<trkpt lat="45.617820" lon="1.965840">
			 <ele>727</ele>
			<time>2016-06-10T20:17:45Z</time>
			</trkpt>
		
			<trkpt lat="45.617910" lon="1.966030">
			 <ele>726</ele>
			<time>2016-06-10T20:19:45Z</time>
			</trkpt>
		
			<trkpt lat="45.618000" lon="1.966230">
			 <ele>725</ele>
			<time>2016-06-10T20:21:45Z</time>
			</trkpt>
		
			<trkpt lat="45.618050" lon="1.966370">
			 <ele>724</ele>
			<time>2016-06-10T20:23:45Z</time>
			</trkpt>
		
			<trkpt lat="45.618090" lon="1.966520">
			 <ele>724</ele>
			<time>2016-06-10T20:25:45Z</time>
			</trkpt>
		
			<trkpt lat="45.618110" lon="1.966750">
			 <ele>724</ele>
			<time>2016-06-10T20:27:45Z</time>
			</trkpt>
		
			<trkpt lat="45.618130" lon="1.967130">
			 <ele>727</ele>
			<time>2016-06-10T20:29:45Z</time>
			</trkpt>
		
			<trkpt lat="45.618160" lon="1.967270">
			 <ele>727</ele>
			<time>2016-06-10T20:31:45Z</time>
			</trkpt>
		
			<trkpt lat="45.618200" lon="1.967400">
			 <ele>727</ele>
			<time>2016-06-10T20:33:45Z</time>
			</trkpt>
		
			<trkpt lat="45.618250" lon="1.967520">
			 <ele>728</ele>
			<time>2016-06-10T20:35:45Z</time>
			</trkpt>
		
			<trkpt lat="45.618340" lon="1.967650">
			 <ele>728</ele>
			<time>2016-06-10T20:37:45Z</time>
			</trkpt>
		
			<trkpt lat="45.618460" lon="1.967770">
			 <ele>729</ele>
			<time>2016-06-10T20:39:45Z</time>
			</trkpt>
		
			<trkpt lat="45.618610" lon="1.967910">
			 <ele>730</ele>
			<time>2016-06-10T20:41:45Z</time>
			</trkpt>
		
			<trkpt lat="45.618700" lon="1.968010">
			 <ele>730</ele>
			<time>2016-06-10T20:43:45Z</time>
			</trkpt>
		
			<trkpt lat="45.618770" lon="1.968090">
			 <ele>730</ele>
			<time>2016-06-10T20:45:45Z</time>
			</trkpt>
		
			<trkpt lat="45.618820" lon="1.968210">
			 <ele>731</ele>
			<time>2016-06-10T20:47:45Z</time>
			</trkpt>
		
			<trkpt lat="45.618880" lon="1.968400">
			 <ele>731</ele>
			<time>2016-06-10T20:49:45Z</time>
			</trkpt>
		
			<trkpt lat="45.618930" lon="1.968670">
			 <ele>731</ele>
			<time>2016-06-10T20:51:45Z</time>
			</trkpt>
		
			<trkpt lat="45.619000" lon="1.969010">
			 <ele>731</ele>
			<time>2016-06-10T20:53:45Z</time>
			</trkpt>
		
			<trkpt lat="45.619050" lon="1.969320">
			 <ele>730</ele>
			<time>2016-06-10T20:55:45Z</time>
			</trkpt>
		
			<trkpt lat="45.619070" lon="1.969500">
			 <ele>730</ele>
			<time>2016-06-10T20:57:45Z</time>
			</trkpt>
		
			<trkpt lat="45.619070" lon="1.969640">
			 <ele>730</ele>
			<time>2016-06-10T20:59:45Z</time>
			</trkpt>
		
			<trkpt lat="45.619060" lon="1.969790">
			 <ele>731</ele>
			<time>2016-06-10T21:01:45Z</time>
			</trkpt>
		
			<trkpt lat="45.618980" lon="1.970070">
			 <ele>733</ele>
			<time>2016-06-10T21:03:45Z</time>
			</trkpt>
		
			<trkpt lat="45.618910" lon="1.970350">
			 <ele>734</ele>
			<time>2016-06-10T21:05:45Z</time>
			</trkpt>
		
			<trkpt lat="45.618880" lon="1.970500">
			 <ele>735</ele>
			<time>2016-06-10T21:07:45Z</time>
			</trkpt>
		
			<trkpt lat="45.618870" lon="1.970660">
			 <ele>735</ele>
			<time>2016-06-10T21:09:45Z</time>
			</trkpt>
		
			<trkpt lat="45.618890" lon="1.970840">
			 <ele>734</ele>
			<time>2016-06-10T21:11:45Z</time>
			</trkpt>
		
			<trkpt lat="45.618950" lon="1.971060">
			 <ele>733</ele>
			<time>2016-06-10T21:13:45Z</time>
			</trkpt>
		
			<trkpt lat="45.619110" lon="1.971440">
			 <ele>731</ele>
			<time>2016-06-10T21:15:45Z</time>
			</trkpt>
		
			<trkpt lat="45.619230" lon="1.971750">
			 <ele>732</ele>
			<time>2016-06-10T21:17:45Z</time>
			</trkpt>
		
			<trkpt lat="45.619300" lon="1.971860">
			 <ele>732</ele>
			<time>2016-06-10T21:19:45Z</time>
			</trkpt>
		
			<trkpt lat="45.619370" lon="1.971940">
			 <ele>733</ele>
			<time>2016-06-10T21:21:45Z</time>
			</trkpt>
		
			<trkpt lat="45.619440" lon="1.971980">
			 <ele>733</ele>
			<time>2016-06-10T21:23:45Z</time>
			</trkpt>
		
			<trkpt lat="45.619480" lon="1.971990">
			 <ele>733</ele>
			<time>2016-06-10T21:25:45Z</time>
			</trkpt>
		
			<trkpt lat="45.619590" lon="1.971960">
			 <ele>732</ele>
			<time>2016-06-10T21:27:45Z</time>
			</trkpt>
		
			<trkpt lat="45.619640" lon="1.971920">
			 <ele>732</ele>
			<time>2016-06-10T21:29:45Z</time>
			</trkpt>
		
			<trkpt lat="45.620320" lon="1.971300">
			 <ele>733</ele>
			<time>2016-06-10T21:31:45Z</time>
			</trkpt>
		
			<trkpt lat="45.620360" lon="1.971300">
			 <ele>733</ele>
			<time>2016-06-10T21:33:45Z</time>
			</trkpt>
		
			<trkpt lat="45.620420" lon="1.971300">
			 <ele>733</ele>
			<time>2016-06-10T21:35:45Z</time>
			</trkpt>
		
			<trkpt lat="45.620450" lon="1.971360">
			 <ele>733</ele>
			<time>2016-06-10T21:37:45Z</time>
			</trkpt>
		
			<trkpt lat="45.620490" lon="1.971470">
			 <ele>732</ele>
			<time>2016-06-10T21:39:45Z</time>
			</trkpt>
		
			<trkpt lat="45.620520" lon="1.971760">
			 <ele>731</ele>
			<time>2016-06-10T21:41:45Z</time>
			</trkpt>
		
			<trkpt lat="45.620540" lon="1.971990">
			 <ele>732</ele>
			<time>2016-06-10T21:43:45Z</time>
			</trkpt>
		
			<trkpt lat="45.620540" lon="1.972150">
			 <ele>733</ele>
			<time>2016-06-10T21:45:45Z</time>
			</trkpt>
		
			<trkpt lat="45.620510" lon="1.972260">
			 <ele>733</ele>
			<time>2016-06-10T21:47:45Z</time>
			</trkpt>
		
			<trkpt lat="45.620470" lon="1.972330">
			 <ele>733</ele>
			<time>2016-06-10T21:49:45Z</time>
			</trkpt>
		
			<trkpt lat="45.620280" lon="1.972530">
			 <ele>734</ele>
			<time>2016-06-10T21:51:45Z</time>
			</trkpt>
		
			<trkpt lat="45.620140" lon="1.972680">
			 <ele>733</ele>
			<time>2016-06-10T21:53:45Z</time>
			</trkpt>
		
			<trkpt lat="45.620090" lon="1.972800">
			 <ele>733</ele>
			<time>2016-06-10T21:55:45Z</time>
			</trkpt>
		
			<trkpt lat="45.620050" lon="1.972920">
			 <ele>733</ele>
			<time>2016-06-10T21:57:45Z</time>
			</trkpt>
		
			<trkpt lat="45.620050" lon="1.972940">
			 <ele>733</ele>
			<time>2016-06-10T21:59:45Z</time>
			</trkpt>
		
			<trkpt lat="45.620040" lon="1.973060">
			 <ele>733</ele>
			<time>2016-06-10T22:01:45Z</time>
			</trkpt>
		
			<trkpt lat="45.620050" lon="1.973230">
			 <ele>733</ele>
			<time>2016-06-10T22:03:45Z</time>
			</trkpt>
		
			<trkpt lat="45.620210" lon="1.974010">
			 <ele>735</ele>
			<time>2016-06-10T22:05:45Z</time>
			</trkpt>
		
			<trkpt lat="45.620390" lon="1.974870">
			 <ele>737</ele>
			<time>2016-06-10T22:07:45Z</time>
			</trkpt>
		
			<trkpt lat="45.620560" lon="1.975680">
			 <ele>738</ele>
			<time>2016-06-10T22:09:45Z</time>
			</trkpt>
		
			<trkpt lat="45.620680" lon="1.976300">
			 <ele>739</ele>
			<time>2016-06-10T22:11:45Z</time>
			</trkpt>
		
			<trkpt lat="45.620730" lon="1.976520">
			 <ele>739</ele>
			<time>2016-06-10T22:13:45Z</time>
			</trkpt>
		
			<trkpt lat="45.620750" lon="1.976700">
			 <ele>740</ele>
			<time>2016-06-10T22:15:45Z</time>
			</trkpt>
		
			<trkpt lat="45.620760" lon="1.976890">
			 <ele>740</ele>
			<time>2016-06-10T22:17:45Z</time>
			</trkpt>
		
			<trkpt lat="45.620770" lon="1.977200">
			 <ele>740</ele>
			<time>2016-06-10T22:19:45Z</time>
			</trkpt>
		
			<trkpt lat="45.620770" lon="1.977510">
			 <ele>740</ele>
			<time>2016-06-10T22:21:45Z</time>
			</trkpt>
		
			<trkpt lat="45.620760" lon="1.977820">
			 <ele>740</ele>
			<time>2016-06-10T22:23:45Z</time>
			</trkpt>
		
			<trkpt lat="45.620740" lon="1.977980">
			 <ele>740</ele>
			<time>2016-06-10T22:25:45Z</time>
			</trkpt>
		
			<trkpt lat="45.620670" lon="1.978260">
			 <ele>739</ele>
			<time>2016-06-10T22:27:45Z</time>
			</trkpt>
		
			<trkpt lat="45.620560" lon="1.978600">
			 <ele>740</ele>
			<time>2016-06-10T22:29:45Z</time>
			</trkpt>
		
			<trkpt lat="45.620450" lon="1.978950">
			 <ele>741</ele>
			<time>2016-06-10T22:31:45Z</time>
			</trkpt>
		
			<trkpt lat="45.620370" lon="1.979230">
			 <ele>741</ele>
			<time>2016-06-10T22:33:45Z</time>
			</trkpt>
		
			<trkpt lat="45.620310" lon="1.979410">
			 <ele>741</ele>
			<time>2016-06-10T22:35:45Z</time>
			</trkpt>
		
			<trkpt lat="45.620260" lon="1.979510">
			 <ele>741</ele>
			<time>2016-06-10T22:37:45Z</time>
			</trkpt>
		
			<trkpt lat="45.620170" lon="1.979600">
			 <ele>742</ele>
			<time>2016-06-10T22:39:45Z</time>
			</trkpt>
		
			<trkpt lat="45.620080" lon="1.979650">
			 <ele>742</ele>
			<time>2016-06-10T22:41:45Z</time>
			</trkpt>
		
			<trkpt lat="45.620000" lon="1.979660">
			 <ele>742</ele>
			<time>2016-06-10T22:43:45Z</time>
			</trkpt>
		
			<trkpt lat="45.619890" lon="1.979720">
			 <ele>744</ele>
			<time>2016-06-10T22:45:45Z</time>
			</trkpt>
		
			<trkpt lat="45.619830" lon="1.979760">
			 <ele>744</ele>
			<time>2016-06-10T22:47:45Z</time>
			</trkpt>
		
			<trkpt lat="45.619750" lon="1.979840">
			 <ele>745</ele>
			<time>2016-06-10T22:49:45Z</time>
			</trkpt>
		
			<trkpt lat="45.619670" lon="1.979950">
			 <ele>746</ele>
			<time>2016-06-10T22:51:45Z</time>
			</trkpt>
		
			<trkpt lat="45.619540" lon="1.980160">
			 <ele>745</ele>
			<time>2016-06-10T22:53:45Z</time>
			</trkpt>
		
			<trkpt lat="45.619420" lon="1.980360">
			 <ele>745</ele>
			<time>2016-06-10T22:55:45Z</time>
			</trkpt>
		
			<trkpt lat="45.619290" lon="1.980580">
			 <ele>744</ele>
			<time>2016-06-10T22:57:45Z</time>
			</trkpt>
		
			<trkpt lat="45.619160" lon="1.980750">
			 <ele>743</ele>
			<time>2016-06-10T22:59:45Z</time>
			</trkpt>
		
			<trkpt lat="45.619080" lon="1.980860">
			 <ele>744</ele>
			<time>2016-06-10T23:01:45Z</time>
			</trkpt>
		
			<trkpt lat="45.619010" lon="1.980940">
			 <ele>744</ele>
			<time>2016-06-10T23:03:45Z</time>
			</trkpt>
		
			<trkpt lat="45.618920" lon="1.981010">
			 <ele>745</ele>
			<time>2016-06-10T23:05:45Z</time>
			</trkpt>
		
			<trkpt lat="45.618810" lon="1.981080">
			 <ele>747</ele>
			<time>2016-06-10T23:07:45Z</time>
			</trkpt>
		
			<trkpt lat="45.618640" lon="1.981160">
			 <ele>749</ele>
			<time>2016-06-10T23:09:45Z</time>
			</trkpt>
		
			<trkpt lat="45.618450" lon="1.981240">
			 <ele>752</ele>
			<time>2016-06-10T23:11:45Z</time>
			</trkpt>
		
			<trkpt lat="45.618360" lon="1.981300">
			 <ele>753</ele>
			<time>2016-06-10T23:13:45Z</time>
			</trkpt>
		
			<trkpt lat="45.618290" lon="1.981390">
			 <ele>754</ele>
			<time>2016-06-10T23:15:45Z</time>
			</trkpt>
		
			<trkpt lat="45.618270" lon="1.981420">
			 <ele>754</ele>
			<time>2016-06-10T23:17:45Z</time>
			</trkpt>
		
			<trkpt lat="45.618220" lon="1.981490">
			 <ele>754</ele>
			<time>2016-06-10T23:19:45Z</time>
			</trkpt>
		
			<trkpt lat="45.617910" lon="1.982190">
			 <ele>757</ele>
			<time>2016-06-10T23:21:45Z</time>
			</trkpt>
		
			<trkpt lat="45.617800" lon="1.982400">
			 <ele>758</ele>
			<time>2016-06-10T23:23:45Z</time>
			</trkpt>
		
			<trkpt lat="45.617700" lon="1.982550">
			 <ele>759</ele>
			<time>2016-06-10T23:25:45Z</time>
			</trkpt>
		
			<trkpt lat="45.617640" lon="1.982640">
			 <ele>760</ele>
			<time>2016-06-10T23:27:45Z</time>
			</trkpt>
		
			<trkpt lat="45.617580" lon="1.982740">
			 <ele>762</ele>
			<time>2016-06-10T23:29:45Z</time>
			</trkpt>
		
			<trkpt lat="45.617560" lon="1.982830">
			 <ele>762</ele>
			<time>2016-06-10T23:31:45Z</time>
			</trkpt>
		
			<trkpt lat="45.617560" lon="1.983000">
			 <ele>763</ele>
			<time>2016-06-10T23:33:45Z</time>
			</trkpt>
		
			<trkpt lat="45.617580" lon="1.983190">
			 <ele>763</ele>
			<time>2016-06-10T23:35:45Z</time>
			</trkpt>
		
			<trkpt lat="45.617600" lon="1.983310">
			 <ele>762</ele>
			<time>2016-06-10T23:37:45Z</time>
			</trkpt>
		
			<trkpt lat="45.617600" lon="1.983450">
			 <ele>762</ele>
			<time>2016-06-10T23:39:45Z</time>
			</trkpt>
		
			<trkpt lat="45.617580" lon="1.983590">
			 <ele>763</ele>
			<time>2016-06-10T23:41:45Z</time>
			</trkpt>
		
			<trkpt lat="45.617520" lon="1.983730">
			 <ele>764</ele>
			<time>2016-06-10T23:43:45Z</time>
			</trkpt>
		
			<trkpt lat="45.617290" lon="1.984100">
			 <ele>768</ele>
			<time>2016-06-10T23:45:45Z</time>
			</trkpt>
		
			<trkpt lat="45.617050" lon="1.984460">
			 <ele>772</ele>
			<time>2016-06-10T23:47:45Z</time>
			</trkpt>
		
			<trkpt lat="45.616940" lon="1.984620">
			 <ele>773</ele>
			<time>2016-06-10T23:49:45Z</time>
			</trkpt>
		
			<trkpt lat="45.616880" lon="1.984710">
			 <ele>774</ele>
			<time>2016-06-10T23:51:45Z</time>
			</trkpt>
		
			<trkpt lat="45.616680" lon="1.984870">
			 <ele>775</ele>
			<time>2016-06-10T23:53:45Z</time>
			</trkpt>
		
			<trkpt lat="45.616540" lon="1.984970">
			 <ele>776</ele>
			<time>2016-06-10T23:55:45Z</time>
			</trkpt>
		
			<trkpt lat="45.616380" lon="1.985190">
			 <ele>777</ele>
			<time>2016-06-10T23:57:45Z</time>
			</trkpt>
		
			<trkpt lat="45.616340" lon="1.985280">
			 <ele>777</ele>
			<time>2016-06-10T23:59:45Z</time>
			</trkpt>
		
			<trkpt lat="45.616310" lon="1.985370">
			 <ele>777</ele>
			<time>2016-06-11T00:01:45Z</time>
			</trkpt>
		
			<trkpt lat="45.616300" lon="1.985480">
			 <ele>777</ele>
			<time>2016-06-11T00:03:45Z</time>
			</trkpt>
		
			<trkpt lat="45.616320" lon="1.985600">
			 <ele>776</ele>
			<time>2016-06-11T00:05:45Z</time>
			</trkpt>
		
			<trkpt lat="45.616360" lon="1.985720">
			 <ele>775</ele>
			<time>2016-06-11T00:07:45Z</time>
			</trkpt>
		
			<trkpt lat="45.616390" lon="1.985780">
			 <ele>775</ele>
			<time>2016-06-11T00:09:45Z</time>
			</trkpt>
		
			<trkpt lat="45.616430" lon="1.985820">
			 <ele>774</ele>
			<time>2016-06-11T00:11:45Z</time>
			</trkpt>
		
			<trkpt lat="45.616540" lon="1.985850">
			 <ele>773</ele>
			<time>2016-06-11T00:13:45Z</time>
			</trkpt>
		
			<trkpt lat="45.617110" lon="1.985820">
			 <ele>772</ele>
			<time>2016-06-11T00:15:45Z</time>
			</trkpt>
		
			<trkpt lat="45.617310" lon="1.985830">
			 <ele>772</ele>
			<time>2016-06-11T00:17:45Z</time>
			</trkpt>
		
			<trkpt lat="45.617490" lon="1.985860">
			 <ele>772</ele>
			<time>2016-06-11T00:19:45Z</time>
			</trkpt>
		
			<trkpt lat="45.617630" lon="1.985910">
			 <ele>771</ele>
			<time>2016-06-11T00:21:45Z</time>
			</trkpt>
		
			<trkpt lat="45.617760" lon="1.985980">
			 <ele>770</ele>
			<time>2016-06-11T00:23:45Z</time>
			</trkpt>
		
			<trkpt lat="45.617900" lon="1.986120">
			 <ele>770</ele>
			<time>2016-06-11T00:25:45Z</time>
			</trkpt>
		
			<trkpt lat="45.618040" lon="1.986290">
			 <ele>771</ele>
			<time>2016-06-11T00:27:45Z</time>
			</trkpt>
		
			<trkpt lat="45.618150" lon="1.986480">
			 <ele>771</ele>
			<time>2016-06-11T00:29:45Z</time>
			</trkpt>
		
			<trkpt lat="45.618250" lon="1.986730">
			 <ele>773</ele>
			<time>2016-06-11T00:31:45Z</time>
			</trkpt>
		
			<trkpt lat="45.618300" lon="1.986940">
			 <ele>773</ele>
			<time>2016-06-11T00:33:45Z</time>
			</trkpt>
		
			<trkpt lat="45.618320" lon="1.987190">
			 <ele>773</ele>
			<time>2016-06-11T00:35:45Z</time>
			</trkpt>
		
			<trkpt lat="45.618300" lon="1.987340">
			 <ele>774</ele>
			<time>2016-06-11T00:37:45Z</time>
			</trkpt>
		
			<trkpt lat="45.618240" lon="1.987560">
			 <ele>775</ele>
			<time>2016-06-11T00:39:45Z</time>
			</trkpt>
		
			<trkpt lat="45.618140" lon="1.987860">
			 <ele>776</ele>
			<time>2016-06-11T00:41:45Z</time>
			</trkpt>
		
			<trkpt lat="45.618060" lon="1.988070">
			 <ele>776</ele>
			<time>2016-06-11T00:43:45Z</time>
			</trkpt>
		
			<trkpt lat="45.618000" lon="1.988360">
			 <ele>777</ele>
			<time>2016-06-11T00:45:45Z</time>
			</trkpt>
		
			<trkpt lat="45.617960" lon="1.988500">
			 <ele>777</ele>
			<time>2016-06-11T00:47:45Z</time>
			</trkpt>
		
			<trkpt lat="45.617900" lon="1.988610">
			 <ele>778</ele>
			<time>2016-06-11T00:49:45Z</time>
			</trkpt>
		
			<trkpt lat="45.617820" lon="1.988740">
			 <ele>779</ele>
			<time>2016-06-11T00:51:45Z</time>
			</trkpt>
		
			<trkpt lat="45.617610" lon="1.988950">
			 <ele>781</ele>
			<time>2016-06-11T00:53:45Z</time>
			</trkpt>
		
			<trkpt lat="45.617500" lon="1.989090">
			 <ele>782</ele>
			<time>2016-06-11T00:55:45Z</time>
			</trkpt>
		
			<trkpt lat="45.617400" lon="1.989200">
			 <ele>784</ele>
			<time>2016-06-11T00:57:45Z</time>
			</trkpt>
		
			<trkpt lat="45.617250" lon="1.989410">
			 <ele>787</ele>
			<time>2016-06-11T00:59:45Z</time>
			</trkpt>
		
			<trkpt lat="45.617040" lon="1.989760">
			 <ele>789</ele>
			<time>2016-06-11T01:01:45Z</time>
			</trkpt>
		
			<trkpt lat="45.616740" lon="1.990240">
			 <ele>792</ele>
			<time>2016-06-11T01:03:45Z</time>
			</trkpt>
		
			<trkpt lat="45.616470" lon="1.990670">
			 <ele>795</ele>
			<time>2016-06-11T01:05:45Z</time>
			</trkpt>
		
			<trkpt lat="45.616280" lon="1.990970">
			 <ele>798</ele>
			<time>2016-06-11T01:07:45Z</time>
			</trkpt>
		
			<trkpt lat="45.616230" lon="1.991130">
			 <ele>800</ele>
			<time>2016-06-11T01:09:45Z</time>
			</trkpt>
		
			<trkpt lat="45.616220" lon="1.991230">
			 <ele>800</ele>
			<time>2016-06-11T01:11:45Z</time>
			</trkpt>
		
			<trkpt lat="45.616220" lon="1.991300">
			 <ele>800</ele>
			<time>2016-06-11T01:13:45Z</time>
			</trkpt>
		
			<trkpt lat="45.616260" lon="1.991400">
			 <ele>800</ele>
			<time>2016-06-11T01:15:45Z</time>
			</trkpt>
		
			<trkpt lat="45.616320" lon="1.991480">
			 <ele>800</ele>
			<time>2016-06-11T01:17:45Z</time>
			</trkpt>
		
			<trkpt lat="45.616380" lon="1.991540">
			 <ele>799</ele>
			<time>2016-06-11T01:19:45Z</time>
			</trkpt>
		
			<trkpt lat="45.616430" lon="1.991570">
			 <ele>799</ele>
			<time>2016-06-11T01:21:45Z</time>
			</trkpt>
		
			<trkpt lat="45.616520" lon="1.991570">
			 <ele>798</ele>
			<time>2016-06-11T01:23:45Z</time>
			</trkpt>
		
			<trkpt lat="45.616880" lon="1.991530">
			 <ele>794</ele>
			<time>2016-06-11T01:25:45Z</time>
			</trkpt>
		
			<trkpt lat="45.616930" lon="1.991530">
			 <ele>794</ele>
			<time>2016-06-11T01:27:45Z</time>
			</trkpt>
		
			<trkpt lat="45.617120" lon="1.991510">
			 <ele>793</ele>
			<time>2016-06-11T01:29:45Z</time>
			</trkpt>
		
			<trkpt lat="45.617220" lon="1.991510">
			 <ele>792</ele>
			<time>2016-06-11T01:31:45Z</time>
			</trkpt>
		
			<trkpt lat="45.617340" lon="1.991530">
			 <ele>792</ele>
			<time>2016-06-11T01:33:45Z</time>
			</trkpt>
		
			<trkpt lat="45.617430" lon="1.991570">
			 <ele>791</ele>
			<time>2016-06-11T01:35:45Z</time>
			</trkpt>
		
			<trkpt lat="45.617590" lon="1.991650">
			 <ele>791</ele>
			<time>2016-06-11T01:37:45Z</time>
			</trkpt>
		
			<trkpt lat="45.617840" lon="1.991810">
			 <ele>791</ele>
			<time>2016-06-11T01:39:45Z</time>
			</trkpt>
		
			<trkpt lat="45.617980" lon="1.991880">
			 <ele>791</ele>
			<time>2016-06-11T01:41:45Z</time>
			</trkpt>
		
			<trkpt lat="45.618080" lon="1.991890">
			 <ele>790</ele>
			<time>2016-06-11T01:43:45Z</time>
			</trkpt>
		
			<trkpt lat="45.618210" lon="1.991880">
			 <ele>789</ele>
			<time>2016-06-11T01:45:45Z</time>
			</trkpt>
		
			<trkpt lat="45.618470" lon="1.991840">
			 <ele>788</ele>
			<time>2016-06-11T01:47:45Z</time>
			</trkpt>
		
			<trkpt lat="45.618540" lon="1.991840">
			 <ele>788</ele>
			<time>2016-06-11T01:49:45Z</time>
			</trkpt>
		
			<trkpt lat="45.618660" lon="1.991880">
			 <ele>788</ele>
			<time>2016-06-11T01:51:45Z</time>
			</trkpt>
		
			<trkpt lat="45.618740" lon="1.991940">
			 <ele>788</ele>
			<time>2016-06-11T01:53:45Z</time>
			</trkpt>
		
			<trkpt lat="45.618790" lon="1.991980">
			 <ele>787</ele>
			<time>2016-06-11T01:55:45Z</time>
			</trkpt>
		
			<trkpt lat="45.618950" lon="1.992160">
			 <ele>787</ele>
			<time>2016-06-11T01:57:45Z</time>
			</trkpt>
		
			<trkpt lat="45.619080" lon="1.992340">
			 <ele>787</ele>
			<time>2016-06-11T01:59:45Z</time>
			</trkpt>
		
			<trkpt lat="45.619100" lon="1.992360">
			 <ele>786</ele>
			<time>2016-06-11T02:01:45Z</time>
			</trkpt>
		
			<trkpt lat="45.619170" lon="1.992510">
			 <ele>786</ele>
			<time>2016-06-11T02:03:45Z</time>
			</trkpt>
		
			<trkpt lat="45.619230" lon="1.992670">
			 <ele>786</ele>
			<time>2016-06-11T02:05:45Z</time>
			</trkpt>
		
			<trkpt lat="45.619300" lon="1.992910">
			 <ele>785</ele>
			<time>2016-06-11T02:07:45Z</time>
			</trkpt>
		
			<trkpt lat="45.619390" lon="1.993240">
			 <ele>786</ele>
			<time>2016-06-11T02:09:45Z</time>
			</trkpt>
		
			<trkpt lat="45.619450" lon="1.993390">
			 <ele>786</ele>
			<time>2016-06-11T02:11:45Z</time>
			</trkpt>
		
			<trkpt lat="45.619500" lon="1.993470">
			 <ele>787</ele>
			<time>2016-06-11T02:13:45Z</time>
			</trkpt>
		
			<trkpt lat="45.619550" lon="1.993500">
			 <ele>787</ele>
			<time>2016-06-11T02:15:45Z</time>
			</trkpt>
		
			<trkpt lat="45.619560" lon="1.993500">
			 <ele>787</ele>
			<time>2016-06-11T02:17:45Z</time>
			</trkpt>
		
			<trkpt lat="45.619600" lon="1.993510">
			 <ele>787</ele>
			<time>2016-06-11T02:19:45Z</time>
			</trkpt>
		
			<trkpt lat="45.619690" lon="1.993500">
			 <ele>788</ele>
			<time>2016-06-11T02:21:45Z</time>
			</trkpt>
		
			<trkpt lat="45.619790" lon="1.993400">
			 <ele>788</ele>
			<time>2016-06-11T02:23:45Z</time>
			</trkpt>
		
			<trkpt lat="45.619980" lon="1.993140">
			 <ele>787</ele>
			<time>2016-06-11T02:25:45Z</time>
			</trkpt>
		
			<trkpt lat="45.620160" lon="1.992970">
			 <ele>786</ele>
			<time>2016-06-11T02:27:45Z</time>
			</trkpt>
		
			<trkpt lat="45.620270" lon="1.992910">
			 <ele>785</ele>
			<time>2016-06-11T02:29:45Z</time>
			</trkpt>
		
			<trkpt lat="45.620370" lon="1.992890">
			 <ele>785</ele>
			<time>2016-06-11T02:31:45Z</time>
			</trkpt>
		
			<trkpt lat="45.620450" lon="1.992890">
			 <ele>786</ele>
			<time>2016-06-11T02:33:45Z</time>
			</trkpt>
		
			<trkpt lat="45.620530" lon="1.992920">
			 <ele>786</ele>
			<time>2016-06-11T02:35:45Z</time>
			</trkpt>
		
			<trkpt lat="45.620700" lon="1.993040">
			 <ele>788</ele>
			<time>2016-06-11T02:37:45Z</time>
			</trkpt>
		
			<trkpt lat="45.621040" lon="1.993320">
			 <ele>790</ele>
			<time>2016-06-11T02:39:45Z</time>
			</trkpt>
		
			<trkpt lat="45.621320" lon="1.993550">
			 <ele>791</ele>
			<time>2016-06-11T02:41:45Z</time>
			</trkpt>
		
			<trkpt lat="45.621550" lon="1.993720">
			 <ele>792</ele>
			<time>2016-06-11T02:43:45Z</time>
			</trkpt>
		
			<trkpt lat="45.621630" lon="1.993780">
			 <ele>793</ele>
			<time>2016-06-11T02:45:45Z</time>
			</trkpt>
		
			<trkpt lat="45.621820" lon="1.993900">
			 <ele>794</ele>
			<time>2016-06-11T02:47:45Z</time>
			</trkpt>
		
			<trkpt lat="45.622000" lon="1.994040">
			 <ele>795</ele>
			<time>2016-06-11T02:49:45Z</time>
			</trkpt>
		
			<trkpt lat="45.622180" lon="1.994200">
			 <ele>795</ele>
			<time>2016-06-11T02:51:45Z</time>
			</trkpt>
		
			<trkpt lat="45.622310" lon="1.994320">
			 <ele>795</ele>
			<time>2016-06-11T02:53:45Z</time>
			</trkpt>
		
			<trkpt lat="45.622400" lon="1.994450">
			 <ele>796</ele>
			<time>2016-06-11T02:55:45Z</time>
			</trkpt>
		
			<trkpt lat="45.622440" lon="1.994590">
			 <ele>798</ele>
			<time>2016-06-11T02:57:45Z</time>
			</trkpt>
		
			<trkpt lat="45.622500" lon="1.994760">
			 <ele>800</ele>
			<time>2016-06-11T02:59:45Z</time>
			</trkpt>
		
			<trkpt lat="45.622580" lon="1.994990">
			 <ele>802</ele>
			<time>2016-06-11T03:01:45Z</time>
			</trkpt>
		
			<trkpt lat="45.622620" lon="1.995110">
			 <ele>802</ele>
			<time>2016-06-11T03:03:45Z</time>
			</trkpt>
		
			<trkpt lat="45.622690" lon="1.995240">
			 <ele>802</ele>
			<time>2016-06-11T03:05:45Z</time>
			</trkpt>
		
			<trkpt lat="45.622790" lon="1.995360">
			 <ele>801</ele>
			<time>2016-06-11T03:07:45Z</time>
			</trkpt>
		
			<trkpt lat="45.622890" lon="1.995460">
			 <ele>801</ele>
			<time>2016-06-11T03:09:45Z</time>
			</trkpt>
		
			<trkpt lat="45.623060" lon="1.995620">
			 <ele>799</ele>
			<time>2016-06-11T03:11:45Z</time>
			</trkpt>
		
			<trkpt lat="45.623180" lon="1.995780">
			 <ele>799</ele>
			<time>2016-06-11T03:13:45Z</time>
			</trkpt>
		
			<trkpt lat="45.623290" lon="1.995940">
			 <ele>798</ele>
			<time>2016-06-11T03:15:45Z</time>
			</trkpt>
		
			<trkpt lat="45.623400" lon="1.996130">
			 <ele>798</ele>
			<time>2016-06-11T03:17:45Z</time>
			</trkpt>
		
			<trkpt lat="45.623500" lon="1.996320">
			 <ele>799</ele>
			<time>2016-06-11T03:19:45Z</time>
			</trkpt>
		
			<trkpt lat="45.623560" lon="1.996400">
			 <ele>799</ele>
			<time>2016-06-11T03:21:45Z</time>
			</trkpt>
		
			<trkpt lat="45.623630" lon="1.996460">
			 <ele>799</ele>
			<time>2016-06-11T03:23:45Z</time>
			</trkpt>
		
			<trkpt lat="45.623710" lon="1.996470">
			 <ele>799</ele>
			<time>2016-06-11T03:25:45Z</time>
			</trkpt>
		
			<trkpt lat="45.623820" lon="1.996450">
			 <ele>799</ele>
			<time>2016-06-11T03:27:45Z</time>
			</trkpt>
		
			<trkpt lat="45.623950" lon="1.996390">
			 <ele>798</ele>
			<time>2016-06-11T03:29:45Z</time>
			</trkpt>
		
			<trkpt lat="45.624050" lon="1.996370">
			 <ele>798</ele>
			<time>2016-06-11T03:31:45Z</time>
			</trkpt>
		
			<trkpt lat="45.624200" lon="1.996390">
			 <ele>797</ele>
			<time>2016-06-11T03:33:45Z</time>
			</trkpt>
		
			<trkpt lat="45.624490" lon="1.996480">
			 <ele>798</ele>
			<time>2016-06-11T03:35:45Z</time>
			</trkpt>
		
			<trkpt lat="45.624590" lon="1.996530">
			 <ele>798</ele>
			<time>2016-06-11T03:37:45Z</time>
			</trkpt>
		
			<trkpt lat="45.624670" lon="1.996600">
			 <ele>798</ele>
			<time>2016-06-11T03:39:45Z</time>
			</trkpt>
		
			<trkpt lat="45.624680" lon="1.996610">
			 <ele>798</ele>
			<time>2016-06-11T03:41:45Z</time>
			</trkpt>
		
			<trkpt lat="45.624760" lon="1.996740">
			 <ele>798</ele>
			<time>2016-06-11T03:43:45Z</time>
			</trkpt>
		
			<trkpt lat="45.624840" lon="1.996930">
			 <ele>798</ele>
			<time>2016-06-11T03:45:45Z</time>
			</trkpt>
		
			<trkpt lat="45.625010" lon="1.997470">
			 <ele>797</ele>
			<time>2016-06-11T03:47:45Z</time>
			</trkpt>
		
			<trkpt lat="45.625170" lon="1.998000">
			 <ele>796</ele>
			<time>2016-06-11T03:49:45Z</time>
			</trkpt>
		
			<trkpt lat="45.625280" lon="1.998330">
			 <ele>794</ele>
			<time>2016-06-11T03:51:45Z</time>
			</trkpt>
		
			<trkpt lat="45.625340" lon="1.998440">
			 <ele>794</ele>
			<time>2016-06-11T03:53:45Z</time>
			</trkpt>
		
			<trkpt lat="45.625420" lon="1.998540">
			 <ele>793</ele>
			<time>2016-06-11T03:55:45Z</time>
			</trkpt>
		
			<trkpt lat="45.625540" lon="1.998630">
			 <ele>791</ele>
			<time>2016-06-11T03:57:45Z</time>
			</trkpt>
		
			<trkpt lat="45.625740" lon="1.998750">
			 <ele>789</ele>
			<time>2016-06-11T03:59:45Z</time>
			</trkpt>
		
			<trkpt lat="45.625940" lon="1.998900">
			 <ele>788</ele>
			<time>2016-06-11T04:01:45Z</time>
			</trkpt>
		
			<trkpt lat="45.626130" lon="1.999110">
			 <ele>787</ele>
			<time>2016-06-11T04:03:45Z</time>
			</trkpt>
		
			<trkpt lat="45.626280" lon="1.999360">
			 <ele>785</ele>
			<time>2016-06-11T04:05:45Z</time>
			</trkpt>
		
			<trkpt lat="45.626390" lon="1.999580">
			 <ele>783</ele>
			<time>2016-06-11T04:07:45Z</time>
			</trkpt>
		
			<trkpt lat="45.626430" lon="1.999780">
			 <ele>782</ele>
			<time>2016-06-11T04:09:45Z</time>
			</trkpt>
		
			<trkpt lat="45.626460" lon="2.000010">
			 <ele>780</ele>
			<time>2016-06-11T04:11:45Z</time>
			</trkpt>
		
			<trkpt lat="45.626460" lon="2.000420">
			 <ele>780</ele>
			<time>2016-06-11T04:13:45Z</time>
			</trkpt>
		
			<trkpt lat="45.626430" lon="2.000830">
			 <ele>779</ele>
			<time>2016-06-11T04:15:45Z</time>
			</trkpt>
		
			<trkpt lat="45.626390" lon="2.001500">
			 <ele>779</ele>
			<time>2016-06-11T04:17:45Z</time>
			</trkpt>
		
			<trkpt lat="45.626390" lon="2.001690">
			 <ele>779</ele>
			<time>2016-06-11T04:19:45Z</time>
			</trkpt>
		
			<trkpt lat="45.626420" lon="2.001880">
			 <ele>780</ele>
			<time>2016-06-11T04:21:45Z</time>
			</trkpt>
		
			<trkpt lat="45.626460" lon="2.002000">
			 <ele>780</ele>
			<time>2016-06-11T04:23:45Z</time>
			</trkpt>
		
			<trkpt lat="45.626540" lon="2.002130">
			 <ele>779</ele>
			<time>2016-06-11T04:25:45Z</time>
			</trkpt>
		
			<trkpt lat="45.626650" lon="2.002250">
			 <ele>778</ele>
			<time>2016-06-11T04:27:45Z</time>
			</trkpt>
		
			<trkpt lat="45.626810" lon="2.002360">
			 <ele>778</ele>
			<time>2016-06-11T04:29:45Z</time>
			</trkpt>
		
			<trkpt lat="45.627020" lon="2.002480">
			 <ele>777</ele>
			<time>2016-06-11T04:31:45Z</time>
			</trkpt>
		
			<trkpt lat="45.627160" lon="2.002600">
			 <ele>776</ele>
			<time>2016-06-11T04:33:45Z</time>
			</trkpt>
		
			<trkpt lat="45.627330" lon="2.002780">
			 <ele>776</ele>
			<time>2016-06-11T04:35:45Z</time>
			</trkpt>
		
			<trkpt lat="45.627450" lon="2.002960">
			 <ele>776</ele>
			<time>2016-06-11T04:37:45Z</time>
			</trkpt>
		
			<trkpt lat="45.627560" lon="2.003160">
			 <ele>775</ele>
			<time>2016-06-11T04:39:45Z</time>
			</trkpt>
		
			<trkpt lat="45.627610" lon="2.003290">
			 <ele>776</ele>
			<time>2016-06-11T04:41:45Z</time>
			</trkpt>
		
			<trkpt lat="45.627650" lon="2.003440">
			 <ele>775</ele>
			<time>2016-06-11T04:43:45Z</time>
			</trkpt>
		
			<trkpt lat="45.627670" lon="2.003630">
			 <ele>775</ele>
			<time>2016-06-11T04:45:45Z</time>
			</trkpt>
		
			<trkpt lat="45.627700" lon="2.003930">
			 <ele>774</ele>
			<time>2016-06-11T04:47:45Z</time>
			</trkpt>
		
			<trkpt lat="45.627720" lon="2.004130">
			 <ele>773</ele>
			<time>2016-06-11T04:49:45Z</time>
			</trkpt>
		
			<trkpt lat="45.627750" lon="2.004260">
			 <ele>773</ele>
			<time>2016-06-11T04:51:45Z</time>
			</trkpt>
		
			<trkpt lat="45.627800" lon="2.004370">
			 <ele>774</ele>
			<time>2016-06-11T04:53:45Z</time>
			</trkpt>
		
			<trkpt lat="45.627870" lon="2.004490">
			 <ele>774</ele>
			<time>2016-06-11T04:55:45Z</time>
			</trkpt>
		
			<trkpt lat="45.628110" lon="2.004810">
			 <ele>774</ele>
			<time>2016-06-11T04:57:45Z</time>
			</trkpt>
		
			<trkpt lat="45.628320" lon="2.005070">
			 <ele>774</ele>
			<time>2016-06-11T04:59:45Z</time>
			</trkpt>
		
			<trkpt lat="45.628390" lon="2.005200">
			 <ele>775</ele>
			<time>2016-06-11T05:01:45Z</time>
			</trkpt>
		
			<trkpt lat="45.628440" lon="2.005330">
			 <ele>775</ele>
			<time>2016-06-11T05:03:45Z</time>
			</trkpt>
		
			<trkpt lat="45.628480" lon="2.005490">
			 <ele>775</ele>
			<time>2016-06-11T05:05:45Z</time>
			</trkpt>
		
			<trkpt lat="45.628500" lon="2.005680">
			 <ele>776</ele>
			<time>2016-06-11T05:07:45Z</time>
			</trkpt>
		
			<trkpt lat="45.628510" lon="2.005980">
			 <ele>776</ele>
			<time>2016-06-11T05:09:45Z</time>
			</trkpt>
		
			<trkpt lat="45.628500" lon="2.006290">
			 <ele>777</ele>
			<time>2016-06-11T05:11:45Z</time>
			</trkpt>
		
			<trkpt lat="45.628510" lon="2.006430">
			 <ele>777</ele>
			<time>2016-06-11T05:13:45Z</time>
			</trkpt>
		
			<trkpt lat="45.628550" lon="2.006600">
			 <ele>778</ele>
			<time>2016-06-11T05:15:45Z</time>
			</trkpt>
		
			<trkpt lat="45.628610" lon="2.006740">
			 <ele>778</ele>
			<time>2016-06-11T05:17:45Z</time>
			</trkpt>
		
			<trkpt lat="45.628720" lon="2.006900">
			 <ele>778</ele>
			<time>2016-06-11T05:19:45Z</time>
			</trkpt>
		
			<trkpt lat="45.628910" lon="2.007110">
			 <ele>778</ele>
			<time>2016-06-11T05:21:45Z</time>
			</trkpt>
		
			<trkpt lat="45.629100" lon="2.007350">
			 <ele>777</ele>
			<time>2016-06-11T05:23:45Z</time>
			</trkpt>
		
			<trkpt lat="45.629230" lon="2.007560">
			 <ele>778</ele>
			<time>2016-06-11T05:25:45Z</time>
			</trkpt>
		
			<trkpt lat="45.629290" lon="2.007730">
			 <ele>780</ele>
			<time>2016-06-11T05:27:45Z</time>
			</trkpt>
		
			<trkpt lat="45.629380" lon="2.008000">
			 <ele>782</ele>
			<time>2016-06-11T05:29:45Z</time>
			</trkpt>
		
			<trkpt lat="45.629470" lon="2.008320">
			 <ele>783</ele>
			<time>2016-06-11T05:31:45Z</time>
			</trkpt>
		
			<trkpt lat="45.629660" lon="2.008910">
			 <ele>784</ele>
			<time>2016-06-11T05:33:45Z</time>
			</trkpt>
		
			<trkpt lat="45.629770" lon="2.009240">
			 <ele>783</ele>
			<time>2016-06-11T05:35:45Z</time>
			</trkpt>
		
			<trkpt lat="45.629870" lon="2.009520">
			 <ele>783</ele>
			<time>2016-06-11T05:37:45Z</time>
			</trkpt>
		
			<trkpt lat="45.630140" lon="2.010130">
			 <ele>781</ele>
			<time>2016-06-11T05:39:45Z</time>
			</trkpt>
		
			<trkpt lat="45.630220" lon="2.010350">
			 <ele>781</ele>
			<time>2016-06-11T05:41:45Z</time>
			</trkpt>
		
			<trkpt lat="45.630280" lon="2.010540">
			 <ele>781</ele>
			<time>2016-06-11T05:43:45Z</time>
			</trkpt>
		
			<trkpt lat="45.630290" lon="2.010680">
			 <ele>781</ele>
			<time>2016-06-11T05:45:45Z</time>
			</trkpt>
		
			<trkpt lat="45.630290" lon="2.010820">
			 <ele>781</ele>
			<time>2016-06-11T05:47:45Z</time>
			</trkpt>
		
			<trkpt lat="45.630280" lon="2.010980">
			 <ele>781</ele>
			<time>2016-06-11T05:49:45Z</time>
			</trkpt>
		
			<trkpt lat="45.630230" lon="2.011130">
			 <ele>781</ele>
			<time>2016-06-11T05:51:45Z</time>
			</trkpt>
		
			<trkpt lat="45.630180" lon="2.011240">
			 <ele>781</ele>
			<time>2016-06-11T05:53:45Z</time>
			</trkpt>
		
			<trkpt lat="45.630140" lon="2.011360">
			 <ele>780</ele>
			<time>2016-06-11T05:55:45Z</time>
			</trkpt>
		
			<trkpt lat="45.630130" lon="2.011490">
			 <ele>780</ele>
			<time>2016-06-11T05:57:45Z</time>
			</trkpt>
		
			<trkpt lat="45.630120" lon="2.011590">
			 <ele>779</ele>
			<time>2016-06-11T05:59:45Z</time>
			</trkpt>
		
			<trkpt lat="45.630130" lon="2.011730">
			 <ele>779</ele>
			<time>2016-06-11T06:01:45Z</time>
			</trkpt>
		
			<trkpt lat="45.630180" lon="2.011910">
			 <ele>779</ele>
			<time>2016-06-11T06:03:45Z</time>
			</trkpt>
		
			<trkpt lat="45.630240" lon="2.012060">
			 <ele>779</ele>
			<time>2016-06-11T06:05:45Z</time>
			</trkpt>
		
			<trkpt lat="45.630280" lon="2.012180">
			 <ele>779</ele>
			<time>2016-06-11T06:07:45Z</time>
			</trkpt>
		
			<trkpt lat="45.630310" lon="2.012290">
			 <ele>779</ele>
			<time>2016-06-11T06:09:45Z</time>
			</trkpt>
		
			<trkpt lat="45.630320" lon="2.012430">
			 <ele>779</ele>
			<time>2016-06-11T06:11:45Z</time>
			</trkpt>
		
			<trkpt lat="45.630300" lon="2.012670">
			 <ele>778</ele>
			<time>2016-06-11T06:13:45Z</time>
			</trkpt>
		
			<trkpt lat="45.630300" lon="2.012900">
			 <ele>777</ele>
			<time>2016-06-11T06:15:45Z</time>
			</trkpt>
		
			<trkpt lat="45.630320" lon="2.013060">
			 <ele>776</ele>
			<time>2016-06-11T06:17:45Z</time>
			</trkpt>
		
			<trkpt lat="45.630370" lon="2.013230">
			 <ele>775</ele>
			<time>2016-06-11T06:19:45Z</time>
			</trkpt>
		
			<trkpt lat="45.630560" lon="2.013720">
			 <ele>774</ele>
			<time>2016-06-11T06:21:45Z</time>
			</trkpt>
		
			<trkpt lat="45.630940" lon="2.014680">
			 <ele>775</ele>
			<time>2016-06-11T06:23:45Z</time>
			</trkpt>
		
			<trkpt lat="45.631180" lon="2.015300">
			 <ele>775</ele>
			<time>2016-06-11T06:25:45Z</time>
			</trkpt>
		
			<trkpt lat="45.631530" lon="2.016200">
			 <ele>774</ele>
			<time>2016-06-11T06:27:45Z</time>
			</trkpt>
		
			<trkpt lat="45.632060" lon="2.017530">
			 <ele>776</ele>
			<time>2016-06-11T06:29:45Z</time>
			</trkpt>
		
			<trkpt lat="45.632510" lon="2.018680">
			 <ele>778</ele>
			<time>2016-06-11T06:31:45Z</time>
			</trkpt>
		
			<trkpt lat="45.632530" lon="2.018730">
			 <ele>778</ele>
			<time>2016-06-11T06:33:45Z</time>
			</trkpt>
		
			<trkpt lat="45.632590" lon="2.018910">
			 <ele>779</ele>
			<time>2016-06-11T06:35:45Z</time>
			</trkpt>
		
			<trkpt lat="45.632780" lon="2.019400">
			 <ele>782</ele>
			<time>2016-06-11T06:37:45Z</time>
			</trkpt>
		
			<trkpt lat="45.632830" lon="2.019560">
			 <ele>783</ele>
			<time>2016-06-11T06:39:45Z</time>
			</trkpt>
		
			<trkpt lat="45.632860" lon="2.019660">
			 <ele>783</ele>
			<time>2016-06-11T06:41:45Z</time>
			</trkpt>
		
			<trkpt lat="45.632910" lon="2.019830">
			 <ele>784</ele>
			<time>2016-06-11T06:43:45Z</time>
			</trkpt>
		
			<trkpt lat="45.633030" lon="2.020250">
			 <ele>787</ele>
			<time>2016-06-11T06:45:45Z</time>
			</trkpt>
		
			<trkpt lat="45.633130" lon="2.020550">
			 <ele>789</ele>
			<time>2016-06-11T06:47:45Z</time>
			</trkpt>
		
			<trkpt lat="45.633160" lon="2.020700">
			 <ele>790</ele>
			<time>2016-06-11T06:49:45Z</time>
			</trkpt>
		
			<trkpt lat="45.633160" lon="2.020820">
			 <ele>790</ele>
			<time>2016-06-11T06:51:45Z</time>
			</trkpt>
		
			<trkpt lat="45.633150" lon="2.020940">
			 <ele>791</ele>
			<time>2016-06-11T06:53:45Z</time>
			</trkpt>
		
			<trkpt lat="45.633130" lon="2.021050">
			 <ele>792</ele>
			<time>2016-06-11T06:55:45Z</time>
			</trkpt>
		
			<trkpt lat="45.633080" lon="2.021190">
			 <ele>792</ele>
			<time>2016-06-11T06:57:45Z</time>
			</trkpt>
		
			<trkpt lat="45.632980" lon="2.021360">
			 <ele>792</ele>
			<time>2016-06-11T06:59:45Z</time>
			</trkpt>
		
			<trkpt lat="45.632900" lon="2.021490">
			 <ele>791</ele>
			<time>2016-06-11T07:01:45Z</time>
			</trkpt>
		
			<trkpt lat="45.632730" lon="2.021680">
			 <ele>790</ele>
			<time>2016-06-11T07:03:45Z</time>
			</trkpt>
		
			<trkpt lat="45.632530" lon="2.021950">
			 <ele>790</ele>
			<time>2016-06-11T07:05:45Z</time>
			</trkpt>
		
			<trkpt lat="45.632380" lon="2.022170">
			 <ele>791</ele>
			<time>2016-06-11T07:07:45Z</time>
			</trkpt>
		
			<trkpt lat="45.632310" lon="2.022300">
			 <ele>792</ele>
			<time>2016-06-11T07:09:45Z</time>
			</trkpt>
		
			<trkpt lat="45.632270" lon="2.022420">
			 <ele>793</ele>
			<time>2016-06-11T07:11:45Z</time>
			</trkpt>
		
			<trkpt lat="45.632240" lon="2.022580">
			 <ele>794</ele>
			<time>2016-06-11T07:13:45Z</time>
			</trkpt>
		
			<trkpt lat="45.632220" lon="2.022780">
			 <ele>795</ele>
			<time>2016-06-11T07:15:45Z</time>
			</trkpt>
		
			<trkpt lat="45.632230" lon="2.023030">
			 <ele>796</ele>
			<time>2016-06-11T07:17:45Z</time>
			</trkpt>
		
			<trkpt lat="45.632260" lon="2.023280">
			 <ele>798</ele>
			<time>2016-06-11T07:19:45Z</time>
			</trkpt>
		
			<trkpt lat="45.632350" lon="2.023720">
			 <ele>798</ele>
			<time>2016-06-11T07:21:45Z</time>
			</trkpt>
		
			<trkpt lat="45.632490" lon="2.024320">
			 <ele>796</ele>
			<time>2016-06-11T07:23:45Z</time>
			</trkpt>
		
			<trkpt lat="45.632580" lon="2.024720">
			 <ele>796</ele>
			<time>2016-06-11T07:25:45Z</time>
			</trkpt>
		
			<trkpt lat="45.632620" lon="2.024970">
			 <ele>796</ele>
			<time>2016-06-11T07:27:45Z</time>
			</trkpt>
		
			<trkpt lat="45.632670" lon="2.025270">
			 <ele>796</ele>
			<time>2016-06-11T07:29:45Z</time>
			</trkpt>
		
			<trkpt lat="45.632710" lon="2.025460">
			 <ele>796</ele>
			<time>2016-06-11T07:31:45Z</time>
			</trkpt>
		
			<trkpt lat="45.632750" lon="2.025610">
			 <ele>796</ele>
			<time>2016-06-11T07:33:45Z</time>
			</trkpt>
		
			<trkpt lat="45.632820" lon="2.025790">
			 <ele>795</ele>
			<time>2016-06-11T07:35:45Z</time>
			</trkpt>
		
			<trkpt lat="45.632910" lon="2.025930">
			 <ele>796</ele>
			<time>2016-06-11T07:37:45Z</time>
			</trkpt>
		
			<trkpt lat="45.632980" lon="2.026060">
			 <ele>797</ele>
			<time>2016-06-11T07:39:45Z</time>
			</trkpt>
		
			<trkpt lat="45.633010" lon="2.026140">
			 <ele>797</ele>
			<time>2016-06-11T07:41:45Z</time>
			</trkpt>
		
			<trkpt lat="45.633020" lon="2.026240">
			 <ele>797</ele>
			<time>2016-06-11T07:43:45Z</time>
			</trkpt>
		
			<trkpt lat="45.633000" lon="2.026370">
			 <ele>797</ele>
			<time>2016-06-11T07:45:45Z</time>
			</trkpt>
		
			<trkpt lat="45.632970" lon="2.026470">
			 <ele>797</ele>
			<time>2016-06-11T07:47:45Z</time>
			</trkpt>
		
			<trkpt lat="45.632850" lon="2.026750">
			 <ele>797</ele>
			<time>2016-06-11T07:49:45Z</time>
			</trkpt>
		
			<trkpt lat="45.632700" lon="2.027110">
			 <ele>798</ele>
			<time>2016-06-11T07:51:45Z</time>
			</trkpt>
		
			<trkpt lat="45.632630" lon="2.027260">
			 <ele>799</ele>
			<time>2016-06-11T07:53:45Z</time>
			</trkpt>
		
			<trkpt lat="45.632580" lon="2.027340">
			 <ele>799</ele>
			<time>2016-06-11T07:55:45Z</time>
			</trkpt>
		
			<trkpt lat="45.632520" lon="2.027380">
			 <ele>799</ele>
			<time>2016-06-11T07:57:45Z</time>
			</trkpt>
		
			<trkpt lat="45.632440" lon="2.027420">
			 <ele>799</ele>
			<time>2016-06-11T07:59:45Z</time>
			</trkpt>
		
			<trkpt lat="45.632300" lon="2.027440">
			 <ele>799</ele>
			<time>2016-06-11T08:01:45Z</time>
			</trkpt>
		
			<trkpt lat="45.632220" lon="2.027480">
			 <ele>799</ele>
			<time>2016-06-11T08:03:45Z</time>
			</trkpt>
		
			<trkpt lat="45.632110" lon="2.027570">
			 <ele>799</ele>
			<time>2016-06-11T08:05:45Z</time>
			</trkpt>
		
			<trkpt lat="45.632050" lon="2.027680">
			 <ele>799</ele>
			<time>2016-06-11T08:07:45Z</time>
			</trkpt>
		
			<trkpt lat="45.632000" lon="2.027810">
			 <ele>799</ele>
			<time>2016-06-11T08:09:45Z</time>
			</trkpt>
		
			<trkpt lat="45.631920" lon="2.028270">
			 <ele>801</ele>
			<time>2016-06-11T08:11:45Z</time>
			</trkpt>
		
			<trkpt lat="45.631840" lon="2.028830">
			 <ele>803</ele>
			<time>2016-06-11T08:13:45Z</time>
			</trkpt>
		
			<trkpt lat="45.631790" lon="2.029180">
			 <ele>804</ele>
			<time>2016-06-11T08:15:45Z</time>
			</trkpt>
		
			<trkpt lat="45.631740" lon="2.029520">
			 <ele>805</ele>
			<time>2016-06-11T08:17:45Z</time>
			</trkpt>
		
			<trkpt lat="45.631700" lon="2.029710">
			 <ele>806</ele>
			<time>2016-06-11T08:19:45Z</time>
			</trkpt>
		
			<trkpt lat="45.631660" lon="2.029870">
			 <ele>806</ele>
			<time>2016-06-11T08:21:45Z</time>
			</trkpt>
		
			<trkpt lat="45.631600" lon="2.030040">
			 <ele>807</ele>
			<time>2016-06-11T08:23:45Z</time>
			</trkpt>
		
			<trkpt lat="45.631560" lon="2.030140">
			 <ele>808</ele>
			<time>2016-06-11T08:25:45Z</time>
			</trkpt>
		
			<trkpt lat="45.631520" lon="2.030220">
			 <ele>808</ele>
			<time>2016-06-11T08:27:45Z</time>
			</trkpt>
		
			<trkpt lat="45.631460" lon="2.030320">
			 <ele>808</ele>
			<time>2016-06-11T08:29:45Z</time>
			</trkpt>
		
			<trkpt lat="45.631370" lon="2.030460">
			 <ele>808</ele>
			<time>2016-06-11T08:31:45Z</time>
			</trkpt>
		
			<trkpt lat="45.631340" lon="2.030520">
			 <ele>808</ele>
			<time>2016-06-11T08:33:45Z</time>
			</trkpt>
		
			<trkpt lat="45.631250" lon="2.030710">
			 <ele>808</ele>
			<time>2016-06-11T08:35:45Z</time>
			</trkpt>
		
			<trkpt lat="45.631220" lon="2.030830">
			 <ele>808</ele>
			<time>2016-06-11T08:37:45Z</time>
			</trkpt>
		
			<trkpt lat="45.631200" lon="2.030970">
			 <ele>808</ele>
			<time>2016-06-11T08:39:45Z</time>
			</trkpt>
		
			<trkpt lat="45.631180" lon="2.031160">
			 <ele>808</ele>
			<time>2016-06-11T08:41:45Z</time>
			</trkpt>
		
			<trkpt lat="45.631190" lon="2.031410">
			 <ele>809</ele>
			<time>2016-06-11T08:43:45Z</time>
			</trkpt>
		
			<trkpt lat="45.631210" lon="2.031690">
			 <ele>809</ele>
			<time>2016-06-11T08:45:45Z</time>
			</trkpt>
		
			<trkpt lat="45.631220" lon="2.031820">
			 <ele>810</ele>
			<time>2016-06-11T08:47:45Z</time>
			</trkpt>
		
			<trkpt lat="45.631230" lon="2.031900">
			 <ele>810</ele>
			<time>2016-06-11T08:49:45Z</time>
			</trkpt>
		
			<trkpt lat="45.631280" lon="2.032130">
			 <ele>811</ele>
			<time>2016-06-11T08:51:45Z</time>
			</trkpt>
		
			<trkpt lat="45.631350" lon="2.032350">
			 <ele>812</ele>
			<time>2016-06-11T08:53:45Z</time>
			</trkpt>
		
			<trkpt lat="45.631380" lon="2.032430">
			 <ele>812</ele>
			<time>2016-06-11T08:55:45Z</time>
			</trkpt>
		
			<trkpt lat="45.631430" lon="2.032540">
			 <ele>813</ele>
			<time>2016-06-11T08:57:45Z</time>
			</trkpt>
		
			<trkpt lat="45.631500" lon="2.032720">
			 <ele>814</ele>
			<time>2016-06-11T08:59:45Z</time>
			</trkpt>
		
			<trkpt lat="45.631540" lon="2.032860">
			 <ele>814</ele>
			<time>2016-06-11T09:01:45Z</time>
			</trkpt>
		
			<trkpt lat="45.631580" lon="2.033030">
			 <ele>815</ele>
			<time>2016-06-11T09:03:45Z</time>
			</trkpt>
		
			<trkpt lat="45.631600" lon="2.033190">
			 <ele>815</ele>
			<time>2016-06-11T09:05:45Z</time>
			</trkpt>
		
			<trkpt lat="45.631590" lon="2.033440">
			 <ele>815</ele>
			<time>2016-06-11T09:07:45Z</time>
			</trkpt>
		
			<trkpt lat="45.631570" lon="2.033620">
			 <ele>815</ele>
			<time>2016-06-11T09:09:45Z</time>
			</trkpt>
		
			<trkpt lat="45.631530" lon="2.033820">
			 <ele>815</ele>
			<time>2016-06-11T09:11:45Z</time>
			</trkpt>
		
			<trkpt lat="45.631490" lon="2.033990">
			 <ele>815</ele>
			<time>2016-06-11T09:13:45Z</time>
			</trkpt>
		
			<trkpt lat="45.631430" lon="2.034130">
			 <ele>814</ele>
			<time>2016-06-11T09:15:45Z</time>
			</trkpt>
		
			<trkpt lat="45.631290" lon="2.034460">
			 <ele>814</ele>
			<time>2016-06-11T09:17:45Z</time>
			</trkpt>
		
			<trkpt lat="45.631170" lon="2.034730">
			 <ele>815</ele>
			<time>2016-06-11T09:19:45Z</time>
			</trkpt>
		
			<trkpt lat="45.631120" lon="2.034870">
			 <ele>815</ele>
			<time>2016-06-11T09:21:45Z</time>
			</trkpt>
		
			<trkpt lat="45.631080" lon="2.035040">
			 <ele>816</ele>
			<time>2016-06-11T09:23:45Z</time>
			</trkpt>
		
			<trkpt lat="45.631050" lon="2.035180">
			 <ele>816</ele>
			<time>2016-06-11T09:25:45Z</time>
			</trkpt>
		
			<trkpt lat="45.631050" lon="2.035340">
			 <ele>817</ele>
			<time>2016-06-11T09:27:45Z</time>
			</trkpt>
		
			<trkpt lat="45.631060" lon="2.035520">
			 <ele>818</ele>
			<time>2016-06-11T09:29:45Z</time>
			</trkpt>
		
			<trkpt lat="45.631090" lon="2.035760">
			 <ele>819</ele>
			<time>2016-06-11T09:31:45Z</time>
			</trkpt>
		
			<trkpt lat="45.631160" lon="2.036100">
			 <ele>820</ele>
			<time>2016-06-11T09:33:45Z</time>
			</trkpt>
		
			<trkpt lat="45.631320" lon="2.036660">
			 <ele>821</ele>
			<time>2016-06-11T09:35:45Z</time>
			</trkpt>
		
			<trkpt lat="45.631490" lon="2.037200">
			 <ele>820</ele>
			<time>2016-06-11T09:37:45Z</time>
			</trkpt>
		
			<trkpt lat="45.631590" lon="2.037480">
			 <ele>820</ele>
			<time>2016-06-11T09:39:45Z</time>
			</trkpt>
		
			<trkpt lat="45.631700" lon="2.037730">
			 <ele>820</ele>
			<time>2016-06-11T09:41:45Z</time>
			</trkpt>
		
			<trkpt lat="45.631800" lon="2.037910">
			 <ele>819</ele>
			<time>2016-06-11T09:43:45Z</time>
			</trkpt>
		
			<trkpt lat="45.631980" lon="2.038140">
			 <ele>819</ele>
			<time>2016-06-11T09:45:45Z</time>
			</trkpt>
		
			<trkpt lat="45.632160" lon="2.038400">
			 <ele>820</ele>
			<time>2016-06-11T09:47:45Z</time>
			</trkpt>
		
			<trkpt lat="45.632200" lon="2.038470">
			 <ele>820</ele>
			<time>2016-06-11T09:49:45Z</time>
			</trkpt>
		
			<trkpt lat="45.632240" lon="2.038540">
			 <ele>820</ele>
			<time>2016-06-11T09:51:45Z</time>
			</trkpt>
		
			<trkpt lat="45.632260" lon="2.038620">
			 <ele>820</ele>
			<time>2016-06-11T09:53:45Z</time>
			</trkpt>
		
			<trkpt lat="45.632280" lon="2.038680">
			 <ele>820</ele>
			<time>2016-06-11T09:55:45Z</time>
			</trkpt>
		
			<trkpt lat="45.632300" lon="2.038750">
			 <ele>820</ele>
			<time>2016-06-11T09:57:45Z</time>
			</trkpt>
		
			<trkpt lat="45.632310" lon="2.038830">
			 <ele>820</ele>
			<time>2016-06-11T09:59:45Z</time>
			</trkpt>
		
			<trkpt lat="45.632320" lon="2.038910">
			 <ele>820</ele>
			<time>2016-06-11T10:01:45Z</time>
			</trkpt>
		
			<trkpt lat="45.632340" lon="2.039020">
			 <ele>820</ele>
			<time>2016-06-11T10:03:45Z</time>
			</trkpt>
		
			<trkpt lat="45.632370" lon="2.039200">
			 <ele>820</ele>
			<time>2016-06-11T10:05:45Z</time>
			</trkpt>
		
			<trkpt lat="45.632510" lon="2.039950">
			 <ele>822</ele>
			<time>2016-06-11T10:07:45Z</time>
			</trkpt>
		
			<trkpt lat="45.632510" lon="2.039950">
			 <ele>822</ele>
			<time>2016-06-11T10:09:45Z</time>
			</trkpt>
		
			<trkpt lat="45.632590" lon="2.039920">
			 <ele>823</ele>
			<time>2016-06-11T10:11:45Z</time>
			</trkpt>
		
			<trkpt lat="45.632680" lon="2.039920">
			 <ele>823</ele>
			<time>2016-06-11T10:13:45Z</time>
			</trkpt>
		
			<trkpt lat="45.632830" lon="2.039930">
			 <ele>824</ele>
			<time>2016-06-11T10:15:45Z</time>
			</trkpt>
		
			<trkpt lat="45.633060" lon="2.039990">
			 <ele>826</ele>
			<time>2016-06-11T10:17:45Z</time>
			</trkpt>
		
			<trkpt lat="45.633060" lon="2.039990">
			 <ele>826</ele>
			<time>2016-06-11T10:19:45Z</time>
			</trkpt>
		
			<trkpt lat="45.633060" lon="2.040130">
			 <ele>826</ele>
			<time>2016-06-11T10:21:45Z</time>
			</trkpt>
		
			<trkpt lat="45.633070" lon="2.040230">
			 <ele>825</ele>
			<time>2016-06-11T10:23:45Z</time>
			</trkpt>
		
			<trkpt lat="45.633090" lon="2.040310">
			 <ele>825</ele>
			<time>2016-06-11T10:25:45Z</time>
			</trkpt>
		
			<trkpt lat="45.633110" lon="2.040390">
			 <ele>825</ele>
			<time>2016-06-11T10:27:45Z</time>
			</trkpt>
		
			<trkpt lat="45.633160" lon="2.040490">
			 <ele>825</ele>
			<time>2016-06-11T10:29:45Z</time>
			</trkpt>
		
			<trkpt lat="45.633220" lon="2.040610">
			 <ele>826</ele>
			<time>2016-06-11T10:31:45Z</time>
			</trkpt>
		
			<trkpt lat="45.633270" lon="2.040730">
			 <ele>826</ele>
			<time>2016-06-11T10:33:45Z</time>
			</trkpt>
		
			<trkpt lat="45.633310" lon="2.040800">
			 <ele>826</ele>
			<time>2016-06-11T10:35:45Z</time>
			</trkpt>
		
			<trkpt lat="45.633330" lon="2.040840">
			 <ele>826</ele>
			<time>2016-06-11T10:37:45Z</time>
			</trkpt>
		
			<trkpt lat="45.633390" lon="2.040910">
			 <ele>826</ele>
			<time>2016-06-11T10:39:45Z</time>
			</trkpt>
		
			<trkpt lat="45.633460" lon="2.040990">
			 <ele>827</ele>
			<time>2016-06-11T10:41:45Z</time>
			</trkpt>
		
			<trkpt lat="45.633530" lon="2.041050">
			 <ele>827</ele>
			<time>2016-06-11T10:43:45Z</time>
			</trkpt>
		
			<trkpt lat="45.633560" lon="2.041070">
			 <ele>827</ele>
			<time>2016-06-11T10:45:45Z</time>
			</trkpt>
		
			<trkpt lat="45.633630" lon="2.041120">
			 <ele>827</ele>
			<time>2016-06-11T10:47:45Z</time>
			</trkpt>
		
			<trkpt lat="45.633830" lon="2.041290">
			 <ele>828</ele>
			<time>2016-06-11T10:49:45Z</time>
			</trkpt>
		
			<trkpt lat="45.633980" lon="2.041380">
			 <ele>829</ele>
			<time>2016-06-11T10:51:45Z</time>
			</trkpt>
		
			<trkpt lat="45.634070" lon="2.041440">
			 <ele>829</ele>
			<time>2016-06-11T10:53:45Z</time>
			</trkpt>
		
			<trkpt lat="45.634130" lon="2.041470">
			 <ele>829</ele>
			<time>2016-06-11T10:55:45Z</time>
			</trkpt>
		
			<trkpt lat="45.634190" lon="2.041490">
			 <ele>829</ele>
			<time>2016-06-11T10:57:45Z</time>
			</trkpt>
		
			<trkpt lat="45.634250" lon="2.041490">
			 <ele>829</ele>
			<time>2016-06-11T10:59:45Z</time>
			</trkpt>
		
			<trkpt lat="45.634350" lon="2.041490">
			 <ele>829</ele>
			<time>2016-06-11T11:01:45Z</time>
			</trkpt>
		
			<trkpt lat="45.634460" lon="2.041480">
			 <ele>828</ele>
			<time>2016-06-11T11:03:45Z</time>
			</trkpt>
		
			<trkpt lat="45.634580" lon="2.041470">
			 <ele>828</ele>
			<time>2016-06-11T11:05:45Z</time>
			</trkpt>
		
			<trkpt lat="45.634690" lon="2.041460">
			 <ele>828</ele>
			<time>2016-06-11T11:07:45Z</time>
			</trkpt>
		
			<trkpt lat="45.634780" lon="2.041450">
			 <ele>828</ele>
			<time>2016-06-11T11:09:45Z</time>
			</trkpt>
		
			<trkpt lat="45.634850" lon="2.041440">
			 <ele>828</ele>
			<time>2016-06-11T11:11:45Z</time>
			</trkpt>
		
			<trkpt lat="45.634930" lon="2.041440">
			 <ele>828</ele>
			<time>2016-06-11T11:13:45Z</time>
			</trkpt>
		
			<trkpt lat="45.635010" lon="2.041460">
			 <ele>827</ele>
			<time>2016-06-11T11:15:45Z</time>
			</trkpt>
		
			<trkpt lat="45.635100" lon="2.041500">
			 <ele>827</ele>
			<time>2016-06-11T11:17:45Z</time>
			</trkpt>
		
			<trkpt lat="45.635190" lon="2.041550">
			 <ele>827</ele>
			<time>2016-06-11T11:19:45Z</time>
			</trkpt>
		
			<trkpt lat="45.635390" lon="2.041680">
			 <ele>826</ele>
			<time>2016-06-11T11:21:45Z</time>
			</trkpt>
		
			<trkpt lat="45.635580" lon="2.041810">
			 <ele>826</ele>
			<time>2016-06-11T11:23:45Z</time>
			</trkpt>
		
			<trkpt lat="45.635670" lon="2.041870">
			 <ele>826</ele>
			<time>2016-06-11T11:25:45Z</time>
			</trkpt>
		
			<trkpt lat="45.635730" lon="2.041920">
			 <ele>826</ele>
			<time>2016-06-11T11:27:45Z</time>
			</trkpt>
		
			<trkpt lat="45.635780" lon="2.041980">
			 <ele>826</ele>
			<time>2016-06-11T11:29:45Z</time>
			</trkpt>
		
			<trkpt lat="45.635830" lon="2.042030">
			 <ele>826</ele>
			<time>2016-06-11T11:31:45Z</time>
			</trkpt>
		
			<trkpt lat="45.635880" lon="2.042100">
			 <ele>827</ele>
			<time>2016-06-11T11:33:45Z</time>
			</trkpt>
		
			<trkpt lat="45.636050" lon="2.042340">
			 <ele>827</ele>
			<time>2016-06-11T11:35:45Z</time>
			</trkpt>
		
			<trkpt lat="45.636200" lon="2.042560">
			 <ele>828</ele>
			<time>2016-06-11T11:37:45Z</time>
			</trkpt>
		
			<trkpt lat="45.636280" lon="2.042670">
			 <ele>829</ele>
			<time>2016-06-11T11:39:45Z</time>
			</trkpt>
		
			<trkpt lat="45.636370" lon="2.042760">
			 <ele>830</ele>
			<time>2016-06-11T11:41:45Z</time>
			</trkpt>
		
			<trkpt lat="45.636380" lon="2.042780">
			 <ele>830</ele>
			<time>2016-06-11T11:43:45Z</time>
			</trkpt>
		
			<trkpt lat="45.636420" lon="2.042820">
			 <ele>830</ele>
			<time>2016-06-11T11:45:45Z</time>
			</trkpt>
		
			<trkpt lat="45.636580" lon="2.042990">
			 <ele>832</ele>
			<time>2016-06-11T11:47:45Z</time>
			</trkpt>
		
			<trkpt lat="45.636660" lon="2.043080">
			 <ele>833</ele>
			<time>2016-06-11T11:49:45Z</time>
			</trkpt>
		
			<trkpt lat="45.636730" lon="2.043180">
			 <ele>833</ele>
			<time>2016-06-11T11:51:45Z</time>
			</trkpt>
		
			<trkpt lat="45.636790" lon="2.043270">
			 <ele>834</ele>
			<time>2016-06-11T11:53:45Z</time>
			</trkpt>
		
			<trkpt lat="45.636860" lon="2.043390">
			 <ele>835</ele>
			<time>2016-06-11T11:55:45Z</time>
			</trkpt>
		
			<trkpt lat="45.636930" lon="2.043510">
			 <ele>836</ele>
			<time>2016-06-11T11:57:45Z</time>
			</trkpt>
		
			<trkpt lat="45.637070" lon="2.043760">
			 <ele>838</ele>
			<time>2016-06-11T11:59:45Z</time>
			</trkpt>
		
			<trkpt lat="45.637180" lon="2.043930">
			 <ele>839</ele>
			<time>2016-06-11T12:01:45Z</time>
			</trkpt>
		
			<trkpt lat="45.637300" lon="2.044140">
			 <ele>841</ele>
			<time>2016-06-11T12:03:45Z</time>
			</trkpt>
		
			<trkpt lat="45.637360" lon="2.044220">
			 <ele>842</ele>
			<time>2016-06-11T12:05:45Z</time>
			</trkpt>
		
			<trkpt lat="45.637390" lon="2.044320">
			 <ele>843</ele>
			<time>2016-06-11T12:07:45Z</time>
			</trkpt>
		
			<trkpt lat="45.637420" lon="2.044430">
			 <ele>845</ele>
			<time>2016-06-11T12:09:45Z</time>
			</trkpt>
		
			<trkpt lat="45.637440" lon="2.044560">
			 <ele>846</ele>
			<time>2016-06-11T12:11:45Z</time>
			</trkpt>
		
			<trkpt lat="45.637460" lon="2.044680">
			 <ele>848</ele>
			<time>2016-06-11T12:13:45Z</time>
			</trkpt>
		
			<trkpt lat="45.637470" lon="2.044780">
			 <ele>849</ele>
			<time>2016-06-11T12:15:45Z</time>
			</trkpt>
		
			<trkpt lat="45.637530" lon="2.045090">
			 <ele>852</ele>
			<time>2016-06-11T12:17:45Z</time>
			</trkpt>
		
			<trkpt lat="45.637590" lon="2.045540">
			 <ele>854</ele>
			<time>2016-06-11T12:19:45Z</time>
			</trkpt>
		
			<trkpt lat="45.637700" lon="2.046270">
			 <ele>854</ele>
			<time>2016-06-11T12:21:45Z</time>
			</trkpt>
		
			<trkpt lat="45.637740" lon="2.046470">
			 <ele>854</ele>
			<time>2016-06-11T12:23:45Z</time>
			</trkpt>
		
			<trkpt lat="45.637790" lon="2.046670">
			 <ele>854</ele>
			<time>2016-06-11T12:25:45Z</time>
			</trkpt>
		
			<trkpt lat="45.637850" lon="2.046920">
			 <ele>854</ele>
			<time>2016-06-11T12:27:45Z</time>
			</trkpt>
		
			<trkpt lat="45.637940" lon="2.047240">
			 <ele>854</ele>
			<time>2016-06-11T12:29:45Z</time>
			</trkpt>
		
			<trkpt lat="45.638060" lon="2.047630">
			 <ele>855</ele>
			<time>2016-06-11T12:31:45Z</time>
			</trkpt>
		
			<trkpt lat="45.638190" lon="2.047990">
			 <ele>855</ele>
			<time>2016-06-11T12:33:45Z</time>
			</trkpt>
		
			<trkpt lat="45.638260" lon="2.048120">
			 <ele>855</ele>
			<time>2016-06-11T12:35:45Z</time>
			</trkpt>
		
			<trkpt lat="45.638340" lon="2.048250">
			 <ele>856</ele>
			<time>2016-06-11T12:37:45Z</time>
			</trkpt>
		
			<trkpt lat="45.638410" lon="2.048370">
			 <ele>856</ele>
			<time>2016-06-11T12:39:45Z</time>
			</trkpt>
		
			<trkpt lat="45.638530" lon="2.048540">
			 <ele>858</ele>
			<time>2016-06-11T12:41:45Z</time>
			</trkpt>
		
			<trkpt lat="45.638660" lon="2.048690">
			 <ele>859</ele>
			<time>2016-06-11T12:43:45Z</time>
			</trkpt>
		
			<trkpt lat="45.638790" lon="2.048840">
			 <ele>859</ele>
			<time>2016-06-11T12:45:45Z</time>
			</trkpt>
		
			<trkpt lat="45.638940" lon="2.049000">
			 <ele>859</ele>
			<time>2016-06-11T12:47:45Z</time>
			</trkpt>
		
			<trkpt lat="45.639020" lon="2.049100">
			 <ele>859</ele>
			<time>2016-06-11T12:49:45Z</time>
			</trkpt>
		
			<trkpt lat="45.639060" lon="2.049190">
			 <ele>859</ele>
			<time>2016-06-11T12:51:45Z</time>
			</trkpt>
		
			<trkpt lat="45.639080" lon="2.049280">
			 <ele>859</ele>
			<time>2016-06-11T12:53:45Z</time>
			</trkpt>
		
			<trkpt lat="45.639090" lon="2.049350">
			 <ele>858</ele>
			<time>2016-06-11T12:55:45Z</time>
			</trkpt>
		
			<trkpt lat="45.639090" lon="2.049400">
			 <ele>858</ele>
			<time>2016-06-11T12:57:45Z</time>
			</trkpt>
		
			<trkpt lat="45.639080" lon="2.049470">
			 <ele>858</ele>
			<time>2016-06-11T12:59:45Z</time>
			</trkpt>
		
			<trkpt lat="45.639050" lon="2.049550">
			 <ele>857</ele>
			<time>2016-06-11T13:01:45Z</time>
			</trkpt>
		
			<trkpt lat="45.639000" lon="2.049660">
			 <ele>856</ele>
			<time>2016-06-11T13:03:45Z</time>
			</trkpt>
		
			<trkpt lat="45.638950" lon="2.049780">
			 <ele>855</ele>
			<time>2016-06-11T13:05:45Z</time>
			</trkpt>
		
			<trkpt lat="45.638880" lon="2.049940">
			 <ele>854</ele>
			<time>2016-06-11T13:07:45Z</time>
			</trkpt>
		
			<trkpt lat="45.638850" lon="2.050010">
			 <ele>854</ele>
			<time>2016-06-11T13:09:45Z</time>
			</trkpt>
		
			<trkpt lat="45.638830" lon="2.050070">
			 <ele>853</ele>
			<time>2016-06-11T13:11:45Z</time>
			</trkpt>
		
			<trkpt lat="45.638830" lon="2.050130">
			 <ele>853</ele>
			<time>2016-06-11T13:13:45Z</time>
			</trkpt>
		
			<trkpt lat="45.638820" lon="2.050170">
			 <ele>853</ele>
			<time>2016-06-11T13:15:45Z</time>
			</trkpt>
		
			<trkpt lat="45.638820" lon="2.050230">
			 <ele>853</ele>
			<time>2016-06-11T13:17:45Z</time>
			</trkpt>
		
			<trkpt lat="45.638830" lon="2.050310">
			 <ele>853</ele>
			<time>2016-06-11T13:19:45Z</time>
			</trkpt>
		
			<trkpt lat="45.638840" lon="2.050410">
			 <ele>853</ele>
			<time>2016-06-11T13:21:45Z</time>
			</trkpt>
		
			<trkpt lat="45.638950" lon="2.050900">
			 <ele>854</ele>
			<time>2016-06-11T13:23:45Z</time>
			</trkpt>
		
			<trkpt lat="45.639020" lon="2.051190">
			 <ele>855</ele>
			<time>2016-06-11T13:25:45Z</time>
			</trkpt>
		
			<trkpt lat="45.639070" lon="2.051340">
			 <ele>855</ele>
			<time>2016-06-11T13:27:45Z</time>
			</trkpt>
		
			<trkpt lat="45.639130" lon="2.051540">
			 <ele>856</ele>
			<time>2016-06-11T13:29:45Z</time>
			</trkpt>
		
			<trkpt lat="45.639410" lon="2.052360">
			 <ele>860</ele>
			<time>2016-06-11T13:31:45Z</time>
			</trkpt>
		
			<trkpt lat="45.639500" lon="2.052600">
			 <ele>861</ele>
			<time>2016-06-11T13:33:45Z</time>
			</trkpt>
		
			<trkpt lat="45.639600" lon="2.052790">
			 <ele>861</ele>
			<time>2016-06-11T13:35:45Z</time>
			</trkpt>
		
			<trkpt lat="45.639690" lon="2.052940">
			 <ele>861</ele>
			<time>2016-06-11T13:37:45Z</time>
			</trkpt>
		
			<trkpt lat="45.639780" lon="2.053080">
			 <ele>861</ele>
			<time>2016-06-11T13:39:45Z</time>
			</trkpt>
		
			<trkpt lat="45.639890" lon="2.053250">
			 <ele>861</ele>
			<time>2016-06-11T13:41:45Z</time>
			</trkpt>
		
			<trkpt lat="45.639980" lon="2.053370">
			 <ele>862</ele>
			<time>2016-06-11T13:43:45Z</time>
			</trkpt>
		
			<trkpt lat="45.640080" lon="2.053480">
			 <ele>861</ele>
			<time>2016-06-11T13:45:45Z</time>
			</trkpt>
		
			<trkpt lat="45.640190" lon="2.053590">
			 <ele>860</ele>
			<time>2016-06-11T13:47:45Z</time>
			</trkpt>
		
			<trkpt lat="45.640270" lon="2.053670">
			 <ele>859</ele>
			<time>2016-06-11T13:49:45Z</time>
			</trkpt>
		
			<trkpt lat="45.640350" lon="2.053720">
			 <ele>859</ele>
			<time>2016-06-11T13:51:45Z</time>
			</trkpt>
		
			<trkpt lat="45.640440" lon="2.053750">
			 <ele>859</ele>
			<time>2016-06-11T13:53:45Z</time>
			</trkpt>
		
			<trkpt lat="45.640510" lon="2.053770">
			 <ele>859</ele>
			<time>2016-06-11T13:55:45Z</time>
			</trkpt>
		
			<trkpt lat="45.640580" lon="2.053780">
			 <ele>859</ele>
			<time>2016-06-11T13:57:45Z</time>
			</trkpt>
		
			<trkpt lat="45.640640" lon="2.053790">
			 <ele>859</ele>
			<time>2016-06-11T13:59:45Z</time>
			</trkpt>
		
			<trkpt lat="45.640700" lon="2.053790">
			 <ele>859</ele>
			<time>2016-06-11T14:01:45Z</time>
			</trkpt>
		
			<trkpt lat="45.640790" lon="2.053780">
			 <ele>859</ele>
			<time>2016-06-11T14:03:45Z</time>
			</trkpt>
		
			<trkpt lat="45.640930" lon="2.053770">
			 <ele>859</ele>
			<time>2016-06-11T14:05:45Z</time>
			</trkpt>
		
			<trkpt lat="45.641020" lon="2.053790">
			 <ele>859</ele>
			<time>2016-06-11T14:07:45Z</time>
			</trkpt>
		
			<trkpt lat="45.641080" lon="2.053820">
			 <ele>859</ele>
			<time>2016-06-11T14:09:45Z</time>
			</trkpt>
		
			<trkpt lat="45.641140" lon="2.053870">
			 <ele>858</ele>
			<time>2016-06-11T14:11:45Z</time>
			</trkpt>
		
			<trkpt lat="45.641190" lon="2.053920">
			 <ele>858</ele>
			<time>2016-06-11T14:13:45Z</time>
			</trkpt>
		
			<trkpt lat="45.641240" lon="2.053980">
			 <ele>857</ele>
			<time>2016-06-11T14:15:45Z</time>
			</trkpt>
		
			<trkpt lat="45.641290" lon="2.054060">
			 <ele>857</ele>
			<time>2016-06-11T14:17:45Z</time>
			</trkpt>
		
			<trkpt lat="45.641340" lon="2.054180">
			 <ele>856</ele>
			<time>2016-06-11T14:19:45Z</time>
			</trkpt>
		
			<trkpt lat="45.641400" lon="2.054360">
			 <ele>856</ele>
			<time>2016-06-11T14:21:45Z</time>
			</trkpt>
		
			<trkpt lat="45.641430" lon="2.054580">
			 <ele>856</ele>
			<time>2016-06-11T14:23:45Z</time>
			</trkpt>
		
			<trkpt lat="45.641430" lon="2.054710">
			 <ele>857</ele>
			<time>2016-06-11T14:25:45Z</time>
			</trkpt>
		
			<trkpt lat="45.641420" lon="2.054890">
			 <ele>857</ele>
			<time>2016-06-11T14:27:45Z</time>
			</trkpt>
		
			<trkpt lat="45.641370" lon="2.055370">
			 <ele>858</ele>
			<time>2016-06-11T14:29:45Z</time>
			</trkpt>
		
			<trkpt lat="45.641340" lon="2.055860">
			 <ele>860</ele>
			<time>2016-06-11T14:31:45Z</time>
			</trkpt>
		
			<trkpt lat="45.641310" lon="2.056320">
			 <ele>861</ele>
			<time>2016-06-11T14:33:45Z</time>
			</trkpt>
		
			<trkpt lat="45.641290" lon="2.056620">
			 <ele>861</ele>
			<time>2016-06-11T14:35:45Z</time>
			</trkpt>
		
			<trkpt lat="45.641270" lon="2.057050">
			 <ele>862</ele>
			<time>2016-06-11T14:37:45Z</time>
			</trkpt>
		
			<trkpt lat="45.641260" lon="2.057410">
			 <ele>862</ele>
			<time>2016-06-11T14:39:45Z</time>
			</trkpt>
		
			<trkpt lat="45.641250" lon="2.057750">
			 <ele>862</ele>
			<time>2016-06-11T14:41:45Z</time>
			</trkpt>
		
			<trkpt lat="45.641240" lon="2.057970">
			 <ele>862</ele>
			<time>2016-06-11T14:43:45Z</time>
			</trkpt>
		
			<trkpt lat="45.641220" lon="2.058200">
			 <ele>862</ele>
			<time>2016-06-11T14:45:45Z</time>
			</trkpt>
		
			<trkpt lat="45.641210" lon="2.058350">
			 <ele>861</ele>
			<time>2016-06-11T14:47:45Z</time>
			</trkpt>
		
			<trkpt lat="45.641190" lon="2.058480">
			 <ele>861</ele>
			<time>2016-06-11T14:49:45Z</time>
			</trkpt>
		
			<trkpt lat="45.641170" lon="2.058610">
			 <ele>861</ele>
			<time>2016-06-11T14:51:45Z</time>
			</trkpt>
		
			<trkpt lat="45.641140" lon="2.058800">
			 <ele>861</ele>
			<time>2016-06-11T14:53:45Z</time>
			</trkpt>
		
			<trkpt lat="45.641100" lon="2.059020">
			 <ele>861</ele>
			<time>2016-06-11T14:55:45Z</time>
			</trkpt>
		
			<trkpt lat="45.641060" lon="2.059240">
			 <ele>861</ele>
			<time>2016-06-11T14:57:45Z</time>
			</trkpt>
		
			<trkpt lat="45.640960" lon="2.059870">
			 <ele>861</ele>
			<time>2016-06-11T14:59:45Z</time>
			</trkpt>
		
			<trkpt lat="45.640940" lon="2.060030">
			 <ele>861</ele>
			<time>2016-06-11T15:01:45Z</time>
			</trkpt>
		
			<trkpt lat="45.640930" lon="2.060120">
			 <ele>861</ele>
			<time>2016-06-11T15:03:45Z</time>
			</trkpt>
		
			<trkpt lat="45.640920" lon="2.060240">
			 <ele>861</ele>
			<time>2016-06-11T15:05:45Z</time>
			</trkpt>
		
			<trkpt lat="45.640920" lon="2.060350">
			 <ele>861</ele>
			<time>2016-06-11T15:07:45Z</time>
			</trkpt>
		
			<trkpt lat="45.640930" lon="2.060500">
			 <ele>861</ele>
			<time>2016-06-11T15:09:45Z</time>
			</trkpt>
		
			<trkpt lat="45.640940" lon="2.060720">
			 <ele>860</ele>
			<time>2016-06-11T15:11:45Z</time>
			</trkpt>
		
			<trkpt lat="45.640950" lon="2.060930">
			 <ele>860</ele>
			<time>2016-06-11T15:13:45Z</time>
			</trkpt>
		
			<trkpt lat="45.640960" lon="2.061150">
			 <ele>861</ele>
			<time>2016-06-11T15:15:45Z</time>
			</trkpt>
		
			<trkpt lat="45.640960" lon="2.061370">
			 <ele>861</ele>
			<time>2016-06-11T15:17:45Z</time>
			</trkpt>
		
			<trkpt lat="45.640970" lon="2.061560">
			 <ele>862</ele>
			<time>2016-06-11T15:19:45Z</time>
			</trkpt>
		
			<trkpt lat="45.640970" lon="2.061710">
			 <ele>862</ele>
			<time>2016-06-11T15:21:45Z</time>
			</trkpt>
		
			<trkpt lat="45.640970" lon="2.061920">
			 <ele>863</ele>
			<time>2016-06-11T15:23:45Z</time>
			</trkpt>
		
			<trkpt lat="45.640970" lon="2.062170">
			 <ele>864</ele>
			<time>2016-06-11T15:25:45Z</time>
			</trkpt>
		
			<trkpt lat="45.640960" lon="2.062220">
			 <ele>864</ele>
			<time>2016-06-11T15:27:45Z</time>
			</trkpt>
		
			<trkpt lat="45.640950" lon="2.062370">
			 <ele>865</ele>
			<time>2016-06-11T15:29:45Z</time>
			</trkpt>
		
			<trkpt lat="45.640950" lon="2.062440">
			 <ele>865</ele>
			<time>2016-06-11T15:31:45Z</time>
			</trkpt>
		
			<trkpt lat="45.640950" lon="2.062620">
			 <ele>867</ele>
			<time>2016-06-11T15:33:45Z</time>
			</trkpt>
		
			<trkpt lat="45.640940" lon="2.062780">
			 <ele>868</ele>
			<time>2016-06-11T15:35:45Z</time>
			</trkpt>
		
			<trkpt lat="45.640930" lon="2.063070">
			 <ele>870</ele>
			<time>2016-06-11T15:37:45Z</time>
			</trkpt>
		
			<trkpt lat="45.640910" lon="2.063580">
			 <ele>872</ele>
			<time>2016-06-11T15:39:45Z</time>
			</trkpt>
		
			<trkpt lat="45.640870" lon="2.064290">
			 <ele>871</ele>
			<time>2016-06-11T15:41:45Z</time>
			</trkpt>
		
			<trkpt lat="45.640840" lon="2.064740">
			 <ele>870</ele>
			<time>2016-06-11T15:43:45Z</time>
			</trkpt>
		
			<trkpt lat="45.640800" lon="2.065520">
			 <ele>869</ele>
			<time>2016-06-11T15:45:45Z</time>
			</trkpt>
		
			<trkpt lat="45.640800" lon="2.065640">
			 <ele>870</ele>
			<time>2016-06-11T15:47:45Z</time>
			</trkpt>
		
			<trkpt lat="45.640800" lon="2.065730">
			 <ele>870</ele>
			<time>2016-06-11T15:49:45Z</time>
			</trkpt>
		
			<trkpt lat="45.640810" lon="2.065810">
			 <ele>870</ele>
			<time>2016-06-11T15:51:45Z</time>
			</trkpt>
		
			<trkpt lat="45.640830" lon="2.065890">
			 <ele>870</ele>
			<time>2016-06-11T15:53:45Z</time>
			</trkpt>
		
			<trkpt lat="45.640850" lon="2.065990">
			 <ele>871</ele>
			<time>2016-06-11T15:55:45Z</time>
			</trkpt>
		
			<trkpt lat="45.640910" lon="2.066210">
			 <ele>872</ele>
			<time>2016-06-11T15:57:45Z</time>
			</trkpt>
		
			<trkpt lat="45.641000" lon="2.066550">
			 <ele>873</ele>
			<time>2016-06-11T15:59:45Z</time>
			</trkpt>
		
			<trkpt lat="45.641060" lon="2.066820">
			 <ele>873</ele>
			<time>2016-06-11T16:01:45Z</time>
			</trkpt>
		
			<trkpt lat="45.641080" lon="2.066910">
			 <ele>873</ele>
			<time>2016-06-11T16:03:45Z</time>
			</trkpt>
		
			<trkpt lat="45.641090" lon="2.066980">
			 <ele>873</ele>
			<time>2016-06-11T16:05:45Z</time>
			</trkpt>
		
			<trkpt lat="45.641100" lon="2.067050">
			 <ele>873</ele>
			<time>2016-06-11T16:07:45Z</time>
			</trkpt>
		
			<trkpt lat="45.641100" lon="2.067130">
			 <ele>874</ele>
			<time>2016-06-11T16:09:45Z</time>
			</trkpt>
		
			<trkpt lat="45.641090" lon="2.067220">
			 <ele>874</ele>
			<time>2016-06-11T16:11:45Z</time>
			</trkpt>
		
			<trkpt lat="45.641090" lon="2.067340">
			 <ele>874</ele>
			<time>2016-06-11T16:13:45Z</time>
			</trkpt>
		
			<trkpt lat="45.641070" lon="2.067940">
			 <ele>875</ele>
			<time>2016-06-11T16:15:45Z</time>
			</trkpt>
		
			<trkpt lat="45.641060" lon="2.068290">
			 <ele>876</ele>
			<time>2016-06-11T16:17:45Z</time>
			</trkpt>
		
			<trkpt lat="45.641040" lon="2.068390">
			 <ele>876</ele>
			<time>2016-06-11T16:19:45Z</time>
			</trkpt>
		
			<trkpt lat="45.641030" lon="2.068520">
			 <ele>877</ele>
			<time>2016-06-11T16:21:45Z</time>
			</trkpt>
		
			<trkpt lat="45.640990" lon="2.068660">
			 <ele>878</ele>
			<time>2016-06-11T16:23:45Z</time>
			</trkpt>
		
			<trkpt lat="45.640950" lon="2.068790">
			 <ele>878</ele>
			<time>2016-06-11T16:25:45Z</time>
			</trkpt>
		
			<trkpt lat="45.640920" lon="2.068880">
			 <ele>879</ele>
			<time>2016-06-11T16:27:45Z</time>
			</trkpt>
		
			<trkpt lat="45.640870" lon="2.068990">
			 <ele>880</ele>
			<time>2016-06-11T16:29:45Z</time>
			</trkpt>
		
			<trkpt lat="45.640820" lon="2.069080">
			 <ele>881</ele>
			<time>2016-06-11T16:31:45Z</time>
			</trkpt>
		
			<trkpt lat="45.640790" lon="2.069150">
			 <ele>881</ele>
			<time>2016-06-11T16:33:45Z</time>
			</trkpt>
		
			<trkpt lat="45.640780" lon="2.069240">
			 <ele>881</ele>
			<time>2016-06-11T16:35:45Z</time>
			</trkpt>
		
			<trkpt lat="45.640760" lon="2.069320">
			 <ele>882</ele>
			<time>2016-06-11T16:37:45Z</time>
			</trkpt>
		
			<trkpt lat="45.640760" lon="2.069390">
			 <ele>882</ele>
			<time>2016-06-11T16:39:45Z</time>
			</trkpt>
		
			<trkpt lat="45.640750" lon="2.069470">
			 <ele>882</ele>
			<time>2016-06-11T16:41:45Z</time>
			</trkpt>
		
			<trkpt lat="45.640750" lon="2.069610">
			 <ele>883</ele>
			<time>2016-06-11T16:43:45Z</time>
			</trkpt>
		
			<trkpt lat="45.640760" lon="2.069850">
			 <ele>884</ele>
			<time>2016-06-11T16:45:45Z</time>
			</trkpt>
		
			<trkpt lat="45.640770" lon="2.070290">
			 <ele>886</ele>
			<time>2016-06-11T16:47:45Z</time>
			</trkpt>
		
			<trkpt lat="45.640800" lon="2.070880">
			 <ele>887</ele>
			<time>2016-06-11T16:49:45Z</time>
			</trkpt>
		
			<trkpt lat="45.640830" lon="2.071140">
			 <ele>888</ele>
			<time>2016-06-11T16:51:45Z</time>
			</trkpt>
		
			<trkpt lat="45.640830" lon="2.071250">
			 <ele>888</ele>
			<time>2016-06-11T16:53:45Z</time>
			</trkpt>
		
			<trkpt lat="45.640830" lon="2.071360">
			 <ele>888</ele>
			<time>2016-06-11T16:55:45Z</time>
			</trkpt>
		
			<trkpt lat="45.640820" lon="2.071440">
			 <ele>888</ele>
			<time>2016-06-11T16:57:45Z</time>
			</trkpt>
		
			<trkpt lat="45.640810" lon="2.071520">
			 <ele>889</ele>
			<time>2016-06-11T16:59:45Z</time>
			</trkpt>
		
			<trkpt lat="45.640800" lon="2.071590">
			 <ele>889</ele>
			<time>2016-06-11T17:01:45Z</time>
			</trkpt>
		
			<trkpt lat="45.640770" lon="2.071690">
			 <ele>889</ele>
			<time>2016-06-11T17:03:45Z</time>
			</trkpt>
		
			<trkpt lat="45.640730" lon="2.071870">
			 <ele>890</ele>
			<time>2016-06-11T17:05:45Z</time>
			</trkpt>
		
			<trkpt lat="45.640650" lon="2.072160">
			 <ele>892</ele>
			<time>2016-06-11T17:07:45Z</time>
			</trkpt>
		
			<trkpt lat="45.640630" lon="2.072270">
			 <ele>892</ele>
			<time>2016-06-11T17:09:45Z</time>
			</trkpt>
		
			<trkpt lat="45.640610" lon="2.072370">
			 <ele>893</ele>
			<time>2016-06-11T17:11:45Z</time>
			</trkpt>
		
			<trkpt lat="45.640610" lon="2.072450">
			 <ele>893</ele>
			<time>2016-06-11T17:13:45Z</time>
			</trkpt>
		
			<trkpt lat="45.640610" lon="2.072520">
			 <ele>893</ele>
			<time>2016-06-11T17:15:45Z</time>
			</trkpt>
		
			<trkpt lat="45.640620" lon="2.072590">
			 <ele>893</ele>
			<time>2016-06-11T17:17:45Z</time>
			</trkpt>
		
			<trkpt lat="45.640640" lon="2.072680">
			 <ele>893</ele>
			<time>2016-06-11T17:19:45Z</time>
			</trkpt>
		
			<trkpt lat="45.640660" lon="2.072770">
			 <ele>894</ele>
			<time>2016-06-11T17:21:45Z</time>
			</trkpt>
		
			<trkpt lat="45.640700" lon="2.072890">
			 <ele>894</ele>
			<time>2016-06-11T17:23:45Z</time>
			</trkpt>
		
			<trkpt lat="45.640900" lon="2.073540">
			 <ele>895</ele>
			<time>2016-06-11T17:25:45Z</time>
			</trkpt>
		
			<trkpt lat="45.641180" lon="2.074420">
			 <ele>898</ele>
			<time>2016-06-11T17:27:45Z</time>
			</trkpt>
		
			<trkpt lat="45.641320" lon="2.074860">
			 <ele>900</ele>
			<time>2016-06-11T17:29:45Z</time>
			</trkpt>
		
			<trkpt lat="45.641420" lon="2.075180">
			 <ele>901</ele>
			<time>2016-06-11T17:31:45Z</time>
			</trkpt>
		
			<trkpt lat="45.641460" lon="2.075300">
			 <ele>901</ele>
			<time>2016-06-11T17:33:45Z</time>
			</trkpt>
		
			<trkpt lat="45.641480" lon="2.075380">
			 <ele>901</ele>
			<time>2016-06-11T17:35:45Z</time>
			</trkpt>
		
			<trkpt lat="45.641510" lon="2.075480">
			 <ele>902</ele>
			<time>2016-06-11T17:37:45Z</time>
			</trkpt>
		
			<trkpt lat="45.641530" lon="2.075610">
			 <ele>902</ele>
			<time>2016-06-11T17:39:45Z</time>
			</trkpt>
		
			<trkpt lat="45.641560" lon="2.075750">
			 <ele>902</ele>
			<time>2016-06-11T17:41:45Z</time>
			</trkpt>
		
			<trkpt lat="45.641610" lon="2.076070">
			 <ele>903</ele>
			<time>2016-06-11T17:43:45Z</time>
			</trkpt>
		
			<trkpt lat="45.641630" lon="2.076150">
			 <ele>903</ele>
			<time>2016-06-11T17:45:45Z</time>
			</trkpt>
		
			<trkpt lat="45.641640" lon="2.076240">
			 <ele>903</ele>
			<time>2016-06-11T17:47:45Z</time>
			</trkpt>
		
			<trkpt lat="45.641650" lon="2.076340">
			 <ele>903</ele>
			<time>2016-06-11T17:49:45Z</time>
			</trkpt>
		
			<trkpt lat="45.641660" lon="2.076410">
			 <ele>903</ele>
			<time>2016-06-11T17:51:45Z</time>
			</trkpt>
		
			<trkpt lat="45.641660" lon="2.076480">
			 <ele>903</ele>
			<time>2016-06-11T17:53:45Z</time>
			</trkpt>
		
			<trkpt lat="45.641660" lon="2.076550">
			 <ele>903</ele>
			<time>2016-06-11T17:55:45Z</time>
			</trkpt>
		
			<trkpt lat="45.641660" lon="2.076610">
			 <ele>903</ele>
			<time>2016-06-11T17:57:45Z</time>
			</trkpt>
		
			<trkpt lat="45.641660" lon="2.076680">
			 <ele>903</ele>
			<time>2016-06-11T17:59:45Z</time>
			</trkpt>
		
			<trkpt lat="45.641650" lon="2.076860">
			 <ele>904</ele>
			<time>2016-06-11T18:01:45Z</time>
			</trkpt>
		
			<trkpt lat="45.641630" lon="2.077130">
			 <ele>904</ele>
			<time>2016-06-11T18:03:45Z</time>
			</trkpt>
		
			<trkpt lat="45.641590" lon="2.077630">
			 <ele>905</ele>
			<time>2016-06-11T18:05:45Z</time>
			</trkpt>
		
			<trkpt lat="45.641560" lon="2.078000">
			 <ele>904</ele>
			<time>2016-06-11T18:07:45Z</time>
			</trkpt>
		
			<trkpt lat="45.641540" lon="2.078390">
			 <ele>904</ele>
			<time>2016-06-11T18:09:45Z</time>
			</trkpt>
		
			<trkpt lat="45.641510" lon="2.078830">
			 <ele>902</ele>
			<time>2016-06-11T18:11:45Z</time>
			</trkpt>
		
			<trkpt lat="45.641490" lon="2.079130">
			 <ele>902</ele>
			<time>2016-06-11T18:13:45Z</time>
			</trkpt>
		
			<trkpt lat="45.641470" lon="2.079360">
			 <ele>902</ele>
			<time>2016-06-11T18:15:45Z</time>
			</trkpt>
		
			<trkpt lat="45.641440" lon="2.079760">
			 <ele>903</ele>
			<time>2016-06-11T18:17:45Z</time>
			</trkpt>
		
			<trkpt lat="45.641400" lon="2.080330">
			 <ele>905</ele>
			<time>2016-06-11T18:19:45Z</time>
			</trkpt>
		
			<trkpt lat="45.641350" lon="2.081010">
			 <ele>907</ele>
			<time>2016-06-11T18:21:45Z</time>
			</trkpt>
		
			<trkpt lat="45.641320" lon="2.081430">
			 <ele>908</ele>
			<time>2016-06-11T18:23:45Z</time>
			</trkpt>
		
			<trkpt lat="45.641290" lon="2.081930">
			 <ele>909</ele>
			<time>2016-06-11T18:25:45Z</time>
			</trkpt>
		
			<trkpt lat="45.641250" lon="2.082430">
			 <ele>909</ele>
			<time>2016-06-11T18:27:45Z</time>
			</trkpt>
		
			<trkpt lat="45.641220" lon="2.082820">
			 <ele>910</ele>
			<time>2016-06-11T18:29:45Z</time>
			</trkpt>
		
			<trkpt lat="45.641210" lon="2.082980">
			 <ele>910</ele>
			<time>2016-06-11T18:31:45Z</time>
			</trkpt>
		
			<trkpt lat="45.641200" lon="2.083170">
			 <ele>910</ele>
			<time>2016-06-11T18:33:45Z</time>
			</trkpt>
		
			<trkpt lat="45.641190" lon="2.083310">
			 <ele>910</ele>
			<time>2016-06-11T18:35:45Z</time>
			</trkpt>
		
			<trkpt lat="45.641190" lon="2.083460">
			 <ele>910</ele>
			<time>2016-06-11T18:37:45Z</time>
			</trkpt>
		
			<trkpt lat="45.641200" lon="2.083740">
			 <ele>910</ele>
			<time>2016-06-11T18:39:45Z</time>
			</trkpt>
		
			<trkpt lat="45.641200" lon="2.084050">
			 <ele>909</ele>
			<time>2016-06-11T18:41:45Z</time>
			</trkpt>
		
			<trkpt lat="45.641210" lon="2.084390">
			 <ele>909</ele>
			<time>2016-06-11T18:43:45Z</time>
			</trkpt>
		
			<trkpt lat="45.641220" lon="2.084700">
			 <ele>908</ele>
			<time>2016-06-11T18:45:45Z</time>
			</trkpt>
		
			<trkpt lat="45.641230" lon="2.085130">
			 <ele>908</ele>
			<time>2016-06-11T18:47:45Z</time>
			</trkpt>
		
			<trkpt lat="45.641230" lon="2.085360">
			 <ele>908</ele>
			<time>2016-06-11T18:49:45Z</time>
			</trkpt>
		
			<trkpt lat="45.641240" lon="2.085530">
			 <ele>908</ele>
			<time>2016-06-11T18:51:45Z</time>
			</trkpt>
		
			<trkpt lat="45.641250" lon="2.085690">
			 <ele>908</ele>
			<time>2016-06-11T18:53:45Z</time>
			</trkpt>
		
			<trkpt lat="45.641260" lon="2.085830">
			 <ele>908</ele>
			<time>2016-06-11T18:55:45Z</time>
			</trkpt>
		
			<trkpt lat="45.641270" lon="2.085940">
			 <ele>908</ele>
			<time>2016-06-11T18:57:45Z</time>
			</trkpt>
		
			<trkpt lat="45.641290" lon="2.086040">
			 <ele>909</ele>
			<time>2016-06-11T18:59:45Z</time>
			</trkpt>
		
			<trkpt lat="45.641310" lon="2.086120">
			 <ele>909</ele>
			<time>2016-06-11T19:01:45Z</time>
			</trkpt>
		
			<trkpt lat="45.641350" lon="2.086220">
			 <ele>909</ele>
			<time>2016-06-11T19:03:45Z</time>
			</trkpt>
		
			<trkpt lat="45.641400" lon="2.086360">
			 <ele>909</ele>
			<time>2016-06-11T19:05:45Z</time>
			</trkpt>
		
			<trkpt lat="45.641480" lon="2.086490">
			 <ele>910</ele>
			<time>2016-06-11T19:07:45Z</time>
			</trkpt>
		
			<trkpt lat="45.641570" lon="2.086630">
			 <ele>910</ele>
			<time>2016-06-11T19:09:45Z</time>
			</trkpt>
		
			<trkpt lat="45.641660" lon="2.086740">
			 <ele>910</ele>
			<time>2016-06-11T19:11:45Z</time>
			</trkpt>
		
			<trkpt lat="45.641750" lon="2.086830">
			 <ele>910</ele>
			<time>2016-06-11T19:13:45Z</time>
			</trkpt>
		
			<trkpt lat="45.641940" lon="2.086980">
			 <ele>909</ele>
			<time>2016-06-11T19:15:45Z</time>
			</trkpt>
		
			<trkpt lat="45.642170" lon="2.087160">
			 <ele>909</ele>
			<time>2016-06-11T19:17:45Z</time>
			</trkpt>
		
			<trkpt lat="45.642460" lon="2.087390">
			 <ele>908</ele>
			<time>2016-06-11T19:19:45Z</time>
			</trkpt>
		
			<trkpt lat="45.642810" lon="2.087650">
			 <ele>907</ele>
			<time>2016-06-11T19:21:45Z</time>
			</trkpt>
		
			<trkpt lat="45.642950" lon="2.087760">
			 <ele>906</ele>
			<time>2016-06-11T19:23:45Z</time>
			</trkpt>
		
			<trkpt lat="45.643030" lon="2.087830">
			 <ele>906</ele>
			<time>2016-06-11T19:25:45Z</time>
			</trkpt>
		
			<trkpt lat="45.643090" lon="2.087880">
			 <ele>906</ele>
			<time>2016-06-11T19:27:45Z</time>
			</trkpt>
		
			<trkpt lat="45.643140" lon="2.087940">
			 <ele>906</ele>
			<time>2016-06-11T19:29:45Z</time>
			</trkpt>
		
			<trkpt lat="45.643180" lon="2.088010">
			 <ele>906</ele>
			<time>2016-06-11T19:31:45Z</time>
			</trkpt>
		
			<trkpt lat="45.643210" lon="2.088070">
			 <ele>906</ele>
			<time>2016-06-11T19:33:45Z</time>
			</trkpt>
		
			<trkpt lat="45.643230" lon="2.088130">
			 <ele>906</ele>
			<time>2016-06-11T19:35:45Z</time>
			</trkpt>
		
			<trkpt lat="45.643250" lon="2.088200">
			 <ele>907</ele>
			<time>2016-06-11T19:37:45Z</time>
			</trkpt>
		
			<trkpt lat="45.643260" lon="2.088230">
			 <ele>907</ele>
			<time>2016-06-11T19:39:45Z</time>
			</trkpt>
		
			<trkpt lat="45.643260" lon="2.088280">
			 <ele>907</ele>
			<time>2016-06-11T19:41:45Z</time>
			</trkpt>
		
			<trkpt lat="45.643270" lon="2.088360">
			 <ele>907</ele>
			<time>2016-06-11T19:43:45Z</time>
			</trkpt>
		
			<trkpt lat="45.643260" lon="2.088430">
			 <ele>907</ele>
			<time>2016-06-11T19:45:45Z</time>
			</trkpt>
		
			<trkpt lat="45.643250" lon="2.088530">
			 <ele>906</ele>
			<time>2016-06-11T19:47:45Z</time>
			</trkpt>
		
			<trkpt lat="45.643230" lon="2.088620">
			 <ele>906</ele>
			<time>2016-06-11T19:49:45Z</time>
			</trkpt>
		
			<trkpt lat="45.643170" lon="2.088760">
			 <ele>906</ele>
			<time>2016-06-11T19:51:45Z</time>
			</trkpt>
		
			<trkpt lat="45.643100" lon="2.088920">
			 <ele>906</ele>
			<time>2016-06-11T19:53:45Z</time>
			</trkpt>
		
			<trkpt lat="45.642960" lon="2.089210">
			 <ele>906</ele>
			<time>2016-06-11T19:55:45Z</time>
			</trkpt>
		
			<trkpt lat="45.642790" lon="2.089460">
			 <ele>906</ele>
			<time>2016-06-11T19:57:45Z</time>
			</trkpt>
		
			<trkpt lat="45.642670" lon="2.089590">
			 <ele>906</ele>
			<time>2016-06-11T19:59:45Z</time>
			</trkpt>
		
			<trkpt lat="45.642560" lon="2.089690">
			 <ele>907</ele>
			<time>2016-06-11T20:01:45Z</time>
			</trkpt>
		
			<trkpt lat="45.642450" lon="2.089810">
			 <ele>906</ele>
			<time>2016-06-11T20:03:45Z</time>
			</trkpt>
		
			<trkpt lat="45.642350" lon="2.089930">
			 <ele>905</ele>
			<time>2016-06-11T20:05:45Z</time>
			</trkpt>
		
			<trkpt lat="45.642300" lon="2.090010">
			 <ele>904</ele>
			<time>2016-06-11T20:07:45Z</time>
			</trkpt>
		
			<trkpt lat="45.642240" lon="2.090120">
			 <ele>903</ele>
			<time>2016-06-11T20:09:45Z</time>
			</trkpt>
		
			<trkpt lat="45.642170" lon="2.090260">
			 <ele>902</ele>
			<time>2016-06-11T20:11:45Z</time>
			</trkpt>
		
			<trkpt lat="45.642120" lon="2.090400">
			 <ele>900</ele>
			<time>2016-06-11T20:13:45Z</time>
			</trkpt>
		
			<trkpt lat="45.642070" lon="2.090540">
			 <ele>899</ele>
			<time>2016-06-11T20:15:45Z</time>
			</trkpt>
		
			<trkpt lat="45.642030" lon="2.090670">
			 <ele>898</ele>
			<time>2016-06-11T20:17:45Z</time>
			</trkpt>
		
			<trkpt lat="45.642010" lon="2.090770">
			 <ele>897</ele>
			<time>2016-06-11T20:19:45Z</time>
			</trkpt>
		
			<trkpt lat="45.642000" lon="2.090830">
			 <ele>897</ele>
			<time>2016-06-11T20:21:45Z</time>
			</trkpt>
		
			<trkpt lat="45.641990" lon="2.090910">
			 <ele>897</ele>
			<time>2016-06-11T20:23:45Z</time>
			</trkpt>
		
			<trkpt lat="45.641980" lon="2.091000">
			 <ele>897</ele>
			<time>2016-06-11T20:25:45Z</time>
			</trkpt>
		
			<trkpt lat="45.641990" lon="2.091080">
			 <ele>897</ele>
			<time>2016-06-11T20:27:45Z</time>
			</trkpt>
		
			<trkpt lat="45.642000" lon="2.091240">
			 <ele>897</ele>
			<time>2016-06-11T20:29:45Z</time>
			</trkpt>
		
			<trkpt lat="45.642010" lon="2.091320">
			 <ele>897</ele>
			<time>2016-06-11T20:31:45Z</time>
			</trkpt>
		
			<trkpt lat="45.642020" lon="2.091400">
			 <ele>898</ele>
			<time>2016-06-11T20:33:45Z</time>
			</trkpt>
		
			<trkpt lat="45.642030" lon="2.091490">
			 <ele>898</ele>
			<time>2016-06-11T20:35:45Z</time>
			</trkpt>
		
			<trkpt lat="45.642060" lon="2.091610">
			 <ele>898</ele>
			<time>2016-06-11T20:37:45Z</time>
			</trkpt>
		
			<trkpt lat="45.642090" lon="2.091710">
			 <ele>898</ele>
			<time>2016-06-11T20:39:45Z</time>
			</trkpt>
		
			<trkpt lat="45.642110" lon="2.091830">
			 <ele>899</ele>
			<time>2016-06-11T20:41:45Z</time>
			</trkpt>
		
			<trkpt lat="45.642140" lon="2.091970">
			 <ele>899</ele>
			<time>2016-06-11T20:43:45Z</time>
			</trkpt>
		
			<trkpt lat="45.642180" lon="2.092100">
			 <ele>900</ele>
			<time>2016-06-11T20:45:45Z</time>
			</trkpt>
		
			<trkpt lat="45.642260" lon="2.092470">
			 <ele>902</ele>
			<time>2016-06-11T20:47:45Z</time>
			</trkpt>
		
			<trkpt lat="45.642390" lon="2.093060">
			 <ele>907</ele>
			<time>2016-06-11T20:49:45Z</time>
			</trkpt>
		
			<trkpt lat="45.642430" lon="2.093240">
			 <ele>908</ele>
			<time>2016-06-11T20:51:45Z</time>
			</trkpt>
		
			<trkpt lat="45.642510" lon="2.093670">
			 <ele>910</ele>
			<time>2016-06-11T20:53:45Z</time>
			</trkpt>
		
			<trkpt lat="45.642680" lon="2.094520">
			 <ele>914</ele>
			<time>2016-06-11T20:55:45Z</time>
			</trkpt>
		
			<trkpt lat="45.642680" lon="2.094520">
			 <ele>914</ele>
			<time>2016-06-11T20:57:45Z</time>
			</trkpt>
		
			<trkpt lat="45.643500" lon="2.094140">
			 <ele>918</ele>
			<time>2016-06-11T20:59:45Z</time>
			</trkpt>
		
			<trkpt lat="45.643810" lon="2.093980">
			 <ele>920</ele>
			<time>2016-06-11T21:01:45Z</time>
			</trkpt>
		
			<trkpt lat="45.644410" lon="2.093680">
			 <ele>925</ele>
			<time>2016-06-11T21:03:45Z</time>
			</trkpt>
		
			<trkpt lat="45.644880" lon="2.093420">
			 <ele>928</ele>
			<time>2016-06-11T21:05:45Z</time>
			</trkpt>
		
			<trkpt lat="45.645360" lon="2.093160">
			 <ele>929</ele>
			<time>2016-06-11T21:07:45Z</time>
			</trkpt>
		
			<trkpt lat="45.645620" lon="2.093030">
			 <ele>930</ele>
			<time>2016-06-11T21:09:45Z</time>
			</trkpt>
		
			<trkpt lat="45.645870" lon="2.092890">
			 <ele>930</ele>
			<time>2016-06-11T21:11:45Z</time>
			</trkpt>
		
			<trkpt lat="45.645980" lon="2.092830">
			 <ele>929</ele>
			<time>2016-06-11T21:13:45Z</time>
			</trkpt>
		
			<trkpt lat="45.646110" lon="2.092770">
			 <ele>929</ele>
			<time>2016-06-11T21:15:45Z</time>
			</trkpt>
		
			<trkpt lat="45.646190" lon="2.092740">
			 <ele>928</ele>
			<time>2016-06-11T21:17:45Z</time>
			</trkpt>
		
			<trkpt lat="45.646300" lon="2.092680">
			 <ele>928</ele>
			<time>2016-06-11T21:19:45Z</time>
			</trkpt>
		
			<trkpt lat="45.646410" lon="2.092650">
			 <ele>928</ele>
			<time>2016-06-11T21:21:45Z</time>
			</trkpt>
		
			<trkpt lat="45.646490" lon="2.092630">
			 <ele>928</ele>
			<time>2016-06-11T21:23:45Z</time>
			</trkpt>
		
			<trkpt lat="45.646550" lon="2.092620">
			 <ele>928</ele>
			<time>2016-06-11T21:25:45Z</time>
			</trkpt>
		
			<trkpt lat="45.646620" lon="2.092620">
			 <ele>928</ele>
			<time>2016-06-11T21:27:45Z</time>
			</trkpt>
		
			<trkpt lat="45.646710" lon="2.092610">
			 <ele>928</ele>
			<time>2016-06-11T21:29:45Z</time>
			</trkpt>
		
			<trkpt lat="45.646910" lon="2.092610">
			 <ele>927</ele>
			<time>2016-06-11T21:31:45Z</time>
			</trkpt>
		
			<trkpt lat="45.647090" lon="2.092630">
			 <ele>926</ele>
			<time>2016-06-11T21:33:45Z</time>
			</trkpt>
		
			<trkpt lat="45.647270" lon="2.092650">
			 <ele>926</ele>
			<time>2016-06-11T21:35:45Z</time>
			</trkpt>
		
			<trkpt lat="45.647600" lon="2.092710">
			 <ele>925</ele>
			<time>2016-06-11T21:37:45Z</time>
			</trkpt>
		
			<trkpt lat="45.647680" lon="2.092730">
			 <ele>925</ele>
			<time>2016-06-11T21:39:45Z</time>
			</trkpt>
		
			<trkpt lat="45.647740" lon="2.092750">
			 <ele>925</ele>
			<time>2016-06-11T21:41:45Z</time>
			</trkpt>
		
			<trkpt lat="45.648550" lon="2.092910">
			 <ele>925</ele>
			<time>2016-06-11T21:43:45Z</time>
			</trkpt>
		
			<trkpt lat="45.648960" lon="2.092990">
			 <ele>925</ele>
			<time>2016-06-11T21:45:45Z</time>
			</trkpt>
		
			<trkpt lat="45.649710" lon="2.093150">
			 <ele>924</ele>
			<time>2016-06-11T21:47:45Z</time>
			</trkpt>
		
			<trkpt lat="45.650500" lon="2.093280">
			 <ele>921</ele>
			<time>2016-06-11T21:49:45Z</time>
			</trkpt>
		
			<trkpt lat="45.651650" lon="2.093520">
			 <ele>912</ele>
			<time>2016-06-11T21:51:45Z</time>
			</trkpt>
		
			<trkpt lat="45.652530" lon="2.093720">
			 <ele>907</ele>
			<time>2016-06-11T21:53:45Z</time>
			</trkpt>
		
			<trkpt lat="45.653060" lon="2.093820">
			 <ele>904</ele>
			<time>2016-06-11T21:55:45Z</time>
			</trkpt>
		
			<trkpt lat="45.653560" lon="2.093930">
			 <ele>900</ele>
			<time>2016-06-11T21:57:45Z</time>
			</trkpt>
		
			<trkpt lat="45.654120" lon="2.094030">
			 <ele>894</ele>
			<time>2016-06-11T21:59:45Z</time>
			</trkpt>
		
			<trkpt lat="45.654760" lon="2.094160">
			 <ele>895</ele>
			<time>2016-06-11T22:01:45Z</time>
			</trkpt>
		
			<trkpt lat="45.654850" lon="2.094180">
			 <ele>896</ele>
			<time>2016-06-11T22:03:45Z</time>
			</trkpt>
		
			<trkpt lat="45.655430" lon="2.094290">
			 <ele>897</ele>
			<time>2016-06-11T22:05:45Z</time>
			</trkpt>
		
			<trkpt lat="45.655870" lon="2.094380">
			 <ele>897</ele>
			<time>2016-06-11T22:07:45Z</time>
			</trkpt>
		
			<trkpt lat="45.656090" lon="2.094430">
			 <ele>898</ele>
			<time>2016-06-11T22:09:45Z</time>
			</trkpt>
		
			<trkpt lat="45.656940" lon="2.094600">
			 <ele>899</ele>
			<time>2016-06-11T22:11:45Z</time>
			</trkpt>
		
			<trkpt lat="45.658310" lon="2.094860">
			 <ele>897</ele>
			<time>2016-06-11T22:13:45Z</time>
			</trkpt>
		
			<trkpt lat="45.658590" lon="2.094920">
			 <ele>896</ele>
			<time>2016-06-11T22:15:45Z</time>
			</trkpt>
		
			<trkpt lat="45.658850" lon="2.094980">
			 <ele>895</ele>
			<time>2016-06-11T22:17:45Z</time>
			</trkpt>
		
			<trkpt lat="45.659500" lon="2.095100">
			 <ele>895</ele>
			<time>2016-06-11T22:19:45Z</time>
			</trkpt>
		
			<trkpt lat="45.659930" lon="2.095200">
			 <ele>897</ele>
			<time>2016-06-11T22:21:45Z</time>
			</trkpt>
		
			<trkpt lat="45.660720" lon="2.095340">
			 <ele>900</ele>
			<time>2016-06-11T22:23:45Z</time>
			</trkpt>
		
			<trkpt lat="45.661160" lon="2.095420">
			 <ele>902</ele>
			<time>2016-06-11T22:25:45Z</time>
			</trkpt>
		
			<trkpt lat="45.661860" lon="2.095590">
			 <ele>905</ele>
			<time>2016-06-11T22:27:45Z</time>
			</trkpt>
		
			<trkpt lat="45.662420" lon="2.095690">
			 <ele>905</ele>
			<time>2016-06-11T22:29:45Z</time>
			</trkpt>
		
			<trkpt lat="45.663280" lon="2.095850">
			 <ele>907</ele>
			<time>2016-06-11T22:31:45Z</time>
			</trkpt>
		
			<trkpt lat="45.664240" lon="2.096060">
			 <ele>907</ele>
			<time>2016-06-11T22:33:45Z</time>
			</trkpt>
		
			<trkpt lat="45.664770" lon="2.096170">
			 <ele>908</ele>
			<time>2016-06-11T22:35:45Z</time>
			</trkpt>
		
			<trkpt lat="45.665730" lon="2.096370">
			 <ele>909</ele>
			<time>2016-06-11T22:37:45Z</time>
			</trkpt>
		
			<trkpt lat="45.666060" lon="2.096430">
			 <ele>909</ele>
			<time>2016-06-11T22:39:45Z</time>
			</trkpt>
		
			<trkpt lat="45.666250" lon="2.096470">
			 <ele>909</ele>
			<time>2016-06-11T22:41:45Z</time>
			</trkpt>
		
			<trkpt lat="45.666570" lon="2.096540">
			 <ele>909</ele>
			<time>2016-06-11T22:43:45Z</time>
			</trkpt>
		
			<trkpt lat="45.666580" lon="2.096540">
			 <ele>909</ele>
			<time>2016-06-11T22:45:45Z</time>
			</trkpt>
		
			<trkpt lat="45.666620" lon="2.096580">
			 <ele>909</ele>
			<time>2016-06-11T22:47:45Z</time>
			</trkpt>
		
			<trkpt lat="45.667540" lon="2.096810">
			 <ele>908</ele>
			<time>2016-06-11T22:49:45Z</time>
			</trkpt>
		
			<trkpt lat="45.668310" lon="2.096940">
			 <ele>911</ele>
			<time>2016-06-11T22:51:45Z</time>
			</trkpt>
		
			<trkpt lat="45.668460" lon="2.096910">
			 <ele>911</ele>
			<time>2016-06-11T22:53:45Z</time>
			</trkpt>
		
			<trkpt lat="45.668660" lon="2.096930">
			 <ele>913</ele>
			<time>2016-06-11T22:55:45Z</time>
			</trkpt>
		
			<trkpt lat="45.668800" lon="2.096910">
			 <ele>913</ele>
			<time>2016-06-11T22:57:45Z</time>
			</trkpt>
		
			<trkpt lat="45.668930" lon="2.096870">
			 <ele>914</ele>
			<time>2016-06-11T22:59:45Z</time>
			</trkpt>
		
			<trkpt lat="45.669070" lon="2.096800">
			 <ele>914</ele>
			<time>2016-06-11T23:01:45Z</time>
			</trkpt>
		
			<trkpt lat="45.669300" lon="2.096630">
			 <ele>915</ele>
			<time>2016-06-11T23:03:45Z</time>
			</trkpt>
		
			<trkpt lat="45.670110" lon="2.096060">
			 <ele>918</ele>
			<time>2016-06-11T23:05:45Z</time>
			</trkpt>
		
			<trkpt lat="45.670690" lon="2.095640">
			 <ele>922</ele>
			<time>2016-06-11T23:07:45Z</time>
			</trkpt>
		
			<trkpt lat="45.670890" lon="2.095490">
			 <ele>923</ele>
			<time>2016-06-11T23:09:45Z</time>
			</trkpt>
		
			<trkpt lat="45.671090" lon="2.095370">
			 <ele>924</ele>
			<time>2016-06-11T23:11:45Z</time>
			</trkpt>
		
			<trkpt lat="45.671220" lon="2.095300">
			 <ele>925</ele>
			<time>2016-06-11T23:13:45Z</time>
			</trkpt>
		
			<trkpt lat="45.671370" lon="2.095230">
			 <ele>926</ele>
			<time>2016-06-11T23:15:45Z</time>
			</trkpt>
		
			<trkpt lat="45.671420" lon="2.095220">
			 <ele>926</ele>
			<time>2016-06-11T23:17:45Z</time>
			</trkpt>
		
			<trkpt lat="45.671570" lon="2.095180">
			 <ele>927</ele>
			<time>2016-06-11T23:19:45Z</time>
			</trkpt>
		
			<trkpt lat="45.671740" lon="2.095170">
			 <ele>929</ele>
			<time>2016-06-11T23:21:45Z</time>
			</trkpt>
		
			<trkpt lat="45.671870" lon="2.095170">
			 <ele>929</ele>
			<time>2016-06-11T23:23:45Z</time>
			</trkpt>
		
			<trkpt lat="45.672050" lon="2.095200">
			 <ele>930</ele>
			<time>2016-06-11T23:25:45Z</time>
			</trkpt>
		
			<trkpt lat="45.672250" lon="2.095260">
			 <ele>931</ele>
			<time>2016-06-11T23:27:45Z</time>
			</trkpt>
		
			<trkpt lat="45.672430" lon="2.095340">
			 <ele>933</ele>
			<time>2016-06-11T23:29:45Z</time>
			</trkpt>
		
			<trkpt lat="45.672570" lon="2.095440">
			 <ele>933</ele>
			<time>2016-06-11T23:31:45Z</time>
			</trkpt>
		
			<trkpt lat="45.672750" lon="2.095590">
			 <ele>934</ele>
			<time>2016-06-11T23:33:45Z</time>
			</trkpt>
		
			<trkpt lat="45.672920" lon="2.095770">
			 <ele>934</ele>
			<time>2016-06-11T23:35:45Z</time>
			</trkpt>
		
			<trkpt lat="45.673060" lon="2.095950">
			 <ele>934</ele>
			<time>2016-06-11T23:37:45Z</time>
			</trkpt>
		
			<trkpt lat="45.673190" lon="2.096170">
			 <ele>934</ele>
			<time>2016-06-11T23:39:45Z</time>
			</trkpt>
		
			<trkpt lat="45.673280" lon="2.096360">
			 <ele>934</ele>
			<time>2016-06-11T23:41:45Z</time>
			</trkpt>
		
			<trkpt lat="45.673340" lon="2.096500">
			 <ele>934</ele>
			<time>2016-06-11T23:43:45Z</time>
			</trkpt>
		
			<trkpt lat="45.673360" lon="2.096540">
			 <ele>934</ele>
			<time>2016-06-11T23:45:45Z</time>
			</trkpt>
		
			<trkpt lat="45.673400" lon="2.096620">
			 <ele>933</ele>
			<time>2016-06-11T23:47:45Z</time>
			</trkpt>
		
			<trkpt lat="45.673520" lon="2.096940">
			 <ele>932</ele>
			<time>2016-06-11T23:49:45Z</time>
			</trkpt>
		
			<trkpt lat="45.673670" lon="2.097360">
			 <ele>932</ele>
			<time>2016-06-11T23:51:45Z</time>
			</trkpt>
		
			<trkpt lat="45.673810" lon="2.097700">
			 <ele>934</ele>
			<time>2016-06-11T23:53:45Z</time>
			</trkpt>
		
			<trkpt lat="45.673960" lon="2.098050">
			 <ele>936</ele>
			<time>2016-06-11T23:55:45Z</time>
			</trkpt>
		
			<trkpt lat="45.674110" lon="2.098340">
			 <ele>937</ele>
			<time>2016-06-11T23:57:45Z</time>
			</trkpt>
		
			<trkpt lat="45.674270" lon="2.098590">
			 <ele>939</ele>
			<time>2016-06-11T23:59:45Z</time>
			</trkpt>
		
			<trkpt lat="45.674460" lon="2.098850">
			 <ele>940</ele>
			<time>2016-06-12T00:01:45Z</time>
			</trkpt>
		
			<trkpt lat="45.674590" lon="2.099000">
			 <ele>940</ele>
			<time>2016-06-12T00:03:45Z</time>
			</trkpt>
		
			<trkpt lat="45.674630" lon="2.099060">
			 <ele>940</ele>
			<time>2016-06-12T00:05:45Z</time>
			</trkpt>
		
			<trkpt lat="45.674730" lon="2.099150">
			 <ele>940</ele>
			<time>2016-06-12T00:07:45Z</time>
			</trkpt>
		
			<trkpt lat="45.674860" lon="2.099250">
			 <ele>939</ele>
			<time>2016-06-12T00:09:45Z</time>
			</trkpt>
		
			<trkpt lat="45.675020" lon="2.099350">
			 <ele>938</ele>
			<time>2016-06-12T00:11:45Z</time>
			</trkpt>
		
			<trkpt lat="45.675200" lon="2.099440">
			 <ele>939</ele>
			<time>2016-06-12T00:13:45Z</time>
			</trkpt>
		
			<trkpt lat="45.675540" lon="2.099580">
			 <ele>940</ele>
			<time>2016-06-12T00:15:45Z</time>
			</trkpt>
		
			<trkpt lat="45.675950" lon="2.099740">
			 <ele>941</ele>
			<time>2016-06-12T00:17:45Z</time>
			</trkpt>
		
			<trkpt lat="45.676610" lon="2.100000">
			 <ele>940</ele>
			<time>2016-06-12T00:19:45Z</time>
			</trkpt>
		
			<trkpt lat="45.677180" lon="2.100230">
			 <ele>940</ele>
			<time>2016-06-12T00:21:45Z</time>
			</trkpt>
		
			<trkpt lat="45.677570" lon="2.100390">
			 <ele>939</ele>
			<time>2016-06-12T00:23:45Z</time>
			</trkpt>
		
			<trkpt lat="45.678110" lon="2.100610">
			 <ele>937</ele>
			<time>2016-06-12T00:25:45Z</time>
			</trkpt>
		
			<trkpt lat="45.678450" lon="2.100740">
			 <ele>936</ele>
			<time>2016-06-12T00:27:45Z</time>
			</trkpt>
		
			<trkpt lat="45.679740" lon="2.101240">
			 <ele>928</ele>
			<time>2016-06-12T00:29:45Z</time>
			</trkpt>
		
			<trkpt lat="45.679910" lon="2.101310">
			 <ele>927</ele>
			<time>2016-06-12T00:31:45Z</time>
			</trkpt>
		
			<trkpt lat="45.680040" lon="2.101340">
			 <ele>926</ele>
			<time>2016-06-12T00:33:45Z</time>
			</trkpt>
		
			<trkpt lat="45.680120" lon="2.101360">
			 <ele>926</ele>
			<time>2016-06-12T00:35:45Z</time>
			</trkpt>
		
			<trkpt lat="45.680290" lon="2.101380">
			 <ele>925</ele>
			<time>2016-06-12T00:37:45Z</time>
			</trkpt>
		
			<trkpt lat="45.680360" lon="2.101390">
			 <ele>925</ele>
			<time>2016-06-12T00:39:45Z</time>
			</trkpt>
		
			<trkpt lat="45.680430" lon="2.101390">
			 <ele>925</ele>
			<time>2016-06-12T00:41:45Z</time>
			</trkpt>
		
			<trkpt lat="45.680700" lon="2.101320">
			 <ele>924</ele>
			<time>2016-06-12T00:43:45Z</time>
			</trkpt>
		
			<trkpt lat="45.680770" lon="2.101310">
			 <ele>924</ele>
			<time>2016-06-12T00:45:45Z</time>
			</trkpt>
		
			<trkpt lat="45.681120" lon="2.101200">
			 <ele>925</ele>
			<time>2016-06-12T00:47:45Z</time>
			</trkpt>
		
			<trkpt lat="45.681190" lon="2.101180">
			 <ele>925</ele>
			<time>2016-06-12T00:49:45Z</time>
			</trkpt>
		
			<trkpt lat="45.682150" lon="2.100890">
			 <ele>928</ele>
			<time>2016-06-12T00:51:45Z</time>
			</trkpt>
		
			<trkpt lat="45.682400" lon="2.100810">
			 <ele>929</ele>
			<time>2016-06-12T00:53:45Z</time>
			</trkpt>
		
			<trkpt lat="45.682660" lon="2.100720">
			 <ele>928</ele>
			<time>2016-06-12T00:55:45Z</time>
			</trkpt>
		
			<trkpt lat="45.682940" lon="2.100670">
			 <ele>927</ele>
			<time>2016-06-12T00:57:45Z</time>
			</trkpt>
		
			<trkpt lat="45.683100" lon="2.100650">
			 <ele>926</ele>
			<time>2016-06-12T00:59:45Z</time>
			</trkpt>
		
			<trkpt lat="45.683240" lon="2.100680">
			 <ele>926</ele>
			<time>2016-06-12T01:01:45Z</time>
			</trkpt>
		
			<trkpt lat="45.683420" lon="2.100770">
			 <ele>926</ele>
			<time>2016-06-12T01:03:45Z</time>
			</trkpt>
		
			<trkpt lat="45.683780" lon="2.100970">
			 <ele>925</ele>
			<time>2016-06-12T01:05:45Z</time>
			</trkpt>
		
			<trkpt lat="45.684140" lon="2.101180">
			 <ele>924</ele>
			<time>2016-06-12T01:07:45Z</time>
			</trkpt>
		
			<trkpt lat="45.684720" lon="2.101530">
			 <ele>922</ele>
			<time>2016-06-12T01:09:45Z</time>
			</trkpt>
		
			<trkpt lat="45.684990" lon="2.101680">
			 <ele>920</ele>
			<time>2016-06-12T01:11:45Z</time>
			</trkpt>
		
			<trkpt lat="45.685120" lon="2.101760">
			 <ele>920</ele>
			<time>2016-06-12T01:13:45Z</time>
			</trkpt>
		
			<trkpt lat="45.685430" lon="2.101850">
			 <ele>918</ele>
			<time>2016-06-12T01:15:45Z</time>
			</trkpt>
		
			<trkpt lat="45.685580" lon="2.101880">
			 <ele>917</ele>
			<time>2016-06-12T01:17:45Z</time>
			</trkpt>
		
			<trkpt lat="45.685940" lon="2.101900">
			 <ele>915</ele>
			<time>2016-06-12T01:19:45Z</time>
			</trkpt>
		
			<trkpt lat="45.686090" lon="2.101900">
			 <ele>913</ele>
			<time>2016-06-12T01:21:45Z</time>
			</trkpt>
		
			<trkpt lat="45.686200" lon="2.101890">
			 <ele>912</ele>
			<time>2016-06-12T01:23:45Z</time>
			</trkpt>
		
			<trkpt lat="45.686280" lon="2.101870">
			 <ele>911</ele>
			<time>2016-06-12T01:25:45Z</time>
			</trkpt>
		
			<trkpt lat="45.686410" lon="2.101840">
			 <ele>909</ele>
			<time>2016-06-12T01:27:45Z</time>
			</trkpt>
		
			<trkpt lat="45.686750" lon="2.101720">
			 <ele>905</ele>
			<time>2016-06-12T01:29:45Z</time>
			</trkpt>
		
			<trkpt lat="45.687060" lon="2.101600">
			 <ele>902</ele>
			<time>2016-06-12T01:31:45Z</time>
			</trkpt>
		
			<trkpt lat="45.688150" lon="2.101180">
			 <ele>894</ele>
			<time>2016-06-12T01:33:45Z</time>
			</trkpt>
		
			<trkpt lat="45.688460" lon="2.101060">
			 <ele>892</ele>
			<time>2016-06-12T01:35:45Z</time>
			</trkpt>
		
			<trkpt lat="45.688730" lon="2.100970">
			 <ele>890</ele>
			<time>2016-06-12T01:37:45Z</time>
			</trkpt>
		
			<trkpt lat="45.688830" lon="2.100940">
			 <ele>889</ele>
			<time>2016-06-12T01:39:45Z</time>
			</trkpt>
		
			<trkpt lat="45.688890" lon="2.100930">
			 <ele>889</ele>
			<time>2016-06-12T01:41:45Z</time>
			</trkpt>
		
			<trkpt lat="45.688960" lon="2.100920">
			 <ele>888</ele>
			<time>2016-06-12T01:43:45Z</time>
			</trkpt>
		
			<trkpt lat="45.689030" lon="2.100930">
			 <ele>888</ele>
			<time>2016-06-12T01:45:45Z</time>
			</trkpt>
		
			<trkpt lat="45.689120" lon="2.100940">
			 <ele>888</ele>
			<time>2016-06-12T01:47:45Z</time>
			</trkpt>
		
			<trkpt lat="45.689130" lon="2.100940">
			 <ele>888</ele>
			<time>2016-06-12T01:49:45Z</time>
			</trkpt>
		
			<trkpt lat="45.689240" lon="2.100980">
			 <ele>888</ele>
			<time>2016-06-12T01:51:45Z</time>
			</trkpt>
		
			<trkpt lat="45.689350" lon="2.101020">
			 <ele>887</ele>
			<time>2016-06-12T01:53:45Z</time>
			</trkpt>
		
			<trkpt lat="45.689510" lon="2.101080">
			 <ele>887</ele>
			<time>2016-06-12T01:55:45Z</time>
			</trkpt>
		
			<trkpt lat="45.689670" lon="2.101160">
			 <ele>886</ele>
			<time>2016-06-12T01:57:45Z</time>
			</trkpt>
		
			<trkpt lat="45.689720" lon="2.101180">
			 <ele>886</ele>
			<time>2016-06-12T01:59:45Z</time>
			</trkpt>
		
			<trkpt lat="45.689800" lon="2.101220">
			 <ele>885</ele>
			<time>2016-06-12T02:01:45Z</time>
			</trkpt>
		
			<trkpt lat="45.689910" lon="2.101300">
			 <ele>885</ele>
			<time>2016-06-12T02:03:45Z</time>
			</trkpt>
		
			<trkpt lat="45.690010" lon="2.101380">
			 <ele>885</ele>
			<time>2016-06-12T02:05:45Z</time>
			</trkpt>
		
			<trkpt lat="45.690090" lon="2.101470">
			 <ele>884</ele>
			<time>2016-06-12T02:07:45Z</time>
			</trkpt>
		
			<trkpt lat="45.690150" lon="2.101530">
			 <ele>884</ele>
			<time>2016-06-12T02:09:45Z</time>
			</trkpt>
		
			<trkpt lat="45.690200" lon="2.101600">
			 <ele>884</ele>
			<time>2016-06-12T02:11:45Z</time>
			</trkpt>
		
			<trkpt lat="45.690250" lon="2.101690">
			 <ele>884</ele>
			<time>2016-06-12T02:13:45Z</time>
			</trkpt>
		
			<trkpt lat="45.690310" lon="2.101790">
			 <ele>884</ele>
			<time>2016-06-12T02:15:45Z</time>
			</trkpt>
		
			<trkpt lat="45.690370" lon="2.101970">
			 <ele>884</ele>
			<time>2016-06-12T02:17:45Z</time>
			</trkpt>
		
			<trkpt lat="45.690410" lon="2.102100">
			 <ele>885</ele>
			<time>2016-06-12T02:19:45Z</time>
			</trkpt>
		
			<trkpt lat="45.690470" lon="2.102330">
			 <ele>885</ele>
			<time>2016-06-12T02:21:45Z</time>
			</trkpt>
		
			<trkpt lat="45.690500" lon="2.102530">
			 <ele>886</ele>
			<time>2016-06-12T02:23:45Z</time>
			</trkpt>
		
			<trkpt lat="45.690520" lon="2.102620">
			 <ele>885</ele>
			<time>2016-06-12T02:25:45Z</time>
			</trkpt>
		
			<trkpt lat="45.690540" lon="2.102740">
			 <ele>885</ele>
			<time>2016-06-12T02:27:45Z</time>
			</trkpt>
		
			<trkpt lat="45.690580" lon="2.102970">
			 <ele>885</ele>
			<time>2016-06-12T02:29:45Z</time>
			</trkpt>
		
			<trkpt lat="45.690610" lon="2.103150">
			 <ele>884</ele>
			<time>2016-06-12T02:31:45Z</time>
			</trkpt>
		
			<trkpt lat="45.690660" lon="2.103360">
			 <ele>883</ele>
			<time>2016-06-12T02:33:45Z</time>
			</trkpt>
		
			<trkpt lat="45.690690" lon="2.103450">
			 <ele>882</ele>
			<time>2016-06-12T02:35:45Z</time>
			</trkpt>
		
			<trkpt lat="45.690720" lon="2.103560">
			 <ele>881</ele>
			<time>2016-06-12T02:37:45Z</time>
			</trkpt>
		
			<trkpt lat="45.690770" lon="2.103660">
			 <ele>880</ele>
			<time>2016-06-12T02:39:45Z</time>
			</trkpt>
		
			<trkpt lat="45.690820" lon="2.103770">
			 <ele>879</ele>
			<time>2016-06-12T02:41:45Z</time>
			</trkpt>
		
			<trkpt lat="45.690900" lon="2.103900">
			 <ele>878</ele>
			<time>2016-06-12T02:43:45Z</time>
			</trkpt>
		
			<trkpt lat="45.691010" lon="2.104040">
			 <ele>876</ele>
			<time>2016-06-12T02:45:45Z</time>
			</trkpt>
		
			<trkpt lat="45.691110" lon="2.104140">
			 <ele>876</ele>
			<time>2016-06-12T02:47:45Z</time>
			</trkpt>
		
			<trkpt lat="45.691200" lon="2.104220">
			 <ele>876</ele>
			<time>2016-06-12T02:49:45Z</time>
			</trkpt>
		
			<trkpt lat="45.691380" lon="2.104320">
			 <ele>875</ele>
			<time>2016-06-12T02:51:45Z</time>
			</trkpt>
		
			<trkpt lat="45.691480" lon="2.104360">
			 <ele>875</ele>
			<time>2016-06-12T02:53:45Z</time>
			</trkpt>
		
			<trkpt lat="45.692240" lon="2.104490">
			 <ele>871</ele>
			<time>2016-06-12T02:55:45Z</time>
			</trkpt>
		
			<trkpt lat="45.692390" lon="2.104510">
			 <ele>870</ele>
			<time>2016-06-12T02:57:45Z</time>
			</trkpt>
		
			<trkpt lat="45.692420" lon="2.104520">
			 <ele>870</ele>
			<time>2016-06-12T02:59:45Z</time>
			</trkpt>
		
			<trkpt lat="45.692580" lon="2.104550">
			 <ele>869</ele>
			<time>2016-06-12T03:01:45Z</time>
			</trkpt>
		
			<trkpt lat="45.693370" lon="2.104680">
			 <ele>866</ele>
			<time>2016-06-12T03:03:45Z</time>
			</trkpt>
		
			<trkpt lat="45.693690" lon="2.104740">
			 <ele>866</ele>
			<time>2016-06-12T03:05:45Z</time>
			</trkpt>
		
			<trkpt lat="45.693770" lon="2.104760">
			 <ele>866</ele>
			<time>2016-06-12T03:07:45Z</time>
			</trkpt>
		
			<trkpt lat="45.693970" lon="2.104820">
			 <ele>866</ele>
			<time>2016-06-12T03:09:45Z</time>
			</trkpt>
		
			<trkpt lat="45.694080" lon="2.104870">
			 <ele>866</ele>
			<time>2016-06-12T03:11:45Z</time>
			</trkpt>
		
			<trkpt lat="45.694200" lon="2.104940">
			 <ele>867</ele>
			<time>2016-06-12T03:13:45Z</time>
			</trkpt>
		
			<trkpt lat="45.694270" lon="2.104990">
			 <ele>867</ele>
			<time>2016-06-12T03:15:45Z</time>
			</trkpt>
		
			<trkpt lat="45.694400" lon="2.105090">
			 <ele>866</ele>
			<time>2016-06-12T03:17:45Z</time>
			</trkpt>
		
			<trkpt lat="45.694470" lon="2.105140">
			 <ele>865</ele>
			<time>2016-06-12T03:19:45Z</time>
			</trkpt>
		
			<trkpt lat="45.694580" lon="2.105240">
			 <ele>865</ele>
			<time>2016-06-12T03:21:45Z</time>
			</trkpt>
		
			<trkpt lat="45.694670" lon="2.105340">
			 <ele>865</ele>
			<time>2016-06-12T03:23:45Z</time>
			</trkpt>
		
			<trkpt lat="45.694790" lon="2.105470">
			 <ele>865</ele>
			<time>2016-06-12T03:25:45Z</time>
			</trkpt>
		
			<trkpt lat="45.695360" lon="2.106080">
			 <ele>864</ele>
			<time>2016-06-12T03:27:45Z</time>
			</trkpt>
		
			<trkpt lat="45.696000" lon="2.106790">
			 <ele>862</ele>
			<time>2016-06-12T03:29:45Z</time>
			</trkpt>
		
			<trkpt lat="45.696020" lon="2.106810">
			 <ele>861</ele>
			<time>2016-06-12T03:31:45Z</time>
			</trkpt>
		
			<trkpt lat="45.696260" lon="2.107070">
			 <ele>860</ele>
			<time>2016-06-12T03:33:45Z</time>
			</trkpt>
		
			<trkpt lat="45.696650" lon="2.107490">
			 <ele>857</ele>
			<time>2016-06-12T03:35:45Z</time>
			</trkpt>
		
			<trkpt lat="45.696960" lon="2.107820">
			 <ele>857</ele>
			<time>2016-06-12T03:37:45Z</time>
			</trkpt>
		
			<trkpt lat="45.697320" lon="2.108200">
			 <ele>858</ele>
			<time>2016-06-12T03:39:45Z</time>
			</trkpt>
		
			<trkpt lat="45.697630" lon="2.108540">
			 <ele>860</ele>
			<time>2016-06-12T03:41:45Z</time>
			</trkpt>
		
			<trkpt lat="45.697960" lon="2.108900">
			 <ele>863</ele>
			<time>2016-06-12T03:43:45Z</time>
			</trkpt>
		
			<trkpt lat="45.698200" lon="2.109170">
			 <ele>866</ele>
			<time>2016-06-12T03:45:45Z</time>
			</trkpt>
		
			<trkpt lat="45.698630" lon="2.109620">
			 <ele>868</ele>
			<time>2016-06-12T03:47:45Z</time>
			</trkpt>
		
			<trkpt lat="45.698910" lon="2.109910">
			 <ele>867</ele>
			<time>2016-06-12T03:49:45Z</time>
			</trkpt>
		
			<trkpt lat="45.699010" lon="2.110010">
			 <ele>867</ele>
			<time>2016-06-12T03:51:45Z</time>
			</trkpt>
		
			<trkpt lat="45.699120" lon="2.110090">
			 <ele>868</ele>
			<time>2016-06-12T03:53:45Z</time>
			</trkpt>
		
			<trkpt lat="45.699250" lon="2.110160">
			 <ele>868</ele>
			<time>2016-06-12T03:55:45Z</time>
			</trkpt>
		
			<trkpt lat="45.699380" lon="2.110230">
			 <ele>869</ele>
			<time>2016-06-12T03:57:45Z</time>
			</trkpt>
		
			<trkpt lat="45.699570" lon="2.110310">
			 <ele>869</ele>
			<time>2016-06-12T03:59:45Z</time>
			</trkpt>
		
			<trkpt lat="45.699960" lon="2.110460">
			 <ele>869</ele>
			<time>2016-06-12T04:01:45Z</time>
			</trkpt>
		
			<trkpt lat="45.700810" lon="2.110800">
			 <ele>866</ele>
			<time>2016-06-12T04:03:45Z</time>
			</trkpt>
		
			<trkpt lat="45.701840" lon="2.111220">
			 <ele>867</ele>
			<time>2016-06-12T04:05:45Z</time>
			</trkpt>
		
			<trkpt lat="45.702470" lon="2.111490">
			 <ele>869</ele>
			<time>2016-06-12T04:07:45Z</time>
			</trkpt>
		
			<trkpt lat="45.704320" lon="2.112230">
			 <ele>869</ele>
			<time>2016-06-12T04:09:45Z</time>
			</trkpt>
		
			<trkpt lat="45.705240" lon="2.112600">
			 <ele>871</ele>
			<time>2016-06-12T04:11:45Z</time>
			</trkpt>
		
			<trkpt lat="45.705610" lon="2.112760">
			 <ele>871</ele>
			<time>2016-06-12T04:13:45Z</time>
			</trkpt>
		
			<trkpt lat="45.706130" lon="2.112970">
			 <ele>870</ele>
			<time>2016-06-12T04:15:45Z</time>
			</trkpt>
		
			<trkpt lat="45.706620" lon="2.113180">
			 <ele>869</ele>
			<time>2016-06-12T04:17:45Z</time>
			</trkpt>
		
			<trkpt lat="45.707500" lon="2.113530">
			 <ele>876</ele>
			<time>2016-06-12T04:19:45Z</time>
			</trkpt>
		
			<trkpt lat="45.707600" lon="2.113560">
			 <ele>877</ele>
			<time>2016-06-12T04:21:45Z</time>
			</trkpt>
		
			<trkpt lat="45.707690" lon="2.113590">
			 <ele>878</ele>
			<time>2016-06-12T04:23:45Z</time>
			</trkpt>
		
			<trkpt lat="45.707830" lon="2.113600">
			 <ele>878</ele>
			<time>2016-06-12T04:25:45Z</time>
			</trkpt>
		
			<trkpt lat="45.707870" lon="2.113610">
			 <ele>878</ele>
			<time>2016-06-12T04:27:45Z</time>
			</trkpt>
		
			<trkpt lat="45.707920" lon="2.113620">
			 <ele>879</ele>
			<time>2016-06-12T04:29:45Z</time>
			</trkpt>
		
			<trkpt lat="45.708000" lon="2.113620">
			 <ele>879</ele>
			<time>2016-06-12T04:31:45Z</time>
			</trkpt>
		
			<trkpt lat="45.708090" lon="2.113600">
			 <ele>880</ele>
			<time>2016-06-12T04:33:45Z</time>
			</trkpt>
		
			<trkpt lat="45.708180" lon="2.113580">
			 <ele>880</ele>
			<time>2016-06-12T04:35:45Z</time>
			</trkpt>
		
			<trkpt lat="45.708270" lon="2.113550">
			 <ele>880</ele>
			<time>2016-06-12T04:37:45Z</time>
			</trkpt>
		
			<trkpt lat="45.708370" lon="2.113510">
			 <ele>881</ele>
			<time>2016-06-12T04:39:45Z</time>
			</trkpt>
		
			<trkpt lat="45.708450" lon="2.113460">
			 <ele>881</ele>
			<time>2016-06-12T04:41:45Z</time>
			</trkpt>
		
			<trkpt lat="45.708530" lon="2.113410">
			 <ele>881</ele>
			<time>2016-06-12T04:43:45Z</time>
			</trkpt>
		
			<trkpt lat="45.708590" lon="2.113360">
			 <ele>881</ele>
			<time>2016-06-12T04:45:45Z</time>
			</trkpt>
		
			<trkpt lat="45.708660" lon="2.113310">
			 <ele>881</ele>
			<time>2016-06-12T04:47:45Z</time>
			</trkpt>
		
			<trkpt lat="45.708720" lon="2.113240">
			 <ele>881</ele>
			<time>2016-06-12T04:49:45Z</time>
			</trkpt>
		
			<trkpt lat="45.708790" lon="2.113170">
			 <ele>882</ele>
			<time>2016-06-12T04:51:45Z</time>
			</trkpt>
		
			<trkpt lat="45.708870" lon="2.113070">
			 <ele>882</ele>
			<time>2016-06-12T04:53:45Z</time>
			</trkpt>
		
			<trkpt lat="45.708940" lon="2.112950">
			 <ele>882</ele>
			<time>2016-06-12T04:55:45Z</time>
			</trkpt>
		
			<trkpt lat="45.709030" lon="2.112790">
			 <ele>883</ele>
			<time>2016-06-12T04:57:45Z</time>
			</trkpt>
		
			<trkpt lat="45.709140" lon="2.112550">
			 <ele>884</ele>
			<time>2016-06-12T04:59:45Z</time>
			</trkpt>
		
			<trkpt lat="45.709290" lon="2.112240">
			 <ele>885</ele>
			<time>2016-06-12T05:01:45Z</time>
			</trkpt>
		
			<trkpt lat="45.709380" lon="2.112080">
			 <ele>885</ele>
			<time>2016-06-12T05:03:45Z</time>
			</trkpt>
		
			<trkpt lat="45.709430" lon="2.112000">
			 <ele>886</ele>
			<time>2016-06-12T05:05:45Z</time>
			</trkpt>
		
			<trkpt lat="45.709470" lon="2.111930">
			 <ele>886</ele>
			<time>2016-06-12T05:07:45Z</time>
			</trkpt>
		
			<trkpt lat="45.709520" lon="2.111870">
			 <ele>886</ele>
			<time>2016-06-12T05:09:45Z</time>
			</trkpt>
		
			<trkpt lat="45.709570" lon="2.111820">
			 <ele>886</ele>
			<time>2016-06-12T05:11:45Z</time>
			</trkpt>
		
			<trkpt lat="45.709630" lon="2.111760">
			 <ele>886</ele>
			<time>2016-06-12T05:13:45Z</time>
			</trkpt>
		
			<trkpt lat="45.709710" lon="2.111710">
			 <ele>886</ele>
			<time>2016-06-12T05:15:45Z</time>
			</trkpt>
		
			<trkpt lat="45.709780" lon="2.111670">
			 <ele>886</ele>
			<time>2016-06-12T05:17:45Z</time>
			</trkpt>
		
			<trkpt lat="45.709840" lon="2.111640">
			 <ele>886</ele>
			<time>2016-06-12T05:19:45Z</time>
			</trkpt>
		
			<trkpt lat="45.709910" lon="2.111610">
			 <ele>886</ele>
			<time>2016-06-12T05:21:45Z</time>
			</trkpt>
		
			<trkpt lat="45.709980" lon="2.111590">
			 <ele>885</ele>
			<time>2016-06-12T05:23:45Z</time>
			</trkpt>
		
			<trkpt lat="45.710070" lon="2.111570">
			 <ele>886</ele>
			<time>2016-06-12T05:25:45Z</time>
			</trkpt>
		
			<trkpt lat="45.710250" lon="2.111550">
			 <ele>887</ele>
			<time>2016-06-12T05:27:45Z</time>
			</trkpt>
		
			<trkpt lat="45.710470" lon="2.111520">
			 <ele>888</ele>
			<time>2016-06-12T05:29:45Z</time>
			</trkpt>
		
			<trkpt lat="45.710730" lon="2.111480">
			 <ele>889</ele>
			<time>2016-06-12T05:31:45Z</time>
			</trkpt>
		
			<trkpt lat="45.710920" lon="2.111450">
			 <ele>889</ele>
			<time>2016-06-12T05:33:45Z</time>
			</trkpt>
		
			<trkpt lat="45.711010" lon="2.111440">
			 <ele>889</ele>
			<time>2016-06-12T05:35:45Z</time>
			</trkpt>
		
			<trkpt lat="45.711140" lon="2.111420">
			 <ele>889</ele>
			<time>2016-06-12T05:37:45Z</time>
			</trkpt>
		
			<trkpt lat="45.711350" lon="2.111390">
			 <ele>889</ele>
			<time>2016-06-12T05:39:45Z</time>
			</trkpt>
		
			<trkpt lat="45.711590" lon="2.111360">
			 <ele>889</ele>
			<time>2016-06-12T05:41:45Z</time>
			</trkpt>
		
			<trkpt lat="45.711820" lon="2.111320">
			 <ele>889</ele>
			<time>2016-06-12T05:43:45Z</time>
			</trkpt>
		
			<trkpt lat="45.712180" lon="2.111270">
			 <ele>890</ele>
			<time>2016-06-12T05:45:45Z</time>
			</trkpt>
		
			<trkpt lat="45.712590" lon="2.111200">
			 <ele>891</ele>
			<time>2016-06-12T05:47:45Z</time>
			</trkpt>
		
			<trkpt lat="45.712860" lon="2.111160">
			 <ele>891</ele>
			<time>2016-06-12T05:49:45Z</time>
			</trkpt>
		
			<trkpt lat="45.713240" lon="2.111120">
			 <ele>892</ele>
			<time>2016-06-12T05:51:45Z</time>
			</trkpt>
		
			<trkpt lat="45.713490" lon="2.111090">
			 <ele>891</ele>
			<time>2016-06-12T05:53:45Z</time>
			</trkpt>
		
			<trkpt lat="45.713770" lon="2.111040">
			 <ele>889</ele>
			<time>2016-06-12T05:55:45Z</time>
			</trkpt>
		
			<trkpt lat="45.714160" lon="2.110970">
			 <ele>887</ele>
			<time>2016-06-12T05:57:45Z</time>
			</trkpt>
		
			<trkpt lat="45.714620" lon="2.110920">
			 <ele>887</ele>
			<time>2016-06-12T05:59:45Z</time>
			</trkpt>
		
			<trkpt lat="45.714720" lon="2.110910">
			 <ele>887</ele>
			<time>2016-06-12T06:01:45Z</time>
			</trkpt>
		
			<trkpt lat="45.714800" lon="2.110920">
			 <ele>887</ele>
			<time>2016-06-12T06:03:45Z</time>
			</trkpt>
		
			<trkpt lat="45.714930" lon="2.110940">
			 <ele>886</ele>
			<time>2016-06-12T06:05:45Z</time>
			</trkpt>
		
			<trkpt lat="45.715080" lon="2.110990">
			 <ele>885</ele>
			<time>2016-06-12T06:07:45Z</time>
			</trkpt>
		
			<trkpt lat="45.715290" lon="2.111100">
			 <ele>883</ele>
			<time>2016-06-12T06:09:45Z</time>
			</trkpt>
		
			<trkpt lat="45.715500" lon="2.111230">
			 <ele>882</ele>
			<time>2016-06-12T06:11:45Z</time>
			</trkpt>
		
			<trkpt lat="45.715780" lon="2.111390">
			 <ele>881</ele>
			<time>2016-06-12T06:13:45Z</time>
			</trkpt>
		
			<trkpt lat="45.716660" lon="2.111860">
			 <ele>877</ele>
			<time>2016-06-12T06:15:45Z</time>
			</trkpt>
		
			<trkpt lat="45.717400" lon="2.112280">
			 <ele>873</ele>
			<time>2016-06-12T06:17:45Z</time>
			</trkpt>
		
			<trkpt lat="45.717630" lon="2.112390">
			 <ele>874</ele>
			<time>2016-06-12T06:19:45Z</time>
			</trkpt>
		
			<trkpt lat="45.717700" lon="2.112410">
			 <ele>874</ele>
			<time>2016-06-12T06:21:45Z</time>
			</trkpt>
		
			<trkpt lat="45.717750" lon="2.112420">
			 <ele>874</ele>
			<time>2016-06-12T06:23:45Z</time>
			</trkpt>
		
			<trkpt lat="45.717800" lon="2.112430">
			 <ele>874</ele>
			<time>2016-06-12T06:25:45Z</time>
			</trkpt>
		
			<trkpt lat="45.717850" lon="2.112430">
			 <ele>874</ele>
			<time>2016-06-12T06:27:45Z</time>
			</trkpt>
		
			<trkpt lat="45.717910" lon="2.112420">
			 <ele>874</ele>
			<time>2016-06-12T06:29:45Z</time>
			</trkpt>
		
			<trkpt lat="45.718000" lon="2.112390">
			 <ele>874</ele>
			<time>2016-06-12T06:31:45Z</time>
			</trkpt>
		
			<trkpt lat="45.718620" lon="2.112130">
			 <ele>875</ele>
			<time>2016-06-12T06:33:45Z</time>
			</trkpt>
		
			<trkpt lat="45.718890" lon="2.112020">
			 <ele>877</ele>
			<time>2016-06-12T06:35:45Z</time>
			</trkpt>
		
			<trkpt lat="45.719190" lon="2.111910">
			 <ele>879</ele>
			<time>2016-06-12T06:37:45Z</time>
			</trkpt>
		
			<trkpt lat="45.719230" lon="2.111900">
			 <ele>880</ele>
			<time>2016-06-12T06:39:45Z</time>
			</trkpt>
		
			<trkpt lat="45.719310" lon="2.111880">
			 <ele>880</ele>
			<time>2016-06-12T06:41:45Z</time>
			</trkpt>
		
			<trkpt lat="45.719370" lon="2.111880">
			 <ele>881</ele>
			<time>2016-06-12T06:43:45Z</time>
			</trkpt>
		
			<trkpt lat="45.719410" lon="2.111880">
			 <ele>881</ele>
			<time>2016-06-12T06:45:45Z</time>
			</trkpt>
		
			<trkpt lat="45.719450" lon="2.111890">
			 <ele>881</ele>
			<time>2016-06-12T06:47:45Z</time>
			</trkpt>
		
			<trkpt lat="45.719510" lon="2.111900">
			 <ele>881</ele>
			<time>2016-06-12T06:49:45Z</time>
			</trkpt>
		
			<trkpt lat="45.719590" lon="2.111950">
			 <ele>881</ele>
			<time>2016-06-12T06:51:45Z</time>
			</trkpt>
		
			<trkpt lat="45.719690" lon="2.112010">
			 <ele>881</ele>
			<time>2016-06-12T06:53:45Z</time>
			</trkpt>
		
			<trkpt lat="45.720230" lon="2.112510">
			 <ele>882</ele>
			<time>2016-06-12T06:55:45Z</time>
			</trkpt>
		
			<trkpt lat="45.720300" lon="2.112570">
			 <ele>882</ele>
			<time>2016-06-12T06:57:45Z</time>
			</trkpt>
		
			<trkpt lat="45.720410" lon="2.112620">
			 <ele>883</ele>
			<time>2016-06-12T06:59:45Z</time>
			</trkpt>
		
			<trkpt lat="45.720500" lon="2.112660">
			 <ele>883</ele>
			<time>2016-06-12T07:01:45Z</time>
			</trkpt>
		
			<trkpt lat="45.720590" lon="2.112660">
			 <ele>884</ele>
			<time>2016-06-12T07:03:45Z</time>
			</trkpt>
		
			<trkpt lat="45.720710" lon="2.112640">
			 <ele>885</ele>
			<time>2016-06-12T07:05:45Z</time>
			</trkpt>
		
			<trkpt lat="45.720830" lon="2.112610">
			 <ele>887</ele>
			<time>2016-06-12T07:07:45Z</time>
			</trkpt>
		
			<trkpt lat="45.720970" lon="2.112610">
			 <ele>888</ele>
			<time>2016-06-12T07:09:45Z</time>
			</trkpt>
		
			<trkpt lat="45.721030" lon="2.112630">
			 <ele>888</ele>
			<time>2016-06-12T07:11:45Z</time>
			</trkpt>
		
			<trkpt lat="45.721140" lon="2.112670">
			 <ele>889</ele>
			<time>2016-06-12T07:13:45Z</time>
			</trkpt>
		
			<trkpt lat="45.721210" lon="2.112710">
			 <ele>889</ele>
			<time>2016-06-12T07:15:45Z</time>
			</trkpt>
		
			<trkpt lat="45.721300" lon="2.112770">
			 <ele>890</ele>
			<time>2016-06-12T07:17:45Z</time>
			</trkpt>
		
			<trkpt lat="45.721530" lon="2.112950">
			 <ele>891</ele>
			<time>2016-06-12T07:19:45Z</time>
			</trkpt>
		
			<trkpt lat="45.721630" lon="2.113030">
			 <ele>892</ele>
			<time>2016-06-12T07:21:45Z</time>
			</trkpt>
		
			<trkpt lat="45.721720" lon="2.113080">
			 <ele>892</ele>
			<time>2016-06-12T07:23:45Z</time>
			</trkpt>
		
			<trkpt lat="45.721830" lon="2.113140">
			 <ele>892</ele>
			<time>2016-06-12T07:25:45Z</time>
			</trkpt>
		
			<trkpt lat="45.722020" lon="2.113190">
			 <ele>893</ele>
			<time>2016-06-12T07:27:45Z</time>
			</trkpt>
		
			<trkpt lat="45.722710" lon="2.113310">
			 <ele>893</ele>
			<time>2016-06-12T07:29:45Z</time>
			</trkpt>
		
			<trkpt lat="45.723100" lon="2.113390">
			 <ele>894</ele>
			<time>2016-06-12T07:31:45Z</time>
			</trkpt>
		
			<trkpt lat="45.723250" lon="2.113430">
			 <ele>894</ele>
			<time>2016-06-12T07:33:45Z</time>
			</trkpt>
		
			<trkpt lat="45.723310" lon="2.113460">
			 <ele>894</ele>
			<time>2016-06-12T07:35:45Z</time>
			</trkpt>
		
			<trkpt lat="45.723420" lon="2.113540">
			 <ele>893</ele>
			<time>2016-06-12T07:37:45Z</time>
			</trkpt>
		
			<trkpt lat="45.723520" lon="2.113650">
			 <ele>893</ele>
			<time>2016-06-12T07:39:45Z</time>
			</trkpt>
		
			<trkpt lat="45.723610" lon="2.113800">
			 <ele>893</ele>
			<time>2016-06-12T07:41:45Z</time>
			</trkpt>
		
			<trkpt lat="45.723710" lon="2.114030">
			 <ele>893</ele>
			<time>2016-06-12T07:43:45Z</time>
			</trkpt>
		
			<trkpt lat="45.723900" lon="2.114530">
			 <ele>892</ele>
			<time>2016-06-12T07:45:45Z</time>
			</trkpt>
		
			<trkpt lat="45.724050" lon="2.114880">
			 <ele>891</ele>
			<time>2016-06-12T07:47:45Z</time>
			</trkpt>
		
			<trkpt lat="45.724090" lon="2.114970">
			 <ele>891</ele>
			<time>2016-06-12T07:49:45Z</time>
			</trkpt>
		
			<trkpt lat="45.724210" lon="2.115290">
			 <ele>890</ele>
			<time>2016-06-12T07:51:45Z</time>
			</trkpt>
		
			<trkpt lat="45.724690" lon="2.116430">
			 <ele>882</ele>
			<time>2016-06-12T07:53:45Z</time>
			</trkpt>
		
			<trkpt lat="45.725190" lon="2.117670">
			 <ele>880</ele>
			<time>2016-06-12T07:55:45Z</time>
			</trkpt>
		
			<trkpt lat="45.725420" lon="2.118210">
			 <ele>880</ele>
			<time>2016-06-12T07:57:45Z</time>
			</trkpt>
		
			<trkpt lat="45.725440" lon="2.118250">
			 <ele>880</ele>
			<time>2016-06-12T07:59:45Z</time>
			</trkpt>
		
			<trkpt lat="45.725530" lon="2.118460">
			 <ele>881</ele>
			<time>2016-06-12T08:01:45Z</time>
			</trkpt>
		
			<trkpt lat="45.725670" lon="2.118710">
			 <ele>882</ele>
			<time>2016-06-12T08:03:45Z</time>
			</trkpt>
		
			<trkpt lat="45.726370" lon="2.119830">
			 <ele>889</ele>
			<time>2016-06-12T08:05:45Z</time>
			</trkpt>
		
			<trkpt lat="45.727400" lon="2.121470">
			 <ele>896</ele>
			<time>2016-06-12T08:07:45Z</time>
			</trkpt>
		
			<trkpt lat="45.727580" lon="2.121770">
			 <ele>899</ele>
			<time>2016-06-12T08:09:45Z</time>
			</trkpt>
		
			<trkpt lat="45.727710" lon="2.121940">
			 <ele>901</ele>
			<time>2016-06-12T08:11:45Z</time>
			</trkpt>
		
			<trkpt lat="45.727840" lon="2.122080">
			 <ele>901</ele>
			<time>2016-06-12T08:13:45Z</time>
			</trkpt>
		
			<trkpt lat="45.728000" lon="2.122230">
			 <ele>902</ele>
			<time>2016-06-12T08:15:45Z</time>
			</trkpt>
		
			<trkpt lat="45.728430" lon="2.122580">
			 <ele>901</ele>
			<time>2016-06-12T08:17:45Z</time>
			</trkpt>
		
			<trkpt lat="45.729340" lon="2.123280">
			 <ele>906</ele>
			<time>2016-06-12T08:19:45Z</time>
			</trkpt>
		
			<trkpt lat="45.729910" lon="2.123720">
			 <ele>909</ele>
			<time>2016-06-12T08:21:45Z</time>
			</trkpt>
		
			<trkpt lat="45.730630" lon="2.124290">
			 <ele>911</ele>
			<time>2016-06-12T08:23:45Z</time>
			</trkpt>
		
			<trkpt lat="45.731530" lon="2.124990">
			 <ele>908</ele>
			<time>2016-06-12T08:25:45Z</time>
			</trkpt>
		
			<trkpt lat="45.731790" lon="2.125190">
			 <ele>906</ele>
			<time>2016-06-12T08:27:45Z</time>
			</trkpt>
		
			<trkpt lat="45.731920" lon="2.125310">
			 <ele>906</ele>
			<time>2016-06-12T08:29:45Z</time>
			</trkpt>
		
			<trkpt lat="45.732030" lon="2.125410">
			 <ele>905</ele>
			<time>2016-06-12T08:31:45Z</time>
			</trkpt>
		
			<trkpt lat="45.732140" lon="2.125540">
			 <ele>905</ele>
			<time>2016-06-12T08:33:45Z</time>
			</trkpt>
		
			<trkpt lat="45.732230" lon="2.125660">
			 <ele>905</ele>
			<time>2016-06-12T08:35:45Z</time>
			</trkpt>
		
			<trkpt lat="45.732320" lon="2.125820">
			 <ele>906</ele>
			<time>2016-06-12T08:37:45Z</time>
			</trkpt>
		
			<trkpt lat="45.732430" lon="2.126000">
			 <ele>906</ele>
			<time>2016-06-12T08:39:45Z</time>
			</trkpt>
		
			<trkpt lat="45.732750" lon="2.126640">
			 <ele>906</ele>
			<time>2016-06-12T08:41:45Z</time>
			</trkpt>
		
			<trkpt lat="45.733090" lon="2.127300">
			 <ele>902</ele>
			<time>2016-06-12T08:43:45Z</time>
			</trkpt>
		
			<trkpt lat="45.733440" lon="2.127960">
			 <ele>902</ele>
			<time>2016-06-12T08:45:45Z</time>
			</trkpt>
		
			<trkpt lat="45.733650" lon="2.128370">
			 <ele>901</ele>
			<time>2016-06-12T08:47:45Z</time>
			</trkpt>
		
			<trkpt lat="45.733870" lon="2.128770">
			 <ele>902</ele>
			<time>2016-06-12T08:49:45Z</time>
			</trkpt>
		
			<trkpt lat="45.734080" lon="2.129170">
			 <ele>903</ele>
			<time>2016-06-12T08:51:45Z</time>
			</trkpt>
		
			<trkpt lat="45.734600" lon="2.130150">
			 <ele>902</ele>
			<time>2016-06-12T08:53:45Z</time>
			</trkpt>
		
			<trkpt lat="45.734850" lon="2.130630">
			 <ele>902</ele>
			<time>2016-06-12T08:55:45Z</time>
			</trkpt>
		
			<trkpt lat="45.734850" lon="2.130630">
			 <ele>902</ele>
			<time>2016-06-12T08:57:45Z</time>
			</trkpt>
		
			<trkpt lat="45.735160" lon="2.131230">
			 <ele>904</ele>
			<time>2016-06-12T08:59:45Z</time>
			</trkpt>
		
			<trkpt lat="45.735590" lon="2.132050">
			 <ele>904</ele>
			<time>2016-06-12T09:01:45Z</time>
			</trkpt>
		
			<trkpt lat="45.736070" lon="2.132970">
			 <ele>905</ele>
			<time>2016-06-12T09:03:45Z</time>
			</trkpt>
		
			<trkpt lat="45.736130" lon="2.133070">
			 <ele>905</ele>
			<time>2016-06-12T09:05:45Z</time>
			</trkpt>
		
			<trkpt lat="45.736250" lon="2.133310">
			 <ele>906</ele>
			<time>2016-06-12T09:07:45Z</time>
			</trkpt>
		
			<trkpt lat="45.736580" lon="2.133950">
			 <ele>908</ele>
			<time>2016-06-12T09:09:45Z</time>
			</trkpt>
		
			<trkpt lat="45.736890" lon="2.134530">
			 <ele>909</ele>
			<time>2016-06-12T09:11:45Z</time>
			</trkpt>
		
			<trkpt lat="45.737040" lon="2.134830">
			 <ele>908</ele>
			<time>2016-06-12T09:13:45Z</time>
			</trkpt>
		
			<trkpt lat="45.737160" lon="2.135060">
			 <ele>907</ele>
			<time>2016-06-12T09:15:45Z</time>
			</trkpt>
		
			<trkpt lat="45.737240" lon="2.135170">
			 <ele>907</ele>
			<time>2016-06-12T09:17:45Z</time>
			</trkpt>
		
			<trkpt lat="45.737340" lon="2.135300">
			 <ele>907</ele>
			<time>2016-06-12T09:19:45Z</time>
			</trkpt>
		
			<trkpt lat="45.737450" lon="2.135420">
			 <ele>906</ele>
			<time>2016-06-12T09:21:45Z</time>
			</trkpt>
		
			<trkpt lat="45.737480" lon="2.135450">
			 <ele>906</ele>
			<time>2016-06-12T09:23:45Z</time>
			</trkpt>
		
			<trkpt lat="45.737600" lon="2.135550">
			 <ele>906</ele>
			<time>2016-06-12T09:25:45Z</time>
			</trkpt>
		
			<trkpt lat="45.737870" lon="2.135770">
			 <ele>905</ele>
			<time>2016-06-12T09:27:45Z</time>
			</trkpt>
		
			<trkpt lat="45.738690" lon="2.136410">
			 <ele>901</ele>
			<time>2016-06-12T09:29:45Z</time>
			</trkpt>
		
			<trkpt lat="45.739490" lon="2.137070">
			 <ele>897</ele>
			<time>2016-06-12T09:31:45Z</time>
			</trkpt>
		
			<trkpt lat="45.740570" lon="2.137910">
			 <ele>887</ele>
			<time>2016-06-12T09:33:45Z</time>
			</trkpt>
		
			<trkpt lat="45.741210" lon="2.138410">
			 <ele>885</ele>
			<time>2016-06-12T09:35:45Z</time>
			</trkpt>
		
			<trkpt lat="45.741750" lon="2.138830">
			 <ele>883</ele>
			<time>2016-06-12T09:37:45Z</time>
			</trkpt>
		
			<trkpt lat="45.742660" lon="2.139560">
			 <ele>877</ele>
			<time>2016-06-12T09:39:45Z</time>
			</trkpt>
		
			<trkpt lat="45.742770" lon="2.139650">
			 <ele>877</ele>
			<time>2016-06-12T09:41:45Z</time>
			</trkpt>
		
			<trkpt lat="45.742870" lon="2.139740">
			 <ele>877</ele>
			<time>2016-06-12T09:43:45Z</time>
			</trkpt>
		
			<trkpt lat="45.743310" lon="2.140110">
			 <ele>877</ele>
			<time>2016-06-12T09:45:45Z</time>
			</trkpt>
		
			<trkpt lat="45.743530" lon="2.140290">
			 <ele>877</ele>
			<time>2016-06-12T09:47:45Z</time>
			</trkpt>
		
			<trkpt lat="45.744120" lon="2.140750">
			 <ele>878</ele>
			<time>2016-06-12T09:49:45Z</time>
			</trkpt>
		
			<trkpt lat="45.744880" lon="2.141350">
			 <ele>883</ele>
			<time>2016-06-12T09:51:45Z</time>
			</trkpt>
		
			<trkpt lat="45.745400" lon="2.141750">
			 <ele>886</ele>
			<time>2016-06-12T09:53:45Z</time>
			</trkpt>
		
			<trkpt lat="45.745660" lon="2.141960">
			 <ele>888</ele>
			<time>2016-06-12T09:55:45Z</time>
			</trkpt>
		
			<trkpt lat="45.745950" lon="2.142190">
			 <ele>889</ele>
			<time>2016-06-12T09:57:45Z</time>
			</trkpt>
		
			<trkpt lat="45.746310" lon="2.142480">
			 <ele>889</ele>
			<time>2016-06-12T09:59:45Z</time>
			</trkpt>
		
			<trkpt lat="45.746450" lon="2.142590">
			 <ele>889</ele>
			<time>2016-06-12T10:01:45Z</time>
			</trkpt>
		
			<trkpt lat="45.746590" lon="2.142670">
			 <ele>889</ele>
			<time>2016-06-12T10:03:45Z</time>
			</trkpt>
		
			<trkpt lat="45.746770" lon="2.142770">
			 <ele>889</ele>
			<time>2016-06-12T10:05:45Z</time>
			</trkpt>
		
			<trkpt lat="45.747110" lon="2.142910">
			 <ele>889</ele>
			<time>2016-06-12T10:07:45Z</time>
			</trkpt>
		
			<trkpt lat="45.747730" lon="2.143150">
			 <ele>888</ele>
			<time>2016-06-12T10:09:45Z</time>
			</trkpt>
		
			<trkpt lat="45.748340" lon="2.143410">
			 <ele>885</ele>
			<time>2016-06-12T10:11:45Z</time>
			</trkpt>
		
			<trkpt lat="45.748540" lon="2.143470">
			 <ele>883</ele>
			<time>2016-06-12T10:13:45Z</time>
			</trkpt>
		
			<trkpt lat="45.748770" lon="2.143530">
			 <ele>883</ele>
			<time>2016-06-12T10:15:45Z</time>
			</trkpt>
		
			<trkpt lat="45.749050" lon="2.143590">
			 <ele>882</ele>
			<time>2016-06-12T10:17:45Z</time>
			</trkpt>
		
			<trkpt lat="45.749520" lon="2.143670">
			 <ele>879</ele>
			<time>2016-06-12T10:19:45Z</time>
			</trkpt>
		
			<trkpt lat="45.749710" lon="2.143690">
			 <ele>878</ele>
			<time>2016-06-12T10:21:45Z</time>
			</trkpt>
		
			<trkpt lat="45.749870" lon="2.143700">
			 <ele>877</ele>
			<time>2016-06-12T10:23:45Z</time>
			</trkpt>
		
			<trkpt lat="45.749920" lon="2.143710">
			 <ele>877</ele>
			<time>2016-06-12T10:25:45Z</time>
			</trkpt>
		
			<trkpt lat="45.750030" lon="2.143710">
			 <ele>876</ele>
			<time>2016-06-12T10:27:45Z</time>
			</trkpt>
		
			<trkpt lat="45.750060" lon="2.143710">
			 <ele>876</ele>
			<time>2016-06-12T10:29:45Z</time>
			</trkpt>
		
			<trkpt lat="45.750140" lon="2.143710">
			 <ele>875</ele>
			<time>2016-06-12T10:31:45Z</time>
			</trkpt>
		
			<trkpt lat="45.750230" lon="2.143710">
			 <ele>875</ele>
			<time>2016-06-12T10:33:45Z</time>
			</trkpt>
		
			<trkpt lat="45.750350" lon="2.143690">
			 <ele>874</ele>
			<time>2016-06-12T10:35:45Z</time>
			</trkpt>
		
			<trkpt lat="45.750430" lon="2.143670">
			 <ele>874</ele>
			<time>2016-06-12T10:37:45Z</time>
			</trkpt>
		
			<trkpt lat="45.750660" lon="2.143600">
			 <ele>873</ele>
			<time>2016-06-12T10:39:45Z</time>
			</trkpt>
		
			<trkpt lat="45.750690" lon="2.143590">
			 <ele>872</ele>
			<time>2016-06-12T10:41:45Z</time>
			</trkpt>
		
			<trkpt lat="45.750880" lon="2.143520">
			 <ele>871</ele>
			<time>2016-06-12T10:43:45Z</time>
			</trkpt>
		
			<trkpt lat="45.751190" lon="2.143400">
			 <ele>871</ele>
			<time>2016-06-12T10:45:45Z</time>
			</trkpt>
		
			<trkpt lat="45.751540" lon="2.143270">
			 <ele>871</ele>
			<time>2016-06-12T10:47:45Z</time>
			</trkpt>
		
			<trkpt lat="45.751960" lon="2.143100">
			 <ele>871</ele>
			<time>2016-06-12T10:49:45Z</time>
			</trkpt>
		
			<trkpt lat="45.752190" lon="2.143000">
			 <ele>871</ele>
			<time>2016-06-12T10:51:45Z</time>
			</trkpt>
		
			<trkpt lat="45.752340" lon="2.142940">
			 <ele>871</ele>
			<time>2016-06-12T10:53:45Z</time>
			</trkpt>
		
			<trkpt lat="45.752650" lon="2.142830">
			 <ele>871</ele>
			<time>2016-06-12T10:55:45Z</time>
			</trkpt>
		
			<trkpt lat="45.753030" lon="2.142680">
			 <ele>870</ele>
			<time>2016-06-12T10:57:45Z</time>
			</trkpt>
		
			<trkpt lat="45.753500" lon="2.142510">
			 <ele>868</ele>
			<time>2016-06-12T10:59:45Z</time>
			</trkpt>
		
			<trkpt lat="45.753950" lon="2.142340">
			 <ele>866</ele>
			<time>2016-06-12T11:01:45Z</time>
			</trkpt>
		
			<trkpt lat="45.754200" lon="2.142260">
			 <ele>864</ele>
			<time>2016-06-12T11:03:45Z</time>
			</trkpt>
		
			<trkpt lat="45.754520" lon="2.142150">
			 <ele>863</ele>
			<time>2016-06-12T11:05:45Z</time>
			</trkpt>
		
			<trkpt lat="45.754920" lon="2.142010">
			 <ele>861</ele>
			<time>2016-06-12T11:07:45Z</time>
			</trkpt>
		
			<trkpt lat="45.755170" lon="2.141910">
			 <ele>859</ele>
			<time>2016-06-12T11:09:45Z</time>
			</trkpt>
		
			<trkpt lat="45.755420" lon="2.141820">
			 <ele>857</ele>
			<time>2016-06-12T11:11:45Z</time>
			</trkpt>
		
			<trkpt lat="45.755830" lon="2.141680">
			 <ele>853</ele>
			<time>2016-06-12T11:13:45Z</time>
			</trkpt>
		
			<trkpt lat="45.756050" lon="2.141600">
			 <ele>852</ele>
			<time>2016-06-12T11:15:45Z</time>
			</trkpt>
		
			<trkpt lat="45.756480" lon="2.141440">
			 <ele>849</ele>
			<time>2016-06-12T11:17:45Z</time>
			</trkpt>
		
			<trkpt lat="45.756870" lon="2.141300">
			 <ele>847</ele>
			<time>2016-06-12T11:19:45Z</time>
			</trkpt>
		
			<trkpt lat="45.757280" lon="2.141150">
			 <ele>846</ele>
			<time>2016-06-12T11:21:45Z</time>
			</trkpt>
		
			<trkpt lat="45.757600" lon="2.141040">
			 <ele>846</ele>
			<time>2016-06-12T11:23:45Z</time>
			</trkpt>
		
			<trkpt lat="45.757950" lon="2.140900">
			 <ele>846</ele>
			<time>2016-06-12T11:25:45Z</time>
			</trkpt>
		
			<trkpt lat="45.758050" lon="2.140860">
			 <ele>846</ele>
			<time>2016-06-12T11:27:45Z</time>
			</trkpt>
		
			<trkpt lat="45.758280" lon="2.140760">
			 <ele>845</ele>
			<time>2016-06-12T11:29:45Z</time>
			</trkpt>
		
			<trkpt lat="45.758500" lon="2.140660">
			 <ele>844</ele>
			<time>2016-06-12T11:31:45Z</time>
			</trkpt>
		
			<trkpt lat="45.758690" lon="2.140560">
			 <ele>843</ele>
			<time>2016-06-12T11:33:45Z</time>
			</trkpt>
		
			<trkpt lat="45.758900" lon="2.140440">
			 <ele>842</ele>
			<time>2016-06-12T11:35:45Z</time>
			</trkpt>
		
			<trkpt lat="45.759140" lon="2.140310">
			 <ele>841</ele>
			<time>2016-06-12T11:37:45Z</time>
			</trkpt>
		
			<trkpt lat="45.759440" lon="2.140140">
			 <ele>840</ele>
			<time>2016-06-12T11:39:45Z</time>
			</trkpt>
		
			<trkpt lat="45.760670" lon="2.139480">
			 <ele>833</ele>
			<time>2016-06-12T11:41:45Z</time>
			</trkpt>
		
			<trkpt lat="45.760940" lon="2.139310">
			 <ele>832</ele>
			<time>2016-06-12T11:43:45Z</time>
			</trkpt>
		
			<trkpt lat="45.761020" lon="2.139270">
			 <ele>832</ele>
			<time>2016-06-12T11:45:45Z</time>
			</trkpt>
		
			<trkpt lat="45.761300" lon="2.139130">
			 <ele>831</ele>
			<time>2016-06-12T11:47:45Z</time>
			</trkpt>
		
			<trkpt lat="45.761560" lon="2.138990">
			 <ele>830</ele>
			<time>2016-06-12T11:49:45Z</time>
			</trkpt>
		
			<trkpt lat="45.761910" lon="2.138820">
			 <ele>829</ele>
			<time>2016-06-12T11:51:45Z</time>
			</trkpt>
		
			<trkpt lat="45.762280" lon="2.138630">
			 <ele>828</ele>
			<time>2016-06-12T11:53:45Z</time>
			</trkpt>
		
			<trkpt lat="45.762560" lon="2.138490">
			 <ele>827</ele>
			<time>2016-06-12T11:55:45Z</time>
			</trkpt>
		
			<trkpt lat="45.762800" lon="2.138370">
			 <ele>826</ele>
			<time>2016-06-12T11:57:45Z</time>
			</trkpt>
		
			<trkpt lat="45.763140" lon="2.138190">
			 <ele>825</ele>
			<time>2016-06-12T11:59:45Z</time>
			</trkpt>
		
			<trkpt lat="45.763330" lon="2.138100">
			 <ele>824</ele>
			<time>2016-06-12T12:01:45Z</time>
			</trkpt>
		
			<trkpt lat="45.763480" lon="2.138040">
			 <ele>825</ele>
			<time>2016-06-12T12:03:45Z</time>
			</trkpt>
		
			<trkpt lat="45.763610" lon="2.138000">
			 <ele>826</ele>
			<time>2016-06-12T12:05:45Z</time>
			</trkpt>
		
			<trkpt lat="45.763760" lon="2.137950">
			 <ele>827</ele>
			<time>2016-06-12T12:07:45Z</time>
			</trkpt>
		
			<trkpt lat="45.763920" lon="2.137920">
			 <ele>828</ele>
			<time>2016-06-12T12:09:45Z</time>
			</trkpt>
		
			<trkpt lat="45.763950" lon="2.137910">
			 <ele>828</ele>
			<time>2016-06-12T12:11:45Z</time>
			</trkpt>
		
			<trkpt lat="45.763950" lon="2.137910">
			 <ele>828</ele>
			<time>2016-06-12T12:13:45Z</time>
			</trkpt>
		
			<trkpt lat="45.763980" lon="2.138060">
			 <ele>828</ele>
			<time>2016-06-12T12:15:45Z</time>
			</trkpt>
		
			<trkpt lat="45.764010" lon="2.138170">
			 <ele>829</ele>
			<time>2016-06-12T12:17:45Z</time>
			</trkpt>
		
			<trkpt lat="45.764060" lon="2.138370">
			 <ele>829</ele>
			<time>2016-06-12T12:19:45Z</time>
			</trkpt>
		
			<trkpt lat="45.764100" lon="2.138540">
			 <ele>829</ele>
			<time>2016-06-12T12:21:45Z</time>
			</trkpt>
		
			<trkpt lat="45.764120" lon="2.138700">
			 <ele>830</ele>
			<time>2016-06-12T12:23:45Z</time>
			</trkpt>
		
			<trkpt lat="45.764160" lon="2.138920">
			 <ele>830</ele>
			<time>2016-06-12T12:25:45Z</time>
			</trkpt>
		
			<trkpt lat="45.764210" lon="2.139100">
			 <ele>830</ele>
			<time>2016-06-12T12:27:45Z</time>
			</trkpt>
		
			<trkpt lat="45.764250" lon="2.139230">
			 <ele>830</ele>
			<time>2016-06-12T12:29:45Z</time>
			</trkpt>
		
			<trkpt lat="45.764300" lon="2.139360">
			 <ele>830</ele>
			<time>2016-06-12T12:31:45Z</time>
			</trkpt>
		
			<trkpt lat="45.764420" lon="2.139560">
			 <ele>829</ele>
			<time>2016-06-12T12:33:45Z</time>
			</trkpt>
		
			<trkpt lat="45.764640" lon="2.139920">
			 <ele>829</ele>
			<time>2016-06-12T12:35:45Z</time>
			</trkpt>
		
			<trkpt lat="45.764830" lon="2.140270">
			 <ele>827</ele>
			<time>2016-06-12T12:37:45Z</time>
			</trkpt>
		
			<trkpt lat="45.764980" lon="2.140510">
			 <ele>824</ele>
			<time>2016-06-12T12:39:45Z</time>
			</trkpt>
		
			<trkpt lat="45.765060" lon="2.140600">
			 <ele>823</ele>
			<time>2016-06-12T12:41:45Z</time>
			</trkpt>
		
			<trkpt lat="45.765100" lon="2.140650">
			 <ele>823</ele>
			<time>2016-06-12T12:43:45Z</time>
			</trkpt>
		
			<trkpt lat="45.765150" lon="2.140680">
			 <ele>822</ele>
			<time>2016-06-12T12:45:45Z</time>
			</trkpt>
		
			<trkpt lat="45.765210" lon="2.140690">
			 <ele>822</ele>
			<time>2016-06-12T12:47:45Z</time>
			</trkpt>
		
			<trkpt lat="45.765300" lon="2.140690">
			 <ele>822</ele>
			<time>2016-06-12T12:49:45Z</time>
			</trkpt>
		
			<trkpt lat="45.765410" lon="2.140690">
			 <ele>822</ele>
			<time>2016-06-12T12:51:45Z</time>
			</trkpt>
		
			<trkpt lat="45.765540" lon="2.140680">
			 <ele>823</ele>
			<time>2016-06-12T12:53:45Z</time>
			</trkpt>
		
			<trkpt lat="45.765600" lon="2.140690">
			 <ele>822</ele>
			<time>2016-06-12T12:55:45Z</time>
			</trkpt>
		
			<trkpt lat="45.765640" lon="2.140710">
			 <ele>822</ele>
			<time>2016-06-12T12:57:45Z</time>
			</trkpt>
		
			<trkpt lat="45.765690" lon="2.140740">
			 <ele>822</ele>
			<time>2016-06-12T12:59:45Z</time>
			</trkpt>
		
			<trkpt lat="45.765730" lon="2.140780">
			 <ele>822</ele>
			<time>2016-06-12T13:01:45Z</time>
			</trkpt>
		
			<trkpt lat="45.765750" lon="2.140830">
			 <ele>821</ele>
			<time>2016-06-12T13:03:45Z</time>
			</trkpt>
		
			<trkpt lat="45.765780" lon="2.140900">
			 <ele>821</ele>
			<time>2016-06-12T13:05:45Z</time>
			</trkpt>
		
			<trkpt lat="45.765810" lon="2.141000">
			 <ele>820</ele>
			<time>2016-06-12T13:07:45Z</time>
			</trkpt>
		
			<trkpt lat="45.765820" lon="2.141090">
			 <ele>820</ele>
			<time>2016-06-12T13:09:45Z</time>
			</trkpt>
		
			<trkpt lat="45.765810" lon="2.141240">
			 <ele>819</ele>
			<time>2016-06-12T13:11:45Z</time>
			</trkpt>
		
			<trkpt lat="45.765780" lon="2.141380">
			 <ele>819</ele>
			<time>2016-06-12T13:13:45Z</time>
			</trkpt>
		
			<trkpt lat="45.765730" lon="2.141570">
			 <ele>818</ele>
			<time>2016-06-12T13:15:45Z</time>
			</trkpt>
		
			<trkpt lat="45.765660" lon="2.141830">
			 <ele>817</ele>
			<time>2016-06-12T13:17:45Z</time>
			</trkpt>
		
			<trkpt lat="45.765620" lon="2.142030">
			 <ele>816</ele>
			<time>2016-06-12T13:19:45Z</time>
			</trkpt>
		
			<trkpt lat="45.765610" lon="2.142150">
			 <ele>815</ele>
			<time>2016-06-12T13:21:45Z</time>
			</trkpt>
		
			<trkpt lat="45.765620" lon="2.142270">
			 <ele>815</ele>
			<time>2016-06-12T13:23:45Z</time>
			</trkpt>
		
			<trkpt lat="45.765620" lon="2.142310">
			 <ele>815</ele>
			<time>2016-06-12T13:25:45Z</time>
			</trkpt>
		
			<trkpt lat="45.765620" lon="2.142310">
			 <ele>815</ele>
			<time>2016-06-12T13:27:45Z</time>
			</trkpt>
		
			<trkpt lat="45.765630" lon="2.142380">
			 <ele>814</ele>
			<time>2016-06-12T13:29:45Z</time>
			</trkpt>
		
			<trkpt lat="45.765660" lon="2.142490">
			 <ele>814</ele>
			<time>2016-06-12T13:31:45Z</time>
			</trkpt>
		
			<trkpt lat="45.765700" lon="2.142580">
			 <ele>813</ele>
			<time>2016-06-12T13:33:45Z</time>
			</trkpt>
		
			<trkpt lat="45.765780" lon="2.142710">
			 <ele>812</ele>
			<time>2016-06-12T13:35:45Z</time>
			</trkpt>
		
			<trkpt lat="45.765910" lon="2.142890">
			 <ele>812</ele>
			<time>2016-06-12T13:37:45Z</time>
			</trkpt>
		
			<trkpt lat="45.766080" lon="2.143080">
			 <ele>812</ele>
			<time>2016-06-12T13:39:45Z</time>
			</trkpt>
		
			<trkpt lat="45.766250" lon="2.143290">
			 <ele>811</ele>
			<time>2016-06-12T13:41:45Z</time>
			</trkpt>
		
			<trkpt lat="45.766440" lon="2.143530">
			 <ele>811</ele>
			<time>2016-06-12T13:43:45Z</time>
			</trkpt>
		
			<trkpt lat="45.766580" lon="2.143700">
			 <ele>810</ele>
			<time>2016-06-12T13:45:45Z</time>
			</trkpt>
		
			<trkpt lat="45.766650" lon="2.143760">
			 <ele>810</ele>
			<time>2016-06-12T13:47:45Z</time>
			</trkpt>
		
			<trkpt lat="45.766690" lon="2.143810">
			 <ele>810</ele>
			<time>2016-06-12T13:49:45Z</time>
			</trkpt>
		
			<trkpt lat="45.766850" lon="2.143970">
			 <ele>809</ele>
			<time>2016-06-12T13:51:45Z</time>
			</trkpt>
		
			<trkpt lat="45.767140" lon="2.144240">
			 <ele>808</ele>
			<time>2016-06-12T13:53:45Z</time>
			</trkpt>
		
			<trkpt lat="45.767280" lon="2.144400">
			 <ele>808</ele>
			<time>2016-06-12T13:55:45Z</time>
			</trkpt>
		
			<trkpt lat="45.767410" lon="2.144560">
			 <ele>808</ele>
			<time>2016-06-12T13:57:45Z</time>
			</trkpt>
		
			<trkpt lat="45.767520" lon="2.144730">
			 <ele>807</ele>
			<time>2016-06-12T13:59:45Z</time>
			</trkpt>
		
			<trkpt lat="45.767610" lon="2.144890">
			 <ele>807</ele>
			<time>2016-06-12T14:01:45Z</time>
			</trkpt>
		
			<trkpt lat="45.767660" lon="2.144990">
			 <ele>808</ele>
			<time>2016-06-12T14:03:45Z</time>
			</trkpt>
		
			<trkpt lat="45.767690" lon="2.145110">
			 <ele>808</ele>
			<time>2016-06-12T14:05:45Z</time>
			</trkpt>
		
			<trkpt lat="45.767720" lon="2.145240">
			 <ele>808</ele>
			<time>2016-06-12T14:07:45Z</time>
			</trkpt>
		
			<trkpt lat="45.767730" lon="2.145380">
			 <ele>808</ele>
			<time>2016-06-12T14:09:45Z</time>
			</trkpt>
		
			<trkpt lat="45.767750" lon="2.145560">
			 <ele>807</ele>
			<time>2016-06-12T14:11:45Z</time>
			</trkpt>
		
			<trkpt lat="45.767750" lon="2.145790">
			 <ele>807</ele>
			<time>2016-06-12T14:13:45Z</time>
			</trkpt>
		
			<trkpt lat="45.767740" lon="2.146000">
			 <ele>806</ele>
			<time>2016-06-12T14:15:45Z</time>
			</trkpt>
		
			<trkpt lat="45.767750" lon="2.146250">
			 <ele>805</ele>
			<time>2016-06-12T14:17:45Z</time>
			</trkpt>
		
			<trkpt lat="45.767750" lon="2.146470">
			 <ele>804</ele>
			<time>2016-06-12T14:19:45Z</time>
			</trkpt>
		
			<trkpt lat="45.767770" lon="2.146660">
			 <ele>804</ele>
			<time>2016-06-12T14:21:45Z</time>
			</trkpt>
		
			<trkpt lat="45.767810" lon="2.146880">
			 <ele>802</ele>
			<time>2016-06-12T14:23:45Z</time>
			</trkpt>
		
			<trkpt lat="45.767850" lon="2.147010">
			 <ele>801</ele>
			<time>2016-06-12T14:25:45Z</time>
			</trkpt>
		
			<trkpt lat="45.767910" lon="2.147140">
			 <ele>799</ele>
			<time>2016-06-12T14:27:45Z</time>
			</trkpt>
		
			<trkpt lat="45.767980" lon="2.147310">
			 <ele>797</ele>
			<time>2016-06-12T14:29:45Z</time>
			</trkpt>
		
			<trkpt lat="45.768090" lon="2.147520">
			 <ele>792</ele>
			<time>2016-06-12T14:31:45Z</time>
			</trkpt>
		
			<trkpt lat="45.768240" lon="2.147800">
			 <ele>789</ele>
			<time>2016-06-12T14:33:45Z</time>
			</trkpt>
		
			<trkpt lat="45.768440" lon="2.148150">
			 <ele>786</ele>
			<time>2016-06-12T14:35:45Z</time>
			</trkpt>
		
			<trkpt lat="45.768620" lon="2.148450">
			 <ele>783</ele>
			<time>2016-06-12T14:37:45Z</time>
			</trkpt>
		
			<trkpt lat="45.768840" lon="2.148790">
			 <ele>778</ele>
			<time>2016-06-12T14:39:45Z</time>
			</trkpt>
		
			<trkpt lat="45.769010" lon="2.149070">
			 <ele>775</ele>
			<time>2016-06-12T14:41:45Z</time>
			</trkpt>
		
			<trkpt lat="45.769160" lon="2.149320">
			 <ele>773</ele>
			<time>2016-06-12T14:43:45Z</time>
			</trkpt>
		
			<trkpt lat="45.769270" lon="2.149540">
			 <ele>773</ele>
			<time>2016-06-12T14:45:45Z</time>
			</trkpt>
		
			<trkpt lat="45.769350" lon="2.149710">
			 <ele>773</ele>
			<time>2016-06-12T14:47:45Z</time>
			</trkpt>
		
			<trkpt lat="45.769410" lon="2.149870">
			 <ele>773</ele>
			<time>2016-06-12T14:49:45Z</time>
			</trkpt>
		
			<trkpt lat="45.769460" lon="2.150020">
			 <ele>772</ele>
			<time>2016-06-12T14:51:45Z</time>
			</trkpt>
		
			<trkpt lat="45.769480" lon="2.150160">
			 <ele>772</ele>
			<time>2016-06-12T14:53:45Z</time>
			</trkpt>
		
			<trkpt lat="45.769490" lon="2.150310">
			 <ele>772</ele>
			<time>2016-06-12T14:55:45Z</time>
			</trkpt>
		
			<trkpt lat="45.769500" lon="2.150510">
			 <ele>771</ele>
			<time>2016-06-12T14:57:45Z</time>
			</trkpt>
		
			<trkpt lat="45.769490" lon="2.150750">
			 <ele>772</ele>
			<time>2016-06-12T14:59:45Z</time>
			</trkpt>
		
			<trkpt lat="45.769470" lon="2.151010">
			 <ele>772</ele>
			<time>2016-06-12T15:01:45Z</time>
			</trkpt>
		
			<trkpt lat="45.769460" lon="2.151230">
			 <ele>772</ele>
			<time>2016-06-12T15:03:45Z</time>
			</trkpt>
		
			<trkpt lat="45.769470" lon="2.151390">
			 <ele>771</ele>
			<time>2016-06-12T15:05:45Z</time>
			</trkpt>
		
			<trkpt lat="45.769490" lon="2.151550">
			 <ele>770</ele>
			<time>2016-06-12T15:07:45Z</time>
			</trkpt>
		
			<trkpt lat="45.769520" lon="2.151710">
			 <ele>768</ele>
			<time>2016-06-12T15:09:45Z</time>
			</trkpt>
		
			<trkpt lat="45.769580" lon="2.152010">
			 <ele>766</ele>
			<time>2016-06-12T15:11:45Z</time>
			</trkpt>
		
			<trkpt lat="45.769680" lon="2.152370">
			 <ele>764</ele>
			<time>2016-06-12T15:13:45Z</time>
			</trkpt>
		
			<trkpt lat="45.769780" lon="2.152730">
			 <ele>761</ele>
			<time>2016-06-12T15:15:45Z</time>
			</trkpt>
		
			<trkpt lat="45.769860" lon="2.153020">
			 <ele>759</ele>
			<time>2016-06-12T15:17:45Z</time>
			</trkpt>
		
			<trkpt lat="45.769970" lon="2.153300">
			 <ele>757</ele>
			<time>2016-06-12T15:19:45Z</time>
			</trkpt>
		
			<trkpt lat="45.770110" lon="2.153610">
			 <ele>755</ele>
			<time>2016-06-12T15:21:45Z</time>
			</trkpt>
		
			<trkpt lat="45.770280" lon="2.153980">
			 <ele>751</ele>
			<time>2016-06-12T15:23:45Z</time>
			</trkpt>
		
			<trkpt lat="45.770350" lon="2.154170">
			 <ele>749</ele>
			<time>2016-06-12T15:25:45Z</time>
			</trkpt>
		
			<trkpt lat="45.770400" lon="2.154340">
			 <ele>749</ele>
			<time>2016-06-12T15:27:45Z</time>
			</trkpt>
		
			<trkpt lat="45.770430" lon="2.154530">
			 <ele>748</ele>
			<time>2016-06-12T15:29:45Z</time>
			</trkpt>
		
			<trkpt lat="45.770440" lon="2.154680">
			 <ele>748</ele>
			<time>2016-06-12T15:31:45Z</time>
			</trkpt>
		
			<trkpt lat="45.770450" lon="2.154950">
			 <ele>749</ele>
			<time>2016-06-12T15:33:45Z</time>
			</trkpt>
		
			<trkpt lat="45.770470" lon="2.155260">
			 <ele>749</ele>
			<time>2016-06-12T15:35:45Z</time>
			</trkpt>
		
			<trkpt lat="45.770490" lon="2.155650">
			 <ele>750</ele>
			<time>2016-06-12T15:37:45Z</time>
			</trkpt>
		
			<trkpt lat="45.770520" lon="2.155950">
			 <ele>750</ele>
			<time>2016-06-12T15:39:45Z</time>
			</trkpt>
		
			<trkpt lat="45.770540" lon="2.156190">
			 <ele>749</ele>
			<time>2016-06-12T15:41:45Z</time>
			</trkpt>
		
			<trkpt lat="45.770550" lon="2.156350">
			 <ele>749</ele>
			<time>2016-06-12T15:43:45Z</time>
			</trkpt>
		
			<trkpt lat="45.770540" lon="2.156440">
			 <ele>748</ele>
			<time>2016-06-12T15:45:45Z</time>
			</trkpt>
		
			<trkpt lat="45.770530" lon="2.156490">
			 <ele>748</ele>
			<time>2016-06-12T15:47:45Z</time>
			</trkpt>
		
			<trkpt lat="45.770500" lon="2.156630">
			 <ele>748</ele>
			<time>2016-06-12T15:49:45Z</time>
			</trkpt>
		
			<trkpt lat="45.770470" lon="2.156700">
			 <ele>748</ele>
			<time>2016-06-12T15:51:45Z</time>
			</trkpt>
		
			<trkpt lat="45.770440" lon="2.156740">
			 <ele>748</ele>
			<time>2016-06-12T15:53:45Z</time>
			</trkpt>
		
			<trkpt lat="45.770380" lon="2.156820">
			 <ele>748</ele>
			<time>2016-06-12T15:55:45Z</time>
			</trkpt>
		
			<trkpt lat="45.770320" lon="2.156860">
			 <ele>749</ele>
			<time>2016-06-12T15:57:45Z</time>
			</trkpt>
		
			<trkpt lat="45.770240" lon="2.156900">
			 <ele>749</ele>
			<time>2016-06-12T15:59:45Z</time>
			</trkpt>
		
			<trkpt lat="45.770130" lon="2.156920">
			 <ele>750</ele>
			<time>2016-06-12T16:01:45Z</time>
			</trkpt>
		
			<trkpt lat="45.769980" lon="2.156940">
			 <ele>751</ele>
			<time>2016-06-12T16:03:45Z</time>
			</trkpt>
		
			<trkpt lat="45.769820" lon="2.156940">
			 <ele>750</ele>
			<time>2016-06-12T16:05:45Z</time>
			</trkpt>
		
			<trkpt lat="45.769640" lon="2.156960">
			 <ele>748</ele>
			<time>2016-06-12T16:07:45Z</time>
			</trkpt>
		
			<trkpt lat="45.769470" lon="2.156960">
			 <ele>747</ele>
			<time>2016-06-12T16:09:45Z</time>
			</trkpt>
		
			<trkpt lat="45.769300" lon="2.156970">
			 <ele>746</ele>
			<time>2016-06-12T16:11:45Z</time>
			</trkpt>
		
			<trkpt lat="45.769110" lon="2.156990">
			 <ele>745</ele>
			<time>2016-06-12T16:13:45Z</time>
			</trkpt>
		
			<trkpt lat="45.768880" lon="2.157020">
			 <ele>744</ele>
			<time>2016-06-12T16:15:45Z</time>
			</trkpt>
		
			<trkpt lat="45.768630" lon="2.157070">
			 <ele>743</ele>
			<time>2016-06-12T16:17:45Z</time>
			</trkpt>
		
			<trkpt lat="45.768390" lon="2.157120">
			 <ele>742</ele>
			<time>2016-06-12T16:19:45Z</time>
			</trkpt>
		
			<trkpt lat="45.768180" lon="2.157140">
			 <ele>739</ele>
			<time>2016-06-12T16:21:45Z</time>
			</trkpt>
		
			<trkpt lat="45.768100" lon="2.157140">
			 <ele>738</ele>
			<time>2016-06-12T16:23:45Z</time>
			</trkpt>
		
			<trkpt lat="45.768050" lon="2.157130">
			 <ele>738</ele>
			<time>2016-06-12T16:25:45Z</time>
			</trkpt>
		
			<trkpt lat="45.767980" lon="2.157100">
			 <ele>737</ele>
			<time>2016-06-12T16:27:45Z</time>
			</trkpt>
		
			<trkpt lat="45.767890" lon="2.157050">
			 <ele>737</ele>
			<time>2016-06-12T16:29:45Z</time>
			</trkpt>
		
			<trkpt lat="45.767810" lon="2.156950">
			 <ele>738</ele>
			<time>2016-06-12T16:31:45Z</time>
			</trkpt>
		
			<trkpt lat="45.767710" lon="2.156820">
			 <ele>739</ele>
			<time>2016-06-12T16:33:45Z</time>
			</trkpt>
		
			<trkpt lat="45.767590" lon="2.156600">
			 <ele>740</ele>
			<time>2016-06-12T16:35:45Z</time>
			</trkpt>
		
			<trkpt lat="45.767480" lon="2.156430">
			 <ele>742</ele>
			<time>2016-06-12T16:37:45Z</time>
			</trkpt>
		
			<trkpt lat="45.767380" lon="2.156230">
			 <ele>745</ele>
			<time>2016-06-12T16:39:45Z</time>
			</trkpt>
		
			<trkpt lat="45.767270" lon="2.156040">
			 <ele>748</ele>
			<time>2016-06-12T16:41:45Z</time>
			</trkpt>
		
			<trkpt lat="45.767220" lon="2.155960">
			 <ele>749</ele>
			<time>2016-06-12T16:43:45Z</time>
			</trkpt>
		
			<trkpt lat="45.767200" lon="2.155930">
			 <ele>749</ele>
			<time>2016-06-12T16:45:45Z</time>
			</trkpt>
		
			<trkpt lat="45.767160" lon="2.155880">
			 <ele>750</ele>
			<time>2016-06-12T16:47:45Z</time>
			</trkpt>
		
			<trkpt lat="45.767110" lon="2.155850">
			 <ele>750</ele>
			<time>2016-06-12T16:49:45Z</time>
			</trkpt>
		
			<trkpt lat="45.767090" lon="2.155840">
			 <ele>750</ele>
			<time>2016-06-12T16:51:45Z</time>
			</trkpt>
		
			<trkpt lat="45.767040" lon="2.155840">
			 <ele>750</ele>
			<time>2016-06-12T16:53:45Z</time>
			</trkpt>
		
			<trkpt lat="45.767010" lon="2.155850">
			 <ele>749</ele>
			<time>2016-06-12T16:55:45Z</time>
			</trkpt>
		
			<trkpt lat="45.766990" lon="2.155870">
			 <ele>749</ele>
			<time>2016-06-12T16:57:45Z</time>
			</trkpt>
		
			<trkpt lat="45.766970" lon="2.155910">
			 <ele>749</ele>
			<time>2016-06-12T16:59:45Z</time>
			</trkpt>
		
			<trkpt lat="45.766950" lon="2.155970">
			 <ele>748</ele>
			<time>2016-06-12T17:01:45Z</time>
			</trkpt>
		
			<trkpt lat="45.766950" lon="2.156070">
			 <ele>747</ele>
			<time>2016-06-12T17:03:45Z</time>
			</trkpt>
		
			<trkpt lat="45.766940" lon="2.156260">
			 <ele>745</ele>
			<time>2016-06-12T17:05:45Z</time>
			</trkpt>
		
			<trkpt lat="45.766950" lon="2.156420">
			 <ele>743</ele>
			<time>2016-06-12T17:07:45Z</time>
			</trkpt>
		
			<trkpt lat="45.766940" lon="2.156520">
			 <ele>742</ele>
			<time>2016-06-12T17:09:45Z</time>
			</trkpt>
		
			<trkpt lat="45.766930" lon="2.156640">
			 <ele>741</ele>
			<time>2016-06-12T17:11:45Z</time>
			</trkpt>
		
			<trkpt lat="45.766910" lon="2.156780">
			 <ele>740</ele>
			<time>2016-06-12T17:13:45Z</time>
			</trkpt>
		
			<trkpt lat="45.766900" lon="2.156820">
			 <ele>739</ele>
			<time>2016-06-12T17:15:45Z</time>
			</trkpt>
		
			<trkpt lat="45.766900" lon="2.156890">
			 <ele>739</ele>
			<time>2016-06-12T17:17:45Z</time>
			</trkpt>
		
			<trkpt lat="45.766900" lon="2.156940">
			 <ele>738</ele>
			<time>2016-06-12T17:19:45Z</time>
			</trkpt>
		
			<trkpt lat="45.766900" lon="2.157050">
			 <ele>737</ele>
			<time>2016-06-12T17:21:45Z</time>
			</trkpt>
		
			<trkpt lat="45.766920" lon="2.157180">
			 <ele>736</ele>
			<time>2016-06-12T17:23:45Z</time>
			</trkpt>
		
			<trkpt lat="45.766920" lon="2.157310">
			 <ele>735</ele>
			<time>2016-06-12T17:25:45Z</time>
			</trkpt>
		
			<trkpt lat="45.766920" lon="2.157460">
			 <ele>733</ele>
			<time>2016-06-12T17:27:45Z</time>
			</trkpt>
		
			<trkpt lat="45.766910" lon="2.157590">
			 <ele>732</ele>
			<time>2016-06-12T17:29:45Z</time>
			</trkpt>
		
			<trkpt lat="45.766900" lon="2.157700">
			 <ele>732</ele>
			<time>2016-06-12T17:31:45Z</time>
			</trkpt>
		
			<trkpt lat="45.766860" lon="2.157830">
			 <ele>731</ele>
			<time>2016-06-12T17:33:45Z</time>
			</trkpt>
		
			<trkpt lat="45.766810" lon="2.158030">
			 <ele>730</ele>
			<time>2016-06-12T17:35:45Z</time>
			</trkpt>
		
			<trkpt lat="45.766760" lon="2.158250">
			 <ele>730</ele>
			<time>2016-06-12T17:37:45Z</time>
			</trkpt>
		
			<trkpt lat="45.766710" lon="2.158450">
			 <ele>729</ele>
			<time>2016-06-12T17:39:45Z</time>
			</trkpt>
		
			<trkpt lat="45.766700" lon="2.158550">
			 <ele>728</ele>
			<time>2016-06-12T17:41:45Z</time>
			</trkpt>
		
			<trkpt lat="45.766700" lon="2.158620">
			 <ele>727</ele>
			<time>2016-06-12T17:43:45Z</time>
			</trkpt>
		
			<trkpt lat="45.766710" lon="2.158720">
			 <ele>725</ele>
			<time>2016-06-12T17:45:45Z</time>
			</trkpt>
		
			<trkpt lat="45.766710" lon="2.158800">
			 <ele>724</ele>
			<time>2016-06-12T17:47:45Z</time>
			</trkpt>
		
			<trkpt lat="45.766700" lon="2.158890">
			 <ele>724</ele>
			<time>2016-06-12T17:49:45Z</time>
			</trkpt>
		
			<trkpt lat="45.766670" lon="2.158980">
			 <ele>723</ele>
			<time>2016-06-12T17:51:45Z</time>
			</trkpt>
		
			<trkpt lat="45.766620" lon="2.159110">
			 <ele>723</ele>
			<time>2016-06-12T17:53:45Z</time>
			</trkpt>
		
			<trkpt lat="45.766560" lon="2.159280">
			 <ele>723</ele>
			<time>2016-06-12T17:55:45Z</time>
			</trkpt>
		
			<trkpt lat="45.766500" lon="2.159440">
			 <ele>723</ele>
			<time>2016-06-12T17:57:45Z</time>
			</trkpt>
		
			<trkpt lat="45.766480" lon="2.159530">
			 <ele>722</ele>
			<time>2016-06-12T17:59:45Z</time>
			</trkpt>
		
			<trkpt lat="45.766470" lon="2.159640">
			 <ele>722</ele>
			<time>2016-06-12T18:01:45Z</time>
			</trkpt>
		
			<trkpt lat="45.766480" lon="2.159740">
			 <ele>720</ele>
			<time>2016-06-12T18:03:45Z</time>
			</trkpt>
		
			<trkpt lat="45.766480" lon="2.159820">
			 <ele>720</ele>
			<time>2016-06-12T18:05:45Z</time>
			</trkpt>
		
			<trkpt lat="45.766510" lon="2.159910">
			 <ele>718</ele>
			<time>2016-06-12T18:07:45Z</time>
			</trkpt>
		
			<trkpt lat="45.766540" lon="2.160020">
			 <ele>716</ele>
			<time>2016-06-12T18:09:45Z</time>
			</trkpt>
		
			<trkpt lat="45.766610" lon="2.160170">
			 <ele>714</ele>
			<time>2016-06-12T18:11:45Z</time>
			</trkpt>
		
			<trkpt lat="45.766680" lon="2.160350">
			 <ele>713</ele>
			<time>2016-06-12T18:13:45Z</time>
			</trkpt>
		
			<trkpt lat="45.766760" lon="2.160580">
			 <ele>713</ele>
			<time>2016-06-12T18:15:45Z</time>
			</trkpt>
		
			<trkpt lat="45.766830" lon="2.160760">
			 <ele>712</ele>
			<time>2016-06-12T18:17:45Z</time>
			</trkpt>
		
			<trkpt lat="45.766900" lon="2.160950">
			 <ele>712</ele>
			<time>2016-06-12T18:19:45Z</time>
			</trkpt>
		
			<trkpt lat="45.766960" lon="2.161140">
			 <ele>711</ele>
			<time>2016-06-12T18:21:45Z</time>
			</trkpt>
		
			<trkpt lat="45.767010" lon="2.161310">
			 <ele>710</ele>
			<time>2016-06-12T18:23:45Z</time>
			</trkpt>
		
			<trkpt lat="45.767030" lon="2.161490">
			 <ele>709</ele>
			<time>2016-06-12T18:25:45Z</time>
			</trkpt>
		
			<trkpt lat="45.767040" lon="2.161670">
			 <ele>708</ele>
			<time>2016-06-12T18:27:45Z</time>
			</trkpt>
		
			<trkpt lat="45.767030" lon="2.161840">
			 <ele>707</ele>
			<time>2016-06-12T18:29:45Z</time>
			</trkpt>
		
			<trkpt lat="45.767010" lon="2.162040">
			 <ele>707</ele>
			<time>2016-06-12T18:31:45Z</time>
			</trkpt>
		
			<trkpt lat="45.766990" lon="2.162210">
			 <ele>706</ele>
			<time>2016-06-12T18:33:45Z</time>
			</trkpt>
		
			<trkpt lat="45.766960" lon="2.162370">
			 <ele>706</ele>
			<time>2016-06-12T18:35:45Z</time>
			</trkpt>
		
			<trkpt lat="45.766900" lon="2.162550">
			 <ele>707</ele>
			<time>2016-06-12T18:37:45Z</time>
			</trkpt>
		
			<trkpt lat="45.766840" lon="2.162730">
			 <ele>706</ele>
			<time>2016-06-12T18:39:45Z</time>
			</trkpt>
		
			<trkpt lat="45.766750" lon="2.162900">
			 <ele>707</ele>
			<time>2016-06-12T18:41:45Z</time>
			</trkpt>
		
			<trkpt lat="45.766680" lon="2.163080">
			 <ele>707</ele>
			<time>2016-06-12T18:43:45Z</time>
			</trkpt>
		
			<trkpt lat="45.766600" lon="2.163220">
			 <ele>706</ele>
			<time>2016-06-12T18:45:45Z</time>
			</trkpt>
		
			<trkpt lat="45.766570" lon="2.163290">
			 <ele>705</ele>
			<time>2016-06-12T18:47:45Z</time>
			</trkpt>
		
			<trkpt lat="45.766530" lon="2.163340">
			 <ele>704</ele>
			<time>2016-06-12T18:49:45Z</time>
			</trkpt>
		
			<trkpt lat="45.766510" lon="2.163360">
			 <ele>704</ele>
			<time>2016-06-12T18:51:45Z</time>
			</trkpt>
		
			<trkpt lat="45.766460" lon="2.163410">
			 <ele>703</ele>
			<time>2016-06-12T18:53:45Z</time>
			</trkpt>
		
			<trkpt lat="45.766420" lon="2.163450">
			 <ele>702</ele>
			<time>2016-06-12T18:55:45Z</time>
			</trkpt>
		
			<trkpt lat="45.766370" lon="2.163480">
			 <ele>702</ele>
			<time>2016-06-12T18:57:45Z</time>
			</trkpt>
		
			<trkpt lat="45.766320" lon="2.163490">
			 <ele>701</ele>
			<time>2016-06-12T18:59:45Z</time>
			</trkpt>
		
			<trkpt lat="45.766280" lon="2.163500">
			 <ele>701</ele>
			<time>2016-06-12T19:01:45Z</time>
			</trkpt>
		
			<trkpt lat="45.766210" lon="2.163500">
			 <ele>701</ele>
			<time>2016-06-12T19:03:45Z</time>
			</trkpt>
		
			<trkpt lat="45.766140" lon="2.163510">
			 <ele>701</ele>
			<time>2016-06-12T19:05:45Z</time>
			</trkpt>
		
			<trkpt lat="45.766080" lon="2.163530">
			 <ele>700</ele>
			<time>2016-06-12T19:07:45Z</time>
			</trkpt>
		
			<trkpt lat="45.766040" lon="2.163560">
			 <ele>699</ele>
			<time>2016-06-12T19:09:45Z</time>
			</trkpt>
		
			<trkpt lat="45.765990" lon="2.163620">
			 <ele>698</ele>
			<time>2016-06-12T19:11:45Z</time>
			</trkpt>
		
			<trkpt lat="45.765970" lon="2.163660">
			 <ele>698</ele>
			<time>2016-06-12T19:13:45Z</time>
			</trkpt>
		
			<trkpt lat="45.765960" lon="2.163690">
			 <ele>697</ele>
			<time>2016-06-12T19:15:45Z</time>
			</trkpt>
		
			<trkpt lat="45.765920" lon="2.163800">
			 <ele>696</ele>
			<time>2016-06-12T19:17:45Z</time>
			</trkpt>
		
			<trkpt lat="45.765910" lon="2.163910">
			 <ele>694</ele>
			<time>2016-06-12T19:19:45Z</time>
			</trkpt>
		
			<trkpt lat="45.765920" lon="2.164010">
			 <ele>693</ele>
			<time>2016-06-12T19:21:45Z</time>
			</trkpt>
		
			<trkpt lat="45.765940" lon="2.164090">
			 <ele>691</ele>
			<time>2016-06-12T19:23:45Z</time>
			</trkpt>
		
			<trkpt lat="45.765970" lon="2.164150">
			 <ele>691</ele>
			<time>2016-06-12T19:25:45Z</time>
			</trkpt>
		
			<trkpt lat="45.766010" lon="2.164220">
			 <ele>690</ele>
			<time>2016-06-12T19:27:45Z</time>
			</trkpt>
		
			<trkpt lat="45.766060" lon="2.164260">
			 <ele>690</ele>
			<time>2016-06-12T19:29:45Z</time>
			</trkpt>
		
			<trkpt lat="45.766120" lon="2.164300">
			 <ele>690</ele>
			<time>2016-06-12T19:31:45Z</time>
			</trkpt>
		
			<trkpt lat="45.766190" lon="2.164320">
			 <ele>690</ele>
			<time>2016-06-12T19:33:45Z</time>
			</trkpt>
		
			<trkpt lat="45.766280" lon="2.164340">
			 <ele>690</ele>
			<time>2016-06-12T19:35:45Z</time>
			</trkpt>
		
			<trkpt lat="45.766360" lon="2.164330">
			 <ele>691</ele>
			<time>2016-06-12T19:37:45Z</time>
			</trkpt>
		
			<trkpt lat="45.766460" lon="2.164320">
			 <ele>691</ele>
			<time>2016-06-12T19:39:45Z</time>
			</trkpt>
		
			<trkpt lat="45.766570" lon="2.164270">
			 <ele>692</ele>
			<time>2016-06-12T19:41:45Z</time>
			</trkpt>
		
			<trkpt lat="45.766650" lon="2.164220">
			 <ele>692</ele>
			<time>2016-06-12T19:43:45Z</time>
			</trkpt>
		
			<trkpt lat="45.766720" lon="2.164160">
			 <ele>692</ele>
			<time>2016-06-12T19:45:45Z</time>
			</trkpt>
		
			<trkpt lat="45.766780" lon="2.164050">
			 <ele>692</ele>
			<time>2016-06-12T19:47:45Z</time>
			</trkpt>
		
			<trkpt lat="45.766860" lon="2.163880">
			 <ele>693</ele>
			<time>2016-06-12T19:49:45Z</time>
			</trkpt>
		
			<trkpt lat="45.766980" lon="2.163620">
			 <ele>693</ele>
			<time>2016-06-12T19:51:45Z</time>
			</trkpt>
		
			<trkpt lat="45.767120" lon="2.163310">
			 <ele>694</ele>
			<time>2016-06-12T19:53:45Z</time>
			</trkpt>
		
			<trkpt lat="45.767270" lon="2.163020">
			 <ele>693</ele>
			<time>2016-06-12T19:55:45Z</time>
			</trkpt>
		
			<trkpt lat="45.767380" lon="2.162820">
			 <ele>692</ele>
			<time>2016-06-12T19:57:45Z</time>
			</trkpt>
		
			<trkpt lat="45.767460" lon="2.162670">
			 <ele>691</ele>
			<time>2016-06-12T19:59:45Z</time>
			</trkpt>
		
			<trkpt lat="45.767510" lon="2.162550">
			 <ele>691</ele>
			<time>2016-06-12T20:01:45Z</time>
			</trkpt>
		
			<trkpt lat="45.767560" lon="2.162390">
			 <ele>693</ele>
			<time>2016-06-12T20:03:45Z</time>
			</trkpt>
		
			<trkpt lat="45.767610" lon="2.162230">
			 <ele>694</ele>
			<time>2016-06-12T20:05:45Z</time>
			</trkpt>
		
			<trkpt lat="45.767650" lon="2.162100">
			 <ele>694</ele>
			<time>2016-06-12T20:07:45Z</time>
			</trkpt>
		
			<trkpt lat="45.767680" lon="2.162030">
			 <ele>695</ele>
			<time>2016-06-12T20:09:45Z</time>
			</trkpt>
		
			<trkpt lat="45.767720" lon="2.161970">
			 <ele>695</ele>
			<time>2016-06-12T20:11:45Z</time>
			</trkpt>
		
			<trkpt lat="45.767760" lon="2.161940">
			 <ele>695</ele>
			<time>2016-06-12T20:13:45Z</time>
			</trkpt>
		
			<trkpt lat="45.767810" lon="2.161920">
			 <ele>694</ele>
			<time>2016-06-12T20:15:45Z</time>
			</trkpt>
		
			<trkpt lat="45.767850" lon="2.161910">
			 <ele>694</ele>
			<time>2016-06-12T20:17:45Z</time>
			</trkpt>
		
			<trkpt lat="45.767890" lon="2.161920">
			 <ele>693</ele>
			<time>2016-06-12T20:19:45Z</time>
			</trkpt>
		
			<trkpt lat="45.767940" lon="2.161930">
			 <ele>692</ele>
			<time>2016-06-12T20:21:45Z</time>
			</trkpt>
		
			<trkpt lat="45.767990" lon="2.161970">
			 <ele>691</ele>
			<time>2016-06-12T20:23:45Z</time>
			</trkpt>
		
			<trkpt lat="45.768030" lon="2.162010">
			 <ele>690</ele>
			<time>2016-06-12T20:25:45Z</time>
			</trkpt>
		
			<trkpt lat="45.768060" lon="2.162080">
			 <ele>689</ele>
			<time>2016-06-12T20:27:45Z</time>
			</trkpt>
		
			<trkpt lat="45.768090" lon="2.162170">
			 <ele>688</ele>
			<time>2016-06-12T20:29:45Z</time>
			</trkpt>
		
			<trkpt lat="45.768130" lon="2.162310">
			 <ele>687</ele>
			<time>2016-06-12T20:31:45Z</time>
			</trkpt>
		
			<trkpt lat="45.768160" lon="2.162430">
			 <ele>686</ele>
			<time>2016-06-12T20:33:45Z</time>
			</trkpt>
		
			<trkpt lat="45.768200" lon="2.162500">
			 <ele>685</ele>
			<time>2016-06-12T20:35:45Z</time>
			</trkpt>
		
			<trkpt lat="45.768240" lon="2.162560">
			 <ele>685</ele>
			<time>2016-06-12T20:37:45Z</time>
			</trkpt>
		
			<trkpt lat="45.768290" lon="2.162640">
			 <ele>684</ele>
			<time>2016-06-12T20:39:45Z</time>
			</trkpt>
		
			<trkpt lat="45.768340" lon="2.162690">
			 <ele>683</ele>
			<time>2016-06-12T20:41:45Z</time>
			</trkpt>
		
			<trkpt lat="45.768420" lon="2.162760">
			 <ele>683</ele>
			<time>2016-06-12T20:43:45Z</time>
			</trkpt>
		
			<trkpt lat="45.768520" lon="2.162850">
			 <ele>684</ele>
			<time>2016-06-12T20:45:45Z</time>
			</trkpt>
		
			<trkpt lat="45.768580" lon="2.162920">
			 <ele>684</ele>
			<time>2016-06-12T20:47:45Z</time>
			</trkpt>
		
			<trkpt lat="45.768650" lon="2.163030">
			 <ele>684</ele>
			<time>2016-06-12T20:49:45Z</time>
			</trkpt>
		
			<trkpt lat="45.768710" lon="2.163160">
			 <ele>684</ele>
			<time>2016-06-12T20:51:45Z</time>
			</trkpt>
		
			<trkpt lat="45.768760" lon="2.163330">
			 <ele>683</ele>
			<time>2016-06-12T20:53:45Z</time>
			</trkpt>
		
			<trkpt lat="45.768820" lon="2.163440">
			 <ele>683</ele>
			<time>2016-06-12T20:55:45Z</time>
			</trkpt>
		
			<trkpt lat="45.768870" lon="2.163540">
			 <ele>682</ele>
			<time>2016-06-12T20:57:45Z</time>
			</trkpt>
		
			<trkpt lat="45.768910" lon="2.163610">
			 <ele>682</ele>
			<time>2016-06-12T20:59:45Z</time>
			</trkpt>
		
			<trkpt lat="45.768980" lon="2.163680">
			 <ele>681</ele>
			<time>2016-06-12T21:01:45Z</time>
			</trkpt>
		
			<trkpt lat="45.769080" lon="2.163790">
			 <ele>681</ele>
			<time>2016-06-12T21:03:45Z</time>
			</trkpt>
		
			<trkpt lat="45.769150" lon="2.163830">
			 <ele>681</ele>
			<time>2016-06-12T21:05:45Z</time>
			</trkpt>
		
			<trkpt lat="45.769260" lon="2.163890">
			 <ele>681</ele>
			<time>2016-06-12T21:07:45Z</time>
			</trkpt>
		
			<trkpt lat="45.769380" lon="2.163940">
			 <ele>681</ele>
			<time>2016-06-12T21:09:45Z</time>
			</trkpt>
		
			<trkpt lat="45.769540" lon="2.164000">
			 <ele>680</ele>
			<time>2016-06-12T21:11:45Z</time>
			</trkpt>
		
			<trkpt lat="45.769710" lon="2.164040">
			 <ele>680</ele>
			<time>2016-06-12T21:13:45Z</time>
			</trkpt>
		
			<trkpt lat="45.769880" lon="2.164090">
			 <ele>680</ele>
			<time>2016-06-12T21:15:45Z</time>
			</trkpt>
		
			<trkpt lat="45.770040" lon="2.164140">
			 <ele>679</ele>
			<time>2016-06-12T21:17:45Z</time>
			</trkpt>
		
			<trkpt lat="45.770190" lon="2.164200">
			 <ele>678</ele>
			<time>2016-06-12T21:19:45Z</time>
			</trkpt>
		
			<trkpt lat="45.770340" lon="2.164260">
			 <ele>676</ele>
			<time>2016-06-12T21:21:45Z</time>
			</trkpt>
		
			<trkpt lat="45.770450" lon="2.164310">
			 <ele>675</ele>
			<time>2016-06-12T21:23:45Z</time>
			</trkpt>
		
			<trkpt lat="45.770550" lon="2.164360">
			 <ele>674</ele>
			<time>2016-06-12T21:25:45Z</time>
			</trkpt>
		
			<trkpt lat="45.770630" lon="2.164370">
			 <ele>674</ele>
			<time>2016-06-12T21:27:45Z</time>
			</trkpt>
		
			<trkpt lat="45.770700" lon="2.164370">
			 <ele>673</ele>
			<time>2016-06-12T21:29:45Z</time>
			</trkpt>
		
			<trkpt lat="45.770790" lon="2.164370">
			 <ele>673</ele>
			<time>2016-06-12T21:31:45Z</time>
			</trkpt>
		
			<trkpt lat="45.770860" lon="2.164350">
			 <ele>673</ele>
			<time>2016-06-12T21:33:45Z</time>
			</trkpt>
		
			<trkpt lat="45.770940" lon="2.164320">
			 <ele>673</ele>
			<time>2016-06-12T21:35:45Z</time>
			</trkpt>
		
			<trkpt lat="45.771030" lon="2.164250">
			 <ele>673</ele>
			<time>2016-06-12T21:37:45Z</time>
			</trkpt>
		
			<trkpt lat="45.771130" lon="2.164140">
			 <ele>674</ele>
			<time>2016-06-12T21:39:45Z</time>
			</trkpt>
		
			<trkpt lat="45.771260" lon="2.163980">
			 <ele>675</ele>
			<time>2016-06-12T21:41:45Z</time>
			</trkpt>
		
			<trkpt lat="45.771370" lon="2.163830">
			 <ele>676</ele>
			<time>2016-06-12T21:43:45Z</time>
			</trkpt>
		
			<trkpt lat="45.771460" lon="2.163720">
			 <ele>676</ele>
			<time>2016-06-12T21:45:45Z</time>
			</trkpt>
		
			<trkpt lat="45.771520" lon="2.163660">
			 <ele>677</ele>
			<time>2016-06-12T21:47:45Z</time>
			</trkpt>
		
			<trkpt lat="45.771560" lon="2.163630">
			 <ele>677</ele>
			<time>2016-06-12T21:49:45Z</time>
			</trkpt>
		
			<trkpt lat="45.771620" lon="2.163610">
			 <ele>676</ele>
			<time>2016-06-12T21:51:45Z</time>
			</trkpt>
		
			<trkpt lat="45.771690" lon="2.163600">
			 <ele>675</ele>
			<time>2016-06-12T21:53:45Z</time>
			</trkpt>
		
			<trkpt lat="45.771770" lon="2.163630">
			 <ele>673</ele>
			<time>2016-06-12T21:55:45Z</time>
			</trkpt>
		
			<trkpt lat="45.771830" lon="2.163660">
			 <ele>672</ele>
			<time>2016-06-12T21:57:45Z</time>
			</trkpt>
		
			<trkpt lat="45.771890" lon="2.163690">
			 <ele>671</ele>
			<time>2016-06-12T21:59:45Z</time>
			</trkpt>
		
			<trkpt lat="45.772000" lon="2.163730">
			 <ele>669</ele>
			<time>2016-06-12T22:01:45Z</time>
			</trkpt>
		
			<trkpt lat="45.772100" lon="2.163760">
			 <ele>667</ele>
			<time>2016-06-12T22:03:45Z</time>
			</trkpt>
		
			<trkpt lat="45.772200" lon="2.163770">
			 <ele>666</ele>
			<time>2016-06-12T22:05:45Z</time>
			</trkpt>
		
			<trkpt lat="45.772310" lon="2.163780">
			 <ele>664</ele>
			<time>2016-06-12T22:07:45Z</time>
			</trkpt>
		
			<trkpt lat="45.772390" lon="2.163790">
			 <ele>663</ele>
			<time>2016-06-12T22:09:45Z</time>
			</trkpt>
		
			<trkpt lat="45.772530" lon="2.163790">
			 <ele>661</ele>
			<time>2016-06-12T22:11:45Z</time>
			</trkpt>
		
			<trkpt lat="45.772690" lon="2.163780">
			 <ele>659</ele>
			<time>2016-06-12T22:13:45Z</time>
			</trkpt>
		
			<trkpt lat="45.772800" lon="2.163790">
			 <ele>657</ele>
			<time>2016-06-12T22:15:45Z</time>
			</trkpt>
		
			<trkpt lat="45.772930" lon="2.163760">
			 <ele>655</ele>
			<time>2016-06-12T22:17:45Z</time>
			</trkpt>
		
			<trkpt lat="45.773040" lon="2.163730">
			 <ele>654</ele>
			<time>2016-06-12T22:19:45Z</time>
			</trkpt>
		
			<trkpt lat="45.773160" lon="2.163670">
			 <ele>652</ele>
			<time>2016-06-12T22:21:45Z</time>
			</trkpt>
		
			<trkpt lat="45.773270" lon="2.163610">
			 <ele>651</ele>
			<time>2016-06-12T22:23:45Z</time>
			</trkpt>
		
			<trkpt lat="45.773370" lon="2.163540">
			 <ele>650</ele>
			<time>2016-06-12T22:25:45Z</time>
			</trkpt>
		
			<trkpt lat="45.773490" lon="2.163460">
			 <ele>650</ele>
			<time>2016-06-12T22:27:45Z</time>
			</trkpt>
		
			<trkpt lat="45.773620" lon="2.163410">
			 <ele>649</ele>
			<time>2016-06-12T22:29:45Z</time>
			</trkpt>
		
			<trkpt lat="45.773700" lon="2.163390">
			 <ele>649</ele>
			<time>2016-06-12T22:31:45Z</time>
			</trkpt>
		
			<trkpt lat="45.773720" lon="2.163380">
			 <ele>649</ele>
			<time>2016-06-12T22:33:45Z</time>
			</trkpt>
		
			<trkpt lat="45.773780" lon="2.163370">
			 <ele>648</ele>
			<time>2016-06-12T22:35:45Z</time>
			</trkpt>
		
			<trkpt lat="45.773850" lon="2.163360">
			 <ele>648</ele>
			<time>2016-06-12T22:37:45Z</time>
			</trkpt>
		
			<trkpt lat="45.773960" lon="2.163370">
			 <ele>647</ele>
			<time>2016-06-12T22:39:45Z</time>
			</trkpt>
		
			<trkpt lat="45.774060" lon="2.163370">
			 <ele>646</ele>
			<time>2016-06-12T22:41:45Z</time>
			</trkpt>
		
			<trkpt lat="45.774190" lon="2.163380">
			 <ele>646</ele>
			<time>2016-06-12T22:43:45Z</time>
			</trkpt>
		
			<trkpt lat="45.774300" lon="2.163370">
			 <ele>645</ele>
			<time>2016-06-12T22:45:45Z</time>
			</trkpt>
		
			<trkpt lat="45.774400" lon="2.163350">
			 <ele>645</ele>
			<time>2016-06-12T22:47:45Z</time>
			</trkpt>
		
			<trkpt lat="45.774530" lon="2.163300">
			 <ele>644</ele>
			<time>2016-06-12T22:49:45Z</time>
			</trkpt>
		
			<trkpt lat="45.774560" lon="2.163280">
			 <ele>644</ele>
			<time>2016-06-12T22:51:45Z</time>
			</trkpt>
		
			<trkpt lat="45.774660" lon="2.163240">
			 <ele>644</ele>
			<time>2016-06-12T22:53:45Z</time>
			</trkpt>
		
			<trkpt lat="45.774800" lon="2.163180">
			 <ele>644</ele>
			<time>2016-06-12T22:55:45Z</time>
			</trkpt>
		
			<trkpt lat="45.774900" lon="2.163120">
			 <ele>644</ele>
			<time>2016-06-12T22:57:45Z</time>
			</trkpt>
		
			<trkpt lat="45.775000" lon="2.163090">
			 <ele>644</ele>
			<time>2016-06-12T22:59:45Z</time>
			</trkpt>
		
			<trkpt lat="45.775160" lon="2.163020">
			 <ele>643</ele>
			<time>2016-06-12T23:01:45Z</time>
			</trkpt>
		
			<trkpt lat="45.775280" lon="2.162940">
			 <ele>643</ele>
			<time>2016-06-12T23:03:45Z</time>
			</trkpt>
		
			<trkpt lat="45.775330" lon="2.162900">
			 <ele>643</ele>
			<time>2016-06-12T23:05:45Z</time>
			</trkpt>
		
			<trkpt lat="45.775370" lon="2.162870">
			 <ele>643</ele>
			<time>2016-06-12T23:07:45Z</time>
			</trkpt>
		
			<trkpt lat="45.775460" lon="2.162790">
			 <ele>643</ele>
			<time>2016-06-12T23:09:45Z</time>
			</trkpt>
		
			<trkpt lat="45.775550" lon="2.162720">
			 <ele>643</ele>
			<time>2016-06-12T23:11:45Z</time>
			</trkpt>
		
			<trkpt lat="45.775630" lon="2.162630">
			 <ele>643</ele>
			<time>2016-06-12T23:13:45Z</time>
			</trkpt>
		
			<trkpt lat="45.775700" lon="2.162550">
			 <ele>643</ele>
			<time>2016-06-12T23:15:45Z</time>
			</trkpt>
		
			<trkpt lat="45.775760" lon="2.162490">
			 <ele>644</ele>
			<time>2016-06-12T23:17:45Z</time>
			</trkpt>
		
			<trkpt lat="45.775780" lon="2.162490">
			 <ele>643</ele>
			<time>2016-06-12T23:19:45Z</time>
			</trkpt>
		
			<trkpt lat="45.775840" lon="2.162460">
			 <ele>643</ele>
			<time>2016-06-12T23:21:45Z</time>
			</trkpt>
		
			<trkpt lat="45.775930" lon="2.162450">
			 <ele>643</ele>
			<time>2016-06-12T23:23:45Z</time>
			</trkpt>
		
			<trkpt lat="45.776020" lon="2.162450">
			 <ele>642</ele>
			<time>2016-06-12T23:25:45Z</time>
			</trkpt>
		
			<trkpt lat="45.776110" lon="2.162460">
			 <ele>641</ele>
			<time>2016-06-12T23:27:45Z</time>
			</trkpt>
		
			<trkpt lat="45.776160" lon="2.162460">
			 <ele>641</ele>
			<time>2016-06-12T23:29:45Z</time>
			</trkpt>
		
			<trkpt lat="45.776200" lon="2.162450">
			 <ele>640</ele>
			<time>2016-06-12T23:31:45Z</time>
			</trkpt>
		
			<trkpt lat="45.776240" lon="2.162440">
			 <ele>640</ele>
			<time>2016-06-12T23:33:45Z</time>
			</trkpt>
		
			<trkpt lat="45.776280" lon="2.162420">
			 <ele>640</ele>
			<time>2016-06-12T23:35:45Z</time>
			</trkpt>
		
			<trkpt lat="45.776360" lon="2.162380">
			 <ele>640</ele>
			<time>2016-06-12T23:37:45Z</time>
			</trkpt>
		
			<trkpt lat="45.776470" lon="2.162320">
			 <ele>639</ele>
			<time>2016-06-12T23:39:45Z</time>
			</trkpt>
		
			<trkpt lat="45.776490" lon="2.162310">
			 <ele>639</ele>
			<time>2016-06-12T23:41:45Z</time>
			</trkpt>
		
			<trkpt lat="45.776590" lon="2.162260">
			 <ele>639</ele>
			<time>2016-06-12T23:43:45Z</time>
			</trkpt>
		
			<trkpt lat="45.776670" lon="2.162220">
			 <ele>638</ele>
			<time>2016-06-12T23:45:45Z</time>
			</trkpt>
		
			<trkpt lat="45.776740" lon="2.162210">
			 <ele>638</ele>
			<time>2016-06-12T23:47:45Z</time>
			</trkpt>
		
			<trkpt lat="45.776810" lon="2.162200">
			 <ele>637</ele>
			<time>2016-06-12T23:49:45Z</time>
			</trkpt>
		
			<trkpt lat="45.776860" lon="2.162210">
			 <ele>637</ele>
			<time>2016-06-12T23:51:45Z</time>
			</trkpt>
		
			<trkpt lat="45.776910" lon="2.162230">
			 <ele>637</ele>
			<time>2016-06-12T23:53:45Z</time>
			</trkpt>
		
			<trkpt lat="45.776980" lon="2.162250">
			 <ele>636</ele>
			<time>2016-06-12T23:55:45Z</time>
			</trkpt>
		
			<trkpt lat="45.777040" lon="2.162290">
			 <ele>635</ele>
			<time>2016-06-12T23:57:45Z</time>
			</trkpt>
		
			<trkpt lat="45.777180" lon="2.162380">
			 <ele>634</ele>
			<time>2016-06-12T23:59:45Z</time>
			</trkpt>
		
			<trkpt lat="45.777290" lon="2.162460">
			 <ele>632</ele>
			<time>2016-06-13T00:01:45Z</time>
			</trkpt>
		
			<trkpt lat="45.777420" lon="2.162560">
			 <ele>632</ele>
			<time>2016-06-13T00:03:45Z</time>
			</trkpt>
		
			<trkpt lat="45.777470" lon="2.162610">
			 <ele>632</ele>
			<time>2016-06-13T00:05:45Z</time>
			</trkpt>
		
			<trkpt lat="45.777510" lon="2.162660">
			 <ele>632</ele>
			<time>2016-06-13T00:07:45Z</time>
			</trkpt>
		
			<trkpt lat="45.777540" lon="2.162700">
			 <ele>632</ele>
			<time>2016-06-13T00:09:45Z</time>
			</trkpt>
		
			<trkpt lat="45.777540" lon="2.162700">
			 <ele>632</ele>
			<time>2016-06-13T00:11:45Z</time>
			</trkpt>
		
			<trkpt lat="45.777500" lon="2.162780">
			 <ele>632</ele>
			<time>2016-06-13T00:13:45Z</time>
			</trkpt>
		
			<trkpt lat="45.777450" lon="2.162860">
			 <ele>633</ele>
			<time>2016-06-13T00:15:45Z</time>
			</trkpt>
		
			<trkpt lat="45.777390" lon="2.162950">
			 <ele>634</ele>
			<time>2016-06-13T00:17:45Z</time>
			</trkpt>
		
			<trkpt lat="45.777280" lon="2.163060">
			 <ele>634</ele>
			<time>2016-06-13T00:19:45Z</time>
			</trkpt>
		
			<trkpt lat="45.777180" lon="2.163150">
			 <ele>635</ele>
			<time>2016-06-13T00:21:45Z</time>
			</trkpt>
		
			<trkpt lat="45.777090" lon="2.163200">
			 <ele>636</ele>
			<time>2016-06-13T00:23:45Z</time>
			</trkpt>
		
			<trkpt lat="45.776950" lon="2.163280">
			 <ele>636</ele>
			<time>2016-06-13T00:25:45Z</time>
			</trkpt>
		
			<trkpt lat="45.776950" lon="2.163280">
			 <ele>636</ele>
			<time>2016-06-13T00:27:45Z</time>
			</trkpt>
		
			<trkpt lat="45.776970" lon="2.163340">
			 <ele>636</ele>
			<time>2016-06-13T00:29:45Z</time>
			</trkpt>
		
			<trkpt lat="45.776990" lon="2.163370">
			 <ele>637</ele>
			<time>2016-06-13T00:31:45Z</time>
			</trkpt>
		
			<trkpt lat="45.777010" lon="2.163390">
			 <ele>637</ele>
			<time>2016-06-13T00:33:45Z</time>
			</trkpt>
		
			<trkpt lat="45.777050" lon="2.163400">
			 <ele>637</ele>
			<time>2016-06-13T00:35:45Z</time>
			</trkpt>
		
			<trkpt lat="45.777070" lon="2.163390">
			 <ele>637</ele>
			<time>2016-06-13T00:37:45Z</time>
			</trkpt>
		
			<trkpt lat="45.777100" lon="2.163390">
			 <ele>637</ele>
			<time>2016-06-13T00:39:45Z</time>
			</trkpt>
		
			<trkpt lat="45.777210" lon="2.163350">
			 <ele>636</ele>
			<time>2016-06-13T00:41:45Z</time>
			</trkpt>
		
			<trkpt lat="45.777250" lon="2.163330">
			 <ele>636</ele>
			<time>2016-06-13T00:43:45Z</time>
			</trkpt>
		
			<trkpt lat="45.777280" lon="2.163310">
			 <ele>635</ele>
			<time>2016-06-13T00:45:45Z</time>
			</trkpt>
		
			<trkpt lat="45.777380" lon="2.163270">
			 <ele>635</ele>
			<time>2016-06-13T00:47:45Z</time>
			</trkpt>
		
			<trkpt lat="45.777530" lon="2.163200">
			 <ele>635</ele>
			<time>2016-06-13T00:49:45Z</time>
			</trkpt>
		
			<trkpt lat="45.777650" lon="2.163150">
			 <ele>635</ele>
			<time>2016-06-13T00:51:45Z</time>
			</trkpt>
		
			<trkpt lat="45.777710" lon="2.163110">
			 <ele>635</ele>
			<time>2016-06-13T00:53:45Z</time>
			</trkpt>
		
			<trkpt lat="45.777710" lon="2.163110">
			 <ele>635</ele>
			<time>2016-06-13T00:55:45Z</time>
			</trkpt>
		
			<trkpt lat="45.777730" lon="2.163150">
			 <ele>636</ele>
			<time>2016-06-13T00:57:45Z</time>
			</trkpt>
		
			<trkpt lat="45.777770" lon="2.163230">
			 <ele>637</ele>
			<time>2016-06-13T00:59:45Z</time>
			</trkpt>
		
			<trkpt lat="45.777800" lon="2.163290">
			 <ele>637</ele>
			<time>2016-06-13T01:01:45Z</time>
			</trkpt>
		
			<trkpt lat="45.777810" lon="2.163300">
			 <ele>637</ele>
			<time>2016-06-13T01:03:45Z</time>
			</trkpt>
		
			<trkpt lat="45.777820" lon="2.163350">
			 <ele>638</ele>
			<time>2016-06-13T01:05:45Z</time>
			</trkpt>
		
			<trkpt lat="45.777840" lon="2.163430">
			 <ele>638</ele>
			<time>2016-06-13T01:07:45Z</time>
			</trkpt>
		
			<trkpt lat="45.777850" lon="2.163540">
			 <ele>639</ele>
			<time>2016-06-13T01:09:45Z</time>
			</trkpt>
		
			<trkpt lat="45.777870" lon="2.163720">
			 <ele>641</ele>
			<time>2016-06-13T01:11:45Z</time>
			</trkpt>
		
			<trkpt lat="45.777880" lon="2.163760">
			 <ele>641</ele>
			<time>2016-06-13T01:13:45Z</time>
			</trkpt>
		
			<trkpt lat="45.777910" lon="2.164050">
			 <ele>643</ele>
			<time>2016-06-13T01:15:45Z</time>
			</trkpt>
		
			<trkpt lat="45.777950" lon="2.164440">
			 <ele>645</ele>
			<time>2016-06-13T01:17:45Z</time>
			</trkpt>
		
			<trkpt lat="45.777980" lon="2.164790">
			 <ele>647</ele>
			<time>2016-06-13T01:19:45Z</time>
			</trkpt>
		
			<trkpt lat="45.778010" lon="2.165050">
			 <ele>648</ele>
			<time>2016-06-13T01:21:45Z</time>
			</trkpt>
		
			<trkpt lat="45.778020" lon="2.165190">
			 <ele>649</ele>
			<time>2016-06-13T01:23:45Z</time>
			</trkpt>
		
			<trkpt lat="45.778030" lon="2.165280">
			 <ele>650</ele>
			<time>2016-06-13T01:25:45Z</time>
			</trkpt>
		
			<trkpt lat="45.778020" lon="2.165340">
			 <ele>650</ele>
			<time>2016-06-13T01:27:45Z</time>
			</trkpt>
		
			<trkpt lat="45.778020" lon="2.165390">
			 <ele>651</ele>
			<time>2016-06-13T01:29:45Z</time>
			</trkpt>
		
			<trkpt lat="45.778010" lon="2.165440">
			 <ele>651</ele>
			<time>2016-06-13T01:31:45Z</time>
			</trkpt>
		
			<trkpt lat="45.778000" lon="2.165500">
			 <ele>651</ele>
			<time>2016-06-13T01:33:45Z</time>
			</trkpt>
		
			<trkpt lat="45.777980" lon="2.165580">
			 <ele>651</ele>
			<time>2016-06-13T01:35:45Z</time>
			</trkpt>
		
			<trkpt lat="45.777950" lon="2.165660">
			 <ele>651</ele>
			<time>2016-06-13T01:37:45Z</time>
			</trkpt>
		
			<trkpt lat="45.777920" lon="2.165780">
			 <ele>651</ele>
			<time>2016-06-13T01:39:45Z</time>
			</trkpt>
		
			<trkpt lat="45.777890" lon="2.165890">
			 <ele>651</ele>
			<time>2016-06-13T01:41:45Z</time>
			</trkpt>
		
			<trkpt lat="45.777800" lon="2.166190">
			 <ele>650</ele>
			<time>2016-06-13T01:43:45Z</time>
			</trkpt>
		
			<trkpt lat="45.777720" lon="2.166480">
			 <ele>650</ele>
			<time>2016-06-13T01:45:45Z</time>
			</trkpt>
		
			<trkpt lat="45.777700" lon="2.166580">
			 <ele>650</ele>
			<time>2016-06-13T01:47:45Z</time>
			</trkpt>
		
			<trkpt lat="45.777710" lon="2.166670">
			 <ele>651</ele>
			<time>2016-06-13T01:49:45Z</time>
			</trkpt>
		
			<trkpt lat="45.777730" lon="2.166760">
			 <ele>652</ele>
			<time>2016-06-13T01:51:45Z</time>
			</trkpt>
		
			<trkpt lat="45.777760" lon="2.166820">
			 <ele>652</ele>
			<time>2016-06-13T01:53:45Z</time>
			</trkpt>
		
			<trkpt lat="45.777790" lon="2.166870">
			 <ele>653</ele>
			<time>2016-06-13T01:55:45Z</time>
			</trkpt>
		
			<trkpt lat="45.777830" lon="2.166910">
			 <ele>654</ele>
			<time>2016-06-13T01:57:45Z</time>
			</trkpt>
		
			<trkpt lat="45.777840" lon="2.166910">
			 <ele>654</ele>
			<time>2016-06-13T01:59:45Z</time>
			</trkpt>
		
			<trkpt lat="45.777880" lon="2.166930">
			 <ele>655</ele>
			<time>2016-06-13T02:01:45Z</time>
			</trkpt>
		
			<trkpt lat="45.777900" lon="2.166930">
			 <ele>655</ele>
			<time>2016-06-13T02:03:45Z</time>
			</trkpt>
		
			<trkpt lat="45.777920" lon="2.166930">
			 <ele>656</ele>
			<time>2016-06-13T02:05:45Z</time>
			</trkpt>
		
			<trkpt lat="45.777970" lon="2.166920">
			 <ele>656</ele>
			<time>2016-06-13T02:07:45Z</time>
			</trkpt>
		
			<trkpt lat="45.778020" lon="2.166880">
			 <ele>657</ele>
			<time>2016-06-13T02:09:45Z</time>
			</trkpt>
		
			<trkpt lat="45.778060" lon="2.166830">
			 <ele>657</ele>
			<time>2016-06-13T02:11:45Z</time>
			</trkpt>
		
			<trkpt lat="45.778080" lon="2.166790">
			 <ele>658</ele>
			<time>2016-06-13T02:13:45Z</time>
			</trkpt>
		
			<trkpt lat="45.778100" lon="2.166740">
			 <ele>658</ele>
			<time>2016-06-13T02:15:45Z</time>
			</trkpt>
		
			<trkpt lat="45.778120" lon="2.166690">
			 <ele>658</ele>
			<time>2016-06-13T02:17:45Z</time>
			</trkpt>
		
			<trkpt lat="45.778130" lon="2.166630">
			 <ele>658</ele>
			<time>2016-06-13T02:19:45Z</time>
			</trkpt>
		
			<trkpt lat="45.778140" lon="2.166490">
			 <ele>658</ele>
			<time>2016-06-13T02:21:45Z</time>
			</trkpt>
		
			<trkpt lat="45.778160" lon="2.166400">
			 <ele>658</ele>
			<time>2016-06-13T02:23:45Z</time>
			</trkpt>
		
			<trkpt lat="45.778200" lon="2.166280">
			 <ele>658</ele>
			<time>2016-06-13T02:25:45Z</time>
			</trkpt>
		
			<trkpt lat="45.778250" lon="2.166160">
			 <ele>659</ele>
			<time>2016-06-13T02:27:45Z</time>
			</trkpt>
		
			<trkpt lat="45.778350" lon="2.165980">
			 <ele>660</ele>
			<time>2016-06-13T02:29:45Z</time>
			</trkpt>
		
			<trkpt lat="45.778460" lon="2.165820">
			 <ele>662</ele>
			<time>2016-06-13T02:31:45Z</time>
			</trkpt>
		
			<trkpt lat="45.778540" lon="2.165680">
			 <ele>663</ele>
			<time>2016-06-13T02:33:45Z</time>
			</trkpt>
		
			<trkpt lat="45.778600" lon="2.165550">
			 <ele>664</ele>
			<time>2016-06-13T02:35:45Z</time>
			</trkpt>
		
			<trkpt lat="45.778680" lon="2.165350">
			 <ele>665</ele>
			<time>2016-06-13T02:37:45Z</time>
			</trkpt>
		
			<trkpt lat="45.778750" lon="2.165160">
			 <ele>666</ele>
			<time>2016-06-13T02:39:45Z</time>
			</trkpt>
		
			<trkpt lat="45.778810" lon="2.165030">
			 <ele>666</ele>
			<time>2016-06-13T02:41:45Z</time>
			</trkpt>
		
			<trkpt lat="45.778880" lon="2.164920">
			 <ele>667</ele>
			<time>2016-06-13T02:43:45Z</time>
			</trkpt>
		
			<trkpt lat="45.778960" lon="2.164800">
			 <ele>668</ele>
			<time>2016-06-13T02:45:45Z</time>
			</trkpt>
		
			<trkpt lat="45.779040" lon="2.164700">
			 <ele>669</ele>
			<time>2016-06-13T02:47:45Z</time>
			</trkpt>
		
			<trkpt lat="45.779130" lon="2.164620">
			 <ele>670</ele>
			<time>2016-06-13T02:49:45Z</time>
			</trkpt>
		
			<trkpt lat="45.779230" lon="2.164540">
			 <ele>671</ele>
			<time>2016-06-13T02:51:45Z</time>
			</trkpt>
		
			<trkpt lat="45.779310" lon="2.164500">
			 <ele>672</ele>
			<time>2016-06-13T02:53:45Z</time>
			</trkpt>
		
			<trkpt lat="45.779400" lon="2.164460">
			 <ele>673</ele>
			<time>2016-06-13T02:55:45Z</time>
			</trkpt>
		
			<trkpt lat="45.779510" lon="2.164430">
			 <ele>674</ele>
			<time>2016-06-13T02:57:45Z</time>
			</trkpt>
		
			<trkpt lat="45.779620" lon="2.164420">
			 <ele>675</ele>
			<time>2016-06-13T02:59:45Z</time>
			</trkpt>
		
			<trkpt lat="45.779720" lon="2.164430">
			 <ele>676</ele>
			<time>2016-06-13T03:01:45Z</time>
			</trkpt>
		
			<trkpt lat="45.779820" lon="2.164460">
			 <ele>678</ele>
			<time>2016-06-13T03:03:45Z</time>
			</trkpt>
		
			<trkpt lat="45.779920" lon="2.164510">
			 <ele>680</ele>
			<time>2016-06-13T03:05:45Z</time>
			</trkpt>
		
			<trkpt lat="45.780030" lon="2.164560">
			 <ele>682</ele>
			<time>2016-06-13T03:07:45Z</time>
			</trkpt>
		
			<trkpt lat="45.780150" lon="2.164610">
			 <ele>684</ele>
			<time>2016-06-13T03:09:45Z</time>
			</trkpt>
		
			<trkpt lat="45.780250" lon="2.164640">
			 <ele>686</ele>
			<time>2016-06-13T03:11:45Z</time>
			</trkpt>
		
			<trkpt lat="45.780320" lon="2.164650">
			 <ele>687</ele>
			<time>2016-06-13T03:13:45Z</time>
			</trkpt>
		
			<trkpt lat="45.780370" lon="2.164640">
			 <ele>687</ele>
			<time>2016-06-13T03:15:45Z</time>
			</trkpt>
		
			<trkpt lat="45.780440" lon="2.164590">
			 <ele>688</ele>
			<time>2016-06-13T03:17:45Z</time>
			</trkpt>
		
			<trkpt lat="45.780560" lon="2.164460">
			 <ele>688</ele>
			<time>2016-06-13T03:19:45Z</time>
			</trkpt>
		
			<trkpt lat="45.780660" lon="2.164290">
			 <ele>688</ele>
			<time>2016-06-13T03:21:45Z</time>
			</trkpt>
		
			<trkpt lat="45.780750" lon="2.164120">
			 <ele>689</ele>
			<time>2016-06-13T03:23:45Z</time>
			</trkpt>
		
			<trkpt lat="45.780840" lon="2.163920">
			 <ele>690</ele>
			<time>2016-06-13T03:25:45Z</time>
			</trkpt>
		
			<trkpt lat="45.780910" lon="2.163710">
			 <ele>691</ele>
			<time>2016-06-13T03:27:45Z</time>
			</trkpt>
		
			<trkpt lat="45.780960" lon="2.163520">
			 <ele>692</ele>
			<time>2016-06-13T03:29:45Z</time>
			</trkpt>
		
			<trkpt lat="45.781000" lon="2.163330">
			 <ele>693</ele>
			<time>2016-06-13T03:31:45Z</time>
			</trkpt>
		
			<trkpt lat="45.781060" lon="2.163120">
			 <ele>692</ele>
			<time>2016-06-13T03:33:45Z</time>
			</trkpt>
		
			<trkpt lat="45.781140" lon="2.162900">
			 <ele>692</ele>
			<time>2016-06-13T03:35:45Z</time>
			</trkpt>
		
			<trkpt lat="45.781220" lon="2.162720">
			 <ele>693</ele>
			<time>2016-06-13T03:37:45Z</time>
			</trkpt>
		
			<trkpt lat="45.781300" lon="2.162560">
			 <ele>693</ele>
			<time>2016-06-13T03:39:45Z</time>
			</trkpt>
		
			<trkpt lat="45.781380" lon="2.162450">
			 <ele>693</ele>
			<time>2016-06-13T03:41:45Z</time>
			</trkpt>
		
			<trkpt lat="45.781470" lon="2.162350">
			 <ele>694</ele>
			<time>2016-06-13T03:43:45Z</time>
			</trkpt>
		
			<trkpt lat="45.781540" lon="2.162270">
			 <ele>694</ele>
			<time>2016-06-13T03:45:45Z</time>
			</trkpt>
		
			<trkpt lat="45.781620" lon="2.162210">
			 <ele>694</ele>
			<time>2016-06-13T03:47:45Z</time>
			</trkpt>
		
			<trkpt lat="45.781680" lon="2.162180">
			 <ele>694</ele>
			<time>2016-06-13T03:49:45Z</time>
			</trkpt>
		
			<trkpt lat="45.781780" lon="2.162150">
			 <ele>694</ele>
			<time>2016-06-13T03:51:45Z</time>
			</trkpt>
		
			<trkpt lat="45.781840" lon="2.162150">
			 <ele>695</ele>
			<time>2016-06-13T03:53:45Z</time>
			</trkpt>
		
			<trkpt lat="45.781890" lon="2.162160">
			 <ele>695</ele>
			<time>2016-06-13T03:55:45Z</time>
			</trkpt>
		
			<trkpt lat="45.781940" lon="2.162190">
			 <ele>695</ele>
			<time>2016-06-13T03:57:45Z</time>
			</trkpt>
		
			<trkpt lat="45.781970" lon="2.162240">
			 <ele>696</ele>
			<time>2016-06-13T03:59:45Z</time>
			</trkpt>
		
			<trkpt lat="45.782000" lon="2.162300">
			 <ele>697</ele>
			<time>2016-06-13T04:01:45Z</time>
			</trkpt>
		
			<trkpt lat="45.782010" lon="2.162350">
			 <ele>698</ele>
			<time>2016-06-13T04:03:45Z</time>
			</trkpt>
		
			<trkpt lat="45.782000" lon="2.162420">
			 <ele>699</ele>
			<time>2016-06-13T04:05:45Z</time>
			</trkpt>
		
			<trkpt lat="45.781990" lon="2.162480">
			 <ele>700</ele>
			<time>2016-06-13T04:07:45Z</time>
			</trkpt>
		
			<trkpt lat="45.781960" lon="2.162540">
			 <ele>701</ele>
			<time>2016-06-13T04:09:45Z</time>
			</trkpt>
		
			<trkpt lat="45.781880" lon="2.162630">
			 <ele>702</ele>
			<time>2016-06-13T04:11:45Z</time>
			</trkpt>
		
			<trkpt lat="45.781820" lon="2.162710">
			 <ele>702</ele>
			<time>2016-06-13T04:13:45Z</time>
			</trkpt>
		
			<trkpt lat="45.781780" lon="2.162780">
			 <ele>703</ele>
			<time>2016-06-13T04:15:45Z</time>
			</trkpt>
		
			<trkpt lat="45.781750" lon="2.162840">
			 <ele>703</ele>
			<time>2016-06-13T04:17:45Z</time>
			</trkpt>
		
			<trkpt lat="45.781740" lon="2.162920">
			 <ele>704</ele>
			<time>2016-06-13T04:19:45Z</time>
			</trkpt>
		
			<trkpt lat="45.781720" lon="2.163020">
			 <ele>704</ele>
			<time>2016-06-13T04:21:45Z</time>
			</trkpt>
		
			<trkpt lat="45.781720" lon="2.163160">
			 <ele>706</ele>
			<time>2016-06-13T04:23:45Z</time>
			</trkpt>
		
			<trkpt lat="45.781730" lon="2.163520">
			 <ele>709</ele>
			<time>2016-06-13T04:25:45Z</time>
			</trkpt>
		
			<trkpt lat="45.781740" lon="2.163990">
			 <ele>712</ele>
			<time>2016-06-13T04:27:45Z</time>
			</trkpt>
		
			<trkpt lat="45.781750" lon="2.164210">
			 <ele>713</ele>
			<time>2016-06-13T04:29:45Z</time>
			</trkpt>
		
			<trkpt lat="45.781770" lon="2.164330">
			 <ele>714</ele>
			<time>2016-06-13T04:31:45Z</time>
			</trkpt>
		
			<trkpt lat="45.781790" lon="2.164430">
			 <ele>714</ele>
			<time>2016-06-13T04:33:45Z</time>
			</trkpt>
		
			<trkpt lat="45.781830" lon="2.164570">
			 <ele>715</ele>
			<time>2016-06-13T04:35:45Z</time>
			</trkpt>
		
			<trkpt lat="45.781880" lon="2.164720">
			 <ele>716</ele>
			<time>2016-06-13T04:37:45Z</time>
			</trkpt>
		
			<trkpt lat="45.781960" lon="2.164920">
			 <ele>718</ele>
			<time>2016-06-13T04:39:45Z</time>
			</trkpt>
		
			<trkpt lat="45.782060" lon="2.165170">
			 <ele>720</ele>
			<time>2016-06-13T04:41:45Z</time>
			</trkpt>
		
			<trkpt lat="45.782100" lon="2.165240">
			 <ele>721</ele>
			<time>2016-06-13T04:43:45Z</time>
			</trkpt>
		
			<trkpt lat="45.782110" lon="2.165260">
			 <ele>721</ele>
			<time>2016-06-13T04:45:45Z</time>
			</trkpt>
		
			<trkpt lat="45.782140" lon="2.165310">
			 <ele>722</ele>
			<time>2016-06-13T04:47:45Z</time>
			</trkpt>
		
			<trkpt lat="45.782200" lon="2.165370">
			 <ele>723</ele>
			<time>2016-06-13T04:49:45Z</time>
			</trkpt>
		
			<trkpt lat="45.782260" lon="2.165440">
			 <ele>725</ele>
			<time>2016-06-13T04:51:45Z</time>
			</trkpt>
		
			<trkpt lat="45.782300" lon="2.165500">
			 <ele>726</ele>
			<time>2016-06-13T04:53:45Z</time>
			</trkpt>
		
			<trkpt lat="45.782350" lon="2.165600">
			 <ele>727</ele>
			<time>2016-06-13T04:55:45Z</time>
			</trkpt>
		
			<trkpt lat="45.782390" lon="2.165760">
			 <ele>729</ele>
			<time>2016-06-13T04:57:45Z</time>
			</trkpt>
		
			<trkpt lat="45.782430" lon="2.166000">
			 <ele>730</ele>
			<time>2016-06-13T04:59:45Z</time>
			</trkpt>
		
			<trkpt lat="45.782470" lon="2.166190">
			 <ele>731</ele>
			<time>2016-06-13T05:01:45Z</time>
			</trkpt>
		
			<trkpt lat="45.782480" lon="2.166240">
			 <ele>731</ele>
			<time>2016-06-13T05:03:45Z</time>
			</trkpt>
		
			<trkpt lat="45.782500" lon="2.166300">
			 <ele>732</ele>
			<time>2016-06-13T05:05:45Z</time>
			</trkpt>
		
			<trkpt lat="45.782520" lon="2.166390">
			 <ele>732</ele>
			<time>2016-06-13T05:07:45Z</time>
			</trkpt>
		
			<trkpt lat="45.782550" lon="2.166460">
			 <ele>732</ele>
			<time>2016-06-13T05:09:45Z</time>
			</trkpt>
		
			<trkpt lat="45.782580" lon="2.166520">
			 <ele>732</ele>
			<time>2016-06-13T05:11:45Z</time>
			</trkpt>
		
			<trkpt lat="45.782640" lon="2.166580">
			 <ele>733</ele>
			<time>2016-06-13T05:13:45Z</time>
			</trkpt>
		
			<trkpt lat="45.782740" lon="2.166680">
			 <ele>734</ele>
			<time>2016-06-13T05:15:45Z</time>
			</trkpt>
		
			<trkpt lat="45.782910" lon="2.166820">
			 <ele>735</ele>
			<time>2016-06-13T05:17:45Z</time>
			</trkpt>
		
			<trkpt lat="45.783080" lon="2.166950">
			 <ele>737</ele>
			<time>2016-06-13T05:19:45Z</time>
			</trkpt>
		
			<trkpt lat="45.783150" lon="2.167010">
			 <ele>738</ele>
			<time>2016-06-13T05:21:45Z</time>
			</trkpt>
		
			<trkpt lat="45.783240" lon="2.167090">
			 <ele>738</ele>
			<time>2016-06-13T05:23:45Z</time>
			</trkpt>
		
			<trkpt lat="45.783310" lon="2.167140">
			 <ele>739</ele>
			<time>2016-06-13T05:25:45Z</time>
			</trkpt>
		
			<trkpt lat="45.783380" lon="2.167200">
			 <ele>740</ele>
			<time>2016-06-13T05:27:45Z</time>
			</trkpt>
		
			<trkpt lat="45.783570" lon="2.167330">
			 <ele>740</ele>
			<time>2016-06-13T05:29:45Z</time>
			</trkpt>
		
			<trkpt lat="45.783740" lon="2.167460">
			 <ele>740</ele>
			<time>2016-06-13T05:31:45Z</time>
			</trkpt>
		
			<trkpt lat="45.783820" lon="2.167530">
			 <ele>740</ele>
			<time>2016-06-13T05:33:45Z</time>
			</trkpt>
		
			<trkpt lat="45.783880" lon="2.167580">
			 <ele>740</ele>
			<time>2016-06-13T05:35:45Z</time>
			</trkpt>
		
			<trkpt lat="45.783930" lon="2.167640">
			 <ele>740</ele>
			<time>2016-06-13T05:37:45Z</time>
			</trkpt>
		
			<trkpt lat="45.784020" lon="2.167790">
			 <ele>741</ele>
			<time>2016-06-13T05:39:45Z</time>
			</trkpt>
		
			<trkpt lat="45.784150" lon="2.168020">
			 <ele>743</ele>
			<time>2016-06-13T05:41:45Z</time>
			</trkpt>
		
			<trkpt lat="45.784340" lon="2.168380">
			 <ele>746</ele>
			<time>2016-06-13T05:43:45Z</time>
			</trkpt>
		
			<trkpt lat="45.784490" lon="2.168680">
			 <ele>748</ele>
			<time>2016-06-13T05:45:45Z</time>
			</trkpt>
		
			<trkpt lat="45.784670" lon="2.169010">
			 <ele>750</ele>
			<time>2016-06-13T05:47:45Z</time>
			</trkpt>
		
			<trkpt lat="45.784850" lon="2.169360">
			 <ele>752</ele>
			<time>2016-06-13T05:49:45Z</time>
			</trkpt>
		
			<trkpt lat="45.784940" lon="2.169500">
			 <ele>752</ele>
			<time>2016-06-13T05:51:45Z</time>
			</trkpt>
		
			<trkpt lat="45.785080" lon="2.169700">
			 <ele>754</ele>
			<time>2016-06-13T05:53:45Z</time>
			</trkpt>
		
			<trkpt lat="45.785160" lon="2.169800">
			 <ele>754</ele>
			<time>2016-06-13T05:55:45Z</time>
			</trkpt>
		
			<trkpt lat="45.785250" lon="2.169880">
			 <ele>755</ele>
			<time>2016-06-13T05:57:45Z</time>
			</trkpt>
		
			<trkpt lat="45.785360" lon="2.169990">
			 <ele>756</ele>
			<time>2016-06-13T05:59:45Z</time>
			</trkpt>
		
			<trkpt lat="45.785490" lon="2.170160">
			 <ele>758</ele>
			<time>2016-06-13T06:01:45Z</time>
			</trkpt>
		
			<trkpt lat="45.785630" lon="2.170370">
			 <ele>760</ele>
			<time>2016-06-13T06:03:45Z</time>
			</trkpt>
		
			<trkpt lat="45.785730" lon="2.170540">
			 <ele>762</ele>
			<time>2016-06-13T06:05:45Z</time>
			</trkpt>
		
			<trkpt lat="45.785800" lon="2.170690">
			 <ele>763</ele>
			<time>2016-06-13T06:07:45Z</time>
			</trkpt>
		
			<trkpt lat="45.785890" lon="2.170940">
			 <ele>764</ele>
			<time>2016-06-13T06:09:45Z</time>
			</trkpt>
		
			<trkpt lat="45.786020" lon="2.171290">
			 <ele>765</ele>
			<time>2016-06-13T06:11:45Z</time>
			</trkpt>
		
			<trkpt lat="45.786140" lon="2.171630">
			 <ele>765</ele>
			<time>2016-06-13T06:13:45Z</time>
			</trkpt>
		
			<trkpt lat="45.786180" lon="2.171750">
			 <ele>765</ele>
			<time>2016-06-13T06:15:45Z</time>
			</trkpt>
		
			<trkpt lat="45.786250" lon="2.171980">
			 <ele>767</ele>
			<time>2016-06-13T06:17:45Z</time>
			</trkpt>
		
			<trkpt lat="45.786280" lon="2.172080">
			 <ele>767</ele>
			<time>2016-06-13T06:19:45Z</time>
			</trkpt>
		
			<trkpt lat="45.786360" lon="2.172170">
			 <ele>768</ele>
			<time>2016-06-13T06:21:45Z</time>
			</trkpt>
		
			<trkpt lat="45.786470" lon="2.172260">
			 <ele>768</ele>
			<time>2016-06-13T06:23:45Z</time>
			</trkpt>
		
			<trkpt lat="45.786630" lon="2.172420">
			 <ele>769</ele>
			<time>2016-06-13T06:25:45Z</time>
			</trkpt>
		
			<trkpt lat="45.786950" lon="2.172720">
			 <ele>768</ele>
			<time>2016-06-13T06:27:45Z</time>
			</trkpt>
		
			<trkpt lat="45.787150" lon="2.172900">
			 <ele>768</ele>
			<time>2016-06-13T06:29:45Z</time>
			</trkpt>
		
			<trkpt lat="45.787480" lon="2.173220">
			 <ele>767</ele>
			<time>2016-06-13T06:31:45Z</time>
			</trkpt>
		
			<trkpt lat="45.787860" lon="2.173580">
			 <ele>765</ele>
			<time>2016-06-13T06:33:45Z</time>
			</trkpt>
		
			<trkpt lat="45.788060" lon="2.173780">
			 <ele>764</ele>
			<time>2016-06-13T06:35:45Z</time>
			</trkpt>
		
			<trkpt lat="45.788310" lon="2.174000">
			 <ele>762</ele>
			<time>2016-06-13T06:37:45Z</time>
			</trkpt>
		
			<trkpt lat="45.788520" lon="2.174220">
			 <ele>760</ele>
			<time>2016-06-13T06:39:45Z</time>
			</trkpt>
		
			<trkpt lat="45.788630" lon="2.174330">
			 <ele>758</ele>
			<time>2016-06-13T06:41:45Z</time>
			</trkpt>
		
			<trkpt lat="45.788710" lon="2.174430">
			 <ele>758</ele>
			<time>2016-06-13T06:43:45Z</time>
			</trkpt>
		
			<trkpt lat="45.788790" lon="2.174560">
			 <ele>757</ele>
			<time>2016-06-13T06:45:45Z</time>
			</trkpt>
		
			<trkpt lat="45.788840" lon="2.174690">
			 <ele>758</ele>
			<time>2016-06-13T06:47:45Z</time>
			</trkpt>
		
			<trkpt lat="45.788870" lon="2.174830">
			 <ele>760</ele>
			<time>2016-06-13T06:49:45Z</time>
			</trkpt>
		
			<trkpt lat="45.788880" lon="2.174980">
			 <ele>762</ele>
			<time>2016-06-13T06:51:45Z</time>
			</trkpt>
		
			<trkpt lat="45.788890" lon="2.175120">
			 <ele>762</ele>
			<time>2016-06-13T06:53:45Z</time>
			</trkpt>
		
			<trkpt lat="45.788870" lon="2.175240">
			 <ele>764</ele>
			<time>2016-06-13T06:55:45Z</time>
			</trkpt>
		
			<trkpt lat="45.788860" lon="2.175330">
			 <ele>764</ele>
			<time>2016-06-13T06:57:45Z</time>
			</trkpt>
		
			<trkpt lat="45.788840" lon="2.175430">
			 <ele>766</ele>
			<time>2016-06-13T06:59:45Z</time>
			</trkpt>
		
			<trkpt lat="45.788810" lon="2.175560">
			 <ele>767</ele>
			<time>2016-06-13T07:01:45Z</time>
			</trkpt>
		
			<trkpt lat="45.788800" lon="2.175640">
			 <ele>768</ele>
			<time>2016-06-13T07:03:45Z</time>
			</trkpt>
		
			<trkpt lat="45.788790" lon="2.175750">
			 <ele>769</ele>
			<time>2016-06-13T07:05:45Z</time>
			</trkpt>
		
			<trkpt lat="45.788800" lon="2.175860">
			 <ele>769</ele>
			<time>2016-06-13T07:07:45Z</time>
			</trkpt>
		
			<trkpt lat="45.788810" lon="2.175960">
			 <ele>769</ele>
			<time>2016-06-13T07:09:45Z</time>
			</trkpt>
		
			<trkpt lat="45.788820" lon="2.176060">
			 <ele>769</ele>
			<time>2016-06-13T07:11:45Z</time>
			</trkpt>
		
			<trkpt lat="45.788850" lon="2.176210">
			 <ele>768</ele>
			<time>2016-06-13T07:13:45Z</time>
			</trkpt>
		
			<trkpt lat="45.788910" lon="2.176390">
			 <ele>767</ele>
			<time>2016-06-13T07:15:45Z</time>
			</trkpt>
		
			<trkpt lat="45.788970" lon="2.176580">
			 <ele>766</ele>
			<time>2016-06-13T07:17:45Z</time>
			</trkpt>
		
			<trkpt lat="45.789000" lon="2.176730">
			 <ele>765</ele>
			<time>2016-06-13T07:19:45Z</time>
			</trkpt>
		
			<trkpt lat="45.789030" lon="2.176880">
			 <ele>762</ele>
			<time>2016-06-13T07:21:45Z</time>
			</trkpt>
		
			<trkpt lat="45.789040" lon="2.177030">
			 <ele>760</ele>
			<time>2016-06-13T07:23:45Z</time>
			</trkpt>
		
			<trkpt lat="45.789050" lon="2.177220">
			 <ele>757</ele>
			<time>2016-06-13T07:25:45Z</time>
			</trkpt>
		
			<trkpt lat="45.789060" lon="2.177420">
			 <ele>755</ele>
			<time>2016-06-13T07:27:45Z</time>
			</trkpt>
		
			<trkpt lat="45.789060" lon="2.177610">
			 <ele>753</ele>
			<time>2016-06-13T07:29:45Z</time>
			</trkpt>
		
			<trkpt lat="45.789080" lon="2.177730">
			 <ele>752</ele>
			<time>2016-06-13T07:31:45Z</time>
			</trkpt>
		
			<trkpt lat="45.789100" lon="2.177820">
			 <ele>752</ele>
			<time>2016-06-13T07:33:45Z</time>
			</trkpt>
		
			<trkpt lat="45.789130" lon="2.177900">
			 <ele>751</ele>
			<time>2016-06-13T07:35:45Z</time>
			</trkpt>
		
			<trkpt lat="45.789180" lon="2.178000">
			 <ele>750</ele>
			<time>2016-06-13T07:37:45Z</time>
			</trkpt>
		
			<trkpt lat="45.789260" lon="2.178140">
			 <ele>750</ele>
			<time>2016-06-13T07:39:45Z</time>
			</trkpt>
		
			<trkpt lat="45.789400" lon="2.178340">
			 <ele>750</ele>
			<time>2016-06-13T07:41:45Z</time>
			</trkpt>
		
			<trkpt lat="45.789530" lon="2.178520">
			 <ele>753</ele>
			<time>2016-06-13T07:43:45Z</time>
			</trkpt>
		
			<trkpt lat="45.789590" lon="2.178580">
			 <ele>754</ele>
			<time>2016-06-13T07:45:45Z</time>
			</trkpt>
		
			<trkpt lat="45.789640" lon="2.178620">
			 <ele>754</ele>
			<time>2016-06-13T07:47:45Z</time>
			</trkpt>
		
			<trkpt lat="45.789690" lon="2.178640">
			 <ele>755</ele>
			<time>2016-06-13T07:49:45Z</time>
			</trkpt>
		
			<trkpt lat="45.789770" lon="2.178640">
			 <ele>755</ele>
			<time>2016-06-13T07:51:45Z</time>
			</trkpt>
		
			<trkpt lat="45.789830" lon="2.178630">
			 <ele>755</ele>
			<time>2016-06-13T07:53:45Z</time>
			</trkpt>
		
			<trkpt lat="45.789890" lon="2.178610">
			 <ele>756</ele>
			<time>2016-06-13T07:55:45Z</time>
			</trkpt>
		
			<trkpt lat="45.789990" lon="2.178560">
			 <ele>756</ele>
			<time>2016-06-13T07:57:45Z</time>
			</trkpt>
		
			<trkpt lat="45.790090" lon="2.178500">
			 <ele>756</ele>
			<time>2016-06-13T07:59:45Z</time>
			</trkpt>
		
			<trkpt lat="45.790160" lon="2.178470">
			 <ele>757</ele>
			<time>2016-06-13T08:01:45Z</time>
			</trkpt>
		
			<trkpt lat="45.790230" lon="2.178460">
			 <ele>757</ele>
			<time>2016-06-13T08:03:45Z</time>
			</trkpt>
		
			<trkpt lat="45.790310" lon="2.178450">
			 <ele>758</ele>
			<time>2016-06-13T08:05:45Z</time>
			</trkpt>
		
			<trkpt lat="45.790400" lon="2.178470">
			 <ele>759</ele>
			<time>2016-06-13T08:07:45Z</time>
			</trkpt>
		
			<trkpt lat="45.790460" lon="2.178500">
			 <ele>759</ele>
			<time>2016-06-13T08:09:45Z</time>
			</trkpt>
		
			<trkpt lat="45.790570" lon="2.178560">
			 <ele>761</ele>
			<time>2016-06-13T08:11:45Z</time>
			</trkpt>
		
			<trkpt lat="45.790680" lon="2.178640">
			 <ele>762</ele>
			<time>2016-06-13T08:13:45Z</time>
			</trkpt>
		
			<trkpt lat="45.790780" lon="2.178710">
			 <ele>763</ele>
			<time>2016-06-13T08:15:45Z</time>
			</trkpt>
		
			<trkpt lat="45.790840" lon="2.178750">
			 <ele>764</ele>
			<time>2016-06-13T08:17:45Z</time>
			</trkpt>
		
			<trkpt lat="45.790900" lon="2.178770">
			 <ele>765</ele>
			<time>2016-06-13T08:19:45Z</time>
			</trkpt>
		
			<trkpt lat="45.790940" lon="2.178770">
			 <ele>765</ele>
			<time>2016-06-13T08:21:45Z</time>
			</trkpt>
		
			<trkpt lat="45.790990" lon="2.178760">
			 <ele>765</ele>
			<time>2016-06-13T08:23:45Z</time>
			</trkpt>
		
			<trkpt lat="45.791110" lon="2.178720">
			 <ele>766</ele>
			<time>2016-06-13T08:25:45Z</time>
			</trkpt>
		
			<trkpt lat="45.791240" lon="2.178670">
			 <ele>767</ele>
			<time>2016-06-13T08:27:45Z</time>
			</trkpt>
		
			<trkpt lat="45.791410" lon="2.178590">
			 <ele>768</ele>
			<time>2016-06-13T08:29:45Z</time>
			</trkpt>
		
			<trkpt lat="45.791560" lon="2.178520">
			 <ele>768</ele>
			<time>2016-06-13T08:31:45Z</time>
			</trkpt>
		
			<trkpt lat="45.791650" lon="2.178480">
			 <ele>769</ele>
			<time>2016-06-13T08:33:45Z</time>
			</trkpt>
		
			<trkpt lat="45.791730" lon="2.178470">
			 <ele>769</ele>
			<time>2016-06-13T08:35:45Z</time>
			</trkpt>
		
			<trkpt lat="45.791810" lon="2.178480">
			 <ele>770</ele>
			<time>2016-06-13T08:37:45Z</time>
			</trkpt>
		
			<trkpt lat="45.791870" lon="2.178490">
			 <ele>771</ele>
			<time>2016-06-13T08:39:45Z</time>
			</trkpt>
		
			<trkpt lat="45.791910" lon="2.178490">
			 <ele>771</ele>
			<time>2016-06-13T08:41:45Z</time>
			</trkpt>
		
			<trkpt lat="45.791970" lon="2.178470">
			 <ele>771</ele>
			<time>2016-06-13T08:43:45Z</time>
			</trkpt>
		
			<trkpt lat="45.792040" lon="2.178440">
			 <ele>772</ele>
			<time>2016-06-13T08:45:45Z</time>
			</trkpt>
		
			<trkpt lat="45.792140" lon="2.178370">
			 <ele>772</ele>
			<time>2016-06-13T08:47:45Z</time>
			</trkpt>
		
			<trkpt lat="45.792260" lon="2.178270">
			 <ele>772</ele>
			<time>2016-06-13T08:49:45Z</time>
			</trkpt>
		
			<trkpt lat="45.792370" lon="2.178190">
			 <ele>772</ele>
			<time>2016-06-13T08:51:45Z</time>
			</trkpt>
		
			<trkpt lat="45.792450" lon="2.178150">
			 <ele>773</ele>
			<time>2016-06-13T08:53:45Z</time>
			</trkpt>
		
			<trkpt lat="45.792510" lon="2.178130">
			 <ele>773</ele>
			<time>2016-06-13T08:55:45Z</time>
			</trkpt>
		
			<trkpt lat="45.792560" lon="2.178130">
			 <ele>773</ele>
			<time>2016-06-13T08:57:45Z</time>
			</trkpt>
		
			<trkpt lat="45.792620" lon="2.178160">
			 <ele>774</ele>
			<time>2016-06-13T08:59:45Z</time>
			</trkpt>
		
			<trkpt lat="45.792670" lon="2.178210">
			 <ele>774</ele>
			<time>2016-06-13T09:01:45Z</time>
			</trkpt>
		
			<trkpt lat="45.792720" lon="2.178280">
			 <ele>775</ele>
			<time>2016-06-13T09:03:45Z</time>
			</trkpt>
		
			<trkpt lat="45.792740" lon="2.178360">
			 <ele>776</ele>
			<time>2016-06-13T09:05:45Z</time>
			</trkpt>
		
			<trkpt lat="45.792750" lon="2.178440">
			 <ele>776</ele>
			<time>2016-06-13T09:07:45Z</time>
			</trkpt>
		
			<trkpt lat="45.792760" lon="2.178520">
			 <ele>777</ele>
			<time>2016-06-13T09:09:45Z</time>
			</trkpt>
		
			<trkpt lat="45.792730" lon="2.178660">
			 <ele>778</ele>
			<time>2016-06-13T09:11:45Z</time>
			</trkpt>
		
			<trkpt lat="45.792680" lon="2.178880">
			 <ele>780</ele>
			<time>2016-06-13T09:13:45Z</time>
			</trkpt>
		
			<trkpt lat="45.792610" lon="2.179110">
			 <ele>782</ele>
			<time>2016-06-13T09:15:45Z</time>
			</trkpt>
		
			<trkpt lat="45.792530" lon="2.179360">
			 <ele>783</ele>
			<time>2016-06-13T09:17:45Z</time>
			</trkpt>
		
			<trkpt lat="45.792490" lon="2.179540">
			 <ele>783</ele>
			<time>2016-06-13T09:19:45Z</time>
			</trkpt>
		
			<trkpt lat="45.792480" lon="2.179630">
			 <ele>783</ele>
			<time>2016-06-13T09:21:45Z</time>
			</trkpt>
		
			<trkpt lat="45.792470" lon="2.179740">
			 <ele>784</ele>
			<time>2016-06-13T09:23:45Z</time>
			</trkpt>
		
			<trkpt lat="45.792480" lon="2.179840">
			 <ele>784</ele>
			<time>2016-06-13T09:25:45Z</time>
			</trkpt>
		
			<trkpt lat="45.792500" lon="2.179930">
			 <ele>785</ele>
			<time>2016-06-13T09:27:45Z</time>
			</trkpt>
		
			<trkpt lat="45.792540" lon="2.180070">
			 <ele>785</ele>
			<time>2016-06-13T09:29:45Z</time>
			</trkpt>
		
			<trkpt lat="45.792580" lon="2.180240">
			 <ele>785</ele>
			<time>2016-06-13T09:31:45Z</time>
			</trkpt>
		
			<trkpt lat="45.792620" lon="2.180380">
			 <ele>785</ele>
			<time>2016-06-13T09:33:45Z</time>
			</trkpt>
		
			<trkpt lat="45.792640" lon="2.180490">
			 <ele>785</ele>
			<time>2016-06-13T09:35:45Z</time>
			</trkpt>
		
			<trkpt lat="45.792650" lon="2.180580">
			 <ele>785</ele>
			<time>2016-06-13T09:37:45Z</time>
			</trkpt>
		
			<trkpt lat="45.792650" lon="2.180700">
			 <ele>785</ele>
			<time>2016-06-13T09:39:45Z</time>
			</trkpt>
		
			<trkpt lat="45.792650" lon="2.180840">
			 <ele>785</ele>
			<time>2016-06-13T09:41:45Z</time>
			</trkpt>
		
			<trkpt lat="45.792640" lon="2.181110">
			 <ele>785</ele>
			<time>2016-06-13T09:43:45Z</time>
			</trkpt>
		
			<trkpt lat="45.792630" lon="2.181370">
			 <ele>785</ele>
			<time>2016-06-13T09:45:45Z</time>
			</trkpt>
		
			<trkpt lat="45.792620" lon="2.181590">
			 <ele>785</ele>
			<time>2016-06-13T09:47:45Z</time>
			</trkpt>
		
			<trkpt lat="45.792620" lon="2.181820">
			 <ele>784</ele>
			<time>2016-06-13T09:49:45Z</time>
			</trkpt>
		
			<trkpt lat="45.792640" lon="2.182020">
			 <ele>783</ele>
			<time>2016-06-13T09:51:45Z</time>
			</trkpt>
		
			<trkpt lat="45.792660" lon="2.182230">
			 <ele>781</ele>
			<time>2016-06-13T09:53:45Z</time>
			</trkpt>
		
			<trkpt lat="45.792720" lon="2.182490">
			 <ele>779</ele>
			<time>2016-06-13T09:55:45Z</time>
			</trkpt>
		
			<trkpt lat="45.792770" lon="2.182720">
			 <ele>778</ele>
			<time>2016-06-13T09:57:45Z</time>
			</trkpt>
		
			<trkpt lat="45.792800" lon="2.182890">
			 <ele>777</ele>
			<time>2016-06-13T09:59:45Z</time>
			</trkpt>
		
			<trkpt lat="45.792810" lon="2.183030">
			 <ele>776</ele>
			<time>2016-06-13T10:01:45Z</time>
			</trkpt>
		
			<trkpt lat="45.792820" lon="2.183140">
			 <ele>775</ele>
			<time>2016-06-13T10:03:45Z</time>
			</trkpt>
		
			<trkpt lat="45.792810" lon="2.183290">
			 <ele>775</ele>
			<time>2016-06-13T10:05:45Z</time>
			</trkpt>
		
			<trkpt lat="45.792780" lon="2.183470">
			 <ele>775</ele>
			<time>2016-06-13T10:07:45Z</time>
			</trkpt>
		
			<trkpt lat="45.792740" lon="2.183680">
			 <ele>774</ele>
			<time>2016-06-13T10:09:45Z</time>
			</trkpt>
		
			<trkpt lat="45.792740" lon="2.183730">
			 <ele>774</ele>
			<time>2016-06-13T10:11:45Z</time>
			</trkpt>
		
			<trkpt lat="45.792730" lon="2.183770">
			 <ele>774</ele>
			<time>2016-06-13T10:13:45Z</time>
			</trkpt>
		
			<trkpt lat="45.792730" lon="2.183840">
			 <ele>774</ele>
			<time>2016-06-13T10:15:45Z</time>
			</trkpt>
		
			<trkpt lat="45.792740" lon="2.183930">
			 <ele>774</ele>
			<time>2016-06-13T10:17:45Z</time>
			</trkpt>
		
			<trkpt lat="45.792750" lon="2.184000">
			 <ele>773</ele>
			<time>2016-06-13T10:19:45Z</time>
			</trkpt>
		
			<trkpt lat="45.792790" lon="2.184100">
			 <ele>773</ele>
			<time>2016-06-13T10:21:45Z</time>
			</trkpt>
		
			<trkpt lat="45.792840" lon="2.184230">
			 <ele>772</ele>
			<time>2016-06-13T10:23:45Z</time>
			</trkpt>
		
			<trkpt lat="45.792900" lon="2.184370">
			 <ele>772</ele>
			<time>2016-06-13T10:25:45Z</time>
			</trkpt>
		
			<trkpt lat="45.792980" lon="2.184510">
			 <ele>772</ele>
			<time>2016-06-13T10:27:45Z</time>
			</trkpt>
		
			<trkpt lat="45.793040" lon="2.184600">
			 <ele>772</ele>
			<time>2016-06-13T10:29:45Z</time>
			</trkpt>
		
			<trkpt lat="45.793120" lon="2.184680">
			 <ele>771</ele>
			<time>2016-06-13T10:31:45Z</time>
			</trkpt>
		
			<trkpt lat="45.793210" lon="2.184750">
			 <ele>770</ele>
			<time>2016-06-13T10:33:45Z</time>
			</trkpt>
		
			<trkpt lat="45.793350" lon="2.184830">
			 <ele>769</ele>
			<time>2016-06-13T10:35:45Z</time>
			</trkpt>
		
			<trkpt lat="45.793470" lon="2.184910">
			 <ele>768</ele>
			<time>2016-06-13T10:37:45Z</time>
			</trkpt>
		
			<trkpt lat="45.793550" lon="2.184970">
			 <ele>768</ele>
			<time>2016-06-13T10:39:45Z</time>
			</trkpt>
		
			<trkpt lat="45.793630" lon="2.185050">
			 <ele>767</ele>
			<time>2016-06-13T10:41:45Z</time>
			</trkpt>
		
			<trkpt lat="45.793700" lon="2.185130">
			 <ele>766</ele>
			<time>2016-06-13T10:43:45Z</time>
			</trkpt>
		
			<trkpt lat="45.793750" lon="2.185210">
			 <ele>765</ele>
			<time>2016-06-13T10:45:45Z</time>
			</trkpt>
		
			<trkpt lat="45.793800" lon="2.185300">
			 <ele>765</ele>
			<time>2016-06-13T10:47:45Z</time>
			</trkpt>
		
			<trkpt lat="45.793830" lon="2.185410">
			 <ele>764</ele>
			<time>2016-06-13T10:49:45Z</time>
			</trkpt>
		
			<trkpt lat="45.793850" lon="2.185520">
			 <ele>764</ele>
			<time>2016-06-13T10:51:45Z</time>
			</trkpt>
		
			<trkpt lat="45.793870" lon="2.185760">
			 <ele>763</ele>
			<time>2016-06-13T10:53:45Z</time>
			</trkpt>
		
			<trkpt lat="45.793880" lon="2.186010">
			 <ele>762</ele>
			<time>2016-06-13T10:55:45Z</time>
			</trkpt>
		
			<trkpt lat="45.793880" lon="2.186170">
			 <ele>761</ele>
			<time>2016-06-13T10:57:45Z</time>
			</trkpt>
		
			<trkpt lat="45.793870" lon="2.186280">
			 <ele>760</ele>
			<time>2016-06-13T10:59:45Z</time>
			</trkpt>
		
			<trkpt lat="45.793840" lon="2.186400">
			 <ele>760</ele>
			<time>2016-06-13T11:01:45Z</time>
			</trkpt>
		
			<trkpt lat="45.793780" lon="2.186510">
			 <ele>760</ele>
			<time>2016-06-13T11:03:45Z</time>
			</trkpt>
		
			<trkpt lat="45.793710" lon="2.186670">
			 <ele>759</ele>
			<time>2016-06-13T11:05:45Z</time>
			</trkpt>
		
			<trkpt lat="45.793660" lon="2.186770">
			 <ele>759</ele>
			<time>2016-06-13T11:07:45Z</time>
			</trkpt>
		
			<trkpt lat="45.793640" lon="2.186840">
			 <ele>759</ele>
			<time>2016-06-13T11:09:45Z</time>
			</trkpt>
		
			<trkpt lat="45.793630" lon="2.186950">
			 <ele>759</ele>
			<time>2016-06-13T11:11:45Z</time>
			</trkpt>
		
			<trkpt lat="45.793630" lon="2.187050">
			 <ele>759</ele>
			<time>2016-06-13T11:13:45Z</time>
			</trkpt>
		
			<trkpt lat="45.793640" lon="2.187160">
			 <ele>758</ele>
			<time>2016-06-13T11:15:45Z</time>
			</trkpt>
		
			<trkpt lat="45.793660" lon="2.187250">
			 <ele>758</ele>
			<time>2016-06-13T11:17:45Z</time>
			</trkpt>
		
			<trkpt lat="45.793690" lon="2.187340">
			 <ele>757</ele>
			<time>2016-06-13T11:19:45Z</time>
			</trkpt>
		
			<trkpt lat="45.793740" lon="2.187420">
			 <ele>757</ele>
			<time>2016-06-13T11:21:45Z</time>
			</trkpt>
		
			<trkpt lat="45.793800" lon="2.187490">
			 <ele>756</ele>
			<time>2016-06-13T11:23:45Z</time>
			</trkpt>
		
			<trkpt lat="45.793880" lon="2.187540">
			 <ele>757</ele>
			<time>2016-06-13T11:25:45Z</time>
			</trkpt>
		
			<trkpt lat="45.793950" lon="2.187560">
			 <ele>757</ele>
			<time>2016-06-13T11:27:45Z</time>
			</trkpt>
		
			<trkpt lat="45.794010" lon="2.187560">
			 <ele>757</ele>
			<time>2016-06-13T11:29:45Z</time>
			</trkpt>
		
			<trkpt lat="45.794070" lon="2.187550">
			 <ele>757</ele>
			<time>2016-06-13T11:31:45Z</time>
			</trkpt>
		
			<trkpt lat="45.794140" lon="2.187520">
			 <ele>756</ele>
			<time>2016-06-13T11:33:45Z</time>
			</trkpt>
		
			<trkpt lat="45.794290" lon="2.187420">
			 <ele>757</ele>
			<time>2016-06-13T11:35:45Z</time>
			</trkpt>
		
			<trkpt lat="45.794470" lon="2.187320">
			 <ele>759</ele>
			<time>2016-06-13T11:37:45Z</time>
			</trkpt>
		
			<trkpt lat="45.794540" lon="2.187280">
			 <ele>759</ele>
			<time>2016-06-13T11:39:45Z</time>
			</trkpt>
		
			<trkpt lat="45.794640" lon="2.187210">
			 <ele>759</ele>
			<time>2016-06-13T11:41:45Z</time>
			</trkpt>
		
			<trkpt lat="45.794760" lon="2.187150">
			 <ele>760</ele>
			<time>2016-06-13T11:43:45Z</time>
			</trkpt>
		
			<trkpt lat="45.794870" lon="2.187080">
			 <ele>760</ele>
			<time>2016-06-13T11:45:45Z</time>
			</trkpt>
		
			<trkpt lat="45.794980" lon="2.187030">
			 <ele>760</ele>
			<time>2016-06-13T11:47:45Z</time>
			</trkpt>
		
			<trkpt lat="45.795100" lon="2.186980">
			 <ele>761</ele>
			<time>2016-06-13T11:49:45Z</time>
			</trkpt>
		
			<trkpt lat="45.795210" lon="2.186950">
			 <ele>761</ele>
			<time>2016-06-13T11:51:45Z</time>
			</trkpt>
		
			<trkpt lat="45.795310" lon="2.186930">
			 <ele>761</ele>
			<time>2016-06-13T11:53:45Z</time>
			</trkpt>
		
			<trkpt lat="45.795460" lon="2.186930">
			 <ele>762</ele>
			<time>2016-06-13T11:55:45Z</time>
			</trkpt>
		
			<trkpt lat="45.795640" lon="2.186930">
			 <ele>763</ele>
			<time>2016-06-13T11:57:45Z</time>
			</trkpt>
		
			<trkpt lat="45.795880" lon="2.186950">
			 <ele>764</ele>
			<time>2016-06-13T11:59:45Z</time>
			</trkpt>
		
			<trkpt lat="45.796210" lon="2.186970">
			 <ele>766</ele>
			<time>2016-06-13T12:01:45Z</time>
			</trkpt>
		
			<trkpt lat="45.796350" lon="2.186980">
			 <ele>766</ele>
			<time>2016-06-13T12:03:45Z</time>
			</trkpt>
		
			<trkpt lat="45.796440" lon="2.187000">
			 <ele>767</ele>
			<time>2016-06-13T12:05:45Z</time>
			</trkpt>
		
			<trkpt lat="45.796520" lon="2.187030">
			 <ele>767</ele>
			<time>2016-06-13T12:07:45Z</time>
			</trkpt>
		
			<trkpt lat="45.796630" lon="2.187090">
			 <ele>768</ele>
			<time>2016-06-13T12:09:45Z</time>
			</trkpt>
		
			<trkpt lat="45.796780" lon="2.187220">
			 <ele>770</ele>
			<time>2016-06-13T12:11:45Z</time>
			</trkpt>
		
			<trkpt lat="45.796960" lon="2.187400">
			 <ele>771</ele>
			<time>2016-06-13T12:13:45Z</time>
			</trkpt>
		
			<trkpt lat="45.797090" lon="2.187540">
			 <ele>772</ele>
			<time>2016-06-13T12:15:45Z</time>
			</trkpt>
		
			<trkpt lat="45.797170" lon="2.187640">
			 <ele>773</ele>
			<time>2016-06-13T12:17:45Z</time>
			</trkpt>
		
			<trkpt lat="45.797230" lon="2.187750">
			 <ele>773</ele>
			<time>2016-06-13T12:19:45Z</time>
			</trkpt>
		
			<trkpt lat="45.797260" lon="2.187840">
			 <ele>774</ele>
			<time>2016-06-13T12:21:45Z</time>
			</trkpt>
		
			<trkpt lat="45.797290" lon="2.187960">
			 <ele>775</ele>
			<time>2016-06-13T12:23:45Z</time>
			</trkpt>
		
			<trkpt lat="45.797310" lon="2.188070">
			 <ele>776</ele>
			<time>2016-06-13T12:25:45Z</time>
			</trkpt>
		
			<trkpt lat="45.797330" lon="2.188330">
			 <ele>778</ele>
			<time>2016-06-13T12:27:45Z</time>
			</trkpt>
		
			<trkpt lat="45.797350" lon="2.188830">
			 <ele>781</ele>
			<time>2016-06-13T12:29:45Z</time>
			</trkpt>
		
			<trkpt lat="45.797360" lon="2.189140">
			 <ele>783</ele>
			<time>2016-06-13T12:31:45Z</time>
			</trkpt>
		
			<trkpt lat="45.797400" lon="2.189440">
			 <ele>785</ele>
			<time>2016-06-13T12:33:45Z</time>
			</trkpt>
		
			<trkpt lat="45.797420" lon="2.189600">
			 <ele>786</ele>
			<time>2016-06-13T12:35:45Z</time>
			</trkpt>
		
			<trkpt lat="45.797480" lon="2.189800">
			 <ele>786</ele>
			<time>2016-06-13T12:37:45Z</time>
			</trkpt>
		
			<trkpt lat="45.797520" lon="2.189930">
			 <ele>786</ele>
			<time>2016-06-13T12:39:45Z</time>
			</trkpt>
		
			<trkpt lat="45.797530" lon="2.189950">
			 <ele>786</ele>
			<time>2016-06-13T12:41:45Z</time>
			</trkpt>
		
			<trkpt lat="45.797580" lon="2.190080">
			 <ele>787</ele>
			<time>2016-06-13T12:43:45Z</time>
			</trkpt>
		
			<trkpt lat="45.797660" lon="2.190220">
			 <ele>788</ele>
			<time>2016-06-13T12:45:45Z</time>
			</trkpt>
		
			<trkpt lat="45.797800" lon="2.190440">
			 <ele>790</ele>
			<time>2016-06-13T12:47:45Z</time>
			</trkpt>
		
			<trkpt lat="45.797980" lon="2.190670">
			 <ele>791</ele>
			<time>2016-06-13T12:49:45Z</time>
			</trkpt>
		
			<trkpt lat="45.798120" lon="2.190840">
			 <ele>792</ele>
			<time>2016-06-13T12:51:45Z</time>
			</trkpt>
		
			<trkpt lat="45.798230" lon="2.190960">
			 <ele>792</ele>
			<time>2016-06-13T12:53:45Z</time>
			</trkpt>
		
			<trkpt lat="45.798350" lon="2.191070">
			 <ele>791</ele>
			<time>2016-06-13T12:55:45Z</time>
			</trkpt>
		
			<trkpt lat="45.798510" lon="2.191190">
			 <ele>791</ele>
			<time>2016-06-13T12:57:45Z</time>
			</trkpt>
		
			<trkpt lat="45.798690" lon="2.191320">
			 <ele>791</ele>
			<time>2016-06-13T12:59:45Z</time>
			</trkpt>
		
			<trkpt lat="45.798930" lon="2.191480">
			 <ele>791</ele>
			<time>2016-06-13T13:01:45Z</time>
			</trkpt>
		
			<trkpt lat="45.799200" lon="2.191660">
			 <ele>791</ele>
			<time>2016-06-13T13:03:45Z</time>
			</trkpt>
		
			<trkpt lat="45.799490" lon="2.191850">
			 <ele>791</ele>
			<time>2016-06-13T13:05:45Z</time>
			</trkpt>
		
			<trkpt lat="45.799870" lon="2.192100">
			 <ele>791</ele>
			<time>2016-06-13T13:07:45Z</time>
			</trkpt>
		
			<trkpt lat="45.800180" lon="2.192310">
			 <ele>791</ele>
			<time>2016-06-13T13:09:45Z</time>
			</trkpt>
		
			<trkpt lat="45.800410" lon="2.192450">
			 <ele>792</ele>
			<time>2016-06-13T13:11:45Z</time>
			</trkpt>
		
			<trkpt lat="45.800590" lon="2.192570">
			 <ele>793</ele>
			<time>2016-06-13T13:13:45Z</time>
			</trkpt>
		
			<trkpt lat="45.800740" lon="2.192660">
			 <ele>793</ele>
			<time>2016-06-13T13:15:45Z</time>
			</trkpt>
		
			<trkpt lat="45.800880" lon="2.192760">
			 <ele>792</ele>
			<time>2016-06-13T13:17:45Z</time>
			</trkpt>
		
			<trkpt lat="45.801140" lon="2.192910">
			 <ele>792</ele>
			<time>2016-06-13T13:19:45Z</time>
			</trkpt>
		
			<trkpt lat="45.801200" lon="2.192960">
			 <ele>792</ele>
			<time>2016-06-13T13:21:45Z</time>
			</trkpt>
		
			<trkpt lat="45.801250" lon="2.193020">
			 <ele>791</ele>
			<time>2016-06-13T13:23:45Z</time>
			</trkpt>
		
			<trkpt lat="45.801290" lon="2.193110">
			 <ele>791</ele>
			<time>2016-06-13T13:25:45Z</time>
			</trkpt>
		
			<trkpt lat="45.801290" lon="2.193110">
			 <ele>791</ele>
			<time>2016-06-13T13:27:45Z</time>
			</trkpt>
		
			<trkpt lat="45.801320" lon="2.193110">
			 <ele>791</ele>
			<time>2016-06-13T13:29:45Z</time>
			</trkpt>
		
			<trkpt lat="45.801440" lon="2.193110">
			 <ele>791</ele>
			<time>2016-06-13T13:31:45Z</time>
			</trkpt>
		
			<trkpt lat="45.801550" lon="2.193120">
			 <ele>791</ele>
			<time>2016-06-13T13:33:45Z</time>
			</trkpt>
		
			<trkpt lat="45.801720" lon="2.193140">
			 <ele>791</ele>
			<time>2016-06-13T13:35:45Z</time>
			</trkpt>
		
			<trkpt lat="45.801850" lon="2.193150">
			 <ele>790</ele>
			<time>2016-06-13T13:37:45Z</time>
			</trkpt>
		
			<trkpt lat="45.801900" lon="2.193160">
			 <ele>789</ele>
			<time>2016-06-13T13:39:45Z</time>
			</trkpt>
		
			<trkpt lat="45.801950" lon="2.193150">
			 <ele>789</ele>
			<time>2016-06-13T13:41:45Z</time>
			</trkpt>
		
			<trkpt lat="45.802010" lon="2.193140">
			 <ele>788</ele>
			<time>2016-06-13T13:43:45Z</time>
			</trkpt>
		
			<trkpt lat="45.802060" lon="2.193120">
			 <ele>788</ele>
			<time>2016-06-13T13:45:45Z</time>
			</trkpt>
		
			<trkpt lat="45.802300" lon="2.193000">
			 <ele>786</ele>
			<time>2016-06-13T13:47:45Z</time>
			</trkpt>
		
			<trkpt lat="45.802530" lon="2.192890">
			 <ele>785</ele>
			<time>2016-06-13T13:49:45Z</time>
			</trkpt>
		
			<trkpt lat="45.802890" lon="2.192730">
			 <ele>786</ele>
			<time>2016-06-13T13:51:45Z</time>
			</trkpt>
		
			<trkpt lat="45.803250" lon="2.192560">
			 <ele>788</ele>
			<time>2016-06-13T13:53:45Z</time>
			</trkpt>
		
			<trkpt lat="45.803380" lon="2.192490">
			 <ele>788</ele>
			<time>2016-06-13T13:55:45Z</time>
			</trkpt>
		
			<trkpt lat="45.803500" lon="2.192420">
			 <ele>788</ele>
			<time>2016-06-13T13:57:45Z</time>
			</trkpt>
		
			<trkpt lat="45.803630" lon="2.192340">
			 <ele>788</ele>
			<time>2016-06-13T13:59:45Z</time>
			</trkpt>
		
			<trkpt lat="45.803860" lon="2.192190">
			 <ele>788</ele>
			<time>2016-06-13T14:01:45Z</time>
			</trkpt>
		
			<trkpt lat="45.804230" lon="2.191960">
			 <ele>787</ele>
			<time>2016-06-13T14:03:45Z</time>
			</trkpt>
		
			<trkpt lat="45.804250" lon="2.191950">
			 <ele>787</ele>
			<time>2016-06-13T14:05:45Z</time>
			</trkpt>
		
			<trkpt lat="45.804630" lon="2.191710">
			 <ele>786</ele>
			<time>2016-06-13T14:07:45Z</time>
			</trkpt>
		
			<trkpt lat="45.804890" lon="2.191540">
			 <ele>786</ele>
			<time>2016-06-13T14:09:45Z</time>
			</trkpt>
		
			<trkpt lat="45.805070" lon="2.191440">
			 <ele>785</ele>
			<time>2016-06-13T14:11:45Z</time>
			</trkpt>
		
			<trkpt lat="45.805230" lon="2.191360">
			 <ele>784</ele>
			<time>2016-06-13T14:13:45Z</time>
			</trkpt>
		
			<trkpt lat="45.805380" lon="2.191320">
			 <ele>783</ele>
			<time>2016-06-13T14:15:45Z</time>
			</trkpt>
		
			<trkpt lat="45.805500" lon="2.191290">
			 <ele>783</ele>
			<time>2016-06-13T14:17:45Z</time>
			</trkpt>
		
			<trkpt lat="45.805820" lon="2.191230">
			 <ele>782</ele>
			<time>2016-06-13T14:19:45Z</time>
			</trkpt>
		
			<trkpt lat="45.805970" lon="2.191200">
			 <ele>780</ele>
			<time>2016-06-13T14:21:45Z</time>
			</trkpt>
		
			<trkpt lat="45.806010" lon="2.191200">
			 <ele>780</ele>
			<time>2016-06-13T14:23:45Z</time>
			</trkpt>
		
			<trkpt lat="45.806440" lon="2.191120">
			 <ele>776</ele>
			<time>2016-06-13T14:25:45Z</time>
			</trkpt>
		
			<trkpt lat="45.806600" lon="2.191100">
			 <ele>775</ele>
			<time>2016-06-13T14:27:45Z</time>
			</trkpt>
		
			<trkpt lat="45.806690" lon="2.191090">
			 <ele>774</ele>
			<time>2016-06-13T14:29:45Z</time>
			</trkpt>
		
			<trkpt lat="45.806830" lon="2.191090">
			 <ele>774</ele>
			<time>2016-06-13T14:31:45Z</time>
			</trkpt>
		
			<trkpt lat="45.807180" lon="2.191140">
			 <ele>773</ele>
			<time>2016-06-13T14:33:45Z</time>
			</trkpt>
		
			<trkpt lat="45.807480" lon="2.191180">
			 <ele>772</ele>
			<time>2016-06-13T14:35:45Z</time>
			</trkpt>
		
			<trkpt lat="45.807880" lon="2.191200">
			 <ele>771</ele>
			<time>2016-06-13T14:37:45Z</time>
			</trkpt>
		
			<trkpt lat="45.808180" lon="2.191200">
			 <ele>770</ele>
			<time>2016-06-13T14:39:45Z</time>
			</trkpt>
		
			<trkpt lat="45.808430" lon="2.191190">
			 <ele>769</ele>
			<time>2016-06-13T14:41:45Z</time>
			</trkpt>
		
			<trkpt lat="45.808530" lon="2.191170">
			 <ele>768</ele>
			<time>2016-06-13T14:43:45Z</time>
			</trkpt>
		
			<trkpt lat="45.808700" lon="2.191130">
			 <ele>767</ele>
			<time>2016-06-13T14:45:45Z</time>
			</trkpt>
		
			<trkpt lat="45.808780" lon="2.191110">
			 <ele>767</ele>
			<time>2016-06-13T14:47:45Z</time>
			</trkpt>
		
			<trkpt lat="45.809240" lon="2.190960">
			 <ele>765</ele>
			<time>2016-06-13T14:49:45Z</time>
			</trkpt>
		
			<trkpt lat="45.809470" lon="2.190880">
			 <ele>763</ele>
			<time>2016-06-13T14:51:45Z</time>
			</trkpt>
		
			<trkpt lat="45.809570" lon="2.190840">
			 <ele>763</ele>
			<time>2016-06-13T14:53:45Z</time>
			</trkpt>
		
			<trkpt lat="45.809640" lon="2.190800">
			 <ele>762</ele>
			<time>2016-06-13T14:55:45Z</time>
			</trkpt>
		
			<trkpt lat="45.809690" lon="2.190760">
			 <ele>762</ele>
			<time>2016-06-13T14:57:45Z</time>
			</trkpt>
		
			<trkpt lat="45.809770" lon="2.190670">
			 <ele>762</ele>
			<time>2016-06-13T14:59:45Z</time>
			</trkpt>
		
			<trkpt lat="45.809980" lon="2.190390">
			 <ele>764</ele>
			<time>2016-06-13T15:01:45Z</time>
			</trkpt>
		
			<trkpt lat="45.810050" lon="2.190320">
			 <ele>765</ele>
			<time>2016-06-13T15:03:45Z</time>
			</trkpt>
		
			<trkpt lat="45.810150" lon="2.190240">
			 <ele>765</ele>
			<time>2016-06-13T15:05:45Z</time>
			</trkpt>
		
			<trkpt lat="45.810240" lon="2.190210">
			 <ele>766</ele>
			<time>2016-06-13T15:07:45Z</time>
			</trkpt>
		
			<trkpt lat="45.810350" lon="2.190190">
			 <ele>766</ele>
			<time>2016-06-13T15:09:45Z</time>
			</trkpt>
		
			<trkpt lat="45.810410" lon="2.190200">
			 <ele>765</ele>
			<time>2016-06-13T15:11:45Z</time>
			</trkpt>
		
			<trkpt lat="45.810420" lon="2.190200">
			 <ele>765</ele>
			<time>2016-06-13T15:13:45Z</time>
			</trkpt>
		
			<trkpt lat="45.810490" lon="2.190210">
			 <ele>765</ele>
			<time>2016-06-13T15:15:45Z</time>
			</trkpt>
		
			<trkpt lat="45.810760" lon="2.190310">
			 <ele>763</ele>
			<time>2016-06-13T15:17:45Z</time>
			</trkpt>
		
			<trkpt lat="45.810990" lon="2.190400">
			 <ele>761</ele>
			<time>2016-06-13T15:19:45Z</time>
			</trkpt>
		
			<trkpt lat="45.811090" lon="2.190430">
			 <ele>760</ele>
			<time>2016-06-13T15:21:45Z</time>
			</trkpt>
		
			<trkpt lat="45.811270" lon="2.190460">
			 <ele>759</ele>
			<time>2016-06-13T15:23:45Z</time>
			</trkpt>
		
			<trkpt lat="45.811660" lon="2.190520">
			 <ele>758</ele>
			<time>2016-06-13T15:25:45Z</time>
			</trkpt>
		
			<trkpt lat="45.811800" lon="2.190530">
			 <ele>756</ele>
			<time>2016-06-13T15:27:45Z</time>
			</trkpt>
		
			<trkpt lat="45.811830" lon="2.190540">
			 <ele>756</ele>
			<time>2016-06-13T15:29:45Z</time>
			</trkpt>
		
			<trkpt lat="45.812000" lon="2.190580">
			 <ele>754</ele>
			<time>2016-06-13T15:31:45Z</time>
			</trkpt>
		
			<trkpt lat="45.812120" lon="2.190620">
			 <ele>753</ele>
			<time>2016-06-13T15:33:45Z</time>
			</trkpt>
		
			<trkpt lat="45.812280" lon="2.190690">
			 <ele>751</ele>
			<time>2016-06-13T15:35:45Z</time>
			</trkpt>
		
			<trkpt lat="45.812420" lon="2.190750">
			 <ele>750</ele>
			<time>2016-06-13T15:37:45Z</time>
			</trkpt>
		
			<trkpt lat="45.812550" lon="2.190820">
			 <ele>750</ele>
			<time>2016-06-13T15:39:45Z</time>
			</trkpt>
		
			<trkpt lat="45.812640" lon="2.190870">
			 <ele>748</ele>
			<time>2016-06-13T15:41:45Z</time>
			</trkpt>
		
			<trkpt lat="45.813060" lon="2.191190">
			 <ele>743</ele>
			<time>2016-06-13T15:43:45Z</time>
			</trkpt>
		
			<trkpt lat="45.813190" lon="2.191270">
			 <ele>742</ele>
			<time>2016-06-13T15:45:45Z</time>
			</trkpt>
		
			<trkpt lat="45.813310" lon="2.191320">
			 <ele>742</ele>
			<time>2016-06-13T15:47:45Z</time>
			</trkpt>
		
			<trkpt lat="45.813370" lon="2.191340">
			 <ele>741</ele>
			<time>2016-06-13T15:49:45Z</time>
			</trkpt>
		
			<trkpt lat="45.813710" lon="2.191430">
			 <ele>740</ele>
			<time>2016-06-13T15:51:45Z</time>
			</trkpt>
		
			<trkpt lat="45.814140" lon="2.191550">
			 <ele>739</ele>
			<time>2016-06-13T15:53:45Z</time>
			</trkpt>
		
			<trkpt lat="45.814530" lon="2.191630">
			 <ele>738</ele>
			<time>2016-06-13T15:55:45Z</time>
			</trkpt>
		
			<trkpt lat="45.814600" lon="2.191660">
			 <ele>738</ele>
			<time>2016-06-13T15:57:45Z</time>
			</trkpt>
		
			<trkpt lat="45.814890" lon="2.191740">
			 <ele>737</ele>
			<time>2016-06-13T15:59:45Z</time>
			</trkpt>
		
			<trkpt lat="45.815110" lon="2.191790">
			 <ele>737</ele>
			<time>2016-06-13T16:01:45Z</time>
			</trkpt>
		
			<trkpt lat="45.815400" lon="2.191860">
			 <ele>735</ele>
			<time>2016-06-13T16:03:45Z</time>
			</trkpt>
		
			<trkpt lat="45.815450" lon="2.191870">
			 <ele>735</ele>
			<time>2016-06-13T16:05:45Z</time>
			</trkpt>
		
			<trkpt lat="45.815810" lon="2.191970">
			 <ele>733</ele>
			<time>2016-06-13T16:07:45Z</time>
			</trkpt>
		
			<trkpt lat="45.816370" lon="2.192100">
			 <ele>730</ele>
			<time>2016-06-13T16:09:45Z</time>
			</trkpt>
		
			<trkpt lat="45.816850" lon="2.192220">
			 <ele>729</ele>
			<time>2016-06-13T16:11:45Z</time>
			</trkpt>
		
			<trkpt lat="45.817370" lon="2.192360">
			 <ele>732</ele>
			<time>2016-06-13T16:13:45Z</time>
			</trkpt>
		
			<trkpt lat="45.817750" lon="2.192450">
			 <ele>733</ele>
			<time>2016-06-13T16:15:45Z</time>
			</trkpt>
		
			<trkpt lat="45.817790" lon="2.192460">
			 <ele>733</ele>
			<time>2016-06-13T16:17:45Z</time>
			</trkpt>
		
			<trkpt lat="45.818320" lon="2.192590">
			 <ele>733</ele>
			<time>2016-06-13T16:19:45Z</time>
			</trkpt>
		
			<trkpt lat="45.818680" lon="2.192690">
			 <ele>732</ele>
			<time>2016-06-13T16:21:45Z</time>
			</trkpt>
		
			<trkpt lat="45.818860" lon="2.192730">
			 <ele>731</ele>
			<time>2016-06-13T16:23:45Z</time>
			</trkpt>
		
			<trkpt lat="45.819410" lon="2.192870">
			 <ele>730</ele>
			<time>2016-06-13T16:25:45Z</time>
			</trkpt>
		
			<trkpt lat="45.819820" lon="2.192970">
			 <ele>730</ele>
			<time>2016-06-13T16:27:45Z</time>
			</trkpt>
		
			<trkpt lat="45.819860" lon="2.192980">
			 <ele>730</ele>
			<time>2016-06-13T16:29:45Z</time>
			</trkpt>
		
			<trkpt lat="45.820250" lon="2.193080">
			 <ele>730</ele>
			<time>2016-06-13T16:31:45Z</time>
			</trkpt>
		
			<trkpt lat="45.820340" lon="2.193110">
			 <ele>730</ele>
			<time>2016-06-13T16:33:45Z</time>
			</trkpt>
		
			<trkpt lat="45.820620" lon="2.193180">
			 <ele>730</ele>
			<time>2016-06-13T16:35:45Z</time>
			</trkpt>
		
			<trkpt lat="45.821100" lon="2.193300">
			 <ele>731</ele>
			<time>2016-06-13T16:37:45Z</time>
			</trkpt>
		
			<trkpt lat="45.821440" lon="2.193390">
			 <ele>732</ele>
			<time>2016-06-13T16:39:45Z</time>
			</trkpt>
		
			<trkpt lat="45.821620" lon="2.193430">
			 <ele>732</ele>
			<time>2016-06-13T16:41:45Z</time>
			</trkpt>
		
			<trkpt lat="45.821710" lon="2.193440">
			 <ele>733</ele>
			<time>2016-06-13T16:43:45Z</time>
			</trkpt>
		
			<trkpt lat="45.821790" lon="2.193450">
			 <ele>733</ele>
			<time>2016-06-13T16:45:45Z</time>
			</trkpt>
		
			<trkpt lat="45.821860" lon="2.193450">
			 <ele>733</ele>
			<time>2016-06-13T16:47:45Z</time>
			</trkpt>
		
			<trkpt lat="45.821990" lon="2.193440">
			 <ele>733</ele>
			<time>2016-06-13T16:49:45Z</time>
			</trkpt>
		
			<trkpt lat="45.822100" lon="2.193430">
			 <ele>733</ele>
			<time>2016-06-13T16:51:45Z</time>
			</trkpt>
		
			<trkpt lat="45.822460" lon="2.193370">
			 <ele>733</ele>
			<time>2016-06-13T16:53:45Z</time>
			</trkpt>
		
			<trkpt lat="45.822840" lon="2.193330">
			 <ele>732</ele>
			<time>2016-06-13T16:55:45Z</time>
			</trkpt>
		
			<trkpt lat="45.823060" lon="2.193300">
			 <ele>731</ele>
			<time>2016-06-13T16:57:45Z</time>
			</trkpt>
		
			<trkpt lat="45.823230" lon="2.193300">
			 <ele>731</ele>
			<time>2016-06-13T16:59:45Z</time>
			</trkpt>
		
			<trkpt lat="45.823310" lon="2.193300">
			 <ele>731</ele>
			<time>2016-06-13T17:01:45Z</time>
			</trkpt>
		
			<trkpt lat="45.823420" lon="2.193310">
			 <ele>730</ele>
			<time>2016-06-13T17:03:45Z</time>
			</trkpt>
		
			<trkpt lat="45.823510" lon="2.193340">
			 <ele>730</ele>
			<time>2016-06-13T17:05:45Z</time>
			</trkpt>
		
			<trkpt lat="45.823570" lon="2.193370">
			 <ele>730</ele>
			<time>2016-06-13T17:07:45Z</time>
			</trkpt>
		
			<trkpt lat="45.823670" lon="2.193410">
			 <ele>729</ele>
			<time>2016-06-13T17:09:45Z</time>
			</trkpt>
		
			<trkpt lat="45.823970" lon="2.193560">
			 <ele>729</ele>
			<time>2016-06-13T17:11:45Z</time>
			</trkpt>
		
			<trkpt lat="45.824430" lon="2.193810">
			 <ele>729</ele>
			<time>2016-06-13T17:13:45Z</time>
			</trkpt>
		
			<trkpt lat="45.824760" lon="2.193970">
			 <ele>729</ele>
			<time>2016-06-13T17:15:45Z</time>
			</trkpt>
		
			<trkpt lat="45.825030" lon="2.194110">
			 <ele>729</ele>
			<time>2016-06-13T17:17:45Z</time>
			</trkpt>
		
			<trkpt lat="45.825300" lon="2.194240">
			 <ele>728</ele>
			<time>2016-06-13T17:19:45Z</time>
			</trkpt>
		
			<trkpt lat="45.825550" lon="2.194370">
			 <ele>727</ele>
			<time>2016-06-13T17:21:45Z</time>
			</trkpt>
		
			<trkpt lat="45.825750" lon="2.194450">
			 <ele>727</ele>
			<time>2016-06-13T17:23:45Z</time>
			</trkpt>
		
			<trkpt lat="45.825900" lon="2.194490">
			 <ele>726</ele>
			<time>2016-06-13T17:25:45Z</time>
			</trkpt>
		
			<trkpt lat="45.826070" lon="2.194520">
			 <ele>725</ele>
			<time>2016-06-13T17:27:45Z</time>
			</trkpt>
		
			<trkpt lat="45.826180" lon="2.194540">
			 <ele>725</ele>
			<time>2016-06-13T17:29:45Z</time>
			</trkpt>
		
			<trkpt lat="45.826240" lon="2.194540">
			 <ele>725</ele>
			<time>2016-06-13T17:31:45Z</time>
			</trkpt>
		
			<trkpt lat="45.826360" lon="2.194550">
			 <ele>724</ele>
			<time>2016-06-13T17:33:45Z</time>
			</trkpt>
		
			<trkpt lat="45.826480" lon="2.194550">
			 <ele>724</ele>
			<time>2016-06-13T17:35:45Z</time>
			</trkpt>
		
			<trkpt lat="45.826590" lon="2.194530">
			 <ele>724</ele>
			<time>2016-06-13T17:37:45Z</time>
			</trkpt>
		
			<trkpt lat="45.826700" lon="2.194510">
			 <ele>723</ele>
			<time>2016-06-13T17:39:45Z</time>
			</trkpt>
		
			<trkpt lat="45.826870" lon="2.194470">
			 <ele>722</ele>
			<time>2016-06-13T17:41:45Z</time>
			</trkpt>
		
			<trkpt lat="45.827150" lon="2.194380">
			 <ele>721</ele>
			<time>2016-06-13T17:43:45Z</time>
			</trkpt>
		
			<trkpt lat="45.827450" lon="2.194280">
			 <ele>720</ele>
			<time>2016-06-13T17:45:45Z</time>
			</trkpt>
		
			<trkpt lat="45.827790" lon="2.194160">
			 <ele>718</ele>
			<time>2016-06-13T17:47:45Z</time>
			</trkpt>
		
			<trkpt lat="45.828240" lon="2.194010">
			 <ele>716</ele>
			<time>2016-06-13T17:49:45Z</time>
			</trkpt>
		
			<trkpt lat="45.828380" lon="2.193960">
			 <ele>715</ele>
			<time>2016-06-13T17:51:45Z</time>
			</trkpt>
		
			<trkpt lat="45.828510" lon="2.193920">
			 <ele>715</ele>
			<time>2016-06-13T17:53:45Z</time>
			</trkpt>
		
			<trkpt lat="45.828720" lon="2.193860">
			 <ele>714</ele>
			<time>2016-06-13T17:55:45Z</time>
			</trkpt>
		
			<trkpt lat="45.828900" lon="2.193840">
			 <ele>714</ele>
			<time>2016-06-13T17:57:45Z</time>
			</trkpt>
		
			<trkpt lat="45.828990" lon="2.193840">
			 <ele>713</ele>
			<time>2016-06-13T17:59:45Z</time>
			</trkpt>
		
			<trkpt lat="45.829100" lon="2.193860">
			 <ele>713</ele>
			<time>2016-06-13T18:01:45Z</time>
			</trkpt>
		
			<trkpt lat="45.829160" lon="2.193870">
			 <ele>713</ele>
			<time>2016-06-13T18:03:45Z</time>
			</trkpt>
		
			<trkpt lat="45.829230" lon="2.193900">
			 <ele>713</ele>
			<time>2016-06-13T18:05:45Z</time>
			</trkpt>
		
			<trkpt lat="45.829500" lon="2.194050">
			 <ele>713</ele>
			<time>2016-06-13T18:07:45Z</time>
			</trkpt>
		
			<trkpt lat="45.829910" lon="2.194300">
			 <ele>712</ele>
			<time>2016-06-13T18:09:45Z</time>
			</trkpt>
		
			<trkpt lat="45.830180" lon="2.194460">
			 <ele>711</ele>
			<time>2016-06-13T18:11:45Z</time>
			</trkpt>
		
			<trkpt lat="45.830410" lon="2.194600">
			 <ele>710</ele>
			<time>2016-06-13T18:13:45Z</time>
			</trkpt>
		
			<trkpt lat="45.830840" lon="2.194860">
			 <ele>708</ele>
			<time>2016-06-13T18:15:45Z</time>
			</trkpt>
		
			<trkpt lat="45.830990" lon="2.194940">
			 <ele>708</ele>
			<time>2016-06-13T18:17:45Z</time>
			</trkpt>
		
			<trkpt lat="45.831120" lon="2.195000">
			 <ele>708</ele>
			<time>2016-06-13T18:19:45Z</time>
			</trkpt>
		
			<trkpt lat="45.831180" lon="2.195010">
			 <ele>708</ele>
			<time>2016-06-13T18:21:45Z</time>
			</trkpt>
		
			<trkpt lat="45.831270" lon="2.195030">
			 <ele>708</ele>
			<time>2016-06-13T18:23:45Z</time>
			</trkpt>
		
			<trkpt lat="45.831330" lon="2.195030">
			 <ele>709</ele>
			<time>2016-06-13T18:25:45Z</time>
			</trkpt>
		
			<trkpt lat="45.831450" lon="2.195010">
			 <ele>709</ele>
			<time>2016-06-13T18:27:45Z</time>
			</trkpt>
		
			<trkpt lat="45.831610" lon="2.194970">
			 <ele>709</ele>
			<time>2016-06-13T18:29:45Z</time>
			</trkpt>
		
			<trkpt lat="45.831750" lon="2.194930">
			 <ele>709</ele>
			<time>2016-06-13T18:31:45Z</time>
			</trkpt>
		
			<trkpt lat="45.831840" lon="2.194910">
			 <ele>709</ele>
			<time>2016-06-13T18:33:45Z</time>
			</trkpt>
		
			<trkpt lat="45.831950" lon="2.194880">
			 <ele>710</ele>
			<time>2016-06-13T18:35:45Z</time>
			</trkpt>
		
			<trkpt lat="45.832190" lon="2.194820">
			 <ele>711</ele>
			<time>2016-06-13T18:37:45Z</time>
			</trkpt>
		
			<trkpt lat="45.832260" lon="2.194810">
			 <ele>711</ele>
			<time>2016-06-13T18:39:45Z</time>
			</trkpt>
		
			<trkpt lat="45.832340" lon="2.194780">
			 <ele>712</ele>
			<time>2016-06-13T18:41:45Z</time>
			</trkpt>
		
			<trkpt lat="45.832410" lon="2.194760">
			 <ele>712</ele>
			<time>2016-06-13T18:43:45Z</time>
			</trkpt>
		
			<trkpt lat="45.832520" lon="2.194720">
			 <ele>713</ele>
			<time>2016-06-13T18:45:45Z</time>
			</trkpt>
		
			<trkpt lat="45.832580" lon="2.194680">
			 <ele>713</ele>
			<time>2016-06-13T18:47:45Z</time>
			</trkpt>
		
			<trkpt lat="45.832670" lon="2.194630">
			 <ele>713</ele>
			<time>2016-06-13T18:49:45Z</time>
			</trkpt>
		
			<trkpt lat="45.832760" lon="2.194550">
			 <ele>713</ele>
			<time>2016-06-13T18:51:45Z</time>
			</trkpt>
		
			<trkpt lat="45.832920" lon="2.194420">
			 <ele>714</ele>
			<time>2016-06-13T18:53:45Z</time>
			</trkpt>
		
			<trkpt lat="45.833210" lon="2.194170">
			 <ele>716</ele>
			<time>2016-06-13T18:55:45Z</time>
			</trkpt>
		
			<trkpt lat="45.833270" lon="2.194120">
			 <ele>716</ele>
			<time>2016-06-13T18:57:45Z</time>
			</trkpt>
		
			<trkpt lat="45.833790" lon="2.193700">
			 <ele>716</ele>
			<time>2016-06-13T18:59:45Z</time>
			</trkpt>
		
			<trkpt lat="45.834240" lon="2.193370">
			 <ele>714</ele>
			<time>2016-06-13T19:01:45Z</time>
			</trkpt>
		
			<trkpt lat="45.834450" lon="2.193230">
			 <ele>714</ele>
			<time>2016-06-13T19:03:45Z</time>
			</trkpt>
		
			<trkpt lat="45.834550" lon="2.193180">
			 <ele>713</ele>
			<time>2016-06-13T19:05:45Z</time>
			</trkpt>
		
			<trkpt lat="45.834580" lon="2.193170">
			 <ele>713</ele>
			<time>2016-06-13T19:07:45Z</time>
			</trkpt>
		
			<trkpt lat="45.834620" lon="2.193160">
			 <ele>713</ele>
			<time>2016-06-13T19:09:45Z</time>
			</trkpt>
		
			<trkpt lat="45.834680" lon="2.193140">
			 <ele>713</ele>
			<time>2016-06-13T19:11:45Z</time>
			</trkpt>
		
			<trkpt lat="45.834770" lon="2.193130">
			 <ele>712</ele>
			<time>2016-06-13T19:13:45Z</time>
			</trkpt>
		
			<trkpt lat="45.834950" lon="2.193110">
			 <ele>711</ele>
			<time>2016-06-13T19:15:45Z</time>
			</trkpt>
		
			<trkpt lat="45.835650" lon="2.193060">
			 <ele>709</ele>
			<time>2016-06-13T19:17:45Z</time>
			</trkpt>
		
			<trkpt lat="45.836290" lon="2.193010">
			 <ele>706</ele>
			<time>2016-06-13T19:19:45Z</time>
			</trkpt>
		
			<trkpt lat="45.836840" lon="2.192980">
			 <ele>704</ele>
			<time>2016-06-13T19:21:45Z</time>
			</trkpt>
		
			<trkpt lat="45.837230" lon="2.192950">
			 <ele>703</ele>
			<time>2016-06-13T19:23:45Z</time>
			</trkpt>
		
			<trkpt lat="45.837630" lon="2.192920">
			 <ele>701</ele>
			<time>2016-06-13T19:25:45Z</time>
			</trkpt>
		
			<trkpt lat="45.837770" lon="2.192900">
			 <ele>702</ele>
			<time>2016-06-13T19:27:45Z</time>
			</trkpt>
		
			<trkpt lat="45.837850" lon="2.192860">
			 <ele>702</ele>
			<time>2016-06-13T19:29:45Z</time>
			</trkpt>
		
			<trkpt lat="45.837930" lon="2.192810">
			 <ele>702</ele>
			<time>2016-06-13T19:31:45Z</time>
			</trkpt>
		
			<trkpt lat="45.838020" lon="2.192710">
			 <ele>702</ele>
			<time>2016-06-13T19:33:45Z</time>
			</trkpt>
		
			<trkpt lat="45.838110" lon="2.192590">
			 <ele>702</ele>
			<time>2016-06-13T19:35:45Z</time>
			</trkpt>
		
			<trkpt lat="45.838140" lon="2.192560">
			 <ele>701</ele>
			<time>2016-06-13T19:37:45Z</time>
			</trkpt>
		
			<trkpt lat="45.838200" lon="2.192510">
			 <ele>701</ele>
			<time>2016-06-13T19:39:45Z</time>
			</trkpt>
		
			<trkpt lat="45.838260" lon="2.192470">
			 <ele>701</ele>
			<time>2016-06-13T19:41:45Z</time>
			</trkpt>
		
			<trkpt lat="45.838310" lon="2.192440">
			 <ele>701</ele>
			<time>2016-06-13T19:43:45Z</time>
			</trkpt>
		
			<trkpt lat="45.838480" lon="2.192370">
			 <ele>700</ele>
			<time>2016-06-13T19:45:45Z</time>
			</trkpt>
		
			<trkpt lat="45.838670" lon="2.192330">
			 <ele>700</ele>
			<time>2016-06-13T19:47:45Z</time>
			</trkpt>
		
			<trkpt lat="45.839080" lon="2.192300">
			 <ele>701</ele>
			<time>2016-06-13T19:49:45Z</time>
			</trkpt>
		
			<trkpt lat="45.839380" lon="2.192250">
			 <ele>701</ele>
			<time>2016-06-13T19:51:45Z</time>
			</trkpt>
		
			<trkpt lat="45.839410" lon="2.192250">
			 <ele>701</ele>
			<time>2016-06-13T19:53:45Z</time>
			</trkpt>
		
			<trkpt lat="45.839600" lon="2.192180">
			 <ele>701</ele>
			<time>2016-06-13T19:55:45Z</time>
			</trkpt>
		
			<trkpt lat="45.839720" lon="2.192120">
			 <ele>701</ele>
			<time>2016-06-13T19:57:45Z</time>
			</trkpt>
		
			<trkpt lat="45.839780" lon="2.192070">
			 <ele>700</ele>
			<time>2016-06-13T19:59:45Z</time>
			</trkpt>
		
			<trkpt lat="45.839810" lon="2.192040">
			 <ele>700</ele>
			<time>2016-06-13T20:01:45Z</time>
			</trkpt>
		
			<trkpt lat="45.839880" lon="2.191970">
			 <ele>700</ele>
			<time>2016-06-13T20:03:45Z</time>
			</trkpt>
		
			<trkpt lat="45.839960" lon="2.191850">
			 <ele>700</ele>
			<time>2016-06-13T20:05:45Z</time>
			</trkpt>
		
			<trkpt lat="45.840020" lon="2.191740">
			 <ele>699</ele>
			<time>2016-06-13T20:07:45Z</time>
			</trkpt>
		
			<trkpt lat="45.840060" lon="2.191630">
			 <ele>699</ele>
			<time>2016-06-13T20:09:45Z</time>
			</trkpt>
		
			<trkpt lat="45.840110" lon="2.191500">
			 <ele>698</ele>
			<time>2016-06-13T20:11:45Z</time>
			</trkpt>
		
			<trkpt lat="45.840150" lon="2.191360">
			 <ele>698</ele>
			<time>2016-06-13T20:13:45Z</time>
			</trkpt>
		
			<trkpt lat="45.840170" lon="2.191190">
			 <ele>697</ele>
			<time>2016-06-13T20:15:45Z</time>
			</trkpt>
		
			<trkpt lat="45.840250" lon="2.190440">
			 <ele>696</ele>
			<time>2016-06-13T20:17:45Z</time>
			</trkpt>
		
			<trkpt lat="45.840410" lon="2.188800">
			 <ele>694</ele>
			<time>2016-06-13T20:19:45Z</time>
			</trkpt>
		
			<trkpt lat="45.840490" lon="2.188270">
			 <ele>693</ele>
			<time>2016-06-13T20:21:45Z</time>
			</trkpt>
		
			<trkpt lat="45.840540" lon="2.188100">
			 <ele>693</ele>
			<time>2016-06-13T20:23:45Z</time>
			</trkpt>
		
			<trkpt lat="45.840620" lon="2.187940">
			 <ele>693</ele>
			<time>2016-06-13T20:25:45Z</time>
			</trkpt>
		
			<trkpt lat="45.840680" lon="2.187810">
			 <ele>693</ele>
			<time>2016-06-13T20:27:45Z</time>
			</trkpt>
		
			<trkpt lat="45.840760" lon="2.187700">
			 <ele>694</ele>
			<time>2016-06-13T20:29:45Z</time>
			</trkpt>
		
			<trkpt lat="45.840830" lon="2.187620">
			 <ele>694</ele>
			<time>2016-06-13T20:31:45Z</time>
			</trkpt>
		
			<trkpt lat="45.840920" lon="2.187540">
			 <ele>694</ele>
			<time>2016-06-13T20:33:45Z</time>
			</trkpt>
		
			<trkpt lat="45.841020" lon="2.187470">
			 <ele>693</ele>
			<time>2016-06-13T20:35:45Z</time>
			</trkpt>
		
			<trkpt lat="45.841130" lon="2.187420">
			 <ele>692</ele>
			<time>2016-06-13T20:37:45Z</time>
			</trkpt>
		
			<trkpt lat="45.841270" lon="2.187380">
			 <ele>692</ele>
			<time>2016-06-13T20:39:45Z</time>
			</trkpt>
		
			<trkpt lat="45.841420" lon="2.187360">
			 <ele>691</ele>
			<time>2016-06-13T20:41:45Z</time>
			</trkpt>
		
			<trkpt lat="45.841630" lon="2.187370">
			 <ele>689</ele>
			<time>2016-06-13T20:43:45Z</time>
			</trkpt>
		
			<trkpt lat="45.841770" lon="2.187410">
			 <ele>688</ele>
			<time>2016-06-13T20:45:45Z</time>
			</trkpt>
		
			<trkpt lat="45.841910" lon="2.187460">
			 <ele>687</ele>
			<time>2016-06-13T20:47:45Z</time>
			</trkpt>
		
			<trkpt lat="45.842350" lon="2.187600">
			 <ele>685</ele>
			<time>2016-06-13T20:49:45Z</time>
			</trkpt>
		
			<trkpt lat="45.842510" lon="2.187640">
			 <ele>684</ele>
			<time>2016-06-13T20:51:45Z</time>
			</trkpt>
		
			<trkpt lat="45.842620" lon="2.187660">
			 <ele>683</ele>
			<time>2016-06-13T20:53:45Z</time>
			</trkpt>
		
			<trkpt lat="45.842730" lon="2.187670">
			 <ele>682</ele>
			<time>2016-06-13T20:55:45Z</time>
			</trkpt>
		
			<trkpt lat="45.842850" lon="2.187670">
			 <ele>681</ele>
			<time>2016-06-13T20:57:45Z</time>
			</trkpt>
		
			<trkpt lat="45.843010" lon="2.187660">
			 <ele>680</ele>
			<time>2016-06-13T20:59:45Z</time>
			</trkpt>
		
			<trkpt lat="45.843710" lon="2.187620">
			 <ele>674</ele>
			<time>2016-06-13T21:01:45Z</time>
			</trkpt>
		
			<trkpt lat="45.843870" lon="2.187600">
			 <ele>673</ele>
			<time>2016-06-13T21:03:45Z</time>
			</trkpt>
		
			<trkpt lat="45.843990" lon="2.187570">
			 <ele>672</ele>
			<time>2016-06-13T21:05:45Z</time>
			</trkpt>
		
			<trkpt lat="45.844110" lon="2.187520">
			 <ele>671</ele>
			<time>2016-06-13T21:07:45Z</time>
			</trkpt>
		
			<trkpt lat="45.844230" lon="2.187440">
			 <ele>670</ele>
			<time>2016-06-13T21:09:45Z</time>
			</trkpt>
		
			<trkpt lat="45.844350" lon="2.187300">
			 <ele>669</ele>
			<time>2016-06-13T21:11:45Z</time>
			</trkpt>
		
			<trkpt lat="45.844420" lon="2.187210">
			 <ele>668</ele>
			<time>2016-06-13T21:13:45Z</time>
			</trkpt>
		
			<trkpt lat="45.844500" lon="2.187110">
			 <ele>668</ele>
			<time>2016-06-13T21:15:45Z</time>
			</trkpt>
		
			<trkpt lat="45.844870" lon="2.186590">
			 <ele>665</ele>
			<time>2016-06-13T21:17:45Z</time>
			</trkpt>
		
			<trkpt lat="45.845230" lon="2.186090">
			 <ele>664</ele>
			<time>2016-06-13T21:19:45Z</time>
			</trkpt>
		
			<trkpt lat="45.845330" lon="2.185980">
			 <ele>664</ele>
			<time>2016-06-13T21:21:45Z</time>
			</trkpt>
		
			<trkpt lat="45.845460" lon="2.185860">
			 <ele>664</ele>
			<time>2016-06-13T21:23:45Z</time>
			</trkpt>
		
			<trkpt lat="45.845590" lon="2.185740">
			 <ele>663</ele>
			<time>2016-06-13T21:25:45Z</time>
			</trkpt>
		
			<trkpt lat="45.845650" lon="2.185690">
			 <ele>663</ele>
			<time>2016-06-13T21:27:45Z</time>
			</trkpt>
		
			<trkpt lat="45.845750" lon="2.185610">
			 <ele>663</ele>
			<time>2016-06-13T21:29:45Z</time>
			</trkpt>
		
			<trkpt lat="45.845900" lon="2.185510">
			 <ele>663</ele>
			<time>2016-06-13T21:31:45Z</time>
			</trkpt>
		
			<trkpt lat="45.846120" lon="2.185360">
			 <ele>663</ele>
			<time>2016-06-13T21:33:45Z</time>
			</trkpt>
		
			<trkpt lat="45.846150" lon="2.185330">
			 <ele>663</ele>
			<time>2016-06-13T21:35:45Z</time>
			</trkpt>
		
			<trkpt lat="45.846600" lon="2.185010">
			 <ele>663</ele>
			<time>2016-06-13T21:37:45Z</time>
			</trkpt>
		
			<trkpt lat="45.846740" lon="2.184920">
			 <ele>663</ele>
			<time>2016-06-13T21:39:45Z</time>
			</trkpt>
		
			<trkpt lat="45.846850" lon="2.184870">
			 <ele>663</ele>
			<time>2016-06-13T21:41:45Z</time>
			</trkpt>
		
			<trkpt lat="45.846980" lon="2.184830">
			 <ele>662</ele>
			<time>2016-06-13T21:43:45Z</time>
			</trkpt>
		
			<trkpt lat="45.847160" lon="2.184800">
			 <ele>662</ele>
			<time>2016-06-13T21:45:45Z</time>
			</trkpt>
		
			<trkpt lat="45.847720" lon="2.184690">
			 <ele>660</ele>
			<time>2016-06-13T21:47:45Z</time>
			</trkpt>
		
			<trkpt lat="45.848200" lon="2.184590">
			 <ele>657</ele>
			<time>2016-06-13T21:49:45Z</time>
			</trkpt>
		
			<trkpt lat="45.848570" lon="2.184520">
			 <ele>656</ele>
			<time>2016-06-13T21:51:45Z</time>
			</trkpt>
		
			<trkpt lat="45.848710" lon="2.184500">
			 <ele>655</ele>
			<time>2016-06-13T21:53:45Z</time>
			</trkpt>
		
			<trkpt lat="45.848810" lon="2.184500">
			 <ele>655</ele>
			<time>2016-06-13T21:55:45Z</time>
			</trkpt>
		
			<trkpt lat="45.848910" lon="2.184540">
			 <ele>656</ele>
			<time>2016-06-13T21:57:45Z</time>
			</trkpt>
		
			<trkpt lat="45.849000" lon="2.184580">
			 <ele>656</ele>
			<time>2016-06-13T21:59:45Z</time>
			</trkpt>
		
			<trkpt lat="45.849090" lon="2.184650">
			 <ele>656</ele>
			<time>2016-06-13T22:01:45Z</time>
			</trkpt>
		
			<trkpt lat="45.849210" lon="2.184740">
			 <ele>656</ele>
			<time>2016-06-13T22:03:45Z</time>
			</trkpt>
		
			<trkpt lat="45.849500" lon="2.184990">
			 <ele>656</ele>
			<time>2016-06-13T22:05:45Z</time>
			</trkpt>
		
			<trkpt lat="45.849900" lon="2.185310">
			 <ele>654</ele>
			<time>2016-06-13T22:07:45Z</time>
			</trkpt>
		
			<trkpt lat="45.850150" lon="2.185470">
			 <ele>652</ele>
			<time>2016-06-13T22:09:45Z</time>
			</trkpt>
		
			<trkpt lat="45.850470" lon="2.185650">
			 <ele>650</ele>
			<time>2016-06-13T22:11:45Z</time>
			</trkpt>
		
			<trkpt lat="45.850800" lon="2.185820">
			 <ele>647</ele>
			<time>2016-06-13T22:13:45Z</time>
			</trkpt>
		
			<trkpt lat="45.851090" lon="2.185960">
			 <ele>645</ele>
			<time>2016-06-13T22:15:45Z</time>
			</trkpt>
		
			<trkpt lat="45.851360" lon="2.186080">
			 <ele>643</ele>
			<time>2016-06-13T22:17:45Z</time>
			</trkpt>
		
			<trkpt lat="45.851690" lon="2.186200">
			 <ele>641</ele>
			<time>2016-06-13T22:19:45Z</time>
			</trkpt>
		
			<trkpt lat="45.852000" lon="2.186320">
			 <ele>636</ele>
			<time>2016-06-13T22:21:45Z</time>
			</trkpt>
		
			<trkpt lat="45.852140" lon="2.186340">
			 <ele>634</ele>
			<time>2016-06-13T22:23:45Z</time>
			</trkpt>
		
			<trkpt lat="45.852180" lon="2.186330">
			 <ele>634</ele>
			<time>2016-06-13T22:25:45Z</time>
			</trkpt>
		
			<trkpt lat="45.852220" lon="2.186300">
			 <ele>634</ele>
			<time>2016-06-13T22:27:45Z</time>
			</trkpt>
		
			<trkpt lat="45.852250" lon="2.186250">
			 <ele>634</ele>
			<time>2016-06-13T22:29:45Z</time>
			</trkpt>
		
			<trkpt lat="45.852300" lon="2.186110">
			 <ele>635</ele>
			<time>2016-06-13T22:31:45Z</time>
			</trkpt>
		
			<trkpt lat="45.852340" lon="2.185970">
			 <ele>636</ele>
			<time>2016-06-13T22:33:45Z</time>
			</trkpt>
		
			<trkpt lat="45.852380" lon="2.185740">
			 <ele>639</ele>
			<time>2016-06-13T22:35:45Z</time>
			</trkpt>
		
			<trkpt lat="45.852420" lon="2.185640">
			 <ele>640</ele>
			<time>2016-06-13T22:37:45Z</time>
			</trkpt>
		
			<trkpt lat="45.852470" lon="2.185570">
			 <ele>641</ele>
			<time>2016-06-13T22:39:45Z</time>
			</trkpt>
		
			<trkpt lat="45.852520" lon="2.185510">
			 <ele>641</ele>
			<time>2016-06-13T22:41:45Z</time>
			</trkpt>
		
			<trkpt lat="45.852630" lon="2.185450">
			 <ele>638</ele>
			<time>2016-06-13T22:43:45Z</time>
			</trkpt>
		
			<trkpt lat="45.852760" lon="2.185420">
			 <ele>634</ele>
			<time>2016-06-13T22:45:45Z</time>
			</trkpt>
		
			<trkpt lat="45.852890" lon="2.185380">
			 <ele>630</ele>
			<time>2016-06-13T22:47:45Z</time>
			</trkpt>
		
			<trkpt lat="45.852970" lon="2.185350">
			 <ele>628</ele>
			<time>2016-06-13T22:49:45Z</time>
			</trkpt>
		
			<trkpt lat="45.853030" lon="2.185310">
			 <ele>626</ele>
			<time>2016-06-13T22:51:45Z</time>
			</trkpt>
		
			<trkpt lat="45.853050" lon="2.185280">
			 <ele>626</ele>
			<time>2016-06-13T22:53:45Z</time>
			</trkpt>
		
			<trkpt lat="45.853080" lon="2.185220">
			 <ele>626</ele>
			<time>2016-06-13T22:55:45Z</time>
			</trkpt>
		
			<trkpt lat="45.853110" lon="2.185140">
			 <ele>626</ele>
			<time>2016-06-13T22:57:45Z</time>
			</trkpt>
		
			<trkpt lat="45.853160" lon="2.184940">
			 <ele>626</ele>
			<time>2016-06-13T22:59:45Z</time>
			</trkpt>
		
			<trkpt lat="45.853280" lon="2.184370">
			 <ele>625</ele>
			<time>2016-06-13T23:01:45Z</time>
			</trkpt>
		
			<trkpt lat="45.853290" lon="2.184200">
			 <ele>625</ele>
			<time>2016-06-13T23:03:45Z</time>
			</trkpt>
		
			<trkpt lat="45.853300" lon="2.184090">
			 <ele>625</ele>
			<time>2016-06-13T23:05:45Z</time>
			</trkpt>
		
			<trkpt lat="45.853300" lon="2.183890">
			 <ele>625</ele>
			<time>2016-06-13T23:07:45Z</time>
			</trkpt>
		
			<trkpt lat="45.853320" lon="2.183750">
			 <ele>625</ele>
			<time>2016-06-13T23:09:45Z</time>
			</trkpt>
		
			<trkpt lat="45.853360" lon="2.183640">
			 <ele>624</ele>
			<time>2016-06-13T23:11:45Z</time>
			</trkpt>
		
			<trkpt lat="45.853400" lon="2.183570">
			 <ele>624</ele>
			<time>2016-06-13T23:13:45Z</time>
			</trkpt>
		
			<trkpt lat="45.853460" lon="2.183510">
			 <ele>624</ele>
			<time>2016-06-13T23:15:45Z</time>
			</trkpt>
		
			<trkpt lat="45.853540" lon="2.183450">
			 <ele>624</ele>
			<time>2016-06-13T23:17:45Z</time>
			</trkpt>
		
			<trkpt lat="45.853600" lon="2.183440">
			 <ele>624</ele>
			<time>2016-06-13T23:19:45Z</time>
			</trkpt>
		
			<trkpt lat="45.853660" lon="2.183440">
			 <ele>623</ele>
			<time>2016-06-13T23:21:45Z</time>
			</trkpt>
		
			<trkpt lat="45.853730" lon="2.183470">
			 <ele>623</ele>
			<time>2016-06-13T23:23:45Z</time>
			</trkpt>
		
			<trkpt lat="45.853760" lon="2.183490">
			 <ele>623</ele>
			<time>2016-06-13T23:25:45Z</time>
			</trkpt>
		
			<trkpt lat="45.853780" lon="2.183510">
			 <ele>623</ele>
			<time>2016-06-13T23:27:45Z</time>
			</trkpt>
		
			<trkpt lat="45.853830" lon="2.183570">
			 <ele>622</ele>
			<time>2016-06-13T23:29:45Z</time>
			</trkpt>
		
			<trkpt lat="45.853860" lon="2.183650">
			 <ele>622</ele>
			<time>2016-06-13T23:31:45Z</time>
			</trkpt>
		
			<trkpt lat="45.853890" lon="2.183730">
			 <ele>621</ele>
			<time>2016-06-13T23:33:45Z</time>
			</trkpt>
		
			<trkpt lat="45.853900" lon="2.183810">
			 <ele>621</ele>
			<time>2016-06-13T23:35:45Z</time>
			</trkpt>
		
			<trkpt lat="45.853920" lon="2.183980">
			 <ele>620</ele>
			<time>2016-06-13T23:37:45Z</time>
			</trkpt>
		
			<trkpt lat="45.853930" lon="2.184340">
			 <ele>618</ele>
			<time>2016-06-13T23:39:45Z</time>
			</trkpt>
		
			<trkpt lat="45.853950" lon="2.184570">
			 <ele>617</ele>
			<time>2016-06-13T23:41:45Z</time>
			</trkpt>
		
			<trkpt lat="45.853990" lon="2.184760">
			 <ele>615</ele>
			<time>2016-06-13T23:43:45Z</time>
			</trkpt>
		
			<trkpt lat="45.854040" lon="2.184860">
			 <ele>614</ele>
			<time>2016-06-13T23:45:45Z</time>
			</trkpt>
		
			<trkpt lat="45.854100" lon="2.185000">
			 <ele>613</ele>
			<time>2016-06-13T23:47:45Z</time>
			</trkpt>
		
			<trkpt lat="45.854280" lon="2.185300">
			 <ele>608</ele>
			<time>2016-06-13T23:49:45Z</time>
			</trkpt>
		
			<trkpt lat="45.854460" lon="2.185530">
			 <ele>606</ele>
			<time>2016-06-13T23:51:45Z</time>
			</trkpt>
		
			<trkpt lat="45.854640" lon="2.185750">
			 <ele>604</ele>
			<time>2016-06-13T23:53:45Z</time>
			</trkpt>
		
			<trkpt lat="45.854770" lon="2.185840">
			 <ele>603</ele>
			<time>2016-06-13T23:55:45Z</time>
			</trkpt>
		
			<trkpt lat="45.854870" lon="2.185870">
			 <ele>603</ele>
			<time>2016-06-13T23:57:45Z</time>
			</trkpt>
		
			<trkpt lat="45.854940" lon="2.185860">
			 <ele>604</ele>
			<time>2016-06-13T23:59:45Z</time>
			</trkpt>
		
			<trkpt lat="45.855030" lon="2.185830">
			 <ele>605</ele>
			<time>2016-06-14T00:01:45Z</time>
			</trkpt>
		
			<trkpt lat="45.855140" lon="2.185760">
			 <ele>606</ele>
			<time>2016-06-14T00:03:45Z</time>
			</trkpt>
		
			<trkpt lat="45.855240" lon="2.185680">
			 <ele>607</ele>
			<time>2016-06-14T00:05:45Z</time>
			</trkpt>
		
			<trkpt lat="45.855310" lon="2.185650">
			 <ele>607</ele>
			<time>2016-06-14T00:07:45Z</time>
			</trkpt>
		
			<trkpt lat="45.855370" lon="2.185640">
			 <ele>607</ele>
			<time>2016-06-14T00:09:45Z</time>
			</trkpt>
		
			<trkpt lat="45.855410" lon="2.185640">
			 <ele>607</ele>
			<time>2016-06-14T00:11:45Z</time>
			</trkpt>
		
			<trkpt lat="45.855460" lon="2.185670">
			 <ele>606</ele>
			<time>2016-06-14T00:13:45Z</time>
			</trkpt>
		
			<trkpt lat="45.855500" lon="2.185710">
			 <ele>606</ele>
			<time>2016-06-14T00:15:45Z</time>
			</trkpt>
		
			<trkpt lat="45.855540" lon="2.185760">
			 <ele>605</ele>
			<time>2016-06-14T00:17:45Z</time>
			</trkpt>
		
			<trkpt lat="45.855560" lon="2.185830">
			 <ele>604</ele>
			<time>2016-06-14T00:19:45Z</time>
			</trkpt>
		
			<trkpt lat="45.855590" lon="2.185940">
			 <ele>602</ele>
			<time>2016-06-14T00:21:45Z</time>
			</trkpt>
		
			<trkpt lat="45.855630" lon="2.186060">
			 <ele>599</ele>
			<time>2016-06-14T00:23:45Z</time>
			</trkpt>
		
			<trkpt lat="45.855650" lon="2.186140">
			 <ele>598</ele>
			<time>2016-06-14T00:25:45Z</time>
			</trkpt>
		
			<trkpt lat="45.855680" lon="2.186200">
			 <ele>597</ele>
			<time>2016-06-14T00:27:45Z</time>
			</trkpt>
		
			<trkpt lat="45.855720" lon="2.186270">
			 <ele>596</ele>
			<time>2016-06-14T00:29:45Z</time>
			</trkpt>
		
			<trkpt lat="45.855770" lon="2.186330">
			 <ele>595</ele>
			<time>2016-06-14T00:31:45Z</time>
			</trkpt>
		
			<trkpt lat="45.855810" lon="2.186360">
			 <ele>594</ele>
			<time>2016-06-14T00:33:45Z</time>
			</trkpt>
		
			<trkpt lat="45.855880" lon="2.186390">
			 <ele>594</ele>
			<time>2016-06-14T00:35:45Z</time>
			</trkpt>
		
			<trkpt lat="45.855930" lon="2.186390">
			 <ele>594</ele>
			<time>2016-06-14T00:37:45Z</time>
			</trkpt>
		
			<trkpt lat="45.855990" lon="2.186390">
			 <ele>594</ele>
			<time>2016-06-14T00:39:45Z</time>
			</trkpt>
		
			<trkpt lat="45.856040" lon="2.186370">
			 <ele>594</ele>
			<time>2016-06-14T00:41:45Z</time>
			</trkpt>
		
			<trkpt lat="45.856150" lon="2.186320">
			 <ele>595</ele>
			<time>2016-06-14T00:43:45Z</time>
			</trkpt>
		
			<trkpt lat="45.856390" lon="2.186190">
			 <ele>597</ele>
			<time>2016-06-14T00:45:45Z</time>
			</trkpt>
		
			<trkpt lat="45.856510" lon="2.186130">
			 <ele>597</ele>
			<time>2016-06-14T00:47:45Z</time>
			</trkpt>
		
			<trkpt lat="45.856580" lon="2.186090">
			 <ele>598</ele>
			<time>2016-06-14T00:49:45Z</time>
			</trkpt>
		
			<trkpt lat="45.856640" lon="2.186040">
			 <ele>599</ele>
			<time>2016-06-14T00:51:45Z</time>
			</trkpt>
		
			<trkpt lat="45.856680" lon="2.185990">
			 <ele>599</ele>
			<time>2016-06-14T00:53:45Z</time>
			</trkpt>
		
			<trkpt lat="45.856720" lon="2.185940">
			 <ele>600</ele>
			<time>2016-06-14T00:55:45Z</time>
			</trkpt>
		
			<trkpt lat="45.856800" lon="2.185760">
			 <ele>601</ele>
			<time>2016-06-14T00:57:45Z</time>
			</trkpt>
		
			<trkpt lat="45.856880" lon="2.185590">
			 <ele>603</ele>
			<time>2016-06-14T00:59:45Z</time>
			</trkpt>
		
			<trkpt lat="45.856960" lon="2.185460">
			 <ele>605</ele>
			<time>2016-06-14T01:01:45Z</time>
			</trkpt>
		
			<trkpt lat="45.857030" lon="2.185400">
			 <ele>605</ele>
			<time>2016-06-14T01:03:45Z</time>
			</trkpt>
		
			<trkpt lat="45.857080" lon="2.185360">
			 <ele>605</ele>
			<time>2016-06-14T01:05:45Z</time>
			</trkpt>
		
			<trkpt lat="45.857150" lon="2.185350">
			 <ele>605</ele>
			<time>2016-06-14T01:07:45Z</time>
			</trkpt>
		
			<trkpt lat="45.857230" lon="2.185360">
			 <ele>603</ele>
			<time>2016-06-14T01:09:45Z</time>
			</trkpt>
		
			<trkpt lat="45.857320" lon="2.185380">
			 <ele>602</ele>
			<time>2016-06-14T01:11:45Z</time>
			</trkpt>
		
			<trkpt lat="45.857410" lon="2.185410">
			 <ele>600</ele>
			<time>2016-06-14T01:13:45Z</time>
			</trkpt>
		
			<trkpt lat="45.857630" lon="2.185470">
			 <ele>595</ele>
			<time>2016-06-14T01:15:45Z</time>
			</trkpt>
		
			<trkpt lat="45.857850" lon="2.185520">
			 <ele>591</ele>
			<time>2016-06-14T01:17:45Z</time>
			</trkpt>
		
			<trkpt lat="45.857990" lon="2.185540">
			 <ele>589</ele>
			<time>2016-06-14T01:19:45Z</time>
			</trkpt>
		
			<trkpt lat="45.858120" lon="2.185530">
			 <ele>587</ele>
			<time>2016-06-14T01:21:45Z</time>
			</trkpt>
		
			<trkpt lat="45.858220" lon="2.185510">
			 <ele>587</ele>
			<time>2016-06-14T01:23:45Z</time>
			</trkpt>
		
			<trkpt lat="45.858290" lon="2.185480">
			 <ele>586</ele>
			<time>2016-06-14T01:25:45Z</time>
			</trkpt>
		
			<trkpt lat="45.858370" lon="2.185430">
			 <ele>586</ele>
			<time>2016-06-14T01:27:45Z</time>
			</trkpt>
		
			<trkpt lat="45.858460" lon="2.185340">
			 <ele>585</ele>
			<time>2016-06-14T01:29:45Z</time>
			</trkpt>
		
			<trkpt lat="45.858570" lon="2.185210">
			 <ele>585</ele>
			<time>2016-06-14T01:31:45Z</time>
			</trkpt>
		
			<trkpt lat="45.858670" lon="2.185070">
			 <ele>585</ele>
			<time>2016-06-14T01:33:45Z</time>
			</trkpt>
		
			<trkpt lat="45.858790" lon="2.184890">
			 <ele>584</ele>
			<time>2016-06-14T01:35:45Z</time>
			</trkpt>
		
			<trkpt lat="45.858840" lon="2.184790">
			 <ele>583</ele>
			<time>2016-06-14T01:37:45Z</time>
			</trkpt>
		
			<trkpt lat="45.858880" lon="2.184700">
			 <ele>583</ele>
			<time>2016-06-14T01:39:45Z</time>
			</trkpt>
		
			<trkpt lat="45.858900" lon="2.184610">
			 <ele>583</ele>
			<time>2016-06-14T01:41:45Z</time>
			</trkpt>
		
			<trkpt lat="45.858920" lon="2.184510">
			 <ele>584</ele>
			<time>2016-06-14T01:43:45Z</time>
			</trkpt>
		
			<trkpt lat="45.858920" lon="2.184410">
			 <ele>584</ele>
			<time>2016-06-14T01:45:45Z</time>
			</trkpt>
		
			<trkpt lat="45.858900" lon="2.184280">
			 <ele>586</ele>
			<time>2016-06-14T01:47:45Z</time>
			</trkpt>
		
			<trkpt lat="45.858870" lon="2.184120">
			 <ele>589</ele>
			<time>2016-06-14T01:49:45Z</time>
			</trkpt>
		
			<trkpt lat="45.858860" lon="2.183980">
			 <ele>590</ele>
			<time>2016-06-14T01:51:45Z</time>
			</trkpt>
		
			<trkpt lat="45.858870" lon="2.183860">
			 <ele>591</ele>
			<time>2016-06-14T01:53:45Z</time>
			</trkpt>
		
			<trkpt lat="45.858900" lon="2.183740">
			 <ele>592</ele>
			<time>2016-06-14T01:55:45Z</time>
			</trkpt>
		
			<trkpt lat="45.858940" lon="2.183620">
			 <ele>592</ele>
			<time>2016-06-14T01:57:45Z</time>
			</trkpt>
		
			<trkpt lat="45.859020" lon="2.183510">
			 <ele>591</ele>
			<time>2016-06-14T01:59:45Z</time>
			</trkpt>
		
			<trkpt lat="45.859110" lon="2.183450">
			 <ele>589</ele>
			<time>2016-06-14T02:01:45Z</time>
			</trkpt>
		
			<trkpt lat="45.859300" lon="2.183360">
			 <ele>584</ele>
			<time>2016-06-14T02:03:45Z</time>
			</trkpt>
		
			<trkpt lat="45.859650" lon="2.183220">
			 <ele>576</ele>
			<time>2016-06-14T02:05:45Z</time>
			</trkpt>
		
			<trkpt lat="45.859850" lon="2.183140">
			 <ele>572</ele>
			<time>2016-06-14T02:07:45Z</time>
			</trkpt>
		
			<trkpt lat="45.860080" lon="2.183050">
			 <ele>568</ele>
			<time>2016-06-14T02:09:45Z</time>
			</trkpt>
		
			<trkpt lat="45.860300" lon="2.182970">
			 <ele>566</ele>
			<time>2016-06-14T02:11:45Z</time>
			</trkpt>
		
			<trkpt lat="45.860470" lon="2.182880">
			 <ele>565</ele>
			<time>2016-06-14T02:13:45Z</time>
			</trkpt>
		
			<trkpt lat="45.860570" lon="2.182800">
			 <ele>565</ele>
			<time>2016-06-14T02:15:45Z</time>
			</trkpt>
		
			<trkpt lat="45.860670" lon="2.182700">
			 <ele>565</ele>
			<time>2016-06-14T02:17:45Z</time>
			</trkpt>
		
			<trkpt lat="45.860800" lon="2.182550">
			 <ele>566</ele>
			<time>2016-06-14T02:19:45Z</time>
			</trkpt>
		
			<trkpt lat="45.861020" lon="2.182230">
			 <ele>561</ele>
			<time>2016-06-14T02:21:45Z</time>
			</trkpt>
		
			<trkpt lat="45.861090" lon="2.182120">
			 <ele>559</ele>
			<time>2016-06-14T02:23:45Z</time>
			</trkpt>
		
			<trkpt lat="45.861120" lon="2.182040">
			 <ele>558</ele>
			<time>2016-06-14T02:25:45Z</time>
			</trkpt>
		
			<trkpt lat="45.861150" lon="2.181960">
			 <ele>558</ele>
			<time>2016-06-14T02:27:45Z</time>
			</trkpt>
		
			<trkpt lat="45.861170" lon="2.181890">
			 <ele>557</ele>
			<time>2016-06-14T02:29:45Z</time>
			</trkpt>
		
			<trkpt lat="45.861170" lon="2.181780">
			 <ele>558</ele>
			<time>2016-06-14T02:31:45Z</time>
			</trkpt>
		
			<trkpt lat="45.861160" lon="2.181580">
			 <ele>559</ele>
			<time>2016-06-14T02:33:45Z</time>
			</trkpt>
		
			<trkpt lat="45.861070" lon="2.181050">
			 <ele>558</ele>
			<time>2016-06-14T02:35:45Z</time>
			</trkpt>
		
			<trkpt lat="45.861050" lon="2.180880">
			 <ele>557</ele>
			<time>2016-06-14T02:37:45Z</time>
			</trkpt>
		
			<trkpt lat="45.861030" lon="2.180630">
			 <ele>557</ele>
			<time>2016-06-14T02:39:45Z</time>
			</trkpt>
		
			<trkpt lat="45.861040" lon="2.180530">
			 <ele>557</ele>
			<time>2016-06-14T02:41:45Z</time>
			</trkpt>
		
			<trkpt lat="45.861050" lon="2.180450">
			 <ele>556</ele>
			<time>2016-06-14T02:43:45Z</time>
			</trkpt>
		
			<trkpt lat="45.861060" lon="2.180400">
			 <ele>556</ele>
			<time>2016-06-14T02:45:45Z</time>
			</trkpt>
		
			<trkpt lat="45.861080" lon="2.180340">
			 <ele>556</ele>
			<time>2016-06-14T02:47:45Z</time>
			</trkpt>
		
			<trkpt lat="45.861120" lon="2.180290">
			 <ele>555</ele>
			<time>2016-06-14T02:49:45Z</time>
			</trkpt>
		
			<trkpt lat="45.861170" lon="2.180240">
			 <ele>554</ele>
			<time>2016-06-14T02:51:45Z</time>
			</trkpt>
		
			<trkpt lat="45.861220" lon="2.180200">
			 <ele>553</ele>
			<time>2016-06-14T02:53:45Z</time>
			</trkpt>
		
			<trkpt lat="45.861340" lon="2.180150">
			 <ele>551</ele>
			<time>2016-06-14T02:55:45Z</time>
			</trkpt>
		
			<trkpt lat="45.861480" lon="2.180100">
			 <ele>549</ele>
			<time>2016-06-14T02:57:45Z</time>
			</trkpt>
		
			<trkpt lat="45.861620" lon="2.180060">
			 <ele>547</ele>
			<time>2016-06-14T02:59:45Z</time>
			</trkpt>
		
			<trkpt lat="45.861820" lon="2.180020">
			 <ele>545</ele>
			<time>2016-06-14T03:01:45Z</time>
			</trkpt>
		
			<trkpt lat="45.861910" lon="2.180000">
			 <ele>544</ele>
			<time>2016-06-14T03:03:45Z</time>
			</trkpt>
		
			<trkpt lat="45.861980" lon="2.179980">
			 <ele>543</ele>
			<time>2016-06-14T03:05:45Z</time>
			</trkpt>
		
			<trkpt lat="45.862030" lon="2.179950">
			 <ele>543</ele>
			<time>2016-06-14T03:07:45Z</time>
			</trkpt>
		
			<trkpt lat="45.862090" lon="2.179910">
			 <ele>543</ele>
			<time>2016-06-14T03:09:45Z</time>
			</trkpt>
		
			<trkpt lat="45.862220" lon="2.179800">
			 <ele>543</ele>
			<time>2016-06-14T03:11:45Z</time>
			</trkpt>
		
			<trkpt lat="45.862570" lon="2.179490">
			 <ele>542</ele>
			<time>2016-06-14T03:13:45Z</time>
			</trkpt>
		
			<trkpt lat="45.862930" lon="2.179160">
			 <ele>540</ele>
			<time>2016-06-14T03:15:45Z</time>
			</trkpt>
		
			<trkpt lat="45.863270" lon="2.178850">
			 <ele>537</ele>
			<time>2016-06-14T03:17:45Z</time>
			</trkpt>
		
			<trkpt lat="45.863570" lon="2.178580">
			 <ele>535</ele>
			<time>2016-06-14T03:19:45Z</time>
			</trkpt>
		
			<trkpt lat="45.863710" lon="2.178440">
			 <ele>534</ele>
			<time>2016-06-14T03:21:45Z</time>
			</trkpt>
		
			<trkpt lat="45.863820" lon="2.178320">
			 <ele>532</ele>
			<time>2016-06-14T03:23:45Z</time>
			</trkpt>
		
			<trkpt lat="45.863940" lon="2.178160">
			 <ele>531</ele>
			<time>2016-06-14T03:25:45Z</time>
			</trkpt>
		
			<trkpt lat="45.864060" lon="2.177980">
			 <ele>530</ele>
			<time>2016-06-14T03:27:45Z</time>
			</trkpt>
		
			<trkpt lat="45.864190" lon="2.177750">
			 <ele>530</ele>
			<time>2016-06-14T03:29:45Z</time>
			</trkpt>
		
			<trkpt lat="45.864390" lon="2.177350">
			 <ele>530</ele>
			<time>2016-06-14T03:31:45Z</time>
			</trkpt>
		
			<trkpt lat="45.864640" lon="2.176830">
			 <ele>529</ele>
			<time>2016-06-14T03:33:45Z</time>
			</trkpt>
		
			<trkpt lat="45.864900" lon="2.176280">
			 <ele>527</ele>
			<time>2016-06-14T03:35:45Z</time>
			</trkpt>
		
			<trkpt lat="45.865030" lon="2.176000">
			 <ele>526</ele>
			<time>2016-06-14T03:37:45Z</time>
			</trkpt>
		
			<trkpt lat="45.865060" lon="2.175950">
			 <ele>526</ele>
			<time>2016-06-14T03:39:45Z</time>
			</trkpt>
		
			<trkpt lat="45.865110" lon="2.175840">
			 <ele>526</ele>
			<time>2016-06-14T03:41:45Z</time>
			</trkpt>
		
			<trkpt lat="45.865180" lon="2.175680">
			 <ele>525</ele>
			<time>2016-06-14T03:43:45Z</time>
			</trkpt>
		
			<trkpt lat="45.865230" lon="2.175500">
			 <ele>524</ele>
			<time>2016-06-14T03:45:45Z</time>
			</trkpt>
		
			<trkpt lat="45.865280" lon="2.175290">
			 <ele>522</ele>
			<time>2016-06-14T03:47:45Z</time>
			</trkpt>
		
			<trkpt lat="45.865300" lon="2.175220">
			 <ele>522</ele>
			<time>2016-06-14T03:49:45Z</time>
			</trkpt>
		
			<trkpt lat="45.865320" lon="2.175130">
			 <ele>522</ele>
			<time>2016-06-14T03:51:45Z</time>
			</trkpt>
		
			<trkpt lat="45.865350" lon="2.175030">
			 <ele>521</ele>
			<time>2016-06-14T03:53:45Z</time>
			</trkpt>
		
			<trkpt lat="45.865370" lon="2.174950">
			 <ele>521</ele>
			<time>2016-06-14T03:55:45Z</time>
			</trkpt>
		
			<trkpt lat="45.865490" lon="2.174460">
			 <ele>520</ele>
			<time>2016-06-14T03:57:45Z</time>
			</trkpt>
		
			<trkpt lat="45.865580" lon="2.174170">
			 <ele>519</ele>
			<time>2016-06-14T03:59:45Z</time>
			</trkpt>
		
			<trkpt lat="45.865620" lon="2.174070">
			 <ele>520</ele>
			<time>2016-06-14T04:01:45Z</time>
			</trkpt>
		
			<trkpt lat="45.865670" lon="2.173980">
			 <ele>520</ele>
			<time>2016-06-14T04:03:45Z</time>
			</trkpt>
		
			<trkpt lat="45.865730" lon="2.173900">
			 <ele>521</ele>
			<time>2016-06-14T04:05:45Z</time>
			</trkpt>
		
			<trkpt lat="45.865800" lon="2.173830">
			 <ele>521</ele>
			<time>2016-06-14T04:07:45Z</time>
			</trkpt>
		
			<trkpt lat="45.865860" lon="2.173790">
			 <ele>521</ele>
			<time>2016-06-14T04:09:45Z</time>
			</trkpt>
		
			<trkpt lat="45.866020" lon="2.173680">
			 <ele>522</ele>
			<time>2016-06-14T04:11:45Z</time>
			</trkpt>
		
			<trkpt lat="45.866170" lon="2.173590">
			 <ele>522</ele>
			<time>2016-06-14T04:13:45Z</time>
			</trkpt>
		
			<trkpt lat="45.866570" lon="2.173350">
			 <ele>521</ele>
			<time>2016-06-14T04:15:45Z</time>
			</trkpt>
		
			<trkpt lat="45.867050" lon="2.173070">
			 <ele>520</ele>
			<time>2016-06-14T04:17:45Z</time>
			</trkpt>
		
			<trkpt lat="45.867430" lon="2.172850">
			 <ele>520</ele>
			<time>2016-06-14T04:19:45Z</time>
			</trkpt>
		
			<trkpt lat="45.867710" lon="2.172690">
			 <ele>520</ele>
			<time>2016-06-14T04:21:45Z</time>
			</trkpt>
		
			<trkpt lat="45.867890" lon="2.172590">
			 <ele>520</ele>
			<time>2016-06-14T04:23:45Z</time>
			</trkpt>
		
			<trkpt lat="45.867990" lon="2.172560">
			 <ele>520</ele>
			<time>2016-06-14T04:25:45Z</time>
			</trkpt>
		
			<trkpt lat="45.868050" lon="2.172560">
			 <ele>520</ele>
			<time>2016-06-14T04:27:45Z</time>
			</trkpt>
		
			<trkpt lat="45.868140" lon="2.172560">
			 <ele>520</ele>
			<time>2016-06-14T04:29:45Z</time>
			</trkpt>
		
			<trkpt lat="45.868300" lon="2.172580">
			 <ele>519</ele>
			<time>2016-06-14T04:31:45Z</time>
			</trkpt>
		
			<trkpt lat="45.868470" lon="2.172580">
			 <ele>518</ele>
			<time>2016-06-14T04:33:45Z</time>
			</trkpt>
		
			<trkpt lat="45.868590" lon="2.172560">
			 <ele>518</ele>
			<time>2016-06-14T04:35:45Z</time>
			</trkpt>
		
			<trkpt lat="45.868660" lon="2.172530">
			 <ele>517</ele>
			<time>2016-06-14T04:37:45Z</time>
			</trkpt>
		
			<trkpt lat="45.868740" lon="2.172470">
			 <ele>517</ele>
			<time>2016-06-14T04:39:45Z</time>
			</trkpt>
		
			<trkpt lat="45.869040" lon="2.172180">
			 <ele>516</ele>
			<time>2016-06-14T04:41:45Z</time>
			</trkpt>
		
			<trkpt lat="45.869620" lon="2.171590">
			 <ele>518</ele>
			<time>2016-06-14T04:43:45Z</time>
			</trkpt>
		
			<trkpt lat="45.870350" lon="2.170910">
			 <ele>520</ele>
			<time>2016-06-14T04:45:45Z</time>
			</trkpt>
		
			<trkpt lat="45.870770" lon="2.170400">
			 <ele>525</ele>
			<time>2016-06-14T04:47:45Z</time>
			</trkpt>
		
			<trkpt lat="45.870900" lon="2.170210">
			 <ele>527</ele>
			<time>2016-06-14T04:49:45Z</time>
			</trkpt>
		
			<trkpt lat="45.871000" lon="2.170110">
			 <ele>527</ele>
			<time>2016-06-14T04:51:45Z</time>
			</trkpt>
		
			<trkpt lat="45.871090" lon="2.170050">
			 <ele>527</ele>
			<time>2016-06-14T04:53:45Z</time>
			</trkpt>
		
			<trkpt lat="45.871470" lon="2.169870">
			 <ele>527</ele>
			<time>2016-06-14T04:55:45Z</time>
			</trkpt>
		
			<trkpt lat="45.871550" lon="2.169830">
			 <ele>528</ele>
			<time>2016-06-14T04:57:45Z</time>
			</trkpt>
		
			<trkpt lat="45.871960" lon="2.169520">
			 <ele>533</ele>
			<time>2016-06-14T04:59:45Z</time>
			</trkpt>
		
			<trkpt lat="45.872190" lon="2.169370">
			 <ele>534</ele>
			<time>2016-06-14T05:01:45Z</time>
			</trkpt>
		
			<trkpt lat="45.872400" lon="2.169280">
			 <ele>533</ele>
			<time>2016-06-14T05:03:45Z</time>
			</trkpt>
		
			<trkpt lat="45.872480" lon="2.169250">
			 <ele>532</ele>
			<time>2016-06-14T05:05:45Z</time>
			</trkpt>
		
			<trkpt lat="45.872760" lon="2.169180">
			 <ele>530</ele>
			<time>2016-06-14T05:07:45Z</time>
			</trkpt>
		
			<trkpt lat="45.872990" lon="2.169150">
			 <ele>528</ele>
			<time>2016-06-14T05:09:45Z</time>
			</trkpt>
		
			<trkpt lat="45.873080" lon="2.169130">
			 <ele>527</ele>
			<time>2016-06-14T05:11:45Z</time>
			</trkpt>
		
			<trkpt lat="45.873180" lon="2.169130">
			 <ele>526</ele>
			<time>2016-06-14T05:13:45Z</time>
			</trkpt>
		
			<trkpt lat="45.873260" lon="2.169140">
			 <ele>525</ele>
			<time>2016-06-14T05:15:45Z</time>
			</trkpt>
		
			<trkpt lat="45.873360" lon="2.169160">
			 <ele>523</ele>
			<time>2016-06-14T05:17:45Z</time>
			</trkpt>
		
			<trkpt lat="45.873540" lon="2.169210">
			 <ele>522</ele>
			<time>2016-06-14T05:19:45Z</time>
			</trkpt>
		
			<trkpt lat="45.873690" lon="2.169260">
			 <ele>521</ele>
			<time>2016-06-14T05:21:45Z</time>
			</trkpt>
		
			<trkpt lat="45.873770" lon="2.169300">
			 <ele>521</ele>
			<time>2016-06-14T05:23:45Z</time>
			</trkpt>
		
			<trkpt lat="45.873820" lon="2.169340">
			 <ele>520</ele>
			<time>2016-06-14T05:25:45Z</time>
			</trkpt>
		
			<trkpt lat="45.873860" lon="2.169380">
			 <ele>520</ele>
			<time>2016-06-14T05:27:45Z</time>
			</trkpt>
		
			<trkpt lat="45.873920" lon="2.169440">
			 <ele>519</ele>
			<time>2016-06-14T05:29:45Z</time>
			</trkpt>
		
			<trkpt lat="45.874080" lon="2.169610">
			 <ele>517</ele>
			<time>2016-06-14T05:31:45Z</time>
			</trkpt>
		
			<trkpt lat="45.874240" lon="2.169780">
			 <ele>515</ele>
			<time>2016-06-14T05:33:45Z</time>
			</trkpt>
		
			<trkpt lat="45.874320" lon="2.169830">
			 <ele>514</ele>
			<time>2016-06-14T05:35:45Z</time>
			</trkpt>
		
			<trkpt lat="45.874410" lon="2.169880">
			 <ele>513</ele>
			<time>2016-06-14T05:37:45Z</time>
			</trkpt>
		
			<trkpt lat="45.874480" lon="2.169900">
			 <ele>513</ele>
			<time>2016-06-14T05:39:45Z</time>
			</trkpt>
		
			<trkpt lat="45.874570" lon="2.169920">
			 <ele>512</ele>
			<time>2016-06-14T05:41:45Z</time>
			</trkpt>
		
			<trkpt lat="45.874820" lon="2.169970">
			 <ele>510</ele>
			<time>2016-06-14T05:43:45Z</time>
			</trkpt>
		
			<trkpt lat="45.875210" lon="2.170030">
			 <ele>509</ele>
			<time>2016-06-14T05:45:45Z</time>
			</trkpt>
		
			<trkpt lat="45.875630" lon="2.170110">
			 <ele>510</ele>
			<time>2016-06-14T05:47:45Z</time>
			</trkpt>
		
			<trkpt lat="45.876000" lon="2.170180">
			 <ele>510</ele>
			<time>2016-06-14T05:49:45Z</time>
			</trkpt>
		
			<trkpt lat="45.876190" lon="2.170210">
			 <ele>509</ele>
			<time>2016-06-14T05:51:45Z</time>
			</trkpt>
		
			<trkpt lat="45.876210" lon="2.170210">
			 <ele>509</ele>
			<time>2016-06-14T05:53:45Z</time>
			</trkpt>
		
			<trkpt lat="45.876460" lon="2.170260">
			 <ele>509</ele>
			<time>2016-06-14T05:55:45Z</time>
			</trkpt>
		
			<trkpt lat="45.876590" lon="2.170280">
			 <ele>509</ele>
			<time>2016-06-14T05:57:45Z</time>
			</trkpt>
		
			<trkpt lat="45.876640" lon="2.170280">
			 <ele>509</ele>
			<time>2016-06-14T05:59:45Z</time>
			</trkpt>
		
			<trkpt lat="45.876690" lon="2.170290">
			 <ele>509</ele>
			<time>2016-06-14T06:01:45Z</time>
			</trkpt>
		
			<trkpt lat="45.876770" lon="2.170310">
			 <ele>509</ele>
			<time>2016-06-14T06:03:45Z</time>
			</trkpt>
		
			<trkpt lat="45.876830" lon="2.170330">
			 <ele>509</ele>
			<time>2016-06-14T06:05:45Z</time>
			</trkpt>
		
			<trkpt lat="45.876870" lon="2.170350">
			 <ele>509</ele>
			<time>2016-06-14T06:07:45Z</time>
			</trkpt>
		
			<trkpt lat="45.876870" lon="2.170350">
			 <ele>509</ele>
			<time>2016-06-14T06:09:45Z</time>
			</trkpt>
		
			<trkpt lat="45.876920" lon="2.170390">
			 <ele>509</ele>
			<time>2016-06-14T06:11:45Z</time>
			</trkpt>
		
			<trkpt lat="45.877000" lon="2.170460">
			 <ele>509</ele>
			<time>2016-06-14T06:13:45Z</time>
			</trkpt>
		
			<trkpt lat="45.877070" lon="2.170530">
			 <ele>509</ele>
			<time>2016-06-14T06:15:45Z</time>
			</trkpt>
		
			<trkpt lat="45.877140" lon="2.170600">
			 <ele>509</ele>
			<time>2016-06-14T06:17:45Z</time>
			</trkpt>
		
			<trkpt lat="45.877190" lon="2.170650">
			 <ele>508</ele>
			<time>2016-06-14T06:19:45Z</time>
			</trkpt>
		
			<trkpt lat="45.877250" lon="2.170720">
			 <ele>508</ele>
			<time>2016-06-14T06:21:45Z</time>
			</trkpt>
		
			<trkpt lat="45.877320" lon="2.170780">
			 <ele>508</ele>
			<time>2016-06-14T06:23:45Z</time>
			</trkpt>
		
			<trkpt lat="45.877380" lon="2.170830">
			 <ele>508</ele>
			<time>2016-06-14T06:25:45Z</time>
			</trkpt>
		
			<trkpt lat="45.877450" lon="2.170860">
			 <ele>508</ele>
			<time>2016-06-14T06:27:45Z</time>
			</trkpt>
		
			<trkpt lat="45.877450" lon="2.170860">
			 <ele>508</ele>
			<time>2016-06-14T06:29:45Z</time>
			</trkpt>
		
			<trkpt lat="45.877500" lon="2.171440">
			 <ele>514</ele>
			<time>2016-06-14T06:31:45Z</time>
			</trkpt>
		
			<trkpt lat="45.877610" lon="2.171430">
			 <ele>514</ele>
			<time>2016-06-14T06:33:45Z</time>
			</trkpt>
		
			<trkpt lat="45.877890" lon="2.171390">
			 <ele>513</ele>
			<time>2016-06-14T06:35:45Z</time>
			</trkpt>
		
			<trkpt lat="45.878100" lon="2.171350">
			 <ele>513</ele>
			<time>2016-06-14T06:37:45Z</time>
			</trkpt>
		
			<trkpt lat="45.878400" lon="2.171310">
			 <ele>513</ele>
			<time>2016-06-14T06:39:45Z</time>
			</trkpt>
		
			<trkpt lat="45.878470" lon="2.171320">
			 <ele>513</ele>
			<time>2016-06-14T06:41:45Z</time>
			</trkpt>
		
			<trkpt lat="45.878510" lon="2.171330">
			 <ele>513</ele>
			<time>2016-06-14T06:43:45Z</time>
			</trkpt>
		
			<trkpt lat="45.878550" lon="2.171340">
			 <ele>513</ele>
			<time>2016-06-14T06:45:45Z</time>
			</trkpt>
		
			<trkpt lat="45.878740" lon="2.171370">
			 <ele>514</ele>
			<time>2016-06-14T06:47:45Z</time>
			</trkpt>
		
			<trkpt lat="45.878820" lon="2.171400">
			 <ele>514</ele>
			<time>2016-06-14T06:49:45Z</time>
			</trkpt>
		
			<trkpt lat="45.878940" lon="2.171480">
			 <ele>516</ele>
			<time>2016-06-14T06:51:45Z</time>
			</trkpt>
		
			<trkpt lat="45.879080" lon="2.171560">
			 <ele>517</ele>
			<time>2016-06-14T06:53:45Z</time>
			</trkpt>
		
			<trkpt lat="45.879250" lon="2.171650">
			 <ele>518</ele>
			<time>2016-06-14T06:55:45Z</time>
			</trkpt>
		
			<trkpt lat="45.879320" lon="2.171680">
			 <ele>519</ele>
			<time>2016-06-14T06:57:45Z</time>
			</trkpt>
		
			<trkpt lat="45.879360" lon="2.171710">
			 <ele>519</ele>
			<time>2016-06-14T06:59:45Z</time>
			</trkpt>
		
			<trkpt lat="45.879420" lon="2.171780">
			 <ele>520</ele>
			<time>2016-06-14T07:01:45Z</time>
			</trkpt>
		
			<trkpt lat="45.879540" lon="2.171940">
			 <ele>521</ele>
			<time>2016-06-14T07:03:45Z</time>
			</trkpt>
		
			<trkpt lat="45.879680" lon="2.172200">
			 <ele>524</ele>
			<time>2016-06-14T07:05:45Z</time>
			</trkpt>
		
			<trkpt lat="45.879830" lon="2.172510">
			 <ele>526</ele>
			<time>2016-06-14T07:07:45Z</time>
			</trkpt>
		
			<trkpt lat="45.879960" lon="2.172810">
			 <ele>528</ele>
			<time>2016-06-14T07:09:45Z</time>
			</trkpt>
		
			<trkpt lat="45.880060" lon="2.173020">
			 <ele>530</ele>
			<time>2016-06-14T07:11:45Z</time>
			</trkpt>
		
			<trkpt lat="45.880130" lon="2.173130">
			 <ele>531</ele>
			<time>2016-06-14T07:13:45Z</time>
			</trkpt>
		
			<trkpt lat="45.880180" lon="2.173180">
			 <ele>531</ele>
			<time>2016-06-14T07:15:45Z</time>
			</trkpt>
		
			<trkpt lat="45.880240" lon="2.173220">
			 <ele>531</ele>
			<time>2016-06-14T07:17:45Z</time>
			</trkpt>
		
			<trkpt lat="45.880340" lon="2.173230">
			 <ele>531</ele>
			<time>2016-06-14T07:19:45Z</time>
			</trkpt>
		
			<trkpt lat="45.880510" lon="2.173240">
			 <ele>531</ele>
			<time>2016-06-14T07:21:45Z</time>
			</trkpt>
		
			<trkpt lat="45.880590" lon="2.173270">
			 <ele>531</ele>
			<time>2016-06-14T07:23:45Z</time>
			</trkpt>
		
			<trkpt lat="45.880750" lon="2.173370">
			 <ele>532</ele>
			<time>2016-06-14T07:25:45Z</time>
			</trkpt>
		
			<trkpt lat="45.881000" lon="2.173580">
			 <ele>535</ele>
			<time>2016-06-14T07:27:45Z</time>
			</trkpt>
		
			<trkpt lat="45.881020" lon="2.173600">
			 <ele>535</ele>
			<time>2016-06-14T07:29:45Z</time>
			</trkpt>
		
			<trkpt lat="45.881030" lon="2.173620">
			 <ele>535</ele>
			<time>2016-06-14T07:31:45Z</time>
			</trkpt>
		
			<trkpt lat="45.881040" lon="2.173650">
			 <ele>536</ele>
			<time>2016-06-14T07:33:45Z</time>
			</trkpt>
		
			<trkpt lat="45.881050" lon="2.173700">
			 <ele>536</ele>
			<time>2016-06-14T07:35:45Z</time>
			</trkpt>
		
			<trkpt lat="45.881050" lon="2.173700">
			 <ele>536</ele>
			<time>2016-06-14T07:37:45Z</time>
			</trkpt>
		
			<trkpt lat="45.881190" lon="2.173770">
			 <ele>537</ele>
			<time>2016-06-14T07:39:45Z</time>
			</trkpt>
		
			<trkpt lat="45.881500" lon="2.173950">
			 <ele>540</ele>
			<time>2016-06-14T07:41:45Z</time>
			</trkpt>
		
			<trkpt lat="45.881700" lon="2.174090">
			 <ele>541</ele>
			<time>2016-06-14T07:43:45Z</time>
			</trkpt>
		
			<trkpt lat="45.881950" lon="2.174410">
			 <ele>544</ele>
			<time>2016-06-14T07:45:45Z</time>
			</trkpt>
		
			<trkpt lat="45.882090" lon="2.174640">
			 <ele>545</ele>
			<time>2016-06-14T07:47:45Z</time>
			</trkpt>
		
			<trkpt lat="45.882120" lon="2.174670">
			 <ele>545</ele>
			<time>2016-06-14T07:49:45Z</time>
			</trkpt>
		
			<trkpt lat="45.882130" lon="2.174680">
			 <ele>545</ele>
			<time>2016-06-14T07:51:45Z</time>
			</trkpt>
		
			<trkpt lat="45.882140" lon="2.174680">
			 <ele>545</ele>
			<time>2016-06-14T07:53:45Z</time>
			</trkpt>
		
			<trkpt lat="45.882150" lon="2.174680">
			 <ele>545</ele>
			<time>2016-06-14T07:55:45Z</time>
			</trkpt>
		
			<trkpt lat="45.882170" lon="2.174680">
			 <ele>545</ele>
			<time>2016-06-14T07:57:45Z</time>
			</trkpt>
		
			<trkpt lat="45.882170" lon="2.174680">
			 <ele>545</ele>
			<time>2016-06-14T07:59:45Z</time>
			</trkpt>
		
			<trkpt lat="45.882160" lon="2.174800">
			 <ele>545</ele>
			<time>2016-06-14T08:01:45Z</time>
			</trkpt>
		
			<trkpt lat="45.882160" lon="2.174810">
			 <ele>545</ele>
			<time>2016-06-14T08:03:45Z</time>
			</trkpt>
		
			<trkpt lat="45.882150" lon="2.174830">
			 <ele>546</ele>
			<time>2016-06-14T08:05:45Z</time>
			</trkpt>
		
			<trkpt lat="45.882140" lon="2.174830">
			 <ele>546</ele>
			<time>2016-06-14T08:07:45Z</time>
			</trkpt>
		
			<trkpt lat="45.882060" lon="2.174890">
			 <ele>546</ele>
			<time>2016-06-14T08:09:45Z</time>
			</trkpt>
		
			<trkpt lat="45.882040" lon="2.174910">
			 <ele>546</ele>
			<time>2016-06-14T08:11:45Z</time>
			</trkpt>
		
			<trkpt lat="45.881910" lon="2.175000">
			 <ele>548</ele>
			<time>2016-06-14T08:13:45Z</time>
			</trkpt>
		
			<trkpt lat="45.881900" lon="2.175020">
			 <ele>548</ele>
			<time>2016-06-14T08:15:45Z</time>
			</trkpt>
		
			<trkpt lat="45.881810" lon="2.175100">
			 <ele>548</ele>
			<time>2016-06-14T08:17:45Z</time>
			</trkpt>
		
			<trkpt lat="45.881660" lon="2.175280">
			 <ele>548</ele>
			<time>2016-06-14T08:19:45Z</time>
			</trkpt>
		
			<trkpt lat="45.881470" lon="2.175520">
			 <ele>549</ele>
			<time>2016-06-14T08:21:45Z</time>
			</trkpt>
		
			<trkpt lat="45.881330" lon="2.175660">
			 <ele>551</ele>
			<time>2016-06-14T08:23:45Z</time>
			</trkpt>
		
			<trkpt lat="45.881090" lon="2.175870">
			 <ele>554</ele>
			<time>2016-06-14T08:25:45Z</time>
			</trkpt>
		
			<trkpt lat="45.881050" lon="2.175910">
			 <ele>554</ele>
			<time>2016-06-14T08:27:45Z</time>
			</trkpt>
		
			<trkpt lat="45.881000" lon="2.175970">
			 <ele>555</ele>
			<time>2016-06-14T08:29:45Z</time>
			</trkpt>
		
			<trkpt lat="45.880920" lon="2.176050">
			 <ele>556</ele>
			<time>2016-06-14T08:31:45Z</time>
			</trkpt>
		
			<trkpt lat="45.880730" lon="2.176220">
			 <ele>557</ele>
			<time>2016-06-14T08:33:45Z</time>
			</trkpt>
		
			<trkpt lat="45.880490" lon="2.176470">
			 <ele>560</ele>
			<time>2016-06-14T08:35:45Z</time>
			</trkpt>
		
			<trkpt lat="45.880270" lon="2.176700">
			 <ele>562</ele>
			<time>2016-06-14T08:37:45Z</time>
			</trkpt>
		
			<trkpt lat="45.880070" lon="2.176970">
			 <ele>564</ele>
			<time>2016-06-14T08:39:45Z</time>
			</trkpt>
		
			<trkpt lat="45.879920" lon="2.177190">
			 <ele>566</ele>
			<time>2016-06-14T08:41:45Z</time>
			</trkpt>
		
			<trkpt lat="45.879460" lon="2.177780">
			 <ele>573</ele>
			<time>2016-06-14T08:43:45Z</time>
			</trkpt>
		
			<trkpt lat="45.879100" lon="2.178210">
			 <ele>578</ele>
			<time>2016-06-14T08:45:45Z</time>
			</trkpt>
		
			<trkpt lat="45.878780" lon="2.178580">
			 <ele>580</ele>
			<time>2016-06-14T08:47:45Z</time>
			</trkpt>
		
			<trkpt lat="45.878770" lon="2.178610">
			 <ele>580</ele>
			<time>2016-06-14T08:49:45Z</time>
			</trkpt>
		
			<trkpt lat="45.878700" lon="2.178700">
			 <ele>581</ele>
			<time>2016-06-14T08:51:45Z</time>
			</trkpt>
		
			<trkpt lat="45.878700" lon="2.178700">
			 <ele>581</ele>
			<time>2016-06-14T08:53:45Z</time>
			</trkpt>
		
			<trkpt lat="45.878590" lon="2.178830">
			 <ele>582</ele>
			<time>2016-06-14T08:55:45Z</time>
			</trkpt>
		
			<trkpt lat="45.878480" lon="2.179010">
			 <ele>582</ele>
			<time>2016-06-14T08:57:45Z</time>
			</trkpt>
		
			<trkpt lat="45.878390" lon="2.179180">
			 <ele>583</ele>
			<time>2016-06-14T08:59:45Z</time>
			</trkpt>
		
			<trkpt lat="45.878340" lon="2.179310">
			 <ele>585</ele>
			<time>2016-06-14T09:01:45Z</time>
			</trkpt>
		
			<trkpt lat="45.878290" lon="2.179470">
			 <ele>586</ele>
			<time>2016-06-14T09:03:45Z</time>
			</trkpt>
		
			<trkpt lat="45.878260" lon="2.179640">
			 <ele>588</ele>
			<time>2016-06-14T09:05:45Z</time>
			</trkpt>
		
			<trkpt lat="45.878240" lon="2.179770">
			 <ele>589</ele>
			<time>2016-06-14T09:07:45Z</time>
			</trkpt>
		
			<trkpt lat="45.878230" lon="2.179900">
			 <ele>590</ele>
			<time>2016-06-14T09:09:45Z</time>
			</trkpt>
		
			<trkpt lat="45.878230" lon="2.180100">
			 <ele>592</ele>
			<time>2016-06-14T09:11:45Z</time>
			</trkpt>
		
			<trkpt lat="45.878200" lon="2.180860">
			 <ele>595</ele>
			<time>2016-06-14T09:13:45Z</time>
			</trkpt>
		
			<trkpt lat="45.878220" lon="2.181150">
			 <ele>595</ele>
			<time>2016-06-14T09:15:45Z</time>
			</trkpt>
		
			<trkpt lat="45.878260" lon="2.181360">
			 <ele>595</ele>
			<time>2016-06-14T09:17:45Z</time>
			</trkpt>
		
			<trkpt lat="45.878280" lon="2.181470">
			 <ele>595</ele>
			<time>2016-06-14T09:19:45Z</time>
			</trkpt>
		
			<trkpt lat="45.878310" lon="2.181560">
			 <ele>596</ele>
			<time>2016-06-14T09:21:45Z</time>
			</trkpt>
		
			<trkpt lat="45.878330" lon="2.181590">
			 <ele>596</ele>
			<time>2016-06-14T09:23:45Z</time>
			</trkpt>
		
			<trkpt lat="45.878340" lon="2.181610">
			 <ele>596</ele>
			<time>2016-06-14T09:25:45Z</time>
			</trkpt>
		
			<trkpt lat="45.878380" lon="2.181610">
			 <ele>597</ele>
			<time>2016-06-14T09:27:45Z</time>
			</trkpt>
		
			<trkpt lat="45.878380" lon="2.181610">
			 <ele>597</ele>
			<time>2016-06-14T09:29:45Z</time>
			</trkpt>
		
			<trkpt lat="45.878430" lon="2.181800">
			 <ele>598</ele>
			<time>2016-06-14T09:31:45Z</time>
			</trkpt>
		
			<trkpt lat="45.878490" lon="2.182050">
			 <ele>599</ele>
			<time>2016-06-14T09:33:45Z</time>
			</trkpt>
		
			<trkpt lat="45.878510" lon="2.182190">
			 <ele>599</ele>
			<time>2016-06-14T09:35:45Z</time>
			</trkpt>
		
			<trkpt lat="45.878510" lon="2.182300">
			 <ele>599</ele>
			<time>2016-06-14T09:37:45Z</time>
			</trkpt>
		
			<trkpt lat="45.878510" lon="2.182410">
			 <ele>599</ele>
			<time>2016-06-14T09:39:45Z</time>
			</trkpt>
		
			<trkpt lat="45.878500" lon="2.182550">
			 <ele>600</ele>
			<time>2016-06-14T09:41:45Z</time>
			</trkpt>
		
			<trkpt lat="45.878480" lon="2.182660">
			 <ele>600</ele>
			<time>2016-06-14T09:43:45Z</time>
			</trkpt>
		
			<trkpt lat="45.878430" lon="2.182790">
			 <ele>601</ele>
			<time>2016-06-14T09:45:45Z</time>
			</trkpt>
		
			<trkpt lat="45.878390" lon="2.182870">
			 <ele>601</ele>
			<time>2016-06-14T09:47:45Z</time>
			</trkpt>
		
			<trkpt lat="45.878350" lon="2.182960">
			 <ele>601</ele>
			<time>2016-06-14T09:49:45Z</time>
			</trkpt>
		
			<trkpt lat="45.878270" lon="2.183060">
			 <ele>601</ele>
			<time>2016-06-14T09:51:45Z</time>
			</trkpt>
		
			<trkpt lat="45.878140" lon="2.183190">
			 <ele>601</ele>
			<time>2016-06-14T09:53:45Z</time>
			</trkpt>
		
			<trkpt lat="45.877990" lon="2.183330">
			 <ele>602</ele>
			<time>2016-06-14T09:55:45Z</time>
			</trkpt>
		
			<trkpt lat="45.877790" lon="2.183530">
			 <ele>603</ele>
			<time>2016-06-14T09:57:45Z</time>
			</trkpt>
		
			<trkpt lat="45.877670" lon="2.183680">
			 <ele>604</ele>
			<time>2016-06-14T09:59:45Z</time>
			</trkpt>
		
			<trkpt lat="45.877590" lon="2.183810">
			 <ele>605</ele>
			<time>2016-06-14T10:01:45Z</time>
			</trkpt>
		
			<trkpt lat="45.877550" lon="2.183920">
			 <ele>606</ele>
			<time>2016-06-14T10:03:45Z</time>
			</trkpt>
		
			<trkpt lat="45.877490" lon="2.184050">
			 <ele>607</ele>
			<time>2016-06-14T10:05:45Z</time>
			</trkpt>
		
			<trkpt lat="45.877290" lon="2.184540">
			 <ele>607</ele>
			<time>2016-06-14T10:07:45Z</time>
			</trkpt>
		
			<trkpt lat="45.877110" lon="2.184990">
			 <ele>607</ele>
			<time>2016-06-14T10:09:45Z</time>
			</trkpt>
		
			<trkpt lat="45.877000" lon="2.185270">
			 <ele>608</ele>
			<time>2016-06-14T10:11:45Z</time>
			</trkpt>
		
			<trkpt lat="45.876970" lon="2.185400">
			 <ele>608</ele>
			<time>2016-06-14T10:13:45Z</time>
			</trkpt>
		
			<trkpt lat="45.876950" lon="2.185510">
			 <ele>609</ele>
			<time>2016-06-14T10:15:45Z</time>
			</trkpt>
		
			<trkpt lat="45.876950" lon="2.185600">
			 <ele>610</ele>
			<time>2016-06-14T10:17:45Z</time>
			</trkpt>
		
			<trkpt lat="45.876970" lon="2.185710">
			 <ele>611</ele>
			<time>2016-06-14T10:19:45Z</time>
			</trkpt>
		
			<trkpt lat="45.876990" lon="2.185820">
			 <ele>612</ele>
			<time>2016-06-14T10:21:45Z</time>
			</trkpt>
		
			<trkpt lat="45.877010" lon="2.185920">
			 <ele>613</ele>
			<time>2016-06-14T10:23:45Z</time>
			</trkpt>
		
			<trkpt lat="45.877020" lon="2.186000">
			 <ele>614</ele>
			<time>2016-06-14T10:25:45Z</time>
			</trkpt>
		
			<trkpt lat="45.877030" lon="2.186070">
			 <ele>614</ele>
			<time>2016-06-14T10:27:45Z</time>
			</trkpt>
		
			<trkpt lat="45.877030" lon="2.186160">
			 <ele>615</ele>
			<time>2016-06-14T10:29:45Z</time>
			</trkpt>
		
			<trkpt lat="45.877020" lon="2.186250">
			 <ele>615</ele>
			<time>2016-06-14T10:31:45Z</time>
			</trkpt>
		
			<trkpt lat="45.877000" lon="2.186350">
			 <ele>616</ele>
			<time>2016-06-14T10:33:45Z</time>
			</trkpt>
		
			<trkpt lat="45.876980" lon="2.186420">
			 <ele>616</ele>
			<time>2016-06-14T10:35:45Z</time>
			</trkpt>
		
			<trkpt lat="45.876950" lon="2.186480">
			 <ele>616</ele>
			<time>2016-06-14T10:37:45Z</time>
			</trkpt>
		
			<trkpt lat="45.876910" lon="2.186550">
			 <ele>616</ele>
			<time>2016-06-14T10:39:45Z</time>
			</trkpt>
		
			<trkpt lat="45.876870" lon="2.186600">
			 <ele>616</ele>
			<time>2016-06-14T10:41:45Z</time>
			</trkpt>
		
			<trkpt lat="45.876800" lon="2.186670">
			 <ele>616</ele>
			<time>2016-06-14T10:43:45Z</time>
			</trkpt>
		
			<trkpt lat="45.876690" lon="2.186780">
			 <ele>616</ele>
			<time>2016-06-14T10:45:45Z</time>
			</trkpt>
		
			<trkpt lat="45.876620" lon="2.186860">
			 <ele>615</ele>
			<time>2016-06-14T10:47:45Z</time>
			</trkpt>
		
			<trkpt lat="45.876560" lon="2.186960">
			 <ele>615</ele>
			<time>2016-06-14T10:49:45Z</time>
			</trkpt>
		
			<trkpt lat="45.876500" lon="2.187060">
			 <ele>615</ele>
			<time>2016-06-14T10:51:45Z</time>
			</trkpt>
		
			<trkpt lat="45.876460" lon="2.187190">
			 <ele>615</ele>
			<time>2016-06-14T10:53:45Z</time>
			</trkpt>
		
			<trkpt lat="45.876440" lon="2.187290">
			 <ele>616</ele>
			<time>2016-06-14T10:55:45Z</time>
			</trkpt>
		
			<trkpt lat="45.876430" lon="2.187380">
			 <ele>616</ele>
			<time>2016-06-14T10:57:45Z</time>
			</trkpt>
		
			<trkpt lat="45.876430" lon="2.187490">
			 <ele>617</ele>
			<time>2016-06-14T10:59:45Z</time>
			</trkpt>
		
			<trkpt lat="45.876430" lon="2.187590">
			 <ele>617</ele>
			<time>2016-06-14T11:01:45Z</time>
			</trkpt>
		
			<trkpt lat="45.876440" lon="2.187710">
			 <ele>618</ele>
			<time>2016-06-14T11:03:45Z</time>
			</trkpt>
		
			<trkpt lat="45.876470" lon="2.187860">
			 <ele>619</ele>
			<time>2016-06-14T11:05:45Z</time>
			</trkpt>
		
			<trkpt lat="45.876510" lon="2.188000">
			 <ele>620</ele>
			<time>2016-06-14T11:07:45Z</time>
			</trkpt>
		
			<trkpt lat="45.876540" lon="2.188130">
			 <ele>621</ele>
			<time>2016-06-14T11:09:45Z</time>
			</trkpt>
		
			<trkpt lat="45.876570" lon="2.188260">
			 <ele>622</ele>
			<time>2016-06-14T11:11:45Z</time>
			</trkpt>
		
			<trkpt lat="45.876580" lon="2.188360">
			 <ele>622</ele>
			<time>2016-06-14T11:13:45Z</time>
			</trkpt>
		
			<trkpt lat="45.876580" lon="2.188480">
			 <ele>623</ele>
			<time>2016-06-14T11:15:45Z</time>
			</trkpt>
		
			<trkpt lat="45.876570" lon="2.188590">
			 <ele>624</ele>
			<time>2016-06-14T11:17:45Z</time>
			</trkpt>
		
			<trkpt lat="45.876540" lon="2.188700">
			 <ele>625</ele>
			<time>2016-06-14T11:19:45Z</time>
			</trkpt>
		
			<trkpt lat="45.876510" lon="2.188810">
			 <ele>625</ele>
			<time>2016-06-14T11:21:45Z</time>
			</trkpt>
		
			<trkpt lat="45.876460" lon="2.188910">
			 <ele>626</ele>
			<time>2016-06-14T11:23:45Z</time>
			</trkpt>
		
			<trkpt lat="45.876400" lon="2.188990">
			 <ele>626</ele>
			<time>2016-06-14T11:25:45Z</time>
			</trkpt>
		
			<trkpt lat="45.876330" lon="2.189070">
			 <ele>627</ele>
			<time>2016-06-14T11:27:45Z</time>
			</trkpt>
		
			<trkpt lat="45.876170" lon="2.189220">
			 <ele>628</ele>
			<time>2016-06-14T11:29:45Z</time>
			</trkpt>
		
			<trkpt lat="45.875990" lon="2.189360">
			 <ele>630</ele>
			<time>2016-06-14T11:31:45Z</time>
			</trkpt>
		
			<trkpt lat="45.875930" lon="2.189400">
			 <ele>630</ele>
			<time>2016-06-14T11:33:45Z</time>
			</trkpt>
		
			<trkpt lat="45.875870" lon="2.189430">
			 <ele>630</ele>
			<time>2016-06-14T11:35:45Z</time>
			</trkpt>
		
			<trkpt lat="45.875810" lon="2.189450">
			 <ele>631</ele>
			<time>2016-06-14T11:37:45Z</time>
			</trkpt>
		
			<trkpt lat="45.875730" lon="2.189450">
			 <ele>632</ele>
			<time>2016-06-14T11:39:45Z</time>
			</trkpt>
		
			<trkpt lat="45.875670" lon="2.189440">
			 <ele>632</ele>
			<time>2016-06-14T11:41:45Z</time>
			</trkpt>
		
			<trkpt lat="45.875600" lon="2.189410">
			 <ele>632</ele>
			<time>2016-06-14T11:43:45Z</time>
			</trkpt>
		
			<trkpt lat="45.875500" lon="2.189340">
			 <ele>632</ele>
			<time>2016-06-14T11:45:45Z</time>
			</trkpt>
		
			<trkpt lat="45.875390" lon="2.189220">
			 <ele>631</ele>
			<time>2016-06-14T11:47:45Z</time>
			</trkpt>
		
			<trkpt lat="45.875300" lon="2.189150">
			 <ele>632</ele>
			<time>2016-06-14T11:49:45Z</time>
			</trkpt>
		
			<trkpt lat="45.875220" lon="2.189090">
			 <ele>632</ele>
			<time>2016-06-14T11:51:45Z</time>
			</trkpt>
		
			<trkpt lat="45.875050" lon="2.189010">
			 <ele>632</ele>
			<time>2016-06-14T11:53:45Z</time>
			</trkpt>
		
			<trkpt lat="45.874760" lon="2.188870">
			 <ele>632</ele>
			<time>2016-06-14T11:55:45Z</time>
			</trkpt>
		
			<trkpt lat="45.874600" lon="2.188800">
			 <ele>631</ele>
			<time>2016-06-14T11:57:45Z</time>
			</trkpt>
		
			<trkpt lat="45.874510" lon="2.188770">
			 <ele>632</ele>
			<time>2016-06-14T11:59:45Z</time>
			</trkpt>
		
			<trkpt lat="45.874420" lon="2.188750">
			 <ele>632</ele>
			<time>2016-06-14T12:01:45Z</time>
			</trkpt>
		
			<trkpt lat="45.874340" lon="2.188740">
			 <ele>632</ele>
			<time>2016-06-14T12:03:45Z</time>
			</trkpt>
		
			<trkpt lat="45.874250" lon="2.188750">
			 <ele>633</ele>
			<time>2016-06-14T12:05:45Z</time>
			</trkpt>
		
			<trkpt lat="45.874160" lon="2.188780">
			 <ele>633</ele>
			<time>2016-06-14T12:07:45Z</time>
			</trkpt>
		
			<trkpt lat="45.874080" lon="2.188830">
			 <ele>633</ele>
			<time>2016-06-14T12:09:45Z</time>
			</trkpt>
		
			<trkpt lat="45.874010" lon="2.188900">
			 <ele>633</ele>
			<time>2016-06-14T12:11:45Z</time>
			</trkpt>
		
			<trkpt lat="45.873950" lon="2.188980">
			 <ele>633</ele>
			<time>2016-06-14T12:13:45Z</time>
			</trkpt>
		
			<trkpt lat="45.873890" lon="2.189100">
			 <ele>633</ele>
			<time>2016-06-14T12:15:45Z</time>
			</trkpt>
		
			<trkpt lat="45.873860" lon="2.189190">
			 <ele>633</ele>
			<time>2016-06-14T12:17:45Z</time>
			</trkpt>
		
			<trkpt lat="45.873840" lon="2.189290">
			 <ele>634</ele>
			<time>2016-06-14T12:19:45Z</time>
			</trkpt>
		
			<trkpt lat="45.873830" lon="2.189390">
			 <ele>634</ele>
			<time>2016-06-14T12:21:45Z</time>
			</trkpt>
		
			<trkpt lat="45.873830" lon="2.189500">
			 <ele>634</ele>
			<time>2016-06-14T12:23:45Z</time>
			</trkpt>
		
			<trkpt lat="45.873830" lon="2.189600">
			 <ele>635</ele>
			<time>2016-06-14T12:25:45Z</time>
			</trkpt>
		
			<trkpt lat="45.873850" lon="2.189720">
			 <ele>635</ele>
			<time>2016-06-14T12:27:45Z</time>
			</trkpt>
		
			<trkpt lat="45.873870" lon="2.189840">
			 <ele>636</ele>
			<time>2016-06-14T12:29:45Z</time>
			</trkpt>
		
			<trkpt lat="45.873930" lon="2.190060">
			 <ele>638</ele>
			<time>2016-06-14T12:31:45Z</time>
			</trkpt>
		
			<trkpt lat="45.874090" lon="2.190580">
			 <ele>641</ele>
			<time>2016-06-14T12:33:45Z</time>
			</trkpt>
		
			<trkpt lat="45.874240" lon="2.191130">
			 <ele>643</ele>
			<time>2016-06-14T12:35:45Z</time>
			</trkpt>
		
			<trkpt lat="45.874300" lon="2.191280">
			 <ele>644</ele>
			<time>2016-06-14T12:37:45Z</time>
			</trkpt>
		
			<trkpt lat="45.874390" lon="2.191470">
			 <ele>644</ele>
			<time>2016-06-14T12:39:45Z</time>
			</trkpt>
		
			<trkpt lat="45.874490" lon="2.191630">
			 <ele>645</ele>
			<time>2016-06-14T12:41:45Z</time>
			</trkpt>
		
			<trkpt lat="45.874670" lon="2.191910">
			 <ele>647</ele>
			<time>2016-06-14T12:43:45Z</time>
			</trkpt>
		
			<trkpt lat="45.874820" lon="2.192120">
			 <ele>648</ele>
			<time>2016-06-14T12:45:45Z</time>
			</trkpt>
		
			<trkpt lat="45.874920" lon="2.192260">
			 <ele>649</ele>
			<time>2016-06-14T12:47:45Z</time>
			</trkpt>
		
			<trkpt lat="45.875020" lon="2.192440">
			 <ele>650</ele>
			<time>2016-06-14T12:49:45Z</time>
			</trkpt>
		
			<trkpt lat="45.875120" lon="2.192680">
			 <ele>650</ele>
			<time>2016-06-14T12:51:45Z</time>
			</trkpt>
		
			<trkpt lat="45.875240" lon="2.192960">
			 <ele>650</ele>
			<time>2016-06-14T12:53:45Z</time>
			</trkpt>
		
			<trkpt lat="45.875390" lon="2.193410">
			 <ele>651</ele>
			<time>2016-06-14T12:55:45Z</time>
			</trkpt>
		
			<trkpt lat="45.875550" lon="2.193880">
			 <ele>652</ele>
			<time>2016-06-14T12:57:45Z</time>
			</trkpt>
		
			<trkpt lat="45.875650" lon="2.194210">
			 <ele>653</ele>
			<time>2016-06-14T12:59:45Z</time>
			</trkpt>
		
			<trkpt lat="45.875690" lon="2.194390">
			 <ele>653</ele>
			<time>2016-06-14T13:01:45Z</time>
			</trkpt>
		
			<trkpt lat="45.875730" lon="2.194580">
			 <ele>654</ele>
			<time>2016-06-14T13:03:45Z</time>
			</trkpt>
		
			<trkpt lat="45.875740" lon="2.194700">
			 <ele>654</ele>
			<time>2016-06-14T13:05:45Z</time>
			</trkpt>
		
			<trkpt lat="45.875740" lon="2.194800">
			 <ele>655</ele>
			<time>2016-06-14T13:07:45Z</time>
			</trkpt>
		
			<trkpt lat="45.875720" lon="2.194900">
			 <ele>655</ele>
			<time>2016-06-14T13:09:45Z</time>
			</trkpt>
		
			<trkpt lat="45.875580" lon="2.195340">
			 <ele>655</ele>
			<time>2016-06-14T13:11:45Z</time>
			</trkpt>
		
			<trkpt lat="45.875350" lon="2.196030">
			 <ele>655</ele>
			<time>2016-06-14T13:13:45Z</time>
			</trkpt>
		
			<trkpt lat="45.874980" lon="2.197140">
			 <ele>655</ele>
			<time>2016-06-14T13:15:45Z</time>
			</trkpt>
		
			<trkpt lat="45.874750" lon="2.197870">
			 <ele>656</ele>
			<time>2016-06-14T13:17:45Z</time>
			</trkpt>
		
			<trkpt lat="45.874670" lon="2.198150">
			 <ele>656</ele>
			<time>2016-06-14T13:19:45Z</time>
			</trkpt>
		
			<trkpt lat="45.874640" lon="2.198310">
			 <ele>657</ele>
			<time>2016-06-14T13:21:45Z</time>
			</trkpt>
		
			<trkpt lat="45.874610" lon="2.198460">
			 <ele>657</ele>
			<time>2016-06-14T13:23:45Z</time>
			</trkpt>
		
			<trkpt lat="45.874560" lon="2.198700">
			 <ele>658</ele>
			<time>2016-06-14T13:25:45Z</time>
			</trkpt>
		
			<trkpt lat="45.874460" lon="2.199190">
			 <ele>660</ele>
			<time>2016-06-14T13:27:45Z</time>
			</trkpt>
		
			<trkpt lat="45.874420" lon="2.199320">
			 <ele>661</ele>
			<time>2016-06-14T13:29:45Z</time>
			</trkpt>
		
			<trkpt lat="45.874370" lon="2.199430">
			 <ele>662</ele>
			<time>2016-06-14T13:31:45Z</time>
			</trkpt>
		
			<trkpt lat="45.874320" lon="2.199540">
			 <ele>662</ele>
			<time>2016-06-14T13:33:45Z</time>
			</trkpt>
		
			<trkpt lat="45.874240" lon="2.199660">
			 <ele>662</ele>
			<time>2016-06-14T13:35:45Z</time>
			</trkpt>
		
			<trkpt lat="45.874150" lon="2.199790">
			 <ele>662</ele>
			<time>2016-06-14T13:37:45Z</time>
			</trkpt>
		
			<trkpt lat="45.874060" lon="2.199890">
			 <ele>662</ele>
			<time>2016-06-14T13:39:45Z</time>
			</trkpt>
		
			<trkpt lat="45.873990" lon="2.199990">
			 <ele>662</ele>
			<time>2016-06-14T13:41:45Z</time>
			</trkpt>
		
			<trkpt lat="45.873930" lon="2.200080">
			 <ele>662</ele>
			<time>2016-06-14T13:43:45Z</time>
			</trkpt>
		
			<trkpt lat="45.873840" lon="2.200210">
			 <ele>663</ele>
			<time>2016-06-14T13:45:45Z</time>
			</trkpt>
		
			<trkpt lat="45.873750" lon="2.200360">
			 <ele>664</ele>
			<time>2016-06-14T13:47:45Z</time>
			</trkpt>
		
			<trkpt lat="45.873650" lon="2.200550">
			 <ele>665</ele>
			<time>2016-06-14T13:49:45Z</time>
			</trkpt>
		
			<trkpt lat="45.873350" lon="2.201090">
			 <ele>666</ele>
			<time>2016-06-14T13:51:45Z</time>
			</trkpt>
		
			<trkpt lat="45.873200" lon="2.201380">
			 <ele>667</ele>
			<time>2016-06-14T13:53:45Z</time>
			</trkpt>
		
			<trkpt lat="45.873050" lon="2.201670">
			 <ele>667</ele>
			<time>2016-06-14T13:55:45Z</time>
			</trkpt>
		
			<trkpt lat="45.872760" lon="2.202280">
			 <ele>667</ele>
			<time>2016-06-14T13:57:45Z</time>
			</trkpt>
		
			<trkpt lat="45.872450" lon="2.202960">
			 <ele>667</ele>
			<time>2016-06-14T13:59:45Z</time>
			</trkpt>
		
			<trkpt lat="45.872140" lon="2.203670">
			 <ele>668</ele>
			<time>2016-06-14T14:01:45Z</time>
			</trkpt>
		
			<trkpt lat="45.871860" lon="2.204300">
			 <ele>671</ele>
			<time>2016-06-14T14:03:45Z</time>
			</trkpt>
		
			<trkpt lat="45.871740" lon="2.204580">
			 <ele>671</ele>
			<time>2016-06-14T14:05:45Z</time>
			</trkpt>
		
			<trkpt lat="45.871620" lon="2.204810">
			 <ele>672</ele>
			<time>2016-06-14T14:07:45Z</time>
			</trkpt>
		
			<trkpt lat="45.871500" lon="2.205010">
			 <ele>672</ele>
			<time>2016-06-14T14:09:45Z</time>
			</trkpt>
		
			<trkpt lat="45.871410" lon="2.205140">
			 <ele>672</ele>
			<time>2016-06-14T14:11:45Z</time>
			</trkpt>
		
			<trkpt lat="45.871300" lon="2.205260">
			 <ele>672</ele>
			<time>2016-06-14T14:13:45Z</time>
			</trkpt>
		
			<trkpt lat="45.871180" lon="2.205370">
			 <ele>672</ele>
			<time>2016-06-14T14:15:45Z</time>
			</trkpt>
		
			<trkpt lat="45.870960" lon="2.205530">
			 <ele>672</ele>
			<time>2016-06-14T14:17:45Z</time>
			</trkpt>
		
			<trkpt lat="45.870720" lon="2.205700">
			 <ele>672</ele>
			<time>2016-06-14T14:19:45Z</time>
			</trkpt>
		
			<trkpt lat="45.870530" lon="2.205840">
			 <ele>672</ele>
			<time>2016-06-14T14:21:45Z</time>
			</trkpt>
		
			<trkpt lat="45.870380" lon="2.205980">
			 <ele>672</ele>
			<time>2016-06-14T14:23:45Z</time>
			</trkpt>
		
			<trkpt lat="45.870250" lon="2.206120">
			 <ele>671</ele>
			<time>2016-06-14T14:25:45Z</time>
			</trkpt>
		
			<trkpt lat="45.869970" lon="2.206420">
			 <ele>671</ele>
			<time>2016-06-14T14:27:45Z</time>
			</trkpt>
		
			<trkpt lat="45.869850" lon="2.206550">
			 <ele>670</ele>
			<time>2016-06-14T14:29:45Z</time>
			</trkpt>
		
			<trkpt lat="45.869580" lon="2.206840">
			 <ele>667</ele>
			<time>2016-06-14T14:31:45Z</time>
			</trkpt>
		
			<trkpt lat="45.869110" lon="2.207350">
			 <ele>664</ele>
			<time>2016-06-14T14:33:45Z</time>
			</trkpt>
		
			<trkpt lat="45.868360" lon="2.208160">
			 <ele>665</ele>
			<time>2016-06-14T14:35:45Z</time>
			</trkpt>
		
			<trkpt lat="45.867720" lon="2.208880">
			 <ele>665</ele>
			<time>2016-06-14T14:37:45Z</time>
			</trkpt>
		
			<trkpt lat="45.867460" lon="2.209130">
			 <ele>665</ele>
			<time>2016-06-14T14:39:45Z</time>
			</trkpt>
		
			<trkpt lat="45.866820" lon="2.209690">
			 <ele>667</ele>
			<time>2016-06-14T14:41:45Z</time>
			</trkpt>
		
			<trkpt lat="45.866540" lon="2.209910">
			 <ele>668</ele>
			<time>2016-06-14T14:43:45Z</time>
			</trkpt>
		
			<trkpt lat="45.866360" lon="2.210040">
			 <ele>669</ele>
			<time>2016-06-14T14:45:45Z</time>
			</trkpt>
		
			<trkpt lat="45.866130" lon="2.210230">
			 <ele>672</ele>
			<time>2016-06-14T14:47:45Z</time>
			</trkpt>
		
			<trkpt lat="45.865580" lon="2.210650">
			 <ele>676</ele>
			<time>2016-06-14T14:49:45Z</time>
			</trkpt>
		
			<trkpt lat="45.865100" lon="2.211020">
			 <ele>680</ele>
			<time>2016-06-14T14:51:45Z</time>
			</trkpt>
		
			<trkpt lat="45.864600" lon="2.211390">
			 <ele>685</ele>
			<time>2016-06-14T14:53:45Z</time>
			</trkpt>
		
			<trkpt lat="45.864260" lon="2.211650">
			 <ele>688</ele>
			<time>2016-06-14T14:55:45Z</time>
			</trkpt>
		
			<trkpt lat="45.864090" lon="2.211790">
			 <ele>689</ele>
			<time>2016-06-14T14:57:45Z</time>
			</trkpt>
		
			<trkpt lat="45.863990" lon="2.211890">
			 <ele>690</ele>
			<time>2016-06-14T14:59:45Z</time>
			</trkpt>
		
			<trkpt lat="45.863920" lon="2.211990">
			 <ele>690</ele>
			<time>2016-06-14T15:01:45Z</time>
			</trkpt>
		
			<trkpt lat="45.863870" lon="2.212100">
			 <ele>691</ele>
			<time>2016-06-14T15:03:45Z</time>
			</trkpt>
		
			<trkpt lat="45.863830" lon="2.212210">
			 <ele>691</ele>
			<time>2016-06-14T15:05:45Z</time>
			</trkpt>
		
			<trkpt lat="45.863800" lon="2.212310">
			 <ele>691</ele>
			<time>2016-06-14T15:07:45Z</time>
			</trkpt>
		
			<trkpt lat="45.863770" lon="2.212460">
			 <ele>692</ele>
			<time>2016-06-14T15:09:45Z</time>
			</trkpt>
		
			<trkpt lat="45.863740" lon="2.212790">
			 <ele>693</ele>
			<time>2016-06-14T15:11:45Z</time>
			</trkpt>
		
			<trkpt lat="45.863700" lon="2.213290">
			 <ele>695</ele>
			<time>2016-06-14T15:13:45Z</time>
			</trkpt>
		
			<trkpt lat="45.863660" lon="2.213590">
			 <ele>695</ele>
			<time>2016-06-14T15:15:45Z</time>
			</trkpt>
		
			<trkpt lat="45.863620" lon="2.213810">
			 <ele>696</ele>
			<time>2016-06-14T15:17:45Z</time>
			</trkpt>
		
			<trkpt lat="45.863580" lon="2.213960">
			 <ele>696</ele>
			<time>2016-06-14T15:19:45Z</time>
			</trkpt>
		
			<trkpt lat="45.863530" lon="2.214100">
			 <ele>696</ele>
			<time>2016-06-14T15:21:45Z</time>
			</trkpt>
		
			<trkpt lat="45.863480" lon="2.214250">
			 <ele>697</ele>
			<time>2016-06-14T15:23:45Z</time>
			</trkpt>
		
			<trkpt lat="45.863400" lon="2.214460">
			 <ele>698</ele>
			<time>2016-06-14T15:25:45Z</time>
			</trkpt>
		
			<trkpt lat="45.863140" lon="2.215060">
			 <ele>703</ele>
			<time>2016-06-14T15:27:45Z</time>
			</trkpt>
		
			<trkpt lat="45.862800" lon="2.215850">
			 <ele>708</ele>
			<time>2016-06-14T15:29:45Z</time>
			</trkpt>
		
			<trkpt lat="45.862710" lon="2.216060">
			 <ele>709</ele>
			<time>2016-06-14T15:31:45Z</time>
			</trkpt>
		
			<trkpt lat="45.862620" lon="2.216210">
			 <ele>710</ele>
			<time>2016-06-14T15:33:45Z</time>
			</trkpt>
		
			<trkpt lat="45.862460" lon="2.216460">
			 <ele>711</ele>
			<time>2016-06-14T15:35:45Z</time>
			</trkpt>
		
			<trkpt lat="45.862240" lon="2.216750">
			 <ele>711</ele>
			<time>2016-06-14T15:37:45Z</time>
			</trkpt>
		
			<trkpt lat="45.862200" lon="2.216800">
			 <ele>711</ele>
			<time>2016-06-14T15:39:45Z</time>
			</trkpt>
		
			<trkpt lat="45.861930" lon="2.217120">
			 <ele>711</ele>
			<time>2016-06-14T15:41:45Z</time>
			</trkpt>
		
			<trkpt lat="45.861620" lon="2.217500">
			 <ele>711</ele>
			<time>2016-06-14T15:43:45Z</time>
			</trkpt>
		
			<trkpt lat="45.861330" lon="2.217860">
			 <ele>713</ele>
			<time>2016-06-14T15:45:45Z</time>
			</trkpt>
		
			<trkpt lat="45.861080" lon="2.218160">
			 <ele>714</ele>
			<time>2016-06-14T15:47:45Z</time>
			</trkpt>
		
			<trkpt lat="45.860700" lon="2.218660">
			 <ele>710</ele>
			<time>2016-06-14T15:49:45Z</time>
			</trkpt>
		
			<trkpt lat="45.860600" lon="2.218760">
			 <ele>709</ele>
			<time>2016-06-14T15:51:45Z</time>
			</trkpt>
		
			<trkpt lat="45.860520" lon="2.218830">
			 <ele>708</ele>
			<time>2016-06-14T15:53:45Z</time>
			</trkpt>
		
			<trkpt lat="45.860440" lon="2.218860">
			 <ele>708</ele>
			<time>2016-06-14T15:55:45Z</time>
			</trkpt>
		
			<trkpt lat="45.860360" lon="2.218880">
			 <ele>707</ele>
			<time>2016-06-14T15:57:45Z</time>
			</trkpt>
		
			<trkpt lat="45.860310" lon="2.218890">
			 <ele>707</ele>
			<time>2016-06-14T15:59:45Z</time>
			</trkpt>
		
			<trkpt lat="45.860230" lon="2.218890">
			 <ele>707</ele>
			<time>2016-06-14T16:01:45Z</time>
			</trkpt>
		
			<trkpt lat="45.859930" lon="2.218850">
			 <ele>709</ele>
			<time>2016-06-14T16:03:45Z</time>
			</trkpt>
		
			<trkpt lat="45.859630" lon="2.218810">
			 <ele>709</ele>
			<time>2016-06-14T16:05:45Z</time>
			</trkpt>
		
			<trkpt lat="45.859500" lon="2.218800">
			 <ele>709</ele>
			<time>2016-06-14T16:07:45Z</time>
			</trkpt>
		
			<trkpt lat="45.859430" lon="2.218800">
			 <ele>709</ele>
			<time>2016-06-14T16:09:45Z</time>
			</trkpt>
		
			<trkpt lat="45.859350" lon="2.218800">
			 <ele>708</ele>
			<time>2016-06-14T16:11:45Z</time>
			</trkpt>
		
			<trkpt lat="45.859280" lon="2.218810">
			 <ele>708</ele>
			<time>2016-06-14T16:13:45Z</time>
			</trkpt>
		
			<trkpt lat="45.859180" lon="2.218840">
			 <ele>707</ele>
			<time>2016-06-14T16:15:45Z</time>
			</trkpt>
		
			<trkpt lat="45.859050" lon="2.218910">
			 <ele>706</ele>
			<time>2016-06-14T16:17:45Z</time>
			</trkpt>
		
			<trkpt lat="45.858970" lon="2.218980">
			 <ele>705</ele>
			<time>2016-06-14T16:19:45Z</time>
			</trkpt>
		
			<trkpt lat="45.858870" lon="2.219060">
			 <ele>704</ele>
			<time>2016-06-14T16:21:45Z</time>
			</trkpt>
		
			<trkpt lat="45.858800" lon="2.219170">
			 <ele>702</ele>
			<time>2016-06-14T16:23:45Z</time>
			</trkpt>
		
			<trkpt lat="45.858750" lon="2.219300">
			 <ele>700</ele>
			<time>2016-06-14T16:25:45Z</time>
			</trkpt>
		
			<trkpt lat="45.858680" lon="2.219530">
			 <ele>697</ele>
			<time>2016-06-14T16:27:45Z</time>
			</trkpt>
		
			<trkpt lat="45.858620" lon="2.219890">
			 <ele>692</ele>
			<time>2016-06-14T16:29:45Z</time>
			</trkpt>
		
			<trkpt lat="45.858510" lon="2.220470">
			 <ele>690</ele>
			<time>2016-06-14T16:31:45Z</time>
			</trkpt>
		
			<trkpt lat="45.858360" lon="2.221280">
			 <ele>692</ele>
			<time>2016-06-14T16:33:45Z</time>
			</trkpt>
		
			<trkpt lat="45.858300" lon="2.221630">
			 <ele>693</ele>
			<time>2016-06-14T16:35:45Z</time>
			</trkpt>
		
			<trkpt lat="45.858230" lon="2.222010">
			 <ele>695</ele>
			<time>2016-06-14T16:37:45Z</time>
			</trkpt>
		
			<trkpt lat="45.858170" lon="2.222300">
			 <ele>696</ele>
			<time>2016-06-14T16:39:45Z</time>
			</trkpt>
		
			<trkpt lat="45.858120" lon="2.222530">
			 <ele>697</ele>
			<time>2016-06-14T16:41:45Z</time>
			</trkpt>
		
			<trkpt lat="45.858120" lon="2.222590">
			 <ele>698</ele>
			<time>2016-06-14T16:43:45Z</time>
			</trkpt>
		
			<trkpt lat="45.858110" lon="2.222690">
			 <ele>698</ele>
			<time>2016-06-14T16:45:45Z</time>
			</trkpt>
		
			<trkpt lat="45.858070" lon="2.222960">
			 <ele>699</ele>
			<time>2016-06-14T16:47:45Z</time>
			</trkpt>
		
			<trkpt lat="45.858050" lon="2.223160">
			 <ele>700</ele>
			<time>2016-06-14T16:49:45Z</time>
			</trkpt>
		
			<trkpt lat="45.858060" lon="2.223300">
			 <ele>701</ele>
			<time>2016-06-14T16:51:45Z</time>
			</trkpt>
		
			<trkpt lat="45.858080" lon="2.223460">
			 <ele>701</ele>
			<time>2016-06-14T16:53:45Z</time>
			</trkpt>
		
			<trkpt lat="45.858110" lon="2.223650">
			 <ele>702</ele>
			<time>2016-06-14T16:55:45Z</time>
			</trkpt>
		
			<trkpt lat="45.858130" lon="2.223770">
			 <ele>702</ele>
			<time>2016-06-14T16:57:45Z</time>
			</trkpt>
		
			<trkpt lat="45.858180" lon="2.224070">
			 <ele>703</ele>
			<time>2016-06-14T16:59:45Z</time>
			</trkpt>
		
			<trkpt lat="45.858210" lon="2.224290">
			 <ele>703</ele>
			<time>2016-06-14T17:01:45Z</time>
			</trkpt>
		
			<trkpt lat="45.858220" lon="2.224450">
			 <ele>704</ele>
			<time>2016-06-14T17:03:45Z</time>
			</trkpt>
		
			<trkpt lat="45.858210" lon="2.224670">
			 <ele>704</ele>
			<time>2016-06-14T17:05:45Z</time>
			</trkpt>
		
			<trkpt lat="45.858190" lon="2.224920">
			 <ele>705</ele>
			<time>2016-06-14T17:07:45Z</time>
			</trkpt>
		
			<trkpt lat="45.858150" lon="2.225160">
			 <ele>705</ele>
			<time>2016-06-14T17:09:45Z</time>
			</trkpt>
		
			<trkpt lat="45.858110" lon="2.225350">
			 <ele>705</ele>
			<time>2016-06-14T17:11:45Z</time>
			</trkpt>
		
			<trkpt lat="45.858050" lon="2.225610">
			 <ele>705</ele>
			<time>2016-06-14T17:13:45Z</time>
			</trkpt>
		
			<trkpt lat="45.857970" lon="2.225860">
			 <ele>706</ele>
			<time>2016-06-14T17:15:45Z</time>
			</trkpt>
		
			<trkpt lat="45.857860" lon="2.226170">
			 <ele>706</ele>
			<time>2016-06-14T17:17:45Z</time>
			</trkpt>
		
			<trkpt lat="45.857760" lon="2.226450">
			 <ele>705</ele>
			<time>2016-06-14T17:19:45Z</time>
			</trkpt>
		
			<trkpt lat="45.857700" lon="2.226670">
			 <ele>705</ele>
			<time>2016-06-14T17:21:45Z</time>
			</trkpt>
		
			<trkpt lat="45.857650" lon="2.226890">
			 <ele>705</ele>
			<time>2016-06-14T17:23:45Z</time>
			</trkpt>
		
			<trkpt lat="45.857580" lon="2.227190">
			 <ele>705</ele>
			<time>2016-06-14T17:25:45Z</time>
			</trkpt>
		
			<trkpt lat="45.857530" lon="2.227330">
			 <ele>704</ele>
			<time>2016-06-14T17:27:45Z</time>
			</trkpt>
		
			<trkpt lat="45.857480" lon="2.227450">
			 <ele>704</ele>
			<time>2016-06-14T17:29:45Z</time>
			</trkpt>
		
			<trkpt lat="45.857390" lon="2.227570">
			 <ele>705</ele>
			<time>2016-06-14T17:31:45Z</time>
			</trkpt>
		
			<trkpt lat="45.857260" lon="2.227700">
			 <ele>705</ele>
			<time>2016-06-14T17:33:45Z</time>
			</trkpt>
		
			<trkpt lat="45.857060" lon="2.227880">
			 <ele>707</ele>
			<time>2016-06-14T17:35:45Z</time>
			</trkpt>
		
			<trkpt lat="45.856880" lon="2.228050">
			 <ele>708</ele>
			<time>2016-06-14T17:37:45Z</time>
			</trkpt>
		
			<trkpt lat="45.856830" lon="2.228110">
			 <ele>709</ele>
			<time>2016-06-14T17:39:45Z</time>
			</trkpt>
		
			<trkpt lat="45.856790" lon="2.228210">
			 <ele>709</ele>
			<time>2016-06-14T17:41:45Z</time>
			</trkpt>
		
			<trkpt lat="45.856760" lon="2.228380">
			 <ele>708</ele>
			<time>2016-06-14T17:43:45Z</time>
			</trkpt>
		
			<trkpt lat="45.856760" lon="2.228550">
			 <ele>707</ele>
			<time>2016-06-14T17:45:45Z</time>
			</trkpt>
		
			<trkpt lat="45.856770" lon="2.228890">
			 <ele>705</ele>
			<time>2016-06-14T17:47:45Z</time>
			</trkpt>
		
			<trkpt lat="45.856780" lon="2.229140">
			 <ele>703</ele>
			<time>2016-06-14T17:49:45Z</time>
			</trkpt>
		
			<trkpt lat="45.856780" lon="2.229380">
			 <ele>703</ele>
			<time>2016-06-14T17:51:45Z</time>
			</trkpt>
		
			<trkpt lat="45.856770" lon="2.229550">
			 <ele>702</ele>
			<time>2016-06-14T17:53:45Z</time>
			</trkpt>
		
			<trkpt lat="45.856750" lon="2.229680">
			 <ele>702</ele>
			<time>2016-06-14T17:55:45Z</time>
			</trkpt>
		
			<trkpt lat="45.856710" lon="2.229790">
			 <ele>702</ele>
			<time>2016-06-14T17:57:45Z</time>
			</trkpt>
		
			<trkpt lat="45.856620" lon="2.229990">
			 <ele>702</ele>
			<time>2016-06-14T17:59:45Z</time>
			</trkpt>
		
			<trkpt lat="45.856600" lon="2.230030">
			 <ele>702</ele>
			<time>2016-06-14T18:01:45Z</time>
			</trkpt>
		
			<trkpt lat="45.856470" lon="2.230350">
			 <ele>701</ele>
			<time>2016-06-14T18:03:45Z</time>
			</trkpt>
		
			<trkpt lat="45.856310" lon="2.230720">
			 <ele>700</ele>
			<time>2016-06-14T18:05:45Z</time>
			</trkpt>
		
			<trkpt lat="45.856210" lon="2.230950">
			 <ele>700</ele>
			<time>2016-06-14T18:07:45Z</time>
			</trkpt>
		
			<trkpt lat="45.856190" lon="2.230980">
			 <ele>700</ele>
			<time>2016-06-14T18:09:45Z</time>
			</trkpt>
		
			<trkpt lat="45.856150" lon="2.231060">
			 <ele>701</ele>
			<time>2016-06-14T18:11:45Z</time>
			</trkpt>
		
			<trkpt lat="45.856130" lon="2.231150">
			 <ele>701</ele>
			<time>2016-06-14T18:13:45Z</time>
			</trkpt>
		
			<trkpt lat="45.856120" lon="2.231240">
			 <ele>701</ele>
			<time>2016-06-14T18:15:45Z</time>
			</trkpt>
		
			<trkpt lat="45.856120" lon="2.231300">
			 <ele>701</ele>
			<time>2016-06-14T18:17:45Z</time>
			</trkpt>
		
			<trkpt lat="45.856120" lon="2.231360">
			 <ele>702</ele>
			<time>2016-06-14T18:19:45Z</time>
			</trkpt>
		
			<trkpt lat="45.856140" lon="2.231430">
			 <ele>702</ele>
			<time>2016-06-14T18:21:45Z</time>
			</trkpt>
		
			<trkpt lat="45.856180" lon="2.231540">
			 <ele>701</ele>
			<time>2016-06-14T18:23:45Z</time>
			</trkpt>
		
			<trkpt lat="45.856240" lon="2.231640">
			 <ele>701</ele>
			<time>2016-06-14T18:25:45Z</time>
			</trkpt>
		
			<trkpt lat="45.856300" lon="2.231750">
			 <ele>701</ele>
			<time>2016-06-14T18:27:45Z</time>
			</trkpt>
		
			<trkpt lat="45.856360" lon="2.231860">
			 <ele>701</ele>
			<time>2016-06-14T18:29:45Z</time>
			</trkpt>
		
			<trkpt lat="45.856400" lon="2.231980">
			 <ele>701</ele>
			<time>2016-06-14T18:31:45Z</time>
			</trkpt>
		
			<trkpt lat="45.856430" lon="2.232080">
			 <ele>701</ele>
			<time>2016-06-14T18:33:45Z</time>
			</trkpt>
		
			<trkpt lat="45.856460" lon="2.232220">
			 <ele>701</ele>
			<time>2016-06-14T18:35:45Z</time>
			</trkpt>
		
			<trkpt lat="45.856470" lon="2.232360">
			 <ele>702</ele>
			<time>2016-06-14T18:37:45Z</time>
			</trkpt>
		
			<trkpt lat="45.856480" lon="2.232510">
			 <ele>702</ele>
			<time>2016-06-14T18:39:45Z</time>
			</trkpt>
		
			<trkpt lat="45.856450" lon="2.232720">
			 <ele>702</ele>
			<time>2016-06-14T18:41:45Z</time>
			</trkpt>
		
			<trkpt lat="45.856420" lon="2.232860">
			 <ele>702</ele>
			<time>2016-06-14T18:43:45Z</time>
			</trkpt>
		
			<trkpt lat="45.856360" lon="2.233040">
			 <ele>702</ele>
			<time>2016-06-14T18:45:45Z</time>
			</trkpt>
		
			<trkpt lat="45.856260" lon="2.233290">
			 <ele>704</ele>
			<time>2016-06-14T18:47:45Z</time>
			</trkpt>
		
			<trkpt lat="45.856160" lon="2.233490">
			 <ele>704</ele>
			<time>2016-06-14T18:49:45Z</time>
			</trkpt>
		
			<trkpt lat="45.856000" lon="2.233860">
			 <ele>703</ele>
			<time>2016-06-14T18:51:45Z</time>
			</trkpt>
		
			<trkpt lat="45.855880" lon="2.234140">
			 <ele>703</ele>
			<time>2016-06-14T18:53:45Z</time>
			</trkpt>
		
			<trkpt lat="45.855800" lon="2.234300">
			 <ele>701</ele>
			<time>2016-06-14T18:55:45Z</time>
			</trkpt>
		
			<trkpt lat="45.855700" lon="2.234430">
			 <ele>700</ele>
			<time>2016-06-14T18:57:45Z</time>
			</trkpt>
		
			<trkpt lat="45.855590" lon="2.234550">
			 <ele>699</ele>
			<time>2016-06-14T18:59:45Z</time>
			</trkpt>
		
			<trkpt lat="45.855480" lon="2.234630">
			 <ele>699</ele>
			<time>2016-06-14T19:01:45Z</time>
			</trkpt>
		
			<trkpt lat="45.855360" lon="2.234700">
			 <ele>699</ele>
			<time>2016-06-14T19:03:45Z</time>
			</trkpt>
		
			<trkpt lat="45.855190" lon="2.234770">
			 <ele>700</ele>
			<time>2016-06-14T19:05:45Z</time>
			</trkpt>
		
			<trkpt lat="45.855090" lon="2.234830">
			 <ele>700</ele>
			<time>2016-06-14T19:07:45Z</time>
			</trkpt>
		
			<trkpt lat="45.854990" lon="2.234940">
			 <ele>700</ele>
			<time>2016-06-14T19:09:45Z</time>
			</trkpt>
		
			<trkpt lat="45.854920" lon="2.235050">
			 <ele>698</ele>
			<time>2016-06-14T19:11:45Z</time>
			</trkpt>
		
			<trkpt lat="45.854880" lon="2.235150">
			 <ele>697</ele>
			<time>2016-06-14T19:13:45Z</time>
			</trkpt>
		
			<trkpt lat="45.854850" lon="2.235230">
			 <ele>696</ele>
			<time>2016-06-14T19:15:45Z</time>
			</trkpt>
		
			<trkpt lat="45.854820" lon="2.235350">
			 <ele>694</ele>
			<time>2016-06-14T19:17:45Z</time>
			</trkpt>
		
			<trkpt lat="45.854800" lon="2.235500">
			 <ele>692</ele>
			<time>2016-06-14T19:19:45Z</time>
			</trkpt>
		
			<trkpt lat="45.854800" lon="2.235630">
			 <ele>690</ele>
			<time>2016-06-14T19:21:45Z</time>
			</trkpt>
		
			<trkpt lat="45.854810" lon="2.235740">
			 <ele>689</ele>
			<time>2016-06-14T19:23:45Z</time>
			</trkpt>
		
			<trkpt lat="45.854830" lon="2.235870">
			 <ele>688</ele>
			<time>2016-06-14T19:25:45Z</time>
			</trkpt>
		
			<trkpt lat="45.854870" lon="2.236000">
			 <ele>688</ele>
			<time>2016-06-14T19:27:45Z</time>
			</trkpt>
		
			<trkpt lat="45.854940" lon="2.236240">
			 <ele>688</ele>
			<time>2016-06-14T19:29:45Z</time>
			</trkpt>
		
			<trkpt lat="45.855020" lon="2.236430">
			 <ele>688</ele>
			<time>2016-06-14T19:31:45Z</time>
			</trkpt>
		
			<trkpt lat="45.855090" lon="2.236570">
			 <ele>688</ele>
			<time>2016-06-14T19:33:45Z</time>
			</trkpt>
		
			<trkpt lat="45.855170" lon="2.236710">
			 <ele>689</ele>
			<time>2016-06-14T19:35:45Z</time>
			</trkpt>
		
			<trkpt lat="45.855320" lon="2.236910">
			 <ele>690</ele>
			<time>2016-06-14T19:37:45Z</time>
			</trkpt>
		
			<trkpt lat="45.855450" lon="2.237050">
			 <ele>690</ele>
			<time>2016-06-14T19:39:45Z</time>
			</trkpt>
		
			<trkpt lat="45.855610" lon="2.237210">
			 <ele>691</ele>
			<time>2016-06-14T19:41:45Z</time>
			</trkpt>
		
			<trkpt lat="45.855690" lon="2.237300">
			 <ele>692</ele>
			<time>2016-06-14T19:43:45Z</time>
			</trkpt>
		
			<trkpt lat="45.855870" lon="2.237520">
			 <ele>693</ele>
			<time>2016-06-14T19:45:45Z</time>
			</trkpt>
		
			<trkpt lat="45.855990" lon="2.237660">
			 <ele>691</ele>
			<time>2016-06-14T19:47:45Z</time>
			</trkpt>
		
			<trkpt lat="45.856080" lon="2.237840">
			 <ele>690</ele>
			<time>2016-06-14T19:49:45Z</time>
			</trkpt>
		
			<trkpt lat="45.856150" lon="2.238010">
			 <ele>690</ele>
			<time>2016-06-14T19:51:45Z</time>
			</trkpt>
		
			<trkpt lat="45.856210" lon="2.238180">
			 <ele>690</ele>
			<time>2016-06-14T19:53:45Z</time>
			</trkpt>
		
			<trkpt lat="45.856260" lon="2.238420">
			 <ele>689</ele>
			<time>2016-06-14T19:55:45Z</time>
			</trkpt>
		
			<trkpt lat="45.856320" lon="2.238670">
			 <ele>688</ele>
			<time>2016-06-14T19:57:45Z</time>
			</trkpt>
		
			<trkpt lat="45.856380" lon="2.238980">
			 <ele>686</ele>
			<time>2016-06-14T19:59:45Z</time>
			</trkpt>
		
			<trkpt lat="45.856400" lon="2.239170">
			 <ele>685</ele>
			<time>2016-06-14T20:01:45Z</time>
			</trkpt>
		
			<trkpt lat="45.856420" lon="2.239400">
			 <ele>685</ele>
			<time>2016-06-14T20:03:45Z</time>
			</trkpt>
		
			<trkpt lat="45.856420" lon="2.239690">
			 <ele>684</ele>
			<time>2016-06-14T20:05:45Z</time>
			</trkpt>
		
			<trkpt lat="45.856430" lon="2.240060">
			 <ele>683</ele>
			<time>2016-06-14T20:07:45Z</time>
			</trkpt>
		
			<trkpt lat="45.856440" lon="2.240410">
			 <ele>682</ele>
			<time>2016-06-14T20:09:45Z</time>
			</trkpt>
		
			<trkpt lat="45.856450" lon="2.240690">
			 <ele>681</ele>
			<time>2016-06-14T20:11:45Z</time>
			</trkpt>
		
			<trkpt lat="45.856450" lon="2.240820">
			 <ele>680</ele>
			<time>2016-06-14T20:13:45Z</time>
			</trkpt>
		
			<trkpt lat="45.856470" lon="2.240920">
			 <ele>680</ele>
			<time>2016-06-14T20:15:45Z</time>
			</trkpt>
		
			<trkpt lat="45.856520" lon="2.241090">
			 <ele>680</ele>
			<time>2016-06-14T20:17:45Z</time>
			</trkpt>
		
			<trkpt lat="45.856560" lon="2.241230">
			 <ele>679</ele>
			<time>2016-06-14T20:19:45Z</time>
			</trkpt>
		
			<trkpt lat="45.856570" lon="2.241350">
			 <ele>679</ele>
			<time>2016-06-14T20:21:45Z</time>
			</trkpt>
		
			<trkpt lat="45.856580" lon="2.241460">
			 <ele>678</ele>
			<time>2016-06-14T20:23:45Z</time>
			</trkpt>
		
			<trkpt lat="45.856560" lon="2.241590">
			 <ele>678</ele>
			<time>2016-06-14T20:25:45Z</time>
			</trkpt>
		
			<trkpt lat="45.856520" lon="2.241760">
			 <ele>677</ele>
			<time>2016-06-14T20:27:45Z</time>
			</trkpt>
		
			<trkpt lat="45.856440" lon="2.241990">
			 <ele>677</ele>
			<time>2016-06-14T20:29:45Z</time>
			</trkpt>
		
			<trkpt lat="45.856360" lon="2.242180">
			 <ele>678</ele>
			<time>2016-06-14T20:31:45Z</time>
			</trkpt>
		
			<trkpt lat="45.856280" lon="2.242380">
			 <ele>678</ele>
			<time>2016-06-14T20:33:45Z</time>
			</trkpt>
		
			<trkpt lat="45.856210" lon="2.242510">
			 <ele>679</ele>
			<time>2016-06-14T20:35:45Z</time>
			</trkpt>
		
			<trkpt lat="45.856140" lon="2.242600">
			 <ele>679</ele>
			<time>2016-06-14T20:37:45Z</time>
			</trkpt>
		
			<trkpt lat="45.856090" lon="2.242650">
			 <ele>680</ele>
			<time>2016-06-14T20:39:45Z</time>
			</trkpt>
		
			<trkpt lat="45.855990" lon="2.242720">
			 <ele>681</ele>
			<time>2016-06-14T20:41:45Z</time>
			</trkpt>
		
			<trkpt lat="45.855880" lon="2.242780">
			 <ele>681</ele>
			<time>2016-06-14T20:43:45Z</time>
			</trkpt>
		
			<trkpt lat="45.855800" lon="2.242830">
			 <ele>681</ele>
			<time>2016-06-14T20:45:45Z</time>
			</trkpt>
		
			<trkpt lat="45.855710" lon="2.242920">
			 <ele>682</ele>
			<time>2016-06-14T20:47:45Z</time>
			</trkpt>
		
			<trkpt lat="45.855630" lon="2.243040">
			 <ele>682</ele>
			<time>2016-06-14T20:49:45Z</time>
			</trkpt>
		
			<trkpt lat="45.855550" lon="2.243190">
			 <ele>683</ele>
			<time>2016-06-14T20:51:45Z</time>
			</trkpt>
		
			<trkpt lat="45.855450" lon="2.243440">
			 <ele>684</ele>
			<time>2016-06-14T20:53:45Z</time>
			</trkpt>
		
			<trkpt lat="45.855350" lon="2.243650">
			 <ele>684</ele>
			<time>2016-06-14T20:55:45Z</time>
			</trkpt>
		
			<trkpt lat="45.855310" lon="2.243730">
			 <ele>684</ele>
			<time>2016-06-14T20:57:45Z</time>
			</trkpt>
		
			<trkpt lat="45.854870" lon="2.244730">
			 <ele>689</ele>
			<time>2016-06-14T20:59:45Z</time>
			</trkpt>
		
			<trkpt lat="45.854680" lon="2.245150">
			 <ele>690</ele>
			<time>2016-06-14T21:01:45Z</time>
			</trkpt>
		
			<trkpt lat="45.854530" lon="2.245510">
			 <ele>690</ele>
			<time>2016-06-14T21:03:45Z</time>
			</trkpt>
		
			<trkpt lat="45.854470" lon="2.245660">
			 <ele>690</ele>
			<time>2016-06-14T21:05:45Z</time>
			</trkpt>
		
			<trkpt lat="45.854420" lon="2.245880">
			 <ele>690</ele>
			<time>2016-06-14T21:07:45Z</time>
			</trkpt>
		
			<trkpt lat="45.854450" lon="2.246120">
			 <ele>690</ele>
			<time>2016-06-14T21:09:45Z</time>
			</trkpt>
		
			<trkpt lat="45.854480" lon="2.246280">
			 <ele>690</ele>
			<time>2016-06-14T21:11:45Z</time>
			</trkpt>
		
			<trkpt lat="45.854590" lon="2.246600">
			 <ele>690</ele>
			<time>2016-06-14T21:13:45Z</time>
			</trkpt>
		
			<trkpt lat="45.854690" lon="2.246870">
			 <ele>690</ele>
			<time>2016-06-14T21:15:45Z</time>
			</trkpt>
		
			<trkpt lat="45.854850" lon="2.247320">
			 <ele>690</ele>
			<time>2016-06-14T21:17:45Z</time>
			</trkpt>
		
			<trkpt lat="45.854990" lon="2.247760">
			 <ele>688</ele>
			<time>2016-06-14T21:19:45Z</time>
			</trkpt>
		
			<trkpt lat="45.855130" lon="2.248130">
			 <ele>687</ele>
			<time>2016-06-14T21:21:45Z</time>
			</trkpt>
		
			<trkpt lat="45.855230" lon="2.248420">
			 <ele>685</ele>
			<time>2016-06-14T21:23:45Z</time>
			</trkpt>
		
			<trkpt lat="45.855310" lon="2.248640">
			 <ele>683</ele>
			<time>2016-06-14T21:25:45Z</time>
			</trkpt>
		
			<trkpt lat="45.855340" lon="2.248740">
			 <ele>683</ele>
			<time>2016-06-14T21:27:45Z</time>
			</trkpt>
		
			<trkpt lat="45.855410" lon="2.248940">
			 <ele>682</ele>
			<time>2016-06-14T21:29:45Z</time>
			</trkpt>
		
			<trkpt lat="45.855470" lon="2.249120">
			 <ele>681</ele>
			<time>2016-06-14T21:31:45Z</time>
			</trkpt>
		
			<trkpt lat="45.855500" lon="2.249210">
			 <ele>681</ele>
			<time>2016-06-14T21:33:45Z</time>
			</trkpt>
		
			<trkpt lat="45.855530" lon="2.249330">
			 <ele>680</ele>
			<time>2016-06-14T21:35:45Z</time>
			</trkpt>
		
			<trkpt lat="45.855600" lon="2.249610">
			 <ele>680</ele>
			<time>2016-06-14T21:37:45Z</time>
			</trkpt>
		
			<trkpt lat="45.855670" lon="2.249980">
			 <ele>679</ele>
			<time>2016-06-14T21:39:45Z</time>
			</trkpt>
		
			<trkpt lat="45.855730" lon="2.250400">
			 <ele>678</ele>
			<time>2016-06-14T21:41:45Z</time>
			</trkpt>
		
			<trkpt lat="45.855800" lon="2.250830">
			 <ele>677</ele>
			<time>2016-06-14T21:43:45Z</time>
			</trkpt>
		
			<trkpt lat="45.855860" lon="2.251210">
			 <ele>676</ele>
			<time>2016-06-14T21:45:45Z</time>
			</trkpt>
		
			<trkpt lat="45.855900" lon="2.251410">
			 <ele>675</ele>
			<time>2016-06-14T21:47:45Z</time>
			</trkpt>
		
			<trkpt lat="45.855950" lon="2.251610">
			 <ele>674</ele>
			<time>2016-06-14T21:49:45Z</time>
			</trkpt>
		
			<trkpt lat="45.856010" lon="2.251800">
			 <ele>673</ele>
			<time>2016-06-14T21:51:45Z</time>
			</trkpt>
		
			<trkpt lat="45.856120" lon="2.252060">
			 <ele>671</ele>
			<time>2016-06-14T21:53:45Z</time>
			</trkpt>
		
			<trkpt lat="45.856220" lon="2.252300">
			 <ele>671</ele>
			<time>2016-06-14T21:55:45Z</time>
			</trkpt>
		
			<trkpt lat="45.856300" lon="2.252490">
			 <ele>670</ele>
			<time>2016-06-14T21:57:45Z</time>
			</trkpt>
		
			<trkpt lat="45.856350" lon="2.252680">
			 <ele>670</ele>
			<time>2016-06-14T21:59:45Z</time>
			</trkpt>
		
			<trkpt lat="45.856390" lon="2.252880">
			 <ele>670</ele>
			<time>2016-06-14T22:01:45Z</time>
			</trkpt>
		
			<trkpt lat="45.856420" lon="2.253120">
			 <ele>669</ele>
			<time>2016-06-14T22:03:45Z</time>
			</trkpt>
		
			<trkpt lat="45.856450" lon="2.253400">
			 <ele>667</ele>
			<time>2016-06-14T22:05:45Z</time>
			</trkpt>
		
			<trkpt lat="45.856470" lon="2.253700">
			 <ele>666</ele>
			<time>2016-06-14T22:07:45Z</time>
			</trkpt>
		
			<trkpt lat="45.856470" lon="2.253830">
			 <ele>665</ele>
			<time>2016-06-14T22:09:45Z</time>
			</trkpt>
		
			<trkpt lat="45.856480" lon="2.253940">
			 <ele>665</ele>
			<time>2016-06-14T22:11:45Z</time>
			</trkpt>
		
			<trkpt lat="45.856480" lon="2.253980">
			 <ele>665</ele>
			<time>2016-06-14T22:13:45Z</time>
			</trkpt>
		
			<trkpt lat="45.856480" lon="2.254010">
			 <ele>665</ele>
			<time>2016-06-14T22:15:45Z</time>
			</trkpt>
		
			<trkpt lat="45.856470" lon="2.254110">
			 <ele>664</ele>
			<time>2016-06-14T22:17:45Z</time>
			</trkpt>
		
			<trkpt lat="45.856460" lon="2.254220">
			 <ele>664</ele>
			<time>2016-06-14T22:19:45Z</time>
			</trkpt>
		
			<trkpt lat="45.856440" lon="2.254420">
			 <ele>664</ele>
			<time>2016-06-14T22:21:45Z</time>
			</trkpt>
		
			<trkpt lat="45.856410" lon="2.254570">
			 <ele>664</ele>
			<time>2016-06-14T22:23:45Z</time>
			</trkpt>
		
			<trkpt lat="45.856390" lon="2.254720">
			 <ele>664</ele>
			<time>2016-06-14T22:25:45Z</time>
			</trkpt>
		
			<trkpt lat="45.856350" lon="2.254940">
			 <ele>664</ele>
			<time>2016-06-14T22:27:45Z</time>
			</trkpt>
		
			<trkpt lat="45.856310" lon="2.255140">
			 <ele>663</ele>
			<time>2016-06-14T22:29:45Z</time>
			</trkpt>
		
			<trkpt lat="45.856270" lon="2.255310">
			 <ele>663</ele>
			<time>2016-06-14T22:31:45Z</time>
			</trkpt>
		
			<trkpt lat="45.856230" lon="2.255420">
			 <ele>662</ele>
			<time>2016-06-14T22:33:45Z</time>
			</trkpt>
		
			<trkpt lat="45.856190" lon="2.255520">
			 <ele>662</ele>
			<time>2016-06-14T22:35:45Z</time>
			</trkpt>
		
			<trkpt lat="45.856160" lon="2.255600">
			 <ele>661</ele>
			<time>2016-06-14T22:37:45Z</time>
			</trkpt>
		
			<trkpt lat="45.856100" lon="2.255670">
			 <ele>661</ele>
			<time>2016-06-14T22:39:45Z</time>
			</trkpt>
		
			<trkpt lat="45.856060" lon="2.255720">
			 <ele>661</ele>
			<time>2016-06-14T22:41:45Z</time>
			</trkpt>
		
			<trkpt lat="45.856000" lon="2.255760">
			 <ele>660</ele>
			<time>2016-06-14T22:43:45Z</time>
			</trkpt>
		
			<trkpt lat="45.855930" lon="2.255810">
			 <ele>660</ele>
			<time>2016-06-14T22:45:45Z</time>
			</trkpt>
		
			<trkpt lat="45.855840" lon="2.255840">
			 <ele>659</ele>
			<time>2016-06-14T22:47:45Z</time>
			</trkpt>
		
			<trkpt lat="45.855770" lon="2.255840">
			 <ele>659</ele>
			<time>2016-06-14T22:49:45Z</time>
			</trkpt>
		
			<trkpt lat="45.855710" lon="2.255840">
			 <ele>658</ele>
			<time>2016-06-14T22:51:45Z</time>
			</trkpt>
		
			<trkpt lat="45.855600" lon="2.255800">
			 <ele>658</ele>
			<time>2016-06-14T22:53:45Z</time>
			</trkpt>
		
			<trkpt lat="45.855520" lon="2.255760">
			 <ele>657</ele>
			<time>2016-06-14T22:55:45Z</time>
			</trkpt>
		
			<trkpt lat="45.855400" lon="2.255700">
			 <ele>657</ele>
			<time>2016-06-14T22:57:45Z</time>
			</trkpt>
		
			<trkpt lat="45.855330" lon="2.255680">
			 <ele>656</ele>
			<time>2016-06-14T22:59:45Z</time>
			</trkpt>
		
			<trkpt lat="45.855280" lon="2.255670">
			 <ele>656</ele>
			<time>2016-06-14T23:01:45Z</time>
			</trkpt>
		
			<trkpt lat="45.855190" lon="2.255660">
			 <ele>655</ele>
			<time>2016-06-14T23:03:45Z</time>
			</trkpt>
		
			<trkpt lat="45.855100" lon="2.255670">
			 <ele>655</ele>
			<time>2016-06-14T23:05:45Z</time>
			</trkpt>
		
			<trkpt lat="45.855040" lon="2.255700">
			 <ele>655</ele>
			<time>2016-06-14T23:07:45Z</time>
			</trkpt>
		
			<trkpt lat="45.854980" lon="2.255740">
			 <ele>654</ele>
			<time>2016-06-14T23:09:45Z</time>
			</trkpt>
		
			<trkpt lat="45.854900" lon="2.255800">
			 <ele>654</ele>
			<time>2016-06-14T23:11:45Z</time>
			</trkpt>
		
			<trkpt lat="45.854820" lon="2.255880">
			 <ele>654</ele>
			<time>2016-06-14T23:13:45Z</time>
			</trkpt>
		
			<trkpt lat="45.854760" lon="2.255960">
			 <ele>653</ele>
			<time>2016-06-14T23:15:45Z</time>
			</trkpt>
		
			<trkpt lat="45.854730" lon="2.256010">
			 <ele>653</ele>
			<time>2016-06-14T23:17:45Z</time>
			</trkpt>
		
			<trkpt lat="45.854670" lon="2.256160">
			 <ele>653</ele>
			<time>2016-06-14T23:19:45Z</time>
			</trkpt>
		
			<trkpt lat="45.854600" lon="2.256360">
			 <ele>653</ele>
			<time>2016-06-14T23:21:45Z</time>
			</trkpt>
		
			<trkpt lat="45.854580" lon="2.256480">
			 <ele>653</ele>
			<time>2016-06-14T23:23:45Z</time>
			</trkpt>
		
			<trkpt lat="45.854550" lon="2.256630">
			 <ele>653</ele>
			<time>2016-06-14T23:25:45Z</time>
			</trkpt>
		
			<trkpt lat="45.854550" lon="2.256730">
			 <ele>653</ele>
			<time>2016-06-14T23:27:45Z</time>
			</trkpt>
		
			<trkpt lat="45.854540" lon="2.256840">
			 <ele>653</ele>
			<time>2016-06-14T23:29:45Z</time>
			</trkpt>
		
			<trkpt lat="45.854550" lon="2.257030">
			 <ele>653</ele>
			<time>2016-06-14T23:31:45Z</time>
			</trkpt>
		
			<trkpt lat="45.854570" lon="2.257220">
			 <ele>653</ele>
			<time>2016-06-14T23:33:45Z</time>
			</trkpt>
		
			<trkpt lat="45.854620" lon="2.257350">
			 <ele>654</ele>
			<time>2016-06-14T23:35:45Z</time>
			</trkpt>
		
			<trkpt lat="45.854680" lon="2.257470">
			 <ele>654</ele>
			<time>2016-06-14T23:37:45Z</time>
			</trkpt>
		
			<trkpt lat="45.854770" lon="2.257600">
			 <ele>654</ele>
			<time>2016-06-14T23:39:45Z</time>
			</trkpt>
		
			<trkpt lat="45.854850" lon="2.257700">
			 <ele>653</ele>
			<time>2016-06-14T23:41:45Z</time>
			</trkpt>
		
			<trkpt lat="45.854940" lon="2.257790">
			 <ele>652</ele>
			<time>2016-06-14T23:43:45Z</time>
			</trkpt>
		
			<trkpt lat="45.855080" lon="2.257900">
			 <ele>651</ele>
			<time>2016-06-14T23:45:45Z</time>
			</trkpt>
		
			<trkpt lat="45.855250" lon="2.258010">
			 <ele>650</ele>
			<time>2016-06-14T23:47:45Z</time>
			</trkpt>
		
			<trkpt lat="45.855440" lon="2.258110">
			 <ele>649</ele>
			<time>2016-06-14T23:49:45Z</time>
			</trkpt>
		
			<trkpt lat="45.855570" lon="2.258190">
			 <ele>648</ele>
			<time>2016-06-14T23:51:45Z</time>
			</trkpt>
		
			<trkpt lat="45.855720" lon="2.258290">
			 <ele>648</ele>
			<time>2016-06-14T23:53:45Z</time>
			</trkpt>
		
			<trkpt lat="45.855780" lon="2.258360">
			 <ele>648</ele>
			<time>2016-06-14T23:55:45Z</time>
			</trkpt>
		
			<trkpt lat="45.855860" lon="2.258460">
			 <ele>647</ele>
			<time>2016-06-14T23:57:45Z</time>
			</trkpt>
		
			<trkpt lat="45.855910" lon="2.258560">
			 <ele>647</ele>
			<time>2016-06-14T23:59:45Z</time>
			</trkpt>
		
			<trkpt lat="45.855960" lon="2.258660">
			 <ele>646</ele>
			<time>2016-06-15T00:01:45Z</time>
			</trkpt>
		
			<trkpt lat="45.856000" lon="2.258770">
			 <ele>646</ele>
			<time>2016-06-15T00:03:45Z</time>
			</trkpt>
		
			<trkpt lat="45.856020" lon="2.258880">
			 <ele>645</ele>
			<time>2016-06-15T00:05:45Z</time>
			</trkpt>
		
			<trkpt lat="45.856040" lon="2.259010">
			 <ele>645</ele>
			<time>2016-06-15T00:07:45Z</time>
			</trkpt>
		
			<trkpt lat="45.856050" lon="2.259070">
			 <ele>644</ele>
			<time>2016-06-15T00:09:45Z</time>
			</trkpt>
		
			<trkpt lat="45.856090" lon="2.259280">
			 <ele>644</ele>
			<time>2016-06-15T00:11:45Z</time>
			</trkpt>
		
			<trkpt lat="45.856120" lon="2.259470">
			 <ele>643</ele>
			<time>2016-06-15T00:13:45Z</time>
			</trkpt>
		
			<trkpt lat="45.856150" lon="2.259610">
			 <ele>642</ele>
			<time>2016-06-15T00:15:45Z</time>
			</trkpt>
		
			<trkpt lat="45.856200" lon="2.259730">
			 <ele>642</ele>
			<time>2016-06-15T00:17:45Z</time>
			</trkpt>
		
			<trkpt lat="45.856280" lon="2.259860">
			 <ele>641</ele>
			<time>2016-06-15T00:19:45Z</time>
			</trkpt>
		
			<trkpt lat="45.856350" lon="2.259950">
			 <ele>641</ele>
			<time>2016-06-15T00:21:45Z</time>
			</trkpt>
		
			<trkpt lat="45.856440" lon="2.260030">
			 <ele>640</ele>
			<time>2016-06-15T00:23:45Z</time>
			</trkpt>
		
			<trkpt lat="45.856580" lon="2.260110">
			 <ele>639</ele>
			<time>2016-06-15T00:25:45Z</time>
			</trkpt>
		
			<trkpt lat="45.856770" lon="2.260200">
			 <ele>638</ele>
			<time>2016-06-15T00:27:45Z</time>
			</trkpt>
		
			<trkpt lat="45.856890" lon="2.260250">
			 <ele>637</ele>
			<time>2016-06-15T00:29:45Z</time>
			</trkpt>
		
			<trkpt lat="45.857030" lon="2.260290">
			 <ele>637</ele>
			<time>2016-06-15T00:31:45Z</time>
			</trkpt>
		
			<trkpt lat="45.857130" lon="2.260300">
			 <ele>637</ele>
			<time>2016-06-15T00:33:45Z</time>
			</trkpt>
		
			<trkpt lat="45.857230" lon="2.260290">
			 <ele>637</ele>
			<time>2016-06-15T00:35:45Z</time>
			</trkpt>
		
			<trkpt lat="45.857320" lon="2.260270">
			 <ele>638</ele>
			<time>2016-06-15T00:37:45Z</time>
			</trkpt>
		
			<trkpt lat="45.857380" lon="2.260260">
			 <ele>638</ele>
			<time>2016-06-15T00:39:45Z</time>
			</trkpt>
		
			<trkpt lat="45.857470" lon="2.260250">
			 <ele>638</ele>
			<time>2016-06-15T00:41:45Z</time>
			</trkpt>
		
			<trkpt lat="45.857540" lon="2.260260">
			 <ele>639</ele>
			<time>2016-06-15T00:43:45Z</time>
			</trkpt>
		
			<trkpt lat="45.857610" lon="2.260290">
			 <ele>639</ele>
			<time>2016-06-15T00:45:45Z</time>
			</trkpt>
		
			<trkpt lat="45.857680" lon="2.260330">
			 <ele>640</ele>
			<time>2016-06-15T00:47:45Z</time>
			</trkpt>
		
			<trkpt lat="45.857750" lon="2.260400">
			 <ele>640</ele>
			<time>2016-06-15T00:49:45Z</time>
			</trkpt>
		
			<trkpt lat="45.857850" lon="2.260540">
			 <ele>639</ele>
			<time>2016-06-15T00:51:45Z</time>
			</trkpt>
		
			<trkpt lat="45.857980" lon="2.260740">
			 <ele>639</ele>
			<time>2016-06-15T00:53:45Z</time>
			</trkpt>
		
			<trkpt lat="45.858110" lon="2.260920">
			 <ele>638</ele>
			<time>2016-06-15T00:55:45Z</time>
			</trkpt>
		
			<trkpt lat="45.858230" lon="2.261090">
			 <ele>636</ele>
			<time>2016-06-15T00:57:45Z</time>
			</trkpt>
		
			<trkpt lat="45.858440" lon="2.261380">
			 <ele>633</ele>
			<time>2016-06-15T00:59:45Z</time>
			</trkpt>
		
			<trkpt lat="45.858560" lon="2.261510">
			 <ele>631</ele>
			<time>2016-06-15T01:01:45Z</time>
			</trkpt>
		
			<trkpt lat="45.858650" lon="2.261590">
			 <ele>631</ele>
			<time>2016-06-15T01:03:45Z</time>
			</trkpt>
		
			<trkpt lat="45.858730" lon="2.261640">
			 <ele>631</ele>
			<time>2016-06-15T01:05:45Z</time>
			</trkpt>
		
			<trkpt lat="45.858820" lon="2.261690">
			 <ele>631</ele>
			<time>2016-06-15T01:07:45Z</time>
			</trkpt>
		
			<trkpt lat="45.858930" lon="2.261740">
			 <ele>632</ele>
			<time>2016-06-15T01:09:45Z</time>
			</trkpt>
		
			<trkpt lat="45.859000" lon="2.261780">
			 <ele>632</ele>
			<time>2016-06-15T01:11:45Z</time>
			</trkpt>
		
			<trkpt lat="45.859060" lon="2.261820">
			 <ele>632</ele>
			<time>2016-06-15T01:13:45Z</time>
			</trkpt>
		
			<trkpt lat="45.859130" lon="2.261880">
			 <ele>632</ele>
			<time>2016-06-15T01:15:45Z</time>
			</trkpt>
		
			<trkpt lat="45.859180" lon="2.261950">
			 <ele>632</ele>
			<time>2016-06-15T01:17:45Z</time>
			</trkpt>
		
			<trkpt lat="45.859210" lon="2.262030">
			 <ele>631</ele>
			<time>2016-06-15T01:19:45Z</time>
			</trkpt>
		
			<trkpt lat="45.859240" lon="2.262110">
			 <ele>631</ele>
			<time>2016-06-15T01:21:45Z</time>
			</trkpt>
		
			<trkpt lat="45.859250" lon="2.262190">
			 <ele>630</ele>
			<time>2016-06-15T01:23:45Z</time>
			</trkpt>
		
			<trkpt lat="45.859260" lon="2.262300">
			 <ele>629</ele>
			<time>2016-06-15T01:25:45Z</time>
			</trkpt>
		
			<trkpt lat="45.859270" lon="2.262450">
			 <ele>627</ele>
			<time>2016-06-15T01:27:45Z</time>
			</trkpt>
		
			<trkpt lat="45.859260" lon="2.262700">
			 <ele>624</ele>
			<time>2016-06-15T01:29:45Z</time>
			</trkpt>
		
			<trkpt lat="45.859260" lon="2.262970">
			 <ele>622</ele>
			<time>2016-06-15T01:31:45Z</time>
			</trkpt>
		
			<trkpt lat="45.859270" lon="2.263170">
			 <ele>620</ele>
			<time>2016-06-15T01:33:45Z</time>
			</trkpt>
		
			<trkpt lat="45.859300" lon="2.263390">
			 <ele>619</ele>
			<time>2016-06-15T01:35:45Z</time>
			</trkpt>
		
			<trkpt lat="45.859330" lon="2.263550">
			 <ele>618</ele>
			<time>2016-06-15T01:37:45Z</time>
			</trkpt>
		
			<trkpt lat="45.859360" lon="2.263660">
			 <ele>618</ele>
			<time>2016-06-15T01:39:45Z</time>
			</trkpt>
		
			<trkpt lat="45.859440" lon="2.263830">
			 <ele>617</ele>
			<time>2016-06-15T01:41:45Z</time>
			</trkpt>
		
			<trkpt lat="45.859550" lon="2.264040">
			 <ele>616</ele>
			<time>2016-06-15T01:43:45Z</time>
			</trkpt>
		
			<trkpt lat="45.859690" lon="2.264220">
			 <ele>616</ele>
			<time>2016-06-15T01:45:45Z</time>
			</trkpt>
		
			<trkpt lat="45.859780" lon="2.264360">
			 <ele>615</ele>
			<time>2016-06-15T01:47:45Z</time>
			</trkpt>
		
			<trkpt lat="45.859950" lon="2.264580">
			 <ele>613</ele>
			<time>2016-06-15T01:49:45Z</time>
			</trkpt>
		
			<trkpt lat="45.860040" lon="2.264700">
			 <ele>613</ele>
			<time>2016-06-15T01:51:45Z</time>
			</trkpt>
		
			<trkpt lat="45.860130" lon="2.264790">
			 <ele>612</ele>
			<time>2016-06-15T01:53:45Z</time>
			</trkpt>
		
			<trkpt lat="45.860210" lon="2.264850">
			 <ele>613</ele>
			<time>2016-06-15T01:55:45Z</time>
			</trkpt>
		
			<trkpt lat="45.860310" lon="2.264920">
			 <ele>613</ele>
			<time>2016-06-15T01:57:45Z</time>
			</trkpt>
		
			<trkpt lat="45.860440" lon="2.265010">
			 <ele>613</ele>
			<time>2016-06-15T01:59:45Z</time>
			</trkpt>
		
			<trkpt lat="45.860570" lon="2.265110">
			 <ele>613</ele>
			<time>2016-06-15T02:01:45Z</time>
			</trkpt>
		
			<trkpt lat="45.860640" lon="2.265180">
			 <ele>613</ele>
			<time>2016-06-15T02:03:45Z</time>
			</trkpt>
		
			<trkpt lat="45.860730" lon="2.265290">
			 <ele>612</ele>
			<time>2016-06-15T02:05:45Z</time>
			</trkpt>
		
			<trkpt lat="45.860800" lon="2.265410">
			 <ele>612</ele>
			<time>2016-06-15T02:07:45Z</time>
			</trkpt>
		
			<trkpt lat="45.860870" lon="2.265540">
			 <ele>611</ele>
			<time>2016-06-15T02:09:45Z</time>
			</trkpt>
		
			<trkpt lat="45.860910" lon="2.265690">
			 <ele>611</ele>
			<time>2016-06-15T02:11:45Z</time>
			</trkpt>
		
			<trkpt lat="45.860930" lon="2.265760">
			 <ele>610</ele>
			<time>2016-06-15T02:13:45Z</time>
			</trkpt>
		
			<trkpt lat="45.860950" lon="2.265870">
			 <ele>610</ele>
			<time>2016-06-15T02:15:45Z</time>
			</trkpt>
		
			<trkpt lat="45.860960" lon="2.266010">
			 <ele>608</ele>
			<time>2016-06-15T02:17:45Z</time>
			</trkpt>
		
			<trkpt lat="45.860970" lon="2.266200">
			 <ele>606</ele>
			<time>2016-06-15T02:19:45Z</time>
			</trkpt>
		
			<trkpt lat="45.860980" lon="2.266330">
			 <ele>605</ele>
			<time>2016-06-15T02:21:45Z</time>
			</trkpt>
		
			<trkpt lat="45.860990" lon="2.266400">
			 <ele>605</ele>
			<time>2016-06-15T02:23:45Z</time>
			</trkpt>
		
			<trkpt lat="45.861010" lon="2.266520">
			 <ele>604</ele>
			<time>2016-06-15T02:25:45Z</time>
			</trkpt>
		
			<trkpt lat="45.861050" lon="2.266640">
			 <ele>603</ele>
			<time>2016-06-15T02:27:45Z</time>
			</trkpt>
		
			<trkpt lat="45.861100" lon="2.266740">
			 <ele>603</ele>
			<time>2016-06-15T02:29:45Z</time>
			</trkpt>
		
			<trkpt lat="45.861200" lon="2.266900">
			 <ele>603</ele>
			<time>2016-06-15T02:31:45Z</time>
			</trkpt>
		
			<trkpt lat="45.861360" lon="2.267130">
			 <ele>602</ele>
			<time>2016-06-15T02:33:45Z</time>
			</trkpt>
		
			<trkpt lat="45.861530" lon="2.267370">
			 <ele>600</ele>
			<time>2016-06-15T02:35:45Z</time>
			</trkpt>
		
			<trkpt lat="45.861730" lon="2.267620">
			 <ele>598</ele>
			<time>2016-06-15T02:37:45Z</time>
			</trkpt>
		
			<trkpt lat="45.861880" lon="2.267820">
			 <ele>596</ele>
			<time>2016-06-15T02:39:45Z</time>
			</trkpt>
		
			<trkpt lat="45.862160" lon="2.268130">
			 <ele>593</ele>
			<time>2016-06-15T02:41:45Z</time>
			</trkpt>
		
			<trkpt lat="45.862350" lon="2.268340">
			 <ele>592</ele>
			<time>2016-06-15T02:43:45Z</time>
			</trkpt>
		
			<trkpt lat="45.862550" lon="2.268530">
			 <ele>591</ele>
			<time>2016-06-15T02:45:45Z</time>
			</trkpt>
		
			<trkpt lat="45.862690" lon="2.268650">
			 <ele>590</ele>
			<time>2016-06-15T02:47:45Z</time>
			</trkpt>
		
			<trkpt lat="45.862800" lon="2.268720">
			 <ele>590</ele>
			<time>2016-06-15T02:49:45Z</time>
			</trkpt>
		
			<trkpt lat="45.862890" lon="2.268750">
			 <ele>590</ele>
			<time>2016-06-15T02:51:45Z</time>
			</trkpt>
		
			<trkpt lat="45.862970" lon="2.268760">
			 <ele>590</ele>
			<time>2016-06-15T02:53:45Z</time>
			</trkpt>
		
			<trkpt lat="45.863040" lon="2.268770">
			 <ele>590</ele>
			<time>2016-06-15T02:55:45Z</time>
			</trkpt>
		
			<trkpt lat="45.863140" lon="2.268760">
			 <ele>590</ele>
			<time>2016-06-15T02:57:45Z</time>
			</trkpt>
		
			<trkpt lat="45.863480" lon="2.268730">
			 <ele>590</ele>
			<time>2016-06-15T02:59:45Z</time>
			</trkpt>
		
			<trkpt lat="45.863770" lon="2.268720">
			 <ele>587</ele>
			<time>2016-06-15T03:01:45Z</time>
			</trkpt>
		
			<trkpt lat="45.863900" lon="2.268720">
			 <ele>586</ele>
			<time>2016-06-15T03:03:45Z</time>
			</trkpt>
		
			<trkpt lat="45.863980" lon="2.268750">
			 <ele>585</ele>
			<time>2016-06-15T03:05:45Z</time>
			</trkpt>
		
			<trkpt lat="45.864020" lon="2.268760">
			 <ele>584</ele>
			<time>2016-06-15T03:07:45Z</time>
			</trkpt>
		
			<trkpt lat="45.864040" lon="2.268790">
			 <ele>584</ele>
			<time>2016-06-15T03:09:45Z</time>
			</trkpt>
		
			<trkpt lat="45.864110" lon="2.268840">
			 <ele>583</ele>
			<time>2016-06-15T03:11:45Z</time>
			</trkpt>
		
			<trkpt lat="45.864190" lon="2.268920">
			 <ele>582</ele>
			<time>2016-06-15T03:13:45Z</time>
			</trkpt>
		
			<trkpt lat="45.864250" lon="2.268990">
			 <ele>582</ele>
			<time>2016-06-15T03:15:45Z</time>
			</trkpt>
		
			<trkpt lat="45.864300" lon="2.269080">
			 <ele>581</ele>
			<time>2016-06-15T03:17:45Z</time>
			</trkpt>
		
			<trkpt lat="45.864340" lon="2.269160">
			 <ele>581</ele>
			<time>2016-06-15T03:19:45Z</time>
			</trkpt>
		
			<trkpt lat="45.864370" lon="2.269240">
			 <ele>581</ele>
			<time>2016-06-15T03:21:45Z</time>
			</trkpt>
		
			<trkpt lat="45.864390" lon="2.269340">
			 <ele>581</ele>
			<time>2016-06-15T03:23:45Z</time>
			</trkpt>
		
			<trkpt lat="45.864400" lon="2.269430">
			 <ele>581</ele>
			<time>2016-06-15T03:25:45Z</time>
			</trkpt>
		
			<trkpt lat="45.864410" lon="2.269530">
			 <ele>581</ele>
			<time>2016-06-15T03:27:45Z</time>
			</trkpt>
		
			<trkpt lat="45.864410" lon="2.269620">
			 <ele>581</ele>
			<time>2016-06-15T03:29:45Z</time>
			</trkpt>
		
			<trkpt lat="45.864400" lon="2.269730">
			 <ele>581</ele>
			<time>2016-06-15T03:31:45Z</time>
			</trkpt>
		
			<trkpt lat="45.864350" lon="2.270110">
			 <ele>581</ele>
			<time>2016-06-15T03:33:45Z</time>
			</trkpt>
		
			<trkpt lat="45.864330" lon="2.270310">
			 <ele>582</ele>
			<time>2016-06-15T03:35:45Z</time>
			</trkpt>
		
			<trkpt lat="45.864300" lon="2.270520">
			 <ele>583</ele>
			<time>2016-06-15T03:37:45Z</time>
			</trkpt>
		
			<trkpt lat="45.864290" lon="2.270820">
			 <ele>585</ele>
			<time>2016-06-15T03:39:45Z</time>
			</trkpt>
		
			<trkpt lat="45.864290" lon="2.271000">
			 <ele>586</ele>
			<time>2016-06-15T03:41:45Z</time>
			</trkpt>
		
			<trkpt lat="45.864290" lon="2.271140">
			 <ele>587</ele>
			<time>2016-06-15T03:43:45Z</time>
			</trkpt>
		
			<trkpt lat="45.864320" lon="2.271430">
			 <ele>589</ele>
			<time>2016-06-15T03:45:45Z</time>
			</trkpt>
		
			<trkpt lat="45.864320" lon="2.271600">
			 <ele>591</ele>
			<time>2016-06-15T03:47:45Z</time>
			</trkpt>
		
			<trkpt lat="45.864320" lon="2.271600">
			 <ele>591</ele>
			<time>2016-06-15T03:49:45Z</time>
			</trkpt>
		
			<trkpt lat="45.864320" lon="2.271660">
			 <ele>591</ele>
			<time>2016-06-15T03:51:45Z</time>
			</trkpt>
		
			<trkpt lat="45.864320" lon="2.271730">
			 <ele>591</ele>
			<time>2016-06-15T03:53:45Z</time>
			</trkpt>
		
			<trkpt lat="45.864380" lon="2.271730">
			 <ele>591</ele>
			<time>2016-06-15T03:55:45Z</time>
			</trkpt>
		
			<trkpt lat="45.864440" lon="2.271720">
			 <ele>591</ele>
			<time>2016-06-15T03:57:45Z</time>
			</trkpt>
		
			<trkpt lat="45.864450" lon="2.271750">
			 <ele>591</ele>
			<time>2016-06-15T03:59:45Z</time>
			</trkpt>
		
			<trkpt lat="45.864460" lon="2.271770">
			 <ele>592</ele>
			<time>2016-06-15T04:01:45Z</time>
			</trkpt>
		
			<trkpt lat="45.864470" lon="2.271780">
			 <ele>592</ele>
			<time>2016-06-15T04:03:45Z</time>
			</trkpt>
		
			<trkpt lat="45.864490" lon="2.271800">
			 <ele>592</ele>
			<time>2016-06-15T04:05:45Z</time>
			</trkpt>
		
			<trkpt lat="45.864560" lon="2.271770">
			 <ele>592</ele>
			<time>2016-06-15T04:07:45Z</time>
			</trkpt>
		
			<trkpt lat="45.864610" lon="2.271740">
			 <ele>591</ele>
			<time>2016-06-15T04:09:45Z</time>
			</trkpt>
		
			<trkpt lat="45.864670" lon="2.271680">
			 <ele>591</ele>
			<time>2016-06-15T04:11:45Z</time>
			</trkpt>
		
			<trkpt lat="45.864750" lon="2.271600">
			 <ele>591</ele>
			<time>2016-06-15T04:13:45Z</time>
			</trkpt>
		
			<trkpt lat="45.864830" lon="2.271480">
			 <ele>590</ele>
			<time>2016-06-15T04:15:45Z</time>
			</trkpt>
		
			<trkpt lat="45.864900" lon="2.271390">
			 <ele>589</ele>
			<time>2016-06-15T04:17:45Z</time>
			</trkpt>
		
			<trkpt lat="45.864960" lon="2.271320">
			 <ele>589</ele>
			<time>2016-06-15T04:19:45Z</time>
			</trkpt>
		
			<trkpt lat="45.865020" lon="2.271270">
			 <ele>588</ele>
			<time>2016-06-15T04:21:45Z</time>
			</trkpt>
		
			<trkpt lat="45.865090" lon="2.271220">
			 <ele>588</ele>
			<time>2016-06-15T04:23:45Z</time>
			</trkpt>
		
			<trkpt lat="45.865210" lon="2.271170">
			 <ele>588</ele>
			<time>2016-06-15T04:25:45Z</time>
			</trkpt>
		
			<trkpt lat="45.865600" lon="2.270980">
			 <ele>587</ele>
			<time>2016-06-15T04:27:45Z</time>
			</trkpt>
		
			<trkpt lat="45.865740" lon="2.270890">
			 <ele>586</ele>
			<time>2016-06-15T04:29:45Z</time>
			</trkpt>
		
			<trkpt lat="45.865770" lon="2.270870">
			 <ele>586</ele>
			<time>2016-06-15T04:31:45Z</time>
			</trkpt>
		
			<trkpt lat="45.865830" lon="2.270800">
			 <ele>586</ele>
			<time>2016-06-15T04:33:45Z</time>
			</trkpt>
		
			<trkpt lat="45.865900" lon="2.270720">
			 <ele>587</ele>
			<time>2016-06-15T04:35:45Z</time>
			</trkpt>
		
			<trkpt lat="45.865960" lon="2.270640">
			 <ele>587</ele>
			<time>2016-06-15T04:37:45Z</time>
			</trkpt>
		
			<trkpt lat="45.866010" lon="2.270530">
			 <ele>587</ele>
			<time>2016-06-15T04:39:45Z</time>
			</trkpt>
		
			<trkpt lat="45.866070" lon="2.270390">
			 <ele>588</ele>
			<time>2016-06-15T04:41:45Z</time>
			</trkpt>
		
			<trkpt lat="45.866110" lon="2.270280">
			 <ele>588</ele>
			<time>2016-06-15T04:43:45Z</time>
			</trkpt>
		
			<trkpt lat="45.866140" lon="2.270200">
			 <ele>588</ele>
			<time>2016-06-15T04:45:45Z</time>
			</trkpt>
		
			<trkpt lat="45.866200" lon="2.270090">
			 <ele>588</ele>
			<time>2016-06-15T04:47:45Z</time>
			</trkpt>
		
			<trkpt lat="45.866280" lon="2.269940">
			 <ele>589</ele>
			<time>2016-06-15T04:49:45Z</time>
			</trkpt>
		
			<trkpt lat="45.866340" lon="2.269850">
			 <ele>589</ele>
			<time>2016-06-15T04:51:45Z</time>
			</trkpt>
		
			<trkpt lat="45.866450" lon="2.269710">
			 <ele>589</ele>
			<time>2016-06-15T04:53:45Z</time>
			</trkpt>
		
			<trkpt lat="45.866660" lon="2.269430">
			 <ele>588</ele>
			<time>2016-06-15T04:55:45Z</time>
			</trkpt>
		
			<trkpt lat="45.866860" lon="2.269150">
			 <ele>585</ele>
			<time>2016-06-15T04:57:45Z</time>
			</trkpt>
		
			<trkpt lat="45.867100" lon="2.268810">
			 <ele>584</ele>
			<time>2016-06-15T04:59:45Z</time>
			</trkpt>
		
			<trkpt lat="45.867170" lon="2.268720">
			 <ele>584</ele>
			<time>2016-06-15T05:01:45Z</time>
			</trkpt>
		
			<trkpt lat="45.867260" lon="2.268620">
			 <ele>584</ele>
			<time>2016-06-15T05:03:45Z</time>
			</trkpt>
		
			<trkpt lat="45.867400" lon="2.268490">
			 <ele>584</ele>
			<time>2016-06-15T05:05:45Z</time>
			</trkpt>
		
			<trkpt lat="45.867630" lon="2.268320">
			 <ele>583</ele>
			<time>2016-06-15T05:07:45Z</time>
			</trkpt>
		
			<trkpt lat="45.867970" lon="2.268130">
			 <ele>583</ele>
			<time>2016-06-15T05:09:45Z</time>
			</trkpt>
		
			<trkpt lat="45.868260" lon="2.267960">
			 <ele>582</ele>
			<time>2016-06-15T05:11:45Z</time>
			</trkpt>
		
			<trkpt lat="45.868400" lon="2.267840">
			 <ele>583</ele>
			<time>2016-06-15T05:13:45Z</time>
			</trkpt>
		
			<trkpt lat="45.868460" lon="2.267770">
			 <ele>583</ele>
			<time>2016-06-15T05:15:45Z</time>
			</trkpt>
		
			<trkpt lat="45.868470" lon="2.267750">
			 <ele>583</ele>
			<time>2016-06-15T05:17:45Z</time>
			</trkpt>
		
			<trkpt lat="45.868490" lon="2.267730">
			 <ele>583</ele>
			<time>2016-06-15T05:19:45Z</time>
			</trkpt>
		
			<trkpt lat="45.868520" lon="2.267680">
			 <ele>584</ele>
			<time>2016-06-15T05:21:45Z</time>
			</trkpt>
		
			<trkpt lat="45.868530" lon="2.267640">
			 <ele>584</ele>
			<time>2016-06-15T05:23:45Z</time>
			</trkpt>
		
			<trkpt lat="45.868550" lon="2.267590">
			 <ele>584</ele>
			<time>2016-06-15T05:25:45Z</time>
			</trkpt>
		
			<trkpt lat="45.868560" lon="2.267510">
			 <ele>584</ele>
			<time>2016-06-15T05:27:45Z</time>
			</trkpt>
		
			<trkpt lat="45.868560" lon="2.267430">
			 <ele>584</ele>
			<time>2016-06-15T05:29:45Z</time>
			</trkpt>
		
			<trkpt lat="45.868560" lon="2.267300">
			 <ele>585</ele>
			<time>2016-06-15T05:31:45Z</time>
			</trkpt>
		
			<trkpt lat="45.868540" lon="2.267190">
			 <ele>585</ele>
			<time>2016-06-15T05:33:45Z</time>
			</trkpt>
		
			<trkpt lat="45.868500" lon="2.267090">
			 <ele>585</ele>
			<time>2016-06-15T05:35:45Z</time>
			</trkpt>
		
			<trkpt lat="45.868390" lon="2.266820">
			 <ele>584</ele>
			<time>2016-06-15T05:37:45Z</time>
			</trkpt>
		
			<trkpt lat="45.868320" lon="2.266660">
			 <ele>583</ele>
			<time>2016-06-15T05:39:45Z</time>
			</trkpt>
		
			<trkpt lat="45.868280" lon="2.266540">
			 <ele>583</ele>
			<time>2016-06-15T05:41:45Z</time>
			</trkpt>
		
			<trkpt lat="45.868260" lon="2.266440">
			 <ele>583</ele>
			<time>2016-06-15T05:43:45Z</time>
			</trkpt>
		
			<trkpt lat="45.868260" lon="2.266360">
			 <ele>583</ele>
			<time>2016-06-15T05:45:45Z</time>
			</trkpt>
		
			<trkpt lat="45.868270" lon="2.266280">
			 <ele>583</ele>
			<time>2016-06-15T05:47:45Z</time>
			</trkpt>
		
			<trkpt lat="45.868280" lon="2.266190">
			 <ele>583</ele>
			<time>2016-06-15T05:49:45Z</time>
			</trkpt>
		
			<trkpt lat="45.868310" lon="2.266110">
			 <ele>583</ele>
			<time>2016-06-15T05:51:45Z</time>
			</trkpt>
		
			<trkpt lat="45.868370" lon="2.265980">
			 <ele>583</ele>
			<time>2016-06-15T05:53:45Z</time>
			</trkpt>
		
			<trkpt lat="45.868500" lon="2.265750">
			 <ele>585</ele>
			<time>2016-06-15T05:55:45Z</time>
			</trkpt>
		
			<trkpt lat="45.868650" lon="2.265480">
			 <ele>585</ele>
			<time>2016-06-15T05:57:45Z</time>
			</trkpt>
		
			<trkpt lat="45.868790" lon="2.265220">
			 <ele>584</ele>
			<time>2016-06-15T05:59:45Z</time>
			</trkpt>
		
			<trkpt lat="45.868910" lon="2.265000">
			 <ele>583</ele>
			<time>2016-06-15T06:01:45Z</time>
			</trkpt>
		
			<trkpt lat="45.869010" lon="2.264870">
			 <ele>583</ele>
			<time>2016-06-15T06:03:45Z</time>
			</trkpt>
		
			<trkpt lat="45.869140" lon="2.264730">
			 <ele>582</ele>
			<time>2016-06-15T06:05:45Z</time>
			</trkpt>
		
			<trkpt lat="45.869320" lon="2.264560">
			 <ele>582</ele>
			<time>2016-06-15T06:07:45Z</time>
			</trkpt>
		
			<trkpt lat="45.869390" lon="2.264500">
			 <ele>583</ele>
			<time>2016-06-15T06:09:45Z</time>
			</trkpt>
		
			<trkpt lat="45.869510" lon="2.264400">
			 <ele>583</ele>
			<time>2016-06-15T06:11:45Z</time>
			</trkpt>
		
			<trkpt lat="45.869690" lon="2.264220">
			 <ele>583</ele>
			<time>2016-06-15T06:13:45Z</time>
			</trkpt>
		
			<trkpt lat="45.869780" lon="2.264130">
			 <ele>583</ele>
			<time>2016-06-15T06:15:45Z</time>
			</trkpt>
		
			<trkpt lat="45.869860" lon="2.264010">
			 <ele>583</ele>
			<time>2016-06-15T06:17:45Z</time>
			</trkpt>
		
			<trkpt lat="45.869930" lon="2.263890">
			 <ele>583</ele>
			<time>2016-06-15T06:19:45Z</time>
			</trkpt>
		
			<trkpt lat="45.869990" lon="2.263760">
			 <ele>583</ele>
			<time>2016-06-15T06:21:45Z</time>
			</trkpt>
		
			<trkpt lat="45.870060" lon="2.263560">
			 <ele>583</ele>
			<time>2016-06-15T06:23:45Z</time>
			</trkpt>
		
			<trkpt lat="45.870160" lon="2.263310">
			 <ele>584</ele>
			<time>2016-06-15T06:25:45Z</time>
			</trkpt>
		
			<trkpt lat="45.870230" lon="2.263120">
			 <ele>584</ele>
			<time>2016-06-15T06:27:45Z</time>
			</trkpt>
		
			<trkpt lat="45.870310" lon="2.262950">
			 <ele>585</ele>
			<time>2016-06-15T06:29:45Z</time>
			</trkpt>
		
			<trkpt lat="45.870400" lon="2.262810">
			 <ele>585</ele>
			<time>2016-06-15T06:31:45Z</time>
			</trkpt>
		
			<trkpt lat="45.870510" lon="2.262670">
			 <ele>585</ele>
			<time>2016-06-15T06:33:45Z</time>
			</trkpt>
		
			<trkpt lat="45.870670" lon="2.262520">
			 <ele>585</ele>
			<time>2016-06-15T06:35:45Z</time>
			</trkpt>
		
			<trkpt lat="45.870720" lon="2.262480">
			 <ele>585</ele>
			<time>2016-06-15T06:37:45Z</time>
			</trkpt>
		
			<trkpt lat="45.870910" lon="2.262340">
			 <ele>586</ele>
			<time>2016-06-15T06:39:45Z</time>
			</trkpt>
		
			<trkpt lat="45.871160" lon="2.262170">
			 <ele>587</ele>
			<time>2016-06-15T06:41:45Z</time>
			</trkpt>
		
			<trkpt lat="45.871470" lon="2.261950">
			 <ele>586</ele>
			<time>2016-06-15T06:43:45Z</time>
			</trkpt>
		
			<trkpt lat="45.871780" lon="2.261730">
			 <ele>584</ele>
			<time>2016-06-15T06:45:45Z</time>
			</trkpt>
		
			<trkpt lat="45.872090" lon="2.261510">
			 <ele>584</ele>
			<time>2016-06-15T06:47:45Z</time>
			</trkpt>
		
			<trkpt lat="45.872130" lon="2.261480">
			 <ele>584</ele>
			<time>2016-06-15T06:49:45Z</time>
			</trkpt>
		
			<trkpt lat="45.872320" lon="2.261340">
			 <ele>584</ele>
			<time>2016-06-15T06:51:45Z</time>
			</trkpt>
		
			<trkpt lat="45.872460" lon="2.261230">
			 <ele>583</ele>
			<time>2016-06-15T06:53:45Z</time>
			</trkpt>
		
			<trkpt lat="45.872530" lon="2.261160">
			 <ele>583</ele>
			<time>2016-06-15T06:55:45Z</time>
			</trkpt>
		
			<trkpt lat="45.872610" lon="2.261050">
			 <ele>583</ele>
			<time>2016-06-15T06:57:45Z</time>
			</trkpt>
		
			<trkpt lat="45.872680" lon="2.260940">
			 <ele>582</ele>
			<time>2016-06-15T06:59:45Z</time>
			</trkpt>
		
			<trkpt lat="45.872740" lon="2.260820">
			 <ele>582</ele>
			<time>2016-06-15T07:01:45Z</time>
			</trkpt>
		
			<trkpt lat="45.872800" lon="2.260670">
			 <ele>581</ele>
			<time>2016-06-15T07:03:45Z</time>
			</trkpt>
		
			<trkpt lat="45.872890" lon="2.260440">
			 <ele>581</ele>
			<time>2016-06-15T07:05:45Z</time>
			</trkpt>
		
			<trkpt lat="45.873020" lon="2.260110">
			 <ele>580</ele>
			<time>2016-06-15T07:07:45Z</time>
			</trkpt>
		
			<trkpt lat="45.873090" lon="2.259930">
			 <ele>580</ele>
			<time>2016-06-15T07:09:45Z</time>
			</trkpt>
		
			<trkpt lat="45.873200" lon="2.259660">
			 <ele>579</ele>
			<time>2016-06-15T07:11:45Z</time>
			</trkpt>
		
			<trkpt lat="45.873280" lon="2.259480">
			 <ele>578</ele>
			<time>2016-06-15T07:13:45Z</time>
			</trkpt>
		
			<trkpt lat="45.873340" lon="2.259390">
			 <ele>578</ele>
			<time>2016-06-15T07:15:45Z</time>
			</trkpt>
		
			<trkpt lat="45.873430" lon="2.259280">
			 <ele>578</ele>
			<time>2016-06-15T07:17:45Z</time>
			</trkpt>
		
			<trkpt lat="45.873510" lon="2.259220">
			 <ele>578</ele>
			<time>2016-06-15T07:19:45Z</time>
			</trkpt>
		
			<trkpt lat="45.873580" lon="2.259180">
			 <ele>578</ele>
			<time>2016-06-15T07:21:45Z</time>
			</trkpt>
		
			<trkpt lat="45.873680" lon="2.259140">
			 <ele>579</ele>
			<time>2016-06-15T07:23:45Z</time>
			</trkpt>
		
			<trkpt lat="45.873860" lon="2.259100">
			 <ele>579</ele>
			<time>2016-06-15T07:25:45Z</time>
			</trkpt>
		
			<trkpt lat="45.874050" lon="2.259060">
			 <ele>580</ele>
			<time>2016-06-15T07:27:45Z</time>
			</trkpt>
		
			<trkpt lat="45.874340" lon="2.259020">
			 <ele>582</ele>
			<time>2016-06-15T07:29:45Z</time>
			</trkpt>
		
			<trkpt lat="45.874600" lon="2.258990">
			 <ele>584</ele>
			<time>2016-06-15T07:31:45Z</time>
			</trkpt>
		
			<trkpt lat="45.874680" lon="2.258970">
			 <ele>584</ele>
			<time>2016-06-15T07:33:45Z</time>
			</trkpt>
		
			<trkpt lat="45.874780" lon="2.258940">
			 <ele>585</ele>
			<time>2016-06-15T07:35:45Z</time>
			</trkpt>
		
			<trkpt lat="45.874850" lon="2.258900">
			 <ele>585</ele>
			<time>2016-06-15T07:37:45Z</time>
			</trkpt>
		
			<trkpt lat="45.874900" lon="2.258850">
			 <ele>585</ele>
			<time>2016-06-15T07:39:45Z</time>
			</trkpt>
		
			<trkpt lat="45.874940" lon="2.258810">
			 <ele>584</ele>
			<time>2016-06-15T07:41:45Z</time>
			</trkpt>
		
			<trkpt lat="45.874960" lon="2.258770">
			 <ele>584</ele>
			<time>2016-06-15T07:43:45Z</time>
			</trkpt>
		
			<trkpt lat="45.874980" lon="2.258750">
			 <ele>584</ele>
			<time>2016-06-15T07:45:45Z</time>
			</trkpt>
		
			<trkpt lat="45.875000" lon="2.258720">
			 <ele>584</ele>
			<time>2016-06-15T07:47:45Z</time>
			</trkpt>
		
			<trkpt lat="45.875020" lon="2.258660">
			 <ele>583</ele>
			<time>2016-06-15T07:49:45Z</time>
			</trkpt>
		
			<trkpt lat="45.875040" lon="2.258590">
			 <ele>583</ele>
			<time>2016-06-15T07:51:45Z</time>
			</trkpt>
		
			<trkpt lat="45.875060" lon="2.258520">
			 <ele>582</ele>
			<time>2016-06-15T07:53:45Z</time>
			</trkpt>
		
			<trkpt lat="45.875070" lon="2.258470">
			 <ele>581</ele>
			<time>2016-06-15T07:55:45Z</time>
			</trkpt>
		
			<trkpt lat="45.875080" lon="2.258360">
			 <ele>580</ele>
			<time>2016-06-15T07:57:45Z</time>
			</trkpt>
		
			<trkpt lat="45.875080" lon="2.258300">
			 <ele>580</ele>
			<time>2016-06-15T07:59:45Z</time>
			</trkpt>
		
			<trkpt lat="45.875080" lon="2.258240">
			 <ele>579</ele>
			<time>2016-06-15T08:01:45Z</time>
			</trkpt>
		
			<trkpt lat="45.875050" lon="2.258030">
			 <ele>579</ele>
			<time>2016-06-15T08:03:45Z</time>
			</trkpt>
		
			<trkpt lat="45.874980" lon="2.257700">
			 <ele>577</ele>
			<time>2016-06-15T08:05:45Z</time>
			</trkpt>
		
			<trkpt lat="45.874940" lon="2.257430">
			 <ele>577</ele>
			<time>2016-06-15T08:07:45Z</time>
			</trkpt>
		
			<trkpt lat="45.874930" lon="2.257360">
			 <ele>577</ele>
			<time>2016-06-15T08:09:45Z</time>
			</trkpt>
		
			<trkpt lat="45.874920" lon="2.257290">
			 <ele>578</ele>
			<time>2016-06-15T08:11:45Z</time>
			</trkpt>
		
			<trkpt lat="45.874920" lon="2.257240">
			 <ele>578</ele>
			<time>2016-06-15T08:13:45Z</time>
			</trkpt>
		
			<trkpt lat="45.874920" lon="2.257170">
			 <ele>578</ele>
			<time>2016-06-15T08:15:45Z</time>
			</trkpt>
		
			<trkpt lat="45.874940" lon="2.257070">
			 <ele>578</ele>
			<time>2016-06-15T08:17:45Z</time>
			</trkpt>
		
			<trkpt lat="45.874970" lon="2.256970">
			 <ele>578</ele>
			<time>2016-06-15T08:19:45Z</time>
			</trkpt>
		
			<trkpt lat="45.874990" lon="2.256920">
			 <ele>578</ele>
			<time>2016-06-15T08:21:45Z</time>
			</trkpt>
		
			<trkpt lat="45.875020" lon="2.256880">
			 <ele>579</ele>
			<time>2016-06-15T08:23:45Z</time>
			</trkpt>
		
			<trkpt lat="45.875060" lon="2.256830">
			 <ele>579</ele>
			<time>2016-06-15T08:25:45Z</time>
			</trkpt>
		
			<trkpt lat="45.875100" lon="2.256790">
			 <ele>579</ele>
			<time>2016-06-15T08:27:45Z</time>
			</trkpt>
		
			<trkpt lat="45.875140" lon="2.256740">
			 <ele>579</ele>
			<time>2016-06-15T08:29:45Z</time>
			</trkpt>
		
			<trkpt lat="45.875180" lon="2.256720">
			 <ele>579</ele>
			<time>2016-06-15T08:31:45Z</time>
			</trkpt>
		
			<trkpt lat="45.875220" lon="2.256700">
			 <ele>579</ele>
			<time>2016-06-15T08:33:45Z</time>
			</trkpt>
		
			<trkpt lat="45.875290" lon="2.256670">
			 <ele>579</ele>
			<time>2016-06-15T08:35:45Z</time>
			</trkpt>
		
			<trkpt lat="45.875390" lon="2.256650">
			 <ele>580</ele>
			<time>2016-06-15T08:37:45Z</time>
			</trkpt>
		
			<trkpt lat="45.875470" lon="2.256640">
			 <ele>580</ele>
			<time>2016-06-15T08:39:45Z</time>
			</trkpt>
		
			<trkpt lat="45.875590" lon="2.256620">
			 <ele>580</ele>
			<time>2016-06-15T08:41:45Z</time>
			</trkpt>
		
			<trkpt lat="45.875710" lon="2.256610">
			 <ele>580</ele>
			<time>2016-06-15T08:43:45Z</time>
			</trkpt>
		
			<trkpt lat="45.875810" lon="2.256580">
			 <ele>580</ele>
			<time>2016-06-15T08:45:45Z</time>
			</trkpt>
		
			<trkpt lat="45.875900" lon="2.256550">
			 <ele>581</ele>
			<time>2016-06-15T08:47:45Z</time>
			</trkpt>
		
			<trkpt lat="45.876080" lon="2.256480">
			 <ele>581</ele>
			<time>2016-06-15T08:49:45Z</time>
			</trkpt>
		
			<trkpt lat="45.876240" lon="2.256410">
			 <ele>582</ele>
			<time>2016-06-15T08:51:45Z</time>
			</trkpt>
		
			<trkpt lat="45.876420" lon="2.256330">
			 <ele>582</ele>
			<time>2016-06-15T08:53:45Z</time>
			</trkpt>
		
			<trkpt lat="45.876520" lon="2.256280">
			 <ele>583</ele>
			<time>2016-06-15T08:55:45Z</time>
			</trkpt>
		
			<trkpt lat="45.876560" lon="2.256260">
			 <ele>583</ele>
			<time>2016-06-15T08:57:45Z</time>
			</trkpt>
		
			<trkpt lat="45.876650" lon="2.256230">
			 <ele>583</ele>
			<time>2016-06-15T08:59:45Z</time>
			</trkpt>
		
			<trkpt lat="45.876740" lon="2.256190">
			 <ele>584</ele>
			<time>2016-06-15T09:01:45Z</time>
			</trkpt>
		
			<trkpt lat="45.876810" lon="2.256170">
			 <ele>584</ele>
			<time>2016-06-15T09:03:45Z</time>
			</trkpt>
		
			<trkpt lat="45.876900" lon="2.256160">
			 <ele>584</ele>
			<time>2016-06-15T09:05:45Z</time>
			</trkpt>
		
			<trkpt lat="45.877000" lon="2.256160">
			 <ele>585</ele>
			<time>2016-06-15T09:07:45Z</time>
			</trkpt>
		
			<trkpt lat="45.877100" lon="2.256180">
			 <ele>585</ele>
			<time>2016-06-15T09:09:45Z</time>
			</trkpt>
		
			<trkpt lat="45.877240" lon="2.256220">
			 <ele>585</ele>
			<time>2016-06-15T09:11:45Z</time>
			</trkpt>
		
			<trkpt lat="45.877260" lon="2.256230">
			 <ele>585</ele>
			<time>2016-06-15T09:13:45Z</time>
			</trkpt>
		
			<trkpt lat="45.877480" lon="2.256300">
			 <ele>585</ele>
			<time>2016-06-15T09:15:45Z</time>
			</trkpt>
		
			<trkpt lat="45.877610" lon="2.256340">
			 <ele>585</ele>
			<time>2016-06-15T09:17:45Z</time>
			</trkpt>
		
			<trkpt lat="45.877760" lon="2.256420">
			 <ele>585</ele>
			<time>2016-06-15T09:19:45Z</time>
			</trkpt>
		
			<trkpt lat="45.877830" lon="2.256470">
			 <ele>585</ele>
			<time>2016-06-15T09:21:45Z</time>
			</trkpt>
		
			<trkpt lat="45.877880" lon="2.256510">
			 <ele>585</ele>
			<time>2016-06-15T09:23:45Z</time>
			</trkpt>
		
			<trkpt lat="45.877900" lon="2.256520">
			 <ele>585</ele>
			<time>2016-06-15T09:25:45Z</time>
			</trkpt>
		
			<trkpt lat="45.877980" lon="2.256630">
			 <ele>584</ele>
			<time>2016-06-15T09:27:45Z</time>
			</trkpt>
		
			<trkpt lat="45.878080" lon="2.256770">
			 <ele>584</ele>
			<time>2016-06-15T09:29:45Z</time>
			</trkpt>
		
			<trkpt lat="45.878170" lon="2.256860">
			 <ele>585</ele>
			<time>2016-06-15T09:31:45Z</time>
			</trkpt>
		
			<trkpt lat="45.878270" lon="2.256920">
			 <ele>585</ele>
			<time>2016-06-15T09:33:45Z</time>
			</trkpt>
		
			<trkpt lat="45.878340" lon="2.256930">
			 <ele>586</ele>
			<time>2016-06-15T09:35:45Z</time>
			</trkpt>
		
			<trkpt lat="45.878410" lon="2.256920">
			 <ele>586</ele>
			<time>2016-06-15T09:37:45Z</time>
			</trkpt>
		
			<trkpt lat="45.878500" lon="2.256900">
			 <ele>586</ele>
			<time>2016-06-15T09:39:45Z</time>
			</trkpt>
		
			<trkpt lat="45.878620" lon="2.256830">
			 <ele>586</ele>
			<time>2016-06-15T09:41:45Z</time>
			</trkpt>
		
			<trkpt lat="45.878780" lon="2.256710">
			 <ele>586</ele>
			<time>2016-06-15T09:43:45Z</time>
			</trkpt>
		
			<trkpt lat="45.878960" lon="2.256580">
			 <ele>586</ele>
			<time>2016-06-15T09:45:45Z</time>
			</trkpt>
		
			<trkpt lat="45.879100" lon="2.256460">
			 <ele>586</ele>
			<time>2016-06-15T09:47:45Z</time>
			</trkpt>
		
			<trkpt lat="45.879230" lon="2.256340">
			 <ele>586</ele>
			<time>2016-06-15T09:49:45Z</time>
			</trkpt>
		
			<trkpt lat="45.879300" lon="2.256250">
			 <ele>586</ele>
			<time>2016-06-15T09:51:45Z</time>
			</trkpt>
		
			<trkpt lat="45.879370" lon="2.256150">
			 <ele>586</ele>
			<time>2016-06-15T09:53:45Z</time>
			</trkpt>
		
			<trkpt lat="45.879480" lon="2.255980">
			 <ele>585</ele>
			<time>2016-06-15T09:55:45Z</time>
			</trkpt>
		
			<trkpt lat="45.879540" lon="2.255890">
			 <ele>584</ele>
			<time>2016-06-15T09:57:45Z</time>
			</trkpt>
		
			<trkpt lat="45.879600" lon="2.255820">
			 <ele>583</ele>
			<time>2016-06-15T09:59:45Z</time>
			</trkpt>
		
			<trkpt lat="45.879650" lon="2.255770">
			 <ele>583</ele>
			<time>2016-06-15T10:01:45Z</time>
			</trkpt>
		
			<trkpt lat="45.879720" lon="2.255700">
			 <ele>583</ele>
			<time>2016-06-15T10:03:45Z</time>
			</trkpt>
		
			<trkpt lat="45.879830" lon="2.255650">
			 <ele>582</ele>
			<time>2016-06-15T10:05:45Z</time>
			</trkpt>
		
			<trkpt lat="45.879960" lon="2.255590">
			 <ele>581</ele>
			<time>2016-06-15T10:07:45Z</time>
			</trkpt>
		
			<trkpt lat="45.880070" lon="2.255550">
			 <ele>581</ele>
			<time>2016-06-15T10:09:45Z</time>
			</trkpt>
		
			<trkpt lat="45.880130" lon="2.255520">
			 <ele>581</ele>
			<time>2016-06-15T10:11:45Z</time>
			</trkpt>
		
			<trkpt lat="45.880200" lon="2.255470">
			 <ele>581</ele>
			<time>2016-06-15T10:13:45Z</time>
			</trkpt>
		
			<trkpt lat="45.880250" lon="2.255410">
			 <ele>581</ele>
			<time>2016-06-15T10:15:45Z</time>
			</trkpt>
		
			<trkpt lat="45.880290" lon="2.255360">
			 <ele>581</ele>
			<time>2016-06-15T10:17:45Z</time>
			</trkpt>
		
			<trkpt lat="45.880330" lon="2.255260">
			 <ele>580</ele>
			<time>2016-06-15T10:19:45Z</time>
			</trkpt>
		
			<trkpt lat="45.880350" lon="2.255170">
			 <ele>580</ele>
			<time>2016-06-15T10:21:45Z</time>
			</trkpt>
		
			<trkpt lat="45.880360" lon="2.255050">
			 <ele>580</ele>
			<time>2016-06-15T10:23:45Z</time>
			</trkpt>
		
			<trkpt lat="45.880370" lon="2.254970">
			 <ele>580</ele>
			<time>2016-06-15T10:25:45Z</time>
			</trkpt>
		
			<trkpt lat="45.880360" lon="2.254880">
			 <ele>580</ele>
			<time>2016-06-15T10:27:45Z</time>
			</trkpt>
		
			<trkpt lat="45.880330" lon="2.254650">
			 <ele>582</ele>
			<time>2016-06-15T10:29:45Z</time>
			</trkpt>
		
			<trkpt lat="45.880310" lon="2.254440">
			 <ele>583</ele>
			<time>2016-06-15T10:31:45Z</time>
			</trkpt>
		
			<trkpt lat="45.880290" lon="2.254220">
			 <ele>584</ele>
			<time>2016-06-15T10:33:45Z</time>
			</trkpt>
		
			<trkpt lat="45.880280" lon="2.254060">
			 <ele>585</ele>
			<time>2016-06-15T10:35:45Z</time>
			</trkpt>
		
			<trkpt lat="45.880290" lon="2.253960">
			 <ele>585</ele>
			<time>2016-06-15T10:37:45Z</time>
			</trkpt>
		
			<trkpt lat="45.880320" lon="2.253770">
			 <ele>585</ele>
			<time>2016-06-15T10:39:45Z</time>
			</trkpt>
		
			<trkpt lat="45.880380" lon="2.253600">
			 <ele>585</ele>
			<time>2016-06-15T10:41:45Z</time>
			</trkpt>
		
			<trkpt lat="45.880460" lon="2.253470">
			 <ele>585</ele>
			<time>2016-06-15T10:43:45Z</time>
			</trkpt>
		
			<trkpt lat="45.880680" lon="2.253230">
			 <ele>583</ele>
			<time>2016-06-15T10:45:45Z</time>
			</trkpt>
		
			<trkpt lat="45.880930" lon="2.253000">
			 <ele>583</ele>
			<time>2016-06-15T10:47:45Z</time>
			</trkpt>
		
			<trkpt lat="45.881100" lon="2.252840">
			 <ele>585</ele>
			<time>2016-06-15T10:49:45Z</time>
			</trkpt>
		
			<trkpt lat="45.881260" lon="2.252730">
			 <ele>586</ele>
			<time>2016-06-15T10:51:45Z</time>
			</trkpt>
		
			<trkpt lat="45.881350" lon="2.252680">
			 <ele>586</ele>
			<time>2016-06-15T10:53:45Z</time>
			</trkpt>
		
			<trkpt lat="45.881440" lon="2.252640">
			 <ele>586</ele>
			<time>2016-06-15T10:55:45Z</time>
			</trkpt>
		
			<trkpt lat="45.881560" lon="2.252610">
			 <ele>586</ele>
			<time>2016-06-15T10:57:45Z</time>
			</trkpt>
		
			<trkpt lat="45.881660" lon="2.252600">
			 <ele>586</ele>
			<time>2016-06-15T10:59:45Z</time>
			</trkpt>
		
			<trkpt lat="45.881710" lon="2.252610">
			 <ele>585</ele>
			<time>2016-06-15T11:01:45Z</time>
			</trkpt>
		
			<trkpt lat="45.881770" lon="2.252610">
			 <ele>585</ele>
			<time>2016-06-15T11:03:45Z</time>
			</trkpt>
		
			<trkpt lat="45.881880" lon="2.252640">
			 <ele>583</ele>
			<time>2016-06-15T11:05:45Z</time>
			</trkpt>
		
			<trkpt lat="45.882010" lon="2.252670">
			 <ele>582</ele>
			<time>2016-06-15T11:07:45Z</time>
			</trkpt>
		
			<trkpt lat="45.882080" lon="2.252660">
			 <ele>581</ele>
			<time>2016-06-15T11:09:45Z</time>
			</trkpt>
		
			<trkpt lat="45.882140" lon="2.252620">
			 <ele>581</ele>
			<time>2016-06-15T11:11:45Z</time>
			</trkpt>
		
			<trkpt lat="45.882270" lon="2.252520">
			 <ele>580</ele>
			<time>2016-06-15T11:13:45Z</time>
			</trkpt>
		
			<trkpt lat="45.882410" lon="2.252390">
			 <ele>578</ele>
			<time>2016-06-15T11:15:45Z</time>
			</trkpt>
		
			<trkpt lat="45.882540" lon="2.252250">
			 <ele>577</ele>
			<time>2016-06-15T11:17:45Z</time>
			</trkpt>
		
			<trkpt lat="45.882740" lon="2.252050">
			 <ele>577</ele>
			<time>2016-06-15T11:19:45Z</time>
			</trkpt>
		
			<trkpt lat="45.882890" lon="2.251900">
			 <ele>576</ele>
			<time>2016-06-15T11:21:45Z</time>
			</trkpt>
		
			<trkpt lat="45.883050" lon="2.251730">
			 <ele>576</ele>
			<time>2016-06-15T11:23:45Z</time>
			</trkpt>
		
			<trkpt lat="45.883200" lon="2.251570">
			 <ele>575</ele>
			<time>2016-06-15T11:25:45Z</time>
			</trkpt>
		
			<trkpt lat="45.883300" lon="2.251430">
			 <ele>574</ele>
			<time>2016-06-15T11:27:45Z</time>
			</trkpt>
		
			<trkpt lat="45.883370" lon="2.251330">
			 <ele>574</ele>
			<time>2016-06-15T11:29:45Z</time>
			</trkpt>
		
			<trkpt lat="45.883430" lon="2.251230">
			 <ele>574</ele>
			<time>2016-06-15T11:31:45Z</time>
			</trkpt>
		
			<trkpt lat="45.883480" lon="2.251160">
			 <ele>574</ele>
			<time>2016-06-15T11:33:45Z</time>
			</trkpt>
		
			<trkpt lat="45.883520" lon="2.251090">
			 <ele>574</ele>
			<time>2016-06-15T11:35:45Z</time>
			</trkpt>
		
			<trkpt lat="45.883540" lon="2.251070">
			 <ele>574</ele>
			<time>2016-06-15T11:37:45Z</time>
			</trkpt>
		
			<trkpt lat="45.883600" lon="2.250970">
			 <ele>574</ele>
			<time>2016-06-15T11:39:45Z</time>
			</trkpt>
		
			<trkpt lat="45.883730" lon="2.250760">
			 <ele>574</ele>
			<time>2016-06-15T11:41:45Z</time>
			</trkpt>
		
			<trkpt lat="45.883870" lon="2.250540">
			 <ele>576</ele>
			<time>2016-06-15T11:43:45Z</time>
			</trkpt>
		
			<trkpt lat="45.883950" lon="2.250440">
			 <ele>576</ele>
			<time>2016-06-15T11:45:45Z</time>
			</trkpt>
		
			<trkpt lat="45.884030" lon="2.250350">
			 <ele>577</ele>
			<time>2016-06-15T11:47:45Z</time>
			</trkpt>
		
			<trkpt lat="45.884090" lon="2.250290">
			 <ele>578</ele>
			<time>2016-06-15T11:49:45Z</time>
			</trkpt>
		
			<trkpt lat="45.884170" lon="2.250240">
			 <ele>579</ele>
			<time>2016-06-15T11:51:45Z</time>
			</trkpt>
		
			<trkpt lat="45.884290" lon="2.250190">
			 <ele>580</ele>
			<time>2016-06-15T11:53:45Z</time>
			</trkpt>
		
			<trkpt lat="45.884410" lon="2.250160">
			 <ele>581</ele>
			<time>2016-06-15T11:55:45Z</time>
			</trkpt>
		
			<trkpt lat="45.884570" lon="2.250130">
			 <ele>582</ele>
			<time>2016-06-15T11:57:45Z</time>
			</trkpt>
		
			<trkpt lat="45.884750" lon="2.250090">
			 <ele>584</ele>
			<time>2016-06-15T11:59:45Z</time>
			</trkpt>
		
			<trkpt lat="45.884920" lon="2.250050">
			 <ele>585</ele>
			<time>2016-06-15T12:01:45Z</time>
			</trkpt>
		
			<trkpt lat="45.885070" lon="2.250020">
			 <ele>586</ele>
			<time>2016-06-15T12:03:45Z</time>
			</trkpt>
		
			<trkpt lat="45.885230" lon="2.250000">
			 <ele>587</ele>
			<time>2016-06-15T12:05:45Z</time>
			</trkpt>
		
			<trkpt lat="45.885380" lon="2.250000">
			 <ele>588</ele>
			<time>2016-06-15T12:07:45Z</time>
			</trkpt>
		
			<trkpt lat="45.885510" lon="2.250010">
			 <ele>588</ele>
			<time>2016-06-15T12:09:45Z</time>
			</trkpt>
		
			<trkpt lat="45.885680" lon="2.250020">
			 <ele>589</ele>
			<time>2016-06-15T12:11:45Z</time>
			</trkpt>
		
			<trkpt lat="45.885860" lon="2.250030">
			 <ele>590</ele>
			<time>2016-06-15T12:13:45Z</time>
			</trkpt>
		
			<trkpt lat="45.885990" lon="2.250010">
			 <ele>589</ele>
			<time>2016-06-15T12:15:45Z</time>
			</trkpt>
		
			<trkpt lat="45.886050" lon="2.249970">
			 <ele>589</ele>
			<time>2016-06-15T12:17:45Z</time>
			</trkpt>
		
			<trkpt lat="45.886120" lon="2.249930">
			 <ele>589</ele>
			<time>2016-06-15T12:19:45Z</time>
			</trkpt>
		
			<trkpt lat="45.886190" lon="2.249850">
			 <ele>589</ele>
			<time>2016-06-15T12:21:45Z</time>
			</trkpt>
		
			<trkpt lat="45.886230" lon="2.249790">
			 <ele>589</ele>
			<time>2016-06-15T12:23:45Z</time>
			</trkpt>
		
			<trkpt lat="45.886270" lon="2.249710">
			 <ele>590</ele>
			<time>2016-06-15T12:25:45Z</time>
			</trkpt>
		
			<trkpt lat="45.886310" lon="2.249590">
			 <ele>590</ele>
			<time>2016-06-15T12:27:45Z</time>
			</trkpt>
		
			<trkpt lat="45.886350" lon="2.249490">
			 <ele>591</ele>
			<time>2016-06-15T12:29:45Z</time>
			</trkpt>
		
			<trkpt lat="45.886410" lon="2.249360">
			 <ele>591</ele>
			<time>2016-06-15T12:31:45Z</time>
			</trkpt>
		
			<trkpt lat="45.886460" lon="2.249270">
			 <ele>591</ele>
			<time>2016-06-15T12:33:45Z</time>
			</trkpt>
		
			<trkpt lat="45.886540" lon="2.249180">
			 <ele>590</ele>
			<time>2016-06-15T12:35:45Z</time>
			</trkpt>
		
			<trkpt lat="45.886620" lon="2.249110">
			 <ele>589</ele>
			<time>2016-06-15T12:37:45Z</time>
			</trkpt>
		
			<trkpt lat="45.886700" lon="2.249030">
			 <ele>588</ele>
			<time>2016-06-15T12:39:45Z</time>
			</trkpt>
		
			<trkpt lat="45.886740" lon="2.248990">
			 <ele>588</ele>
			<time>2016-06-15T12:41:45Z</time>
			</trkpt>
		
			<trkpt lat="45.886800" lon="2.248920">
			 <ele>588</ele>
			<time>2016-06-15T12:43:45Z</time>
			</trkpt>
		
			<trkpt lat="45.886830" lon="2.248870">
			 <ele>587</ele>
			<time>2016-06-15T12:45:45Z</time>
			</trkpt>
		
			<trkpt lat="45.886870" lon="2.248790">
			 <ele>587</ele>
			<time>2016-06-15T12:47:45Z</time>
			</trkpt>
		
			<trkpt lat="45.886900" lon="2.248720">
			 <ele>587</ele>
			<time>2016-06-15T12:49:45Z</time>
			</trkpt>
		
			<trkpt lat="45.886970" lon="2.248540">
			 <ele>587</ele>
			<time>2016-06-15T12:51:45Z</time>
			</trkpt>
		
			<trkpt lat="45.887040" lon="2.248370">
			 <ele>587</ele>
			<time>2016-06-15T12:53:45Z</time>
			</trkpt>
		
			<trkpt lat="45.887120" lon="2.248230">
			 <ele>586</ele>
			<time>2016-06-15T12:55:45Z</time>
			</trkpt>
		
			<trkpt lat="45.887160" lon="2.248160">
			 <ele>585</ele>
			<time>2016-06-15T12:57:45Z</time>
			</trkpt>
		
			<trkpt lat="45.887230" lon="2.248080">
			 <ele>584</ele>
			<time>2016-06-15T12:59:45Z</time>
			</trkpt>
		
			<trkpt lat="45.887310" lon="2.248020">
			 <ele>583</ele>
			<time>2016-06-15T13:01:45Z</time>
			</trkpt>
		
			<trkpt lat="45.887380" lon="2.247970">
			 <ele>582</ele>
			<time>2016-06-15T13:03:45Z</time>
			</trkpt>
		
			<trkpt lat="45.887420" lon="2.247960">
			 <ele>582</ele>
			<time>2016-06-15T13:05:45Z</time>
			</trkpt>
		
			<trkpt lat="45.887460" lon="2.247950">
			 <ele>581</ele>
			<time>2016-06-15T13:07:45Z</time>
			</trkpt>
		
			<trkpt lat="45.887510" lon="2.247940">
			 <ele>581</ele>
			<time>2016-06-15T13:09:45Z</time>
			</trkpt>
		
			<trkpt lat="45.887580" lon="2.247940">
			 <ele>581</ele>
			<time>2016-06-15T13:11:45Z</time>
			</trkpt>
		
			<trkpt lat="45.887660" lon="2.247960">
			 <ele>581</ele>
			<time>2016-06-15T13:13:45Z</time>
			</trkpt>
		
			<trkpt lat="45.887750" lon="2.248000">
			 <ele>581</ele>
			<time>2016-06-15T13:15:45Z</time>
			</trkpt>
		
			<trkpt lat="45.887820" lon="2.248060">
			 <ele>581</ele>
			<time>2016-06-15T13:17:45Z</time>
			</trkpt>
		
			<trkpt lat="45.888110" lon="2.248370">
			 <ele>582</ele>
			<time>2016-06-15T13:19:45Z</time>
			</trkpt>
		
			<trkpt lat="45.888380" lon="2.248700">
			 <ele>581</ele>
			<time>2016-06-15T13:21:45Z</time>
			</trkpt>
		
			<trkpt lat="45.888590" lon="2.248960">
			 <ele>581</ele>
			<time>2016-06-15T13:23:45Z</time>
			</trkpt>
		
			<trkpt lat="45.888750" lon="2.249160">
			 <ele>582</ele>
			<time>2016-06-15T13:25:45Z</time>
			</trkpt>
		
			<trkpt lat="45.888890" lon="2.249310">
			 <ele>582</ele>
			<time>2016-06-15T13:27:45Z</time>
			</trkpt>
		
			<trkpt lat="45.888940" lon="2.249370">
			 <ele>582</ele>
			<time>2016-06-15T13:29:45Z</time>
			</trkpt>
		
			<trkpt lat="45.889000" lon="2.249420">
			 <ele>582</ele>
			<time>2016-06-15T13:31:45Z</time>
			</trkpt>
		
			<trkpt lat="45.889060" lon="2.249450">
			 <ele>582</ele>
			<time>2016-06-15T13:33:45Z</time>
			</trkpt>
		
			<trkpt lat="45.889130" lon="2.249470">
			 <ele>582</ele>
			<time>2016-06-15T13:35:45Z</time>
			</trkpt>
		
			<trkpt lat="45.889190" lon="2.249470">
			 <ele>582</ele>
			<time>2016-06-15T13:37:45Z</time>
			</trkpt>
		
			<trkpt lat="45.889260" lon="2.249460">
			 <ele>581</ele>
			<time>2016-06-15T13:39:45Z</time>
			</trkpt>
		
			<trkpt lat="45.889340" lon="2.249420">
			 <ele>581</ele>
			<time>2016-06-15T13:41:45Z</time>
			</trkpt>
		
			<trkpt lat="45.889400" lon="2.249360">
			 <ele>580</ele>
			<time>2016-06-15T13:43:45Z</time>
			</trkpt>
		
			<trkpt lat="45.889490" lon="2.249240">
			 <ele>580</ele>
			<time>2016-06-15T13:45:45Z</time>
			</trkpt>
		
			<trkpt lat="45.889610" lon="2.249040">
			 <ele>579</ele>
			<time>2016-06-15T13:47:45Z</time>
			</trkpt>
		
			<trkpt lat="45.889700" lon="2.248870">
			 <ele>579</ele>
			<time>2016-06-15T13:49:45Z</time>
			</trkpt>
		
			<trkpt lat="45.889830" lon="2.248640">
			 <ele>578</ele>
			<time>2016-06-15T13:51:45Z</time>
			</trkpt>
		
			<trkpt lat="45.889950" lon="2.248430">
			 <ele>578</ele>
			<time>2016-06-15T13:53:45Z</time>
			</trkpt>
		
			<trkpt lat="45.890060" lon="2.248270">
			 <ele>578</ele>
			<time>2016-06-15T13:55:45Z</time>
			</trkpt>
		
			<trkpt lat="45.890190" lon="2.248070">
			 <ele>577</ele>
			<time>2016-06-15T13:57:45Z</time>
			</trkpt>
		
			<trkpt lat="45.890300" lon="2.247930">
			 <ele>577</ele>
			<time>2016-06-15T13:59:45Z</time>
			</trkpt>
		
			<trkpt lat="45.890390" lon="2.247790">
			 <ele>577</ele>
			<time>2016-06-15T14:01:45Z</time>
			</trkpt>
		
			<trkpt lat="45.890480" lon="2.247690">
			 <ele>577</ele>
			<time>2016-06-15T14:03:45Z</time>
			</trkpt>
		
			<trkpt lat="45.890550" lon="2.247610">
			 <ele>577</ele>
			<time>2016-06-15T14:05:45Z</time>
			</trkpt>
		
			<trkpt lat="45.890600" lon="2.247570">
			 <ele>577</ele>
			<time>2016-06-15T14:07:45Z</time>
			</trkpt>
		
			<trkpt lat="45.890670" lon="2.247530">
			 <ele>576</ele>
			<time>2016-06-15T14:09:45Z</time>
			</trkpt>
		
			<trkpt lat="45.890760" lon="2.247480">
			 <ele>576</ele>
			<time>2016-06-15T14:11:45Z</time>
			</trkpt>
		
			<trkpt lat="45.890860" lon="2.247440">
			 <ele>577</ele>
			<time>2016-06-15T14:13:45Z</time>
			</trkpt>
		
			<trkpt lat="45.891360" lon="2.247350">
			 <ele>579</ele>
			<time>2016-06-15T14:15:45Z</time>
			</trkpt>
		
			<trkpt lat="45.891640" lon="2.247300">
			 <ele>580</ele>
			<time>2016-06-15T14:17:45Z</time>
			</trkpt>
		
			<trkpt lat="45.891770" lon="2.247280">
			 <ele>580</ele>
			<time>2016-06-15T14:19:45Z</time>
			</trkpt>
		
			<trkpt lat="45.891880" lon="2.247240">
			 <ele>581</ele>
			<time>2016-06-15T14:21:45Z</time>
			</trkpt>
		
			<trkpt lat="45.891990" lon="2.247200">
			 <ele>581</ele>
			<time>2016-06-15T14:23:45Z</time>
			</trkpt>
		
			<trkpt lat="45.892120" lon="2.247120">
			 <ele>582</ele>
			<time>2016-06-15T14:25:45Z</time>
			</trkpt>
		
			<trkpt lat="45.892230" lon="2.247060">
			 <ele>582</ele>
			<time>2016-06-15T14:27:45Z</time>
			</trkpt>
		
			<trkpt lat="45.892350" lon="2.247000">
			 <ele>582</ele>
			<time>2016-06-15T14:29:45Z</time>
			</trkpt>
		
			<trkpt lat="45.892430" lon="2.246970">
			 <ele>582</ele>
			<time>2016-06-15T14:31:45Z</time>
			</trkpt>
		
			<trkpt lat="45.892500" lon="2.246940">
			 <ele>582</ele>
			<time>2016-06-15T14:33:45Z</time>
			</trkpt>
		
			<trkpt lat="45.892600" lon="2.246920">
			 <ele>581</ele>
			<time>2016-06-15T14:35:45Z</time>
			</trkpt>
		
			<trkpt lat="45.892680" lon="2.246910">
			 <ele>580</ele>
			<time>2016-06-15T14:37:45Z</time>
			</trkpt>
		
			<trkpt lat="45.892790" lon="2.246880">
			 <ele>579</ele>
			<time>2016-06-15T14:39:45Z</time>
			</trkpt>
		
			<trkpt lat="45.892910" lon="2.246830">
			 <ele>578</ele>
			<time>2016-06-15T14:41:45Z</time>
			</trkpt>
		
			<trkpt lat="45.892990" lon="2.246770">
			 <ele>578</ele>
			<time>2016-06-15T14:43:45Z</time>
			</trkpt>
		
			<trkpt lat="45.893080" lon="2.246690">
			 <ele>577</ele>
			<time>2016-06-15T14:45:45Z</time>
			</trkpt>
		
			<trkpt lat="45.893180" lon="2.246580">
			 <ele>578</ele>
			<time>2016-06-15T14:47:45Z</time>
			</trkpt>
		
			<trkpt lat="45.893260" lon="2.246480">
			 <ele>579</ele>
			<time>2016-06-15T14:49:45Z</time>
			</trkpt>
		
			<trkpt lat="45.893330" lon="2.246380">
			 <ele>581</ele>
			<time>2016-06-15T14:51:45Z</time>
			</trkpt>
		
			<trkpt lat="45.893420" lon="2.246280">
			 <ele>584</ele>
			<time>2016-06-15T14:53:45Z</time>
			</trkpt>
		
			<trkpt lat="45.893470" lon="2.246240">
			 <ele>585</ele>
			<time>2016-06-15T14:55:45Z</time>
			</trkpt>
		
			<trkpt lat="45.893520" lon="2.246200">
			 <ele>586</ele>
			<time>2016-06-15T14:57:45Z</time>
			</trkpt>
		
			<trkpt lat="45.893590" lon="2.246160">
			 <ele>587</ele>
			<time>2016-06-15T14:59:45Z</time>
			</trkpt>
		
			<trkpt lat="45.893680" lon="2.246130">
			 <ele>588</ele>
			<time>2016-06-15T15:01:45Z</time>
			</trkpt>
		
			<trkpt lat="45.893770" lon="2.246110">
			 <ele>588</ele>
			<time>2016-06-15T15:03:45Z</time>
			</trkpt>
		
			<trkpt lat="45.893890" lon="2.246110">
			 <ele>588</ele>
			<time>2016-06-15T15:05:45Z</time>
			</trkpt>
		
			<trkpt lat="45.894190" lon="2.246120">
			 <ele>587</ele>
			<time>2016-06-15T15:07:45Z</time>
			</trkpt>
		
			<trkpt lat="45.894850" lon="2.246130">
			 <ele>581</ele>
			<time>2016-06-15T15:09:45Z</time>
			</trkpt>
		
			<trkpt lat="45.895650" lon="2.246140">
			 <ele>577</ele>
			<time>2016-06-15T15:11:45Z</time>
			</trkpt>
		
			<trkpt lat="45.896220" lon="2.246160">
			 <ele>575</ele>
			<time>2016-06-15T15:13:45Z</time>
			</trkpt>
		
			<trkpt lat="45.896380" lon="2.246190">
			 <ele>573</ele>
			<time>2016-06-15T15:15:45Z</time>
			</trkpt>
		
			<trkpt lat="45.896470" lon="2.246220">
			 <ele>573</ele>
			<time>2016-06-15T15:17:45Z</time>
			</trkpt>
		
			<trkpt lat="45.896600" lon="2.246280">
			 <ele>571</ele>
			<time>2016-06-15T15:19:45Z</time>
			</trkpt>
		
			<trkpt lat="45.896740" lon="2.246360">
			 <ele>570</ele>
			<time>2016-06-15T15:21:45Z</time>
			</trkpt>
		
			<trkpt lat="45.897000" lon="2.246520">
			 <ele>567</ele>
			<time>2016-06-15T15:23:45Z</time>
			</trkpt>
		
			<trkpt lat="45.897140" lon="2.246580">
			 <ele>567</ele>
			<time>2016-06-15T15:25:45Z</time>
			</trkpt>
		
			<trkpt lat="45.897250" lon="2.246620">
			 <ele>566</ele>
			<time>2016-06-15T15:27:45Z</time>
			</trkpt>
		
			<trkpt lat="45.897370" lon="2.246640">
			 <ele>566</ele>
			<time>2016-06-15T15:29:45Z</time>
			</trkpt>
		
			<trkpt lat="45.897520" lon="2.246680">
			 <ele>566</ele>
			<time>2016-06-15T15:31:45Z</time>
			</trkpt>
		
			<trkpt lat="45.897590" lon="2.246700">
			 <ele>566</ele>
			<time>2016-06-15T15:33:45Z</time>
			</trkpt>
		
			<trkpt lat="45.897590" lon="2.246700">
			 <ele>566</ele>
			<time>2016-06-15T15:35:45Z</time>
			</trkpt>
		
			<trkpt lat="45.897670" lon="2.246710">
			 <ele>565</ele>
			<time>2016-06-15T15:37:45Z</time>
			</trkpt>
		
			<trkpt lat="45.897820" lon="2.246740">
			 <ele>565</ele>
			<time>2016-06-15T15:39:45Z</time>
			</trkpt>
		
			<trkpt lat="45.897970" lon="2.246760">
			 <ele>564</ele>
			<time>2016-06-15T15:41:45Z</time>
			</trkpt>
		
			<trkpt lat="45.898110" lon="2.246760">
			 <ele>564</ele>
			<time>2016-06-15T15:43:45Z</time>
			</trkpt>
		
			<trkpt lat="45.898230" lon="2.246740">
			 <ele>564</ele>
			<time>2016-06-15T15:45:45Z</time>
			</trkpt>
		
			<trkpt lat="45.898360" lon="2.246680">
			 <ele>564</ele>
			<time>2016-06-15T15:47:45Z</time>
			</trkpt>
		
			<trkpt lat="45.898550" lon="2.246550">
			 <ele>565</ele>
			<time>2016-06-15T15:49:45Z</time>
			</trkpt>
		
			<trkpt lat="45.898750" lon="2.246360">
			 <ele>567</ele>
			<time>2016-06-15T15:51:45Z</time>
			</trkpt>
		
			<trkpt lat="45.898900" lon="2.246250">
			 <ele>569</ele>
			<time>2016-06-15T15:53:45Z</time>
			</trkpt>
		
			<trkpt lat="45.898980" lon="2.246210">
			 <ele>569</ele>
			<time>2016-06-15T15:55:45Z</time>
			</trkpt>
		
			<trkpt lat="45.899040" lon="2.246190">
			 <ele>569</ele>
			<time>2016-06-15T15:57:45Z</time>
			</trkpt>
		
			<trkpt lat="45.899130" lon="2.246190">
			 <ele>569</ele>
			<time>2016-06-15T15:59:45Z</time>
			</trkpt>
		
			<trkpt lat="45.899210" lon="2.246210">
			 <ele>570</ele>
			<time>2016-06-15T16:01:45Z</time>
			</trkpt>
		
			<trkpt lat="45.899340" lon="2.246260">
			 <ele>570</ele>
			<time>2016-06-15T16:03:45Z</time>
			</trkpt>
		
			<trkpt lat="45.899520" lon="2.246330">
			 <ele>571</ele>
			<time>2016-06-15T16:05:45Z</time>
			</trkpt>
		
			<trkpt lat="45.899750" lon="2.246390">
			 <ele>573</ele>
			<time>2016-06-15T16:07:45Z</time>
			</trkpt>
		
			<trkpt lat="45.900010" lon="2.246450">
			 <ele>575</ele>
			<time>2016-06-15T16:09:45Z</time>
			</trkpt>
		
			<trkpt lat="45.900120" lon="2.246500">
			 <ele>574</ele>
			<time>2016-06-15T16:11:45Z</time>
			</trkpt>
		
			<trkpt lat="45.900260" lon="2.246570">
			 <ele>573</ele>
			<time>2016-06-15T16:13:45Z</time>
			</trkpt>
		
			<trkpt lat="45.900520" lon="2.246710">
			 <ele>572</ele>
			<time>2016-06-15T16:15:45Z</time>
			</trkpt>
		
			<trkpt lat="45.900720" lon="2.246850">
			 <ele>570</ele>
			<time>2016-06-15T16:17:45Z</time>
			</trkpt>
		
			<trkpt lat="45.900860" lon="2.246970">
			 <ele>569</ele>
			<time>2016-06-15T16:19:45Z</time>
			</trkpt>
		
			<trkpt lat="45.900940" lon="2.247060">
			 <ele>567</ele>
			<time>2016-06-15T16:21:45Z</time>
			</trkpt>
		
			<trkpt lat="45.901010" lon="2.247130">
			 <ele>567</ele>
			<time>2016-06-15T16:23:45Z</time>
			</trkpt>
		
			<trkpt lat="45.901090" lon="2.247180">
			 <ele>566</ele>
			<time>2016-06-15T16:25:45Z</time>
			</trkpt>
		
			<trkpt lat="45.901140" lon="2.247210">
			 <ele>566</ele>
			<time>2016-06-15T16:27:45Z</time>
			</trkpt>
		
			<trkpt lat="45.901200" lon="2.247230">
			 <ele>565</ele>
			<time>2016-06-15T16:29:45Z</time>
			</trkpt>
		
			<trkpt lat="45.901270" lon="2.247230">
			 <ele>565</ele>
			<time>2016-06-15T16:31:45Z</time>
			</trkpt>
		
			<trkpt lat="45.901340" lon="2.247230">
			 <ele>565</ele>
			<time>2016-06-15T16:33:45Z</time>
			</trkpt>
		
			<trkpt lat="45.901450" lon="2.247210">
			 <ele>566</ele>
			<time>2016-06-15T16:35:45Z</time>
			</trkpt>
		
			<trkpt lat="45.901560" lon="2.247200">
			 <ele>566</ele>
			<time>2016-06-15T16:37:45Z</time>
			</trkpt>
		
			<trkpt lat="45.901680" lon="2.247210">
			 <ele>566</ele>
			<time>2016-06-15T16:39:45Z</time>
			</trkpt>
		
			<trkpt lat="45.901810" lon="2.247250">
			 <ele>565</ele>
			<time>2016-06-15T16:41:45Z</time>
			</trkpt>
		
			<trkpt lat="45.901940" lon="2.247290">
			 <ele>564</ele>
			<time>2016-06-15T16:43:45Z</time>
			</trkpt>
		
			<trkpt lat="45.902030" lon="2.247290">
			 <ele>564</ele>
			<time>2016-06-15T16:45:45Z</time>
			</trkpt>
		
			<trkpt lat="45.902100" lon="2.247280">
			 <ele>564</ele>
			<time>2016-06-15T16:47:45Z</time>
			</trkpt>
		
			<trkpt lat="45.902190" lon="2.247260">
			 <ele>564</ele>
			<time>2016-06-15T16:49:45Z</time>
			</trkpt>
		
			<trkpt lat="45.902300" lon="2.247190">
			 <ele>564</ele>
			<time>2016-06-15T16:51:45Z</time>
			</trkpt>
		
			<trkpt lat="45.902810" lon="2.246750">
			 <ele>565</ele>
			<time>2016-06-15T16:53:45Z</time>
			</trkpt>
		
			<trkpt lat="45.903180" lon="2.246440">
			 <ele>561</ele>
			<time>2016-06-15T16:55:45Z</time>
			</trkpt>
		
			<trkpt lat="45.903410" lon="2.246250">
			 <ele>561</ele>
			<time>2016-06-15T16:57:45Z</time>
			</trkpt>
		
			<trkpt lat="45.903520" lon="2.246170">
			 <ele>561</ele>
			<time>2016-06-15T16:59:45Z</time>
			</trkpt>
		
			<trkpt lat="45.903630" lon="2.246110">
			 <ele>562</ele>
			<time>2016-06-15T17:01:45Z</time>
			</trkpt>
		
			<trkpt lat="45.903750" lon="2.246070">
			 <ele>562</ele>
			<time>2016-06-15T17:03:45Z</time>
			</trkpt>
		
			<trkpt lat="45.903850" lon="2.246050">
			 <ele>562</ele>
			<time>2016-06-15T17:05:45Z</time>
			</trkpt>
		
			<trkpt lat="45.903950" lon="2.246050">
			 <ele>562</ele>
			<time>2016-06-15T17:07:45Z</time>
			</trkpt>
		
			<trkpt lat="45.904060" lon="2.246060">
			 <ele>561</ele>
			<time>2016-06-15T17:09:45Z</time>
			</trkpt>
		
			<trkpt lat="45.904190" lon="2.246090">
			 <ele>561</ele>
			<time>2016-06-15T17:11:45Z</time>
			</trkpt>
		
			<trkpt lat="45.904520" lon="2.246200">
			 <ele>559</ele>
			<time>2016-06-15T17:13:45Z</time>
			</trkpt>
		
			<trkpt lat="45.904800" lon="2.246310">
			 <ele>558</ele>
			<time>2016-06-15T17:15:45Z</time>
			</trkpt>
		
			<trkpt lat="45.904910" lon="2.246340">
			 <ele>557</ele>
			<time>2016-06-15T17:17:45Z</time>
			</trkpt>
		
			<trkpt lat="45.905080" lon="2.246370">
			 <ele>557</ele>
			<time>2016-06-15T17:19:45Z</time>
			</trkpt>
		
			<trkpt lat="45.905190" lon="2.246370">
			 <ele>556</ele>
			<time>2016-06-15T17:21:45Z</time>
			</trkpt>
		
			<trkpt lat="45.905310" lon="2.246350">
			 <ele>556</ele>
			<time>2016-06-15T17:23:45Z</time>
			</trkpt>
		
			<trkpt lat="45.905450" lon="2.246300">
			 <ele>556</ele>
			<time>2016-06-15T17:25:45Z</time>
			</trkpt>
		
			<trkpt lat="45.905520" lon="2.246270">
			 <ele>556</ele>
			<time>2016-06-15T17:27:45Z</time>
			</trkpt>
		
			<trkpt lat="45.905580" lon="2.246230">
			 <ele>555</ele>
			<time>2016-06-15T17:29:45Z</time>
			</trkpt>
		
			<trkpt lat="45.905650" lon="2.246180">
			 <ele>555</ele>
			<time>2016-06-15T17:31:45Z</time>
			</trkpt>
		
			<trkpt lat="45.905680" lon="2.246150">
			 <ele>555</ele>
			<time>2016-06-15T17:33:45Z</time>
			</trkpt>
		
			<trkpt lat="45.905740" lon="2.246100">
			 <ele>555</ele>
			<time>2016-06-15T17:35:45Z</time>
			</trkpt>
		
			<trkpt lat="45.905830" lon="2.245990">
			 <ele>555</ele>
			<time>2016-06-15T17:37:45Z</time>
			</trkpt>
		
			<trkpt lat="45.905900" lon="2.245890">
			 <ele>555</ele>
			<time>2016-06-15T17:39:45Z</time>
			</trkpt>
		
			<trkpt lat="45.906010" lon="2.245720">
			 <ele>554</ele>
			<time>2016-06-15T17:41:45Z</time>
			</trkpt>
		
			<trkpt lat="45.906180" lon="2.245410">
			 <ele>554</ele>
			<time>2016-06-15T17:43:45Z</time>
			</trkpt>
		
			<trkpt lat="45.906360" lon="2.245120">
			 <ele>554</ele>
			<time>2016-06-15T17:45:45Z</time>
			</trkpt>
		
			<trkpt lat="45.906730" lon="2.244480">
			 <ele>551</ele>
			<time>2016-06-15T17:47:45Z</time>
			</trkpt>
		
			<trkpt lat="45.906950" lon="2.244130">
			 <ele>550</ele>
			<time>2016-06-15T17:49:45Z</time>
			</trkpt>
		
			<trkpt lat="45.907110" lon="2.243870">
			 <ele>550</ele>
			<time>2016-06-15T17:51:45Z</time>
			</trkpt>
		
			<trkpt lat="45.907530" lon="2.243170">
			 <ele>548</ele>
			<time>2016-06-15T17:53:45Z</time>
			</trkpt>
		
			<trkpt lat="45.907830" lon="2.242670">
			 <ele>548</ele>
			<time>2016-06-15T17:55:45Z</time>
			</trkpt>
		
			<trkpt lat="45.908130" lon="2.242160">
			 <ele>547</ele>
			<time>2016-06-15T17:57:45Z</time>
			</trkpt>
		
			<trkpt lat="45.908700" lon="2.241210">
			 <ele>545</ele>
			<time>2016-06-15T17:59:45Z</time>
			</trkpt>
		
			<trkpt lat="45.909320" lon="2.240200">
			 <ele>551</ele>
			<time>2016-06-15T18:01:45Z</time>
			</trkpt>
		
			<trkpt lat="45.909370" lon="2.240140">
			 <ele>551</ele>
			<time>2016-06-15T18:03:45Z</time>
			</trkpt>
		
			<trkpt lat="45.909470" lon="2.240080">
			 <ele>552</ele>
			<time>2016-06-15T18:05:45Z</time>
			</trkpt>
		
			<trkpt lat="45.909530" lon="2.240060">
			 <ele>552</ele>
			<time>2016-06-15T18:07:45Z</time>
			</trkpt>
		
			<trkpt lat="45.909600" lon="2.240040">
			 <ele>552</ele>
			<time>2016-06-15T18:09:45Z</time>
			</trkpt>
		
			<trkpt lat="45.909660" lon="2.240050">
			 <ele>551</ele>
			<time>2016-06-15T18:11:45Z</time>
			</trkpt>
		
			<trkpt lat="45.909730" lon="2.240050">
			 <ele>551</ele>
			<time>2016-06-15T18:13:45Z</time>
			</trkpt>
		
			<trkpt lat="45.909830" lon="2.240090">
			 <ele>551</ele>
			<time>2016-06-15T18:15:45Z</time>
			</trkpt>
		
			<trkpt lat="45.909910" lon="2.240140">
			 <ele>550</ele>
			<time>2016-06-15T18:17:45Z</time>
			</trkpt>
		
			<trkpt lat="45.910010" lon="2.240220">
			 <ele>550</ele>
			<time>2016-06-15T18:19:45Z</time>
			</trkpt>
		
			<trkpt lat="45.910130" lon="2.240300">
			 <ele>549</ele>
			<time>2016-06-15T18:21:45Z</time>
			</trkpt>
		
			<trkpt lat="45.910200" lon="2.240330">
			 <ele>549</ele>
			<time>2016-06-15T18:23:45Z</time>
			</trkpt>
		
			<trkpt lat="45.910240" lon="2.240350">
			 <ele>548</ele>
			<time>2016-06-15T18:25:45Z</time>
			</trkpt>
		
			<trkpt lat="45.910270" lon="2.240350">
			 <ele>548</ele>
			<time>2016-06-15T18:27:45Z</time>
			</trkpt>
		
			<trkpt lat="45.910300" lon="2.240350">
			 <ele>548</ele>
			<time>2016-06-15T18:29:45Z</time>
			</trkpt>
		
			<trkpt lat="45.910350" lon="2.240340">
			 <ele>548</ele>
			<time>2016-06-15T18:31:45Z</time>
			</trkpt>
		
			<trkpt lat="45.910400" lon="2.240320">
			 <ele>548</ele>
			<time>2016-06-15T18:33:45Z</time>
			</trkpt>
		
			<trkpt lat="45.910450" lon="2.240280">
			 <ele>548</ele>
			<time>2016-06-15T18:35:45Z</time>
			</trkpt>
		
			<trkpt lat="45.910500" lon="2.240230">
			 <ele>548</ele>
			<time>2016-06-15T18:37:45Z</time>
			</trkpt>
		
			<trkpt lat="45.910540" lon="2.240170">
			 <ele>548</ele>
			<time>2016-06-15T18:39:45Z</time>
			</trkpt>
		
			<trkpt lat="45.910600" lon="2.240070">
			 <ele>548</ele>
			<time>2016-06-15T18:41:45Z</time>
			</trkpt>
		
			<trkpt lat="45.910660" lon="2.239960">
			 <ele>548</ele>
			<time>2016-06-15T18:43:45Z</time>
			</trkpt>
		
			<trkpt lat="45.910710" lon="2.239870">
			 <ele>548</ele>
			<time>2016-06-15T18:45:45Z</time>
			</trkpt>
		
			<trkpt lat="45.910780" lon="2.239790">
			 <ele>548</ele>
			<time>2016-06-15T18:47:45Z</time>
			</trkpt>
		
			<trkpt lat="45.910880" lon="2.239720">
			 <ele>548</ele>
			<time>2016-06-15T18:49:45Z</time>
			</trkpt>
		
			<trkpt lat="45.910960" lon="2.239690">
			 <ele>548</ele>
			<time>2016-06-15T18:51:45Z</time>
			</trkpt>
		
			<trkpt lat="45.911070" lon="2.239680">
			 <ele>548</ele>
			<time>2016-06-15T18:53:45Z</time>
			</trkpt>
		
			<trkpt lat="45.911190" lon="2.239670">
			 <ele>547</ele>
			<time>2016-06-15T18:55:45Z</time>
			</trkpt>
		
			<trkpt lat="45.911260" lon="2.239660">
			 <ele>547</ele>
			<time>2016-06-15T18:57:45Z</time>
			</trkpt>
		
			<trkpt lat="45.911340" lon="2.239640">
			 <ele>546</ele>
			<time>2016-06-15T18:59:45Z</time>
			</trkpt>
		
			<trkpt lat="45.911420" lon="2.239590">
			 <ele>546</ele>
			<time>2016-06-15T19:01:45Z</time>
			</trkpt>
		
			<trkpt lat="45.911460" lon="2.239570">
			 <ele>546</ele>
			<time>2016-06-15T19:03:45Z</time>
			</trkpt>
		
			<trkpt lat="45.911550" lon="2.239500">
			 <ele>546</ele>
			<time>2016-06-15T19:05:45Z</time>
			</trkpt>
		
			<trkpt lat="45.911860" lon="2.239240">
			 <ele>545</ele>
			<time>2016-06-15T19:07:45Z</time>
			</trkpt>
		
			<trkpt lat="45.912010" lon="2.239110">
			 <ele>544</ele>
			<time>2016-06-15T19:09:45Z</time>
			</trkpt>
		
			<trkpt lat="45.912100" lon="2.239020">
			 <ele>545</ele>
			<time>2016-06-15T19:11:45Z</time>
			</trkpt>
		
			<trkpt lat="45.912200" lon="2.238920">
			 <ele>545</ele>
			<time>2016-06-15T19:13:45Z</time>
			</trkpt>
		
			<trkpt lat="45.912290" lon="2.238860">
			 <ele>545</ele>
			<time>2016-06-15T19:15:45Z</time>
			</trkpt>
		
			<trkpt lat="45.912360" lon="2.238810">
			 <ele>546</ele>
			<time>2016-06-15T19:17:45Z</time>
			</trkpt>
		
			<trkpt lat="45.912430" lon="2.238790">
			 <ele>546</ele>
			<time>2016-06-15T19:19:45Z</time>
			</trkpt>
		
			<trkpt lat="45.912500" lon="2.238780">
			 <ele>546</ele>
			<time>2016-06-15T19:21:45Z</time>
			</trkpt>
		
			<trkpt lat="45.912570" lon="2.238790">
			 <ele>546</ele>
			<time>2016-06-15T19:23:45Z</time>
			</trkpt>
		
			<trkpt lat="45.912670" lon="2.238830">
			 <ele>546</ele>
			<time>2016-06-15T19:25:45Z</time>
			</trkpt>
		
			<trkpt lat="45.912850" lon="2.238900">
			 <ele>546</ele>
			<time>2016-06-15T19:27:45Z</time>
			</trkpt>
		
			<trkpt lat="45.913040" lon="2.239000">
			 <ele>546</ele>
			<time>2016-06-15T19:29:45Z</time>
			</trkpt>
		
			<trkpt lat="45.913170" lon="2.239050">
			 <ele>546</ele>
			<time>2016-06-15T19:31:45Z</time>
			</trkpt>
		
			<trkpt lat="45.913290" lon="2.239080">
			 <ele>546</ele>
			<time>2016-06-15T19:33:45Z</time>
			</trkpt>
		
			<trkpt lat="45.913380" lon="2.239090">
			 <ele>546</ele>
			<time>2016-06-15T19:35:45Z</time>
			</trkpt>
		
			<trkpt lat="45.913470" lon="2.239070">
			 <ele>546</ele>
			<time>2016-06-15T19:37:45Z</time>
			</trkpt>
		
			<trkpt lat="45.913620" lon="2.239000">
			 <ele>547</ele>
			<time>2016-06-15T19:39:45Z</time>
			</trkpt>
		
			<trkpt lat="45.913800" lon="2.238890">
			 <ele>547</ele>
			<time>2016-06-15T19:41:45Z</time>
			</trkpt>
		
			<trkpt lat="45.914050" lon="2.238710">
			 <ele>546</ele>
			<time>2016-06-15T19:43:45Z</time>
			</trkpt>
		
			<trkpt lat="45.914220" lon="2.238580">
			 <ele>546</ele>
			<time>2016-06-15T19:45:45Z</time>
			</trkpt>
		
			<trkpt lat="45.914350" lon="2.238440">
			 <ele>547</ele>
			<time>2016-06-15T19:47:45Z</time>
			</trkpt>
		
			<trkpt lat="45.914400" lon="2.238330">
			 <ele>547</ele>
			<time>2016-06-15T19:49:45Z</time>
			</trkpt>
		
			<trkpt lat="45.914430" lon="2.238230">
			 <ele>548</ele>
			<time>2016-06-15T19:51:45Z</time>
			</trkpt>
		
			<trkpt lat="45.914450" lon="2.238130">
			 <ele>549</ele>
			<time>2016-06-15T19:53:45Z</time>
			</trkpt>
		
			<trkpt lat="45.914450" lon="2.237980">
			 <ele>550</ele>
			<time>2016-06-15T19:55:45Z</time>
			</trkpt>
		
			<trkpt lat="45.914430" lon="2.237830">
			 <ele>551</ele>
			<time>2016-06-15T19:57:45Z</time>
			</trkpt>
		
			<trkpt lat="45.914400" lon="2.237590">
			 <ele>552</ele>
			<time>2016-06-15T19:59:45Z</time>
			</trkpt>
		
			<trkpt lat="45.914370" lon="2.237400">
			 <ele>552</ele>
			<time>2016-06-15T20:01:45Z</time>
			</trkpt>
		
			<trkpt lat="45.914320" lon="2.237000">
			 <ele>551</ele>
			<time>2016-06-15T20:03:45Z</time>
			</trkpt>
		
			<trkpt lat="45.914270" lon="2.236630">
			 <ele>551</ele>
			<time>2016-06-15T20:05:45Z</time>
			</trkpt>
		
			<trkpt lat="45.914230" lon="2.236380">
			 <ele>551</ele>
			<time>2016-06-15T20:07:45Z</time>
			</trkpt>
		
			<trkpt lat="45.914180" lon="2.236230">
			 <ele>551</ele>
			<time>2016-06-15T20:09:45Z</time>
			</trkpt>
		
			<trkpt lat="45.914130" lon="2.236140">
			 <ele>551</ele>
			<time>2016-06-15T20:11:45Z</time>
			</trkpt>
		
			<trkpt lat="45.914070" lon="2.236040">
			 <ele>551</ele>
			<time>2016-06-15T20:13:45Z</time>
			</trkpt>
		
			<trkpt lat="45.913990" lon="2.235970">
			 <ele>550</ele>
			<time>2016-06-15T20:15:45Z</time>
			</trkpt>
		
			<trkpt lat="45.913910" lon="2.235890">
			 <ele>549</ele>
			<time>2016-06-15T20:17:45Z</time>
			</trkpt>
		
			<trkpt lat="45.913820" lon="2.235800">
			 <ele>548</ele>
			<time>2016-06-15T20:19:45Z</time>
			</trkpt>
		
			<trkpt lat="45.913770" lon="2.235710">
			 <ele>548</ele>
			<time>2016-06-15T20:21:45Z</time>
			</trkpt>
		
			<trkpt lat="45.913720" lon="2.235620">
			 <ele>547</ele>
			<time>2016-06-15T20:23:45Z</time>
			</trkpt>
		
			<trkpt lat="45.913690" lon="2.235500">
			 <ele>547</ele>
			<time>2016-06-15T20:25:45Z</time>
			</trkpt>
		
			<trkpt lat="45.913680" lon="2.235420">
			 <ele>547</ele>
			<time>2016-06-15T20:27:45Z</time>
			</trkpt>
		
			<trkpt lat="45.913670" lon="2.235340">
			 <ele>547</ele>
			<time>2016-06-15T20:29:45Z</time>
			</trkpt>
		
			<trkpt lat="45.913680" lon="2.235230">
			 <ele>547</ele>
			<time>2016-06-15T20:31:45Z</time>
			</trkpt>
		
			<trkpt lat="45.913700" lon="2.235130">
			 <ele>548</ele>
			<time>2016-06-15T20:33:45Z</time>
			</trkpt>
		
			<trkpt lat="45.913740" lon="2.235020">
			 <ele>548</ele>
			<time>2016-06-15T20:35:45Z</time>
			</trkpt>
		
			<trkpt lat="45.913850" lon="2.234840">
			 <ele>549</ele>
			<time>2016-06-15T20:37:45Z</time>
			</trkpt>
		
			<trkpt lat="45.913920" lon="2.234740">
			 <ele>549</ele>
			<time>2016-06-15T20:39:45Z</time>
			</trkpt>
		
			<trkpt lat="45.913990" lon="2.234660">
			 <ele>549</ele>
			<time>2016-06-15T20:41:45Z</time>
			</trkpt>
		
			<trkpt lat="45.914080" lon="2.234580">
			 <ele>550</ele>
			<time>2016-06-15T20:43:45Z</time>
			</trkpt>
		
			<trkpt lat="45.914170" lon="2.234540">
			 <ele>550</ele>
			<time>2016-06-15T20:45:45Z</time>
			</trkpt>
		
			<trkpt lat="45.914280" lon="2.234500">
			 <ele>549</ele>
			<time>2016-06-15T20:47:45Z</time>
			</trkpt>
		
			<trkpt lat="45.914380" lon="2.234510">
			 <ele>549</ele>
			<time>2016-06-15T20:49:45Z</time>
			</trkpt>
		
			<trkpt lat="45.914490" lon="2.234540">
			 <ele>549</ele>
			<time>2016-06-15T20:51:45Z</time>
			</trkpt>
		
			<trkpt lat="45.914760" lon="2.234600">
			 <ele>549</ele>
			<time>2016-06-15T20:53:45Z</time>
			</trkpt>
		
			<trkpt lat="45.914950" lon="2.234660">
			 <ele>549</ele>
			<time>2016-06-15T20:55:45Z</time>
			</trkpt>
		
			<trkpt lat="45.915120" lon="2.234750">
			 <ele>548</ele>
			<time>2016-06-15T20:57:45Z</time>
			</trkpt>
		
			<trkpt lat="45.915180" lon="2.234820">
			 <ele>548</ele>
			<time>2016-06-15T20:59:45Z</time>
			</trkpt>
		
			<trkpt lat="45.915240" lon="2.234980">
			 <ele>548</ele>
			<time>2016-06-15T21:01:45Z</time>
			</trkpt>
		
			<trkpt lat="45.915300" lon="2.235210">
			 <ele>549</ele>
			<time>2016-06-15T21:03:45Z</time>
			</trkpt>
		
			<trkpt lat="45.915360" lon="2.235500">
			 <ele>549</ele>
			<time>2016-06-15T21:05:45Z</time>
			</trkpt>
		
			<trkpt lat="45.915430" lon="2.235710">
			 <ele>550</ele>
			<time>2016-06-15T21:07:45Z</time>
			</trkpt>
		
			<trkpt lat="45.915520" lon="2.235910">
			 <ele>551</ele>
			<time>2016-06-15T21:09:45Z</time>
			</trkpt>
		
			<trkpt lat="45.915620" lon="2.236070">
			 <ele>552</ele>
			<time>2016-06-15T21:11:45Z</time>
			</trkpt>
		
			<trkpt lat="45.915660" lon="2.236130">
			 <ele>553</ele>
			<time>2016-06-15T21:13:45Z</time>
			</trkpt>
		
			<trkpt lat="45.915710" lon="2.236180">
			 <ele>553</ele>
			<time>2016-06-15T21:15:45Z</time>
			</trkpt>
		
			<trkpt lat="45.915770" lon="2.236240">
			 <ele>554</ele>
			<time>2016-06-15T21:17:45Z</time>
			</trkpt>
		
			<trkpt lat="45.915830" lon="2.236280">
			 <ele>555</ele>
			<time>2016-06-15T21:19:45Z</time>
			</trkpt>
		
			<trkpt lat="45.915910" lon="2.236320">
			 <ele>555</ele>
			<time>2016-06-15T21:21:45Z</time>
			</trkpt>
		
			<trkpt lat="45.916020" lon="2.236340">
			 <ele>556</ele>
			<time>2016-06-15T21:23:45Z</time>
			</trkpt>
		
			<trkpt lat="45.916190" lon="2.236300">
			 <ele>555</ele>
			<time>2016-06-15T21:25:45Z</time>
			</trkpt>
		
			<trkpt lat="45.916340" lon="2.236250">
			 <ele>554</ele>
			<time>2016-06-15T21:27:45Z</time>
			</trkpt>
		
			<trkpt lat="45.916470" lon="2.236190">
			 <ele>554</ele>
			<time>2016-06-15T21:29:45Z</time>
			</trkpt>
		
			<trkpt lat="45.916530" lon="2.236150">
			 <ele>553</ele>
			<time>2016-06-15T21:31:45Z</time>
			</trkpt>
		
			<trkpt lat="45.916600" lon="2.236080">
			 <ele>552</ele>
			<time>2016-06-15T21:33:45Z</time>
			</trkpt>
		
			<trkpt lat="45.916670" lon="2.235970">
			 <ele>551</ele>
			<time>2016-06-15T21:35:45Z</time>
			</trkpt>
		
			<trkpt lat="45.916700" lon="2.235850">
			 <ele>549</ele>
			<time>2016-06-15T21:37:45Z</time>
			</trkpt>
		
			<trkpt lat="45.916700" lon="2.235820">
			 <ele>549</ele>
			<time>2016-06-15T21:39:45Z</time>
			</trkpt>
		
			<trkpt lat="45.916700" lon="2.235790">
			 <ele>549</ele>
			<time>2016-06-15T21:41:45Z</time>
			</trkpt>
		
			<trkpt lat="45.916700" lon="2.235730">
			 <ele>550</ele>
			<time>2016-06-15T21:43:45Z</time>
			</trkpt>
		
			<trkpt lat="45.916690" lon="2.235640">
			 <ele>550</ele>
			<time>2016-06-15T21:45:45Z</time>
			</trkpt>
		
			<trkpt lat="45.916660" lon="2.235560">
			 <ele>550</ele>
			<time>2016-06-15T21:47:45Z</time>
			</trkpt>
		
			<trkpt lat="45.916580" lon="2.235320">
			 <ele>551</ele>
			<time>2016-06-15T21:49:45Z</time>
			</trkpt>
		
			<trkpt lat="45.916570" lon="2.235190">
			 <ele>551</ele>
			<time>2016-06-15T21:51:45Z</time>
			</trkpt>
		
			<trkpt lat="45.916570" lon="2.235090">
			 <ele>551</ele>
			<time>2016-06-15T21:53:45Z</time>
			</trkpt>
		
			<trkpt lat="45.916580" lon="2.235010">
			 <ele>552</ele>
			<time>2016-06-15T21:55:45Z</time>
			</trkpt>
		
			<trkpt lat="45.916600" lon="2.234880">
			 <ele>551</ele>
			<time>2016-06-15T21:57:45Z</time>
			</trkpt>
		
			<trkpt lat="45.916640" lon="2.234770">
			 <ele>551</ele>
			<time>2016-06-15T21:59:45Z</time>
			</trkpt>
		
			<trkpt lat="45.916700" lon="2.234640">
			 <ele>551</ele>
			<time>2016-06-15T22:01:45Z</time>
			</trkpt>
		
			<trkpt lat="45.916750" lon="2.234530">
			 <ele>550</ele>
			<time>2016-06-15T22:03:45Z</time>
			</trkpt>
		
			<trkpt lat="45.916840" lon="2.234440">
			 <ele>551</ele>
			<time>2016-06-15T22:05:45Z</time>
			</trkpt>
		
			<trkpt lat="45.916910" lon="2.234390">
			 <ele>551</ele>
			<time>2016-06-15T22:07:45Z</time>
			</trkpt>
		
			<trkpt lat="45.917010" lon="2.234350">
			 <ele>552</ele>
			<time>2016-06-15T22:09:45Z</time>
			</trkpt>
		
			<trkpt lat="45.917140" lon="2.234320">
			 <ele>553</ele>
			<time>2016-06-15T22:11:45Z</time>
			</trkpt>
		
			<trkpt lat="45.917320" lon="2.234280">
			 <ele>554</ele>
			<time>2016-06-15T22:13:45Z</time>
			</trkpt>
		
			<trkpt lat="45.917530" lon="2.234260">
			 <ele>556</ele>
			<time>2016-06-15T22:15:45Z</time>
			</trkpt>
		
			<trkpt lat="45.917670" lon="2.234240">
			 <ele>556</ele>
			<time>2016-06-15T22:17:45Z</time>
			</trkpt>
		
			<trkpt lat="45.917720" lon="2.234220">
			 <ele>556</ele>
			<time>2016-06-15T22:19:45Z</time>
			</trkpt>
		
			<trkpt lat="45.917750" lon="2.234210">
			 <ele>556</ele>
			<time>2016-06-15T22:21:45Z</time>
			</trkpt>
		
			<trkpt lat="45.917790" lon="2.234190">
			 <ele>556</ele>
			<time>2016-06-15T22:23:45Z</time>
			</trkpt>
		
			<trkpt lat="45.917830" lon="2.234160">
			 <ele>556</ele>
			<time>2016-06-15T22:25:45Z</time>
			</trkpt>
		
			<trkpt lat="45.917880" lon="2.234110">
			 <ele>556</ele>
			<time>2016-06-15T22:27:45Z</time>
			</trkpt>
		
			<trkpt lat="45.917930" lon="2.234010">
			 <ele>556</ele>
			<time>2016-06-15T22:29:45Z</time>
			</trkpt>
		
			<trkpt lat="45.917940" lon="2.233940">
			 <ele>556</ele>
			<time>2016-06-15T22:31:45Z</time>
			</trkpt>
		
			<trkpt lat="45.917950" lon="2.233870">
			 <ele>556</ele>
			<time>2016-06-15T22:33:45Z</time>
			</trkpt>
		
			<trkpt lat="45.917950" lon="2.233750">
			 <ele>556</ele>
			<time>2016-06-15T22:35:45Z</time>
			</trkpt>
		
			<trkpt lat="45.917940" lon="2.233590">
			 <ele>556</ele>
			<time>2016-06-15T22:37:45Z</time>
			</trkpt>
		
			<trkpt lat="45.917890" lon="2.233360">
			 <ele>555</ele>
			<time>2016-06-15T22:39:45Z</time>
			</trkpt>
		
			<trkpt lat="45.917870" lon="2.233130">
			 <ele>556</ele>
			<time>2016-06-15T22:41:45Z</time>
			</trkpt>
		
			<trkpt lat="45.917860" lon="2.232910">
			 <ele>557</ele>
			<time>2016-06-15T22:43:45Z</time>
			</trkpt>
		
			<trkpt lat="45.917870" lon="2.232720">
			 <ele>558</ele>
			<time>2016-06-15T22:45:45Z</time>
			</trkpt>
		
			<trkpt lat="45.917890" lon="2.232540">
			 <ele>560</ele>
			<time>2016-06-15T22:47:45Z</time>
			</trkpt>
		
			<trkpt lat="45.917880" lon="2.232380">
			 <ele>559</ele>
			<time>2016-06-15T22:49:45Z</time>
			</trkpt>
		
			<trkpt lat="45.917840" lon="2.232240">
			 <ele>558</ele>
			<time>2016-06-15T22:51:45Z</time>
			</trkpt>
		
			<trkpt lat="45.917790" lon="2.232030">
			 <ele>557</ele>
			<time>2016-06-15T22:53:45Z</time>
			</trkpt>
		
			<trkpt lat="45.917780" lon="2.231900">
			 <ele>557</ele>
			<time>2016-06-15T22:55:45Z</time>
			</trkpt>
		
			<trkpt lat="45.917780" lon="2.231790">
			 <ele>557</ele>
			<time>2016-06-15T22:57:45Z</time>
			</trkpt>
		
			<trkpt lat="45.917800" lon="2.231680">
			 <ele>557</ele>
			<time>2016-06-15T22:59:45Z</time>
			</trkpt>
		
			<trkpt lat="45.917840" lon="2.231570">
			 <ele>557</ele>
			<time>2016-06-15T23:01:45Z</time>
			</trkpt>
		
			<trkpt lat="45.917900" lon="2.231440">
			 <ele>556</ele>
			<time>2016-06-15T23:03:45Z</time>
			</trkpt>
		
			<trkpt lat="45.917980" lon="2.231320">
			 <ele>556</ele>
			<time>2016-06-15T23:05:45Z</time>
			</trkpt>
		
			<trkpt lat="45.918070" lon="2.231230">
			 <ele>556</ele>
			<time>2016-06-15T23:07:45Z</time>
			</trkpt>
		
			<trkpt lat="45.918190" lon="2.231140">
			 <ele>556</ele>
			<time>2016-06-15T23:09:45Z</time>
			</trkpt>
		
			<trkpt lat="45.918390" lon="2.231060">
			 <ele>557</ele>
			<time>2016-06-15T23:11:45Z</time>
			</trkpt>
		
			<trkpt lat="45.918450" lon="2.231060">
			 <ele>557</ele>
			<time>2016-06-15T23:13:45Z</time>
			</trkpt>
		
			<trkpt lat="45.918550" lon="2.231050">
			 <ele>557</ele>
			<time>2016-06-15T23:15:45Z</time>
			</trkpt>
		
			<trkpt lat="45.918670" lon="2.231080">
			 <ele>558</ele>
			<time>2016-06-15T23:17:45Z</time>
			</trkpt>
		
			<trkpt lat="45.918790" lon="2.231120">
			 <ele>559</ele>
			<time>2016-06-15T23:19:45Z</time>
			</trkpt>
		
			<trkpt lat="45.918950" lon="2.231160">
			 <ele>560</ele>
			<time>2016-06-15T23:21:45Z</time>
			</trkpt>
		
			<trkpt lat="45.919060" lon="2.231170">
			 <ele>560</ele>
			<time>2016-06-15T23:23:45Z</time>
			</trkpt>
		
			<trkpt lat="45.919180" lon="2.231160">
			 <ele>561</ele>
			<time>2016-06-15T23:25:45Z</time>
			</trkpt>
		
			<trkpt lat="45.919340" lon="2.231110">
			 <ele>561</ele>
			<time>2016-06-15T23:27:45Z</time>
			</trkpt>
		
			<trkpt lat="45.919480" lon="2.231030">
			 <ele>561</ele>
			<time>2016-06-15T23:29:45Z</time>
			</trkpt>
		
			<trkpt lat="45.919620" lon="2.230940">
			 <ele>561</ele>
			<time>2016-06-15T23:31:45Z</time>
			</trkpt>
		
			<trkpt lat="45.919760" lon="2.230850">
			 <ele>562</ele>
			<time>2016-06-15T23:33:45Z</time>
			</trkpt>
		
			<trkpt lat="45.919890" lon="2.230770">
			 <ele>562</ele>
			<time>2016-06-15T23:35:45Z</time>
			</trkpt>
		
			<trkpt lat="45.919950" lon="2.230730">
			 <ele>562</ele>
			<time>2016-06-15T23:37:45Z</time>
			</trkpt>
		
			<trkpt lat="45.920050" lon="2.230690">
			 <ele>562</ele>
			<time>2016-06-15T23:39:45Z</time>
			</trkpt>
		
			<trkpt lat="45.920240" lon="2.230650">
			 <ele>561</ele>
			<time>2016-06-15T23:41:45Z</time>
			</trkpt>
		
			<trkpt lat="45.920370" lon="2.230620">
			 <ele>561</ele>
			<time>2016-06-15T23:43:45Z</time>
			</trkpt>
		
			<trkpt lat="45.920520" lon="2.230550">
			 <ele>560</ele>
			<time>2016-06-15T23:45:45Z</time>
			</trkpt>
		
			<trkpt lat="45.920660" lon="2.230480">
			 <ele>558</ele>
			<time>2016-06-15T23:47:45Z</time>
			</trkpt>
		
			<trkpt lat="45.920760" lon="2.230420">
			 <ele>558</ele>
			<time>2016-06-15T23:49:45Z</time>
			</trkpt>
		
			<trkpt lat="45.920830" lon="2.230400">
			 <ele>557</ele>
			<time>2016-06-15T23:51:45Z</time>
			</trkpt>
		
			<trkpt lat="45.920930" lon="2.230400">
			 <ele>557</ele>
			<time>2016-06-15T23:53:45Z</time>
			</trkpt>
		
			<trkpt lat="45.921110" lon="2.230400">
			 <ele>558</ele>
			<time>2016-06-15T23:55:45Z</time>
			</trkpt>
		
			<trkpt lat="45.921320" lon="2.230420">
			 <ele>558</ele>
			<time>2016-06-15T23:57:45Z</time>
			</trkpt>
		
			<trkpt lat="45.921650" lon="2.230470">
			 <ele>559</ele>
			<time>2016-06-15T23:59:45Z</time>
			</trkpt>
		
			<trkpt lat="45.922010" lon="2.230510">
			 <ele>561</ele>
			<time>2016-06-16T00:01:45Z</time>
			</trkpt>
		
			<trkpt lat="45.922330" lon="2.230550">
			 <ele>563</ele>
			<time>2016-06-16T00:03:45Z</time>
			</trkpt>
		
			<trkpt lat="45.922550" lon="2.230570">
			 <ele>564</ele>
			<time>2016-06-16T00:05:45Z</time>
			</trkpt>
		
			<trkpt lat="45.922750" lon="2.230580">
			 <ele>566</ele>
			<time>2016-06-16T00:07:45Z</time>
			</trkpt>
		
			<trkpt lat="45.922910" lon="2.230570">
			 <ele>567</ele>
			<time>2016-06-16T00:09:45Z</time>
			</trkpt>
		
			<trkpt lat="45.922960" lon="2.230560">
			 <ele>567</ele>
			<time>2016-06-16T00:11:45Z</time>
			</trkpt>
		
			<trkpt lat="45.923000" lon="2.230550">
			 <ele>568</ele>
			<time>2016-06-16T00:13:45Z</time>
			</trkpt>
		
			<trkpt lat="45.923040" lon="2.230540">
			 <ele>568</ele>
			<time>2016-06-16T00:15:45Z</time>
			</trkpt>
		
			<trkpt lat="45.923080" lon="2.230520">
			 <ele>569</ele>
			<time>2016-06-16T00:17:45Z</time>
			</trkpt>
		
			<trkpt lat="45.923110" lon="2.230490">
			 <ele>569</ele>
			<time>2016-06-16T00:19:45Z</time>
			</trkpt>
		
			<trkpt lat="45.923150" lon="2.230460">
			 <ele>569</ele>
			<time>2016-06-16T00:21:45Z</time>
			</trkpt>
		
			<trkpt lat="45.923230" lon="2.230360">
			 <ele>570</ele>
			<time>2016-06-16T00:23:45Z</time>
			</trkpt>
		
			<trkpt lat="45.923250" lon="2.230330">
			 <ele>571</ele>
			<time>2016-06-16T00:25:45Z</time>
			</trkpt>
		
			<trkpt lat="45.923260" lon="2.230300">
			 <ele>571</ele>
			<time>2016-06-16T00:27:45Z</time>
			</trkpt>
		
			<trkpt lat="45.923270" lon="2.230260">
			 <ele>571</ele>
			<time>2016-06-16T00:29:45Z</time>
			</trkpt>
		
			<trkpt lat="45.923280" lon="2.230210">
			 <ele>571</ele>
			<time>2016-06-16T00:31:45Z</time>
			</trkpt>
		
			<trkpt lat="45.923300" lon="2.230130">
			 <ele>572</ele>
			<time>2016-06-16T00:33:45Z</time>
			</trkpt>
		
			<trkpt lat="45.923310" lon="2.230080">
			 <ele>572</ele>
			<time>2016-06-16T00:35:45Z</time>
			</trkpt>
		
			<trkpt lat="45.923310" lon="2.230020">
			 <ele>573</ele>
			<time>2016-06-16T00:37:45Z</time>
			</trkpt>
		
			<trkpt lat="45.923300" lon="2.229870">
			 <ele>573</ele>
			<time>2016-06-16T00:39:45Z</time>
			</trkpt>
		
			<trkpt lat="45.923270" lon="2.229670">
			 <ele>573</ele>
			<time>2016-06-16T00:41:45Z</time>
			</trkpt>
		
			<trkpt lat="45.923270" lon="2.229640">
			 <ele>573</ele>
			<time>2016-06-16T00:43:45Z</time>
			</trkpt>
		
			<trkpt lat="45.923200" lon="2.229300">
			 <ele>573</ele>
			<time>2016-06-16T00:45:45Z</time>
			</trkpt>
		
			<trkpt lat="45.923110" lon="2.228900">
			 <ele>575</ele>
			<time>2016-06-16T00:47:45Z</time>
			</trkpt>
		
			<trkpt lat="45.923070" lon="2.228750">
			 <ele>575</ele>
			<time>2016-06-16T00:49:45Z</time>
			</trkpt>
		
			<trkpt lat="45.923000" lon="2.228510">
			 <ele>575</ele>
			<time>2016-06-16T00:51:45Z</time>
			</trkpt>
		
			<trkpt lat="45.922930" lon="2.228260">
			 <ele>575</ele>
			<time>2016-06-16T00:53:45Z</time>
			</trkpt>
		
			<trkpt lat="45.922910" lon="2.228130">
			 <ele>574</ele>
			<time>2016-06-16T00:55:45Z</time>
			</trkpt>
		
			<trkpt lat="45.922910" lon="2.228080">
			 <ele>574</ele>
			<time>2016-06-16T00:57:45Z</time>
			</trkpt>
		
			<trkpt lat="45.922940" lon="2.227810">
			 <ele>574</ele>
			<time>2016-06-16T00:59:45Z</time>
			</trkpt>
		
			<trkpt lat="45.922950" lon="2.227660">
			 <ele>574</ele>
			<time>2016-06-16T01:01:45Z</time>
			</trkpt>
		
			<trkpt lat="45.922960" lon="2.227420">
			 <ele>574</ele>
			<time>2016-06-16T01:03:45Z</time>
			</trkpt>
		
			<trkpt lat="45.922940" lon="2.227220">
			 <ele>574</ele>
			<time>2016-06-16T01:05:45Z</time>
			</trkpt>
		
			<trkpt lat="45.922900" lon="2.227060">
			 <ele>573</ele>
			<time>2016-06-16T01:07:45Z</time>
			</trkpt>
		
			<trkpt lat="45.922870" lon="2.226960">
			 <ele>572</ele>
			<time>2016-06-16T01:09:45Z</time>
			</trkpt>
		
			<trkpt lat="45.922790" lon="2.226840">
			 <ele>571</ele>
			<time>2016-06-16T01:11:45Z</time>
			</trkpt>
		
			<trkpt lat="45.922770" lon="2.226810">
			 <ele>570</ele>
			<time>2016-06-16T01:13:45Z</time>
			</trkpt>
		
			<trkpt lat="45.922700" lon="2.226690">
			 <ele>569</ele>
			<time>2016-06-16T01:15:45Z</time>
			</trkpt>
		
			<trkpt lat="45.922440" lon="2.226380">
			 <ele>566</ele>
			<time>2016-06-16T01:17:45Z</time>
			</trkpt>
		
			<trkpt lat="45.922200" lon="2.226090">
			 <ele>567</ele>
			<time>2016-06-16T01:19:45Z</time>
			</trkpt>
		
			<trkpt lat="45.922100" lon="2.225980">
			 <ele>567</ele>
			<time>2016-06-16T01:21:45Z</time>
			</trkpt>
		
			<trkpt lat="45.921940" lon="2.225770">
			 <ele>568</ele>
			<time>2016-06-16T01:23:45Z</time>
			</trkpt>
		
			<trkpt lat="45.921880" lon="2.225650">
			 <ele>567</ele>
			<time>2016-06-16T01:25:45Z</time>
			</trkpt>
		
			<trkpt lat="45.921850" lon="2.225570">
			 <ele>566</ele>
			<time>2016-06-16T01:27:45Z</time>
			</trkpt>
		
			<trkpt lat="45.921840" lon="2.225490">
			 <ele>566</ele>
			<time>2016-06-16T01:29:45Z</time>
			</trkpt>
		
			<trkpt lat="45.921830" lon="2.225410">
			 <ele>565</ele>
			<time>2016-06-16T01:31:45Z</time>
			</trkpt>
		
			<trkpt lat="45.921830" lon="2.225340">
			 <ele>565</ele>
			<time>2016-06-16T01:33:45Z</time>
			</trkpt>
		
			<trkpt lat="45.921840" lon="2.225260">
			 <ele>564</ele>
			<time>2016-06-16T01:35:45Z</time>
			</trkpt>
		
			<trkpt lat="45.921870" lon="2.225170">
			 <ele>564</ele>
			<time>2016-06-16T01:37:45Z</time>
			</trkpt>
		
			<trkpt lat="45.921940" lon="2.224990">
			 <ele>564</ele>
			<time>2016-06-16T01:39:45Z</time>
			</trkpt>
		
			<trkpt lat="45.922030" lon="2.224810">
			 <ele>562</ele>
			<time>2016-06-16T01:41:45Z</time>
			</trkpt>
		
			<trkpt lat="45.922050" lon="2.224800">
			 <ele>562</ele>
			<time>2016-06-16T01:43:45Z</time>
			</trkpt>
		
			<trkpt lat="45.922310" lon="2.224500">
			 <ele>562</ele>
			<time>2016-06-16T01:45:45Z</time>
			</trkpt>
		
			<trkpt lat="45.922560" lon="2.224290">
			 <ele>563</ele>
			<time>2016-06-16T01:47:45Z</time>
			</trkpt>
		
			<trkpt lat="45.922620" lon="2.224230">
			 <ele>563</ele>
			<time>2016-06-16T01:49:45Z</time>
			</trkpt>
		
			<trkpt lat="45.922980" lon="2.223960">
			 <ele>561</ele>
			<time>2016-06-16T01:51:45Z</time>
			</trkpt>
		
			<trkpt lat="45.923110" lon="2.223860">
			 <ele>561</ele>
			<time>2016-06-16T01:53:45Z</time>
			</trkpt>
		
			<trkpt lat="45.923250" lon="2.223780">
			 <ele>561</ele>
			<time>2016-06-16T01:55:45Z</time>
			</trkpt>
		
			<trkpt lat="45.923280" lon="2.223770">
			 <ele>561</ele>
			<time>2016-06-16T01:57:45Z</time>
			</trkpt>
		
			<trkpt lat="45.923520" lon="2.223690">
			 <ele>562</ele>
			<time>2016-06-16T01:59:45Z</time>
			</trkpt>
		
			<trkpt lat="45.923610" lon="2.223660">
			 <ele>563</ele>
			<time>2016-06-16T02:01:45Z</time>
			</trkpt>
		
			<trkpt lat="45.923640" lon="2.223640">
			 <ele>563</ele>
			<time>2016-06-16T02:03:45Z</time>
			</trkpt>
		
			<trkpt lat="45.923660" lon="2.223620">
			 <ele>563</ele>
			<time>2016-06-16T02:05:45Z</time>
			</trkpt>
		
			<trkpt lat="45.923720" lon="2.223570">
			 <ele>563</ele>
			<time>2016-06-16T02:07:45Z</time>
			</trkpt>
		
			<trkpt lat="45.923750" lon="2.223530">
			 <ele>563</ele>
			<time>2016-06-16T02:09:45Z</time>
			</trkpt>
		
			<trkpt lat="45.923780" lon="2.223480">
			 <ele>562</ele>
			<time>2016-06-16T02:11:45Z</time>
			</trkpt>
		
			<trkpt lat="45.923800" lon="2.223410">
			 <ele>562</ele>
			<time>2016-06-16T02:13:45Z</time>
			</trkpt>
		
			<trkpt lat="45.923820" lon="2.223340">
			 <ele>561</ele>
			<time>2016-06-16T02:15:45Z</time>
			</trkpt>
		
			<trkpt lat="45.923820" lon="2.223280">
			 <ele>561</ele>
			<time>2016-06-16T02:17:45Z</time>
			</trkpt>
		
			<trkpt lat="45.923820" lon="2.223190">
			 <ele>561</ele>
			<time>2016-06-16T02:19:45Z</time>
			</trkpt>
		
			<trkpt lat="45.923810" lon="2.223110">
			 <ele>560</ele>
			<time>2016-06-16T02:21:45Z</time>
			</trkpt>
		
			<trkpt lat="45.923800" lon="2.223050">
			 <ele>560</ele>
			<time>2016-06-16T02:23:45Z</time>
			</trkpt>
		
			<trkpt lat="45.923780" lon="2.222960">
			 <ele>559</ele>
			<time>2016-06-16T02:25:45Z</time>
			</trkpt>
		
			<trkpt lat="45.923740" lon="2.222810">
			 <ele>558</ele>
			<time>2016-06-16T02:27:45Z</time>
			</trkpt>
		
			<trkpt lat="45.923740" lon="2.222690">
			 <ele>557</ele>
			<time>2016-06-16T02:29:45Z</time>
			</trkpt>
		
			<trkpt lat="45.923740" lon="2.222640">
			 <ele>557</ele>
			<time>2016-06-16T02:31:45Z</time>
			</trkpt>
		
			<trkpt lat="45.923750" lon="2.222580">
			 <ele>556</ele>
			<time>2016-06-16T02:33:45Z</time>
			</trkpt>
		
			<trkpt lat="45.923790" lon="2.222500">
			 <ele>557</ele>
			<time>2016-06-16T02:35:45Z</time>
			</trkpt>
		
			<trkpt lat="45.923840" lon="2.222410">
			 <ele>556</ele>
			<time>2016-06-16T02:37:45Z</time>
			</trkpt>
		
			<trkpt lat="45.923920" lon="2.222310">
			 <ele>557</ele>
			<time>2016-06-16T02:39:45Z</time>
			</trkpt>
		
			<trkpt lat="45.924080" lon="2.222150">
			 <ele>558</ele>
			<time>2016-06-16T02:41:45Z</time>
			</trkpt>
		
			<trkpt lat="45.924340" lon="2.221880">
			 <ele>557</ele>
			<time>2016-06-16T02:43:45Z</time>
			</trkpt>
		
			<trkpt lat="45.924350" lon="2.221870">
			 <ele>557</ele>
			<time>2016-06-16T02:45:45Z</time>
			</trkpt>
		
			<trkpt lat="45.924360" lon="2.221870">
			 <ele>557</ele>
			<time>2016-06-16T02:47:45Z</time>
			</trkpt>
		
			<trkpt lat="45.924420" lon="2.221830">
			 <ele>557</ele>
			<time>2016-06-16T02:49:45Z</time>
			</trkpt>
		
			<trkpt lat="45.924460" lon="2.221810">
			 <ele>557</ele>
			<time>2016-06-16T02:51:45Z</time>
			</trkpt>
		
			<trkpt lat="45.924470" lon="2.221800">
			 <ele>556</ele>
			<time>2016-06-16T02:53:45Z</time>
			</trkpt>
		
			<trkpt lat="45.924540" lon="2.221780">
			 <ele>556</ele>
			<time>2016-06-16T02:55:45Z</time>
			</trkpt>
		
			<trkpt lat="45.924690" lon="2.221750">
			 <ele>556</ele>
			<time>2016-06-16T02:57:45Z</time>
			</trkpt>
		
			<trkpt lat="45.924740" lon="2.221740">
			 <ele>556</ele>
			<time>2016-06-16T02:59:45Z</time>
			</trkpt>
		
			<trkpt lat="45.925130" lon="2.221690">
			 <ele>555</ele>
			<time>2016-06-16T03:01:45Z</time>
			</trkpt>
		
			<trkpt lat="45.925440" lon="2.221650">
			 <ele>555</ele>
			<time>2016-06-16T03:03:45Z</time>
			</trkpt>
		
			<trkpt lat="45.925540" lon="2.221640">
			 <ele>556</ele>
			<time>2016-06-16T03:05:45Z</time>
			</trkpt>
		
			<trkpt lat="45.925830" lon="2.221610">
			 <ele>556</ele>
			<time>2016-06-16T03:07:45Z</time>
			</trkpt>
		
			<trkpt lat="45.925980" lon="2.221600">
			 <ele>556</ele>
			<time>2016-06-16T03:09:45Z</time>
			</trkpt>
		
			<trkpt lat="45.926040" lon="2.221590">
			 <ele>556</ele>
			<time>2016-06-16T03:11:45Z</time>
			</trkpt>
		
			<trkpt lat="45.926110" lon="2.221570">
			 <ele>557</ele>
			<time>2016-06-16T03:13:45Z</time>
			</trkpt>
		
			<trkpt lat="45.926150" lon="2.221550">
			 <ele>557</ele>
			<time>2016-06-16T03:15:45Z</time>
			</trkpt>
		
			<trkpt lat="45.926200" lon="2.221510">
			 <ele>557</ele>
			<time>2016-06-16T03:17:45Z</time>
			</trkpt>
		
			<trkpt lat="45.926230" lon="2.221480">
			 <ele>557</ele>
			<time>2016-06-16T03:19:45Z</time>
			</trkpt>
		
			<trkpt lat="45.926260" lon="2.221420">
			 <ele>558</ele>
			<time>2016-06-16T03:21:45Z</time>
			</trkpt>
		
			<trkpt lat="45.926290" lon="2.221360">
			 <ele>558</ele>
			<time>2016-06-16T03:23:45Z</time>
			</trkpt>
		
			<trkpt lat="45.926300" lon="2.221310">
			 <ele>559</ele>
			<time>2016-06-16T03:25:45Z</time>
			</trkpt>
		
			<trkpt lat="45.926310" lon="2.221270">
			 <ele>559</ele>
			<time>2016-06-16T03:27:45Z</time>
			</trkpt>
		
			<trkpt lat="45.926320" lon="2.221210">
			 <ele>559</ele>
			<time>2016-06-16T03:29:45Z</time>
			</trkpt>
		
			<trkpt lat="45.926320" lon="2.221110">
			 <ele>560</ele>
			<time>2016-06-16T03:31:45Z</time>
			</trkpt>
		
			<trkpt lat="45.926300" lon="2.221040">
			 <ele>560</ele>
			<time>2016-06-16T03:33:45Z</time>
			</trkpt>
		
			<trkpt lat="45.926280" lon="2.220980">
			 <ele>560</ele>
			<time>2016-06-16T03:35:45Z</time>
			</trkpt>
		
			<trkpt lat="45.926260" lon="2.220940">
			 <ele>560</ele>
			<time>2016-06-16T03:37:45Z</time>
			</trkpt>
		
			<trkpt lat="45.926210" lon="2.220850">
			 <ele>560</ele>
			<time>2016-06-16T03:39:45Z</time>
			</trkpt>
		
			<trkpt lat="45.926120" lon="2.220750">
			 <ele>560</ele>
			<time>2016-06-16T03:41:45Z</time>
			</trkpt>
		
			<trkpt lat="45.925990" lon="2.220680">
			 <ele>560</ele>
			<time>2016-06-16T03:43:45Z</time>
			</trkpt>
		
			<trkpt lat="45.925860" lon="2.220640">
			 <ele>559</ele>
			<time>2016-06-16T03:45:45Z</time>
			</trkpt>
		
			<trkpt lat="45.925710" lon="2.220640">
			 <ele>557</ele>
			<time>2016-06-16T03:47:45Z</time>
			</trkpt>
		
			<trkpt lat="45.925660" lon="2.220620">
			 <ele>557</ele>
			<time>2016-06-16T03:49:45Z</time>
			</trkpt>
		
			<trkpt lat="45.925580" lon="2.220580">
			 <ele>557</ele>
			<time>2016-06-16T03:51:45Z</time>
			</trkpt>
		
			<trkpt lat="45.925520" lon="2.220530">
			 <ele>557</ele>
			<time>2016-06-16T03:53:45Z</time>
			</trkpt>
		
			<trkpt lat="45.925460" lon="2.220480">
			 <ele>557</ele>
			<time>2016-06-16T03:55:45Z</time>
			</trkpt>
		
			<trkpt lat="45.925400" lon="2.220400">
			 <ele>557</ele>
			<time>2016-06-16T03:57:45Z</time>
			</trkpt>
		
			<trkpt lat="45.925390" lon="2.220380">
			 <ele>557</ele>
			<time>2016-06-16T03:59:45Z</time>
			</trkpt>
		
			<trkpt lat="45.925350" lon="2.220300">
			 <ele>558</ele>
			<time>2016-06-16T04:01:45Z</time>
			</trkpt>
		
			<trkpt lat="45.925320" lon="2.220190">
			 <ele>559</ele>
			<time>2016-06-16T04:03:45Z</time>
			</trkpt>
		
			<trkpt lat="45.925300" lon="2.220030">
			 <ele>560</ele>
			<time>2016-06-16T04:05:45Z</time>
			</trkpt>
		
			<trkpt lat="45.925300" lon="2.219860">
			 <ele>561</ele>
			<time>2016-06-16T04:07:45Z</time>
			</trkpt>
		
			<trkpt lat="45.925320" lon="2.219660">
			 <ele>562</ele>
			<time>2016-06-16T04:09:45Z</time>
			</trkpt>
		
			<trkpt lat="45.925380" lon="2.219390">
			 <ele>564</ele>
			<time>2016-06-16T04:11:45Z</time>
			</trkpt>
		
			<trkpt lat="45.925460" lon="2.219000">
			 <ele>567</ele>
			<time>2016-06-16T04:13:45Z</time>
			</trkpt>
		
			<trkpt lat="45.925460" lon="2.219000">
			 <ele>567</ele>
			<time>2016-06-16T04:15:45Z</time>
			</trkpt>
		
			<trkpt lat="45.925480" lon="2.219130">
			 <ele>567</ele>
			<time>2016-06-16T04:17:45Z</time>
			</trkpt>
		
			<trkpt lat="45.925480" lon="2.219160">
			 <ele>567</ele>
			<time>2016-06-16T04:19:45Z</time>
			</trkpt>
		
			<trkpt lat="45.925470" lon="2.219440">
			 <ele>566</ele>
			<time>2016-06-16T04:21:45Z</time>
			</trkpt>
		
			<trkpt lat="45.925480" lon="2.219540">
			 <ele>566</ele>
			<time>2016-06-16T04:23:45Z</time>
			</trkpt>
		
			<trkpt lat="45.925480" lon="2.219610">
			 <ele>565</ele>
			<time>2016-06-16T04:25:45Z</time>
			</trkpt>
		
			<trkpt lat="45.925490" lon="2.219670">
			 <ele>565</ele>
			<time>2016-06-16T04:27:45Z</time>
			</trkpt>
		
			<trkpt lat="45.925490" lon="2.219710">
			 <ele>565</ele>
			<time>2016-06-16T04:29:45Z</time>
			</trkpt>
		
			<trkpt lat="45.925490" lon="2.219740">
			 <ele>565</ele>
			<time>2016-06-16T04:31:45Z</time>
			</trkpt>
		
			<trkpt lat="45.925510" lon="2.219790">
			 <ele>565</ele>
			<time>2016-06-16T04:33:45Z</time>
			</trkpt>
		
			<trkpt lat="45.925530" lon="2.219830">
			 <ele>565</ele>
			<time>2016-06-16T04:35:45Z</time>
			</trkpt>
		
			<trkpt lat="45.925550" lon="2.219870">
			 <ele>566</ele>
			<time>2016-06-16T04:37:45Z</time>
			</trkpt>
		
			<trkpt lat="45.925580" lon="2.219900">
			 <ele>566</ele>
			<time>2016-06-16T04:39:45Z</time>
			</trkpt>
		
			<trkpt lat="45.925600" lon="2.219930">
			 <ele>566</ele>
			<time>2016-06-16T04:41:45Z</time>
			</trkpt>
		
			<trkpt lat="45.925630" lon="2.219960">
			 <ele>567</ele>
			<time>2016-06-16T04:43:45Z</time>
			</trkpt>
		
			<trkpt lat="45.925660" lon="2.219990">
			 <ele>567</ele>
			<time>2016-06-16T04:45:45Z</time>
			</trkpt>
		
			<trkpt lat="45.925770" lon="2.220070">
			 <ele>568</ele>
			<time>2016-06-16T04:47:45Z</time>
			</trkpt>
		
			<trkpt lat="45.925840" lon="2.220110">
			 <ele>568</ele>
			<time>2016-06-16T04:49:45Z</time>
			</trkpt>
		
			<trkpt lat="45.925900" lon="2.220130">
			 <ele>568</ele>
			<time>2016-06-16T04:51:45Z</time>
			</trkpt>
		
			<trkpt lat="45.925950" lon="2.220140">
			 <ele>568</ele>
			<time>2016-06-16T04:53:45Z</time>
			</trkpt>
		
			<trkpt lat="45.926010" lon="2.220130">
			 <ele>569</ele>
			<time>2016-06-16T04:55:45Z</time>
			</trkpt>
		
			<trkpt lat="45.926080" lon="2.220100">
			 <ele>569</ele>
			<time>2016-06-16T04:57:45Z</time>
			</trkpt>
		
			<trkpt lat="45.926170" lon="2.220070">
			 <ele>570</ele>
			<time>2016-06-16T04:59:45Z</time>
			</trkpt>
		
			<trkpt lat="45.926460" lon="2.219890">
			 <ele>574</ele>
			<time>2016-06-16T05:01:45Z</time>
			</trkpt>
		
			<trkpt lat="45.926560" lon="2.219830">
			 <ele>575</ele>
			<time>2016-06-16T05:03:45Z</time>
			</trkpt>
		
			<trkpt lat="45.926690" lon="2.219750">
			 <ele>577</ele>
			<time>2016-06-16T05:05:45Z</time>
			</trkpt>
		
			<trkpt lat="45.926750" lon="2.219740">
			 <ele>578</ele>
			<time>2016-06-16T05:07:45Z</time>
			</trkpt>
		
			<trkpt lat="45.926810" lon="2.219740">
			 <ele>578</ele>
			<time>2016-06-16T05:09:45Z</time>
			</trkpt>
		
			<trkpt lat="45.926850" lon="2.219760">
			 <ele>578</ele>
			<time>2016-06-16T05:11:45Z</time>
			</trkpt>
		
			<trkpt lat="45.926890" lon="2.219790">
			 <ele>578</ele>
			<time>2016-06-16T05:13:45Z</time>
			</trkpt>
		
			<trkpt lat="45.926930" lon="2.219830">
			 <ele>577</ele>
			<time>2016-06-16T05:15:45Z</time>
			</trkpt>
		
			<trkpt lat="45.926950" lon="2.219860">
			 <ele>577</ele>
			<time>2016-06-16T05:17:45Z</time>
			</trkpt>
		
			<trkpt lat="45.926980" lon="2.219910">
			 <ele>577</ele>
			<time>2016-06-16T05:19:45Z</time>
			</trkpt>
		
			<trkpt lat="45.927000" lon="2.219970">
			 <ele>576</ele>
			<time>2016-06-16T05:21:45Z</time>
			</trkpt>
		
			<trkpt lat="45.927030" lon="2.220030">
			 <ele>575</ele>
			<time>2016-06-16T05:23:45Z</time>
			</trkpt>
		
			<trkpt lat="45.927090" lon="2.220190">
			 <ele>575</ele>
			<time>2016-06-16T05:25:45Z</time>
			</trkpt>
		
			<trkpt lat="45.927170" lon="2.220390">
			 <ele>574</ele>
			<time>2016-06-16T05:27:45Z</time>
			</trkpt>
		
			<trkpt lat="45.927240" lon="2.220500">
			 <ele>574</ele>
			<time>2016-06-16T05:29:45Z</time>
			</trkpt>
		
			<trkpt lat="45.927310" lon="2.220590">
			 <ele>574</ele>
			<time>2016-06-16T05:31:45Z</time>
			</trkpt>
		
			<trkpt lat="45.927410" lon="2.220680">
			 <ele>575</ele>
			<time>2016-06-16T05:33:45Z</time>
			</trkpt>
		
			<trkpt lat="45.927510" lon="2.220730">
			 <ele>576</ele>
			<time>2016-06-16T05:35:45Z</time>
			</trkpt>
		
			<trkpt lat="45.927620" lon="2.220780">
			 <ele>576</ele>
			<time>2016-06-16T05:37:45Z</time>
			</trkpt>
		
			<trkpt lat="45.927710" lon="2.220810">
			 <ele>576</ele>
			<time>2016-06-16T05:39:45Z</time>
			</trkpt>
		
			<trkpt lat="45.927820" lon="2.220810">
			 <ele>576</ele>
			<time>2016-06-16T05:41:45Z</time>
			</trkpt>
		
			<trkpt lat="45.927920" lon="2.220810">
			 <ele>577</ele>
			<time>2016-06-16T05:43:45Z</time>
			</trkpt>
		
			<trkpt lat="45.928030" lon="2.220790">
			 <ele>577</ele>
			<time>2016-06-16T05:45:45Z</time>
			</trkpt>
		
			<trkpt lat="45.928150" lon="2.220760">
			 <ele>578</ele>
			<time>2016-06-16T05:47:45Z</time>
			</trkpt>
		
			<trkpt lat="45.928290" lon="2.220720">
			 <ele>579</ele>
			<time>2016-06-16T05:49:45Z</time>
			</trkpt>
		
			<trkpt lat="45.928390" lon="2.220700">
			 <ele>580</ele>
			<time>2016-06-16T05:51:45Z</time>
			</trkpt>
		
			<trkpt lat="45.928470" lon="2.220700">
			 <ele>581</ele>
			<time>2016-06-16T05:53:45Z</time>
			</trkpt>
		
			<trkpt lat="45.928560" lon="2.220730">
			 <ele>583</ele>
			<time>2016-06-16T05:55:45Z</time>
			</trkpt>
		
			<trkpt lat="45.928630" lon="2.220770">
			 <ele>584</ele>
			<time>2016-06-16T05:57:45Z</time>
			</trkpt>
		
			<trkpt lat="45.928690" lon="2.220810">
			 <ele>585</ele>
			<time>2016-06-16T05:59:45Z</time>
			</trkpt>
		
			<trkpt lat="45.928790" lon="2.220900">
			 <ele>585</ele>
			<time>2016-06-16T06:01:45Z</time>
			</trkpt>
		
			<trkpt lat="45.928910" lon="2.221020">
			 <ele>585</ele>
			<time>2016-06-16T06:03:45Z</time>
			</trkpt>
		
			<trkpt lat="45.929160" lon="2.221280">
			 <ele>585</ele>
			<time>2016-06-16T06:05:45Z</time>
			</trkpt>
		
			<trkpt lat="45.929390" lon="2.221520">
			 <ele>584</ele>
			<time>2016-06-16T06:07:45Z</time>
			</trkpt>
		
			<trkpt lat="45.929550" lon="2.221710">
			 <ele>585</ele>
			<time>2016-06-16T06:09:45Z</time>
			</trkpt>
		
			<trkpt lat="45.929730" lon="2.221920">
			 <ele>586</ele>
			<time>2016-06-16T06:11:45Z</time>
			</trkpt>
		
			<trkpt lat="45.929850" lon="2.222050">
			 <ele>587</ele>
			<time>2016-06-16T06:13:45Z</time>
			</trkpt>
		
			<trkpt lat="45.930000" lon="2.222210">
			 <ele>587</ele>
			<time>2016-06-16T06:15:45Z</time>
			</trkpt>
		
			<trkpt lat="45.930140" lon="2.222320">
			 <ele>588</ele>
			<time>2016-06-16T06:17:45Z</time>
			</trkpt>
		
			<trkpt lat="45.930350" lon="2.222470">
			 <ele>588</ele>
			<time>2016-06-16T06:19:45Z</time>
			</trkpt>
		
			<trkpt lat="45.930520" lon="2.222590">
			 <ele>589</ele>
			<time>2016-06-16T06:21:45Z</time>
			</trkpt>
		
			<trkpt lat="45.930700" lon="2.222720">
			 <ele>589</ele>
			<time>2016-06-16T06:23:45Z</time>
			</trkpt>
		
			<trkpt lat="45.930880" lon="2.222840">
			 <ele>589</ele>
			<time>2016-06-16T06:25:45Z</time>
			</trkpt>
		
			<trkpt lat="45.931020" lon="2.222940">
			 <ele>589</ele>
			<time>2016-06-16T06:27:45Z</time>
			</trkpt>
		
			<trkpt lat="45.931210" lon="2.223090">
			 <ele>588</ele>
			<time>2016-06-16T06:29:45Z</time>
			</trkpt>
		
			<trkpt lat="45.931340" lon="2.223200">
			 <ele>587</ele>
			<time>2016-06-16T06:31:45Z</time>
			</trkpt>
		
			<trkpt lat="45.931420" lon="2.223280">
			 <ele>586</ele>
			<time>2016-06-16T06:33:45Z</time>
			</trkpt>
		
			<trkpt lat="45.931640" lon="2.223470">
			 <ele>587</ele>
			<time>2016-06-16T06:35:45Z</time>
			</trkpt>
		
			<trkpt lat="45.931840" lon="2.223650">
			 <ele>588</ele>
			<time>2016-06-16T06:37:45Z</time>
			</trkpt>
		
			<trkpt lat="45.931940" lon="2.223770">
			 <ele>588</ele>
			<time>2016-06-16T06:39:45Z</time>
			</trkpt>
		
			<trkpt lat="45.932020" lon="2.223780">
			 <ele>588</ele>
			<time>2016-06-16T06:41:45Z</time>
			</trkpt>
		
			<trkpt lat="45.932240" lon="2.223880">
			 <ele>587</ele>
			<time>2016-06-16T06:43:45Z</time>
			</trkpt>
		
			<trkpt lat="45.932330" lon="2.223930">
			 <ele>587</ele>
			<time>2016-06-16T06:45:45Z</time>
			</trkpt>
		
			<trkpt lat="45.932620" lon="2.224040">
			 <ele>586</ele>
			<time>2016-06-16T06:47:45Z</time>
			</trkpt>
		
			<trkpt lat="45.932940" lon="2.224170">
			 <ele>587</ele>
			<time>2016-06-16T06:49:45Z</time>
			</trkpt>
		
			<trkpt lat="45.933320" lon="2.224330">
			 <ele>588</ele>
			<time>2016-06-16T06:51:45Z</time>
			</trkpt>
		
			<trkpt lat="45.933480" lon="2.224390">
			 <ele>588</ele>
			<time>2016-06-16T06:53:45Z</time>
			</trkpt>
		
			<trkpt lat="45.933540" lon="2.224440">
			 <ele>589</ele>
			<time>2016-06-16T06:55:45Z</time>
			</trkpt>
		
			<trkpt lat="45.933550" lon="2.224450">
			 <ele>589</ele>
			<time>2016-06-16T06:57:45Z</time>
			</trkpt>
		
			<trkpt lat="45.933630" lon="2.224520">
			 <ele>589</ele>
			<time>2016-06-16T06:59:45Z</time>
			</trkpt>
		
			<trkpt lat="45.933720" lon="2.224640">
			 <ele>589</ele>
			<time>2016-06-16T07:01:45Z</time>
			</trkpt>
		
			<trkpt lat="45.933800" lon="2.224740">
			 <ele>590</ele>
			<time>2016-06-16T07:03:45Z</time>
			</trkpt>
		
			<trkpt lat="45.933890" lon="2.224930">
			 <ele>589</ele>
			<time>2016-06-16T07:05:45Z</time>
			</trkpt>
		
			<trkpt lat="45.933990" lon="2.225170">
			 <ele>589</ele>
			<time>2016-06-16T07:07:45Z</time>
			</trkpt>
		
			<trkpt lat="45.934140" lon="2.225590">
			 <ele>588</ele>
			<time>2016-06-16T07:09:45Z</time>
			</trkpt>
		
			<trkpt lat="45.934300" lon="2.226060">
			 <ele>587</ele>
			<time>2016-06-16T07:11:45Z</time>
			</trkpt>
		
			<trkpt lat="45.934440" lon="2.226430">
			 <ele>585</ele>
			<time>2016-06-16T07:13:45Z</time>
			</trkpt>
		
			<trkpt lat="45.934560" lon="2.226700">
			 <ele>584</ele>
			<time>2016-06-16T07:15:45Z</time>
			</trkpt>
		
			<trkpt lat="45.934630" lon="2.226840">
			 <ele>584</ele>
			<time>2016-06-16T07:17:45Z</time>
			</trkpt>
		
			<trkpt lat="45.934700" lon="2.226950">
			 <ele>584</ele>
			<time>2016-06-16T07:19:45Z</time>
			</trkpt>
		
			<trkpt lat="45.934780" lon="2.227000">
			 <ele>584</ele>
			<time>2016-06-16T07:21:45Z</time>
			</trkpt>
		
			<trkpt lat="45.934950" lon="2.227090">
			 <ele>584</ele>
			<time>2016-06-16T07:23:45Z</time>
			</trkpt>
		
			<trkpt lat="45.935230" lon="2.227270">
			 <ele>584</ele>
			<time>2016-06-16T07:25:45Z</time>
			</trkpt>
		
			<trkpt lat="45.935420" lon="2.227350">
			 <ele>584</ele>
			<time>2016-06-16T07:27:45Z</time>
			</trkpt>
		
			<trkpt lat="45.935470" lon="2.227360">
			 <ele>584</ele>
			<time>2016-06-16T07:29:45Z</time>
			</trkpt>
		
			<trkpt lat="45.935510" lon="2.227360">
			 <ele>584</ele>
			<time>2016-06-16T07:31:45Z</time>
			</trkpt>
		
			<trkpt lat="45.935580" lon="2.227360">
			 <ele>584</ele>
			<time>2016-06-16T07:33:45Z</time>
			</trkpt>
		
			<trkpt lat="45.935690" lon="2.227320">
			 <ele>583</ele>
			<time>2016-06-16T07:35:45Z</time>
			</trkpt>
		
			<trkpt lat="45.935780" lon="2.227260">
			 <ele>583</ele>
			<time>2016-06-16T07:37:45Z</time>
			</trkpt>
		
			<trkpt lat="45.935890" lon="2.227170">
			 <ele>582</ele>
			<time>2016-06-16T07:39:45Z</time>
			</trkpt>
		
			<trkpt lat="45.936040" lon="2.227040">
			 <ele>582</ele>
			<time>2016-06-16T07:41:45Z</time>
			</trkpt>
		
			<trkpt lat="45.936170" lon="2.226960">
			 <ele>581</ele>
			<time>2016-06-16T07:43:45Z</time>
			</trkpt>
		
			<trkpt lat="45.936270" lon="2.226920">
			 <ele>581</ele>
			<time>2016-06-16T07:45:45Z</time>
			</trkpt>
		
			<trkpt lat="45.936390" lon="2.226910">
			 <ele>581</ele>
			<time>2016-06-16T07:47:45Z</time>
			</trkpt>
		
			<trkpt lat="45.936560" lon="2.226900">
			 <ele>582</ele>
			<time>2016-06-16T07:49:45Z</time>
			</trkpt>
		
			<trkpt lat="45.936830" lon="2.226910">
			 <ele>582</ele>
			<time>2016-06-16T07:51:45Z</time>
			</trkpt>
		
			<trkpt lat="45.937240" lon="2.226920">
			 <ele>582</ele>
			<time>2016-06-16T07:53:45Z</time>
			</trkpt>
		
			<trkpt lat="45.937660" lon="2.226920">
			 <ele>582</ele>
			<time>2016-06-16T07:55:45Z</time>
			</trkpt>
		
			<trkpt lat="45.938030" lon="2.226920">
			 <ele>582</ele>
			<time>2016-06-16T07:57:45Z</time>
			</trkpt>
		
			<trkpt lat="45.938360" lon="2.226930">
			 <ele>582</ele>
			<time>2016-06-16T07:59:45Z</time>
			</trkpt>
		
			<trkpt lat="45.938710" lon="2.226920">
			 <ele>581</ele>
			<time>2016-06-16T08:01:45Z</time>
			</trkpt>
		
			<trkpt lat="45.938950" lon="2.226940">
			 <ele>580</ele>
			<time>2016-06-16T08:03:45Z</time>
			</trkpt>
		
			<trkpt lat="45.939130" lon="2.226970">
			 <ele>580</ele>
			<time>2016-06-16T08:05:45Z</time>
			</trkpt>
		
			<trkpt lat="45.939260" lon="2.227000">
			 <ele>579</ele>
			<time>2016-06-16T08:07:45Z</time>
			</trkpt>
		
			<trkpt lat="45.939410" lon="2.227050">
			 <ele>579</ele>
			<time>2016-06-16T08:09:45Z</time>
			</trkpt>
		
			<trkpt lat="45.939520" lon="2.227100">
			 <ele>579</ele>
			<time>2016-06-16T08:11:45Z</time>
			</trkpt>
		
			<trkpt lat="45.939700" lon="2.227220">
			 <ele>580</ele>
			<time>2016-06-16T08:13:45Z</time>
			</trkpt>
		
			<trkpt lat="45.939890" lon="2.227340">
			 <ele>580</ele>
			<time>2016-06-16T08:15:45Z</time>
			</trkpt>
		
			<trkpt lat="45.940100" lon="2.227510">
			 <ele>580</ele>
			<time>2016-06-16T08:17:45Z</time>
			</trkpt>
		
			<trkpt lat="45.940430" lon="2.227760">
			 <ele>579</ele>
			<time>2016-06-16T08:19:45Z</time>
			</trkpt>
		
			<trkpt lat="45.940650" lon="2.227920">
			 <ele>578</ele>
			<time>2016-06-16T08:21:45Z</time>
			</trkpt>
		
			<trkpt lat="45.940790" lon="2.228020">
			 <ele>577</ele>
			<time>2016-06-16T08:23:45Z</time>
			</trkpt>
		
			<trkpt lat="45.941190" lon="2.228320">
			 <ele>578</ele>
			<time>2016-06-16T08:25:45Z</time>
			</trkpt>
		
			<trkpt lat="45.941350" lon="2.228460">
			 <ele>579</ele>
			<time>2016-06-16T08:27:45Z</time>
			</trkpt>
		
			<trkpt lat="45.941450" lon="2.228550">
			 <ele>579</ele>
			<time>2016-06-16T08:29:45Z</time>
			</trkpt>
		
			<trkpt lat="45.941460" lon="2.228570">
			 <ele>579</ele>
			<time>2016-06-16T08:31:45Z</time>
			</trkpt>
		
			<trkpt lat="45.941510" lon="2.228630">
			 <ele>579</ele>
			<time>2016-06-16T08:33:45Z</time>
			</trkpt>
		
			<trkpt lat="45.941590" lon="2.228750">
			 <ele>578</ele>
			<time>2016-06-16T08:35:45Z</time>
			</trkpt>
		
			<trkpt lat="45.941660" lon="2.228870">
			 <ele>578</ele>
			<time>2016-06-16T08:37:45Z</time>
			</trkpt>
		
			<trkpt lat="45.941690" lon="2.228920">
			 <ele>578</ele>
			<time>2016-06-16T08:39:45Z</time>
			</trkpt>
		
			<trkpt lat="45.941760" lon="2.229070">
			 <ele>579</ele>
			<time>2016-06-16T08:41:45Z</time>
			</trkpt>
		
			<trkpt lat="45.941890" lon="2.229300">
			 <ele>579</ele>
			<time>2016-06-16T08:43:45Z</time>
			</trkpt>
		
			<trkpt lat="45.942050" lon="2.229620">
			 <ele>580</ele>
			<time>2016-06-16T08:45:45Z</time>
			</trkpt>
		
			<trkpt lat="45.942230" lon="2.229960">
			 <ele>582</ele>
			<time>2016-06-16T08:47:45Z</time>
			</trkpt>
		
			<trkpt lat="45.942380" lon="2.230230">
			 <ele>583</ele>
			<time>2016-06-16T08:49:45Z</time>
			</trkpt>
		
			<trkpt lat="45.942480" lon="2.230350">
			 <ele>583</ele>
			<time>2016-06-16T08:51:45Z</time>
			</trkpt>
		
			<trkpt lat="45.942550" lon="2.230430">
			 <ele>584</ele>
			<time>2016-06-16T08:53:45Z</time>
			</trkpt>
		
			<trkpt lat="45.942670" lon="2.230550">
			 <ele>584</ele>
			<time>2016-06-16T08:55:45Z</time>
			</trkpt>
		
			<trkpt lat="45.942930" lon="2.230790">
			 <ele>586</ele>
			<time>2016-06-16T08:57:45Z</time>
			</trkpt>
		
			<trkpt lat="45.943180" lon="2.231000">
			 <ele>588</ele>
			<time>2016-06-16T08:59:45Z</time>
			</trkpt>
		
			<trkpt lat="45.943360" lon="2.231170">
			 <ele>589</ele>
			<time>2016-06-16T09:01:45Z</time>
			</trkpt>
		
			<trkpt lat="45.943390" lon="2.231200">
			 <ele>589</ele>
			<time>2016-06-16T09:03:45Z</time>
			</trkpt>
		
			<trkpt lat="45.943500" lon="2.231310">
			 <ele>590</ele>
			<time>2016-06-16T09:05:45Z</time>
			</trkpt>
		
			<trkpt lat="45.943600" lon="2.231440">
			 <ele>591</ele>
			<time>2016-06-16T09:07:45Z</time>
			</trkpt>
		
			<trkpt lat="45.943710" lon="2.231560">
			 <ele>591</ele>
			<time>2016-06-16T09:09:45Z</time>
			</trkpt>
		
			<trkpt lat="45.943800" lon="2.231640">
			 <ele>591</ele>
			<time>2016-06-16T09:11:45Z</time>
			</trkpt>
		
			<trkpt lat="45.943940" lon="2.231720">
			 <ele>592</ele>
			<time>2016-06-16T09:13:45Z</time>
			</trkpt>
		
			<trkpt lat="45.944050" lon="2.231780">
			 <ele>592</ele>
			<time>2016-06-16T09:15:45Z</time>
			</trkpt>
		
			<trkpt lat="45.944230" lon="2.231840">
			 <ele>594</ele>
			<time>2016-06-16T09:17:45Z</time>
			</trkpt>
		
			<trkpt lat="45.944470" lon="2.231930">
			 <ele>595</ele>
			<time>2016-06-16T09:19:45Z</time>
			</trkpt>
		
			<trkpt lat="45.944720" lon="2.232020">
			 <ele>597</ele>
			<time>2016-06-16T09:21:45Z</time>
			</trkpt>
		
			<trkpt lat="45.944830" lon="2.232080">
			 <ele>597</ele>
			<time>2016-06-16T09:23:45Z</time>
			</trkpt>
		
			<trkpt lat="45.944950" lon="2.232160">
			 <ele>598</ele>
			<time>2016-06-16T09:25:45Z</time>
			</trkpt>
		
			<trkpt lat="45.945080" lon="2.232260">
			 <ele>598</ele>
			<time>2016-06-16T09:27:45Z</time>
			</trkpt>
		
			<trkpt lat="45.945230" lon="2.232380">
			 <ele>598</ele>
			<time>2016-06-16T09:29:45Z</time>
			</trkpt>
		
			<trkpt lat="45.945360" lon="2.232470">
			 <ele>599</ele>
			<time>2016-06-16T09:31:45Z</time>
			</trkpt>
		
			<trkpt lat="45.945590" lon="2.232630">
			 <ele>600</ele>
			<time>2016-06-16T09:33:45Z</time>
			</trkpt>
		
			<trkpt lat="45.945760" lon="2.232770">
			 <ele>600</ele>
			<time>2016-06-16T09:35:45Z</time>
			</trkpt>
		
			<trkpt lat="45.945910" lon="2.232900">
			 <ele>601</ele>
			<time>2016-06-16T09:37:45Z</time>
			</trkpt>
		
			<trkpt lat="45.946100" lon="2.233160">
			 <ele>601</ele>
			<time>2016-06-16T09:39:45Z</time>
			</trkpt>
		
			<trkpt lat="45.946170" lon="2.233270">
			 <ele>601</ele>
			<time>2016-06-16T09:41:45Z</time>
			</trkpt>
		
			<trkpt lat="45.946240" lon="2.233390">
			 <ele>601</ele>
			<time>2016-06-16T09:43:45Z</time>
			</trkpt>
		
			<trkpt lat="45.946330" lon="2.233560">
			 <ele>602</ele>
			<time>2016-06-16T09:45:45Z</time>
			</trkpt>
		
			<trkpt lat="45.946420" lon="2.233760">
			 <ele>604</ele>
			<time>2016-06-16T09:47:45Z</time>
			</trkpt>
		
			<trkpt lat="45.946500" lon="2.233920">
			 <ele>605</ele>
			<time>2016-06-16T09:49:45Z</time>
			</trkpt>
		
			<trkpt lat="45.946560" lon="2.234040">
			 <ele>606</ele>
			<time>2016-06-16T09:51:45Z</time>
			</trkpt>
		
			<trkpt lat="45.946600" lon="2.234110">
			 <ele>606</ele>
			<time>2016-06-16T09:53:45Z</time>
			</trkpt>
		
			<trkpt lat="45.946600" lon="2.234110">
			 <ele>606</ele>
			<time>2016-06-16T09:55:45Z</time>
			</trkpt>
		
			<trkpt lat="45.946560" lon="2.234250">
			 <ele>607</ele>
			<time>2016-06-16T09:57:45Z</time>
			</trkpt>
		
			<trkpt lat="45.946540" lon="2.234390">
			 <ele>607</ele>
			<time>2016-06-16T09:59:45Z</time>
			</trkpt>
		
			<trkpt lat="45.946530" lon="2.234470">
			 <ele>608</ele>
			<time>2016-06-16T10:01:45Z</time>
			</trkpt>
		
			<trkpt lat="45.946520" lon="2.234640">
			 <ele>608</ele>
			<time>2016-06-16T10:03:45Z</time>
			</trkpt>
		
			<trkpt lat="45.946520" lon="2.234910">
			 <ele>609</ele>
			<time>2016-06-16T10:05:45Z</time>
			</trkpt>
		
			<trkpt lat="45.946460" lon="2.239100">
			 <ele>620</ele>
			<time>2016-06-16T10:07:45Z</time>
			</trkpt>
		
			<trkpt lat="45.946430" lon="2.240850">
			 <ele>622</ele>
			<time>2016-06-16T10:09:45Z</time>
			</trkpt>
		
			<trkpt lat="45.946430" lon="2.241080">
			 <ele>622</ele>
			<time>2016-06-16T10:11:45Z</time>
			</trkpt>
		
			<trkpt lat="45.946420" lon="2.242130">
			 <ele>622</ele>
			<time>2016-06-16T10:13:45Z</time>
			</trkpt>
		
			<trkpt lat="45.946380" lon="2.245400">
			 <ele>638</ele>
			<time>2016-06-16T10:15:45Z</time>
			</trkpt>
		
			<trkpt lat="45.946350" lon="2.247520">
			 <ele>638</ele>
			<time>2016-06-16T10:17:45Z</time>
			</trkpt>
		
			<trkpt lat="45.946340" lon="2.248070">
			 <ele>639</ele>
			<time>2016-06-16T10:19:45Z</time>
			</trkpt>
		
			<trkpt lat="45.946330" lon="2.248330">
			 <ele>640</ele>
			<time>2016-06-16T10:21:45Z</time>
			</trkpt>
		
			<trkpt lat="45.946310" lon="2.248480">
			 <ele>640</ele>
			<time>2016-06-16T10:23:45Z</time>
			</trkpt>
		
			<trkpt lat="45.946280" lon="2.249520">
			 <ele>641</ele>
			<time>2016-06-16T10:25:45Z</time>
			</trkpt>
		
			<trkpt lat="45.946280" lon="2.249650">
			 <ele>640</ele>
			<time>2016-06-16T10:27:45Z</time>
			</trkpt>
		
			<trkpt lat="45.946270" lon="2.250110">
			 <ele>640</ele>
			<time>2016-06-16T10:29:45Z</time>
			</trkpt>
		
			<trkpt lat="45.946270" lon="2.250110">
			 <ele>640</ele>
			<time>2016-06-16T10:31:45Z</time>
			</trkpt>
		
			<trkpt lat="45.946200" lon="2.250090">
			 <ele>640</ele>
			<time>2016-06-16T10:33:45Z</time>
			</trkpt>
		
			<trkpt lat="45.946180" lon="2.250090">
			 <ele>640</ele>
			<time>2016-06-16T10:35:45Z</time>
			</trkpt>
		
			<trkpt lat="45.946170" lon="2.250090">
			 <ele>640</ele>
			<time>2016-06-16T10:37:45Z</time>
			</trkpt>
		
			<trkpt lat="45.946100" lon="2.250080">
			 <ele>640</ele>
			<time>2016-06-16T10:39:45Z</time>
			</trkpt>
		
			<trkpt lat="45.945960" lon="2.250070">
			 <ele>640</ele>
			<time>2016-06-16T10:41:45Z</time>
			</trkpt>
		
			<trkpt lat="45.945800" lon="2.250070">
			 <ele>640</ele>
			<time>2016-06-16T10:43:45Z</time>
			</trkpt>
		
			<trkpt lat="45.945640" lon="2.250060">
			 <ele>639</ele>
			<time>2016-06-16T10:45:45Z</time>
			</trkpt>
		
			<trkpt lat="45.945420" lon="2.250050">
			 <ele>638</ele>
			<time>2016-06-16T10:47:45Z</time>
			</trkpt>
		
			<trkpt lat="45.945090" lon="2.250080">
			 <ele>636</ele>
			<time>2016-06-16T10:49:45Z</time>
			</trkpt>
		
			<trkpt lat="45.944910" lon="2.250100">
			 <ele>635</ele>
			<time>2016-06-16T10:51:45Z</time>
			</trkpt>
		
			<trkpt lat="45.944820" lon="2.250090">
			 <ele>634</ele>
			<time>2016-06-16T10:53:45Z</time>
			</trkpt>
		
				</trkseg>
			   </trk>
			 </gpx>
	